<?xml version="1.0" encoding="UTF-8" standalone="no" ?>
<gpx xmlns="http://www.topografix.com/GPX/1/1" xmlns:xsi="http://www.w3.org/2001/XMLSchema-instance" xsi:schemaLocation="http://www.topografix.com/GPX/1/1 http://www.topografix.com/GPX/1/1/gpx.xsd" version="1.1" creator="VisuGPX - https://www.visugpx.com">
  <metadata>
    <name>NE-N-Pirmil Sainte Luce Carquefou St Mars du Désert Le Ceillier Nantes</name>
    <desc><![CDATA[NE-N-Pirmil Sainte Luce Carquefou St Mars du Désert Le Ceillier Nantes]]></desc>
  </metadata>
  <trk>
    <name><![CDATA[2022-03-27 11:48 GMT+2]]></name>
    <trkseg>
      <trkpt lat="47.16772" lon="-1.62669">
        <ele>122</ele>
        <time>2022-03-27T09:48:49Z</time>
      </trkpt>
      <trkpt lat="47.16781" lon="-1.62663">
        <ele>90</ele>
        <time>2022-03-27T09:49:38Z</time>
      </trkpt>
      <trkpt lat="47.16776" lon="-1.6265">
        <ele>75</ele>
        <time>2022-03-27T09:51:20Z</time>
      </trkpt>
      <trkpt lat="47.16782" lon="-1.62662">
        <ele>72</ele>
        <time>2022-03-27T09:53:10Z</time>
      </trkpt>
      <trkpt lat="47.16773" lon="-1.62675">
        <ele>71</ele>
        <time>2022-03-27T09:53:13Z</time>
      </trkpt>
      <trkpt lat="47.16764" lon="-1.62678">
        <ele>71</ele>
        <time>2022-03-27T09:53:15Z</time>
      </trkpt>
      <trkpt lat="47.16755" lon="-1.62672">
        <ele>70</ele>
        <time>2022-03-27T09:53:17Z</time>
      </trkpt>
      <trkpt lat="47.16745" lon="-1.62674">
        <ele>71</ele>
        <time>2022-03-27T09:53:19Z</time>
      </trkpt>
      <trkpt lat="47.16734" lon="-1.62681">
        <ele>71</ele>
        <time>2022-03-27T09:53:21Z</time>
      </trkpt>
      <trkpt lat="47.16725" lon="-1.62688">
        <ele>71</ele>
        <time>2022-03-27T09:53:23Z</time>
      </trkpt>
      <trkpt lat="47.16717" lon="-1.62694">
        <ele>71</ele>
        <time>2022-03-27T09:53:25Z</time>
      </trkpt>
      <trkpt lat="47.16707" lon="-1.6269">
        <ele>70</ele>
        <time>2022-03-27T09:53:27Z</time>
      </trkpt>
      <trkpt lat="47.16701" lon="-1.62675">
        <ele>70</ele>
        <time>2022-03-27T09:53:29Z</time>
      </trkpt>
      <trkpt lat="47.16697" lon="-1.62658">
        <ele>70</ele>
        <time>2022-03-27T09:53:31Z</time>
      </trkpt>
      <trkpt lat="47.16694" lon="-1.6264">
        <ele>69</ele>
        <time>2022-03-27T09:53:33Z</time>
      </trkpt>
      <trkpt lat="47.16693" lon="-1.6262">
        <ele>69</ele>
        <time>2022-03-27T09:53:35Z</time>
      </trkpt>
      <trkpt lat="47.16693" lon="-1.62601">
        <ele>69</ele>
        <time>2022-03-27T09:53:37Z</time>
      </trkpt>
      <trkpt lat="47.16694" lon="-1.62581">
        <ele>68</ele>
        <time>2022-03-27T09:53:39Z</time>
      </trkpt>
      <trkpt lat="47.16695" lon="-1.62562">
        <ele>68</ele>
        <time>2022-03-27T09:53:41Z</time>
      </trkpt>
      <trkpt lat="47.16697" lon="-1.62543">
        <ele>68</ele>
        <time>2022-03-27T09:53:43Z</time>
      </trkpt>
      <trkpt lat="47.167" lon="-1.62524">
        <ele>68</ele>
        <time>2022-03-27T09:53:45Z</time>
      </trkpt>
      <trkpt lat="47.16703" lon="-1.62505">
        <ele>67</ele>
        <time>2022-03-27T09:53:47Z</time>
      </trkpt>
      <trkpt lat="47.16706" lon="-1.62486">
        <ele>67</ele>
        <time>2022-03-27T09:53:49Z</time>
      </trkpt>
      <trkpt lat="47.1671" lon="-1.62468">
        <ele>68</ele>
        <time>2022-03-27T09:53:51Z</time>
      </trkpt>
      <trkpt lat="47.16713" lon="-1.6245">
        <ele>68</ele>
        <time>2022-03-27T09:53:53Z</time>
      </trkpt>
      <trkpt lat="47.16715" lon="-1.62432">
        <ele>69</ele>
        <time>2022-03-27T09:53:55Z</time>
      </trkpt>
      <trkpt lat="47.1672" lon="-1.62415">
        <ele>69</ele>
        <time>2022-03-27T09:53:57Z</time>
      </trkpt>
      <trkpt lat="47.16725" lon="-1.62398">
        <ele>69</ele>
        <time>2022-03-27T09:53:59Z</time>
      </trkpt>
      <trkpt lat="47.1673" lon="-1.6238">
        <ele>69</ele>
        <time>2022-03-27T09:54:01Z</time>
      </trkpt>
      <trkpt lat="47.16738" lon="-1.62365">
        <ele>69</ele>
        <time>2022-03-27T09:54:03Z</time>
      </trkpt>
      <trkpt lat="47.16747" lon="-1.62353">
        <ele>70</ele>
        <time>2022-03-27T09:54:05Z</time>
      </trkpt>
      <trkpt lat="47.16758" lon="-1.62345">
        <ele>70</ele>
        <time>2022-03-27T09:54:07Z</time>
      </trkpt>
      <trkpt lat="47.16769" lon="-1.62338">
        <ele>70</ele>
        <time>2022-03-27T09:54:09Z</time>
      </trkpt>
      <trkpt lat="47.16781" lon="-1.62331">
        <ele>70</ele>
        <time>2022-03-27T09:54:11Z</time>
      </trkpt>
      <trkpt lat="47.16792" lon="-1.62326">
        <ele>70</ele>
        <time>2022-03-27T09:54:13Z</time>
      </trkpt>
      <trkpt lat="47.16804" lon="-1.62319">
        <ele>70</ele>
        <time>2022-03-27T09:54:15Z</time>
      </trkpt>
      <trkpt lat="47.16815" lon="-1.62311">
        <ele>70</ele>
        <time>2022-03-27T09:54:17Z</time>
      </trkpt>
      <trkpt lat="47.16827" lon="-1.62301">
        <ele>70</ele>
        <time>2022-03-27T09:54:19Z</time>
      </trkpt>
      <trkpt lat="47.16837" lon="-1.62289">
        <ele>70</ele>
        <time>2022-03-27T09:54:21Z</time>
      </trkpt>
      <trkpt lat="47.16847" lon="-1.62277">
        <ele>70</ele>
        <time>2022-03-27T09:54:23Z</time>
      </trkpt>
      <trkpt lat="47.16856" lon="-1.62264">
        <ele>70</ele>
        <time>2022-03-27T09:54:25Z</time>
      </trkpt>
      <trkpt lat="47.16867" lon="-1.62252">
        <ele>69</ele>
        <time>2022-03-27T09:54:27Z</time>
      </trkpt>
      <trkpt lat="47.16877" lon="-1.6224">
        <ele>69</ele>
        <time>2022-03-27T09:54:29Z</time>
      </trkpt>
      <trkpt lat="47.16887" lon="-1.62226">
        <ele>69</ele>
        <time>2022-03-27T09:54:31Z</time>
      </trkpt>
      <trkpt lat="47.16897" lon="-1.62212">
        <ele>69</ele>
        <time>2022-03-27T09:54:33Z</time>
      </trkpt>
      <trkpt lat="47.16906" lon="-1.62198">
        <ele>69</ele>
        <time>2022-03-27T09:54:35Z</time>
      </trkpt>
      <trkpt lat="47.16915" lon="-1.62183">
        <ele>69</ele>
        <time>2022-03-27T09:54:37Z</time>
      </trkpt>
      <trkpt lat="47.16924" lon="-1.62167">
        <ele>69</ele>
        <time>2022-03-27T09:54:39Z</time>
      </trkpt>
      <trkpt lat="47.16933" lon="-1.62151">
        <ele>69</ele>
        <time>2022-03-27T09:54:41Z</time>
      </trkpt>
      <trkpt lat="47.16941" lon="-1.62136">
        <ele>68</ele>
        <time>2022-03-27T09:54:43Z</time>
      </trkpt>
      <trkpt lat="47.16949" lon="-1.6212">
        <ele>68</ele>
        <time>2022-03-27T09:54:45Z</time>
      </trkpt>
      <trkpt lat="47.16957" lon="-1.62104">
        <ele>68</ele>
        <time>2022-03-27T09:54:47Z</time>
      </trkpt>
      <trkpt lat="47.16965" lon="-1.62088">
        <ele>69</ele>
        <time>2022-03-27T09:54:49Z</time>
      </trkpt>
      <trkpt lat="47.16974" lon="-1.62071">
        <ele>69</ele>
        <time>2022-03-27T09:54:51Z</time>
      </trkpt>
      <trkpt lat="47.16982" lon="-1.62055">
        <ele>69</ele>
        <time>2022-03-27T09:54:53Z</time>
      </trkpt>
      <trkpt lat="47.16991" lon="-1.6204">
        <ele>69</ele>
        <time>2022-03-27T09:54:55Z</time>
      </trkpt>
      <trkpt lat="47.17001" lon="-1.62025">
        <ele>69</ele>
        <time>2022-03-27T09:54:57Z</time>
      </trkpt>
      <trkpt lat="47.1701" lon="-1.62011">
        <ele>70</ele>
        <time>2022-03-27T09:54:59Z</time>
      </trkpt>
      <trkpt lat="47.1702" lon="-1.61997">
        <ele>70</ele>
        <time>2022-03-27T09:55:01Z</time>
      </trkpt>
      <trkpt lat="47.17029" lon="-1.61983">
        <ele>70</ele>
        <time>2022-03-27T09:55:03Z</time>
      </trkpt>
      <trkpt lat="47.17038" lon="-1.6197">
        <ele>70</ele>
        <time>2022-03-27T09:55:05Z</time>
      </trkpt>
      <trkpt lat="47.17048" lon="-1.61956">
        <ele>69</ele>
        <time>2022-03-27T09:55:07Z</time>
      </trkpt>
      <trkpt lat="47.17058" lon="-1.61943">
        <ele>69</ele>
        <time>2022-03-27T09:55:09Z</time>
      </trkpt>
      <trkpt lat="47.17068" lon="-1.61932">
        <ele>69</ele>
        <time>2022-03-27T09:55:11Z</time>
      </trkpt>
      <trkpt lat="47.17077" lon="-1.61921">
        <ele>69</ele>
        <time>2022-03-27T09:55:13Z</time>
      </trkpt>
      <trkpt lat="47.17088" lon="-1.6191">
        <ele>68</ele>
        <time>2022-03-27T09:55:15Z</time>
      </trkpt>
      <trkpt lat="47.17099" lon="-1.61899">
        <ele>68</ele>
        <time>2022-03-27T09:55:17Z</time>
      </trkpt>
      <trkpt lat="47.1711" lon="-1.61888">
        <ele>68</ele>
        <time>2022-03-27T09:55:19Z</time>
      </trkpt>
      <trkpt lat="47.17122" lon="-1.61878">
        <ele>68</ele>
        <time>2022-03-27T09:55:21Z</time>
      </trkpt>
      <trkpt lat="47.17132" lon="-1.61867">
        <ele>68</ele>
        <time>2022-03-27T09:55:23Z</time>
      </trkpt>
      <trkpt lat="47.17144" lon="-1.61856">
        <ele>69</ele>
        <time>2022-03-27T09:55:25Z</time>
      </trkpt>
      <trkpt lat="47.17155" lon="-1.61846">
        <ele>68</ele>
        <time>2022-03-27T09:55:27Z</time>
      </trkpt>
      <trkpt lat="47.17166" lon="-1.61835">
        <ele>68</ele>
        <time>2022-03-27T09:55:29Z</time>
      </trkpt>
      <trkpt lat="47.17177" lon="-1.61825">
        <ele>69</ele>
        <time>2022-03-27T09:55:31Z</time>
      </trkpt>
      <trkpt lat="47.17187" lon="-1.61814">
        <ele>68</ele>
        <time>2022-03-27T09:55:33Z</time>
      </trkpt>
      <trkpt lat="47.17198" lon="-1.61803">
        <ele>68</ele>
        <time>2022-03-27T09:55:35Z</time>
      </trkpt>
      <trkpt lat="47.17209" lon="-1.61791">
        <ele>68</ele>
        <time>2022-03-27T09:55:37Z</time>
      </trkpt>
      <trkpt lat="47.17219" lon="-1.61777">
        <ele>67</ele>
        <time>2022-03-27T09:55:39Z</time>
      </trkpt>
      <trkpt lat="47.17224" lon="-1.61759">
        <ele>67</ele>
        <time>2022-03-27T09:55:41Z</time>
      </trkpt>
      <trkpt lat="47.17233" lon="-1.61744">
        <ele>68</ele>
        <time>2022-03-27T09:55:43Z</time>
      </trkpt>
      <trkpt lat="47.17243" lon="-1.61731">
        <ele>68</ele>
        <time>2022-03-27T09:55:45Z</time>
      </trkpt>
      <trkpt lat="47.17251" lon="-1.61716">
        <ele>69</ele>
        <time>2022-03-27T09:55:47Z</time>
      </trkpt>
      <trkpt lat="47.17258" lon="-1.61699">
        <ele>69</ele>
        <time>2022-03-27T09:55:49Z</time>
      </trkpt>
      <trkpt lat="47.17266" lon="-1.61683">
        <ele>69</ele>
        <time>2022-03-27T09:55:51Z</time>
      </trkpt>
      <trkpt lat="47.17274" lon="-1.61668">
        <ele>70</ele>
        <time>2022-03-27T09:55:53Z</time>
      </trkpt>
      <trkpt lat="47.17282" lon="-1.61653">
        <ele>70</ele>
        <time>2022-03-27T09:55:55Z</time>
      </trkpt>
      <trkpt lat="47.17291" lon="-1.61637">
        <ele>70</ele>
        <time>2022-03-27T09:55:57Z</time>
      </trkpt>
      <trkpt lat="47.173" lon="-1.61623">
        <ele>71</ele>
        <time>2022-03-27T09:55:59Z</time>
      </trkpt>
      <trkpt lat="47.17309" lon="-1.61609">
        <ele>71</ele>
        <time>2022-03-27T09:56:01Z</time>
      </trkpt>
      <trkpt lat="47.17318" lon="-1.61595">
        <ele>71</ele>
        <time>2022-03-27T09:56:03Z</time>
      </trkpt>
      <trkpt lat="47.17328" lon="-1.61581">
        <ele>72</ele>
        <time>2022-03-27T09:56:05Z</time>
      </trkpt>
      <trkpt lat="47.17337" lon="-1.61569">
        <ele>72</ele>
        <time>2022-03-27T09:56:07Z</time>
      </trkpt>
      <trkpt lat="47.17348" lon="-1.61557">
        <ele>72</ele>
        <time>2022-03-27T09:56:09Z</time>
      </trkpt>
      <trkpt lat="47.17358" lon="-1.61546">
        <ele>72</ele>
        <time>2022-03-27T09:56:11Z</time>
      </trkpt>
      <trkpt lat="47.17369" lon="-1.61536">
        <ele>71</ele>
        <time>2022-03-27T09:56:13Z</time>
      </trkpt>
      <trkpt lat="47.17381" lon="-1.61526">
        <ele>71</ele>
        <time>2022-03-27T09:56:15Z</time>
      </trkpt>
      <trkpt lat="47.17392" lon="-1.61516">
        <ele>70</ele>
        <time>2022-03-27T09:56:17Z</time>
      </trkpt>
      <trkpt lat="47.17404" lon="-1.61506">
        <ele>69</ele>
        <time>2022-03-27T09:56:19Z</time>
      </trkpt>
      <trkpt lat="47.17416" lon="-1.61497">
        <ele>68</ele>
        <time>2022-03-27T09:56:21Z</time>
      </trkpt>
      <trkpt lat="47.17429" lon="-1.61488">
        <ele>67</ele>
        <time>2022-03-27T09:56:23Z</time>
      </trkpt>
      <trkpt lat="47.17442" lon="-1.6148">
        <ele>67</ele>
        <time>2022-03-27T09:56:25Z</time>
      </trkpt>
      <trkpt lat="47.17455" lon="-1.61474">
        <ele>66</ele>
        <time>2022-03-27T09:56:27Z</time>
      </trkpt>
      <trkpt lat="47.17468" lon="-1.61467">
        <ele>65</ele>
        <time>2022-03-27T09:56:29Z</time>
      </trkpt>
      <trkpt lat="47.17482" lon="-1.61462">
        <ele>65</ele>
        <time>2022-03-27T09:56:31Z</time>
      </trkpt>
      <trkpt lat="47.17495" lon="-1.61457">
        <ele>64</ele>
        <time>2022-03-27T09:56:33Z</time>
      </trkpt>
      <trkpt lat="47.17505" lon="-1.61452">
        <ele>64</ele>
        <time>2022-03-27T09:56:35Z</time>
      </trkpt>
      <trkpt lat="47.1751" lon="-1.6144">
        <ele>63</ele>
        <time>2022-03-27T09:56:37Z</time>
      </trkpt>
      <trkpt lat="47.17513" lon="-1.61421">
        <ele>62</ele>
        <time>2022-03-27T09:56:39Z</time>
      </trkpt>
      <trkpt lat="47.17516" lon="-1.61401">
        <ele>61</ele>
        <time>2022-03-27T09:56:41Z</time>
      </trkpt>
      <trkpt lat="47.17522" lon="-1.6138">
        <ele>60</ele>
        <time>2022-03-27T09:56:43Z</time>
      </trkpt>
      <trkpt lat="47.17525" lon="-1.61362">
        <ele>59</ele>
        <time>2022-03-27T09:56:45Z</time>
      </trkpt>
      <trkpt lat="47.17524" lon="-1.61345">
        <ele>60</ele>
        <time>2022-03-27T09:56:48Z</time>
      </trkpt>
      <trkpt lat="47.1752" lon="-1.61331">
        <ele>61</ele>
        <time>2022-03-27T09:56:50Z</time>
      </trkpt>
      <trkpt lat="47.17518" lon="-1.61312">
        <ele>61</ele>
        <time>2022-03-27T09:56:52Z</time>
      </trkpt>
      <trkpt lat="47.17516" lon="-1.61292">
        <ele>61</ele>
        <time>2022-03-27T09:56:54Z</time>
      </trkpt>
      <trkpt lat="47.17508" lon="-1.61276">
        <ele>61</ele>
        <time>2022-03-27T09:56:56Z</time>
      </trkpt>
      <trkpt lat="47.175" lon="-1.61259">
        <ele>60</ele>
        <time>2022-03-27T09:56:58Z</time>
      </trkpt>
      <trkpt lat="47.17493" lon="-1.61242">
        <ele>60</ele>
        <time>2022-03-27T09:57:00Z</time>
      </trkpt>
      <trkpt lat="47.17486" lon="-1.61225">
        <ele>61</ele>
        <time>2022-03-27T09:57:02Z</time>
      </trkpt>
      <trkpt lat="47.17479" lon="-1.61207">
        <ele>60</ele>
        <time>2022-03-27T09:57:04Z</time>
      </trkpt>
      <trkpt lat="47.17472" lon="-1.61189">
        <ele>60</ele>
        <time>2022-03-27T09:57:06Z</time>
      </trkpt>
      <trkpt lat="47.17465" lon="-1.61172">
        <ele>60</ele>
        <time>2022-03-27T09:57:08Z</time>
      </trkpt>
      <trkpt lat="47.17458" lon="-1.61155">
        <ele>60</ele>
        <time>2022-03-27T09:57:10Z</time>
      </trkpt>
      <trkpt lat="47.1745" lon="-1.61137">
        <ele>59</ele>
        <time>2022-03-27T09:57:12Z</time>
      </trkpt>
      <trkpt lat="47.17443" lon="-1.6112">
        <ele>59</ele>
        <time>2022-03-27T09:57:14Z</time>
      </trkpt>
      <trkpt lat="47.17435" lon="-1.61102">
        <ele>58</ele>
        <time>2022-03-27T09:57:16Z</time>
      </trkpt>
      <trkpt lat="47.17427" lon="-1.61084">
        <ele>58</ele>
        <time>2022-03-27T09:57:18Z</time>
      </trkpt>
      <trkpt lat="47.1742" lon="-1.61065">
        <ele>57</ele>
        <time>2022-03-27T09:57:20Z</time>
      </trkpt>
      <trkpt lat="47.17412" lon="-1.61048">
        <ele>57</ele>
        <time>2022-03-27T09:57:22Z</time>
      </trkpt>
      <trkpt lat="47.17403" lon="-1.61034">
        <ele>56</ele>
        <time>2022-03-27T09:57:24Z</time>
      </trkpt>
      <trkpt lat="47.17393" lon="-1.61021">
        <ele>56</ele>
        <time>2022-03-27T09:57:26Z</time>
      </trkpt>
      <trkpt lat="47.17386" lon="-1.61004">
        <ele>56</ele>
        <time>2022-03-27T09:57:28Z</time>
      </trkpt>
      <trkpt lat="47.17393" lon="-1.60987">
        <ele>56</ele>
        <time>2022-03-27T09:57:30Z</time>
      </trkpt>
      <trkpt lat="47.17407" lon="-1.60983">
        <ele>55</ele>
        <time>2022-03-27T09:57:32Z</time>
      </trkpt>
      <trkpt lat="47.17417" lon="-1.60996">
        <ele>55</ele>
        <time>2022-03-27T09:57:34Z</time>
      </trkpt>
      <trkpt lat="47.17423" lon="-1.61013">
        <ele>54</ele>
        <time>2022-03-27T09:57:36Z</time>
      </trkpt>
      <trkpt lat="47.1743" lon="-1.6103">
        <ele>54</ele>
        <time>2022-03-27T09:57:38Z</time>
      </trkpt>
      <trkpt lat="47.17436" lon="-1.61049">
        <ele>53</ele>
        <time>2022-03-27T09:57:40Z</time>
      </trkpt>
      <trkpt lat="47.17443" lon="-1.61067">
        <ele>53</ele>
        <time>2022-03-27T09:57:42Z</time>
      </trkpt>
      <trkpt lat="47.17453" lon="-1.61083">
        <ele>53</ele>
        <time>2022-03-27T09:57:44Z</time>
      </trkpt>
      <trkpt lat="47.17465" lon="-1.61096">
        <ele>52</ele>
        <time>2022-03-27T09:57:46Z</time>
      </trkpt>
      <trkpt lat="47.17479" lon="-1.61104">
        <ele>52</ele>
        <time>2022-03-27T09:57:48Z</time>
      </trkpt>
      <trkpt lat="47.17495" lon="-1.61104">
        <ele>51</ele>
        <time>2022-03-27T09:57:50Z</time>
      </trkpt>
      <trkpt lat="47.1751" lon="-1.61099">
        <ele>51</ele>
        <time>2022-03-27T09:57:52Z</time>
      </trkpt>
      <trkpt lat="47.17523" lon="-1.61088">
        <ele>51</ele>
        <time>2022-03-27T09:57:54Z</time>
      </trkpt>
      <trkpt lat="47.17536" lon="-1.61076">
        <ele>50</ele>
        <time>2022-03-27T09:57:56Z</time>
      </trkpt>
      <trkpt lat="47.17549" lon="-1.61065">
        <ele>50</ele>
        <time>2022-03-27T09:57:58Z</time>
      </trkpt>
      <trkpt lat="47.17561" lon="-1.61054">
        <ele>50</ele>
        <time>2022-03-27T09:58:00Z</time>
      </trkpt>
      <trkpt lat="47.17574" lon="-1.61043">
        <ele>50</ele>
        <time>2022-03-27T09:58:02Z</time>
      </trkpt>
      <trkpt lat="47.17587" lon="-1.61032">
        <ele>50</ele>
        <time>2022-03-27T09:58:04Z</time>
      </trkpt>
      <trkpt lat="47.17599" lon="-1.61022">
        <ele>51</ele>
        <time>2022-03-27T09:58:06Z</time>
      </trkpt>
      <trkpt lat="47.17612" lon="-1.61011">
        <ele>50</ele>
        <time>2022-03-27T09:58:08Z</time>
      </trkpt>
      <trkpt lat="47.17624" lon="-1.61001">
        <ele>50</ele>
        <time>2022-03-27T09:58:10Z</time>
      </trkpt>
      <trkpt lat="47.17636" lon="-1.60989">
        <ele>50</ele>
        <time>2022-03-27T09:58:12Z</time>
      </trkpt>
      <trkpt lat="47.17648" lon="-1.6098">
        <ele>50</ele>
        <time>2022-03-27T09:58:14Z</time>
      </trkpt>
      <trkpt lat="47.1766" lon="-1.60971">
        <ele>50</ele>
        <time>2022-03-27T09:58:16Z</time>
      </trkpt>
      <trkpt lat="47.17675" lon="-1.6097">
        <ele>49</ele>
        <time>2022-03-27T09:58:18Z</time>
      </trkpt>
      <trkpt lat="47.17688" lon="-1.60972">
        <ele>50</ele>
        <time>2022-03-27T09:58:20Z</time>
      </trkpt>
      <trkpt lat="47.177" lon="-1.6097">
        <ele>50</ele>
        <time>2022-03-27T09:58:22Z</time>
      </trkpt>
      <trkpt lat="47.17712" lon="-1.60963">
        <ele>50</ele>
        <time>2022-03-27T09:58:24Z</time>
      </trkpt>
      <trkpt lat="47.17724" lon="-1.60954">
        <ele>50</ele>
        <time>2022-03-27T09:58:26Z</time>
      </trkpt>
      <trkpt lat="47.17737" lon="-1.60945">
        <ele>50</ele>
        <time>2022-03-27T09:58:28Z</time>
      </trkpt>
      <trkpt lat="47.17749" lon="-1.60936">
        <ele>50</ele>
        <time>2022-03-27T09:58:30Z</time>
      </trkpt>
      <trkpt lat="47.17761" lon="-1.60927">
        <ele>50</ele>
        <time>2022-03-27T09:58:32Z</time>
      </trkpt>
      <trkpt lat="47.17773" lon="-1.60917">
        <ele>50</ele>
        <time>2022-03-27T09:58:34Z</time>
      </trkpt>
      <trkpt lat="47.17785" lon="-1.60907">
        <ele>50</ele>
        <time>2022-03-27T09:58:36Z</time>
      </trkpt>
      <trkpt lat="47.17798" lon="-1.60899">
        <ele>50</ele>
        <time>2022-03-27T09:58:38Z</time>
      </trkpt>
      <trkpt lat="47.1781" lon="-1.60889">
        <ele>50</ele>
        <time>2022-03-27T09:58:40Z</time>
      </trkpt>
      <trkpt lat="47.1782" lon="-1.60875">
        <ele>50</ele>
        <time>2022-03-27T09:58:42Z</time>
      </trkpt>
      <trkpt lat="47.17829" lon="-1.60859">
        <ele>50</ele>
        <time>2022-03-27T09:58:44Z</time>
      </trkpt>
      <trkpt lat="47.17837" lon="-1.60843">
        <ele>51</ele>
        <time>2022-03-27T09:58:46Z</time>
      </trkpt>
      <trkpt lat="47.17843" lon="-1.60824">
        <ele>51</ele>
        <time>2022-03-27T09:58:48Z</time>
      </trkpt>
      <trkpt lat="47.17848" lon="-1.60806">
        <ele>51</ele>
        <time>2022-03-27T09:58:50Z</time>
      </trkpt>
      <trkpt lat="47.17852" lon="-1.60787">
        <ele>50</ele>
        <time>2022-03-27T09:58:52Z</time>
      </trkpt>
      <trkpt lat="47.17857" lon="-1.60767">
        <ele>50</ele>
        <time>2022-03-27T09:58:54Z</time>
      </trkpt>
      <trkpt lat="47.17861" lon="-1.60747">
        <ele>50</ele>
        <time>2022-03-27T09:58:56Z</time>
      </trkpt>
      <trkpt lat="47.17866" lon="-1.60727">
        <ele>50</ele>
        <time>2022-03-27T09:58:58Z</time>
      </trkpt>
      <trkpt lat="47.1787" lon="-1.60708">
        <ele>50</ele>
        <time>2022-03-27T09:59:00Z</time>
      </trkpt>
      <trkpt lat="47.17875" lon="-1.6069">
        <ele>50</ele>
        <time>2022-03-27T09:59:02Z</time>
      </trkpt>
      <trkpt lat="47.17881" lon="-1.6067">
        <ele>50</ele>
        <time>2022-03-27T09:59:04Z</time>
      </trkpt>
      <trkpt lat="47.17887" lon="-1.60652">
        <ele>51</ele>
        <time>2022-03-27T09:59:06Z</time>
      </trkpt>
      <trkpt lat="47.17893" lon="-1.60635">
        <ele>52</ele>
        <time>2022-03-27T09:59:08Z</time>
      </trkpt>
      <trkpt lat="47.17898" lon="-1.60619">
        <ele>52</ele>
        <time>2022-03-27T09:59:10Z</time>
      </trkpt>
      <trkpt lat="47.17901" lon="-1.60604">
        <ele>52</ele>
        <time>2022-03-27T09:59:12Z</time>
      </trkpt>
      <trkpt lat="47.17905" lon="-1.60588">
        <ele>52</ele>
        <time>2022-03-27T09:59:15Z</time>
      </trkpt>
      <trkpt lat="47.17915" lon="-1.60583">
        <ele>53</ele>
        <time>2022-03-27T09:59:24Z</time>
      </trkpt>
      <trkpt lat="47.17927" lon="-1.60585">
        <ele>54</ele>
        <time>2022-03-27T09:59:27Z</time>
      </trkpt>
      <trkpt lat="47.1794" lon="-1.6058">
        <ele>54</ele>
        <time>2022-03-27T09:59:29Z</time>
      </trkpt>
      <trkpt lat="47.17954" lon="-1.60573">
        <ele>54</ele>
        <time>2022-03-27T09:59:31Z</time>
      </trkpt>
      <trkpt lat="47.17967" lon="-1.60566">
        <ele>54</ele>
        <time>2022-03-27T09:59:33Z</time>
      </trkpt>
      <trkpt lat="47.1798" lon="-1.60561">
        <ele>54</ele>
        <time>2022-03-27T09:59:35Z</time>
      </trkpt>
      <trkpt lat="47.17993" lon="-1.60556">
        <ele>52</ele>
        <time>2022-03-27T09:59:37Z</time>
      </trkpt>
      <trkpt lat="47.18008" lon="-1.60552">
        <ele>52</ele>
        <time>2022-03-27T09:59:39Z</time>
      </trkpt>
      <trkpt lat="47.18022" lon="-1.6055">
        <ele>52</ele>
        <time>2022-03-27T09:59:41Z</time>
      </trkpt>
      <trkpt lat="47.18036" lon="-1.60554">
        <ele>51</ele>
        <time>2022-03-27T09:59:43Z</time>
      </trkpt>
      <trkpt lat="47.18048" lon="-1.6056">
        <ele>51</ele>
        <time>2022-03-27T09:59:45Z</time>
      </trkpt>
      <trkpt lat="47.18061" lon="-1.60568">
        <ele>51</ele>
        <time>2022-03-27T09:59:47Z</time>
      </trkpt>
      <trkpt lat="47.18074" lon="-1.60575">
        <ele>51</ele>
        <time>2022-03-27T09:59:49Z</time>
      </trkpt>
      <trkpt lat="47.18087" lon="-1.60582">
        <ele>51</ele>
        <time>2022-03-27T09:59:51Z</time>
      </trkpt>
      <trkpt lat="47.18101" lon="-1.60589">
        <ele>51</ele>
        <time>2022-03-27T09:59:53Z</time>
      </trkpt>
      <trkpt lat="47.18114" lon="-1.60594">
        <ele>51</ele>
        <time>2022-03-27T09:59:55Z</time>
      </trkpt>
      <trkpt lat="47.18127" lon="-1.60598">
        <ele>52</ele>
        <time>2022-03-27T09:59:57Z</time>
      </trkpt>
      <trkpt lat="47.1814" lon="-1.60601">
        <ele>51</ele>
        <time>2022-03-27T09:59:59Z</time>
      </trkpt>
      <trkpt lat="47.18154" lon="-1.60602">
        <ele>51</ele>
        <time>2022-03-27T10:00:01Z</time>
      </trkpt>
      <trkpt lat="47.18167" lon="-1.60602">
        <ele>51</ele>
        <time>2022-03-27T10:00:03Z</time>
      </trkpt>
      <trkpt lat="47.1818" lon="-1.60601">
        <ele>51</ele>
        <time>2022-03-27T10:00:05Z</time>
      </trkpt>
      <trkpt lat="47.18189" lon="-1.60591">
        <ele>51</ele>
        <time>2022-03-27T10:00:07Z</time>
      </trkpt>
      <trkpt lat="47.18193" lon="-1.60574">
        <ele>51</ele>
        <time>2022-03-27T10:00:09Z</time>
      </trkpt>
      <trkpt lat="47.18204" lon="-1.60568">
        <ele>51</ele>
        <time>2022-03-27T10:00:11Z</time>
      </trkpt>
      <trkpt lat="47.18216" lon="-1.60563">
        <ele>52</ele>
        <time>2022-03-27T10:00:13Z</time>
      </trkpt>
      <trkpt lat="47.18228" lon="-1.60556">
        <ele>52</ele>
        <time>2022-03-27T10:00:15Z</time>
      </trkpt>
      <trkpt lat="47.1824" lon="-1.60548">
        <ele>52</ele>
        <time>2022-03-27T10:00:17Z</time>
      </trkpt>
      <trkpt lat="47.18253" lon="-1.60539">
        <ele>52</ele>
        <time>2022-03-27T10:00:19Z</time>
      </trkpt>
      <trkpt lat="47.18265" lon="-1.60529">
        <ele>52</ele>
        <time>2022-03-27T10:00:21Z</time>
      </trkpt>
      <trkpt lat="47.18276" lon="-1.60518">
        <ele>52</ele>
        <time>2022-03-27T10:00:23Z</time>
      </trkpt>
      <trkpt lat="47.18287" lon="-1.60506">
        <ele>52</ele>
        <time>2022-03-27T10:00:25Z</time>
      </trkpt>
      <trkpt lat="47.18298" lon="-1.60494">
        <ele>51</ele>
        <time>2022-03-27T10:00:27Z</time>
      </trkpt>
      <trkpt lat="47.18309" lon="-1.60482">
        <ele>52</ele>
        <time>2022-03-27T10:00:29Z</time>
      </trkpt>
      <trkpt lat="47.1832" lon="-1.6047">
        <ele>52</ele>
        <time>2022-03-27T10:00:31Z</time>
      </trkpt>
      <trkpt lat="47.18331" lon="-1.60458">
        <ele>52</ele>
        <time>2022-03-27T10:00:33Z</time>
      </trkpt>
      <trkpt lat="47.18341" lon="-1.60445">
        <ele>52</ele>
        <time>2022-03-27T10:00:35Z</time>
      </trkpt>
      <trkpt lat="47.18351" lon="-1.60432">
        <ele>51</ele>
        <time>2022-03-27T10:00:37Z</time>
      </trkpt>
      <trkpt lat="47.18362" lon="-1.60419">
        <ele>51</ele>
        <time>2022-03-27T10:00:39Z</time>
      </trkpt>
      <trkpt lat="47.18371" lon="-1.60406">
        <ele>51</ele>
        <time>2022-03-27T10:00:41Z</time>
      </trkpt>
      <trkpt lat="47.18381" lon="-1.60393">
        <ele>51</ele>
        <time>2022-03-27T10:00:43Z</time>
      </trkpt>
      <trkpt lat="47.18391" lon="-1.6038">
        <ele>51</ele>
        <time>2022-03-27T10:00:45Z</time>
      </trkpt>
      <trkpt lat="47.184" lon="-1.60368">
        <ele>52</ele>
        <time>2022-03-27T10:00:47Z</time>
      </trkpt>
      <trkpt lat="47.18409" lon="-1.60355">
        <ele>51</ele>
        <time>2022-03-27T10:00:49Z</time>
      </trkpt>
      <trkpt lat="47.18419" lon="-1.60341">
        <ele>51</ele>
        <time>2022-03-27T10:00:51Z</time>
      </trkpt>
      <trkpt lat="47.18427" lon="-1.60327">
        <ele>51</ele>
        <time>2022-03-27T10:00:53Z</time>
      </trkpt>
      <trkpt lat="47.18437" lon="-1.60313">
        <ele>51</ele>
        <time>2022-03-27T10:00:55Z</time>
      </trkpt>
      <trkpt lat="47.18446" lon="-1.60299">
        <ele>51</ele>
        <time>2022-03-27T10:00:57Z</time>
      </trkpt>
      <trkpt lat="47.18455" lon="-1.60283">
        <ele>51</ele>
        <time>2022-03-27T10:00:59Z</time>
      </trkpt>
      <trkpt lat="47.18464" lon="-1.60268">
        <ele>51</ele>
        <time>2022-03-27T10:01:01Z</time>
      </trkpt>
      <trkpt lat="47.18473" lon="-1.60253">
        <ele>51</ele>
        <time>2022-03-27T10:01:03Z</time>
      </trkpt>
      <trkpt lat="47.18482" lon="-1.60237">
        <ele>51</ele>
        <time>2022-03-27T10:01:05Z</time>
      </trkpt>
      <trkpt lat="47.1849" lon="-1.6022">
        <ele>51</ele>
        <time>2022-03-27T10:01:07Z</time>
      </trkpt>
      <trkpt lat="47.18498" lon="-1.60202">
        <ele>52</ele>
        <time>2022-03-27T10:01:09Z</time>
      </trkpt>
      <trkpt lat="47.18507" lon="-1.60185">
        <ele>52</ele>
        <time>2022-03-27T10:01:11Z</time>
      </trkpt>
      <trkpt lat="47.18514" lon="-1.60169">
        <ele>52</ele>
        <time>2022-03-27T10:01:13Z</time>
      </trkpt>
      <trkpt lat="47.18522" lon="-1.60152">
        <ele>51</ele>
        <time>2022-03-27T10:01:15Z</time>
      </trkpt>
      <trkpt lat="47.1853" lon="-1.60135">
        <ele>51</ele>
        <time>2022-03-27T10:01:17Z</time>
      </trkpt>
      <trkpt lat="47.18538" lon="-1.60119">
        <ele>51</ele>
        <time>2022-03-27T10:01:19Z</time>
      </trkpt>
      <trkpt lat="47.18545" lon="-1.60101">
        <ele>51</ele>
        <time>2022-03-27T10:01:21Z</time>
      </trkpt>
      <trkpt lat="47.18556" lon="-1.60075">
        <ele>51</ele>
        <time>2022-03-27T10:01:24Z</time>
      </trkpt>
      <trkpt lat="47.18563" lon="-1.60057">
        <ele>51</ele>
        <time>2022-03-27T10:01:26Z</time>
      </trkpt>
      <trkpt lat="47.18569" lon="-1.60038">
        <ele>50</ele>
        <time>2022-03-27T10:01:28Z</time>
      </trkpt>
      <trkpt lat="47.18576" lon="-1.6002">
        <ele>51</ele>
        <time>2022-03-27T10:01:30Z</time>
      </trkpt>
      <trkpt lat="47.18582" lon="-1.60003">
        <ele>50</ele>
        <time>2022-03-27T10:01:32Z</time>
      </trkpt>
      <trkpt lat="47.18587" lon="-1.59985">
        <ele>50</ele>
        <time>2022-03-27T10:01:34Z</time>
      </trkpt>
      <trkpt lat="47.18593" lon="-1.59967">
        <ele>51</ele>
        <time>2022-03-27T10:01:36Z</time>
      </trkpt>
      <trkpt lat="47.18598" lon="-1.59949">
        <ele>51</ele>
        <time>2022-03-27T10:01:38Z</time>
      </trkpt>
      <trkpt lat="47.18604" lon="-1.59931">
        <ele>51</ele>
        <time>2022-03-27T10:01:40Z</time>
      </trkpt>
      <trkpt lat="47.18609" lon="-1.59913">
        <ele>51</ele>
        <time>2022-03-27T10:01:42Z</time>
      </trkpt>
      <trkpt lat="47.18613" lon="-1.59895">
        <ele>51</ele>
        <time>2022-03-27T10:01:44Z</time>
      </trkpt>
      <trkpt lat="47.18618" lon="-1.59877">
        <ele>51</ele>
        <time>2022-03-27T10:01:46Z</time>
      </trkpt>
      <trkpt lat="47.18619" lon="-1.5986">
        <ele>51</ele>
        <time>2022-03-27T10:01:48Z</time>
      </trkpt>
      <trkpt lat="47.18613" lon="-1.59844">
        <ele>51</ele>
        <time>2022-03-27T10:01:50Z</time>
      </trkpt>
      <trkpt lat="47.18615" lon="-1.59827">
        <ele>51</ele>
        <time>2022-03-27T10:01:52Z</time>
      </trkpt>
      <trkpt lat="47.18622" lon="-1.59815">
        <ele>51</ele>
        <time>2022-03-27T10:01:54Z</time>
      </trkpt>
      <trkpt lat="47.18626" lon="-1.59797">
        <ele>52</ele>
        <time>2022-03-27T10:01:57Z</time>
      </trkpt>
      <trkpt lat="47.1863" lon="-1.59781">
        <ele>52</ele>
        <time>2022-03-27T10:01:59Z</time>
      </trkpt>
      <trkpt lat="47.18637" lon="-1.59766">
        <ele>52</ele>
        <time>2022-03-27T10:02:01Z</time>
      </trkpt>
      <trkpt lat="47.18647" lon="-1.59753">
        <ele>52</ele>
        <time>2022-03-27T10:02:03Z</time>
      </trkpt>
      <trkpt lat="47.18651" lon="-1.59736">
        <ele>53</ele>
        <time>2022-03-27T10:02:05Z</time>
      </trkpt>
      <trkpt lat="47.18654" lon="-1.59717">
        <ele>53</ele>
        <time>2022-03-27T10:02:07Z</time>
      </trkpt>
      <trkpt lat="47.18658" lon="-1.59697">
        <ele>52</ele>
        <time>2022-03-27T10:02:09Z</time>
      </trkpt>
      <trkpt lat="47.18662" lon="-1.59677">
        <ele>52</ele>
        <time>2022-03-27T10:02:11Z</time>
      </trkpt>
      <trkpt lat="47.18667" lon="-1.59659">
        <ele>52</ele>
        <time>2022-03-27T10:02:13Z</time>
      </trkpt>
      <trkpt lat="47.18671" lon="-1.5964">
        <ele>52</ele>
        <time>2022-03-27T10:02:15Z</time>
      </trkpt>
      <trkpt lat="47.18673" lon="-1.59621">
        <ele>52</ele>
        <time>2022-03-27T10:02:17Z</time>
      </trkpt>
      <trkpt lat="47.18676" lon="-1.59601">
        <ele>52</ele>
        <time>2022-03-27T10:02:19Z</time>
      </trkpt>
      <trkpt lat="47.18678" lon="-1.59582">
        <ele>52</ele>
        <time>2022-03-27T10:02:21Z</time>
      </trkpt>
      <trkpt lat="47.18681" lon="-1.59562">
        <ele>52</ele>
        <time>2022-03-27T10:02:23Z</time>
      </trkpt>
      <trkpt lat="47.18683" lon="-1.59543">
        <ele>52</ele>
        <time>2022-03-27T10:02:25Z</time>
      </trkpt>
      <trkpt lat="47.18685" lon="-1.59523">
        <ele>52</ele>
        <time>2022-03-27T10:02:27Z</time>
      </trkpt>
      <trkpt lat="47.18687" lon="-1.59504">
        <ele>52</ele>
        <time>2022-03-27T10:02:29Z</time>
      </trkpt>
      <trkpt lat="47.18689" lon="-1.59485">
        <ele>53</ele>
        <time>2022-03-27T10:02:31Z</time>
      </trkpt>
      <trkpt lat="47.18692" lon="-1.59466">
        <ele>53</ele>
        <time>2022-03-27T10:02:33Z</time>
      </trkpt>
      <trkpt lat="47.18694" lon="-1.59446">
        <ele>53</ele>
        <time>2022-03-27T10:02:35Z</time>
      </trkpt>
      <trkpt lat="47.18696" lon="-1.59427">
        <ele>53</ele>
        <time>2022-03-27T10:02:37Z</time>
      </trkpt>
      <trkpt lat="47.18698" lon="-1.59407">
        <ele>53</ele>
        <time>2022-03-27T10:02:39Z</time>
      </trkpt>
      <trkpt lat="47.187" lon="-1.59388">
        <ele>53</ele>
        <time>2022-03-27T10:02:41Z</time>
      </trkpt>
      <trkpt lat="47.18702" lon="-1.59368">
        <ele>53</ele>
        <time>2022-03-27T10:02:43Z</time>
      </trkpt>
      <trkpt lat="47.18704" lon="-1.59348">
        <ele>53</ele>
        <time>2022-03-27T10:02:45Z</time>
      </trkpt>
      <trkpt lat="47.18706" lon="-1.5933">
        <ele>53</ele>
        <time>2022-03-27T10:02:47Z</time>
      </trkpt>
      <trkpt lat="47.18708" lon="-1.5931">
        <ele>53</ele>
        <time>2022-03-27T10:02:49Z</time>
      </trkpt>
      <trkpt lat="47.18711" lon="-1.5929">
        <ele>53</ele>
        <time>2022-03-27T10:02:51Z</time>
      </trkpt>
      <trkpt lat="47.18712" lon="-1.59271">
        <ele>53</ele>
        <time>2022-03-27T10:02:53Z</time>
      </trkpt>
      <trkpt lat="47.18714" lon="-1.59251">
        <ele>53</ele>
        <time>2022-03-27T10:02:55Z</time>
      </trkpt>
      <trkpt lat="47.18716" lon="-1.59231">
        <ele>52</ele>
        <time>2022-03-27T10:02:57Z</time>
      </trkpt>
      <trkpt lat="47.18719" lon="-1.59212">
        <ele>52</ele>
        <time>2022-03-27T10:02:59Z</time>
      </trkpt>
      <trkpt lat="47.18721" lon="-1.59192">
        <ele>52</ele>
        <time>2022-03-27T10:03:01Z</time>
      </trkpt>
      <trkpt lat="47.18723" lon="-1.59173">
        <ele>52</ele>
        <time>2022-03-27T10:03:03Z</time>
      </trkpt>
      <trkpt lat="47.18726" lon="-1.59154">
        <ele>52</ele>
        <time>2022-03-27T10:03:05Z</time>
      </trkpt>
      <trkpt lat="47.18728" lon="-1.59134">
        <ele>52</ele>
        <time>2022-03-27T10:03:07Z</time>
      </trkpt>
      <trkpt lat="47.1873" lon="-1.59115">
        <ele>53</ele>
        <time>2022-03-27T10:03:09Z</time>
      </trkpt>
      <trkpt lat="47.18732" lon="-1.59096">
        <ele>53</ele>
        <time>2022-03-27T10:03:11Z</time>
      </trkpt>
      <trkpt lat="47.18734" lon="-1.59077">
        <ele>53</ele>
        <time>2022-03-27T10:03:13Z</time>
      </trkpt>
      <trkpt lat="47.18736" lon="-1.59058">
        <ele>53</ele>
        <time>2022-03-27T10:03:15Z</time>
      </trkpt>
      <trkpt lat="47.18738" lon="-1.59038">
        <ele>53</ele>
        <time>2022-03-27T10:03:17Z</time>
      </trkpt>
      <trkpt lat="47.1874" lon="-1.59019">
        <ele>53</ele>
        <time>2022-03-27T10:03:19Z</time>
      </trkpt>
      <trkpt lat="47.18742" lon="-1.59">
        <ele>53</ele>
        <time>2022-03-27T10:03:21Z</time>
      </trkpt>
      <trkpt lat="47.18744" lon="-1.58981">
        <ele>53</ele>
        <time>2022-03-27T10:03:23Z</time>
      </trkpt>
      <trkpt lat="47.18746" lon="-1.58962">
        <ele>53</ele>
        <time>2022-03-27T10:03:25Z</time>
      </trkpt>
      <trkpt lat="47.18748" lon="-1.58943">
        <ele>53</ele>
        <time>2022-03-27T10:03:27Z</time>
      </trkpt>
      <trkpt lat="47.1875" lon="-1.58924">
        <ele>54</ele>
        <time>2022-03-27T10:03:29Z</time>
      </trkpt>
      <trkpt lat="47.18752" lon="-1.58904">
        <ele>54</ele>
        <time>2022-03-27T10:03:31Z</time>
      </trkpt>
      <trkpt lat="47.18754" lon="-1.58885">
        <ele>54</ele>
        <time>2022-03-27T10:03:33Z</time>
      </trkpt>
      <trkpt lat="47.18757" lon="-1.58865">
        <ele>54</ele>
        <time>2022-03-27T10:03:35Z</time>
      </trkpt>
      <trkpt lat="47.1876" lon="-1.58846">
        <ele>54</ele>
        <time>2022-03-27T10:03:37Z</time>
      </trkpt>
      <trkpt lat="47.18762" lon="-1.58827">
        <ele>54</ele>
        <time>2022-03-27T10:03:39Z</time>
      </trkpt>
      <trkpt lat="47.18762" lon="-1.58809">
        <ele>54</ele>
        <time>2022-03-27T10:03:41Z</time>
      </trkpt>
      <trkpt lat="47.18762" lon="-1.58789">
        <ele>54</ele>
        <time>2022-03-27T10:03:43Z</time>
      </trkpt>
      <trkpt lat="47.18758" lon="-1.58771">
        <ele>54</ele>
        <time>2022-03-27T10:03:45Z</time>
      </trkpt>
      <trkpt lat="47.18755" lon="-1.58751">
        <ele>54</ele>
        <time>2022-03-27T10:03:47Z</time>
      </trkpt>
      <trkpt lat="47.18758" lon="-1.5873">
        <ele>54</ele>
        <time>2022-03-27T10:03:49Z</time>
      </trkpt>
      <trkpt lat="47.18766" lon="-1.58713">
        <ele>54</ele>
        <time>2022-03-27T10:03:51Z</time>
      </trkpt>
      <trkpt lat="47.18776" lon="-1.587">
        <ele>54</ele>
        <time>2022-03-27T10:03:53Z</time>
      </trkpt>
      <trkpt lat="47.18783" lon="-1.58684">
        <ele>54</ele>
        <time>2022-03-27T10:03:55Z</time>
      </trkpt>
      <trkpt lat="47.18787" lon="-1.58665">
        <ele>54</ele>
        <time>2022-03-27T10:03:57Z</time>
      </trkpt>
      <trkpt lat="47.18792" lon="-1.58645">
        <ele>53</ele>
        <time>2022-03-27T10:03:59Z</time>
      </trkpt>
      <trkpt lat="47.18797" lon="-1.58627">
        <ele>53</ele>
        <time>2022-03-27T10:04:01Z</time>
      </trkpt>
      <trkpt lat="47.18802" lon="-1.58608">
        <ele>53</ele>
        <time>2022-03-27T10:04:03Z</time>
      </trkpt>
      <trkpt lat="47.18806" lon="-1.58591">
        <ele>53</ele>
        <time>2022-03-27T10:04:05Z</time>
      </trkpt>
      <trkpt lat="47.18811" lon="-1.58572">
        <ele>53</ele>
        <time>2022-03-27T10:04:07Z</time>
      </trkpt>
      <trkpt lat="47.18816" lon="-1.58554">
        <ele>53</ele>
        <time>2022-03-27T10:04:09Z</time>
      </trkpt>
      <trkpt lat="47.18821" lon="-1.58536">
        <ele>53</ele>
        <time>2022-03-27T10:04:11Z</time>
      </trkpt>
      <trkpt lat="47.18826" lon="-1.58518">
        <ele>53</ele>
        <time>2022-03-27T10:04:13Z</time>
      </trkpt>
      <trkpt lat="47.18831" lon="-1.585">
        <ele>53</ele>
        <time>2022-03-27T10:04:15Z</time>
      </trkpt>
      <trkpt lat="47.18836" lon="-1.58483">
        <ele>53</ele>
        <time>2022-03-27T10:04:17Z</time>
      </trkpt>
      <trkpt lat="47.18841" lon="-1.58466">
        <ele>53</ele>
        <time>2022-03-27T10:04:19Z</time>
      </trkpt>
      <trkpt lat="47.18847" lon="-1.58448">
        <ele>53</ele>
        <time>2022-03-27T10:04:21Z</time>
      </trkpt>
      <trkpt lat="47.18852" lon="-1.58431">
        <ele>53</ele>
        <time>2022-03-27T10:04:23Z</time>
      </trkpt>
      <trkpt lat="47.18857" lon="-1.58413">
        <ele>54</ele>
        <time>2022-03-27T10:04:25Z</time>
      </trkpt>
      <trkpt lat="47.18863" lon="-1.58395">
        <ele>54</ele>
        <time>2022-03-27T10:04:27Z</time>
      </trkpt>
      <trkpt lat="47.18869" lon="-1.58378">
        <ele>54</ele>
        <time>2022-03-27T10:04:29Z</time>
      </trkpt>
      <trkpt lat="47.18874" lon="-1.58361">
        <ele>54</ele>
        <time>2022-03-27T10:04:31Z</time>
      </trkpt>
      <trkpt lat="47.1888" lon="-1.58344">
        <ele>54</ele>
        <time>2022-03-27T10:04:33Z</time>
      </trkpt>
      <trkpt lat="47.18886" lon="-1.58326">
        <ele>53</ele>
        <time>2022-03-27T10:04:35Z</time>
      </trkpt>
      <trkpt lat="47.18892" lon="-1.58309">
        <ele>53</ele>
        <time>2022-03-27T10:04:37Z</time>
      </trkpt>
      <trkpt lat="47.18898" lon="-1.58292">
        <ele>53</ele>
        <time>2022-03-27T10:04:39Z</time>
      </trkpt>
      <trkpt lat="47.18904" lon="-1.58275">
        <ele>53</ele>
        <time>2022-03-27T10:04:41Z</time>
      </trkpt>
      <trkpt lat="47.1891" lon="-1.58257">
        <ele>53</ele>
        <time>2022-03-27T10:04:43Z</time>
      </trkpt>
      <trkpt lat="47.18917" lon="-1.58239">
        <ele>53</ele>
        <time>2022-03-27T10:04:45Z</time>
      </trkpt>
      <trkpt lat="47.18923" lon="-1.58222">
        <ele>53</ele>
        <time>2022-03-27T10:04:47Z</time>
      </trkpt>
      <trkpt lat="47.18929" lon="-1.58204">
        <ele>54</ele>
        <time>2022-03-27T10:04:49Z</time>
      </trkpt>
      <trkpt lat="47.18935" lon="-1.58186">
        <ele>54</ele>
        <time>2022-03-27T10:04:51Z</time>
      </trkpt>
      <trkpt lat="47.18942" lon="-1.58168">
        <ele>54</ele>
        <time>2022-03-27T10:04:53Z</time>
      </trkpt>
      <trkpt lat="47.18948" lon="-1.58151">
        <ele>54</ele>
        <time>2022-03-27T10:04:55Z</time>
      </trkpt>
      <trkpt lat="47.18954" lon="-1.58133">
        <ele>54</ele>
        <time>2022-03-27T10:04:57Z</time>
      </trkpt>
      <trkpt lat="47.18961" lon="-1.58116">
        <ele>54</ele>
        <time>2022-03-27T10:04:59Z</time>
      </trkpt>
      <trkpt lat="47.18967" lon="-1.58098">
        <ele>54</ele>
        <time>2022-03-27T10:05:01Z</time>
      </trkpt>
      <trkpt lat="47.18973" lon="-1.5808">
        <ele>54</ele>
        <time>2022-03-27T10:05:03Z</time>
      </trkpt>
      <trkpt lat="47.18979" lon="-1.58062">
        <ele>54</ele>
        <time>2022-03-27T10:05:05Z</time>
      </trkpt>
      <trkpt lat="47.18986" lon="-1.58045">
        <ele>54</ele>
        <time>2022-03-27T10:05:07Z</time>
      </trkpt>
      <trkpt lat="47.18992" lon="-1.58027">
        <ele>54</ele>
        <time>2022-03-27T10:05:09Z</time>
      </trkpt>
      <trkpt lat="47.18999" lon="-1.58009">
        <ele>54</ele>
        <time>2022-03-27T10:05:11Z</time>
      </trkpt>
      <trkpt lat="47.19005" lon="-1.57991">
        <ele>54</ele>
        <time>2022-03-27T10:05:13Z</time>
      </trkpt>
      <trkpt lat="47.19011" lon="-1.57974">
        <ele>54</ele>
        <time>2022-03-27T10:05:15Z</time>
      </trkpt>
      <trkpt lat="47.19017" lon="-1.57956">
        <ele>54</ele>
        <time>2022-03-27T10:05:17Z</time>
      </trkpt>
      <trkpt lat="47.19023" lon="-1.57938">
        <ele>54</ele>
        <time>2022-03-27T10:05:19Z</time>
      </trkpt>
      <trkpt lat="47.19029" lon="-1.5792">
        <ele>54</ele>
        <time>2022-03-27T10:05:21Z</time>
      </trkpt>
      <trkpt lat="47.19035" lon="-1.57903">
        <ele>54</ele>
        <time>2022-03-27T10:05:23Z</time>
      </trkpt>
      <trkpt lat="47.19042" lon="-1.57885">
        <ele>54</ele>
        <time>2022-03-27T10:05:25Z</time>
      </trkpt>
      <trkpt lat="47.19048" lon="-1.57867">
        <ele>54</ele>
        <time>2022-03-27T10:05:27Z</time>
      </trkpt>
      <trkpt lat="47.19055" lon="-1.5785">
        <ele>54</ele>
        <time>2022-03-27T10:05:29Z</time>
      </trkpt>
      <trkpt lat="47.19061" lon="-1.57833">
        <ele>54</ele>
        <time>2022-03-27T10:05:31Z</time>
      </trkpt>
      <trkpt lat="47.19067" lon="-1.57815">
        <ele>54</ele>
        <time>2022-03-27T10:05:33Z</time>
      </trkpt>
      <trkpt lat="47.19073" lon="-1.57798">
        <ele>54</ele>
        <time>2022-03-27T10:05:35Z</time>
      </trkpt>
      <trkpt lat="47.1908" lon="-1.5778">
        <ele>54</ele>
        <time>2022-03-27T10:05:37Z</time>
      </trkpt>
      <trkpt lat="47.19086" lon="-1.57762">
        <ele>53</ele>
        <time>2022-03-27T10:05:39Z</time>
      </trkpt>
      <trkpt lat="47.19092" lon="-1.57745">
        <ele>53</ele>
        <time>2022-03-27T10:05:41Z</time>
      </trkpt>
      <trkpt lat="47.19098" lon="-1.57727">
        <ele>54</ele>
        <time>2022-03-27T10:05:43Z</time>
      </trkpt>
      <trkpt lat="47.19104" lon="-1.57709">
        <ele>53</ele>
        <time>2022-03-27T10:05:45Z</time>
      </trkpt>
      <trkpt lat="47.19111" lon="-1.57692">
        <ele>53</ele>
        <time>2022-03-27T10:05:47Z</time>
      </trkpt>
      <trkpt lat="47.19117" lon="-1.57675">
        <ele>53</ele>
        <time>2022-03-27T10:05:49Z</time>
      </trkpt>
      <trkpt lat="47.19123" lon="-1.57657">
        <ele>53</ele>
        <time>2022-03-27T10:05:51Z</time>
      </trkpt>
      <trkpt lat="47.1913" lon="-1.57639">
        <ele>53</ele>
        <time>2022-03-27T10:05:53Z</time>
      </trkpt>
      <trkpt lat="47.19136" lon="-1.57621">
        <ele>53</ele>
        <time>2022-03-27T10:05:55Z</time>
      </trkpt>
      <trkpt lat="47.19142" lon="-1.57603">
        <ele>53</ele>
        <time>2022-03-27T10:05:57Z</time>
      </trkpt>
      <trkpt lat="47.19149" lon="-1.57586">
        <ele>53</ele>
        <time>2022-03-27T10:05:59Z</time>
      </trkpt>
      <trkpt lat="47.19155" lon="-1.57568">
        <ele>53</ele>
        <time>2022-03-27T10:06:01Z</time>
      </trkpt>
      <trkpt lat="47.19161" lon="-1.57552">
        <ele>54</ele>
        <time>2022-03-27T10:06:03Z</time>
      </trkpt>
      <trkpt lat="47.19167" lon="-1.57534">
        <ele>54</ele>
        <time>2022-03-27T10:06:05Z</time>
      </trkpt>
      <trkpt lat="47.19173" lon="-1.57516">
        <ele>54</ele>
        <time>2022-03-27T10:06:07Z</time>
      </trkpt>
      <trkpt lat="47.19178" lon="-1.57499">
        <ele>54</ele>
        <time>2022-03-27T10:06:09Z</time>
      </trkpt>
      <trkpt lat="47.19184" lon="-1.57481">
        <ele>53</ele>
        <time>2022-03-27T10:06:11Z</time>
      </trkpt>
      <trkpt lat="47.19189" lon="-1.57463">
        <ele>54</ele>
        <time>2022-03-27T10:06:13Z</time>
      </trkpt>
      <trkpt lat="47.19194" lon="-1.57445">
        <ele>54</ele>
        <time>2022-03-27T10:06:15Z</time>
      </trkpt>
      <trkpt lat="47.192" lon="-1.57427">
        <ele>54</ele>
        <time>2022-03-27T10:06:17Z</time>
      </trkpt>
      <trkpt lat="47.19204" lon="-1.57409">
        <ele>54</ele>
        <time>2022-03-27T10:06:19Z</time>
      </trkpt>
      <trkpt lat="47.19209" lon="-1.5739">
        <ele>54</ele>
        <time>2022-03-27T10:06:21Z</time>
      </trkpt>
      <trkpt lat="47.19214" lon="-1.57371">
        <ele>54</ele>
        <time>2022-03-27T10:06:23Z</time>
      </trkpt>
      <trkpt lat="47.19219" lon="-1.57352">
        <ele>54</ele>
        <time>2022-03-27T10:06:25Z</time>
      </trkpt>
      <trkpt lat="47.19223" lon="-1.57333">
        <ele>54</ele>
        <time>2022-03-27T10:06:27Z</time>
      </trkpt>
      <trkpt lat="47.19227" lon="-1.57316">
        <ele>54</ele>
        <time>2022-03-27T10:06:29Z</time>
      </trkpt>
      <trkpt lat="47.1923" lon="-1.57297">
        <ele>55</ele>
        <time>2022-03-27T10:06:31Z</time>
      </trkpt>
      <trkpt lat="47.19232" lon="-1.57278">
        <ele>54</ele>
        <time>2022-03-27T10:06:33Z</time>
      </trkpt>
      <trkpt lat="47.19235" lon="-1.57259">
        <ele>54</ele>
        <time>2022-03-27T10:06:35Z</time>
      </trkpt>
      <trkpt lat="47.19237" lon="-1.57239">
        <ele>54</ele>
        <time>2022-03-27T10:06:37Z</time>
      </trkpt>
      <trkpt lat="47.1924" lon="-1.5722">
        <ele>54</ele>
        <time>2022-03-27T10:06:39Z</time>
      </trkpt>
      <trkpt lat="47.19243" lon="-1.57201">
        <ele>54</ele>
        <time>2022-03-27T10:06:41Z</time>
      </trkpt>
      <trkpt lat="47.19246" lon="-1.57181">
        <ele>54</ele>
        <time>2022-03-27T10:06:43Z</time>
      </trkpt>
      <trkpt lat="47.19249" lon="-1.57161">
        <ele>54</ele>
        <time>2022-03-27T10:06:45Z</time>
      </trkpt>
      <trkpt lat="47.19252" lon="-1.57141">
        <ele>54</ele>
        <time>2022-03-27T10:06:47Z</time>
      </trkpt>
      <trkpt lat="47.19255" lon="-1.57122">
        <ele>53</ele>
        <time>2022-03-27T10:06:49Z</time>
      </trkpt>
      <trkpt lat="47.19258" lon="-1.57102">
        <ele>53</ele>
        <time>2022-03-27T10:06:51Z</time>
      </trkpt>
      <trkpt lat="47.1926" lon="-1.57084">
        <ele>53</ele>
        <time>2022-03-27T10:06:53Z</time>
      </trkpt>
      <trkpt lat="47.19257" lon="-1.57065">
        <ele>53</ele>
        <time>2022-03-27T10:06:55Z</time>
      </trkpt>
      <trkpt lat="47.19255" lon="-1.57046">
        <ele>52</ele>
        <time>2022-03-27T10:06:57Z</time>
      </trkpt>
      <trkpt lat="47.19261" lon="-1.57028">
        <ele>52</ele>
        <time>2022-03-27T10:06:59Z</time>
      </trkpt>
      <trkpt lat="47.19269" lon="-1.57013">
        <ele>52</ele>
        <time>2022-03-27T10:07:01Z</time>
      </trkpt>
      <trkpt lat="47.19271" lon="-1.56994">
        <ele>52</ele>
        <time>2022-03-27T10:07:03Z</time>
      </trkpt>
      <trkpt lat="47.19273" lon="-1.56976">
        <ele>52</ele>
        <time>2022-03-27T10:07:05Z</time>
      </trkpt>
      <trkpt lat="47.19275" lon="-1.56957">
        <ele>52</ele>
        <time>2022-03-27T10:07:07Z</time>
      </trkpt>
      <trkpt lat="47.19277" lon="-1.56939">
        <ele>52</ele>
        <time>2022-03-27T10:07:09Z</time>
      </trkpt>
      <trkpt lat="47.19277" lon="-1.5692">
        <ele>52</ele>
        <time>2022-03-27T10:07:11Z</time>
      </trkpt>
      <trkpt lat="47.19279" lon="-1.56902">
        <ele>53</ele>
        <time>2022-03-27T10:07:13Z</time>
      </trkpt>
      <trkpt lat="47.19281" lon="-1.56884">
        <ele>52</ele>
        <time>2022-03-27T10:07:15Z</time>
      </trkpt>
      <trkpt lat="47.19282" lon="-1.56866">
        <ele>53</ele>
        <time>2022-03-27T10:07:17Z</time>
      </trkpt>
      <trkpt lat="47.19284" lon="-1.56847">
        <ele>53</ele>
        <time>2022-03-27T10:07:19Z</time>
      </trkpt>
      <trkpt lat="47.19285" lon="-1.56829">
        <ele>53</ele>
        <time>2022-03-27T10:07:21Z</time>
      </trkpt>
      <trkpt lat="47.19286" lon="-1.56811">
        <ele>53</ele>
        <time>2022-03-27T10:07:23Z</time>
      </trkpt>
      <trkpt lat="47.19287" lon="-1.56792">
        <ele>53</ele>
        <time>2022-03-27T10:07:25Z</time>
      </trkpt>
      <trkpt lat="47.19288" lon="-1.56774">
        <ele>53</ele>
        <time>2022-03-27T10:07:27Z</time>
      </trkpt>
      <trkpt lat="47.19288" lon="-1.56755">
        <ele>54</ele>
        <time>2022-03-27T10:07:29Z</time>
      </trkpt>
      <trkpt lat="47.19288" lon="-1.56737">
        <ele>54</ele>
        <time>2022-03-27T10:07:31Z</time>
      </trkpt>
      <trkpt lat="47.19287" lon="-1.56718">
        <ele>53</ele>
        <time>2022-03-27T10:07:33Z</time>
      </trkpt>
      <trkpt lat="47.19287" lon="-1.56699">
        <ele>53</ele>
        <time>2022-03-27T10:07:35Z</time>
      </trkpt>
      <trkpt lat="47.19286" lon="-1.56681">
        <ele>53</ele>
        <time>2022-03-27T10:07:37Z</time>
      </trkpt>
      <trkpt lat="47.19285" lon="-1.56662">
        <ele>53</ele>
        <time>2022-03-27T10:07:39Z</time>
      </trkpt>
      <trkpt lat="47.19284" lon="-1.56643">
        <ele>53</ele>
        <time>2022-03-27T10:07:41Z</time>
      </trkpt>
      <trkpt lat="47.19283" lon="-1.56624">
        <ele>54</ele>
        <time>2022-03-27T10:07:43Z</time>
      </trkpt>
      <trkpt lat="47.1928" lon="-1.56605">
        <ele>54</ele>
        <time>2022-03-27T10:07:45Z</time>
      </trkpt>
      <trkpt lat="47.19278" lon="-1.56586">
        <ele>54</ele>
        <time>2022-03-27T10:07:47Z</time>
      </trkpt>
      <trkpt lat="47.19277" lon="-1.56568">
        <ele>54</ele>
        <time>2022-03-27T10:07:49Z</time>
      </trkpt>
      <trkpt lat="47.19275" lon="-1.56549">
        <ele>54</ele>
        <time>2022-03-27T10:07:51Z</time>
      </trkpt>
      <trkpt lat="47.19274" lon="-1.56531">
        <ele>54</ele>
        <time>2022-03-27T10:07:53Z</time>
      </trkpt>
      <trkpt lat="47.19272" lon="-1.56513">
        <ele>55</ele>
        <time>2022-03-27T10:07:55Z</time>
      </trkpt>
      <trkpt lat="47.1927" lon="-1.56495">
        <ele>54</ele>
        <time>2022-03-27T10:07:57Z</time>
      </trkpt>
      <trkpt lat="47.19268" lon="-1.56477">
        <ele>54</ele>
        <time>2022-03-27T10:07:59Z</time>
      </trkpt>
      <trkpt lat="47.19266" lon="-1.56459">
        <ele>54</ele>
        <time>2022-03-27T10:08:01Z</time>
      </trkpt>
      <trkpt lat="47.19264" lon="-1.5644">
        <ele>54</ele>
        <time>2022-03-27T10:08:03Z</time>
      </trkpt>
      <trkpt lat="47.19263" lon="-1.56422">
        <ele>54</ele>
        <time>2022-03-27T10:08:05Z</time>
      </trkpt>
      <trkpt lat="47.19262" lon="-1.56403">
        <ele>54</ele>
        <time>2022-03-27T10:08:07Z</time>
      </trkpt>
      <trkpt lat="47.19261" lon="-1.56384">
        <ele>54</ele>
        <time>2022-03-27T10:08:09Z</time>
      </trkpt>
      <trkpt lat="47.19258" lon="-1.56366">
        <ele>54</ele>
        <time>2022-03-27T10:08:11Z</time>
      </trkpt>
      <trkpt lat="47.19254" lon="-1.56348">
        <ele>54</ele>
        <time>2022-03-27T10:08:13Z</time>
      </trkpt>
      <trkpt lat="47.19249" lon="-1.56331">
        <ele>54</ele>
        <time>2022-03-27T10:08:15Z</time>
      </trkpt>
      <trkpt lat="47.19239" lon="-1.56318">
        <ele>54</ele>
        <time>2022-03-27T10:08:17Z</time>
      </trkpt>
      <trkpt lat="47.19233" lon="-1.56301">
        <ele>54</ele>
        <time>2022-03-27T10:08:19Z</time>
      </trkpt>
      <trkpt lat="47.19231" lon="-1.56283">
        <ele>54</ele>
        <time>2022-03-27T10:08:21Z</time>
      </trkpt>
      <trkpt lat="47.19235" lon="-1.56266">
        <ele>53</ele>
        <time>2022-03-27T10:08:23Z</time>
      </trkpt>
      <trkpt lat="47.19242" lon="-1.5625">
        <ele>53</ele>
        <time>2022-03-27T10:08:25Z</time>
      </trkpt>
      <trkpt lat="47.19243" lon="-1.56231">
        <ele>53</ele>
        <time>2022-03-27T10:08:27Z</time>
      </trkpt>
      <trkpt lat="47.19241" lon="-1.56212">
        <ele>54</ele>
        <time>2022-03-27T10:08:29Z</time>
      </trkpt>
      <trkpt lat="47.19241" lon="-1.56192">
        <ele>54</ele>
        <time>2022-03-27T10:08:31Z</time>
      </trkpt>
      <trkpt lat="47.19242" lon="-1.56172">
        <ele>53</ele>
        <time>2022-03-27T10:08:33Z</time>
      </trkpt>
      <trkpt lat="47.19242" lon="-1.56152">
        <ele>53</ele>
        <time>2022-03-27T10:08:35Z</time>
      </trkpt>
      <trkpt lat="47.19242" lon="-1.56133">
        <ele>53</ele>
        <time>2022-03-27T10:08:37Z</time>
      </trkpt>
      <trkpt lat="47.19241" lon="-1.56113">
        <ele>53</ele>
        <time>2022-03-27T10:08:39Z</time>
      </trkpt>
      <trkpt lat="47.1924" lon="-1.56094">
        <ele>53</ele>
        <time>2022-03-27T10:08:41Z</time>
      </trkpt>
      <trkpt lat="47.19239" lon="-1.56074">
        <ele>53</ele>
        <time>2022-03-27T10:08:43Z</time>
      </trkpt>
      <trkpt lat="47.19238" lon="-1.56056">
        <ele>53</ele>
        <time>2022-03-27T10:08:45Z</time>
      </trkpt>
      <trkpt lat="47.19236" lon="-1.56035">
        <ele>53</ele>
        <time>2022-03-27T10:08:47Z</time>
      </trkpt>
      <trkpt lat="47.19234" lon="-1.56016">
        <ele>53</ele>
        <time>2022-03-27T10:08:49Z</time>
      </trkpt>
      <trkpt lat="47.19232" lon="-1.55996">
        <ele>53</ele>
        <time>2022-03-27T10:08:51Z</time>
      </trkpt>
      <trkpt lat="47.1923" lon="-1.55977">
        <ele>53</ele>
        <time>2022-03-27T10:08:53Z</time>
      </trkpt>
      <trkpt lat="47.19228" lon="-1.55957">
        <ele>53</ele>
        <time>2022-03-27T10:08:55Z</time>
      </trkpt>
      <trkpt lat="47.19226" lon="-1.55937">
        <ele>53</ele>
        <time>2022-03-27T10:08:57Z</time>
      </trkpt>
      <trkpt lat="47.19224" lon="-1.55918">
        <ele>53</ele>
        <time>2022-03-27T10:08:59Z</time>
      </trkpt>
      <trkpt lat="47.19222" lon="-1.55899">
        <ele>53</ele>
        <time>2022-03-27T10:09:01Z</time>
      </trkpt>
      <trkpt lat="47.19221" lon="-1.55881">
        <ele>54</ele>
        <time>2022-03-27T10:09:03Z</time>
      </trkpt>
      <trkpt lat="47.19219" lon="-1.55862">
        <ele>54</ele>
        <time>2022-03-27T10:09:05Z</time>
      </trkpt>
      <trkpt lat="47.19219" lon="-1.55843">
        <ele>54</ele>
        <time>2022-03-27T10:09:07Z</time>
      </trkpt>
      <trkpt lat="47.19218" lon="-1.55824">
        <ele>54</ele>
        <time>2022-03-27T10:09:09Z</time>
      </trkpt>
      <trkpt lat="47.19217" lon="-1.55805">
        <ele>54</ele>
        <time>2022-03-27T10:09:11Z</time>
      </trkpt>
      <trkpt lat="47.19216" lon="-1.55786">
        <ele>54</ele>
        <time>2022-03-27T10:09:13Z</time>
      </trkpt>
      <trkpt lat="47.19216" lon="-1.55767">
        <ele>54</ele>
        <time>2022-03-27T10:09:15Z</time>
      </trkpt>
      <trkpt lat="47.19216" lon="-1.55747">
        <ele>54</ele>
        <time>2022-03-27T10:09:17Z</time>
      </trkpt>
      <trkpt lat="47.19216" lon="-1.55728">
        <ele>54</ele>
        <time>2022-03-27T10:09:19Z</time>
      </trkpt>
      <trkpt lat="47.19217" lon="-1.55708">
        <ele>54</ele>
        <time>2022-03-27T10:09:21Z</time>
      </trkpt>
      <trkpt lat="47.19217" lon="-1.55689">
        <ele>54</ele>
        <time>2022-03-27T10:09:23Z</time>
      </trkpt>
      <trkpt lat="47.19218" lon="-1.5567">
        <ele>54</ele>
        <time>2022-03-27T10:09:25Z</time>
      </trkpt>
      <trkpt lat="47.19219" lon="-1.55651">
        <ele>54</ele>
        <time>2022-03-27T10:09:27Z</time>
      </trkpt>
      <trkpt lat="47.1922" lon="-1.55632">
        <ele>54</ele>
        <time>2022-03-27T10:09:29Z</time>
      </trkpt>
      <trkpt lat="47.19221" lon="-1.55613">
        <ele>54</ele>
        <time>2022-03-27T10:09:31Z</time>
      </trkpt>
      <trkpt lat="47.19222" lon="-1.55595">
        <ele>54</ele>
        <time>2022-03-27T10:09:33Z</time>
      </trkpt>
      <trkpt lat="47.19223" lon="-1.55577">
        <ele>54</ele>
        <time>2022-03-27T10:09:35Z</time>
      </trkpt>
      <trkpt lat="47.19225" lon="-1.55558">
        <ele>54</ele>
        <time>2022-03-27T10:09:37Z</time>
      </trkpt>
      <trkpt lat="47.19227" lon="-1.55539">
        <ele>53</ele>
        <time>2022-03-27T10:09:39Z</time>
      </trkpt>
      <trkpt lat="47.19228" lon="-1.55521">
        <ele>53</ele>
        <time>2022-03-27T10:09:41Z</time>
      </trkpt>
      <trkpt lat="47.19229" lon="-1.55502">
        <ele>53</ele>
        <time>2022-03-27T10:09:43Z</time>
      </trkpt>
      <trkpt lat="47.19229" lon="-1.55484">
        <ele>53</ele>
        <time>2022-03-27T10:09:45Z</time>
      </trkpt>
      <trkpt lat="47.19226" lon="-1.55467">
        <ele>52</ele>
        <time>2022-03-27T10:09:47Z</time>
      </trkpt>
      <trkpt lat="47.19217" lon="-1.55453">
        <ele>52</ele>
        <time>2022-03-27T10:09:49Z</time>
      </trkpt>
      <trkpt lat="47.19212" lon="-1.55434">
        <ele>52</ele>
        <time>2022-03-27T10:09:51Z</time>
      </trkpt>
      <trkpt lat="47.19216" lon="-1.55416">
        <ele>52</ele>
        <time>2022-03-27T10:09:53Z</time>
      </trkpt>
      <trkpt lat="47.19225" lon="-1.55403">
        <ele>53</ele>
        <time>2022-03-27T10:09:55Z</time>
      </trkpt>
      <trkpt lat="47.19235" lon="-1.55392">
        <ele>54</ele>
        <time>2022-03-27T10:09:57Z</time>
      </trkpt>
      <trkpt lat="47.19242" lon="-1.55376">
        <ele>54</ele>
        <time>2022-03-27T10:09:59Z</time>
      </trkpt>
      <trkpt lat="47.19247" lon="-1.55359">
        <ele>53</ele>
        <time>2022-03-27T10:10:01Z</time>
      </trkpt>
      <trkpt lat="47.19252" lon="-1.55341">
        <ele>53</ele>
        <time>2022-03-27T10:10:03Z</time>
      </trkpt>
      <trkpt lat="47.19256" lon="-1.55323">
        <ele>53</ele>
        <time>2022-03-27T10:10:05Z</time>
      </trkpt>
      <trkpt lat="47.19261" lon="-1.55305">
        <ele>54</ele>
        <time>2022-03-27T10:10:07Z</time>
      </trkpt>
      <trkpt lat="47.19265" lon="-1.55287">
        <ele>54</ele>
        <time>2022-03-27T10:10:09Z</time>
      </trkpt>
      <trkpt lat="47.19268" lon="-1.55269">
        <ele>54</ele>
        <time>2022-03-27T10:10:11Z</time>
      </trkpt>
      <trkpt lat="47.19272" lon="-1.55252">
        <ele>54</ele>
        <time>2022-03-27T10:10:13Z</time>
      </trkpt>
      <trkpt lat="47.19275" lon="-1.55234">
        <ele>54</ele>
        <time>2022-03-27T10:10:15Z</time>
      </trkpt>
      <trkpt lat="47.19279" lon="-1.55216">
        <ele>54</ele>
        <time>2022-03-27T10:10:17Z</time>
      </trkpt>
      <trkpt lat="47.19284" lon="-1.55199">
        <ele>54</ele>
        <time>2022-03-27T10:10:19Z</time>
      </trkpt>
      <trkpt lat="47.19288" lon="-1.55182">
        <ele>54</ele>
        <time>2022-03-27T10:10:21Z</time>
      </trkpt>
      <trkpt lat="47.19293" lon="-1.55166">
        <ele>55</ele>
        <time>2022-03-27T10:10:23Z</time>
      </trkpt>
      <trkpt lat="47.19297" lon="-1.5515">
        <ele>55</ele>
        <time>2022-03-27T10:10:25Z</time>
      </trkpt>
      <trkpt lat="47.19301" lon="-1.55134">
        <ele>56</ele>
        <time>2022-03-27T10:10:27Z</time>
      </trkpt>
      <trkpt lat="47.19305" lon="-1.55119">
        <ele>56</ele>
        <time>2022-03-27T10:10:29Z</time>
      </trkpt>
      <trkpt lat="47.19308" lon="-1.55103">
        <ele>57</ele>
        <time>2022-03-27T10:10:31Z</time>
      </trkpt>
      <trkpt lat="47.19312" lon="-1.55088">
        <ele>57</ele>
        <time>2022-03-27T10:10:33Z</time>
      </trkpt>
      <trkpt lat="47.19316" lon="-1.55072">
        <ele>57</ele>
        <time>2022-03-27T10:10:35Z</time>
      </trkpt>
      <trkpt lat="47.1932" lon="-1.55057">
        <ele>57</ele>
        <time>2022-03-27T10:10:37Z</time>
      </trkpt>
      <trkpt lat="47.19324" lon="-1.55041">
        <ele>58</ele>
        <time>2022-03-27T10:10:39Z</time>
      </trkpt>
      <trkpt lat="47.19329" lon="-1.55025">
        <ele>58</ele>
        <time>2022-03-27T10:10:41Z</time>
      </trkpt>
      <trkpt lat="47.19333" lon="-1.55009">
        <ele>59</ele>
        <time>2022-03-27T10:10:43Z</time>
      </trkpt>
      <trkpt lat="47.19337" lon="-1.54992">
        <ele>59</ele>
        <time>2022-03-27T10:10:45Z</time>
      </trkpt>
      <trkpt lat="47.19342" lon="-1.54976">
        <ele>59</ele>
        <time>2022-03-27T10:10:47Z</time>
      </trkpt>
      <trkpt lat="47.19346" lon="-1.5496">
        <ele>60</ele>
        <time>2022-03-27T10:10:49Z</time>
      </trkpt>
      <trkpt lat="47.1935" lon="-1.54946">
        <ele>60</ele>
        <time>2022-03-27T10:10:51Z</time>
      </trkpt>
      <trkpt lat="47.19353" lon="-1.5493">
        <ele>60</ele>
        <time>2022-03-27T10:10:53Z</time>
      </trkpt>
      <trkpt lat="47.19357" lon="-1.54915">
        <ele>60</ele>
        <time>2022-03-27T10:10:55Z</time>
      </trkpt>
      <trkpt lat="47.19361" lon="-1.549">
        <ele>59</ele>
        <time>2022-03-27T10:10:57Z</time>
      </trkpt>
      <trkpt lat="47.19364" lon="-1.54882">
        <ele>59</ele>
        <time>2022-03-27T10:10:59Z</time>
      </trkpt>
      <trkpt lat="47.19368" lon="-1.54865">
        <ele>59</ele>
        <time>2022-03-27T10:11:01Z</time>
      </trkpt>
      <trkpt lat="47.19372" lon="-1.54848">
        <ele>58</ele>
        <time>2022-03-27T10:11:03Z</time>
      </trkpt>
      <trkpt lat="47.19377" lon="-1.54829">
        <ele>58</ele>
        <time>2022-03-27T10:11:05Z</time>
      </trkpt>
      <trkpt lat="47.19384" lon="-1.54799">
        <ele>56</ele>
        <time>2022-03-27T10:11:08Z</time>
      </trkpt>
      <trkpt lat="47.19389" lon="-1.54778">
        <ele>56</ele>
        <time>2022-03-27T10:11:10Z</time>
      </trkpt>
      <trkpt lat="47.19397" lon="-1.54745">
        <ele>55</ele>
        <time>2022-03-27T10:11:13Z</time>
      </trkpt>
      <trkpt lat="47.19402" lon="-1.54723">
        <ele>54</ele>
        <time>2022-03-27T10:11:15Z</time>
      </trkpt>
      <trkpt lat="47.1941" lon="-1.54691">
        <ele>54</ele>
        <time>2022-03-27T10:11:18Z</time>
      </trkpt>
      <trkpt lat="47.19419" lon="-1.54661">
        <ele>54</ele>
        <time>2022-03-27T10:11:21Z</time>
      </trkpt>
      <trkpt lat="47.19424" lon="-1.54643">
        <ele>54</ele>
        <time>2022-03-27T10:11:23Z</time>
      </trkpt>
      <trkpt lat="47.19428" lon="-1.5463">
        <ele>53</ele>
        <time>2022-03-27T10:11:25Z</time>
      </trkpt>
      <trkpt lat="47.19426" lon="-1.54613">
        <ele>53</ele>
        <time>2022-03-27T10:11:28Z</time>
      </trkpt>
      <trkpt lat="47.19418" lon="-1.54591">
        <ele>53</ele>
        <time>2022-03-27T10:11:31Z</time>
      </trkpt>
      <trkpt lat="47.19424" lon="-1.54574">
        <ele>53</ele>
        <time>2022-03-27T10:11:33Z</time>
      </trkpt>
      <trkpt lat="47.19432" lon="-1.5456">
        <ele>52</ele>
        <time>2022-03-27T10:11:35Z</time>
      </trkpt>
      <trkpt lat="47.19443" lon="-1.54551">
        <ele>52</ele>
        <time>2022-03-27T10:11:37Z</time>
      </trkpt>
      <trkpt lat="47.19451" lon="-1.54535">
        <ele>52</ele>
        <time>2022-03-27T10:11:39Z</time>
      </trkpt>
      <trkpt lat="47.19457" lon="-1.54519">
        <ele>53</ele>
        <time>2022-03-27T10:11:41Z</time>
      </trkpt>
      <trkpt lat="47.19462" lon="-1.54501">
        <ele>53</ele>
        <time>2022-03-27T10:11:43Z</time>
      </trkpt>
      <trkpt lat="47.19468" lon="-1.54485">
        <ele>53</ele>
        <time>2022-03-27T10:11:45Z</time>
      </trkpt>
      <trkpt lat="47.19473" lon="-1.54468">
        <ele>53</ele>
        <time>2022-03-27T10:11:47Z</time>
      </trkpt>
      <trkpt lat="47.19483" lon="-1.54458">
        <ele>53</ele>
        <time>2022-03-27T10:11:49Z</time>
      </trkpt>
      <trkpt lat="47.19494" lon="-1.5445">
        <ele>53</ele>
        <time>2022-03-27T10:11:51Z</time>
      </trkpt>
      <trkpt lat="47.19504" lon="-1.54441">
        <ele>54</ele>
        <time>2022-03-27T10:11:53Z</time>
      </trkpt>
      <trkpt lat="47.19514" lon="-1.54433">
        <ele>54</ele>
        <time>2022-03-27T10:11:55Z</time>
      </trkpt>
      <trkpt lat="47.19525" lon="-1.54426">
        <ele>54</ele>
        <time>2022-03-27T10:11:57Z</time>
      </trkpt>
      <trkpt lat="47.19536" lon="-1.54417">
        <ele>54</ele>
        <time>2022-03-27T10:11:59Z</time>
      </trkpt>
      <trkpt lat="47.19547" lon="-1.54408">
        <ele>54</ele>
        <time>2022-03-27T10:12:01Z</time>
      </trkpt>
      <trkpt lat="47.19558" lon="-1.544">
        <ele>54</ele>
        <time>2022-03-27T10:12:03Z</time>
      </trkpt>
      <trkpt lat="47.19569" lon="-1.54391">
        <ele>54</ele>
        <time>2022-03-27T10:12:05Z</time>
      </trkpt>
      <trkpt lat="47.1958" lon="-1.54383">
        <ele>53</ele>
        <time>2022-03-27T10:12:07Z</time>
      </trkpt>
      <trkpt lat="47.19592" lon="-1.54374">
        <ele>53</ele>
        <time>2022-03-27T10:12:09Z</time>
      </trkpt>
      <trkpt lat="47.19603" lon="-1.54363">
        <ele>53</ele>
        <time>2022-03-27T10:12:11Z</time>
      </trkpt>
      <trkpt lat="47.19612" lon="-1.54351">
        <ele>53</ele>
        <time>2022-03-27T10:12:13Z</time>
      </trkpt>
      <trkpt lat="47.19622" lon="-1.54338">
        <ele>53</ele>
        <time>2022-03-27T10:12:15Z</time>
      </trkpt>
      <trkpt lat="47.19632" lon="-1.54325">
        <ele>53</ele>
        <time>2022-03-27T10:12:17Z</time>
      </trkpt>
      <trkpt lat="47.19641" lon="-1.54312">
        <ele>53</ele>
        <time>2022-03-27T10:12:19Z</time>
      </trkpt>
      <trkpt lat="47.19652" lon="-1.54303">
        <ele>53</ele>
        <time>2022-03-27T10:12:21Z</time>
      </trkpt>
      <trkpt lat="47.19663" lon="-1.54294">
        <ele>53</ele>
        <time>2022-03-27T10:12:23Z</time>
      </trkpt>
      <trkpt lat="47.19674" lon="-1.54285">
        <ele>53</ele>
        <time>2022-03-27T10:12:25Z</time>
      </trkpt>
      <trkpt lat="47.19685" lon="-1.54276">
        <ele>53</ele>
        <time>2022-03-27T10:12:27Z</time>
      </trkpt>
      <trkpt lat="47.19697" lon="-1.54268">
        <ele>52</ele>
        <time>2022-03-27T10:12:29Z</time>
      </trkpt>
      <trkpt lat="47.19708" lon="-1.54261">
        <ele>52</ele>
        <time>2022-03-27T10:12:31Z</time>
      </trkpt>
      <trkpt lat="47.19719" lon="-1.54252">
        <ele>52</ele>
        <time>2022-03-27T10:12:33Z</time>
      </trkpt>
      <trkpt lat="47.19729" lon="-1.54243">
        <ele>52</ele>
        <time>2022-03-27T10:12:35Z</time>
      </trkpt>
      <trkpt lat="47.19738" lon="-1.54235">
        <ele>53</ele>
        <time>2022-03-27T10:12:37Z</time>
      </trkpt>
      <trkpt lat="47.19746" lon="-1.54227">
        <ele>53</ele>
        <time>2022-03-27T10:12:39Z</time>
      </trkpt>
      <trkpt lat="47.19756" lon="-1.54218">
        <ele>52</ele>
        <time>2022-03-27T10:12:42Z</time>
      </trkpt>
      <trkpt lat="47.19765" lon="-1.54207">
        <ele>53</ele>
        <time>2022-03-27T10:12:45Z</time>
      </trkpt>
      <trkpt lat="47.19775" lon="-1.54199">
        <ele>53</ele>
        <time>2022-03-27T10:12:48Z</time>
      </trkpt>
      <trkpt lat="47.19783" lon="-1.54189">
        <ele>53</ele>
        <time>2022-03-27T10:12:50Z</time>
      </trkpt>
      <trkpt lat="47.19787" lon="-1.54175">
        <ele>54</ele>
        <time>2022-03-27T10:12:52Z</time>
      </trkpt>
      <trkpt lat="47.19791" lon="-1.5416">
        <ele>54</ele>
        <time>2022-03-27T10:12:54Z</time>
      </trkpt>
      <trkpt lat="47.19792" lon="-1.54143">
        <ele>55</ele>
        <time>2022-03-27T10:12:56Z</time>
      </trkpt>
      <trkpt lat="47.19794" lon="-1.54125">
        <ele>54</ele>
        <time>2022-03-27T10:12:58Z</time>
      </trkpt>
      <trkpt lat="47.19804" lon="-1.54112">
        <ele>54</ele>
        <time>2022-03-27T10:13:00Z</time>
      </trkpt>
      <trkpt lat="47.19817" lon="-1.54103">
        <ele>53</ele>
        <time>2022-03-27T10:13:02Z</time>
      </trkpt>
      <trkpt lat="47.19827" lon="-1.54092">
        <ele>53</ele>
        <time>2022-03-27T10:13:04Z</time>
      </trkpt>
      <trkpt lat="47.19832" lon="-1.54077">
        <ele>53</ele>
        <time>2022-03-27T10:13:06Z</time>
      </trkpt>
      <trkpt lat="47.19841" lon="-1.54063">
        <ele>53</ele>
        <time>2022-03-27T10:13:08Z</time>
      </trkpt>
      <trkpt lat="47.19847" lon="-1.54046">
        <ele>53</ele>
        <time>2022-03-27T10:13:10Z</time>
      </trkpt>
      <trkpt lat="47.19853" lon="-1.54027">
        <ele>53</ele>
        <time>2022-03-27T10:13:12Z</time>
      </trkpt>
      <trkpt lat="47.19858" lon="-1.54008">
        <ele>52</ele>
        <time>2022-03-27T10:13:14Z</time>
      </trkpt>
      <trkpt lat="47.19863" lon="-1.5399">
        <ele>52</ele>
        <time>2022-03-27T10:13:16Z</time>
      </trkpt>
      <trkpt lat="47.19868" lon="-1.53971">
        <ele>52</ele>
        <time>2022-03-27T10:13:18Z</time>
      </trkpt>
      <trkpt lat="47.19874" lon="-1.53954">
        <ele>52</ele>
        <time>2022-03-27T10:13:20Z</time>
      </trkpt>
      <trkpt lat="47.19879" lon="-1.53934">
        <ele>52</ele>
        <time>2022-03-27T10:13:22Z</time>
      </trkpt>
      <trkpt lat="47.19883" lon="-1.53915">
        <ele>51</ele>
        <time>2022-03-27T10:13:24Z</time>
      </trkpt>
      <trkpt lat="47.19887" lon="-1.53897">
        <ele>51</ele>
        <time>2022-03-27T10:13:26Z</time>
      </trkpt>
      <trkpt lat="47.19891" lon="-1.53878">
        <ele>51</ele>
        <time>2022-03-27T10:13:28Z</time>
      </trkpt>
      <trkpt lat="47.19895" lon="-1.53859">
        <ele>51</ele>
        <time>2022-03-27T10:13:30Z</time>
      </trkpt>
      <trkpt lat="47.19898" lon="-1.5384">
        <ele>51</ele>
        <time>2022-03-27T10:13:32Z</time>
      </trkpt>
      <trkpt lat="47.19903" lon="-1.53822">
        <ele>51</ele>
        <time>2022-03-27T10:13:34Z</time>
      </trkpt>
      <trkpt lat="47.19907" lon="-1.53804">
        <ele>51</ele>
        <time>2022-03-27T10:13:36Z</time>
      </trkpt>
      <trkpt lat="47.19911" lon="-1.53786">
        <ele>52</ele>
        <time>2022-03-27T10:13:38Z</time>
      </trkpt>
      <trkpt lat="47.19916" lon="-1.53768">
        <ele>52</ele>
        <time>2022-03-27T10:13:40Z</time>
      </trkpt>
      <trkpt lat="47.1992" lon="-1.53749">
        <ele>52</ele>
        <time>2022-03-27T10:13:42Z</time>
      </trkpt>
      <trkpt lat="47.19924" lon="-1.5373">
        <ele>52</ele>
        <time>2022-03-27T10:13:44Z</time>
      </trkpt>
      <trkpt lat="47.19929" lon="-1.5371">
        <ele>52</ele>
        <time>2022-03-27T10:13:46Z</time>
      </trkpt>
      <trkpt lat="47.19934" lon="-1.53692">
        <ele>52</ele>
        <time>2022-03-27T10:13:48Z</time>
      </trkpt>
      <trkpt lat="47.19938" lon="-1.53674">
        <ele>52</ele>
        <time>2022-03-27T10:13:50Z</time>
      </trkpt>
      <trkpt lat="47.19943" lon="-1.53656">
        <ele>53</ele>
        <time>2022-03-27T10:13:52Z</time>
      </trkpt>
      <trkpt lat="47.19948" lon="-1.53638">
        <ele>53</ele>
        <time>2022-03-27T10:13:54Z</time>
      </trkpt>
      <trkpt lat="47.19951" lon="-1.53621">
        <ele>53</ele>
        <time>2022-03-27T10:13:56Z</time>
      </trkpt>
      <trkpt lat="47.19955" lon="-1.53604">
        <ele>52</ele>
        <time>2022-03-27T10:13:58Z</time>
      </trkpt>
      <trkpt lat="47.1996" lon="-1.53586">
        <ele>52</ele>
        <time>2022-03-27T10:14:00Z</time>
      </trkpt>
      <trkpt lat="47.19965" lon="-1.53569">
        <ele>52</ele>
        <time>2022-03-27T10:14:02Z</time>
      </trkpt>
      <trkpt lat="47.19969" lon="-1.53553">
        <ele>52</ele>
        <time>2022-03-27T10:14:04Z</time>
      </trkpt>
      <trkpt lat="47.19974" lon="-1.53535">
        <ele>51</ele>
        <time>2022-03-27T10:14:06Z</time>
      </trkpt>
      <trkpt lat="47.19978" lon="-1.53518">
        <ele>51</ele>
        <time>2022-03-27T10:14:08Z</time>
      </trkpt>
      <trkpt lat="47.19982" lon="-1.53502">
        <ele>51</ele>
        <time>2022-03-27T10:14:10Z</time>
      </trkpt>
      <trkpt lat="47.19984" lon="-1.53486">
        <ele>51</ele>
        <time>2022-03-27T10:14:12Z</time>
      </trkpt>
      <trkpt lat="47.19989" lon="-1.53472">
        <ele>51</ele>
        <time>2022-03-27T10:14:14Z</time>
      </trkpt>
      <trkpt lat="47.19999" lon="-1.53468">
        <ele>51</ele>
        <time>2022-03-27T10:14:16Z</time>
      </trkpt>
      <trkpt lat="47.20011" lon="-1.53469">
        <ele>51</ele>
        <time>2022-03-27T10:14:18Z</time>
      </trkpt>
      <trkpt lat="47.20021" lon="-1.53459">
        <ele>51</ele>
        <time>2022-03-27T10:14:20Z</time>
      </trkpt>
      <trkpt lat="47.20027" lon="-1.53444">
        <ele>51</ele>
        <time>2022-03-27T10:14:22Z</time>
      </trkpt>
      <trkpt lat="47.20033" lon="-1.53428">
        <ele>51</ele>
        <time>2022-03-27T10:14:24Z</time>
      </trkpt>
      <trkpt lat="47.20039" lon="-1.53412">
        <ele>51</ele>
        <time>2022-03-27T10:14:26Z</time>
      </trkpt>
      <trkpt lat="47.20045" lon="-1.53396">
        <ele>51</ele>
        <time>2022-03-27T10:14:28Z</time>
      </trkpt>
      <trkpt lat="47.20051" lon="-1.53381">
        <ele>51</ele>
        <time>2022-03-27T10:14:30Z</time>
      </trkpt>
      <trkpt lat="47.20055" lon="-1.53367">
        <ele>51</ele>
        <time>2022-03-27T10:14:32Z</time>
      </trkpt>
      <trkpt lat="47.20063" lon="-1.53356">
        <ele>51</ele>
        <time>2022-03-27T10:14:35Z</time>
      </trkpt>
      <trkpt lat="47.20072" lon="-1.53354">
        <ele>51</ele>
        <time>2022-03-27T10:14:38Z</time>
      </trkpt>
      <trkpt lat="47.20078" lon="-1.53342">
        <ele>51</ele>
        <time>2022-03-27T10:14:40Z</time>
      </trkpt>
      <trkpt lat="47.20083" lon="-1.53327">
        <ele>51</ele>
        <time>2022-03-27T10:14:42Z</time>
      </trkpt>
      <trkpt lat="47.20089" lon="-1.53312">
        <ele>51</ele>
        <time>2022-03-27T10:14:44Z</time>
      </trkpt>
      <trkpt lat="47.20095" lon="-1.53296">
        <ele>51</ele>
        <time>2022-03-27T10:14:46Z</time>
      </trkpt>
      <trkpt lat="47.20101" lon="-1.53279">
        <ele>51</ele>
        <time>2022-03-27T10:14:48Z</time>
      </trkpt>
      <trkpt lat="47.20106" lon="-1.53263">
        <ele>51</ele>
        <time>2022-03-27T10:14:50Z</time>
      </trkpt>
      <trkpt lat="47.2011" lon="-1.53246">
        <ele>51</ele>
        <time>2022-03-27T10:14:52Z</time>
      </trkpt>
      <trkpt lat="47.20115" lon="-1.53229">
        <ele>51</ele>
        <time>2022-03-27T10:14:54Z</time>
      </trkpt>
      <trkpt lat="47.20118" lon="-1.53211">
        <ele>51</ele>
        <time>2022-03-27T10:14:56Z</time>
      </trkpt>
      <trkpt lat="47.20123" lon="-1.53194">
        <ele>52</ele>
        <time>2022-03-27T10:14:58Z</time>
      </trkpt>
      <trkpt lat="47.20127" lon="-1.53176">
        <ele>52</ele>
        <time>2022-03-27T10:15:00Z</time>
      </trkpt>
      <trkpt lat="47.20133" lon="-1.53159">
        <ele>51</ele>
        <time>2022-03-27T10:15:02Z</time>
      </trkpt>
      <trkpt lat="47.20139" lon="-1.53142">
        <ele>51</ele>
        <time>2022-03-27T10:15:04Z</time>
      </trkpt>
      <trkpt lat="47.20146" lon="-1.53125">
        <ele>51</ele>
        <time>2022-03-27T10:15:06Z</time>
      </trkpt>
      <trkpt lat="47.20154" lon="-1.53109">
        <ele>51</ele>
        <time>2022-03-27T10:15:08Z</time>
      </trkpt>
      <trkpt lat="47.20161" lon="-1.53093">
        <ele>52</ele>
        <time>2022-03-27T10:15:10Z</time>
      </trkpt>
      <trkpt lat="47.20169" lon="-1.53078">
        <ele>52</ele>
        <time>2022-03-27T10:15:12Z</time>
      </trkpt>
      <trkpt lat="47.20177" lon="-1.53063">
        <ele>52</ele>
        <time>2022-03-27T10:15:14Z</time>
      </trkpt>
      <trkpt lat="47.20187" lon="-1.53049">
        <ele>52</ele>
        <time>2022-03-27T10:15:16Z</time>
      </trkpt>
      <trkpt lat="47.20198" lon="-1.53037">
        <ele>52</ele>
        <time>2022-03-27T10:15:18Z</time>
      </trkpt>
      <trkpt lat="47.20209" lon="-1.53025">
        <ele>52</ele>
        <time>2022-03-27T10:15:20Z</time>
      </trkpt>
      <trkpt lat="47.20219" lon="-1.53012">
        <ele>52</ele>
        <time>2022-03-27T10:15:22Z</time>
      </trkpt>
      <trkpt lat="47.20229" lon="-1.52998">
        <ele>52</ele>
        <time>2022-03-27T10:15:24Z</time>
      </trkpt>
      <trkpt lat="47.20237" lon="-1.52982">
        <ele>52</ele>
        <time>2022-03-27T10:15:26Z</time>
      </trkpt>
      <trkpt lat="47.20245" lon="-1.52967">
        <ele>52</ele>
        <time>2022-03-27T10:15:28Z</time>
      </trkpt>
      <trkpt lat="47.20253" lon="-1.52952">
        <ele>52</ele>
        <time>2022-03-27T10:15:30Z</time>
      </trkpt>
      <trkpt lat="47.20262" lon="-1.52938">
        <ele>53</ele>
        <time>2022-03-27T10:15:32Z</time>
      </trkpt>
      <trkpt lat="47.2027" lon="-1.52922">
        <ele>52</ele>
        <time>2022-03-27T10:15:34Z</time>
      </trkpt>
      <trkpt lat="47.20278" lon="-1.52905">
        <ele>51</ele>
        <time>2022-03-27T10:15:36Z</time>
      </trkpt>
      <trkpt lat="47.20285" lon="-1.52888">
        <ele>52</ele>
        <time>2022-03-27T10:15:38Z</time>
      </trkpt>
      <trkpt lat="47.20291" lon="-1.5287">
        <ele>52</ele>
        <time>2022-03-27T10:15:40Z</time>
      </trkpt>
      <trkpt lat="47.20299" lon="-1.52853">
        <ele>51</ele>
        <time>2022-03-27T10:15:42Z</time>
      </trkpt>
      <trkpt lat="47.20306" lon="-1.52837">
        <ele>51</ele>
        <time>2022-03-27T10:15:44Z</time>
      </trkpt>
      <trkpt lat="47.20313" lon="-1.52821">
        <ele>52</ele>
        <time>2022-03-27T10:15:46Z</time>
      </trkpt>
      <trkpt lat="47.2032" lon="-1.52806">
        <ele>52</ele>
        <time>2022-03-27T10:15:48Z</time>
      </trkpt>
      <trkpt lat="47.20327" lon="-1.52791">
        <ele>52</ele>
        <time>2022-03-27T10:15:50Z</time>
      </trkpt>
      <trkpt lat="47.20335" lon="-1.52776">
        <ele>52</ele>
        <time>2022-03-27T10:15:52Z</time>
      </trkpt>
      <trkpt lat="47.20344" lon="-1.52759">
        <ele>52</ele>
        <time>2022-03-27T10:15:54Z</time>
      </trkpt>
      <trkpt lat="47.20351" lon="-1.52743">
        <ele>51</ele>
        <time>2022-03-27T10:15:56Z</time>
      </trkpt>
      <trkpt lat="47.20359" lon="-1.52727">
        <ele>51</ele>
        <time>2022-03-27T10:15:58Z</time>
      </trkpt>
      <trkpt lat="47.20368" lon="-1.52712">
        <ele>51</ele>
        <time>2022-03-27T10:16:00Z</time>
      </trkpt>
      <trkpt lat="47.20377" lon="-1.52697">
        <ele>51</ele>
        <time>2022-03-27T10:16:02Z</time>
      </trkpt>
      <trkpt lat="47.20385" lon="-1.52681">
        <ele>52</ele>
        <time>2022-03-27T10:16:04Z</time>
      </trkpt>
      <trkpt lat="47.20393" lon="-1.52665">
        <ele>52</ele>
        <time>2022-03-27T10:16:06Z</time>
      </trkpt>
      <trkpt lat="47.204" lon="-1.52648">
        <ele>52</ele>
        <time>2022-03-27T10:16:08Z</time>
      </trkpt>
      <trkpt lat="47.20407" lon="-1.52631">
        <ele>52</ele>
        <time>2022-03-27T10:16:10Z</time>
      </trkpt>
      <trkpt lat="47.20413" lon="-1.52615">
        <ele>51</ele>
        <time>2022-03-27T10:16:12Z</time>
      </trkpt>
      <trkpt lat="47.20418" lon="-1.52596">
        <ele>51</ele>
        <time>2022-03-27T10:16:14Z</time>
      </trkpt>
      <trkpt lat="47.20422" lon="-1.52577">
        <ele>51</ele>
        <time>2022-03-27T10:16:16Z</time>
      </trkpt>
      <trkpt lat="47.20428" lon="-1.5256">
        <ele>51</ele>
        <time>2022-03-27T10:16:18Z</time>
      </trkpt>
      <trkpt lat="47.20433" lon="-1.52542">
        <ele>51</ele>
        <time>2022-03-27T10:16:20Z</time>
      </trkpt>
      <trkpt lat="47.2044" lon="-1.52526">
        <ele>51</ele>
        <time>2022-03-27T10:16:22Z</time>
      </trkpt>
      <trkpt lat="47.20446" lon="-1.5251">
        <ele>51</ele>
        <time>2022-03-27T10:16:24Z</time>
      </trkpt>
      <trkpt lat="47.20452" lon="-1.52493">
        <ele>51</ele>
        <time>2022-03-27T10:16:26Z</time>
      </trkpt>
      <trkpt lat="47.20458" lon="-1.52477">
        <ele>51</ele>
        <time>2022-03-27T10:16:28Z</time>
      </trkpt>
      <trkpt lat="47.20464" lon="-1.5246">
        <ele>51</ele>
        <time>2022-03-27T10:16:30Z</time>
      </trkpt>
      <trkpt lat="47.20471" lon="-1.52445">
        <ele>52</ele>
        <time>2022-03-27T10:16:32Z</time>
      </trkpt>
      <trkpt lat="47.20477" lon="-1.52428">
        <ele>51</ele>
        <time>2022-03-27T10:16:34Z</time>
      </trkpt>
      <trkpt lat="47.20484" lon="-1.5241">
        <ele>50</ele>
        <time>2022-03-27T10:16:36Z</time>
      </trkpt>
      <trkpt lat="47.20491" lon="-1.52392">
        <ele>50</ele>
        <time>2022-03-27T10:16:38Z</time>
      </trkpt>
      <trkpt lat="47.20496" lon="-1.52375">
        <ele>50</ele>
        <time>2022-03-27T10:16:40Z</time>
      </trkpt>
      <trkpt lat="47.20502" lon="-1.52359">
        <ele>50</ele>
        <time>2022-03-27T10:16:42Z</time>
      </trkpt>
      <trkpt lat="47.20507" lon="-1.52342">
        <ele>50</ele>
        <time>2022-03-27T10:16:44Z</time>
      </trkpt>
      <trkpt lat="47.20511" lon="-1.52326">
        <ele>50</ele>
        <time>2022-03-27T10:16:46Z</time>
      </trkpt>
      <trkpt lat="47.20516" lon="-1.52311">
        <ele>50</ele>
        <time>2022-03-27T10:16:48Z</time>
      </trkpt>
      <trkpt lat="47.2052" lon="-1.52297">
        <ele>51</ele>
        <time>2022-03-27T10:16:50Z</time>
      </trkpt>
      <trkpt lat="47.20523" lon="-1.52284">
        <ele>51</ele>
        <time>2022-03-27T10:16:52Z</time>
      </trkpt>
      <trkpt lat="47.20526" lon="-1.52269">
        <ele>51</ele>
        <time>2022-03-27T10:16:54Z</time>
      </trkpt>
      <trkpt lat="47.20533" lon="-1.52252">
        <ele>51</ele>
        <time>2022-03-27T10:16:56Z</time>
      </trkpt>
      <trkpt lat="47.2054" lon="-1.52237">
        <ele>52</ele>
        <time>2022-03-27T10:16:58Z</time>
      </trkpt>
      <trkpt lat="47.20548" lon="-1.52222">
        <ele>52</ele>
        <time>2022-03-27T10:17:00Z</time>
      </trkpt>
      <trkpt lat="47.20555" lon="-1.52209">
        <ele>52</ele>
        <time>2022-03-27T10:17:02Z</time>
      </trkpt>
      <trkpt lat="47.20562" lon="-1.52196">
        <ele>52</ele>
        <time>2022-03-27T10:17:04Z</time>
      </trkpt>
      <trkpt lat="47.20569" lon="-1.52183">
        <ele>52</ele>
        <time>2022-03-27T10:17:06Z</time>
      </trkpt>
      <trkpt lat="47.20578" lon="-1.52169">
        <ele>53</ele>
        <time>2022-03-27T10:17:08Z</time>
      </trkpt>
      <trkpt lat="47.20587" lon="-1.52154">
        <ele>53</ele>
        <time>2022-03-27T10:17:10Z</time>
      </trkpt>
      <trkpt lat="47.20595" lon="-1.52137">
        <ele>53</ele>
        <time>2022-03-27T10:17:12Z</time>
      </trkpt>
      <trkpt lat="47.20603" lon="-1.52121">
        <ele>53</ele>
        <time>2022-03-27T10:17:14Z</time>
      </trkpt>
      <trkpt lat="47.20612" lon="-1.52106">
        <ele>53</ele>
        <time>2022-03-27T10:17:16Z</time>
      </trkpt>
      <trkpt lat="47.2062" lon="-1.5209">
        <ele>53</ele>
        <time>2022-03-27T10:17:18Z</time>
      </trkpt>
      <trkpt lat="47.20629" lon="-1.52075">
        <ele>52</ele>
        <time>2022-03-27T10:17:20Z</time>
      </trkpt>
      <trkpt lat="47.20638" lon="-1.52061">
        <ele>52</ele>
        <time>2022-03-27T10:17:22Z</time>
      </trkpt>
      <trkpt lat="47.20647" lon="-1.52048">
        <ele>52</ele>
        <time>2022-03-27T10:17:24Z</time>
      </trkpt>
      <trkpt lat="47.20656" lon="-1.52033">
        <ele>52</ele>
        <time>2022-03-27T10:17:26Z</time>
      </trkpt>
      <trkpt lat="47.20665" lon="-1.52019">
        <ele>53</ele>
        <time>2022-03-27T10:17:28Z</time>
      </trkpt>
      <trkpt lat="47.20674" lon="-1.52001">
        <ele>52</ele>
        <time>2022-03-27T10:17:30Z</time>
      </trkpt>
      <trkpt lat="47.20682" lon="-1.51985">
        <ele>52</ele>
        <time>2022-03-27T10:17:32Z</time>
      </trkpt>
      <trkpt lat="47.20691" lon="-1.51969">
        <ele>52</ele>
        <time>2022-03-27T10:17:34Z</time>
      </trkpt>
      <trkpt lat="47.207" lon="-1.51954">
        <ele>52</ele>
        <time>2022-03-27T10:17:36Z</time>
      </trkpt>
      <trkpt lat="47.20708" lon="-1.51937">
        <ele>52</ele>
        <time>2022-03-27T10:17:38Z</time>
      </trkpt>
      <trkpt lat="47.20716" lon="-1.5192">
        <ele>52</ele>
        <time>2022-03-27T10:17:40Z</time>
      </trkpt>
      <trkpt lat="47.20724" lon="-1.51902">
        <ele>51</ele>
        <time>2022-03-27T10:17:42Z</time>
      </trkpt>
      <trkpt lat="47.20732" lon="-1.51884">
        <ele>51</ele>
        <time>2022-03-27T10:17:44Z</time>
      </trkpt>
      <trkpt lat="47.20739" lon="-1.51867">
        <ele>51</ele>
        <time>2022-03-27T10:17:46Z</time>
      </trkpt>
      <trkpt lat="47.20747" lon="-1.5185">
        <ele>52</ele>
        <time>2022-03-27T10:17:48Z</time>
      </trkpt>
      <trkpt lat="47.20755" lon="-1.51833">
        <ele>52</ele>
        <time>2022-03-27T10:17:50Z</time>
      </trkpt>
      <trkpt lat="47.20759" lon="-1.51813">
        <ele>53</ele>
        <time>2022-03-27T10:17:52Z</time>
      </trkpt>
      <trkpt lat="47.20764" lon="-1.51792">
        <ele>53</ele>
        <time>2022-03-27T10:17:54Z</time>
      </trkpt>
      <trkpt lat="47.20767" lon="-1.51771">
        <ele>52</ele>
        <time>2022-03-27T10:17:56Z</time>
      </trkpt>
      <trkpt lat="47.20772" lon="-1.51751">
        <ele>52</ele>
        <time>2022-03-27T10:17:58Z</time>
      </trkpt>
      <trkpt lat="47.20778" lon="-1.51732">
        <ele>52</ele>
        <time>2022-03-27T10:18:00Z</time>
      </trkpt>
      <trkpt lat="47.20783" lon="-1.51713">
        <ele>52</ele>
        <time>2022-03-27T10:18:02Z</time>
      </trkpt>
      <trkpt lat="47.20786" lon="-1.51693">
        <ele>52</ele>
        <time>2022-03-27T10:18:04Z</time>
      </trkpt>
      <trkpt lat="47.20789" lon="-1.51673">
        <ele>52</ele>
        <time>2022-03-27T10:18:06Z</time>
      </trkpt>
      <trkpt lat="47.20792" lon="-1.51653">
        <ele>51</ele>
        <time>2022-03-27T10:18:08Z</time>
      </trkpt>
      <trkpt lat="47.20796" lon="-1.51634">
        <ele>52</ele>
        <time>2022-03-27T10:18:10Z</time>
      </trkpt>
      <trkpt lat="47.208" lon="-1.51615">
        <ele>51</ele>
        <time>2022-03-27T10:18:12Z</time>
      </trkpt>
      <trkpt lat="47.20802" lon="-1.51595">
        <ele>51</ele>
        <time>2022-03-27T10:18:14Z</time>
      </trkpt>
      <trkpt lat="47.20804" lon="-1.51574">
        <ele>52</ele>
        <time>2022-03-27T10:18:16Z</time>
      </trkpt>
      <trkpt lat="47.20806" lon="-1.51554">
        <ele>52</ele>
        <time>2022-03-27T10:18:18Z</time>
      </trkpt>
      <trkpt lat="47.20809" lon="-1.51534">
        <ele>52</ele>
        <time>2022-03-27T10:18:20Z</time>
      </trkpt>
      <trkpt lat="47.20812" lon="-1.51514">
        <ele>52</ele>
        <time>2022-03-27T10:18:22Z</time>
      </trkpt>
      <trkpt lat="47.20815" lon="-1.51495">
        <ele>52</ele>
        <time>2022-03-27T10:18:24Z</time>
      </trkpt>
      <trkpt lat="47.20819" lon="-1.51475">
        <ele>53</ele>
        <time>2022-03-27T10:18:26Z</time>
      </trkpt>
      <trkpt lat="47.20822" lon="-1.51456">
        <ele>53</ele>
        <time>2022-03-27T10:18:28Z</time>
      </trkpt>
      <trkpt lat="47.20825" lon="-1.51437">
        <ele>53</ele>
        <time>2022-03-27T10:18:30Z</time>
      </trkpt>
      <trkpt lat="47.20828" lon="-1.51418">
        <ele>53</ele>
        <time>2022-03-27T10:18:32Z</time>
      </trkpt>
      <trkpt lat="47.20832" lon="-1.51401">
        <ele>53</ele>
        <time>2022-03-27T10:18:34Z</time>
      </trkpt>
      <trkpt lat="47.20836" lon="-1.51384">
        <ele>53</ele>
        <time>2022-03-27T10:18:36Z</time>
      </trkpt>
      <trkpt lat="47.2084" lon="-1.51369">
        <ele>53</ele>
        <time>2022-03-27T10:18:38Z</time>
      </trkpt>
      <trkpt lat="47.20845" lon="-1.51351">
        <ele>53</ele>
        <time>2022-03-27T10:18:40Z</time>
      </trkpt>
      <trkpt lat="47.20851" lon="-1.51331">
        <ele>53</ele>
        <time>2022-03-27T10:18:42Z</time>
      </trkpt>
      <trkpt lat="47.20857" lon="-1.51313">
        <ele>52</ele>
        <time>2022-03-27T10:18:44Z</time>
      </trkpt>
      <trkpt lat="47.20865" lon="-1.51296">
        <ele>52</ele>
        <time>2022-03-27T10:18:46Z</time>
      </trkpt>
      <trkpt lat="47.20874" lon="-1.51279">
        <ele>52</ele>
        <time>2022-03-27T10:18:48Z</time>
      </trkpt>
      <trkpt lat="47.20881" lon="-1.51262">
        <ele>52</ele>
        <time>2022-03-27T10:18:50Z</time>
      </trkpt>
      <trkpt lat="47.20888" lon="-1.51244">
        <ele>51</ele>
        <time>2022-03-27T10:18:52Z</time>
      </trkpt>
      <trkpt lat="47.20894" lon="-1.51226">
        <ele>52</ele>
        <time>2022-03-27T10:18:54Z</time>
      </trkpt>
      <trkpt lat="47.20901" lon="-1.51208">
        <ele>52</ele>
        <time>2022-03-27T10:18:56Z</time>
      </trkpt>
      <trkpt lat="47.20907" lon="-1.51191">
        <ele>52</ele>
        <time>2022-03-27T10:18:58Z</time>
      </trkpt>
      <trkpt lat="47.20912" lon="-1.51174">
        <ele>52</ele>
        <time>2022-03-27T10:19:00Z</time>
      </trkpt>
      <trkpt lat="47.20918" lon="-1.51158">
        <ele>52</ele>
        <time>2022-03-27T10:19:02Z</time>
      </trkpt>
      <trkpt lat="47.20924" lon="-1.5114">
        <ele>52</ele>
        <time>2022-03-27T10:19:04Z</time>
      </trkpt>
      <trkpt lat="47.20929" lon="-1.51122">
        <ele>53</ele>
        <time>2022-03-27T10:19:06Z</time>
      </trkpt>
      <trkpt lat="47.20935" lon="-1.51105">
        <ele>53</ele>
        <time>2022-03-27T10:19:08Z</time>
      </trkpt>
      <trkpt lat="47.2094" lon="-1.51087">
        <ele>53</ele>
        <time>2022-03-27T10:19:10Z</time>
      </trkpt>
      <trkpt lat="47.20943" lon="-1.51069">
        <ele>53</ele>
        <time>2022-03-27T10:19:12Z</time>
      </trkpt>
      <trkpt lat="47.20946" lon="-1.5105">
        <ele>53</ele>
        <time>2022-03-27T10:19:14Z</time>
      </trkpt>
      <trkpt lat="47.20949" lon="-1.51031">
        <ele>53</ele>
        <time>2022-03-27T10:19:16Z</time>
      </trkpt>
      <trkpt lat="47.20954" lon="-1.51013">
        <ele>53</ele>
        <time>2022-03-27T10:19:18Z</time>
      </trkpt>
      <trkpt lat="47.2096" lon="-1.50997">
        <ele>53</ele>
        <time>2022-03-27T10:19:20Z</time>
      </trkpt>
      <trkpt lat="47.20964" lon="-1.5098">
        <ele>53</ele>
        <time>2022-03-27T10:19:22Z</time>
      </trkpt>
      <trkpt lat="47.20965" lon="-1.50963">
        <ele>52</ele>
        <time>2022-03-27T10:19:24Z</time>
      </trkpt>
      <trkpt lat="47.20967" lon="-1.50945">
        <ele>52</ele>
        <time>2022-03-27T10:19:26Z</time>
      </trkpt>
      <trkpt lat="47.20966" lon="-1.50923">
        <ele>52</ele>
        <time>2022-03-27T10:19:28Z</time>
      </trkpt>
      <trkpt lat="47.20966" lon="-1.509">
        <ele>52</ele>
        <time>2022-03-27T10:19:30Z</time>
      </trkpt>
      <trkpt lat="47.20969" lon="-1.50878">
        <ele>52</ele>
        <time>2022-03-27T10:19:32Z</time>
      </trkpt>
      <trkpt lat="47.20972" lon="-1.50855">
        <ele>52</ele>
        <time>2022-03-27T10:19:34Z</time>
      </trkpt>
      <trkpt lat="47.20975" lon="-1.50831">
        <ele>52</ele>
        <time>2022-03-27T10:19:36Z</time>
      </trkpt>
      <trkpt lat="47.20978" lon="-1.50808">
        <ele>52</ele>
        <time>2022-03-27T10:19:38Z</time>
      </trkpt>
      <trkpt lat="47.2098" lon="-1.50785">
        <ele>52</ele>
        <time>2022-03-27T10:19:40Z</time>
      </trkpt>
      <trkpt lat="47.20982" lon="-1.50761">
        <ele>52</ele>
        <time>2022-03-27T10:19:42Z</time>
      </trkpt>
      <trkpt lat="47.20985" lon="-1.50739">
        <ele>52</ele>
        <time>2022-03-27T10:19:44Z</time>
      </trkpt>
      <trkpt lat="47.20986" lon="-1.50716">
        <ele>52</ele>
        <time>2022-03-27T10:19:46Z</time>
      </trkpt>
      <trkpt lat="47.20987" lon="-1.50694">
        <ele>52</ele>
        <time>2022-03-27T10:19:48Z</time>
      </trkpt>
      <trkpt lat="47.20988" lon="-1.50671">
        <ele>52</ele>
        <time>2022-03-27T10:19:50Z</time>
      </trkpt>
      <trkpt lat="47.2099" lon="-1.50649">
        <ele>52</ele>
        <time>2022-03-27T10:19:52Z</time>
      </trkpt>
      <trkpt lat="47.20991" lon="-1.50627">
        <ele>52</ele>
        <time>2022-03-27T10:19:54Z</time>
      </trkpt>
      <trkpt lat="47.20992" lon="-1.50606">
        <ele>51</ele>
        <time>2022-03-27T10:19:56Z</time>
      </trkpt>
      <trkpt lat="47.20993" lon="-1.50584">
        <ele>52</ele>
        <time>2022-03-27T10:19:58Z</time>
      </trkpt>
      <trkpt lat="47.20993" lon="-1.50562">
        <ele>52</ele>
        <time>2022-03-27T10:20:00Z</time>
      </trkpt>
      <trkpt lat="47.20993" lon="-1.50541">
        <ele>52</ele>
        <time>2022-03-27T10:20:02Z</time>
      </trkpt>
      <trkpt lat="47.20992" lon="-1.50519">
        <ele>52</ele>
        <time>2022-03-27T10:20:04Z</time>
      </trkpt>
      <trkpt lat="47.20991" lon="-1.50498">
        <ele>52</ele>
        <time>2022-03-27T10:20:06Z</time>
      </trkpt>
      <trkpt lat="47.20991" lon="-1.50478">
        <ele>52</ele>
        <time>2022-03-27T10:20:08Z</time>
      </trkpt>
      <trkpt lat="47.2099" lon="-1.50459">
        <ele>52</ele>
        <time>2022-03-27T10:20:10Z</time>
      </trkpt>
      <trkpt lat="47.2099" lon="-1.5044">
        <ele>52</ele>
        <time>2022-03-27T10:20:12Z</time>
      </trkpt>
      <trkpt lat="47.20989" lon="-1.50421">
        <ele>51</ele>
        <time>2022-03-27T10:20:14Z</time>
      </trkpt>
      <trkpt lat="47.2099" lon="-1.50406">
        <ele>51</ele>
        <time>2022-03-27T10:20:16Z</time>
      </trkpt>
      <trkpt lat="47.20989" lon="-1.50392">
        <ele>51</ele>
        <time>2022-03-27T10:20:18Z</time>
      </trkpt>
      <trkpt lat="47.20989" lon="-1.50377">
        <ele>51</ele>
        <time>2022-03-27T10:20:20Z</time>
      </trkpt>
      <trkpt lat="47.2099" lon="-1.5036">
        <ele>52</ele>
        <time>2022-03-27T10:20:22Z</time>
      </trkpt>
      <trkpt lat="47.20989" lon="-1.50345">
        <ele>52</ele>
        <time>2022-03-27T10:20:24Z</time>
      </trkpt>
      <trkpt lat="47.2099" lon="-1.50328">
        <ele>52</ele>
        <time>2022-03-27T10:20:26Z</time>
      </trkpt>
      <trkpt lat="47.20991" lon="-1.5031">
        <ele>52</ele>
        <time>2022-03-27T10:20:28Z</time>
      </trkpt>
      <trkpt lat="47.20992" lon="-1.50294">
        <ele>52</ele>
        <time>2022-03-27T10:20:30Z</time>
      </trkpt>
      <trkpt lat="47.20994" lon="-1.50281">
        <ele>52</ele>
        <time>2022-03-27T10:20:32Z</time>
      </trkpt>
      <trkpt lat="47.20996" lon="-1.50262">
        <ele>52</ele>
        <time>2022-03-27T10:20:35Z</time>
      </trkpt>
      <trkpt lat="47.20997" lon="-1.50249">
        <ele>52</ele>
        <time>2022-03-27T10:20:37Z</time>
      </trkpt>
      <trkpt lat="47.20995" lon="-1.50233">
        <ele>52</ele>
        <time>2022-03-27T10:20:39Z</time>
      </trkpt>
      <trkpt lat="47.20998" lon="-1.50215">
        <ele>52</ele>
        <time>2022-03-27T10:20:42Z</time>
      </trkpt>
      <trkpt lat="47.21009" lon="-1.50208">
        <ele>52</ele>
        <time>2022-03-27T10:20:45Z</time>
      </trkpt>
      <trkpt lat="47.21013" lon="-1.50189">
        <ele>52</ele>
        <time>2022-03-27T10:20:48Z</time>
      </trkpt>
      <trkpt lat="47.21017" lon="-1.50172">
        <ele>52</ele>
        <time>2022-03-27T10:20:50Z</time>
      </trkpt>
      <trkpt lat="47.21021" lon="-1.50154">
        <ele>52</ele>
        <time>2022-03-27T10:20:52Z</time>
      </trkpt>
      <trkpt lat="47.21025" lon="-1.50136">
        <ele>52</ele>
        <time>2022-03-27T10:20:54Z</time>
      </trkpt>
      <trkpt lat="47.2103" lon="-1.50119">
        <ele>52</ele>
        <time>2022-03-27T10:20:56Z</time>
      </trkpt>
      <trkpt lat="47.21034" lon="-1.50099">
        <ele>53</ele>
        <time>2022-03-27T10:20:58Z</time>
      </trkpt>
      <trkpt lat="47.21038" lon="-1.50077">
        <ele>53</ele>
        <time>2022-03-27T10:21:00Z</time>
      </trkpt>
      <trkpt lat="47.21044" lon="-1.50055">
        <ele>53</ele>
        <time>2022-03-27T10:21:02Z</time>
      </trkpt>
      <trkpt lat="47.2105" lon="-1.50032">
        <ele>53</ele>
        <time>2022-03-27T10:21:04Z</time>
      </trkpt>
      <trkpt lat="47.21055" lon="-1.5001">
        <ele>53</ele>
        <time>2022-03-27T10:21:06Z</time>
      </trkpt>
      <trkpt lat="47.21061" lon="-1.49989">
        <ele>53</ele>
        <time>2022-03-27T10:21:08Z</time>
      </trkpt>
      <trkpt lat="47.21067" lon="-1.49968">
        <ele>53</ele>
        <time>2022-03-27T10:21:10Z</time>
      </trkpt>
      <trkpt lat="47.21072" lon="-1.49947">
        <ele>53</ele>
        <time>2022-03-27T10:21:12Z</time>
      </trkpt>
      <trkpt lat="47.21077" lon="-1.49927">
        <ele>53</ele>
        <time>2022-03-27T10:21:14Z</time>
      </trkpt>
      <trkpt lat="47.21083" lon="-1.49907">
        <ele>53</ele>
        <time>2022-03-27T10:21:16Z</time>
      </trkpt>
      <trkpt lat="47.2109" lon="-1.49888">
        <ele>53</ele>
        <time>2022-03-27T10:21:18Z</time>
      </trkpt>
      <trkpt lat="47.21095" lon="-1.49869">
        <ele>53</ele>
        <time>2022-03-27T10:21:20Z</time>
      </trkpt>
      <trkpt lat="47.21097" lon="-1.49848">
        <ele>53</ele>
        <time>2022-03-27T10:21:22Z</time>
      </trkpt>
      <trkpt lat="47.21101" lon="-1.49828">
        <ele>52</ele>
        <time>2022-03-27T10:21:24Z</time>
      </trkpt>
      <trkpt lat="47.21104" lon="-1.49808">
        <ele>52</ele>
        <time>2022-03-27T10:21:26Z</time>
      </trkpt>
      <trkpt lat="47.21107" lon="-1.49787">
        <ele>52</ele>
        <time>2022-03-27T10:21:28Z</time>
      </trkpt>
      <trkpt lat="47.21109" lon="-1.49767">
        <ele>52</ele>
        <time>2022-03-27T10:21:30Z</time>
      </trkpt>
      <trkpt lat="47.21111" lon="-1.49747">
        <ele>52</ele>
        <time>2022-03-27T10:21:32Z</time>
      </trkpt>
      <trkpt lat="47.21113" lon="-1.49726">
        <ele>52</ele>
        <time>2022-03-27T10:21:34Z</time>
      </trkpt>
      <trkpt lat="47.21114" lon="-1.49706">
        <ele>52</ele>
        <time>2022-03-27T10:21:36Z</time>
      </trkpt>
      <trkpt lat="47.21116" lon="-1.49686">
        <ele>52</ele>
        <time>2022-03-27T10:21:38Z</time>
      </trkpt>
      <trkpt lat="47.21117" lon="-1.49665">
        <ele>52</ele>
        <time>2022-03-27T10:21:40Z</time>
      </trkpt>
      <trkpt lat="47.21118" lon="-1.49645">
        <ele>52</ele>
        <time>2022-03-27T10:21:42Z</time>
      </trkpt>
      <trkpt lat="47.2112" lon="-1.49625">
        <ele>52</ele>
        <time>2022-03-27T10:21:44Z</time>
      </trkpt>
      <trkpt lat="47.21122" lon="-1.49606">
        <ele>52</ele>
        <time>2022-03-27T10:21:46Z</time>
      </trkpt>
      <trkpt lat="47.21131" lon="-1.49592">
        <ele>52</ele>
        <time>2022-03-27T10:21:48Z</time>
      </trkpt>
      <trkpt lat="47.21134" lon="-1.49573">
        <ele>52</ele>
        <time>2022-03-27T10:21:50Z</time>
      </trkpt>
      <trkpt lat="47.2113" lon="-1.49557">
        <ele>52</ele>
        <time>2022-03-27T10:21:52Z</time>
      </trkpt>
      <trkpt lat="47.21124" lon="-1.49529">
        <ele>52</ele>
        <time>2022-03-27T10:21:55Z</time>
      </trkpt>
      <trkpt lat="47.21124" lon="-1.49508">
        <ele>52</ele>
        <time>2022-03-27T10:21:57Z</time>
      </trkpt>
      <trkpt lat="47.21124" lon="-1.49488">
        <ele>52</ele>
        <time>2022-03-27T10:21:59Z</time>
      </trkpt>
      <trkpt lat="47.21125" lon="-1.49468">
        <ele>52</ele>
        <time>2022-03-27T10:22:01Z</time>
      </trkpt>
      <trkpt lat="47.21125" lon="-1.49447">
        <ele>52</ele>
        <time>2022-03-27T10:22:03Z</time>
      </trkpt>
      <trkpt lat="47.21126" lon="-1.49426">
        <ele>52</ele>
        <time>2022-03-27T10:22:05Z</time>
      </trkpt>
      <trkpt lat="47.21127" lon="-1.49406">
        <ele>52</ele>
        <time>2022-03-27T10:22:07Z</time>
      </trkpt>
      <trkpt lat="47.21128" lon="-1.49385">
        <ele>52</ele>
        <time>2022-03-27T10:22:09Z</time>
      </trkpt>
      <trkpt lat="47.21129" lon="-1.49364">
        <ele>52</ele>
        <time>2022-03-27T10:22:11Z</time>
      </trkpt>
      <trkpt lat="47.2113" lon="-1.49344">
        <ele>52</ele>
        <time>2022-03-27T10:22:13Z</time>
      </trkpt>
      <trkpt lat="47.21131" lon="-1.49324">
        <ele>52</ele>
        <time>2022-03-27T10:22:15Z</time>
      </trkpt>
      <trkpt lat="47.21132" lon="-1.49303">
        <ele>51</ele>
        <time>2022-03-27T10:22:17Z</time>
      </trkpt>
      <trkpt lat="47.21132" lon="-1.49283">
        <ele>52</ele>
        <time>2022-03-27T10:22:19Z</time>
      </trkpt>
      <trkpt lat="47.21133" lon="-1.49263">
        <ele>52</ele>
        <time>2022-03-27T10:22:21Z</time>
      </trkpt>
      <trkpt lat="47.21134" lon="-1.49242">
        <ele>52</ele>
        <time>2022-03-27T10:22:23Z</time>
      </trkpt>
      <trkpt lat="47.21136" lon="-1.49221">
        <ele>52</ele>
        <time>2022-03-27T10:22:25Z</time>
      </trkpt>
      <trkpt lat="47.21138" lon="-1.49199">
        <ele>52</ele>
        <time>2022-03-27T10:22:27Z</time>
      </trkpt>
      <trkpt lat="47.2114" lon="-1.49178">
        <ele>52</ele>
        <time>2022-03-27T10:22:29Z</time>
      </trkpt>
      <trkpt lat="47.21143" lon="-1.49158">
        <ele>52</ele>
        <time>2022-03-27T10:22:31Z</time>
      </trkpt>
      <trkpt lat="47.21146" lon="-1.49138">
        <ele>52</ele>
        <time>2022-03-27T10:22:33Z</time>
      </trkpt>
      <trkpt lat="47.21149" lon="-1.49119">
        <ele>52</ele>
        <time>2022-03-27T10:22:35Z</time>
      </trkpt>
      <trkpt lat="47.21153" lon="-1.49101">
        <ele>52</ele>
        <time>2022-03-27T10:22:37Z</time>
      </trkpt>
      <trkpt lat="47.21159" lon="-1.49084">
        <ele>52</ele>
        <time>2022-03-27T10:22:39Z</time>
      </trkpt>
      <trkpt lat="47.21154" lon="-1.49056">
        <ele>52</ele>
        <time>2022-03-27T10:22:42Z</time>
      </trkpt>
      <trkpt lat="47.21152" lon="-1.49027">
        <ele>53</ele>
        <time>2022-03-27T10:22:45Z</time>
      </trkpt>
      <trkpt lat="47.21155" lon="-1.49007">
        <ele>53</ele>
        <time>2022-03-27T10:22:47Z</time>
      </trkpt>
      <trkpt lat="47.21162" lon="-1.48977">
        <ele>53</ele>
        <time>2022-03-27T10:22:50Z</time>
      </trkpt>
      <trkpt lat="47.21166" lon="-1.48957">
        <ele>53</ele>
        <time>2022-03-27T10:22:52Z</time>
      </trkpt>
      <trkpt lat="47.21169" lon="-1.48936">
        <ele>53</ele>
        <time>2022-03-27T10:22:54Z</time>
      </trkpt>
      <trkpt lat="47.21173" lon="-1.48916">
        <ele>53</ele>
        <time>2022-03-27T10:22:56Z</time>
      </trkpt>
      <trkpt lat="47.21178" lon="-1.48897">
        <ele>53</ele>
        <time>2022-03-27T10:22:58Z</time>
      </trkpt>
      <trkpt lat="47.21182" lon="-1.48877">
        <ele>53</ele>
        <time>2022-03-27T10:23:00Z</time>
      </trkpt>
      <trkpt lat="47.21185" lon="-1.48856">
        <ele>53</ele>
        <time>2022-03-27T10:23:02Z</time>
      </trkpt>
      <trkpt lat="47.21188" lon="-1.48835">
        <ele>53</ele>
        <time>2022-03-27T10:23:04Z</time>
      </trkpt>
      <trkpt lat="47.21192" lon="-1.48814">
        <ele>53</ele>
        <time>2022-03-27T10:23:06Z</time>
      </trkpt>
      <trkpt lat="47.21196" lon="-1.48794">
        <ele>53</ele>
        <time>2022-03-27T10:23:08Z</time>
      </trkpt>
      <trkpt lat="47.21201" lon="-1.48774">
        <ele>52</ele>
        <time>2022-03-27T10:23:10Z</time>
      </trkpt>
      <trkpt lat="47.21205" lon="-1.48753">
        <ele>52</ele>
        <time>2022-03-27T10:23:12Z</time>
      </trkpt>
      <trkpt lat="47.2121" lon="-1.48734">
        <ele>52</ele>
        <time>2022-03-27T10:23:14Z</time>
      </trkpt>
      <trkpt lat="47.21215" lon="-1.48714">
        <ele>51</ele>
        <time>2022-03-27T10:23:16Z</time>
      </trkpt>
      <trkpt lat="47.2122" lon="-1.48694">
        <ele>51</ele>
        <time>2022-03-27T10:23:18Z</time>
      </trkpt>
      <trkpt lat="47.21225" lon="-1.48676">
        <ele>50</ele>
        <time>2022-03-27T10:23:20Z</time>
      </trkpt>
      <trkpt lat="47.2123" lon="-1.48657">
        <ele>50</ele>
        <time>2022-03-27T10:23:22Z</time>
      </trkpt>
      <trkpt lat="47.21236" lon="-1.48638">
        <ele>51</ele>
        <time>2022-03-27T10:23:24Z</time>
      </trkpt>
      <trkpt lat="47.21241" lon="-1.48619">
        <ele>52</ele>
        <time>2022-03-27T10:23:26Z</time>
      </trkpt>
      <trkpt lat="47.21246" lon="-1.48601">
        <ele>52</ele>
        <time>2022-03-27T10:23:28Z</time>
      </trkpt>
      <trkpt lat="47.21251" lon="-1.48581">
        <ele>52</ele>
        <time>2022-03-27T10:23:30Z</time>
      </trkpt>
      <trkpt lat="47.21255" lon="-1.48563">
        <ele>52</ele>
        <time>2022-03-27T10:23:32Z</time>
      </trkpt>
      <trkpt lat="47.2126" lon="-1.48545">
        <ele>52</ele>
        <time>2022-03-27T10:23:34Z</time>
      </trkpt>
      <trkpt lat="47.21265" lon="-1.48528">
        <ele>53</ele>
        <time>2022-03-27T10:23:36Z</time>
      </trkpt>
      <trkpt lat="47.21276" lon="-1.48516">
        <ele>53</ele>
        <time>2022-03-27T10:23:38Z</time>
      </trkpt>
      <trkpt lat="47.21288" lon="-1.48511">
        <ele>53</ele>
        <time>2022-03-27T10:23:40Z</time>
      </trkpt>
      <trkpt lat="47.21294" lon="-1.48494">
        <ele>52</ele>
        <time>2022-03-27T10:23:42Z</time>
      </trkpt>
      <trkpt lat="47.21297" lon="-1.48474">
        <ele>52</ele>
        <time>2022-03-27T10:23:44Z</time>
      </trkpt>
      <trkpt lat="47.213" lon="-1.48455">
        <ele>52</ele>
        <time>2022-03-27T10:23:46Z</time>
      </trkpt>
      <trkpt lat="47.21305" lon="-1.48437">
        <ele>52</ele>
        <time>2022-03-27T10:23:48Z</time>
      </trkpt>
      <trkpt lat="47.2131" lon="-1.48418">
        <ele>52</ele>
        <time>2022-03-27T10:23:50Z</time>
      </trkpt>
      <trkpt lat="47.21315" lon="-1.484">
        <ele>51</ele>
        <time>2022-03-27T10:23:52Z</time>
      </trkpt>
      <trkpt lat="47.21321" lon="-1.48382">
        <ele>51</ele>
        <time>2022-03-27T10:23:54Z</time>
      </trkpt>
      <trkpt lat="47.21326" lon="-1.48364">
        <ele>51</ele>
        <time>2022-03-27T10:23:56Z</time>
      </trkpt>
      <trkpt lat="47.21332" lon="-1.48346">
        <ele>51</ele>
        <time>2022-03-27T10:23:58Z</time>
      </trkpt>
      <trkpt lat="47.21338" lon="-1.48329">
        <ele>51</ele>
        <time>2022-03-27T10:24:00Z</time>
      </trkpt>
      <trkpt lat="47.21344" lon="-1.48312">
        <ele>51</ele>
        <time>2022-03-27T10:24:02Z</time>
      </trkpt>
      <trkpt lat="47.2135" lon="-1.48294">
        <ele>51</ele>
        <time>2022-03-27T10:24:04Z</time>
      </trkpt>
      <trkpt lat="47.21356" lon="-1.48277">
        <ele>51</ele>
        <time>2022-03-27T10:24:06Z</time>
      </trkpt>
      <trkpt lat="47.21362" lon="-1.48259">
        <ele>51</ele>
        <time>2022-03-27T10:24:08Z</time>
      </trkpt>
      <trkpt lat="47.21368" lon="-1.48241">
        <ele>51</ele>
        <time>2022-03-27T10:24:10Z</time>
      </trkpt>
      <trkpt lat="47.21374" lon="-1.48225">
        <ele>51</ele>
        <time>2022-03-27T10:24:12Z</time>
      </trkpt>
      <trkpt lat="47.2138" lon="-1.48208">
        <ele>51</ele>
        <time>2022-03-27T10:24:14Z</time>
      </trkpt>
      <trkpt lat="47.21387" lon="-1.48191">
        <ele>51</ele>
        <time>2022-03-27T10:24:16Z</time>
      </trkpt>
      <trkpt lat="47.21394" lon="-1.48176">
        <ele>51</ele>
        <time>2022-03-27T10:24:18Z</time>
      </trkpt>
      <trkpt lat="47.21402" lon="-1.4816">
        <ele>51</ele>
        <time>2022-03-27T10:24:20Z</time>
      </trkpt>
      <trkpt lat="47.2141" lon="-1.48145">
        <ele>51</ele>
        <time>2022-03-27T10:24:22Z</time>
      </trkpt>
      <trkpt lat="47.21418" lon="-1.4813">
        <ele>51</ele>
        <time>2022-03-27T10:24:24Z</time>
      </trkpt>
      <trkpt lat="47.21427" lon="-1.48114">
        <ele>51</ele>
        <time>2022-03-27T10:24:26Z</time>
      </trkpt>
      <trkpt lat="47.21435" lon="-1.48099">
        <ele>51</ele>
        <time>2022-03-27T10:24:28Z</time>
      </trkpt>
      <trkpt lat="47.21444" lon="-1.48085">
        <ele>51</ele>
        <time>2022-03-27T10:24:30Z</time>
      </trkpt>
      <trkpt lat="47.21453" lon="-1.4807">
        <ele>51</ele>
        <time>2022-03-27T10:24:32Z</time>
      </trkpt>
      <trkpt lat="47.21463" lon="-1.48056">
        <ele>51</ele>
        <time>2022-03-27T10:24:34Z</time>
      </trkpt>
      <trkpt lat="47.21473" lon="-1.48043">
        <ele>51</ele>
        <time>2022-03-27T10:24:36Z</time>
      </trkpt>
      <trkpt lat="47.21485" lon="-1.4803">
        <ele>51</ele>
        <time>2022-03-27T10:24:38Z</time>
      </trkpt>
      <trkpt lat="47.21496" lon="-1.48017">
        <ele>51</ele>
        <time>2022-03-27T10:24:40Z</time>
      </trkpt>
      <trkpt lat="47.21506" lon="-1.48004">
        <ele>51</ele>
        <time>2022-03-27T10:24:42Z</time>
      </trkpt>
      <trkpt lat="47.21516" lon="-1.47993">
        <ele>52</ele>
        <time>2022-03-27T10:24:44Z</time>
      </trkpt>
      <trkpt lat="47.21526" lon="-1.47981">
        <ele>53</ele>
        <time>2022-03-27T10:24:46Z</time>
      </trkpt>
      <trkpt lat="47.21538" lon="-1.47969">
        <ele>53</ele>
        <time>2022-03-27T10:24:48Z</time>
      </trkpt>
      <trkpt lat="47.2155" lon="-1.47957">
        <ele>54</ele>
        <time>2022-03-27T10:24:50Z</time>
      </trkpt>
      <trkpt lat="47.21562" lon="-1.47945">
        <ele>54</ele>
        <time>2022-03-27T10:24:52Z</time>
      </trkpt>
      <trkpt lat="47.21574" lon="-1.47933">
        <ele>54</ele>
        <time>2022-03-27T10:24:54Z</time>
      </trkpt>
      <trkpt lat="47.21585" lon="-1.47923">
        <ele>54</ele>
        <time>2022-03-27T10:24:56Z</time>
      </trkpt>
      <trkpt lat="47.21596" lon="-1.47913">
        <ele>54</ele>
        <time>2022-03-27T10:24:58Z</time>
      </trkpt>
      <trkpt lat="47.21608" lon="-1.47902">
        <ele>54</ele>
        <time>2022-03-27T10:25:00Z</time>
      </trkpt>
      <trkpt lat="47.21619" lon="-1.47892">
        <ele>54</ele>
        <time>2022-03-27T10:25:02Z</time>
      </trkpt>
      <trkpt lat="47.2163" lon="-1.47882">
        <ele>54</ele>
        <time>2022-03-27T10:25:04Z</time>
      </trkpt>
      <trkpt lat="47.21641" lon="-1.47872">
        <ele>53</ele>
        <time>2022-03-27T10:25:06Z</time>
      </trkpt>
      <trkpt lat="47.21653" lon="-1.47862">
        <ele>54</ele>
        <time>2022-03-27T10:25:08Z</time>
      </trkpt>
      <trkpt lat="47.21664" lon="-1.47852">
        <ele>54</ele>
        <time>2022-03-27T10:25:10Z</time>
      </trkpt>
      <trkpt lat="47.21675" lon="-1.47841">
        <ele>54</ele>
        <time>2022-03-27T10:25:12Z</time>
      </trkpt>
      <trkpt lat="47.21687" lon="-1.47831">
        <ele>55</ele>
        <time>2022-03-27T10:25:14Z</time>
      </trkpt>
      <trkpt lat="47.21698" lon="-1.47821">
        <ele>55</ele>
        <time>2022-03-27T10:25:16Z</time>
      </trkpt>
      <trkpt lat="47.21709" lon="-1.4781">
        <ele>54</ele>
        <time>2022-03-27T10:25:18Z</time>
      </trkpt>
      <trkpt lat="47.2172" lon="-1.47799">
        <ele>54</ele>
        <time>2022-03-27T10:25:20Z</time>
      </trkpt>
      <trkpt lat="47.21731" lon="-1.47789">
        <ele>55</ele>
        <time>2022-03-27T10:25:22Z</time>
      </trkpt>
      <trkpt lat="47.21741" lon="-1.4778">
        <ele>55</ele>
        <time>2022-03-27T10:25:24Z</time>
      </trkpt>
      <trkpt lat="47.21751" lon="-1.47772">
        <ele>55</ele>
        <time>2022-03-27T10:25:26Z</time>
      </trkpt>
      <trkpt lat="47.21761" lon="-1.47762">
        <ele>55</ele>
        <time>2022-03-27T10:25:28Z</time>
      </trkpt>
      <trkpt lat="47.21773" lon="-1.47752">
        <ele>55</ele>
        <time>2022-03-27T10:25:30Z</time>
      </trkpt>
      <trkpt lat="47.21784" lon="-1.47742">
        <ele>55</ele>
        <time>2022-03-27T10:25:32Z</time>
      </trkpt>
      <trkpt lat="47.21796" lon="-1.47734">
        <ele>55</ele>
        <time>2022-03-27T10:25:34Z</time>
      </trkpt>
      <trkpt lat="47.21807" lon="-1.47725">
        <ele>55</ele>
        <time>2022-03-27T10:25:36Z</time>
      </trkpt>
      <trkpt lat="47.21819" lon="-1.47717">
        <ele>55</ele>
        <time>2022-03-27T10:25:38Z</time>
      </trkpt>
      <trkpt lat="47.21831" lon="-1.47707">
        <ele>55</ele>
        <time>2022-03-27T10:25:40Z</time>
      </trkpt>
      <trkpt lat="47.21842" lon="-1.47697">
        <ele>55</ele>
        <time>2022-03-27T10:25:42Z</time>
      </trkpt>
      <trkpt lat="47.21854" lon="-1.47688">
        <ele>54</ele>
        <time>2022-03-27T10:25:44Z</time>
      </trkpt>
      <trkpt lat="47.21866" lon="-1.47676">
        <ele>53</ele>
        <time>2022-03-27T10:25:46Z</time>
      </trkpt>
      <trkpt lat="47.21877" lon="-1.47664">
        <ele>53</ele>
        <time>2022-03-27T10:25:48Z</time>
      </trkpt>
      <trkpt lat="47.21889" lon="-1.47654">
        <ele>53</ele>
        <time>2022-03-27T10:25:50Z</time>
      </trkpt>
      <trkpt lat="47.219" lon="-1.47644">
        <ele>53</ele>
        <time>2022-03-27T10:25:52Z</time>
      </trkpt>
      <trkpt lat="47.21911" lon="-1.47633">
        <ele>53</ele>
        <time>2022-03-27T10:25:54Z</time>
      </trkpt>
      <trkpt lat="47.21922" lon="-1.47623">
        <ele>53</ele>
        <time>2022-03-27T10:25:56Z</time>
      </trkpt>
      <trkpt lat="47.21933" lon="-1.47613">
        <ele>53</ele>
        <time>2022-03-27T10:25:58Z</time>
      </trkpt>
      <trkpt lat="47.21945" lon="-1.47602">
        <ele>53</ele>
        <time>2022-03-27T10:26:00Z</time>
      </trkpt>
      <trkpt lat="47.21956" lon="-1.47592">
        <ele>53</ele>
        <time>2022-03-27T10:26:02Z</time>
      </trkpt>
      <trkpt lat="47.21968" lon="-1.47582">
        <ele>53</ele>
        <time>2022-03-27T10:26:04Z</time>
      </trkpt>
      <trkpt lat="47.21979" lon="-1.47571">
        <ele>53</ele>
        <time>2022-03-27T10:26:06Z</time>
      </trkpt>
      <trkpt lat="47.2199" lon="-1.47561">
        <ele>53</ele>
        <time>2022-03-27T10:26:08Z</time>
      </trkpt>
      <trkpt lat="47.22002" lon="-1.47551">
        <ele>54</ele>
        <time>2022-03-27T10:26:10Z</time>
      </trkpt>
      <trkpt lat="47.22013" lon="-1.47541">
        <ele>54</ele>
        <time>2022-03-27T10:26:12Z</time>
      </trkpt>
      <trkpt lat="47.22024" lon="-1.4753">
        <ele>54</ele>
        <time>2022-03-27T10:26:14Z</time>
      </trkpt>
      <trkpt lat="47.22035" lon="-1.4752">
        <ele>54</ele>
        <time>2022-03-27T10:26:16Z</time>
      </trkpt>
      <trkpt lat="47.22047" lon="-1.47509">
        <ele>54</ele>
        <time>2022-03-27T10:26:18Z</time>
      </trkpt>
      <trkpt lat="47.22058" lon="-1.47498">
        <ele>54</ele>
        <time>2022-03-27T10:26:20Z</time>
      </trkpt>
      <trkpt lat="47.22069" lon="-1.47488">
        <ele>54</ele>
        <time>2022-03-27T10:26:22Z</time>
      </trkpt>
      <trkpt lat="47.22081" lon="-1.47478">
        <ele>54</ele>
        <time>2022-03-27T10:26:24Z</time>
      </trkpt>
      <trkpt lat="47.22092" lon="-1.47468">
        <ele>53</ele>
        <time>2022-03-27T10:26:26Z</time>
      </trkpt>
      <trkpt lat="47.22104" lon="-1.47458">
        <ele>53</ele>
        <time>2022-03-27T10:26:28Z</time>
      </trkpt>
      <trkpt lat="47.22115" lon="-1.47449">
        <ele>53</ele>
        <time>2022-03-27T10:26:30Z</time>
      </trkpt>
      <trkpt lat="47.22127" lon="-1.4744">
        <ele>53</ele>
        <time>2022-03-27T10:26:32Z</time>
      </trkpt>
      <trkpt lat="47.22138" lon="-1.4743">
        <ele>53</ele>
        <time>2022-03-27T10:26:34Z</time>
      </trkpt>
      <trkpt lat="47.2215" lon="-1.4742">
        <ele>54</ele>
        <time>2022-03-27T10:26:36Z</time>
      </trkpt>
      <trkpt lat="47.22161" lon="-1.47411">
        <ele>54</ele>
        <time>2022-03-27T10:26:38Z</time>
      </trkpt>
      <trkpt lat="47.22172" lon="-1.47401">
        <ele>53</ele>
        <time>2022-03-27T10:26:40Z</time>
      </trkpt>
      <trkpt lat="47.22184" lon="-1.47391">
        <ele>53</ele>
        <time>2022-03-27T10:26:42Z</time>
      </trkpt>
      <trkpt lat="47.22196" lon="-1.47381">
        <ele>54</ele>
        <time>2022-03-27T10:26:44Z</time>
      </trkpt>
      <trkpt lat="47.22208" lon="-1.47372">
        <ele>54</ele>
        <time>2022-03-27T10:26:46Z</time>
      </trkpt>
      <trkpt lat="47.22219" lon="-1.47364">
        <ele>53</ele>
        <time>2022-03-27T10:26:48Z</time>
      </trkpt>
      <trkpt lat="47.22232" lon="-1.47356">
        <ele>53</ele>
        <time>2022-03-27T10:26:50Z</time>
      </trkpt>
      <trkpt lat="47.22244" lon="-1.47348">
        <ele>53</ele>
        <time>2022-03-27T10:26:52Z</time>
      </trkpt>
      <trkpt lat="47.22256" lon="-1.4734">
        <ele>53</ele>
        <time>2022-03-27T10:26:54Z</time>
      </trkpt>
      <trkpt lat="47.22268" lon="-1.47332">
        <ele>53</ele>
        <time>2022-03-27T10:26:56Z</time>
      </trkpt>
      <trkpt lat="47.2228" lon="-1.47322">
        <ele>53</ele>
        <time>2022-03-27T10:26:58Z</time>
      </trkpt>
      <trkpt lat="47.22291" lon="-1.47312">
        <ele>53</ele>
        <time>2022-03-27T10:27:00Z</time>
      </trkpt>
      <trkpt lat="47.22303" lon="-1.47302">
        <ele>53</ele>
        <time>2022-03-27T10:27:02Z</time>
      </trkpt>
      <trkpt lat="47.22314" lon="-1.47293">
        <ele>53</ele>
        <time>2022-03-27T10:27:04Z</time>
      </trkpt>
      <trkpt lat="47.22326" lon="-1.47283">
        <ele>53</ele>
        <time>2022-03-27T10:27:06Z</time>
      </trkpt>
      <trkpt lat="47.22337" lon="-1.47273">
        <ele>53</ele>
        <time>2022-03-27T10:27:08Z</time>
      </trkpt>
      <trkpt lat="47.22349" lon="-1.47264">
        <ele>53</ele>
        <time>2022-03-27T10:27:10Z</time>
      </trkpt>
      <trkpt lat="47.2236" lon="-1.47254">
        <ele>53</ele>
        <time>2022-03-27T10:27:12Z</time>
      </trkpt>
      <trkpt lat="47.22371" lon="-1.47244">
        <ele>53</ele>
        <time>2022-03-27T10:27:14Z</time>
      </trkpt>
      <trkpt lat="47.22381" lon="-1.47234">
        <ele>53</ele>
        <time>2022-03-27T10:27:16Z</time>
      </trkpt>
      <trkpt lat="47.22392" lon="-1.47223">
        <ele>53</ele>
        <time>2022-03-27T10:27:18Z</time>
      </trkpt>
      <trkpt lat="47.22402" lon="-1.47211">
        <ele>54</ele>
        <time>2022-03-27T10:27:20Z</time>
      </trkpt>
      <trkpt lat="47.22413" lon="-1.47199">
        <ele>54</ele>
        <time>2022-03-27T10:27:22Z</time>
      </trkpt>
      <trkpt lat="47.22423" lon="-1.47187">
        <ele>54</ele>
        <time>2022-03-27T10:27:24Z</time>
      </trkpt>
      <trkpt lat="47.22434" lon="-1.47177">
        <ele>55</ele>
        <time>2022-03-27T10:27:26Z</time>
      </trkpt>
      <trkpt lat="47.22445" lon="-1.47168">
        <ele>55</ele>
        <time>2022-03-27T10:27:28Z</time>
      </trkpt>
      <trkpt lat="47.22455" lon="-1.47159">
        <ele>55</ele>
        <time>2022-03-27T10:27:30Z</time>
      </trkpt>
      <trkpt lat="47.22466" lon="-1.4715">
        <ele>55</ele>
        <time>2022-03-27T10:27:32Z</time>
      </trkpt>
      <trkpt lat="47.22478" lon="-1.47142">
        <ele>55</ele>
        <time>2022-03-27T10:27:34Z</time>
      </trkpt>
      <trkpt lat="47.22489" lon="-1.47137">
        <ele>55</ele>
        <time>2022-03-27T10:27:36Z</time>
      </trkpt>
      <trkpt lat="47.22502" lon="-1.47132">
        <ele>55</ele>
        <time>2022-03-27T10:27:38Z</time>
      </trkpt>
      <trkpt lat="47.22515" lon="-1.47128">
        <ele>55</ele>
        <time>2022-03-27T10:27:40Z</time>
      </trkpt>
      <trkpt lat="47.22529" lon="-1.47125">
        <ele>55</ele>
        <time>2022-03-27T10:27:42Z</time>
      </trkpt>
      <trkpt lat="47.22543" lon="-1.47121">
        <ele>55</ele>
        <time>2022-03-27T10:27:44Z</time>
      </trkpt>
      <trkpt lat="47.22557" lon="-1.47118">
        <ele>54</ele>
        <time>2022-03-27T10:27:46Z</time>
      </trkpt>
      <trkpt lat="47.2257" lon="-1.47113">
        <ele>54</ele>
        <time>2022-03-27T10:27:48Z</time>
      </trkpt>
      <trkpt lat="47.22583" lon="-1.47105">
        <ele>53</ele>
        <time>2022-03-27T10:27:50Z</time>
      </trkpt>
      <trkpt lat="47.22595" lon="-1.47093">
        <ele>53</ele>
        <time>2022-03-27T10:27:52Z</time>
      </trkpt>
      <trkpt lat="47.22605" lon="-1.47078">
        <ele>53</ele>
        <time>2022-03-27T10:27:54Z</time>
      </trkpt>
      <trkpt lat="47.22613" lon="-1.47062">
        <ele>53</ele>
        <time>2022-03-27T10:27:56Z</time>
      </trkpt>
      <trkpt lat="47.22621" lon="-1.47046">
        <ele>53</ele>
        <time>2022-03-27T10:27:58Z</time>
      </trkpt>
      <trkpt lat="47.2263" lon="-1.47031">
        <ele>53</ele>
        <time>2022-03-27T10:28:00Z</time>
      </trkpt>
      <trkpt lat="47.2264" lon="-1.47017">
        <ele>53</ele>
        <time>2022-03-27T10:28:02Z</time>
      </trkpt>
      <trkpt lat="47.22651" lon="-1.47004">
        <ele>53</ele>
        <time>2022-03-27T10:28:04Z</time>
      </trkpt>
      <trkpt lat="47.22662" lon="-1.46993">
        <ele>53</ele>
        <time>2022-03-27T10:28:06Z</time>
      </trkpt>
      <trkpt lat="47.22674" lon="-1.46983">
        <ele>53</ele>
        <time>2022-03-27T10:28:08Z</time>
      </trkpt>
      <trkpt lat="47.22686" lon="-1.46974">
        <ele>53</ele>
        <time>2022-03-27T10:28:10Z</time>
      </trkpt>
      <trkpt lat="47.22698" lon="-1.46968">
        <ele>53</ele>
        <time>2022-03-27T10:28:12Z</time>
      </trkpt>
      <trkpt lat="47.22711" lon="-1.46962">
        <ele>53</ele>
        <time>2022-03-27T10:28:14Z</time>
      </trkpt>
      <trkpt lat="47.22724" lon="-1.46958">
        <ele>53</ele>
        <time>2022-03-27T10:28:16Z</time>
      </trkpt>
      <trkpt lat="47.22738" lon="-1.46954">
        <ele>53</ele>
        <time>2022-03-27T10:28:18Z</time>
      </trkpt>
      <trkpt lat="47.22751" lon="-1.46952">
        <ele>53</ele>
        <time>2022-03-27T10:28:20Z</time>
      </trkpt>
      <trkpt lat="47.22761" lon="-1.46942">
        <ele>53</ele>
        <time>2022-03-27T10:28:22Z</time>
      </trkpt>
      <trkpt lat="47.2277" lon="-1.46931">
        <ele>53</ele>
        <time>2022-03-27T10:28:24Z</time>
      </trkpt>
      <trkpt lat="47.22782" lon="-1.46928">
        <ele>53</ele>
        <time>2022-03-27T10:28:26Z</time>
      </trkpt>
      <trkpt lat="47.22793" lon="-1.46932">
        <ele>53</ele>
        <time>2022-03-27T10:28:28Z</time>
      </trkpt>
      <trkpt lat="47.22805" lon="-1.46937">
        <ele>54</ele>
        <time>2022-03-27T10:28:30Z</time>
      </trkpt>
      <trkpt lat="47.22817" lon="-1.46942">
        <ele>54</ele>
        <time>2022-03-27T10:28:32Z</time>
      </trkpt>
      <trkpt lat="47.22829" lon="-1.46947">
        <ele>54</ele>
        <time>2022-03-27T10:28:34Z</time>
      </trkpt>
      <trkpt lat="47.22841" lon="-1.46953">
        <ele>54</ele>
        <time>2022-03-27T10:28:36Z</time>
      </trkpt>
      <trkpt lat="47.22853" lon="-1.46958">
        <ele>55</ele>
        <time>2022-03-27T10:28:38Z</time>
      </trkpt>
      <trkpt lat="47.22865" lon="-1.46963">
        <ele>55</ele>
        <time>2022-03-27T10:28:40Z</time>
      </trkpt>
      <trkpt lat="47.22876" lon="-1.46969">
        <ele>55</ele>
        <time>2022-03-27T10:28:42Z</time>
      </trkpt>
      <trkpt lat="47.22888" lon="-1.46973">
        <ele>56</ele>
        <time>2022-03-27T10:28:44Z</time>
      </trkpt>
      <trkpt lat="47.229" lon="-1.46976">
        <ele>56</ele>
        <time>2022-03-27T10:28:46Z</time>
      </trkpt>
      <trkpt lat="47.22912" lon="-1.46979">
        <ele>56</ele>
        <time>2022-03-27T10:28:48Z</time>
      </trkpt>
      <trkpt lat="47.22923" lon="-1.4698">
        <ele>57</ele>
        <time>2022-03-27T10:28:50Z</time>
      </trkpt>
      <trkpt lat="47.22935" lon="-1.46981">
        <ele>57</ele>
        <time>2022-03-27T10:28:52Z</time>
      </trkpt>
      <trkpt lat="47.22947" lon="-1.46982">
        <ele>56</ele>
        <time>2022-03-27T10:28:54Z</time>
      </trkpt>
      <trkpt lat="47.22959" lon="-1.46984">
        <ele>57</ele>
        <time>2022-03-27T10:28:56Z</time>
      </trkpt>
      <trkpt lat="47.2297" lon="-1.46986">
        <ele>57</ele>
        <time>2022-03-27T10:28:58Z</time>
      </trkpt>
      <trkpt lat="47.22982" lon="-1.4699">
        <ele>57</ele>
        <time>2022-03-27T10:29:00Z</time>
      </trkpt>
      <trkpt lat="47.22994" lon="-1.46994">
        <ele>57</ele>
        <time>2022-03-27T10:29:02Z</time>
      </trkpt>
      <trkpt lat="47.23005" lon="-1.47">
        <ele>57</ele>
        <time>2022-03-27T10:29:04Z</time>
      </trkpt>
      <trkpt lat="47.23017" lon="-1.47007">
        <ele>57</ele>
        <time>2022-03-27T10:29:06Z</time>
      </trkpt>
      <trkpt lat="47.23027" lon="-1.47016">
        <ele>57</ele>
        <time>2022-03-27T10:29:08Z</time>
      </trkpt>
      <trkpt lat="47.23038" lon="-1.47026">
        <ele>57</ele>
        <time>2022-03-27T10:29:10Z</time>
      </trkpt>
      <trkpt lat="47.23048" lon="-1.47037">
        <ele>57</ele>
        <time>2022-03-27T10:29:12Z</time>
      </trkpt>
      <trkpt lat="47.23057" lon="-1.47051">
        <ele>57</ele>
        <time>2022-03-27T10:29:14Z</time>
      </trkpt>
      <trkpt lat="47.23065" lon="-1.47065">
        <ele>56</ele>
        <time>2022-03-27T10:29:16Z</time>
      </trkpt>
      <trkpt lat="47.23074" lon="-1.47081">
        <ele>56</ele>
        <time>2022-03-27T10:29:18Z</time>
      </trkpt>
      <trkpt lat="47.23082" lon="-1.47097">
        <ele>55</ele>
        <time>2022-03-27T10:29:20Z</time>
      </trkpt>
      <trkpt lat="47.23091" lon="-1.47113">
        <ele>55</ele>
        <time>2022-03-27T10:29:22Z</time>
      </trkpt>
      <trkpt lat="47.23101" lon="-1.47127">
        <ele>54</ele>
        <time>2022-03-27T10:29:24Z</time>
      </trkpt>
      <trkpt lat="47.23114" lon="-1.47125">
        <ele>54</ele>
        <time>2022-03-27T10:29:26Z</time>
      </trkpt>
      <trkpt lat="47.23124" lon="-1.47113">
        <ele>54</ele>
        <time>2022-03-27T10:29:28Z</time>
      </trkpt>
      <trkpt lat="47.23133" lon="-1.47097">
        <ele>54</ele>
        <time>2022-03-27T10:29:30Z</time>
      </trkpt>
      <trkpt lat="47.23133" lon="-1.4708">
        <ele>54</ele>
        <time>2022-03-27T10:29:32Z</time>
      </trkpt>
      <trkpt lat="47.23125" lon="-1.47064">
        <ele>53</ele>
        <time>2022-03-27T10:29:34Z</time>
      </trkpt>
      <trkpt lat="47.23116" lon="-1.47049">
        <ele>53</ele>
        <time>2022-03-27T10:29:36Z</time>
      </trkpt>
      <trkpt lat="47.23108" lon="-1.47033">
        <ele>53</ele>
        <time>2022-03-27T10:29:38Z</time>
      </trkpt>
      <trkpt lat="47.23101" lon="-1.47019">
        <ele>53</ele>
        <time>2022-03-27T10:29:40Z</time>
      </trkpt>
      <trkpt lat="47.23094" lon="-1.47005">
        <ele>54</ele>
        <time>2022-03-27T10:29:42Z</time>
      </trkpt>
      <trkpt lat="47.23087" lon="-1.46992">
        <ele>54</ele>
        <time>2022-03-27T10:29:44Z</time>
      </trkpt>
      <trkpt lat="47.23078" lon="-1.46988">
        <ele>54</ele>
        <time>2022-03-27T10:29:46Z</time>
      </trkpt>
      <trkpt lat="47.23074" lon="-1.47">
        <ele>55</ele>
        <time>2022-03-27T10:29:48Z</time>
      </trkpt>
      <trkpt lat="47.2308" lon="-1.47012">
        <ele>55</ele>
        <time>2022-03-27T10:29:50Z</time>
      </trkpt>
      <trkpt lat="47.23089" lon="-1.47026">
        <ele>55</ele>
        <time>2022-03-27T10:29:52Z</time>
      </trkpt>
      <trkpt lat="47.23098" lon="-1.4704">
        <ele>56</ele>
        <time>2022-03-27T10:29:54Z</time>
      </trkpt>
      <trkpt lat="47.23107" lon="-1.47055">
        <ele>56</ele>
        <time>2022-03-27T10:29:56Z</time>
      </trkpt>
      <trkpt lat="47.23114" lon="-1.4707">
        <ele>57</ele>
        <time>2022-03-27T10:29:58Z</time>
      </trkpt>
      <trkpt lat="47.23121" lon="-1.47085">
        <ele>57</ele>
        <time>2022-03-27T10:30:00Z</time>
      </trkpt>
      <trkpt lat="47.23128" lon="-1.47098">
        <ele>57</ele>
        <time>2022-03-27T10:30:02Z</time>
      </trkpt>
      <trkpt lat="47.23136" lon="-1.47111">
        <ele>58</ele>
        <time>2022-03-27T10:30:04Z</time>
      </trkpt>
      <trkpt lat="47.23143" lon="-1.47125">
        <ele>59</ele>
        <time>2022-03-27T10:30:06Z</time>
      </trkpt>
      <trkpt lat="47.23152" lon="-1.47139">
        <ele>59</ele>
        <time>2022-03-27T10:30:08Z</time>
      </trkpt>
      <trkpt lat="47.2316" lon="-1.47152">
        <ele>59</ele>
        <time>2022-03-27T10:30:10Z</time>
      </trkpt>
      <trkpt lat="47.23167" lon="-1.47165">
        <ele>59</ele>
        <time>2022-03-27T10:30:12Z</time>
      </trkpt>
      <trkpt lat="47.23175" lon="-1.47179">
        <ele>60</ele>
        <time>2022-03-27T10:30:14Z</time>
      </trkpt>
      <trkpt lat="47.23183" lon="-1.47192">
        <ele>60</ele>
        <time>2022-03-27T10:30:16Z</time>
      </trkpt>
      <trkpt lat="47.23191" lon="-1.47206">
        <ele>60</ele>
        <time>2022-03-27T10:30:18Z</time>
      </trkpt>
      <trkpt lat="47.23199" lon="-1.4722">
        <ele>60</ele>
        <time>2022-03-27T10:30:20Z</time>
      </trkpt>
      <trkpt lat="47.23207" lon="-1.47234">
        <ele>60</ele>
        <time>2022-03-27T10:30:22Z</time>
      </trkpt>
      <trkpt lat="47.23215" lon="-1.47249">
        <ele>60</ele>
        <time>2022-03-27T10:30:24Z</time>
      </trkpt>
      <trkpt lat="47.23223" lon="-1.47262">
        <ele>60</ele>
        <time>2022-03-27T10:30:26Z</time>
      </trkpt>
      <trkpt lat="47.23231" lon="-1.47276">
        <ele>60</ele>
        <time>2022-03-27T10:30:28Z</time>
      </trkpt>
      <trkpt lat="47.23239" lon="-1.47289">
        <ele>60</ele>
        <time>2022-03-27T10:30:30Z</time>
      </trkpt>
      <trkpt lat="47.23247" lon="-1.47302">
        <ele>60</ele>
        <time>2022-03-27T10:30:32Z</time>
      </trkpt>
      <trkpt lat="47.23255" lon="-1.47315">
        <ele>60</ele>
        <time>2022-03-27T10:30:34Z</time>
      </trkpt>
      <trkpt lat="47.23263" lon="-1.47329">
        <ele>60</ele>
        <time>2022-03-27T10:30:36Z</time>
      </trkpt>
      <trkpt lat="47.23271" lon="-1.47342">
        <ele>60</ele>
        <time>2022-03-27T10:30:38Z</time>
      </trkpt>
      <trkpt lat="47.23279" lon="-1.47355">
        <ele>60</ele>
        <time>2022-03-27T10:30:40Z</time>
      </trkpt>
      <trkpt lat="47.23286" lon="-1.47369">
        <ele>59</ele>
        <time>2022-03-27T10:30:42Z</time>
      </trkpt>
      <trkpt lat="47.23294" lon="-1.47382">
        <ele>59</ele>
        <time>2022-03-27T10:30:44Z</time>
      </trkpt>
      <trkpt lat="47.23302" lon="-1.47396">
        <ele>59</ele>
        <time>2022-03-27T10:30:46Z</time>
      </trkpt>
      <trkpt lat="47.2331" lon="-1.4741">
        <ele>59</ele>
        <time>2022-03-27T10:30:48Z</time>
      </trkpt>
      <trkpt lat="47.23319" lon="-1.47424">
        <ele>59</ele>
        <time>2022-03-27T10:30:50Z</time>
      </trkpt>
      <trkpt lat="47.23327" lon="-1.47438">
        <ele>59</ele>
        <time>2022-03-27T10:30:52Z</time>
      </trkpt>
      <trkpt lat="47.23335" lon="-1.47452">
        <ele>58</ele>
        <time>2022-03-27T10:30:54Z</time>
      </trkpt>
      <trkpt lat="47.23344" lon="-1.47467">
        <ele>58</ele>
        <time>2022-03-27T10:30:56Z</time>
      </trkpt>
      <trkpt lat="47.23352" lon="-1.47481">
        <ele>58</ele>
        <time>2022-03-27T10:30:58Z</time>
      </trkpt>
      <trkpt lat="47.23361" lon="-1.47495">
        <ele>58</ele>
        <time>2022-03-27T10:31:00Z</time>
      </trkpt>
      <trkpt lat="47.23371" lon="-1.47509">
        <ele>57</ele>
        <time>2022-03-27T10:31:02Z</time>
      </trkpt>
      <trkpt lat="47.23382" lon="-1.47523">
        <ele>56</ele>
        <time>2022-03-27T10:31:04Z</time>
      </trkpt>
      <trkpt lat="47.23392" lon="-1.47538">
        <ele>56</ele>
        <time>2022-03-27T10:31:06Z</time>
      </trkpt>
      <trkpt lat="47.23401" lon="-1.47554">
        <ele>57</ele>
        <time>2022-03-27T10:31:08Z</time>
      </trkpt>
      <trkpt lat="47.23411" lon="-1.47569">
        <ele>56</ele>
        <time>2022-03-27T10:31:10Z</time>
      </trkpt>
      <trkpt lat="47.23421" lon="-1.47584">
        <ele>56</ele>
        <time>2022-03-27T10:31:12Z</time>
      </trkpt>
      <trkpt lat="47.23431" lon="-1.47599">
        <ele>56</ele>
        <time>2022-03-27T10:31:14Z</time>
      </trkpt>
      <trkpt lat="47.23441" lon="-1.47614">
        <ele>55</ele>
        <time>2022-03-27T10:31:16Z</time>
      </trkpt>
      <trkpt lat="47.23452" lon="-1.47629">
        <ele>55</ele>
        <time>2022-03-27T10:31:18Z</time>
      </trkpt>
      <trkpt lat="47.23462" lon="-1.47643">
        <ele>55</ele>
        <time>2022-03-27T10:31:20Z</time>
      </trkpt>
      <trkpt lat="47.23474" lon="-1.47655">
        <ele>54</ele>
        <time>2022-03-27T10:31:22Z</time>
      </trkpt>
      <trkpt lat="47.23487" lon="-1.47666">
        <ele>54</ele>
        <time>2022-03-27T10:31:24Z</time>
      </trkpt>
      <trkpt lat="47.235" lon="-1.47675">
        <ele>54</ele>
        <time>2022-03-27T10:31:26Z</time>
      </trkpt>
      <trkpt lat="47.23513" lon="-1.47684">
        <ele>54</ele>
        <time>2022-03-27T10:31:28Z</time>
      </trkpt>
      <trkpt lat="47.23526" lon="-1.47692">
        <ele>54</ele>
        <time>2022-03-27T10:31:30Z</time>
      </trkpt>
      <trkpt lat="47.23538" lon="-1.477">
        <ele>54</ele>
        <time>2022-03-27T10:31:32Z</time>
      </trkpt>
      <trkpt lat="47.2355" lon="-1.47701">
        <ele>53</ele>
        <time>2022-03-27T10:31:34Z</time>
      </trkpt>
      <trkpt lat="47.2356" lon="-1.47692">
        <ele>53</ele>
        <time>2022-03-27T10:31:36Z</time>
      </trkpt>
      <trkpt lat="47.23569" lon="-1.47684">
        <ele>53</ele>
        <time>2022-03-27T10:31:53Z</time>
      </trkpt>
      <trkpt lat="47.23582" lon="-1.4769">
        <ele>54</ele>
        <time>2022-03-27T10:31:56Z</time>
      </trkpt>
      <trkpt lat="47.23593" lon="-1.47698">
        <ele>53</ele>
        <time>2022-03-27T10:31:58Z</time>
      </trkpt>
      <trkpt lat="47.23605" lon="-1.47705">
        <ele>53</ele>
        <time>2022-03-27T10:32:00Z</time>
      </trkpt>
      <trkpt lat="47.23618" lon="-1.47712">
        <ele>52</ele>
        <time>2022-03-27T10:32:02Z</time>
      </trkpt>
      <trkpt lat="47.2363" lon="-1.4772">
        <ele>52</ele>
        <time>2022-03-27T10:32:04Z</time>
      </trkpt>
      <trkpt lat="47.23643" lon="-1.47728">
        <ele>52</ele>
        <time>2022-03-27T10:32:06Z</time>
      </trkpt>
      <trkpt lat="47.23656" lon="-1.47735">
        <ele>52</ele>
        <time>2022-03-27T10:32:08Z</time>
      </trkpt>
      <trkpt lat="47.23669" lon="-1.47743">
        <ele>52</ele>
        <time>2022-03-27T10:32:10Z</time>
      </trkpt>
      <trkpt lat="47.23681" lon="-1.47747">
        <ele>52</ele>
        <time>2022-03-27T10:32:12Z</time>
      </trkpt>
      <trkpt lat="47.23695" lon="-1.47747">
        <ele>52</ele>
        <time>2022-03-27T10:32:14Z</time>
      </trkpt>
      <trkpt lat="47.23707" lon="-1.47742">
        <ele>53</ele>
        <time>2022-03-27T10:32:16Z</time>
      </trkpt>
      <trkpt lat="47.23719" lon="-1.47734">
        <ele>53</ele>
        <time>2022-03-27T10:32:18Z</time>
      </trkpt>
      <trkpt lat="47.2373" lon="-1.47723">
        <ele>54</ele>
        <time>2022-03-27T10:32:20Z</time>
      </trkpt>
      <trkpt lat="47.23741" lon="-1.47711">
        <ele>54</ele>
        <time>2022-03-27T10:32:22Z</time>
      </trkpt>
      <trkpt lat="47.23751" lon="-1.47699">
        <ele>54</ele>
        <time>2022-03-27T10:32:24Z</time>
      </trkpt>
      <trkpt lat="47.23761" lon="-1.47688">
        <ele>53</ele>
        <time>2022-03-27T10:32:26Z</time>
      </trkpt>
      <trkpt lat="47.23773" lon="-1.47679">
        <ele>53</ele>
        <time>2022-03-27T10:32:28Z</time>
      </trkpt>
      <trkpt lat="47.23785" lon="-1.47673">
        <ele>53</ele>
        <time>2022-03-27T10:32:30Z</time>
      </trkpt>
      <trkpt lat="47.23796" lon="-1.47663">
        <ele>53</ele>
        <time>2022-03-27T10:32:32Z</time>
      </trkpt>
      <trkpt lat="47.23806" lon="-1.47653">
        <ele>53</ele>
        <time>2022-03-27T10:32:34Z</time>
      </trkpt>
      <trkpt lat="47.2382" lon="-1.4765">
        <ele>52</ele>
        <time>2022-03-27T10:32:36Z</time>
      </trkpt>
      <trkpt lat="47.23833" lon="-1.47648">
        <ele>52</ele>
        <time>2022-03-27T10:32:38Z</time>
      </trkpt>
      <trkpt lat="47.23845" lon="-1.47642">
        <ele>51</ele>
        <time>2022-03-27T10:32:40Z</time>
      </trkpt>
      <trkpt lat="47.23858" lon="-1.47636">
        <ele>51</ele>
        <time>2022-03-27T10:32:42Z</time>
      </trkpt>
      <trkpt lat="47.2387" lon="-1.47631">
        <ele>52</ele>
        <time>2022-03-27T10:32:44Z</time>
      </trkpt>
      <trkpt lat="47.23883" lon="-1.47627">
        <ele>52</ele>
        <time>2022-03-27T10:32:46Z</time>
      </trkpt>
      <trkpt lat="47.23896" lon="-1.47626">
        <ele>52</ele>
        <time>2022-03-27T10:32:48Z</time>
      </trkpt>
      <trkpt lat="47.23909" lon="-1.47629">
        <ele>52</ele>
        <time>2022-03-27T10:32:50Z</time>
      </trkpt>
      <trkpt lat="47.23921" lon="-1.47633">
        <ele>52</ele>
        <time>2022-03-27T10:32:52Z</time>
      </trkpt>
      <trkpt lat="47.23933" lon="-1.4764">
        <ele>53</ele>
        <time>2022-03-27T10:32:54Z</time>
      </trkpt>
      <trkpt lat="47.23944" lon="-1.47651">
        <ele>53</ele>
        <time>2022-03-27T10:32:56Z</time>
      </trkpt>
      <trkpt lat="47.23954" lon="-1.47663">
        <ele>54</ele>
        <time>2022-03-27T10:32:58Z</time>
      </trkpt>
      <trkpt lat="47.23963" lon="-1.47676">
        <ele>54</ele>
        <time>2022-03-27T10:33:00Z</time>
      </trkpt>
      <trkpt lat="47.23972" lon="-1.47692">
        <ele>54</ele>
        <time>2022-03-27T10:33:02Z</time>
      </trkpt>
      <trkpt lat="47.2398" lon="-1.4771">
        <ele>53</ele>
        <time>2022-03-27T10:33:04Z</time>
      </trkpt>
      <trkpt lat="47.23987" lon="-1.47727">
        <ele>53</ele>
        <time>2022-03-27T10:33:06Z</time>
      </trkpt>
      <trkpt lat="47.23994" lon="-1.47743">
        <ele>53</ele>
        <time>2022-03-27T10:33:08Z</time>
      </trkpt>
      <trkpt lat="47.24004" lon="-1.4777">
        <ele>53</ele>
        <time>2022-03-27T10:33:11Z</time>
      </trkpt>
      <trkpt lat="47.2401" lon="-1.47786">
        <ele>53</ele>
        <time>2022-03-27T10:33:13Z</time>
      </trkpt>
      <trkpt lat="47.2402" lon="-1.47801">
        <ele>54</ele>
        <time>2022-03-27T10:33:15Z</time>
      </trkpt>
      <trkpt lat="47.24026" lon="-1.47818">
        <ele>53</ele>
        <time>2022-03-27T10:33:17Z</time>
      </trkpt>
      <trkpt lat="47.24032" lon="-1.47835">
        <ele>53</ele>
        <time>2022-03-27T10:33:19Z</time>
      </trkpt>
      <trkpt lat="47.24039" lon="-1.47851">
        <ele>53</ele>
        <time>2022-03-27T10:33:21Z</time>
      </trkpt>
      <trkpt lat="47.24045" lon="-1.47868">
        <ele>53</ele>
        <time>2022-03-27T10:33:23Z</time>
      </trkpt>
      <trkpt lat="47.24051" lon="-1.47886">
        <ele>53</ele>
        <time>2022-03-27T10:33:25Z</time>
      </trkpt>
      <trkpt lat="47.24057" lon="-1.47904">
        <ele>53</ele>
        <time>2022-03-27T10:33:27Z</time>
      </trkpt>
      <trkpt lat="47.24062" lon="-1.47922">
        <ele>52</ele>
        <time>2022-03-27T10:33:29Z</time>
      </trkpt>
      <trkpt lat="47.24068" lon="-1.4794">
        <ele>52</ele>
        <time>2022-03-27T10:33:31Z</time>
      </trkpt>
      <trkpt lat="47.24074" lon="-1.47959">
        <ele>52</ele>
        <time>2022-03-27T10:33:33Z</time>
      </trkpt>
      <trkpt lat="47.2408" lon="-1.47979">
        <ele>52</ele>
        <time>2022-03-27T10:33:35Z</time>
      </trkpt>
      <trkpt lat="47.24087" lon="-1.47998">
        <ele>51</ele>
        <time>2022-03-27T10:33:37Z</time>
      </trkpt>
      <trkpt lat="47.24095" lon="-1.48016">
        <ele>51</ele>
        <time>2022-03-27T10:33:39Z</time>
      </trkpt>
      <trkpt lat="47.24103" lon="-1.48034">
        <ele>51</ele>
        <time>2022-03-27T10:33:41Z</time>
      </trkpt>
      <trkpt lat="47.24112" lon="-1.48051">
        <ele>51</ele>
        <time>2022-03-27T10:33:43Z</time>
      </trkpt>
      <trkpt lat="47.24122" lon="-1.48066">
        <ele>51</ele>
        <time>2022-03-27T10:33:45Z</time>
      </trkpt>
      <trkpt lat="47.24132" lon="-1.48081">
        <ele>51</ele>
        <time>2022-03-27T10:33:47Z</time>
      </trkpt>
      <trkpt lat="47.24143" lon="-1.48094">
        <ele>51</ele>
        <time>2022-03-27T10:33:49Z</time>
      </trkpt>
      <trkpt lat="47.24153" lon="-1.48106">
        <ele>51</ele>
        <time>2022-03-27T10:33:51Z</time>
      </trkpt>
      <trkpt lat="47.24164" lon="-1.48117">
        <ele>52</ele>
        <time>2022-03-27T10:33:53Z</time>
      </trkpt>
      <trkpt lat="47.24174" lon="-1.48127">
        <ele>52</ele>
        <time>2022-03-27T10:33:55Z</time>
      </trkpt>
      <trkpt lat="47.24185" lon="-1.48135">
        <ele>53</ele>
        <time>2022-03-27T10:33:57Z</time>
      </trkpt>
      <trkpt lat="47.24196" lon="-1.48145">
        <ele>53</ele>
        <time>2022-03-27T10:33:59Z</time>
      </trkpt>
      <trkpt lat="47.24208" lon="-1.48154">
        <ele>53</ele>
        <time>2022-03-27T10:34:01Z</time>
      </trkpt>
      <trkpt lat="47.2422" lon="-1.48161">
        <ele>53</ele>
        <time>2022-03-27T10:34:03Z</time>
      </trkpt>
      <trkpt lat="47.24231" lon="-1.48169">
        <ele>53</ele>
        <time>2022-03-27T10:34:05Z</time>
      </trkpt>
      <trkpt lat="47.24243" lon="-1.48175">
        <ele>53</ele>
        <time>2022-03-27T10:34:07Z</time>
      </trkpt>
      <trkpt lat="47.24255" lon="-1.48181">
        <ele>54</ele>
        <time>2022-03-27T10:34:09Z</time>
      </trkpt>
      <trkpt lat="47.24267" lon="-1.48187">
        <ele>54</ele>
        <time>2022-03-27T10:34:11Z</time>
      </trkpt>
      <trkpt lat="47.24278" lon="-1.48195">
        <ele>54</ele>
        <time>2022-03-27T10:34:13Z</time>
      </trkpt>
      <trkpt lat="47.2429" lon="-1.48203">
        <ele>53</ele>
        <time>2022-03-27T10:34:15Z</time>
      </trkpt>
      <trkpt lat="47.24301" lon="-1.48213">
        <ele>54</ele>
        <time>2022-03-27T10:34:17Z</time>
      </trkpt>
      <trkpt lat="47.24311" lon="-1.48223">
        <ele>54</ele>
        <time>2022-03-27T10:34:19Z</time>
      </trkpt>
      <trkpt lat="47.24321" lon="-1.48233">
        <ele>54</ele>
        <time>2022-03-27T10:34:21Z</time>
      </trkpt>
      <trkpt lat="47.24332" lon="-1.4824">
        <ele>54</ele>
        <time>2022-03-27T10:34:23Z</time>
      </trkpt>
      <trkpt lat="47.24344" lon="-1.48245">
        <ele>54</ele>
        <time>2022-03-27T10:34:25Z</time>
      </trkpt>
      <trkpt lat="47.24354" lon="-1.48254">
        <ele>54</ele>
        <time>2022-03-27T10:34:27Z</time>
      </trkpt>
      <trkpt lat="47.24361" lon="-1.48269">
        <ele>53</ele>
        <time>2022-03-27T10:34:29Z</time>
      </trkpt>
      <trkpt lat="47.24369" lon="-1.48285">
        <ele>53</ele>
        <time>2022-03-27T10:34:31Z</time>
      </trkpt>
      <trkpt lat="47.24379" lon="-1.48297">
        <ele>53</ele>
        <time>2022-03-27T10:34:33Z</time>
      </trkpt>
      <trkpt lat="47.24388" lon="-1.4831">
        <ele>52</ele>
        <time>2022-03-27T10:34:35Z</time>
      </trkpt>
      <trkpt lat="47.24398" lon="-1.48323">
        <ele>52</ele>
        <time>2022-03-27T10:34:37Z</time>
      </trkpt>
      <trkpt lat="47.24407" lon="-1.48336">
        <ele>52</ele>
        <time>2022-03-27T10:34:39Z</time>
      </trkpt>
      <trkpt lat="47.24418" lon="-1.48346">
        <ele>53</ele>
        <time>2022-03-27T10:34:41Z</time>
      </trkpt>
      <trkpt lat="47.24429" lon="-1.48354">
        <ele>52</ele>
        <time>2022-03-27T10:34:43Z</time>
      </trkpt>
      <trkpt lat="47.24441" lon="-1.4836">
        <ele>52</ele>
        <time>2022-03-27T10:34:45Z</time>
      </trkpt>
      <trkpt lat="47.24452" lon="-1.48366">
        <ele>52</ele>
        <time>2022-03-27T10:34:47Z</time>
      </trkpt>
      <trkpt lat="47.24464" lon="-1.48372">
        <ele>52</ele>
        <time>2022-03-27T10:34:49Z</time>
      </trkpt>
      <trkpt lat="47.24475" lon="-1.48381">
        <ele>53</ele>
        <time>2022-03-27T10:34:51Z</time>
      </trkpt>
      <trkpt lat="47.24487" lon="-1.4839">
        <ele>53</ele>
        <time>2022-03-27T10:34:53Z</time>
      </trkpt>
      <trkpt lat="47.24499" lon="-1.48397">
        <ele>53</ele>
        <time>2022-03-27T10:34:55Z</time>
      </trkpt>
      <trkpt lat="47.2451" lon="-1.48406">
        <ele>54</ele>
        <time>2022-03-27T10:34:57Z</time>
      </trkpt>
      <trkpt lat="47.24522" lon="-1.48415">
        <ele>54</ele>
        <time>2022-03-27T10:34:59Z</time>
      </trkpt>
      <trkpt lat="47.24533" lon="-1.48426">
        <ele>54</ele>
        <time>2022-03-27T10:35:01Z</time>
      </trkpt>
      <trkpt lat="47.24544" lon="-1.48437">
        <ele>54</ele>
        <time>2022-03-27T10:35:03Z</time>
      </trkpt>
      <trkpt lat="47.24554" lon="-1.48449">
        <ele>54</ele>
        <time>2022-03-27T10:35:05Z</time>
      </trkpt>
      <trkpt lat="47.24565" lon="-1.4846">
        <ele>53</ele>
        <time>2022-03-27T10:35:07Z</time>
      </trkpt>
      <trkpt lat="47.24575" lon="-1.48472">
        <ele>53</ele>
        <time>2022-03-27T10:35:09Z</time>
      </trkpt>
      <trkpt lat="47.24585" lon="-1.48484">
        <ele>54</ele>
        <time>2022-03-27T10:35:11Z</time>
      </trkpt>
      <trkpt lat="47.24595" lon="-1.48496">
        <ele>53</ele>
        <time>2022-03-27T10:35:13Z</time>
      </trkpt>
      <trkpt lat="47.24604" lon="-1.48507">
        <ele>53</ele>
        <time>2022-03-27T10:35:15Z</time>
      </trkpt>
      <trkpt lat="47.24614" lon="-1.48519">
        <ele>53</ele>
        <time>2022-03-27T10:35:17Z</time>
      </trkpt>
      <trkpt lat="47.24624" lon="-1.48531">
        <ele>54</ele>
        <time>2022-03-27T10:35:19Z</time>
      </trkpt>
      <trkpt lat="47.24634" lon="-1.48543">
        <ele>54</ele>
        <time>2022-03-27T10:35:21Z</time>
      </trkpt>
      <trkpt lat="47.24644" lon="-1.48553">
        <ele>54</ele>
        <time>2022-03-27T10:35:23Z</time>
      </trkpt>
      <trkpt lat="47.24654" lon="-1.48563">
        <ele>53</ele>
        <time>2022-03-27T10:35:25Z</time>
      </trkpt>
      <trkpt lat="47.24664" lon="-1.48573">
        <ele>54</ele>
        <time>2022-03-27T10:35:27Z</time>
      </trkpt>
      <trkpt lat="47.24675" lon="-1.48583">
        <ele>54</ele>
        <time>2022-03-27T10:35:29Z</time>
      </trkpt>
      <trkpt lat="47.24685" lon="-1.48593">
        <ele>54</ele>
        <time>2022-03-27T10:35:31Z</time>
      </trkpt>
      <trkpt lat="47.24695" lon="-1.48602">
        <ele>55</ele>
        <time>2022-03-27T10:35:33Z</time>
      </trkpt>
      <trkpt lat="47.24706" lon="-1.48612">
        <ele>55</ele>
        <time>2022-03-27T10:35:35Z</time>
      </trkpt>
      <trkpt lat="47.24716" lon="-1.4862">
        <ele>55</ele>
        <time>2022-03-27T10:35:37Z</time>
      </trkpt>
      <trkpt lat="47.24727" lon="-1.48628">
        <ele>55</ele>
        <time>2022-03-27T10:35:39Z</time>
      </trkpt>
      <trkpt lat="47.24739" lon="-1.48629">
        <ele>56</ele>
        <time>2022-03-27T10:35:41Z</time>
      </trkpt>
      <trkpt lat="47.2475" lon="-1.48627">
        <ele>57</ele>
        <time>2022-03-27T10:35:43Z</time>
      </trkpt>
      <trkpt lat="47.24761" lon="-1.48634">
        <ele>57</ele>
        <time>2022-03-27T10:35:45Z</time>
      </trkpt>
      <trkpt lat="47.24771" lon="-1.48645">
        <ele>58</ele>
        <time>2022-03-27T10:35:47Z</time>
      </trkpt>
      <trkpt lat="47.24782" lon="-1.48647">
        <ele>58</ele>
        <time>2022-03-27T10:35:49Z</time>
      </trkpt>
      <trkpt lat="47.24795" lon="-1.48647">
        <ele>58</ele>
        <time>2022-03-27T10:35:51Z</time>
      </trkpt>
      <trkpt lat="47.24808" lon="-1.48648">
        <ele>58</ele>
        <time>2022-03-27T10:35:53Z</time>
      </trkpt>
      <trkpt lat="47.2482" lon="-1.48649">
        <ele>59</ele>
        <time>2022-03-27T10:35:55Z</time>
      </trkpt>
      <trkpt lat="47.24832" lon="-1.48649">
        <ele>59</ele>
        <time>2022-03-27T10:35:57Z</time>
      </trkpt>
      <trkpt lat="47.24844" lon="-1.48651">
        <ele>59</ele>
        <time>2022-03-27T10:35:59Z</time>
      </trkpt>
      <trkpt lat="47.24856" lon="-1.48654">
        <ele>60</ele>
        <time>2022-03-27T10:36:01Z</time>
      </trkpt>
      <trkpt lat="47.24867" lon="-1.48658">
        <ele>61</ele>
        <time>2022-03-27T10:36:03Z</time>
      </trkpt>
      <trkpt lat="47.24878" lon="-1.4866">
        <ele>61</ele>
        <time>2022-03-27T10:36:05Z</time>
      </trkpt>
      <trkpt lat="47.2489" lon="-1.48663">
        <ele>61</ele>
        <time>2022-03-27T10:36:07Z</time>
      </trkpt>
      <trkpt lat="47.24902" lon="-1.48667">
        <ele>61</ele>
        <time>2022-03-27T10:36:09Z</time>
      </trkpt>
      <trkpt lat="47.24913" lon="-1.48672">
        <ele>62</ele>
        <time>2022-03-27T10:36:11Z</time>
      </trkpt>
      <trkpt lat="47.24924" lon="-1.48677">
        <ele>62</ele>
        <time>2022-03-27T10:36:13Z</time>
      </trkpt>
      <trkpt lat="47.24935" lon="-1.48682">
        <ele>62</ele>
        <time>2022-03-27T10:36:15Z</time>
      </trkpt>
      <trkpt lat="47.24945" lon="-1.48683">
        <ele>62</ele>
        <time>2022-03-27T10:36:17Z</time>
      </trkpt>
      <trkpt lat="47.24955" lon="-1.48686">
        <ele>62</ele>
        <time>2022-03-27T10:36:19Z</time>
      </trkpt>
      <trkpt lat="47.24964" lon="-1.48696">
        <ele>62</ele>
        <time>2022-03-27T10:36:21Z</time>
      </trkpt>
      <trkpt lat="47.24974" lon="-1.48704">
        <ele>62</ele>
        <time>2022-03-27T10:36:23Z</time>
      </trkpt>
      <trkpt lat="47.24986" lon="-1.48709">
        <ele>62</ele>
        <time>2022-03-27T10:36:25Z</time>
      </trkpt>
      <trkpt lat="47.24997" lon="-1.48714">
        <ele>62</ele>
        <time>2022-03-27T10:36:27Z</time>
      </trkpt>
      <trkpt lat="47.25008" lon="-1.48719">
        <ele>62</ele>
        <time>2022-03-27T10:36:29Z</time>
      </trkpt>
      <trkpt lat="47.25019" lon="-1.48725">
        <ele>63</ele>
        <time>2022-03-27T10:36:31Z</time>
      </trkpt>
      <trkpt lat="47.2503" lon="-1.48731">
        <ele>63</ele>
        <time>2022-03-27T10:36:33Z</time>
      </trkpt>
      <trkpt lat="47.25041" lon="-1.48735">
        <ele>63</ele>
        <time>2022-03-27T10:36:35Z</time>
      </trkpt>
      <trkpt lat="47.25052" lon="-1.48739">
        <ele>64</ele>
        <time>2022-03-27T10:36:37Z</time>
      </trkpt>
      <trkpt lat="47.25063" lon="-1.48742">
        <ele>64</ele>
        <time>2022-03-27T10:36:39Z</time>
      </trkpt>
      <trkpt lat="47.25074" lon="-1.48743">
        <ele>64</ele>
        <time>2022-03-27T10:36:41Z</time>
      </trkpt>
      <trkpt lat="47.25085" lon="-1.48745">
        <ele>65</ele>
        <time>2022-03-27T10:36:43Z</time>
      </trkpt>
      <trkpt lat="47.25097" lon="-1.48747">
        <ele>66</ele>
        <time>2022-03-27T10:36:45Z</time>
      </trkpt>
      <trkpt lat="47.25109" lon="-1.48749">
        <ele>66</ele>
        <time>2022-03-27T10:36:47Z</time>
      </trkpt>
      <trkpt lat="47.25121" lon="-1.4875">
        <ele>67</ele>
        <time>2022-03-27T10:36:49Z</time>
      </trkpt>
      <trkpt lat="47.25133" lon="-1.48749">
        <ele>66</ele>
        <time>2022-03-27T10:36:51Z</time>
      </trkpt>
      <trkpt lat="47.25145" lon="-1.48747">
        <ele>66</ele>
        <time>2022-03-27T10:36:53Z</time>
      </trkpt>
      <trkpt lat="47.25156" lon="-1.48745">
        <ele>66</ele>
        <time>2022-03-27T10:36:55Z</time>
      </trkpt>
      <trkpt lat="47.25168" lon="-1.48743">
        <ele>66</ele>
        <time>2022-03-27T10:36:57Z</time>
      </trkpt>
      <trkpt lat="47.25179" lon="-1.48741">
        <ele>67</ele>
        <time>2022-03-27T10:36:59Z</time>
      </trkpt>
      <trkpt lat="47.2519" lon="-1.48739">
        <ele>66</ele>
        <time>2022-03-27T10:37:01Z</time>
      </trkpt>
      <trkpt lat="47.25202" lon="-1.48737">
        <ele>66</ele>
        <time>2022-03-27T10:37:03Z</time>
      </trkpt>
      <trkpt lat="47.25213" lon="-1.48735">
        <ele>66</ele>
        <time>2022-03-27T10:37:05Z</time>
      </trkpt>
      <trkpt lat="47.25225" lon="-1.48735">
        <ele>66</ele>
        <time>2022-03-27T10:37:07Z</time>
      </trkpt>
      <trkpt lat="47.25236" lon="-1.48734">
        <ele>66</ele>
        <time>2022-03-27T10:37:09Z</time>
      </trkpt>
      <trkpt lat="47.25248" lon="-1.48734">
        <ele>67</ele>
        <time>2022-03-27T10:37:11Z</time>
      </trkpt>
      <trkpt lat="47.25258" lon="-1.48735">
        <ele>67</ele>
        <time>2022-03-27T10:37:13Z</time>
      </trkpt>
      <trkpt lat="47.25269" lon="-1.48735">
        <ele>66</ele>
        <time>2022-03-27T10:37:15Z</time>
      </trkpt>
      <trkpt lat="47.2528" lon="-1.4873">
        <ele>67</ele>
        <time>2022-03-27T10:37:17Z</time>
      </trkpt>
      <trkpt lat="47.25291" lon="-1.48738">
        <ele>66</ele>
        <time>2022-03-27T10:37:19Z</time>
      </trkpt>
      <trkpt lat="47.253" lon="-1.48747">
        <ele>67</ele>
        <time>2022-03-27T10:37:21Z</time>
      </trkpt>
      <trkpt lat="47.25311" lon="-1.48752">
        <ele>67</ele>
        <time>2022-03-27T10:37:23Z</time>
      </trkpt>
      <trkpt lat="47.25322" lon="-1.48756">
        <ele>67</ele>
        <time>2022-03-27T10:37:25Z</time>
      </trkpt>
      <trkpt lat="47.25333" lon="-1.4876">
        <ele>67</ele>
        <time>2022-03-27T10:37:27Z</time>
      </trkpt>
      <trkpt lat="47.25344" lon="-1.48762">
        <ele>67</ele>
        <time>2022-03-27T10:37:29Z</time>
      </trkpt>
      <trkpt lat="47.25355" lon="-1.48765">
        <ele>68</ele>
        <time>2022-03-27T10:37:31Z</time>
      </trkpt>
      <trkpt lat="47.25366" lon="-1.48768">
        <ele>68</ele>
        <time>2022-03-27T10:37:33Z</time>
      </trkpt>
      <trkpt lat="47.25377" lon="-1.4877">
        <ele>68</ele>
        <time>2022-03-27T10:37:35Z</time>
      </trkpt>
      <trkpt lat="47.25388" lon="-1.48772">
        <ele>68</ele>
        <time>2022-03-27T10:37:37Z</time>
      </trkpt>
      <trkpt lat="47.25399" lon="-1.48773">
        <ele>69</ele>
        <time>2022-03-27T10:37:39Z</time>
      </trkpt>
      <trkpt lat="47.2541" lon="-1.48775">
        <ele>69</ele>
        <time>2022-03-27T10:37:41Z</time>
      </trkpt>
      <trkpt lat="47.25421" lon="-1.48775">
        <ele>69</ele>
        <time>2022-03-27T10:37:43Z</time>
      </trkpt>
      <trkpt lat="47.25432" lon="-1.48776">
        <ele>69</ele>
        <time>2022-03-27T10:37:45Z</time>
      </trkpt>
      <trkpt lat="47.25443" lon="-1.48776">
        <ele>69</ele>
        <time>2022-03-27T10:37:47Z</time>
      </trkpt>
      <trkpt lat="47.25455" lon="-1.48775">
        <ele>69</ele>
        <time>2022-03-27T10:37:49Z</time>
      </trkpt>
      <trkpt lat="47.25466" lon="-1.48775">
        <ele>69</ele>
        <time>2022-03-27T10:37:51Z</time>
      </trkpt>
      <trkpt lat="47.25477" lon="-1.48773">
        <ele>69</ele>
        <time>2022-03-27T10:37:53Z</time>
      </trkpt>
      <trkpt lat="47.25488" lon="-1.48771">
        <ele>69</ele>
        <time>2022-03-27T10:37:55Z</time>
      </trkpt>
      <trkpt lat="47.25499" lon="-1.48768">
        <ele>69</ele>
        <time>2022-03-27T10:37:57Z</time>
      </trkpt>
      <trkpt lat="47.2551" lon="-1.48766">
        <ele>70</ele>
        <time>2022-03-27T10:37:59Z</time>
      </trkpt>
      <trkpt lat="47.25521" lon="-1.48762">
        <ele>70</ele>
        <time>2022-03-27T10:38:01Z</time>
      </trkpt>
      <trkpt lat="47.25532" lon="-1.48759">
        <ele>70</ele>
        <time>2022-03-27T10:38:03Z</time>
      </trkpt>
      <trkpt lat="47.25543" lon="-1.48756">
        <ele>70</ele>
        <time>2022-03-27T10:38:05Z</time>
      </trkpt>
      <trkpt lat="47.25554" lon="-1.48753">
        <ele>70</ele>
        <time>2022-03-27T10:38:07Z</time>
      </trkpt>
      <trkpt lat="47.25565" lon="-1.4875">
        <ele>71</ele>
        <time>2022-03-27T10:38:09Z</time>
      </trkpt>
      <trkpt lat="47.25576" lon="-1.48747">
        <ele>72</ele>
        <time>2022-03-27T10:38:11Z</time>
      </trkpt>
      <trkpt lat="47.25587" lon="-1.48745">
        <ele>72</ele>
        <time>2022-03-27T10:38:13Z</time>
      </trkpt>
      <trkpt lat="47.25597" lon="-1.48744">
        <ele>73</ele>
        <time>2022-03-27T10:38:15Z</time>
      </trkpt>
      <trkpt lat="47.25608" lon="-1.48744">
        <ele>73</ele>
        <time>2022-03-27T10:38:17Z</time>
      </trkpt>
      <trkpt lat="47.25619" lon="-1.48745">
        <ele>73</ele>
        <time>2022-03-27T10:38:19Z</time>
      </trkpt>
      <trkpt lat="47.2563" lon="-1.48747">
        <ele>73</ele>
        <time>2022-03-27T10:38:21Z</time>
      </trkpt>
      <trkpt lat="47.25641" lon="-1.48749">
        <ele>73</ele>
        <time>2022-03-27T10:38:23Z</time>
      </trkpt>
      <trkpt lat="47.25651" lon="-1.48751">
        <ele>74</ele>
        <time>2022-03-27T10:38:25Z</time>
      </trkpt>
      <trkpt lat="47.25661" lon="-1.48754">
        <ele>75</ele>
        <time>2022-03-27T10:38:27Z</time>
      </trkpt>
      <trkpt lat="47.25673" lon="-1.48753">
        <ele>75</ele>
        <time>2022-03-27T10:38:29Z</time>
      </trkpt>
      <trkpt lat="47.25682" lon="-1.48755">
        <ele>74</ele>
        <time>2022-03-27T10:38:31Z</time>
      </trkpt>
      <trkpt lat="47.25694" lon="-1.48758">
        <ele>75</ele>
        <time>2022-03-27T10:38:33Z</time>
      </trkpt>
      <trkpt lat="47.25706" lon="-1.48757">
        <ele>75</ele>
        <time>2022-03-27T10:38:35Z</time>
      </trkpt>
      <trkpt lat="47.25717" lon="-1.48757">
        <ele>75</ele>
        <time>2022-03-27T10:38:37Z</time>
      </trkpt>
      <trkpt lat="47.25728" lon="-1.48756">
        <ele>76</ele>
        <time>2022-03-27T10:38:39Z</time>
      </trkpt>
      <trkpt lat="47.25739" lon="-1.48754">
        <ele>76</ele>
        <time>2022-03-27T10:38:41Z</time>
      </trkpt>
      <trkpt lat="47.2575" lon="-1.48751">
        <ele>76</ele>
        <time>2022-03-27T10:38:43Z</time>
      </trkpt>
      <trkpt lat="47.2576" lon="-1.48748">
        <ele>77</ele>
        <time>2022-03-27T10:38:45Z</time>
      </trkpt>
      <trkpt lat="47.25771" lon="-1.48745">
        <ele>77</ele>
        <time>2022-03-27T10:38:47Z</time>
      </trkpt>
      <trkpt lat="47.25782" lon="-1.48742">
        <ele>77</ele>
        <time>2022-03-27T10:38:49Z</time>
      </trkpt>
      <trkpt lat="47.25794" lon="-1.48742">
        <ele>77</ele>
        <time>2022-03-27T10:38:51Z</time>
      </trkpt>
      <trkpt lat="47.25806" lon="-1.48742">
        <ele>77</ele>
        <time>2022-03-27T10:38:53Z</time>
      </trkpt>
      <trkpt lat="47.25818" lon="-1.48742">
        <ele>76</ele>
        <time>2022-03-27T10:38:55Z</time>
      </trkpt>
      <trkpt lat="47.2583" lon="-1.48743">
        <ele>76</ele>
        <time>2022-03-27T10:38:57Z</time>
      </trkpt>
      <trkpt lat="47.25843" lon="-1.48743">
        <ele>75</ele>
        <time>2022-03-27T10:38:59Z</time>
      </trkpt>
      <trkpt lat="47.25855" lon="-1.48744">
        <ele>74</ele>
        <time>2022-03-27T10:39:01Z</time>
      </trkpt>
      <trkpt lat="47.25868" lon="-1.48744">
        <ele>74</ele>
        <time>2022-03-27T10:39:03Z</time>
      </trkpt>
      <trkpt lat="47.2588" lon="-1.48745">
        <ele>74</ele>
        <time>2022-03-27T10:39:05Z</time>
      </trkpt>
      <trkpt lat="47.25893" lon="-1.48745">
        <ele>74</ele>
        <time>2022-03-27T10:39:07Z</time>
      </trkpt>
      <trkpt lat="47.25906" lon="-1.48746">
        <ele>74</ele>
        <time>2022-03-27T10:39:09Z</time>
      </trkpt>
      <trkpt lat="47.25919" lon="-1.48746">
        <ele>74</ele>
        <time>2022-03-27T10:39:11Z</time>
      </trkpt>
      <trkpt lat="47.25932" lon="-1.48748">
        <ele>74</ele>
        <time>2022-03-27T10:39:13Z</time>
      </trkpt>
      <trkpt lat="47.25946" lon="-1.48748">
        <ele>74</ele>
        <time>2022-03-27T10:39:15Z</time>
      </trkpt>
      <trkpt lat="47.25959" lon="-1.48749">
        <ele>74</ele>
        <time>2022-03-27T10:39:17Z</time>
      </trkpt>
      <trkpt lat="47.25972" lon="-1.4875">
        <ele>74</ele>
        <time>2022-03-27T10:39:19Z</time>
      </trkpt>
      <trkpt lat="47.25985" lon="-1.48751">
        <ele>74</ele>
        <time>2022-03-27T10:39:21Z</time>
      </trkpt>
      <trkpt lat="47.25998" lon="-1.48751">
        <ele>74</ele>
        <time>2022-03-27T10:39:23Z</time>
      </trkpt>
      <trkpt lat="47.26011" lon="-1.48749">
        <ele>74</ele>
        <time>2022-03-27T10:39:25Z</time>
      </trkpt>
      <trkpt lat="47.26025" lon="-1.48747">
        <ele>73</ele>
        <time>2022-03-27T10:39:27Z</time>
      </trkpt>
      <trkpt lat="47.26038" lon="-1.48746">
        <ele>73</ele>
        <time>2022-03-27T10:39:29Z</time>
      </trkpt>
      <trkpt lat="47.26052" lon="-1.48744">
        <ele>72</ele>
        <time>2022-03-27T10:39:31Z</time>
      </trkpt>
      <trkpt lat="47.26065" lon="-1.48741">
        <ele>73</ele>
        <time>2022-03-27T10:39:33Z</time>
      </trkpt>
      <trkpt lat="47.26079" lon="-1.48737">
        <ele>73</ele>
        <time>2022-03-27T10:39:35Z</time>
      </trkpt>
      <trkpt lat="47.26092" lon="-1.48735">
        <ele>73</ele>
        <time>2022-03-27T10:39:37Z</time>
      </trkpt>
      <trkpt lat="47.26105" lon="-1.48731">
        <ele>73</ele>
        <time>2022-03-27T10:39:39Z</time>
      </trkpt>
      <trkpt lat="47.26118" lon="-1.48728">
        <ele>74</ele>
        <time>2022-03-27T10:39:41Z</time>
      </trkpt>
      <trkpt lat="47.26131" lon="-1.48722">
        <ele>74</ele>
        <time>2022-03-27T10:39:43Z</time>
      </trkpt>
      <trkpt lat="47.26142" lon="-1.48716">
        <ele>74</ele>
        <time>2022-03-27T10:39:45Z</time>
      </trkpt>
      <trkpt lat="47.26153" lon="-1.48712">
        <ele>74</ele>
        <time>2022-03-27T10:39:47Z</time>
      </trkpt>
      <trkpt lat="47.26164" lon="-1.48707">
        <ele>74</ele>
        <time>2022-03-27T10:39:49Z</time>
      </trkpt>
      <trkpt lat="47.26175" lon="-1.48703">
        <ele>74</ele>
        <time>2022-03-27T10:39:51Z</time>
      </trkpt>
      <trkpt lat="47.26185" lon="-1.48698">
        <ele>74</ele>
        <time>2022-03-27T10:39:53Z</time>
      </trkpt>
      <trkpt lat="47.26195" lon="-1.48693">
        <ele>74</ele>
        <time>2022-03-27T10:39:55Z</time>
      </trkpt>
      <trkpt lat="47.26206" lon="-1.48688">
        <ele>74</ele>
        <time>2022-03-27T10:39:57Z</time>
      </trkpt>
      <trkpt lat="47.26216" lon="-1.48683">
        <ele>75</ele>
        <time>2022-03-27T10:39:59Z</time>
      </trkpt>
      <trkpt lat="47.26227" lon="-1.48677">
        <ele>75</ele>
        <time>2022-03-27T10:40:01Z</time>
      </trkpt>
      <trkpt lat="47.26237" lon="-1.48673">
        <ele>75</ele>
        <time>2022-03-27T10:40:03Z</time>
      </trkpt>
      <trkpt lat="47.26248" lon="-1.4867">
        <ele>75</ele>
        <time>2022-03-27T10:40:05Z</time>
      </trkpt>
      <trkpt lat="47.26258" lon="-1.48669">
        <ele>75</ele>
        <time>2022-03-27T10:40:07Z</time>
      </trkpt>
      <trkpt lat="47.26269" lon="-1.48667">
        <ele>76</ele>
        <time>2022-03-27T10:40:09Z</time>
      </trkpt>
      <trkpt lat="47.26281" lon="-1.48666">
        <ele>75</ele>
        <time>2022-03-27T10:40:11Z</time>
      </trkpt>
      <trkpt lat="47.26291" lon="-1.48664">
        <ele>76</ele>
        <time>2022-03-27T10:40:13Z</time>
      </trkpt>
      <trkpt lat="47.26302" lon="-1.48663">
        <ele>76</ele>
        <time>2022-03-27T10:40:15Z</time>
      </trkpt>
      <trkpt lat="47.26313" lon="-1.48663">
        <ele>76</ele>
        <time>2022-03-27T10:40:17Z</time>
      </trkpt>
      <trkpt lat="47.26325" lon="-1.48664">
        <ele>76</ele>
        <time>2022-03-27T10:40:19Z</time>
      </trkpt>
      <trkpt lat="47.26335" lon="-1.48663">
        <ele>76</ele>
        <time>2022-03-27T10:40:21Z</time>
      </trkpt>
      <trkpt lat="47.26346" lon="-1.48663">
        <ele>76</ele>
        <time>2022-03-27T10:40:23Z</time>
      </trkpt>
      <trkpt lat="47.26357" lon="-1.48665">
        <ele>77</ele>
        <time>2022-03-27T10:40:25Z</time>
      </trkpt>
      <trkpt lat="47.26368" lon="-1.48667">
        <ele>77</ele>
        <time>2022-03-27T10:40:27Z</time>
      </trkpt>
      <trkpt lat="47.26379" lon="-1.48669">
        <ele>77</ele>
        <time>2022-03-27T10:40:29Z</time>
      </trkpt>
      <trkpt lat="47.2639" lon="-1.48669">
        <ele>77</ele>
        <time>2022-03-27T10:40:31Z</time>
      </trkpt>
      <trkpt lat="47.26401" lon="-1.4867">
        <ele>77</ele>
        <time>2022-03-27T10:40:33Z</time>
      </trkpt>
      <trkpt lat="47.26412" lon="-1.48671">
        <ele>78</ele>
        <time>2022-03-27T10:40:35Z</time>
      </trkpt>
      <trkpt lat="47.26422" lon="-1.48672">
        <ele>78</ele>
        <time>2022-03-27T10:40:37Z</time>
      </trkpt>
      <trkpt lat="47.26433" lon="-1.48674">
        <ele>79</ele>
        <time>2022-03-27T10:40:39Z</time>
      </trkpt>
      <trkpt lat="47.26444" lon="-1.48675">
        <ele>79</ele>
        <time>2022-03-27T10:40:41Z</time>
      </trkpt>
      <trkpt lat="47.26455" lon="-1.48678">
        <ele>79</ele>
        <time>2022-03-27T10:40:43Z</time>
      </trkpt>
      <trkpt lat="47.26465" lon="-1.48681">
        <ele>79</ele>
        <time>2022-03-27T10:40:45Z</time>
      </trkpt>
      <trkpt lat="47.26476" lon="-1.48684">
        <ele>79</ele>
        <time>2022-03-27T10:40:47Z</time>
      </trkpt>
      <trkpt lat="47.26487" lon="-1.48686">
        <ele>79</ele>
        <time>2022-03-27T10:40:49Z</time>
      </trkpt>
      <trkpt lat="47.26497" lon="-1.48689">
        <ele>80</ele>
        <time>2022-03-27T10:40:51Z</time>
      </trkpt>
      <trkpt lat="47.26508" lon="-1.48692">
        <ele>80</ele>
        <time>2022-03-27T10:40:53Z</time>
      </trkpt>
      <trkpt lat="47.26518" lon="-1.48696">
        <ele>80</ele>
        <time>2022-03-27T10:40:55Z</time>
      </trkpt>
      <trkpt lat="47.26529" lon="-1.487">
        <ele>81</ele>
        <time>2022-03-27T10:40:57Z</time>
      </trkpt>
      <trkpt lat="47.2654" lon="-1.48703">
        <ele>81</ele>
        <time>2022-03-27T10:40:59Z</time>
      </trkpt>
      <trkpt lat="47.2655" lon="-1.48708">
        <ele>81</ele>
        <time>2022-03-27T10:41:01Z</time>
      </trkpt>
      <trkpt lat="47.2656" lon="-1.48712">
        <ele>81</ele>
        <time>2022-03-27T10:41:03Z</time>
      </trkpt>
      <trkpt lat="47.26571" lon="-1.48715">
        <ele>81</ele>
        <time>2022-03-27T10:41:05Z</time>
      </trkpt>
      <trkpt lat="47.26581" lon="-1.48714">
        <ele>81</ele>
        <time>2022-03-27T10:41:07Z</time>
      </trkpt>
      <trkpt lat="47.26591" lon="-1.48711">
        <ele>81</ele>
        <time>2022-03-27T10:41:09Z</time>
      </trkpt>
      <trkpt lat="47.26601" lon="-1.48711">
        <ele>82</ele>
        <time>2022-03-27T10:41:12Z</time>
      </trkpt>
      <trkpt lat="47.26608" lon="-1.48719">
        <ele>83</ele>
        <time>2022-03-27T10:41:45Z</time>
      </trkpt>
      <trkpt lat="47.26617" lon="-1.48728">
        <ele>82</ele>
        <time>2022-03-27T10:41:47Z</time>
      </trkpt>
      <trkpt lat="47.26626" lon="-1.48737">
        <ele>82</ele>
        <time>2022-03-27T10:41:49Z</time>
      </trkpt>
      <trkpt lat="47.26634" lon="-1.48749">
        <ele>82</ele>
        <time>2022-03-27T10:41:52Z</time>
      </trkpt>
      <trkpt lat="47.26636" lon="-1.48762">
        <ele>85</ele>
        <time>2022-03-27T10:43:15Z</time>
      </trkpt>
      <trkpt lat="47.26643" lon="-1.48774">
        <ele>85</ele>
        <time>2022-03-27T10:43:18Z</time>
      </trkpt>
      <trkpt lat="47.26651" lon="-1.48784">
        <ele>86</ele>
        <time>2022-03-27T10:43:20Z</time>
      </trkpt>
      <trkpt lat="47.2666" lon="-1.48797">
        <ele>87</ele>
        <time>2022-03-27T10:43:22Z</time>
      </trkpt>
      <trkpt lat="47.2667" lon="-1.48807">
        <ele>87</ele>
        <time>2022-03-27T10:43:24Z</time>
      </trkpt>
      <trkpt lat="47.2668" lon="-1.48818">
        <ele>87</ele>
        <time>2022-03-27T10:43:26Z</time>
      </trkpt>
      <trkpt lat="47.26691" lon="-1.48829">
        <ele>86</ele>
        <time>2022-03-27T10:43:28Z</time>
      </trkpt>
      <trkpt lat="47.26701" lon="-1.48841">
        <ele>86</ele>
        <time>2022-03-27T10:43:30Z</time>
      </trkpt>
      <trkpt lat="47.2671" lon="-1.48853">
        <ele>87</ele>
        <time>2022-03-27T10:43:32Z</time>
      </trkpt>
      <trkpt lat="47.2672" lon="-1.48863">
        <ele>86</ele>
        <time>2022-03-27T10:43:34Z</time>
      </trkpt>
      <trkpt lat="47.26733" lon="-1.48867">
        <ele>86</ele>
        <time>2022-03-27T10:43:36Z</time>
      </trkpt>
      <trkpt lat="47.26746" lon="-1.48861">
        <ele>85</ele>
        <time>2022-03-27T10:43:38Z</time>
      </trkpt>
      <trkpt lat="47.26755" lon="-1.48849">
        <ele>85</ele>
        <time>2022-03-27T10:43:40Z</time>
      </trkpt>
      <trkpt lat="47.26765" lon="-1.48835">
        <ele>84</ele>
        <time>2022-03-27T10:43:42Z</time>
      </trkpt>
      <trkpt lat="47.26774" lon="-1.48822">
        <ele>84</ele>
        <time>2022-03-27T10:43:44Z</time>
      </trkpt>
      <trkpt lat="47.26784" lon="-1.48809">
        <ele>84</ele>
        <time>2022-03-27T10:43:46Z</time>
      </trkpt>
      <trkpt lat="47.26793" lon="-1.48797">
        <ele>84</ele>
        <time>2022-03-27T10:43:48Z</time>
      </trkpt>
      <trkpt lat="47.26803" lon="-1.48784">
        <ele>84</ele>
        <time>2022-03-27T10:43:50Z</time>
      </trkpt>
      <trkpt lat="47.26812" lon="-1.48771">
        <ele>84</ele>
        <time>2022-03-27T10:43:52Z</time>
      </trkpt>
      <trkpt lat="47.26821" lon="-1.48758">
        <ele>84</ele>
        <time>2022-03-27T10:43:54Z</time>
      </trkpt>
      <trkpt lat="47.26831" lon="-1.48745">
        <ele>84</ele>
        <time>2022-03-27T10:43:56Z</time>
      </trkpt>
      <trkpt lat="47.2684" lon="-1.48733">
        <ele>84</ele>
        <time>2022-03-27T10:43:58Z</time>
      </trkpt>
      <trkpt lat="47.26849" lon="-1.4872">
        <ele>83</ele>
        <time>2022-03-27T10:44:00Z</time>
      </trkpt>
      <trkpt lat="47.26859" lon="-1.48708">
        <ele>84</ele>
        <time>2022-03-27T10:44:02Z</time>
      </trkpt>
      <trkpt lat="47.26868" lon="-1.48696">
        <ele>84</ele>
        <time>2022-03-27T10:44:04Z</time>
      </trkpt>
      <trkpt lat="47.26877" lon="-1.48685">
        <ele>84</ele>
        <time>2022-03-27T10:44:06Z</time>
      </trkpt>
      <trkpt lat="47.26888" lon="-1.48675">
        <ele>84</ele>
        <time>2022-03-27T10:44:08Z</time>
      </trkpt>
      <trkpt lat="47.26899" lon="-1.48665">
        <ele>84</ele>
        <time>2022-03-27T10:44:10Z</time>
      </trkpt>
      <trkpt lat="47.26909" lon="-1.48655">
        <ele>84</ele>
        <time>2022-03-27T10:44:12Z</time>
      </trkpt>
      <trkpt lat="47.2692" lon="-1.48646">
        <ele>84</ele>
        <time>2022-03-27T10:44:14Z</time>
      </trkpt>
      <trkpt lat="47.26932" lon="-1.48638">
        <ele>84</ele>
        <time>2022-03-27T10:44:16Z</time>
      </trkpt>
      <trkpt lat="47.26943" lon="-1.48629">
        <ele>85</ele>
        <time>2022-03-27T10:44:18Z</time>
      </trkpt>
      <trkpt lat="47.26954" lon="-1.4862">
        <ele>85</ele>
        <time>2022-03-27T10:44:20Z</time>
      </trkpt>
      <trkpt lat="47.26965" lon="-1.48612">
        <ele>85</ele>
        <time>2022-03-27T10:44:22Z</time>
      </trkpt>
      <trkpt lat="47.26976" lon="-1.48603">
        <ele>85</ele>
        <time>2022-03-27T10:44:24Z</time>
      </trkpt>
      <trkpt lat="47.26988" lon="-1.48594">
        <ele>84</ele>
        <time>2022-03-27T10:44:26Z</time>
      </trkpt>
      <trkpt lat="47.26999" lon="-1.48586">
        <ele>84</ele>
        <time>2022-03-27T10:44:28Z</time>
      </trkpt>
      <trkpt lat="47.27011" lon="-1.48577">
        <ele>83</ele>
        <time>2022-03-27T10:44:30Z</time>
      </trkpt>
      <trkpt lat="47.27023" lon="-1.4857">
        <ele>84</ele>
        <time>2022-03-27T10:44:32Z</time>
      </trkpt>
      <trkpt lat="47.27034" lon="-1.48561">
        <ele>84</ele>
        <time>2022-03-27T10:44:34Z</time>
      </trkpt>
      <trkpt lat="47.27046" lon="-1.48554">
        <ele>83</ele>
        <time>2022-03-27T10:44:36Z</time>
      </trkpt>
      <trkpt lat="47.27057" lon="-1.48545">
        <ele>83</ele>
        <time>2022-03-27T10:44:38Z</time>
      </trkpt>
      <trkpt lat="47.27068" lon="-1.48538">
        <ele>84</ele>
        <time>2022-03-27T10:44:40Z</time>
      </trkpt>
      <trkpt lat="47.2708" lon="-1.48533">
        <ele>84</ele>
        <time>2022-03-27T10:44:42Z</time>
      </trkpt>
      <trkpt lat="47.27091" lon="-1.48526">
        <ele>83</ele>
        <time>2022-03-27T10:44:44Z</time>
      </trkpt>
      <trkpt lat="47.27102" lon="-1.48516">
        <ele>84</ele>
        <time>2022-03-27T10:44:46Z</time>
      </trkpt>
      <trkpt lat="47.27113" lon="-1.48508">
        <ele>83</ele>
        <time>2022-03-27T10:44:48Z</time>
      </trkpt>
      <trkpt lat="47.27124" lon="-1.48499">
        <ele>84</ele>
        <time>2022-03-27T10:44:50Z</time>
      </trkpt>
      <trkpt lat="47.27135" lon="-1.4849">
        <ele>83</ele>
        <time>2022-03-27T10:44:52Z</time>
      </trkpt>
      <trkpt lat="47.27146" lon="-1.48481">
        <ele>84</ele>
        <time>2022-03-27T10:44:54Z</time>
      </trkpt>
      <trkpt lat="47.27158" lon="-1.48472">
        <ele>84</ele>
        <time>2022-03-27T10:44:56Z</time>
      </trkpt>
      <trkpt lat="47.27169" lon="-1.48463">
        <ele>84</ele>
        <time>2022-03-27T10:44:58Z</time>
      </trkpt>
      <trkpt lat="47.2718" lon="-1.48455">
        <ele>84</ele>
        <time>2022-03-27T10:45:00Z</time>
      </trkpt>
      <trkpt lat="47.2719" lon="-1.48446">
        <ele>84</ele>
        <time>2022-03-27T10:45:02Z</time>
      </trkpt>
      <trkpt lat="47.27199" lon="-1.48439">
        <ele>84</ele>
        <time>2022-03-27T10:45:04Z</time>
      </trkpt>
      <trkpt lat="47.27207" lon="-1.48433">
        <ele>84</ele>
        <time>2022-03-27T10:45:07Z</time>
      </trkpt>
      <trkpt lat="47.27217" lon="-1.48424">
        <ele>84</ele>
        <time>2022-03-27T10:45:15Z</time>
      </trkpt>
      <trkpt lat="47.2723" lon="-1.48414">
        <ele>84</ele>
        <time>2022-03-27T10:45:18Z</time>
      </trkpt>
      <trkpt lat="47.2724" lon="-1.48405">
        <ele>84</ele>
        <time>2022-03-27T10:45:20Z</time>
      </trkpt>
      <trkpt lat="47.2725" lon="-1.48397">
        <ele>85</ele>
        <time>2022-03-27T10:45:22Z</time>
      </trkpt>
      <trkpt lat="47.27261" lon="-1.48388">
        <ele>85</ele>
        <time>2022-03-27T10:45:24Z</time>
      </trkpt>
      <trkpt lat="47.27271" lon="-1.48379">
        <ele>85</ele>
        <time>2022-03-27T10:45:26Z</time>
      </trkpt>
      <trkpt lat="47.27282" lon="-1.4837">
        <ele>85</ele>
        <time>2022-03-27T10:45:28Z</time>
      </trkpt>
      <trkpt lat="47.27294" lon="-1.48363">
        <ele>85</ele>
        <time>2022-03-27T10:45:30Z</time>
      </trkpt>
      <trkpt lat="47.27305" lon="-1.48356">
        <ele>85</ele>
        <time>2022-03-27T10:45:32Z</time>
      </trkpt>
      <trkpt lat="47.27318" lon="-1.48349">
        <ele>85</ele>
        <time>2022-03-27T10:45:34Z</time>
      </trkpt>
      <trkpt lat="47.27329" lon="-1.48343">
        <ele>86</ele>
        <time>2022-03-27T10:45:36Z</time>
      </trkpt>
      <trkpt lat="47.27342" lon="-1.48337">
        <ele>86</ele>
        <time>2022-03-27T10:45:38Z</time>
      </trkpt>
      <trkpt lat="47.27355" lon="-1.48334">
        <ele>86</ele>
        <time>2022-03-27T10:45:40Z</time>
      </trkpt>
      <trkpt lat="47.27368" lon="-1.48331">
        <ele>86</ele>
        <time>2022-03-27T10:45:42Z</time>
      </trkpt>
      <trkpt lat="47.27381" lon="-1.4833">
        <ele>87</ele>
        <time>2022-03-27T10:45:44Z</time>
      </trkpt>
      <trkpt lat="47.27394" lon="-1.4833">
        <ele>87</ele>
        <time>2022-03-27T10:45:46Z</time>
      </trkpt>
      <trkpt lat="47.27407" lon="-1.48332">
        <ele>87</ele>
        <time>2022-03-27T10:45:48Z</time>
      </trkpt>
      <trkpt lat="47.2742" lon="-1.48334">
        <ele>87</ele>
        <time>2022-03-27T10:45:50Z</time>
      </trkpt>
      <trkpt lat="47.27433" lon="-1.48335">
        <ele>88</ele>
        <time>2022-03-27T10:45:52Z</time>
      </trkpt>
      <trkpt lat="47.27445" lon="-1.48336">
        <ele>88</ele>
        <time>2022-03-27T10:45:54Z</time>
      </trkpt>
      <trkpt lat="47.27458" lon="-1.48338">
        <ele>88</ele>
        <time>2022-03-27T10:45:56Z</time>
      </trkpt>
      <trkpt lat="47.2747" lon="-1.48341">
        <ele>88</ele>
        <time>2022-03-27T10:45:58Z</time>
      </trkpt>
      <trkpt lat="47.27483" lon="-1.48342">
        <ele>88</ele>
        <time>2022-03-27T10:46:00Z</time>
      </trkpt>
      <trkpt lat="47.27495" lon="-1.48344">
        <ele>89</ele>
        <time>2022-03-27T10:46:02Z</time>
      </trkpt>
      <trkpt lat="47.27508" lon="-1.48347">
        <ele>90</ele>
        <time>2022-03-27T10:46:04Z</time>
      </trkpt>
      <trkpt lat="47.27521" lon="-1.48348">
        <ele>89</ele>
        <time>2022-03-27T10:46:06Z</time>
      </trkpt>
      <trkpt lat="47.27534" lon="-1.4835">
        <ele>90</ele>
        <time>2022-03-27T10:46:08Z</time>
      </trkpt>
      <trkpt lat="47.27546" lon="-1.48352">
        <ele>90</ele>
        <time>2022-03-27T10:46:10Z</time>
      </trkpt>
      <trkpt lat="47.27559" lon="-1.48353">
        <ele>90</ele>
        <time>2022-03-27T10:46:12Z</time>
      </trkpt>
      <trkpt lat="47.27571" lon="-1.48353">
        <ele>90</ele>
        <time>2022-03-27T10:46:14Z</time>
      </trkpt>
      <trkpt lat="47.27583" lon="-1.48348">
        <ele>89</ele>
        <time>2022-03-27T10:46:16Z</time>
      </trkpt>
      <trkpt lat="47.27594" lon="-1.48344">
        <ele>89</ele>
        <time>2022-03-27T10:46:18Z</time>
      </trkpt>
      <trkpt lat="47.27606" lon="-1.48342">
        <ele>88</ele>
        <time>2022-03-27T10:46:20Z</time>
      </trkpt>
      <trkpt lat="47.27618" lon="-1.48339">
        <ele>88</ele>
        <time>2022-03-27T10:46:22Z</time>
      </trkpt>
      <trkpt lat="47.27631" lon="-1.48336">
        <ele>87</ele>
        <time>2022-03-27T10:46:24Z</time>
      </trkpt>
      <trkpt lat="47.27644" lon="-1.48333">
        <ele>87</ele>
        <time>2022-03-27T10:46:26Z</time>
      </trkpt>
      <trkpt lat="47.27658" lon="-1.48332">
        <ele>86</ele>
        <time>2022-03-27T10:46:28Z</time>
      </trkpt>
      <trkpt lat="47.27671" lon="-1.48332">
        <ele>86</ele>
        <time>2022-03-27T10:46:30Z</time>
      </trkpt>
      <trkpt lat="47.27686" lon="-1.48335">
        <ele>85</ele>
        <time>2022-03-27T10:46:32Z</time>
      </trkpt>
      <trkpt lat="47.277" lon="-1.4834">
        <ele>86</ele>
        <time>2022-03-27T10:46:34Z</time>
      </trkpt>
      <trkpt lat="47.27714" lon="-1.48348">
        <ele>86</ele>
        <time>2022-03-27T10:46:36Z</time>
      </trkpt>
      <trkpt lat="47.27728" lon="-1.48358">
        <ele>85</ele>
        <time>2022-03-27T10:46:38Z</time>
      </trkpt>
      <trkpt lat="47.27741" lon="-1.4837">
        <ele>85</ele>
        <time>2022-03-27T10:46:40Z</time>
      </trkpt>
      <trkpt lat="47.27755" lon="-1.48383">
        <ele>83</ele>
        <time>2022-03-27T10:46:42Z</time>
      </trkpt>
      <trkpt lat="47.2777" lon="-1.48396">
        <ele>82</ele>
        <time>2022-03-27T10:46:44Z</time>
      </trkpt>
      <trkpt lat="47.27784" lon="-1.48409">
        <ele>81</ele>
        <time>2022-03-27T10:46:46Z</time>
      </trkpt>
      <trkpt lat="47.27799" lon="-1.48422">
        <ele>80</ele>
        <time>2022-03-27T10:46:48Z</time>
      </trkpt>
      <trkpt lat="47.27814" lon="-1.48435">
        <ele>80</ele>
        <time>2022-03-27T10:46:50Z</time>
      </trkpt>
      <trkpt lat="47.27829" lon="-1.48445">
        <ele>80</ele>
        <time>2022-03-27T10:46:52Z</time>
      </trkpt>
      <trkpt lat="47.27843" lon="-1.48454">
        <ele>80</ele>
        <time>2022-03-27T10:46:54Z</time>
      </trkpt>
      <trkpt lat="47.27859" lon="-1.4846">
        <ele>79</ele>
        <time>2022-03-27T10:46:56Z</time>
      </trkpt>
      <trkpt lat="47.27874" lon="-1.48465">
        <ele>78</ele>
        <time>2022-03-27T10:46:58Z</time>
      </trkpt>
      <trkpt lat="47.27889" lon="-1.48472">
        <ele>78</ele>
        <time>2022-03-27T10:47:00Z</time>
      </trkpt>
      <trkpt lat="47.27904" lon="-1.48479">
        <ele>77</ele>
        <time>2022-03-27T10:47:02Z</time>
      </trkpt>
      <trkpt lat="47.27919" lon="-1.48486">
        <ele>77</ele>
        <time>2022-03-27T10:47:04Z</time>
      </trkpt>
      <trkpt lat="47.27934" lon="-1.48492">
        <ele>76</ele>
        <time>2022-03-27T10:47:06Z</time>
      </trkpt>
      <trkpt lat="47.27949" lon="-1.48499">
        <ele>76</ele>
        <time>2022-03-27T10:47:08Z</time>
      </trkpt>
      <trkpt lat="47.27963" lon="-1.48507">
        <ele>75</ele>
        <time>2022-03-27T10:47:10Z</time>
      </trkpt>
      <trkpt lat="47.27977" lon="-1.48512">
        <ele>75</ele>
        <time>2022-03-27T10:47:12Z</time>
      </trkpt>
      <trkpt lat="47.27989" lon="-1.4851">
        <ele>74</ele>
        <time>2022-03-27T10:47:14Z</time>
      </trkpt>
      <trkpt lat="47.27999" lon="-1.4852">
        <ele>74</ele>
        <time>2022-03-27T10:47:16Z</time>
      </trkpt>
      <trkpt lat="47.28009" lon="-1.48527">
        <ele>74</ele>
        <time>2022-03-27T10:47:18Z</time>
      </trkpt>
      <trkpt lat="47.28022" lon="-1.4853">
        <ele>74</ele>
        <time>2022-03-27T10:47:20Z</time>
      </trkpt>
      <trkpt lat="47.28037" lon="-1.48532">
        <ele>73</ele>
        <time>2022-03-27T10:47:22Z</time>
      </trkpt>
      <trkpt lat="47.28051" lon="-1.48534">
        <ele>73</ele>
        <time>2022-03-27T10:47:24Z</time>
      </trkpt>
      <trkpt lat="47.28066" lon="-1.48534">
        <ele>73</ele>
        <time>2022-03-27T10:47:26Z</time>
      </trkpt>
      <trkpt lat="47.2808" lon="-1.48533">
        <ele>73</ele>
        <time>2022-03-27T10:47:28Z</time>
      </trkpt>
      <trkpt lat="47.28095" lon="-1.48532">
        <ele>73</ele>
        <time>2022-03-27T10:47:30Z</time>
      </trkpt>
      <trkpt lat="47.28109" lon="-1.48532">
        <ele>73</ele>
        <time>2022-03-27T10:47:32Z</time>
      </trkpt>
      <trkpt lat="47.28123" lon="-1.48531">
        <ele>73</ele>
        <time>2022-03-27T10:47:34Z</time>
      </trkpt>
      <trkpt lat="47.28138" lon="-1.48531">
        <ele>73</ele>
        <time>2022-03-27T10:47:36Z</time>
      </trkpt>
      <trkpt lat="47.28153" lon="-1.4853">
        <ele>73</ele>
        <time>2022-03-27T10:47:38Z</time>
      </trkpt>
      <trkpt lat="47.28167" lon="-1.48529">
        <ele>73</ele>
        <time>2022-03-27T10:47:40Z</time>
      </trkpt>
      <trkpt lat="47.2818" lon="-1.48528">
        <ele>73</ele>
        <time>2022-03-27T10:47:42Z</time>
      </trkpt>
      <trkpt lat="47.28193" lon="-1.48528">
        <ele>73</ele>
        <time>2022-03-27T10:47:44Z</time>
      </trkpt>
      <trkpt lat="47.28203" lon="-1.48518">
        <ele>72</ele>
        <time>2022-03-27T10:47:46Z</time>
      </trkpt>
      <trkpt lat="47.28205" lon="-1.48501">
        <ele>72</ele>
        <time>2022-03-27T10:47:48Z</time>
      </trkpt>
      <trkpt lat="47.28214" lon="-1.48493">
        <ele>72</ele>
        <time>2022-03-27T10:47:50Z</time>
      </trkpt>
      <trkpt lat="47.28228" lon="-1.48501">
        <ele>71</ele>
        <time>2022-03-27T10:47:52Z</time>
      </trkpt>
      <trkpt lat="47.28238" lon="-1.48516">
        <ele>71</ele>
        <time>2022-03-27T10:47:54Z</time>
      </trkpt>
      <trkpt lat="47.2825" lon="-1.48527">
        <ele>71</ele>
        <time>2022-03-27T10:47:56Z</time>
      </trkpt>
      <trkpt lat="47.28264" lon="-1.48536">
        <ele>70</ele>
        <time>2022-03-27T10:47:58Z</time>
      </trkpt>
      <trkpt lat="47.28276" lon="-1.48547">
        <ele>70</ele>
        <time>2022-03-27T10:48:00Z</time>
      </trkpt>
      <trkpt lat="47.28287" lon="-1.48559">
        <ele>71</ele>
        <time>2022-03-27T10:48:02Z</time>
      </trkpt>
      <trkpt lat="47.28298" lon="-1.48575">
        <ele>71</ele>
        <time>2022-03-27T10:48:04Z</time>
      </trkpt>
      <trkpt lat="47.28306" lon="-1.48595">
        <ele>70</ele>
        <time>2022-03-27T10:48:06Z</time>
      </trkpt>
      <trkpt lat="47.28314" lon="-1.48612">
        <ele>71</ele>
        <time>2022-03-27T10:48:08Z</time>
      </trkpt>
      <trkpt lat="47.28324" lon="-1.48618">
        <ele>72</ele>
        <time>2022-03-27T10:48:10Z</time>
      </trkpt>
      <trkpt lat="47.2834" lon="-1.48617">
        <ele>72</ele>
        <time>2022-03-27T10:48:12Z</time>
      </trkpt>
      <trkpt lat="47.28353" lon="-1.48623">
        <ele>71</ele>
        <time>2022-03-27T10:48:14Z</time>
      </trkpt>
      <trkpt lat="47.28365" lon="-1.48633">
        <ele>72</ele>
        <time>2022-03-27T10:48:16Z</time>
      </trkpt>
      <trkpt lat="47.28376" lon="-1.48643">
        <ele>72</ele>
        <time>2022-03-27T10:48:18Z</time>
      </trkpt>
      <trkpt lat="47.28389" lon="-1.48644">
        <ele>72</ele>
        <time>2022-03-27T10:48:20Z</time>
      </trkpt>
      <trkpt lat="47.28401" lon="-1.4864">
        <ele>72</ele>
        <time>2022-03-27T10:48:22Z</time>
      </trkpt>
      <trkpt lat="47.28413" lon="-1.48635">
        <ele>73</ele>
        <time>2022-03-27T10:48:24Z</time>
      </trkpt>
      <trkpt lat="47.28425" lon="-1.48627">
        <ele>73</ele>
        <time>2022-03-27T10:48:26Z</time>
      </trkpt>
      <trkpt lat="47.28436" lon="-1.48618">
        <ele>74</ele>
        <time>2022-03-27T10:48:28Z</time>
      </trkpt>
      <trkpt lat="47.28446" lon="-1.48609">
        <ele>74</ele>
        <time>2022-03-27T10:48:30Z</time>
      </trkpt>
      <trkpt lat="47.28456" lon="-1.48599">
        <ele>75</ele>
        <time>2022-03-27T10:48:32Z</time>
      </trkpt>
      <trkpt lat="47.28467" lon="-1.4859">
        <ele>75</ele>
        <time>2022-03-27T10:48:34Z</time>
      </trkpt>
      <trkpt lat="47.28477" lon="-1.48582">
        <ele>74</ele>
        <time>2022-03-27T10:48:36Z</time>
      </trkpt>
      <trkpt lat="47.28487" lon="-1.48574">
        <ele>74</ele>
        <time>2022-03-27T10:48:38Z</time>
      </trkpt>
      <trkpt lat="47.28497" lon="-1.48565">
        <ele>75</ele>
        <time>2022-03-27T10:48:40Z</time>
      </trkpt>
      <trkpt lat="47.28507" lon="-1.48557">
        <ele>75</ele>
        <time>2022-03-27T10:48:42Z</time>
      </trkpt>
      <trkpt lat="47.28517" lon="-1.48549">
        <ele>76</ele>
        <time>2022-03-27T10:48:44Z</time>
      </trkpt>
      <trkpt lat="47.28527" lon="-1.4854">
        <ele>76</ele>
        <time>2022-03-27T10:48:46Z</time>
      </trkpt>
      <trkpt lat="47.28538" lon="-1.48531">
        <ele>76</ele>
        <time>2022-03-27T10:48:48Z</time>
      </trkpt>
      <trkpt lat="47.28549" lon="-1.48523">
        <ele>77</ele>
        <time>2022-03-27T10:48:50Z</time>
      </trkpt>
      <trkpt lat="47.2856" lon="-1.48515">
        <ele>77</ele>
        <time>2022-03-27T10:48:52Z</time>
      </trkpt>
      <trkpt lat="47.2857" lon="-1.48507">
        <ele>77</ele>
        <time>2022-03-27T10:48:54Z</time>
      </trkpt>
      <trkpt lat="47.28579" lon="-1.48499">
        <ele>77</ele>
        <time>2022-03-27T10:48:56Z</time>
      </trkpt>
      <trkpt lat="47.28589" lon="-1.4849">
        <ele>78</ele>
        <time>2022-03-27T10:48:58Z</time>
      </trkpt>
      <trkpt lat="47.28599" lon="-1.48482">
        <ele>78</ele>
        <time>2022-03-27T10:49:00Z</time>
      </trkpt>
      <trkpt lat="47.2861" lon="-1.48474">
        <ele>79</ele>
        <time>2022-03-27T10:49:02Z</time>
      </trkpt>
      <trkpt lat="47.2862" lon="-1.48466">
        <ele>79</ele>
        <time>2022-03-27T10:49:04Z</time>
      </trkpt>
      <trkpt lat="47.2863" lon="-1.48458">
        <ele>79</ele>
        <time>2022-03-27T10:49:06Z</time>
      </trkpt>
      <trkpt lat="47.28642" lon="-1.48451">
        <ele>80</ele>
        <time>2022-03-27T10:49:08Z</time>
      </trkpt>
      <trkpt lat="47.28653" lon="-1.48445">
        <ele>81</ele>
        <time>2022-03-27T10:49:10Z</time>
      </trkpt>
      <trkpt lat="47.28664" lon="-1.48439">
        <ele>81</ele>
        <time>2022-03-27T10:49:12Z</time>
      </trkpt>
      <trkpt lat="47.28676" lon="-1.48434">
        <ele>81</ele>
        <time>2022-03-27T10:49:14Z</time>
      </trkpt>
      <trkpt lat="47.28687" lon="-1.48428">
        <ele>81</ele>
        <time>2022-03-27T10:49:16Z</time>
      </trkpt>
      <trkpt lat="47.28699" lon="-1.48424">
        <ele>82</ele>
        <time>2022-03-27T10:49:18Z</time>
      </trkpt>
      <trkpt lat="47.28711" lon="-1.48419">
        <ele>82</ele>
        <time>2022-03-27T10:49:20Z</time>
      </trkpt>
      <trkpt lat="47.28722" lon="-1.48415">
        <ele>82</ele>
        <time>2022-03-27T10:49:22Z</time>
      </trkpt>
      <trkpt lat="47.28733" lon="-1.48412">
        <ele>82</ele>
        <time>2022-03-27T10:49:24Z</time>
      </trkpt>
      <trkpt lat="47.28744" lon="-1.48408">
        <ele>82</ele>
        <time>2022-03-27T10:49:26Z</time>
      </trkpt>
      <trkpt lat="47.28755" lon="-1.48403">
        <ele>82</ele>
        <time>2022-03-27T10:49:28Z</time>
      </trkpt>
      <trkpt lat="47.28763" lon="-1.48393">
        <ele>81</ele>
        <time>2022-03-27T10:49:30Z</time>
      </trkpt>
      <trkpt lat="47.2877" lon="-1.4838">
        <ele>81</ele>
        <time>2022-03-27T10:49:32Z</time>
      </trkpt>
      <trkpt lat="47.28784" lon="-1.48376">
        <ele>80</ele>
        <time>2022-03-27T10:49:34Z</time>
      </trkpt>
      <trkpt lat="47.28797" lon="-1.4838">
        <ele>80</ele>
        <time>2022-03-27T10:49:36Z</time>
      </trkpt>
      <trkpt lat="47.28808" lon="-1.4839">
        <ele>80</ele>
        <time>2022-03-27T10:49:38Z</time>
      </trkpt>
      <trkpt lat="47.28819" lon="-1.48401">
        <ele>79</ele>
        <time>2022-03-27T10:49:40Z</time>
      </trkpt>
      <trkpt lat="47.28832" lon="-1.48405">
        <ele>79</ele>
        <time>2022-03-27T10:49:42Z</time>
      </trkpt>
      <trkpt lat="47.28845" lon="-1.48411">
        <ele>79</ele>
        <time>2022-03-27T10:49:44Z</time>
      </trkpt>
      <trkpt lat="47.28858" lon="-1.48416">
        <ele>79</ele>
        <time>2022-03-27T10:49:46Z</time>
      </trkpt>
      <trkpt lat="47.28872" lon="-1.48421">
        <ele>80</ele>
        <time>2022-03-27T10:49:48Z</time>
      </trkpt>
      <trkpt lat="47.28886" lon="-1.48429">
        <ele>80</ele>
        <time>2022-03-27T10:49:50Z</time>
      </trkpt>
      <trkpt lat="47.28899" lon="-1.48437">
        <ele>80</ele>
        <time>2022-03-27T10:49:52Z</time>
      </trkpt>
      <trkpt lat="47.28912" lon="-1.48445">
        <ele>80</ele>
        <time>2022-03-27T10:49:54Z</time>
      </trkpt>
      <trkpt lat="47.28926" lon="-1.48452">
        <ele>80</ele>
        <time>2022-03-27T10:49:56Z</time>
      </trkpt>
      <trkpt lat="47.28939" lon="-1.48461">
        <ele>80</ele>
        <time>2022-03-27T10:49:58Z</time>
      </trkpt>
      <trkpt lat="47.28953" lon="-1.4847">
        <ele>80</ele>
        <time>2022-03-27T10:50:00Z</time>
      </trkpt>
      <trkpt lat="47.28966" lon="-1.4848">
        <ele>80</ele>
        <time>2022-03-27T10:50:02Z</time>
      </trkpt>
      <trkpt lat="47.2898" lon="-1.48492">
        <ele>79</ele>
        <time>2022-03-27T10:50:04Z</time>
      </trkpt>
      <trkpt lat="47.28993" lon="-1.48502">
        <ele>79</ele>
        <time>2022-03-27T10:50:06Z</time>
      </trkpt>
      <trkpt lat="47.29006" lon="-1.48513">
        <ele>80</ele>
        <time>2022-03-27T10:50:08Z</time>
      </trkpt>
      <trkpt lat="47.29021" lon="-1.48523">
        <ele>79</ele>
        <time>2022-03-27T10:50:10Z</time>
      </trkpt>
      <trkpt lat="47.29035" lon="-1.48534">
        <ele>80</ele>
        <time>2022-03-27T10:50:12Z</time>
      </trkpt>
      <trkpt lat="47.29049" lon="-1.48544">
        <ele>81</ele>
        <time>2022-03-27T10:50:14Z</time>
      </trkpt>
      <trkpt lat="47.29063" lon="-1.48553">
        <ele>80</ele>
        <time>2022-03-27T10:50:16Z</time>
      </trkpt>
      <trkpt lat="47.29077" lon="-1.48564">
        <ele>79</ele>
        <time>2022-03-27T10:50:18Z</time>
      </trkpt>
      <trkpt lat="47.29091" lon="-1.48575">
        <ele>78</ele>
        <time>2022-03-27T10:50:20Z</time>
      </trkpt>
      <trkpt lat="47.29105" lon="-1.48584">
        <ele>77</ele>
        <time>2022-03-27T10:50:22Z</time>
      </trkpt>
      <trkpt lat="47.29118" lon="-1.48594">
        <ele>77</ele>
        <time>2022-03-27T10:50:24Z</time>
      </trkpt>
      <trkpt lat="47.29131" lon="-1.48604">
        <ele>77</ele>
        <time>2022-03-27T10:50:26Z</time>
      </trkpt>
      <trkpt lat="47.29145" lon="-1.48613">
        <ele>77</ele>
        <time>2022-03-27T10:50:28Z</time>
      </trkpt>
      <trkpt lat="47.29158" lon="-1.48623">
        <ele>75</ele>
        <time>2022-03-27T10:50:30Z</time>
      </trkpt>
      <trkpt lat="47.29172" lon="-1.48633">
        <ele>75</ele>
        <time>2022-03-27T10:50:32Z</time>
      </trkpt>
      <trkpt lat="47.29185" lon="-1.48642">
        <ele>76</ele>
        <time>2022-03-27T10:50:34Z</time>
      </trkpt>
      <trkpt lat="47.29197" lon="-1.48652">
        <ele>76</ele>
        <time>2022-03-27T10:50:36Z</time>
      </trkpt>
      <trkpt lat="47.2921" lon="-1.48662">
        <ele>76</ele>
        <time>2022-03-27T10:50:38Z</time>
      </trkpt>
      <trkpt lat="47.29222" lon="-1.48673">
        <ele>75</ele>
        <time>2022-03-27T10:50:40Z</time>
      </trkpt>
      <trkpt lat="47.29234" lon="-1.48683">
        <ele>75</ele>
        <time>2022-03-27T10:50:42Z</time>
      </trkpt>
      <trkpt lat="47.29247" lon="-1.48683">
        <ele>75</ele>
        <time>2022-03-27T10:50:44Z</time>
      </trkpt>
      <trkpt lat="47.29255" lon="-1.48677">
        <ele>76</ele>
        <time>2022-03-27T10:50:46Z</time>
      </trkpt>
      <trkpt lat="47.29268" lon="-1.48681">
        <ele>76</ele>
        <time>2022-03-27T10:50:49Z</time>
      </trkpt>
      <trkpt lat="47.29275" lon="-1.48693">
        <ele>77</ele>
        <time>2022-03-27T10:50:51Z</time>
      </trkpt>
      <trkpt lat="47.29277" lon="-1.4871">
        <ele>78</ele>
        <time>2022-03-27T10:50:53Z</time>
      </trkpt>
      <trkpt lat="47.29283" lon="-1.48726">
        <ele>78</ele>
        <time>2022-03-27T10:50:55Z</time>
      </trkpt>
      <trkpt lat="47.29295" lon="-1.48735">
        <ele>78</ele>
        <time>2022-03-27T10:50:57Z</time>
      </trkpt>
      <trkpt lat="47.29308" lon="-1.48745">
        <ele>78</ele>
        <time>2022-03-27T10:50:59Z</time>
      </trkpt>
      <trkpt lat="47.2932" lon="-1.48756">
        <ele>78</ele>
        <time>2022-03-27T10:51:01Z</time>
      </trkpt>
      <trkpt lat="47.29331" lon="-1.48765">
        <ele>78</ele>
        <time>2022-03-27T10:51:03Z</time>
      </trkpt>
      <trkpt lat="47.29344" lon="-1.48773">
        <ele>79</ele>
        <time>2022-03-27T10:51:05Z</time>
      </trkpt>
      <trkpt lat="47.29356" lon="-1.4878">
        <ele>78</ele>
        <time>2022-03-27T10:51:07Z</time>
      </trkpt>
      <trkpt lat="47.29369" lon="-1.48785">
        <ele>78</ele>
        <time>2022-03-27T10:51:09Z</time>
      </trkpt>
      <trkpt lat="47.29381" lon="-1.48787">
        <ele>79</ele>
        <time>2022-03-27T10:51:11Z</time>
      </trkpt>
      <trkpt lat="47.29393" lon="-1.48783">
        <ele>79</ele>
        <time>2022-03-27T10:51:13Z</time>
      </trkpt>
      <trkpt lat="47.29404" lon="-1.48781">
        <ele>79</ele>
        <time>2022-03-27T10:51:15Z</time>
      </trkpt>
      <trkpt lat="47.29415" lon="-1.48777">
        <ele>79</ele>
        <time>2022-03-27T10:51:17Z</time>
      </trkpt>
      <trkpt lat="47.29425" lon="-1.48768">
        <ele>80</ele>
        <time>2022-03-27T10:51:19Z</time>
      </trkpt>
      <trkpt lat="47.29436" lon="-1.48759">
        <ele>80</ele>
        <time>2022-03-27T10:51:21Z</time>
      </trkpt>
      <trkpt lat="47.29447" lon="-1.4875">
        <ele>80</ele>
        <time>2022-03-27T10:51:23Z</time>
      </trkpt>
      <trkpt lat="47.29459" lon="-1.48741">
        <ele>81</ele>
        <time>2022-03-27T10:51:25Z</time>
      </trkpt>
      <trkpt lat="47.29471" lon="-1.48732">
        <ele>81</ele>
        <time>2022-03-27T10:51:27Z</time>
      </trkpt>
      <trkpt lat="47.29482" lon="-1.48722">
        <ele>82</ele>
        <time>2022-03-27T10:51:29Z</time>
      </trkpt>
      <trkpt lat="47.29493" lon="-1.48713">
        <ele>82</ele>
        <time>2022-03-27T10:51:31Z</time>
      </trkpt>
      <trkpt lat="47.29504" lon="-1.48703">
        <ele>82</ele>
        <time>2022-03-27T10:51:33Z</time>
      </trkpt>
      <trkpt lat="47.29516" lon="-1.48693">
        <ele>82</ele>
        <time>2022-03-27T10:51:35Z</time>
      </trkpt>
      <trkpt lat="47.29528" lon="-1.48685">
        <ele>82</ele>
        <time>2022-03-27T10:51:37Z</time>
      </trkpt>
      <trkpt lat="47.29541" lon="-1.48679">
        <ele>81</ele>
        <time>2022-03-27T10:51:39Z</time>
      </trkpt>
      <trkpt lat="47.29555" lon="-1.48673">
        <ele>81</ele>
        <time>2022-03-27T10:51:41Z</time>
      </trkpt>
      <trkpt lat="47.29571" lon="-1.48666">
        <ele>80</ele>
        <time>2022-03-27T10:51:43Z</time>
      </trkpt>
      <trkpt lat="47.29586" lon="-1.4866">
        <ele>80</ele>
        <time>2022-03-27T10:51:45Z</time>
      </trkpt>
      <trkpt lat="47.29602" lon="-1.48654">
        <ele>80</ele>
        <time>2022-03-27T10:51:47Z</time>
      </trkpt>
      <trkpt lat="47.29617" lon="-1.48648">
        <ele>80</ele>
        <time>2022-03-27T10:51:49Z</time>
      </trkpt>
      <trkpt lat="47.2963" lon="-1.48637">
        <ele>80</ele>
        <time>2022-03-27T10:51:51Z</time>
      </trkpt>
      <trkpt lat="47.29641" lon="-1.48623">
        <ele>80</ele>
        <time>2022-03-27T10:51:53Z</time>
      </trkpt>
      <trkpt lat="47.29653" lon="-1.48614">
        <ele>79</ele>
        <time>2022-03-27T10:51:55Z</time>
      </trkpt>
      <trkpt lat="47.29665" lon="-1.4861">
        <ele>79</ele>
        <time>2022-03-27T10:51:57Z</time>
      </trkpt>
      <trkpt lat="47.29678" lon="-1.48604">
        <ele>79</ele>
        <time>2022-03-27T10:51:59Z</time>
      </trkpt>
      <trkpt lat="47.29689" lon="-1.48599">
        <ele>79</ele>
        <time>2022-03-27T10:52:01Z</time>
      </trkpt>
      <trkpt lat="47.29703" lon="-1.486">
        <ele>80</ele>
        <time>2022-03-27T10:52:03Z</time>
      </trkpt>
      <trkpt lat="47.29716" lon="-1.48602">
        <ele>80</ele>
        <time>2022-03-27T10:52:05Z</time>
      </trkpt>
      <trkpt lat="47.29728" lon="-1.48606">
        <ele>79</ele>
        <time>2022-03-27T10:52:07Z</time>
      </trkpt>
      <trkpt lat="47.29741" lon="-1.48609">
        <ele>79</ele>
        <time>2022-03-27T10:52:09Z</time>
      </trkpt>
      <trkpt lat="47.29752" lon="-1.48613">
        <ele>79</ele>
        <time>2022-03-27T10:52:11Z</time>
      </trkpt>
      <trkpt lat="47.29762" lon="-1.48617">
        <ele>79</ele>
        <time>2022-03-27T10:52:13Z</time>
      </trkpt>
      <trkpt lat="47.29772" lon="-1.4862">
        <ele>78</ele>
        <time>2022-03-27T10:52:15Z</time>
      </trkpt>
      <trkpt lat="47.29781" lon="-1.4862">
        <ele>79</ele>
        <time>2022-03-27T10:52:17Z</time>
      </trkpt>
      <trkpt lat="47.29792" lon="-1.4862">
        <ele>79</ele>
        <time>2022-03-27T10:52:19Z</time>
      </trkpt>
      <trkpt lat="47.29803" lon="-1.48621">
        <ele>79</ele>
        <time>2022-03-27T10:52:21Z</time>
      </trkpt>
      <trkpt lat="47.29815" lon="-1.48623">
        <ele>78</ele>
        <time>2022-03-27T10:52:23Z</time>
      </trkpt>
      <trkpt lat="47.29828" lon="-1.48624">
        <ele>78</ele>
        <time>2022-03-27T10:52:25Z</time>
      </trkpt>
      <trkpt lat="47.29842" lon="-1.48626">
        <ele>78</ele>
        <time>2022-03-27T10:52:27Z</time>
      </trkpt>
      <trkpt lat="47.29857" lon="-1.48627">
        <ele>79</ele>
        <time>2022-03-27T10:52:29Z</time>
      </trkpt>
      <trkpt lat="47.29871" lon="-1.48627">
        <ele>79</ele>
        <time>2022-03-27T10:52:31Z</time>
      </trkpt>
      <trkpt lat="47.29885" lon="-1.48626">
        <ele>79</ele>
        <time>2022-03-27T10:52:33Z</time>
      </trkpt>
      <trkpt lat="47.299" lon="-1.48626">
        <ele>79</ele>
        <time>2022-03-27T10:52:35Z</time>
      </trkpt>
      <trkpt lat="47.29914" lon="-1.48625">
        <ele>79</ele>
        <time>2022-03-27T10:52:37Z</time>
      </trkpt>
      <trkpt lat="47.29928" lon="-1.48624">
        <ele>79</ele>
        <time>2022-03-27T10:52:39Z</time>
      </trkpt>
      <trkpt lat="47.29942" lon="-1.48623">
        <ele>79</ele>
        <time>2022-03-27T10:52:41Z</time>
      </trkpt>
      <trkpt lat="47.29956" lon="-1.48622">
        <ele>79</ele>
        <time>2022-03-27T10:52:43Z</time>
      </trkpt>
      <trkpt lat="47.2997" lon="-1.48619">
        <ele>80</ele>
        <time>2022-03-27T10:52:45Z</time>
      </trkpt>
      <trkpt lat="47.29984" lon="-1.48616">
        <ele>80</ele>
        <time>2022-03-27T10:52:47Z</time>
      </trkpt>
      <trkpt lat="47.29998" lon="-1.48614">
        <ele>79</ele>
        <time>2022-03-27T10:52:49Z</time>
      </trkpt>
      <trkpt lat="47.30014" lon="-1.48613">
        <ele>78</ele>
        <time>2022-03-27T10:52:51Z</time>
      </trkpt>
      <trkpt lat="47.30028" lon="-1.48611">
        <ele>77</ele>
        <time>2022-03-27T10:52:53Z</time>
      </trkpt>
      <trkpt lat="47.30043" lon="-1.48607">
        <ele>77</ele>
        <time>2022-03-27T10:52:55Z</time>
      </trkpt>
      <trkpt lat="47.30057" lon="-1.48603">
        <ele>77</ele>
        <time>2022-03-27T10:52:57Z</time>
      </trkpt>
      <trkpt lat="47.3007" lon="-1.48599">
        <ele>77</ele>
        <time>2022-03-27T10:52:59Z</time>
      </trkpt>
      <trkpt lat="47.30085" lon="-1.48594">
        <ele>77</ele>
        <time>2022-03-27T10:53:01Z</time>
      </trkpt>
      <trkpt lat="47.30099" lon="-1.48589">
        <ele>78</ele>
        <time>2022-03-27T10:53:03Z</time>
      </trkpt>
      <trkpt lat="47.30113" lon="-1.48583">
        <ele>78</ele>
        <time>2022-03-27T10:53:05Z</time>
      </trkpt>
      <trkpt lat="47.30127" lon="-1.48577">
        <ele>78</ele>
        <time>2022-03-27T10:53:07Z</time>
      </trkpt>
      <trkpt lat="47.30142" lon="-1.48572">
        <ele>78</ele>
        <time>2022-03-27T10:53:09Z</time>
      </trkpt>
      <trkpt lat="47.30156" lon="-1.48566">
        <ele>78</ele>
        <time>2022-03-27T10:53:11Z</time>
      </trkpt>
      <trkpt lat="47.3017" lon="-1.48558">
        <ele>77</ele>
        <time>2022-03-27T10:53:13Z</time>
      </trkpt>
      <trkpt lat="47.30184" lon="-1.48551">
        <ele>77</ele>
        <time>2022-03-27T10:53:15Z</time>
      </trkpt>
      <trkpt lat="47.30197" lon="-1.48545">
        <ele>76</ele>
        <time>2022-03-27T10:53:17Z</time>
      </trkpt>
      <trkpt lat="47.30211" lon="-1.48537">
        <ele>76</ele>
        <time>2022-03-27T10:53:19Z</time>
      </trkpt>
      <trkpt lat="47.30225" lon="-1.48529">
        <ele>75</ele>
        <time>2022-03-27T10:53:21Z</time>
      </trkpt>
      <trkpt lat="47.30238" lon="-1.48521">
        <ele>75</ele>
        <time>2022-03-27T10:53:23Z</time>
      </trkpt>
      <trkpt lat="47.30251" lon="-1.48512">
        <ele>74</ele>
        <time>2022-03-27T10:53:25Z</time>
      </trkpt>
      <trkpt lat="47.30264" lon="-1.48503">
        <ele>73</ele>
        <time>2022-03-27T10:53:27Z</time>
      </trkpt>
      <trkpt lat="47.30276" lon="-1.48494">
        <ele>73</ele>
        <time>2022-03-27T10:53:29Z</time>
      </trkpt>
      <trkpt lat="47.30288" lon="-1.48484">
        <ele>72</ele>
        <time>2022-03-27T10:53:31Z</time>
      </trkpt>
      <trkpt lat="47.30301" lon="-1.48475">
        <ele>72</ele>
        <time>2022-03-27T10:53:33Z</time>
      </trkpt>
      <trkpt lat="47.30313" lon="-1.48467">
        <ele>71</ele>
        <time>2022-03-27T10:53:35Z</time>
      </trkpt>
      <trkpt lat="47.30324" lon="-1.48458">
        <ele>71</ele>
        <time>2022-03-27T10:53:37Z</time>
      </trkpt>
      <trkpt lat="47.30334" lon="-1.4845">
        <ele>71</ele>
        <time>2022-03-27T10:53:39Z</time>
      </trkpt>
      <trkpt lat="47.30344" lon="-1.48443">
        <ele>71</ele>
        <time>2022-03-27T10:53:41Z</time>
      </trkpt>
      <trkpt lat="47.30354" lon="-1.48438">
        <ele>70</ele>
        <time>2022-03-27T10:53:44Z</time>
      </trkpt>
      <trkpt lat="47.30361" lon="-1.48425">
        <ele>68</ele>
        <time>2022-03-27T10:53:47Z</time>
      </trkpt>
      <trkpt lat="47.30371" lon="-1.4842">
        <ele>69</ele>
        <time>2022-03-27T10:53:49Z</time>
      </trkpt>
      <trkpt lat="47.30381" lon="-1.48411">
        <ele>69</ele>
        <time>2022-03-27T10:53:52Z</time>
      </trkpt>
      <trkpt lat="47.3039" lon="-1.48401">
        <ele>69</ele>
        <time>2022-03-27T10:53:54Z</time>
      </trkpt>
      <trkpt lat="47.304" lon="-1.48391">
        <ele>69</ele>
        <time>2022-03-27T10:53:56Z</time>
      </trkpt>
      <trkpt lat="47.3041" lon="-1.48379">
        <ele>69</ele>
        <time>2022-03-27T10:53:58Z</time>
      </trkpt>
      <trkpt lat="47.30422" lon="-1.48368">
        <ele>68</ele>
        <time>2022-03-27T10:54:00Z</time>
      </trkpt>
      <trkpt lat="47.30433" lon="-1.48356">
        <ele>68</ele>
        <time>2022-03-27T10:54:02Z</time>
      </trkpt>
      <trkpt lat="47.30445" lon="-1.48344">
        <ele>68</ele>
        <time>2022-03-27T10:54:04Z</time>
      </trkpt>
      <trkpt lat="47.30456" lon="-1.48332">
        <ele>67</ele>
        <time>2022-03-27T10:54:06Z</time>
      </trkpt>
      <trkpt lat="47.30467" lon="-1.4832">
        <ele>66</ele>
        <time>2022-03-27T10:54:08Z</time>
      </trkpt>
      <trkpt lat="47.30477" lon="-1.48307">
        <ele>66</ele>
        <time>2022-03-27T10:54:10Z</time>
      </trkpt>
      <trkpt lat="47.30488" lon="-1.48294">
        <ele>66</ele>
        <time>2022-03-27T10:54:12Z</time>
      </trkpt>
      <trkpt lat="47.30498" lon="-1.4828">
        <ele>65</ele>
        <time>2022-03-27T10:54:14Z</time>
      </trkpt>
      <trkpt lat="47.30508" lon="-1.48266">
        <ele>65</ele>
        <time>2022-03-27T10:54:16Z</time>
      </trkpt>
      <trkpt lat="47.30519" lon="-1.48252">
        <ele>65</ele>
        <time>2022-03-27T10:54:18Z</time>
      </trkpt>
      <trkpt lat="47.30528" lon="-1.48237">
        <ele>65</ele>
        <time>2022-03-27T10:54:20Z</time>
      </trkpt>
      <trkpt lat="47.30537" lon="-1.48221">
        <ele>65</ele>
        <time>2022-03-27T10:54:22Z</time>
      </trkpt>
      <trkpt lat="47.30546" lon="-1.48205">
        <ele>65</ele>
        <time>2022-03-27T10:54:24Z</time>
      </trkpt>
      <trkpt lat="47.30555" lon="-1.48188">
        <ele>65</ele>
        <time>2022-03-27T10:54:26Z</time>
      </trkpt>
      <trkpt lat="47.30564" lon="-1.48172">
        <ele>65</ele>
        <time>2022-03-27T10:54:28Z</time>
      </trkpt>
      <trkpt lat="47.30573" lon="-1.48156">
        <ele>65</ele>
        <time>2022-03-27T10:54:30Z</time>
      </trkpt>
      <trkpt lat="47.30582" lon="-1.4814">
        <ele>65</ele>
        <time>2022-03-27T10:54:32Z</time>
      </trkpt>
      <trkpt lat="47.30592" lon="-1.48124">
        <ele>65</ele>
        <time>2022-03-27T10:54:34Z</time>
      </trkpt>
      <trkpt lat="47.30601" lon="-1.48108">
        <ele>65</ele>
        <time>2022-03-27T10:54:36Z</time>
      </trkpt>
      <trkpt lat="47.30611" lon="-1.48092">
        <ele>64</ele>
        <time>2022-03-27T10:54:38Z</time>
      </trkpt>
      <trkpt lat="47.30621" lon="-1.48079">
        <ele>64</ele>
        <time>2022-03-27T10:54:40Z</time>
      </trkpt>
      <trkpt lat="47.30635" lon="-1.48081">
        <ele>64</ele>
        <time>2022-03-27T10:54:42Z</time>
      </trkpt>
      <trkpt lat="47.30651" lon="-1.48088">
        <ele>64</ele>
        <time>2022-03-27T10:54:44Z</time>
      </trkpt>
      <trkpt lat="47.30663" lon="-1.481">
        <ele>64</ele>
        <time>2022-03-27T10:54:46Z</time>
      </trkpt>
      <trkpt lat="47.30674" lon="-1.48111">
        <ele>64</ele>
        <time>2022-03-27T10:54:48Z</time>
      </trkpt>
      <trkpt lat="47.30685" lon="-1.48123">
        <ele>64</ele>
        <time>2022-03-27T10:54:50Z</time>
      </trkpt>
      <trkpt lat="47.30694" lon="-1.48133">
        <ele>64</ele>
        <time>2022-03-27T10:54:52Z</time>
      </trkpt>
      <trkpt lat="47.30704" lon="-1.48144">
        <ele>65</ele>
        <time>2022-03-27T10:54:54Z</time>
      </trkpt>
      <trkpt lat="47.30711" lon="-1.48156">
        <ele>65</ele>
        <time>2022-03-27T10:54:56Z</time>
      </trkpt>
      <trkpt lat="47.30716" lon="-1.48171">
        <ele>65</ele>
        <time>2022-03-27T10:54:58Z</time>
      </trkpt>
      <trkpt lat="47.30719" lon="-1.48188">
        <ele>65</ele>
        <time>2022-03-27T10:55:00Z</time>
      </trkpt>
      <trkpt lat="47.30721" lon="-1.48203">
        <ele>65</ele>
        <time>2022-03-27T10:55:02Z</time>
      </trkpt>
      <trkpt lat="47.3073" lon="-1.48212">
        <ele>65</ele>
        <time>2022-03-27T10:55:04Z</time>
      </trkpt>
      <trkpt lat="47.3074" lon="-1.48207">
        <ele>64</ele>
        <time>2022-03-27T10:55:06Z</time>
      </trkpt>
      <trkpt lat="47.3075" lon="-1.48197">
        <ele>65</ele>
        <time>2022-03-27T10:55:08Z</time>
      </trkpt>
      <trkpt lat="47.30758" lon="-1.48186">
        <ele>65</ele>
        <time>2022-03-27T10:55:10Z</time>
      </trkpt>
      <trkpt lat="47.30756" lon="-1.48169">
        <ele>65</ele>
        <time>2022-03-27T10:55:13Z</time>
      </trkpt>
      <trkpt lat="47.30746" lon="-1.48163">
        <ele>66</ele>
        <time>2022-03-27T10:55:15Z</time>
      </trkpt>
      <trkpt lat="47.30736" lon="-1.48157">
        <ele>66</ele>
        <time>2022-03-27T10:55:17Z</time>
      </trkpt>
      <trkpt lat="47.30734" lon="-1.4817">
        <ele>66</ele>
        <time>2022-03-27T10:55:23Z</time>
      </trkpt>
      <trkpt lat="47.30739" lon="-1.48181">
        <ele>66</ele>
        <time>2022-03-27T10:55:25Z</time>
      </trkpt>
      <trkpt lat="47.30744" lon="-1.48192">
        <ele>67</ele>
        <time>2022-03-27T10:55:27Z</time>
      </trkpt>
      <trkpt lat="47.3075" lon="-1.48203">
        <ele>67</ele>
        <time>2022-03-27T10:55:29Z</time>
      </trkpt>
      <trkpt lat="47.3076" lon="-1.48213">
        <ele>67</ele>
        <time>2022-03-27T10:55:32Z</time>
      </trkpt>
      <trkpt lat="47.30769" lon="-1.482">
        <ele>68</ele>
        <time>2022-03-27T10:55:35Z</time>
      </trkpt>
      <trkpt lat="47.30773" lon="-1.48186">
        <ele>68</ele>
        <time>2022-03-27T10:55:37Z</time>
      </trkpt>
      <trkpt lat="47.30777" lon="-1.4817">
        <ele>67</ele>
        <time>2022-03-27T10:55:39Z</time>
      </trkpt>
      <trkpt lat="47.30781" lon="-1.48154">
        <ele>67</ele>
        <time>2022-03-27T10:55:41Z</time>
      </trkpt>
      <trkpt lat="47.30785" lon="-1.48136">
        <ele>67</ele>
        <time>2022-03-27T10:55:43Z</time>
      </trkpt>
      <trkpt lat="47.3079" lon="-1.48118">
        <ele>66</ele>
        <time>2022-03-27T10:55:45Z</time>
      </trkpt>
      <trkpt lat="47.30794" lon="-1.481">
        <ele>66</ele>
        <time>2022-03-27T10:55:47Z</time>
      </trkpt>
      <trkpt lat="47.30798" lon="-1.48081">
        <ele>66</ele>
        <time>2022-03-27T10:55:49Z</time>
      </trkpt>
      <trkpt lat="47.30801" lon="-1.48061">
        <ele>65</ele>
        <time>2022-03-27T10:55:51Z</time>
      </trkpt>
      <trkpt lat="47.30801" lon="-1.48041">
        <ele>65</ele>
        <time>2022-03-27T10:55:53Z</time>
      </trkpt>
      <trkpt lat="47.30802" lon="-1.48021">
        <ele>65</ele>
        <time>2022-03-27T10:55:55Z</time>
      </trkpt>
      <trkpt lat="47.30812" lon="-1.48007">
        <ele>65</ele>
        <time>2022-03-27T10:55:57Z</time>
      </trkpt>
      <trkpt lat="47.30827" lon="-1.48011">
        <ele>64</ele>
        <time>2022-03-27T10:55:59Z</time>
      </trkpt>
      <trkpt lat="47.30836" lon="-1.48026">
        <ele>64</ele>
        <time>2022-03-27T10:56:01Z</time>
      </trkpt>
      <trkpt lat="47.30842" lon="-1.48044">
        <ele>65</ele>
        <time>2022-03-27T10:56:03Z</time>
      </trkpt>
      <trkpt lat="47.30851" lon="-1.4806">
        <ele>64</ele>
        <time>2022-03-27T10:56:05Z</time>
      </trkpt>
      <trkpt lat="47.30862" lon="-1.48072">
        <ele>64</ele>
        <time>2022-03-27T10:56:07Z</time>
      </trkpt>
      <trkpt lat="47.30873" lon="-1.48083">
        <ele>64</ele>
        <time>2022-03-27T10:56:09Z</time>
      </trkpt>
      <trkpt lat="47.30886" lon="-1.48093">
        <ele>64</ele>
        <time>2022-03-27T10:56:11Z</time>
      </trkpt>
      <trkpt lat="47.30899" lon="-1.48102">
        <ele>63</ele>
        <time>2022-03-27T10:56:13Z</time>
      </trkpt>
      <trkpt lat="47.30913" lon="-1.4811">
        <ele>63</ele>
        <time>2022-03-27T10:56:15Z</time>
      </trkpt>
      <trkpt lat="47.30927" lon="-1.48116">
        <ele>62</ele>
        <time>2022-03-27T10:56:17Z</time>
      </trkpt>
      <trkpt lat="47.30941" lon="-1.48119">
        <ele>62</ele>
        <time>2022-03-27T10:56:19Z</time>
      </trkpt>
      <trkpt lat="47.30955" lon="-1.4812">
        <ele>62</ele>
        <time>2022-03-27T10:56:21Z</time>
      </trkpt>
      <trkpt lat="47.30968" lon="-1.48124">
        <ele>62</ele>
        <time>2022-03-27T10:56:23Z</time>
      </trkpt>
      <trkpt lat="47.30982" lon="-1.4813">
        <ele>61</ele>
        <time>2022-03-27T10:56:25Z</time>
      </trkpt>
      <trkpt lat="47.30996" lon="-1.48131">
        <ele>61</ele>
        <time>2022-03-27T10:56:27Z</time>
      </trkpt>
      <trkpt lat="47.3101" lon="-1.48129">
        <ele>61</ele>
        <time>2022-03-27T10:56:29Z</time>
      </trkpt>
      <trkpt lat="47.31024" lon="-1.48124">
        <ele>61</ele>
        <time>2022-03-27T10:56:31Z</time>
      </trkpt>
      <trkpt lat="47.31038" lon="-1.48119">
        <ele>61</ele>
        <time>2022-03-27T10:56:33Z</time>
      </trkpt>
      <trkpt lat="47.31051" lon="-1.48112">
        <ele>60</ele>
        <time>2022-03-27T10:56:35Z</time>
      </trkpt>
      <trkpt lat="47.31065" lon="-1.48105">
        <ele>60</ele>
        <time>2022-03-27T10:56:37Z</time>
      </trkpt>
      <trkpt lat="47.31078" lon="-1.48099">
        <ele>60</ele>
        <time>2022-03-27T10:56:39Z</time>
      </trkpt>
      <trkpt lat="47.31092" lon="-1.48091">
        <ele>60</ele>
        <time>2022-03-27T10:56:41Z</time>
      </trkpt>
      <trkpt lat="47.31105" lon="-1.48084">
        <ele>60</ele>
        <time>2022-03-27T10:56:43Z</time>
      </trkpt>
      <trkpt lat="47.31118" lon="-1.48077">
        <ele>60</ele>
        <time>2022-03-27T10:56:45Z</time>
      </trkpt>
      <trkpt lat="47.31131" lon="-1.4807">
        <ele>60</ele>
        <time>2022-03-27T10:56:47Z</time>
      </trkpt>
      <trkpt lat="47.31143" lon="-1.48063">
        <ele>61</ele>
        <time>2022-03-27T10:56:49Z</time>
      </trkpt>
      <trkpt lat="47.31156" lon="-1.48057">
        <ele>61</ele>
        <time>2022-03-27T10:56:51Z</time>
      </trkpt>
      <trkpt lat="47.31169" lon="-1.4805">
        <ele>61</ele>
        <time>2022-03-27T10:56:53Z</time>
      </trkpt>
      <trkpt lat="47.31181" lon="-1.48042">
        <ele>61</ele>
        <time>2022-03-27T10:56:55Z</time>
      </trkpt>
      <trkpt lat="47.31193" lon="-1.48035">
        <ele>62</ele>
        <time>2022-03-27T10:56:57Z</time>
      </trkpt>
      <trkpt lat="47.31205" lon="-1.48029">
        <ele>63</ele>
        <time>2022-03-27T10:56:59Z</time>
      </trkpt>
      <trkpt lat="47.31217" lon="-1.48022">
        <ele>63</ele>
        <time>2022-03-27T10:57:01Z</time>
      </trkpt>
      <trkpt lat="47.31229" lon="-1.48016">
        <ele>63</ele>
        <time>2022-03-27T10:57:03Z</time>
      </trkpt>
      <trkpt lat="47.3124" lon="-1.48008">
        <ele>62</ele>
        <time>2022-03-27T10:57:05Z</time>
      </trkpt>
      <trkpt lat="47.31253" lon="-1.48001">
        <ele>62</ele>
        <time>2022-03-27T10:57:07Z</time>
      </trkpt>
      <trkpt lat="47.31265" lon="-1.47994">
        <ele>62</ele>
        <time>2022-03-27T10:57:09Z</time>
      </trkpt>
      <trkpt lat="47.31278" lon="-1.47988">
        <ele>61</ele>
        <time>2022-03-27T10:57:11Z</time>
      </trkpt>
      <trkpt lat="47.31291" lon="-1.4798">
        <ele>61</ele>
        <time>2022-03-27T10:57:13Z</time>
      </trkpt>
      <trkpt lat="47.31303" lon="-1.47973">
        <ele>60</ele>
        <time>2022-03-27T10:57:15Z</time>
      </trkpt>
      <trkpt lat="47.31317" lon="-1.47965">
        <ele>60</ele>
        <time>2022-03-27T10:57:17Z</time>
      </trkpt>
      <trkpt lat="47.3133" lon="-1.47957">
        <ele>60</ele>
        <time>2022-03-27T10:57:19Z</time>
      </trkpt>
      <trkpt lat="47.31344" lon="-1.47949">
        <ele>60</ele>
        <time>2022-03-27T10:57:21Z</time>
      </trkpt>
      <trkpt lat="47.31357" lon="-1.47942">
        <ele>60</ele>
        <time>2022-03-27T10:57:23Z</time>
      </trkpt>
      <trkpt lat="47.3137" lon="-1.47934">
        <ele>60</ele>
        <time>2022-03-27T10:57:25Z</time>
      </trkpt>
      <trkpt lat="47.31383" lon="-1.47926">
        <ele>60</ele>
        <time>2022-03-27T10:57:27Z</time>
      </trkpt>
      <trkpt lat="47.31397" lon="-1.47918">
        <ele>59</ele>
        <time>2022-03-27T10:57:29Z</time>
      </trkpt>
      <trkpt lat="47.31409" lon="-1.4791">
        <ele>60</ele>
        <time>2022-03-27T10:57:31Z</time>
      </trkpt>
      <trkpt lat="47.31422" lon="-1.47903">
        <ele>60</ele>
        <time>2022-03-27T10:57:33Z</time>
      </trkpt>
      <trkpt lat="47.31434" lon="-1.47895">
        <ele>60</ele>
        <time>2022-03-27T10:57:35Z</time>
      </trkpt>
      <trkpt lat="47.31446" lon="-1.47887">
        <ele>60</ele>
        <time>2022-03-27T10:57:37Z</time>
      </trkpt>
      <trkpt lat="47.31458" lon="-1.4788">
        <ele>61</ele>
        <time>2022-03-27T10:57:39Z</time>
      </trkpt>
      <trkpt lat="47.3147" lon="-1.47873">
        <ele>61</ele>
        <time>2022-03-27T10:57:41Z</time>
      </trkpt>
      <trkpt lat="47.31482" lon="-1.47867">
        <ele>61</ele>
        <time>2022-03-27T10:57:43Z</time>
      </trkpt>
      <trkpt lat="47.31495" lon="-1.47861">
        <ele>61</ele>
        <time>2022-03-27T10:57:45Z</time>
      </trkpt>
      <trkpt lat="47.31507" lon="-1.47856">
        <ele>61</ele>
        <time>2022-03-27T10:57:47Z</time>
      </trkpt>
      <trkpt lat="47.3152" lon="-1.47851">
        <ele>61</ele>
        <time>2022-03-27T10:57:49Z</time>
      </trkpt>
      <trkpt lat="47.31533" lon="-1.47847">
        <ele>61</ele>
        <time>2022-03-27T10:57:51Z</time>
      </trkpt>
      <trkpt lat="47.31546" lon="-1.47843">
        <ele>60</ele>
        <time>2022-03-27T10:57:53Z</time>
      </trkpt>
      <trkpt lat="47.3156" lon="-1.47841">
        <ele>59</ele>
        <time>2022-03-27T10:57:55Z</time>
      </trkpt>
      <trkpt lat="47.31574" lon="-1.47837">
        <ele>59</ele>
        <time>2022-03-27T10:57:57Z</time>
      </trkpt>
      <trkpt lat="47.31588" lon="-1.47836">
        <ele>58</ele>
        <time>2022-03-27T10:57:59Z</time>
      </trkpt>
      <trkpt lat="47.31603" lon="-1.47834">
        <ele>58</ele>
        <time>2022-03-27T10:58:01Z</time>
      </trkpt>
      <trkpt lat="47.31618" lon="-1.47833">
        <ele>58</ele>
        <time>2022-03-27T10:58:03Z</time>
      </trkpt>
      <trkpt lat="47.31632" lon="-1.47831">
        <ele>58</ele>
        <time>2022-03-27T10:58:05Z</time>
      </trkpt>
      <trkpt lat="47.31646" lon="-1.47828">
        <ele>57</ele>
        <time>2022-03-27T10:58:07Z</time>
      </trkpt>
      <trkpt lat="47.31659" lon="-1.47822">
        <ele>57</ele>
        <time>2022-03-27T10:58:09Z</time>
      </trkpt>
      <trkpt lat="47.31672" lon="-1.47825">
        <ele>57</ele>
        <time>2022-03-27T10:58:11Z</time>
      </trkpt>
      <trkpt lat="47.31677" lon="-1.47844">
        <ele>57</ele>
        <time>2022-03-27T10:58:13Z</time>
      </trkpt>
      <trkpt lat="47.31669" lon="-1.47861">
        <ele>57</ele>
        <time>2022-03-27T10:58:15Z</time>
      </trkpt>
      <trkpt lat="47.3166" lon="-1.47877">
        <ele>57</ele>
        <time>2022-03-27T10:58:17Z</time>
      </trkpt>
      <trkpt lat="47.31652" lon="-1.47892">
        <ele>58</ele>
        <time>2022-03-27T10:58:19Z</time>
      </trkpt>
      <trkpt lat="47.31643" lon="-1.47907">
        <ele>58</ele>
        <time>2022-03-27T10:58:21Z</time>
      </trkpt>
      <trkpt lat="47.31634" lon="-1.4792">
        <ele>59</ele>
        <time>2022-03-27T10:58:23Z</time>
      </trkpt>
      <trkpt lat="47.31626" lon="-1.47934">
        <ele>59</ele>
        <time>2022-03-27T10:58:25Z</time>
      </trkpt>
      <trkpt lat="47.31618" lon="-1.47947">
        <ele>60</ele>
        <time>2022-03-27T10:58:27Z</time>
      </trkpt>
      <trkpt lat="47.31611" lon="-1.4796">
        <ele>61</ele>
        <time>2022-03-27T10:58:29Z</time>
      </trkpt>
      <trkpt lat="47.31605" lon="-1.47975">
        <ele>62</ele>
        <time>2022-03-27T10:58:31Z</time>
      </trkpt>
      <trkpt lat="47.31603" lon="-1.47992">
        <ele>63</ele>
        <time>2022-03-27T10:58:33Z</time>
      </trkpt>
      <trkpt lat="47.31605" lon="-1.48009">
        <ele>64</ele>
        <time>2022-03-27T10:58:35Z</time>
      </trkpt>
      <trkpt lat="47.31608" lon="-1.48025">
        <ele>64</ele>
        <time>2022-03-27T10:58:37Z</time>
      </trkpt>
      <trkpt lat="47.3161" lon="-1.4804">
        <ele>65</ele>
        <time>2022-03-27T10:58:39Z</time>
      </trkpt>
      <trkpt lat="47.31612" lon="-1.48055">
        <ele>65</ele>
        <time>2022-03-27T10:58:41Z</time>
      </trkpt>
      <trkpt lat="47.31615" lon="-1.48069">
        <ele>66</ele>
        <time>2022-03-27T10:58:43Z</time>
      </trkpt>
      <trkpt lat="47.3162" lon="-1.48082">
        <ele>66</ele>
        <time>2022-03-27T10:58:45Z</time>
      </trkpt>
      <trkpt lat="47.31627" lon="-1.48094">
        <ele>66</ele>
        <time>2022-03-27T10:58:47Z</time>
      </trkpt>
      <trkpt lat="47.31636" lon="-1.48102">
        <ele>65</ele>
        <time>2022-03-27T10:58:49Z</time>
      </trkpt>
      <trkpt lat="47.31648" lon="-1.48104">
        <ele>65</ele>
        <time>2022-03-27T10:58:51Z</time>
      </trkpt>
      <trkpt lat="47.31659" lon="-1.48101">
        <ele>65</ele>
        <time>2022-03-27T10:58:53Z</time>
      </trkpt>
      <trkpt lat="47.3167" lon="-1.48092">
        <ele>64</ele>
        <time>2022-03-27T10:58:55Z</time>
      </trkpt>
      <trkpt lat="47.31681" lon="-1.48082">
        <ele>63</ele>
        <time>2022-03-27T10:58:57Z</time>
      </trkpt>
      <trkpt lat="47.31693" lon="-1.48071">
        <ele>62</ele>
        <time>2022-03-27T10:58:59Z</time>
      </trkpt>
      <trkpt lat="47.31706" lon="-1.48058">
        <ele>61</ele>
        <time>2022-03-27T10:59:01Z</time>
      </trkpt>
      <trkpt lat="47.3172" lon="-1.48045">
        <ele>60</ele>
        <time>2022-03-27T10:59:03Z</time>
      </trkpt>
      <trkpt lat="47.31734" lon="-1.48034">
        <ele>60</ele>
        <time>2022-03-27T10:59:05Z</time>
      </trkpt>
      <trkpt lat="47.31749" lon="-1.48023">
        <ele>59</ele>
        <time>2022-03-27T10:59:07Z</time>
      </trkpt>
      <trkpt lat="47.31763" lon="-1.48014">
        <ele>59</ele>
        <time>2022-03-27T10:59:09Z</time>
      </trkpt>
      <trkpt lat="47.31778" lon="-1.48007">
        <ele>59</ele>
        <time>2022-03-27T10:59:11Z</time>
      </trkpt>
      <trkpt lat="47.31792" lon="-1.48001">
        <ele>59</ele>
        <time>2022-03-27T10:59:13Z</time>
      </trkpt>
      <trkpt lat="47.31807" lon="-1.47996">
        <ele>58</ele>
        <time>2022-03-27T10:59:15Z</time>
      </trkpt>
      <trkpt lat="47.31822" lon="-1.47992">
        <ele>58</ele>
        <time>2022-03-27T10:59:17Z</time>
      </trkpt>
      <trkpt lat="47.31836" lon="-1.47987">
        <ele>58</ele>
        <time>2022-03-27T10:59:19Z</time>
      </trkpt>
      <trkpt lat="47.3185" lon="-1.47982">
        <ele>58</ele>
        <time>2022-03-27T10:59:21Z</time>
      </trkpt>
      <trkpt lat="47.31864" lon="-1.47978">
        <ele>58</ele>
        <time>2022-03-27T10:59:23Z</time>
      </trkpt>
      <trkpt lat="47.31878" lon="-1.47973">
        <ele>58</ele>
        <time>2022-03-27T10:59:25Z</time>
      </trkpt>
      <trkpt lat="47.31891" lon="-1.47969">
        <ele>58</ele>
        <time>2022-03-27T10:59:27Z</time>
      </trkpt>
      <trkpt lat="47.31905" lon="-1.47965">
        <ele>58</ele>
        <time>2022-03-27T10:59:29Z</time>
      </trkpt>
      <trkpt lat="47.31919" lon="-1.47961">
        <ele>58</ele>
        <time>2022-03-27T10:59:31Z</time>
      </trkpt>
      <trkpt lat="47.31933" lon="-1.47956">
        <ele>58</ele>
        <time>2022-03-27T10:59:33Z</time>
      </trkpt>
      <trkpt lat="47.31948" lon="-1.47952">
        <ele>58</ele>
        <time>2022-03-27T10:59:35Z</time>
      </trkpt>
      <trkpt lat="47.31962" lon="-1.47949">
        <ele>58</ele>
        <time>2022-03-27T10:59:37Z</time>
      </trkpt>
      <trkpt lat="47.31976" lon="-1.47946">
        <ele>58</ele>
        <time>2022-03-27T10:59:39Z</time>
      </trkpt>
      <trkpt lat="47.3199" lon="-1.47942">
        <ele>58</ele>
        <time>2022-03-27T10:59:41Z</time>
      </trkpt>
      <trkpt lat="47.32004" lon="-1.47939">
        <ele>58</ele>
        <time>2022-03-27T10:59:43Z</time>
      </trkpt>
      <trkpt lat="47.32018" lon="-1.47935">
        <ele>57</ele>
        <time>2022-03-27T10:59:45Z</time>
      </trkpt>
      <trkpt lat="47.32032" lon="-1.47932">
        <ele>57</ele>
        <time>2022-03-27T10:59:47Z</time>
      </trkpt>
      <trkpt lat="47.32046" lon="-1.47929">
        <ele>57</ele>
        <time>2022-03-27T10:59:49Z</time>
      </trkpt>
      <trkpt lat="47.3206" lon="-1.47925">
        <ele>57</ele>
        <time>2022-03-27T10:59:51Z</time>
      </trkpt>
      <trkpt lat="47.32074" lon="-1.47922">
        <ele>57</ele>
        <time>2022-03-27T10:59:53Z</time>
      </trkpt>
      <trkpt lat="47.32088" lon="-1.47919">
        <ele>57</ele>
        <time>2022-03-27T10:59:55Z</time>
      </trkpt>
      <trkpt lat="47.32102" lon="-1.47915">
        <ele>57</ele>
        <time>2022-03-27T10:59:57Z</time>
      </trkpt>
      <trkpt lat="47.32116" lon="-1.47912">
        <ele>57</ele>
        <time>2022-03-27T10:59:59Z</time>
      </trkpt>
      <trkpt lat="47.3213" lon="-1.47909">
        <ele>57</ele>
        <time>2022-03-27T11:00:01Z</time>
      </trkpt>
      <trkpt lat="47.32144" lon="-1.47905">
        <ele>57</ele>
        <time>2022-03-27T11:00:03Z</time>
      </trkpt>
      <trkpt lat="47.32158" lon="-1.47902">
        <ele>57</ele>
        <time>2022-03-27T11:00:05Z</time>
      </trkpt>
      <trkpt lat="47.32172" lon="-1.47898">
        <ele>57</ele>
        <time>2022-03-27T11:00:07Z</time>
      </trkpt>
      <trkpt lat="47.32186" lon="-1.47895">
        <ele>57</ele>
        <time>2022-03-27T11:00:09Z</time>
      </trkpt>
      <trkpt lat="47.322" lon="-1.47891">
        <ele>57</ele>
        <time>2022-03-27T11:00:11Z</time>
      </trkpt>
      <trkpt lat="47.32214" lon="-1.47888">
        <ele>57</ele>
        <time>2022-03-27T11:00:13Z</time>
      </trkpt>
      <trkpt lat="47.32227" lon="-1.47885">
        <ele>57</ele>
        <time>2022-03-27T11:00:15Z</time>
      </trkpt>
      <trkpt lat="47.32241" lon="-1.47882">
        <ele>57</ele>
        <time>2022-03-27T11:00:17Z</time>
      </trkpt>
      <trkpt lat="47.32254" lon="-1.47879">
        <ele>57</ele>
        <time>2022-03-27T11:00:19Z</time>
      </trkpt>
      <trkpt lat="47.32268" lon="-1.47876">
        <ele>57</ele>
        <time>2022-03-27T11:00:21Z</time>
      </trkpt>
      <trkpt lat="47.32281" lon="-1.47872">
        <ele>57</ele>
        <time>2022-03-27T11:00:23Z</time>
      </trkpt>
      <trkpt lat="47.32294" lon="-1.47869">
        <ele>57</ele>
        <time>2022-03-27T11:00:25Z</time>
      </trkpt>
      <trkpt lat="47.32308" lon="-1.47865">
        <ele>57</ele>
        <time>2022-03-27T11:00:27Z</time>
      </trkpt>
      <trkpt lat="47.32321" lon="-1.47862">
        <ele>57</ele>
        <time>2022-03-27T11:00:29Z</time>
      </trkpt>
      <trkpt lat="47.32334" lon="-1.47858">
        <ele>57</ele>
        <time>2022-03-27T11:00:31Z</time>
      </trkpt>
      <trkpt lat="47.32348" lon="-1.47855">
        <ele>57</ele>
        <time>2022-03-27T11:00:33Z</time>
      </trkpt>
      <trkpt lat="47.32362" lon="-1.47852">
        <ele>57</ele>
        <time>2022-03-27T11:00:35Z</time>
      </trkpt>
      <trkpt lat="47.32376" lon="-1.47849">
        <ele>57</ele>
        <time>2022-03-27T11:00:37Z</time>
      </trkpt>
      <trkpt lat="47.32389" lon="-1.47846">
        <ele>57</ele>
        <time>2022-03-27T11:00:39Z</time>
      </trkpt>
      <trkpt lat="47.32402" lon="-1.47842">
        <ele>58</ele>
        <time>2022-03-27T11:00:41Z</time>
      </trkpt>
      <trkpt lat="47.32416" lon="-1.47839">
        <ele>58</ele>
        <time>2022-03-27T11:00:43Z</time>
      </trkpt>
      <trkpt lat="47.32429" lon="-1.47835">
        <ele>58</ele>
        <time>2022-03-27T11:00:45Z</time>
      </trkpt>
      <trkpt lat="47.32443" lon="-1.47831">
        <ele>57</ele>
        <time>2022-03-27T11:00:47Z</time>
      </trkpt>
      <trkpt lat="47.32457" lon="-1.47828">
        <ele>57</ele>
        <time>2022-03-27T11:00:49Z</time>
      </trkpt>
      <trkpt lat="47.32471" lon="-1.47825">
        <ele>57</ele>
        <time>2022-03-27T11:00:51Z</time>
      </trkpt>
      <trkpt lat="47.32485" lon="-1.47821">
        <ele>58</ele>
        <time>2022-03-27T11:00:53Z</time>
      </trkpt>
      <trkpt lat="47.32498" lon="-1.47818">
        <ele>57</ele>
        <time>2022-03-27T11:00:55Z</time>
      </trkpt>
      <trkpt lat="47.32512" lon="-1.47815">
        <ele>57</ele>
        <time>2022-03-27T11:00:57Z</time>
      </trkpt>
      <trkpt lat="47.32525" lon="-1.47812">
        <ele>57</ele>
        <time>2022-03-27T11:00:59Z</time>
      </trkpt>
      <trkpt lat="47.32538" lon="-1.47809">
        <ele>57</ele>
        <time>2022-03-27T11:01:01Z</time>
      </trkpt>
      <trkpt lat="47.32552" lon="-1.47806">
        <ele>57</ele>
        <time>2022-03-27T11:01:03Z</time>
      </trkpt>
      <trkpt lat="47.32565" lon="-1.47802">
        <ele>57</ele>
        <time>2022-03-27T11:01:05Z</time>
      </trkpt>
      <trkpt lat="47.32578" lon="-1.47799">
        <ele>57</ele>
        <time>2022-03-27T11:01:07Z</time>
      </trkpt>
      <trkpt lat="47.32592" lon="-1.47797">
        <ele>57</ele>
        <time>2022-03-27T11:01:09Z</time>
      </trkpt>
      <trkpt lat="47.32605" lon="-1.47793">
        <ele>57</ele>
        <time>2022-03-27T11:01:11Z</time>
      </trkpt>
      <trkpt lat="47.32618" lon="-1.4779">
        <ele>57</ele>
        <time>2022-03-27T11:01:13Z</time>
      </trkpt>
      <trkpt lat="47.32632" lon="-1.47787">
        <ele>57</ele>
        <time>2022-03-27T11:01:15Z</time>
      </trkpt>
      <trkpt lat="47.32646" lon="-1.47784">
        <ele>57</ele>
        <time>2022-03-27T11:01:17Z</time>
      </trkpt>
      <trkpt lat="47.32659" lon="-1.47781">
        <ele>57</ele>
        <time>2022-03-27T11:01:19Z</time>
      </trkpt>
      <trkpt lat="47.32672" lon="-1.47777">
        <ele>57</ele>
        <time>2022-03-27T11:01:21Z</time>
      </trkpt>
      <trkpt lat="47.32684" lon="-1.47774">
        <ele>57</ele>
        <time>2022-03-27T11:01:23Z</time>
      </trkpt>
      <trkpt lat="47.32697" lon="-1.47771">
        <ele>58</ele>
        <time>2022-03-27T11:01:25Z</time>
      </trkpt>
      <trkpt lat="47.3271" lon="-1.47768">
        <ele>58</ele>
        <time>2022-03-27T11:01:27Z</time>
      </trkpt>
      <trkpt lat="47.32723" lon="-1.47764">
        <ele>58</ele>
        <time>2022-03-27T11:01:29Z</time>
      </trkpt>
      <trkpt lat="47.32736" lon="-1.47761">
        <ele>58</ele>
        <time>2022-03-27T11:01:31Z</time>
      </trkpt>
      <trkpt lat="47.32748" lon="-1.47757">
        <ele>59</ele>
        <time>2022-03-27T11:01:33Z</time>
      </trkpt>
      <trkpt lat="47.32761" lon="-1.47753">
        <ele>59</ele>
        <time>2022-03-27T11:01:35Z</time>
      </trkpt>
      <trkpt lat="47.32773" lon="-1.47751">
        <ele>60</ele>
        <time>2022-03-27T11:01:37Z</time>
      </trkpt>
      <trkpt lat="47.32786" lon="-1.47748">
        <ele>59</ele>
        <time>2022-03-27T11:01:39Z</time>
      </trkpt>
      <trkpt lat="47.32799" lon="-1.47745">
        <ele>59</ele>
        <time>2022-03-27T11:01:41Z</time>
      </trkpt>
      <trkpt lat="47.32812" lon="-1.47742">
        <ele>60</ele>
        <time>2022-03-27T11:01:43Z</time>
      </trkpt>
      <trkpt lat="47.32825" lon="-1.4774">
        <ele>60</ele>
        <time>2022-03-27T11:01:45Z</time>
      </trkpt>
      <trkpt lat="47.32838" lon="-1.47737">
        <ele>61</ele>
        <time>2022-03-27T11:01:47Z</time>
      </trkpt>
      <trkpt lat="47.32851" lon="-1.47736">
        <ele>61</ele>
        <time>2022-03-27T11:01:49Z</time>
      </trkpt>
      <trkpt lat="47.32865" lon="-1.47735">
        <ele>60</ele>
        <time>2022-03-27T11:01:51Z</time>
      </trkpt>
      <trkpt lat="47.32877" lon="-1.47735">
        <ele>60</ele>
        <time>2022-03-27T11:01:53Z</time>
      </trkpt>
      <trkpt lat="47.3289" lon="-1.47734">
        <ele>60</ele>
        <time>2022-03-27T11:01:55Z</time>
      </trkpt>
      <trkpt lat="47.32903" lon="-1.47734">
        <ele>60</ele>
        <time>2022-03-27T11:01:57Z</time>
      </trkpt>
      <trkpt lat="47.32916" lon="-1.47735">
        <ele>60</ele>
        <time>2022-03-27T11:01:59Z</time>
      </trkpt>
      <trkpt lat="47.32928" lon="-1.47736">
        <ele>59</ele>
        <time>2022-03-27T11:02:01Z</time>
      </trkpt>
      <trkpt lat="47.32941" lon="-1.47737">
        <ele>59</ele>
        <time>2022-03-27T11:02:03Z</time>
      </trkpt>
      <trkpt lat="47.32954" lon="-1.47739">
        <ele>59</ele>
        <time>2022-03-27T11:02:05Z</time>
      </trkpt>
      <trkpt lat="47.32967" lon="-1.47741">
        <ele>59</ele>
        <time>2022-03-27T11:02:07Z</time>
      </trkpt>
      <trkpt lat="47.32979" lon="-1.47743">
        <ele>59</ele>
        <time>2022-03-27T11:02:09Z</time>
      </trkpt>
      <trkpt lat="47.32992" lon="-1.47745">
        <ele>59</ele>
        <time>2022-03-27T11:02:11Z</time>
      </trkpt>
      <trkpt lat="47.33004" lon="-1.47748">
        <ele>59</ele>
        <time>2022-03-27T11:02:13Z</time>
      </trkpt>
      <trkpt lat="47.33017" lon="-1.4775">
        <ele>59</ele>
        <time>2022-03-27T11:02:15Z</time>
      </trkpt>
      <trkpt lat="47.3303" lon="-1.47753">
        <ele>59</ele>
        <time>2022-03-27T11:02:17Z</time>
      </trkpt>
      <trkpt lat="47.33042" lon="-1.47756">
        <ele>59</ele>
        <time>2022-03-27T11:02:19Z</time>
      </trkpt>
      <trkpt lat="47.33054" lon="-1.47761">
        <ele>60</ele>
        <time>2022-03-27T11:02:21Z</time>
      </trkpt>
      <trkpt lat="47.33064" lon="-1.47769">
        <ele>59</ele>
        <time>2022-03-27T11:02:23Z</time>
      </trkpt>
      <trkpt lat="47.33074" lon="-1.47778">
        <ele>59</ele>
        <time>2022-03-27T11:02:25Z</time>
      </trkpt>
      <trkpt lat="47.33085" lon="-1.47783">
        <ele>59</ele>
        <time>2022-03-27T11:02:27Z</time>
      </trkpt>
      <trkpt lat="47.33094" lon="-1.47782">
        <ele>58</ele>
        <time>2022-03-27T11:02:29Z</time>
      </trkpt>
      <trkpt lat="47.33105" lon="-1.47789">
        <ele>58</ele>
        <time>2022-03-27T11:02:40Z</time>
      </trkpt>
      <trkpt lat="47.33106" lon="-1.47804">
        <ele>58</ele>
        <time>2022-03-27T11:02:42Z</time>
      </trkpt>
      <trkpt lat="47.33106" lon="-1.4782">
        <ele>59</ele>
        <time>2022-03-27T11:02:44Z</time>
      </trkpt>
      <trkpt lat="47.33107" lon="-1.47839">
        <ele>59</ele>
        <time>2022-03-27T11:02:46Z</time>
      </trkpt>
      <trkpt lat="47.33108" lon="-1.47858">
        <ele>59</ele>
        <time>2022-03-27T11:02:48Z</time>
      </trkpt>
      <trkpt lat="47.3311" lon="-1.47877">
        <ele>59</ele>
        <time>2022-03-27T11:02:50Z</time>
      </trkpt>
      <trkpt lat="47.33111" lon="-1.47898">
        <ele>59</ele>
        <time>2022-03-27T11:02:52Z</time>
      </trkpt>
      <trkpt lat="47.33113" lon="-1.47917">
        <ele>60</ele>
        <time>2022-03-27T11:02:54Z</time>
      </trkpt>
      <trkpt lat="47.33116" lon="-1.47936">
        <ele>61</ele>
        <time>2022-03-27T11:02:56Z</time>
      </trkpt>
      <trkpt lat="47.33118" lon="-1.47955">
        <ele>61</ele>
        <time>2022-03-27T11:02:58Z</time>
      </trkpt>
      <trkpt lat="47.33122" lon="-1.47975">
        <ele>61</ele>
        <time>2022-03-27T11:03:00Z</time>
      </trkpt>
      <trkpt lat="47.33125" lon="-1.47995">
        <ele>61</ele>
        <time>2022-03-27T11:03:02Z</time>
      </trkpt>
      <trkpt lat="47.33129" lon="-1.48015">
        <ele>61</ele>
        <time>2022-03-27T11:03:04Z</time>
      </trkpt>
      <trkpt lat="47.33135" lon="-1.48043">
        <ele>60</ele>
        <time>2022-03-27T11:03:07Z</time>
      </trkpt>
      <trkpt lat="47.33139" lon="-1.48062">
        <ele>60</ele>
        <time>2022-03-27T11:03:09Z</time>
      </trkpt>
      <trkpt lat="47.33144" lon="-1.48081">
        <ele>60</ele>
        <time>2022-03-27T11:03:11Z</time>
      </trkpt>
      <trkpt lat="47.3315" lon="-1.48099">
        <ele>60</ele>
        <time>2022-03-27T11:03:13Z</time>
      </trkpt>
      <trkpt lat="47.33157" lon="-1.48117">
        <ele>59</ele>
        <time>2022-03-27T11:03:15Z</time>
      </trkpt>
      <trkpt lat="47.33163" lon="-1.48134">
        <ele>59</ele>
        <time>2022-03-27T11:03:17Z</time>
      </trkpt>
      <trkpt lat="47.33169" lon="-1.48151">
        <ele>59</ele>
        <time>2022-03-27T11:03:19Z</time>
      </trkpt>
      <trkpt lat="47.33176" lon="-1.48169">
        <ele>59</ele>
        <time>2022-03-27T11:03:21Z</time>
      </trkpt>
      <trkpt lat="47.33183" lon="-1.48187">
        <ele>59</ele>
        <time>2022-03-27T11:03:23Z</time>
      </trkpt>
      <trkpt lat="47.33189" lon="-1.48205">
        <ele>59</ele>
        <time>2022-03-27T11:03:25Z</time>
      </trkpt>
      <trkpt lat="47.33196" lon="-1.48223">
        <ele>59</ele>
        <time>2022-03-27T11:03:27Z</time>
      </trkpt>
      <trkpt lat="47.33202" lon="-1.48241">
        <ele>58</ele>
        <time>2022-03-27T11:03:29Z</time>
      </trkpt>
      <trkpt lat="47.33209" lon="-1.48259">
        <ele>58</ele>
        <time>2022-03-27T11:03:31Z</time>
      </trkpt>
      <trkpt lat="47.33215" lon="-1.48276">
        <ele>58</ele>
        <time>2022-03-27T11:03:33Z</time>
      </trkpt>
      <trkpt lat="47.33222" lon="-1.48294">
        <ele>58</ele>
        <time>2022-03-27T11:03:35Z</time>
      </trkpt>
      <trkpt lat="47.33229" lon="-1.48312">
        <ele>58</ele>
        <time>2022-03-27T11:03:37Z</time>
      </trkpt>
      <trkpt lat="47.33236" lon="-1.4833">
        <ele>58</ele>
        <time>2022-03-27T11:03:39Z</time>
      </trkpt>
      <trkpt lat="47.33242" lon="-1.48349">
        <ele>57</ele>
        <time>2022-03-27T11:03:41Z</time>
      </trkpt>
      <trkpt lat="47.33249" lon="-1.48367">
        <ele>57</ele>
        <time>2022-03-27T11:03:43Z</time>
      </trkpt>
      <trkpt lat="47.33255" lon="-1.48385">
        <ele>57</ele>
        <time>2022-03-27T11:03:45Z</time>
      </trkpt>
      <trkpt lat="47.33262" lon="-1.48403">
        <ele>57</ele>
        <time>2022-03-27T11:03:47Z</time>
      </trkpt>
      <trkpt lat="47.33268" lon="-1.48421">
        <ele>57</ele>
        <time>2022-03-27T11:03:49Z</time>
      </trkpt>
      <trkpt lat="47.33276" lon="-1.48438">
        <ele>57</ele>
        <time>2022-03-27T11:03:51Z</time>
      </trkpt>
      <trkpt lat="47.33283" lon="-1.48455">
        <ele>57</ele>
        <time>2022-03-27T11:03:53Z</time>
      </trkpt>
      <trkpt lat="47.3329" lon="-1.48472">
        <ele>57</ele>
        <time>2022-03-27T11:03:55Z</time>
      </trkpt>
      <trkpt lat="47.33297" lon="-1.48488">
        <ele>57</ele>
        <time>2022-03-27T11:03:57Z</time>
      </trkpt>
      <trkpt lat="47.33304" lon="-1.48505">
        <ele>57</ele>
        <time>2022-03-27T11:03:59Z</time>
      </trkpt>
      <trkpt lat="47.33311" lon="-1.48522">
        <ele>58</ele>
        <time>2022-03-27T11:04:01Z</time>
      </trkpt>
      <trkpt lat="47.33319" lon="-1.48539">
        <ele>58</ele>
        <time>2022-03-27T11:04:03Z</time>
      </trkpt>
      <trkpt lat="47.33327" lon="-1.48555">
        <ele>58</ele>
        <time>2022-03-27T11:04:05Z</time>
      </trkpt>
      <trkpt lat="47.33335" lon="-1.48571">
        <ele>58</ele>
        <time>2022-03-27T11:04:07Z</time>
      </trkpt>
      <trkpt lat="47.33344" lon="-1.48584">
        <ele>59</ele>
        <time>2022-03-27T11:04:09Z</time>
      </trkpt>
      <trkpt lat="47.33354" lon="-1.48598">
        <ele>60</ele>
        <time>2022-03-27T11:04:11Z</time>
      </trkpt>
      <trkpt lat="47.33363" lon="-1.48614">
        <ele>60</ele>
        <time>2022-03-27T11:04:13Z</time>
      </trkpt>
      <trkpt lat="47.33372" lon="-1.48631">
        <ele>59</ele>
        <time>2022-03-27T11:04:15Z</time>
      </trkpt>
      <trkpt lat="47.33377" lon="-1.48649">
        <ele>59</ele>
        <time>2022-03-27T11:04:17Z</time>
      </trkpt>
      <trkpt lat="47.3338" lon="-1.48669">
        <ele>59</ele>
        <time>2022-03-27T11:04:19Z</time>
      </trkpt>
      <trkpt lat="47.33382" lon="-1.48688">
        <ele>59</ele>
        <time>2022-03-27T11:04:21Z</time>
      </trkpt>
      <trkpt lat="47.33384" lon="-1.48706">
        <ele>60</ele>
        <time>2022-03-27T11:04:23Z</time>
      </trkpt>
      <trkpt lat="47.33385" lon="-1.48725">
        <ele>61</ele>
        <time>2022-03-27T11:04:25Z</time>
      </trkpt>
      <trkpt lat="47.33387" lon="-1.48744">
        <ele>61</ele>
        <time>2022-03-27T11:04:27Z</time>
      </trkpt>
      <trkpt lat="47.33389" lon="-1.48762">
        <ele>61</ele>
        <time>2022-03-27T11:04:29Z</time>
      </trkpt>
      <trkpt lat="47.33391" lon="-1.48782">
        <ele>61</ele>
        <time>2022-03-27T11:04:31Z</time>
      </trkpt>
      <trkpt lat="47.33393" lon="-1.48801">
        <ele>61</ele>
        <time>2022-03-27T11:04:33Z</time>
      </trkpt>
      <trkpt lat="47.33394" lon="-1.4882">
        <ele>62</ele>
        <time>2022-03-27T11:04:35Z</time>
      </trkpt>
      <trkpt lat="47.33396" lon="-1.48839">
        <ele>62</ele>
        <time>2022-03-27T11:04:37Z</time>
      </trkpt>
      <trkpt lat="47.33398" lon="-1.48857">
        <ele>62</ele>
        <time>2022-03-27T11:04:39Z</time>
      </trkpt>
      <trkpt lat="47.33399" lon="-1.48875">
        <ele>61</ele>
        <time>2022-03-27T11:04:41Z</time>
      </trkpt>
      <trkpt lat="47.33401" lon="-1.48893">
        <ele>60</ele>
        <time>2022-03-27T11:04:43Z</time>
      </trkpt>
      <trkpt lat="47.33403" lon="-1.48913">
        <ele>59</ele>
        <time>2022-03-27T11:04:45Z</time>
      </trkpt>
      <trkpt lat="47.33404" lon="-1.48934">
        <ele>59</ele>
        <time>2022-03-27T11:04:47Z</time>
      </trkpt>
      <trkpt lat="47.33405" lon="-1.48953">
        <ele>60</ele>
        <time>2022-03-27T11:04:49Z</time>
      </trkpt>
      <trkpt lat="47.33406" lon="-1.48973">
        <ele>60</ele>
        <time>2022-03-27T11:04:51Z</time>
      </trkpt>
      <trkpt lat="47.33408" lon="-1.48993">
        <ele>59</ele>
        <time>2022-03-27T11:04:53Z</time>
      </trkpt>
      <trkpt lat="47.33411" lon="-1.49013">
        <ele>59</ele>
        <time>2022-03-27T11:04:55Z</time>
      </trkpt>
      <trkpt lat="47.33417" lon="-1.49032">
        <ele>58</ele>
        <time>2022-03-27T11:04:57Z</time>
      </trkpt>
      <trkpt lat="47.33423" lon="-1.4905">
        <ele>58</ele>
        <time>2022-03-27T11:04:59Z</time>
      </trkpt>
      <trkpt lat="47.33431" lon="-1.49068">
        <ele>57</ele>
        <time>2022-03-27T11:05:01Z</time>
      </trkpt>
      <trkpt lat="47.33439" lon="-1.49085">
        <ele>57</ele>
        <time>2022-03-27T11:05:03Z</time>
      </trkpt>
      <trkpt lat="47.33447" lon="-1.49101">
        <ele>57</ele>
        <time>2022-03-27T11:05:05Z</time>
      </trkpt>
      <trkpt lat="47.33455" lon="-1.49117">
        <ele>57</ele>
        <time>2022-03-27T11:05:07Z</time>
      </trkpt>
      <trkpt lat="47.33463" lon="-1.49134">
        <ele>57</ele>
        <time>2022-03-27T11:05:09Z</time>
      </trkpt>
      <trkpt lat="47.33471" lon="-1.4915">
        <ele>57</ele>
        <time>2022-03-27T11:05:11Z</time>
      </trkpt>
      <trkpt lat="47.33479" lon="-1.49166">
        <ele>57</ele>
        <time>2022-03-27T11:05:13Z</time>
      </trkpt>
      <trkpt lat="47.33487" lon="-1.49182">
        <ele>57</ele>
        <time>2022-03-27T11:05:15Z</time>
      </trkpt>
      <trkpt lat="47.33494" lon="-1.49199">
        <ele>57</ele>
        <time>2022-03-27T11:05:17Z</time>
      </trkpt>
      <trkpt lat="47.33502" lon="-1.49215">
        <ele>57</ele>
        <time>2022-03-27T11:05:19Z</time>
      </trkpt>
      <trkpt lat="47.33509" lon="-1.49232">
        <ele>57</ele>
        <time>2022-03-27T11:05:21Z</time>
      </trkpt>
      <trkpt lat="47.33517" lon="-1.49248">
        <ele>57</ele>
        <time>2022-03-27T11:05:23Z</time>
      </trkpt>
      <trkpt lat="47.33525" lon="-1.49264">
        <ele>57</ele>
        <time>2022-03-27T11:05:25Z</time>
      </trkpt>
      <trkpt lat="47.33533" lon="-1.49279">
        <ele>57</ele>
        <time>2022-03-27T11:05:27Z</time>
      </trkpt>
      <trkpt lat="47.3354" lon="-1.49295">
        <ele>57</ele>
        <time>2022-03-27T11:05:29Z</time>
      </trkpt>
      <trkpt lat="47.33547" lon="-1.49311">
        <ele>57</ele>
        <time>2022-03-27T11:05:31Z</time>
      </trkpt>
      <trkpt lat="47.33554" lon="-1.49324">
        <ele>57</ele>
        <time>2022-03-27T11:05:33Z</time>
      </trkpt>
      <trkpt lat="47.33565" lon="-1.49325">
        <ele>57</ele>
        <time>2022-03-27T11:05:35Z</time>
      </trkpt>
      <trkpt lat="47.33574" lon="-1.49315">
        <ele>57</ele>
        <time>2022-03-27T11:05:37Z</time>
      </trkpt>
      <trkpt lat="47.33583" lon="-1.49302">
        <ele>57</ele>
        <time>2022-03-27T11:05:39Z</time>
      </trkpt>
      <trkpt lat="47.33592" lon="-1.49289">
        <ele>57</ele>
        <time>2022-03-27T11:05:41Z</time>
      </trkpt>
      <trkpt lat="47.33603" lon="-1.49276">
        <ele>57</ele>
        <time>2022-03-27T11:05:43Z</time>
      </trkpt>
      <trkpt lat="47.33613" lon="-1.49263">
        <ele>57</ele>
        <time>2022-03-27T11:05:45Z</time>
      </trkpt>
      <trkpt lat="47.33623" lon="-1.49252">
        <ele>57</ele>
        <time>2022-03-27T11:05:47Z</time>
      </trkpt>
      <trkpt lat="47.33632" lon="-1.4924">
        <ele>57</ele>
        <time>2022-03-27T11:05:49Z</time>
      </trkpt>
      <trkpt lat="47.33641" lon="-1.49229">
        <ele>57</ele>
        <time>2022-03-27T11:05:51Z</time>
      </trkpt>
      <trkpt lat="47.3365" lon="-1.49217">
        <ele>57</ele>
        <time>2022-03-27T11:05:53Z</time>
      </trkpt>
      <trkpt lat="47.33659" lon="-1.49206">
        <ele>58</ele>
        <time>2022-03-27T11:05:55Z</time>
      </trkpt>
      <trkpt lat="47.33668" lon="-1.49196">
        <ele>58</ele>
        <time>2022-03-27T11:05:57Z</time>
      </trkpt>
      <trkpt lat="47.33677" lon="-1.49185">
        <ele>58</ele>
        <time>2022-03-27T11:05:59Z</time>
      </trkpt>
      <trkpt lat="47.33685" lon="-1.49174">
        <ele>58</ele>
        <time>2022-03-27T11:06:01Z</time>
      </trkpt>
      <trkpt lat="47.33692" lon="-1.4916">
        <ele>58</ele>
        <time>2022-03-27T11:06:03Z</time>
      </trkpt>
      <trkpt lat="47.33696" lon="-1.49146">
        <ele>58</ele>
        <time>2022-03-27T11:06:05Z</time>
      </trkpt>
      <trkpt lat="47.33698" lon="-1.49129">
        <ele>58</ele>
        <time>2022-03-27T11:06:07Z</time>
      </trkpt>
      <trkpt lat="47.33699" lon="-1.49113">
        <ele>59</ele>
        <time>2022-03-27T11:06:09Z</time>
      </trkpt>
      <trkpt lat="47.33702" lon="-1.49097">
        <ele>59</ele>
        <time>2022-03-27T11:06:11Z</time>
      </trkpt>
      <trkpt lat="47.33706" lon="-1.49082">
        <ele>60</ele>
        <time>2022-03-27T11:06:13Z</time>
      </trkpt>
      <trkpt lat="47.33714" lon="-1.4907">
        <ele>60</ele>
        <time>2022-03-27T11:06:15Z</time>
      </trkpt>
      <trkpt lat="47.33722" lon="-1.4906">
        <ele>61</ele>
        <time>2022-03-27T11:06:17Z</time>
      </trkpt>
      <trkpt lat="47.33731" lon="-1.4905">
        <ele>61</ele>
        <time>2022-03-27T11:06:19Z</time>
      </trkpt>
      <trkpt lat="47.3374" lon="-1.49039">
        <ele>61</ele>
        <time>2022-03-27T11:06:21Z</time>
      </trkpt>
      <trkpt lat="47.33749" lon="-1.4903">
        <ele>61</ele>
        <time>2022-03-27T11:06:23Z</time>
      </trkpt>
      <trkpt lat="47.33758" lon="-1.4902">
        <ele>61</ele>
        <time>2022-03-27T11:06:25Z</time>
      </trkpt>
      <trkpt lat="47.33766" lon="-1.4901">
        <ele>61</ele>
        <time>2022-03-27T11:06:27Z</time>
      </trkpt>
      <trkpt lat="47.33775" lon="-1.49">
        <ele>61</ele>
        <time>2022-03-27T11:06:29Z</time>
      </trkpt>
      <trkpt lat="47.33783" lon="-1.4899">
        <ele>61</ele>
        <time>2022-03-27T11:06:31Z</time>
      </trkpt>
      <trkpt lat="47.33791" lon="-1.4898">
        <ele>61</ele>
        <time>2022-03-27T11:06:33Z</time>
      </trkpt>
      <trkpt lat="47.338" lon="-1.48969">
        <ele>61</ele>
        <time>2022-03-27T11:06:35Z</time>
      </trkpt>
      <trkpt lat="47.33808" lon="-1.48956">
        <ele>60</ele>
        <time>2022-03-27T11:06:37Z</time>
      </trkpt>
      <trkpt lat="47.33817" lon="-1.48943">
        <ele>60</ele>
        <time>2022-03-27T11:06:39Z</time>
      </trkpt>
      <trkpt lat="47.33825" lon="-1.48929">
        <ele>60</ele>
        <time>2022-03-27T11:06:41Z</time>
      </trkpt>
      <trkpt lat="47.33834" lon="-1.48916">
        <ele>60</ele>
        <time>2022-03-27T11:06:43Z</time>
      </trkpt>
      <trkpt lat="47.33842" lon="-1.48902">
        <ele>59</ele>
        <time>2022-03-27T11:06:45Z</time>
      </trkpt>
      <trkpt lat="47.33851" lon="-1.48888">
        <ele>59</ele>
        <time>2022-03-27T11:06:47Z</time>
      </trkpt>
      <trkpt lat="47.3386" lon="-1.48874">
        <ele>59</ele>
        <time>2022-03-27T11:06:49Z</time>
      </trkpt>
      <trkpt lat="47.33868" lon="-1.48861">
        <ele>59</ele>
        <time>2022-03-27T11:06:51Z</time>
      </trkpt>
      <trkpt lat="47.33877" lon="-1.48847">
        <ele>58</ele>
        <time>2022-03-27T11:06:53Z</time>
      </trkpt>
      <trkpt lat="47.33886" lon="-1.48833">
        <ele>58</ele>
        <time>2022-03-27T11:06:55Z</time>
      </trkpt>
      <trkpt lat="47.33895" lon="-1.4882">
        <ele>58</ele>
        <time>2022-03-27T11:06:57Z</time>
      </trkpt>
      <trkpt lat="47.33903" lon="-1.48806">
        <ele>58</ele>
        <time>2022-03-27T11:06:59Z</time>
      </trkpt>
      <trkpt lat="47.33917" lon="-1.48783">
        <ele>57</ele>
        <time>2022-03-27T11:07:02Z</time>
      </trkpt>
      <trkpt lat="47.33927" lon="-1.48769">
        <ele>57</ele>
        <time>2022-03-27T11:07:04Z</time>
      </trkpt>
      <trkpt lat="47.33935" lon="-1.48754">
        <ele>56</ele>
        <time>2022-03-27T11:07:06Z</time>
      </trkpt>
      <trkpt lat="47.33945" lon="-1.48739">
        <ele>56</ele>
        <time>2022-03-27T11:07:08Z</time>
      </trkpt>
      <trkpt lat="47.33955" lon="-1.48723">
        <ele>55</ele>
        <time>2022-03-27T11:07:10Z</time>
      </trkpt>
      <trkpt lat="47.33965" lon="-1.48708">
        <ele>55</ele>
        <time>2022-03-27T11:07:12Z</time>
      </trkpt>
      <trkpt lat="47.33974" lon="-1.48693">
        <ele>54</ele>
        <time>2022-03-27T11:07:14Z</time>
      </trkpt>
      <trkpt lat="47.33984" lon="-1.48677">
        <ele>54</ele>
        <time>2022-03-27T11:07:16Z</time>
      </trkpt>
      <trkpt lat="47.33994" lon="-1.48661">
        <ele>54</ele>
        <time>2022-03-27T11:07:18Z</time>
      </trkpt>
      <trkpt lat="47.34003" lon="-1.48646">
        <ele>53</ele>
        <time>2022-03-27T11:07:20Z</time>
      </trkpt>
      <trkpt lat="47.34012" lon="-1.48631">
        <ele>53</ele>
        <time>2022-03-27T11:07:22Z</time>
      </trkpt>
      <trkpt lat="47.34021" lon="-1.48616">
        <ele>53</ele>
        <time>2022-03-27T11:07:24Z</time>
      </trkpt>
      <trkpt lat="47.34029" lon="-1.486">
        <ele>53</ele>
        <time>2022-03-27T11:07:26Z</time>
      </trkpt>
      <trkpt lat="47.34037" lon="-1.48585">
        <ele>54</ele>
        <time>2022-03-27T11:07:28Z</time>
      </trkpt>
      <trkpt lat="47.34044" lon="-1.48569">
        <ele>54</ele>
        <time>2022-03-27T11:07:30Z</time>
      </trkpt>
      <trkpt lat="47.34051" lon="-1.48553">
        <ele>54</ele>
        <time>2022-03-27T11:07:32Z</time>
      </trkpt>
      <trkpt lat="47.34059" lon="-1.48538">
        <ele>54</ele>
        <time>2022-03-27T11:07:34Z</time>
      </trkpt>
      <trkpt lat="47.34066" lon="-1.48522">
        <ele>55</ele>
        <time>2022-03-27T11:07:36Z</time>
      </trkpt>
      <trkpt lat="47.34074" lon="-1.48507">
        <ele>55</ele>
        <time>2022-03-27T11:07:38Z</time>
      </trkpt>
      <trkpt lat="47.34082" lon="-1.48492">
        <ele>55</ele>
        <time>2022-03-27T11:07:40Z</time>
      </trkpt>
      <trkpt lat="47.3409" lon="-1.48476">
        <ele>54</ele>
        <time>2022-03-27T11:07:42Z</time>
      </trkpt>
      <trkpt lat="47.34097" lon="-1.48461">
        <ele>54</ele>
        <time>2022-03-27T11:07:44Z</time>
      </trkpt>
      <trkpt lat="47.34105" lon="-1.48445">
        <ele>54</ele>
        <time>2022-03-27T11:07:46Z</time>
      </trkpt>
      <trkpt lat="47.34112" lon="-1.48429">
        <ele>54</ele>
        <time>2022-03-27T11:07:48Z</time>
      </trkpt>
      <trkpt lat="47.3412" lon="-1.48413">
        <ele>54</ele>
        <time>2022-03-27T11:07:50Z</time>
      </trkpt>
      <trkpt lat="47.34127" lon="-1.48397">
        <ele>54</ele>
        <time>2022-03-27T11:07:52Z</time>
      </trkpt>
      <trkpt lat="47.34134" lon="-1.48382">
        <ele>54</ele>
        <time>2022-03-27T11:07:54Z</time>
      </trkpt>
      <trkpt lat="47.34142" lon="-1.48366">
        <ele>53</ele>
        <time>2022-03-27T11:07:56Z</time>
      </trkpt>
      <trkpt lat="47.34149" lon="-1.4835">
        <ele>53</ele>
        <time>2022-03-27T11:07:58Z</time>
      </trkpt>
      <trkpt lat="47.34157" lon="-1.48334">
        <ele>53</ele>
        <time>2022-03-27T11:08:00Z</time>
      </trkpt>
      <trkpt lat="47.34164" lon="-1.48318">
        <ele>53</ele>
        <time>2022-03-27T11:08:02Z</time>
      </trkpt>
      <trkpt lat="47.34172" lon="-1.48303">
        <ele>53</ele>
        <time>2022-03-27T11:08:04Z</time>
      </trkpt>
      <trkpt lat="47.34179" lon="-1.48287">
        <ele>53</ele>
        <time>2022-03-27T11:08:06Z</time>
      </trkpt>
      <trkpt lat="47.34187" lon="-1.48272">
        <ele>53</ele>
        <time>2022-03-27T11:08:08Z</time>
      </trkpt>
      <trkpt lat="47.34196" lon="-1.48257">
        <ele>53</ele>
        <time>2022-03-27T11:08:10Z</time>
      </trkpt>
      <trkpt lat="47.34204" lon="-1.48242">
        <ele>53</ele>
        <time>2022-03-27T11:08:12Z</time>
      </trkpt>
      <trkpt lat="47.34213" lon="-1.48228">
        <ele>53</ele>
        <time>2022-03-27T11:08:14Z</time>
      </trkpt>
      <trkpt lat="47.34222" lon="-1.48214">
        <ele>53</ele>
        <time>2022-03-27T11:08:16Z</time>
      </trkpt>
      <trkpt lat="47.3423" lon="-1.482">
        <ele>52</ele>
        <time>2022-03-27T11:08:18Z</time>
      </trkpt>
      <trkpt lat="47.34239" lon="-1.48186">
        <ele>52</ele>
        <time>2022-03-27T11:08:20Z</time>
      </trkpt>
      <trkpt lat="47.34247" lon="-1.48173">
        <ele>52</ele>
        <time>2022-03-27T11:08:22Z</time>
      </trkpt>
      <trkpt lat="47.34256" lon="-1.48159">
        <ele>52</ele>
        <time>2022-03-27T11:08:24Z</time>
      </trkpt>
      <trkpt lat="47.34264" lon="-1.48146">
        <ele>52</ele>
        <time>2022-03-27T11:08:26Z</time>
      </trkpt>
      <trkpt lat="47.34273" lon="-1.48132">
        <ele>52</ele>
        <time>2022-03-27T11:08:28Z</time>
      </trkpt>
      <trkpt lat="47.3428" lon="-1.48118">
        <ele>53</ele>
        <time>2022-03-27T11:08:30Z</time>
      </trkpt>
      <trkpt lat="47.34289" lon="-1.48105">
        <ele>53</ele>
        <time>2022-03-27T11:08:32Z</time>
      </trkpt>
      <trkpt lat="47.34297" lon="-1.48091">
        <ele>53</ele>
        <time>2022-03-27T11:08:34Z</time>
      </trkpt>
      <trkpt lat="47.34306" lon="-1.48078">
        <ele>52</ele>
        <time>2022-03-27T11:08:36Z</time>
      </trkpt>
      <trkpt lat="47.34314" lon="-1.48065">
        <ele>52</ele>
        <time>2022-03-27T11:08:38Z</time>
      </trkpt>
      <trkpt lat="47.34322" lon="-1.48051">
        <ele>52</ele>
        <time>2022-03-27T11:08:40Z</time>
      </trkpt>
      <trkpt lat="47.34331" lon="-1.48038">
        <ele>53</ele>
        <time>2022-03-27T11:08:42Z</time>
      </trkpt>
      <trkpt lat="47.34339" lon="-1.48024">
        <ele>53</ele>
        <time>2022-03-27T11:08:44Z</time>
      </trkpt>
      <trkpt lat="47.34348" lon="-1.4801">
        <ele>53</ele>
        <time>2022-03-27T11:08:46Z</time>
      </trkpt>
      <trkpt lat="47.34356" lon="-1.47995">
        <ele>53</ele>
        <time>2022-03-27T11:08:48Z</time>
      </trkpt>
      <trkpt lat="47.34364" lon="-1.47982">
        <ele>53</ele>
        <time>2022-03-27T11:08:50Z</time>
      </trkpt>
      <trkpt lat="47.34373" lon="-1.47969">
        <ele>53</ele>
        <time>2022-03-27T11:08:52Z</time>
      </trkpt>
      <trkpt lat="47.34382" lon="-1.47955">
        <ele>53</ele>
        <time>2022-03-27T11:08:54Z</time>
      </trkpt>
      <trkpt lat="47.3439" lon="-1.47942">
        <ele>54</ele>
        <time>2022-03-27T11:08:56Z</time>
      </trkpt>
      <trkpt lat="47.34399" lon="-1.47929">
        <ele>54</ele>
        <time>2022-03-27T11:08:58Z</time>
      </trkpt>
      <trkpt lat="47.34408" lon="-1.47916">
        <ele>54</ele>
        <time>2022-03-27T11:09:00Z</time>
      </trkpt>
      <trkpt lat="47.34417" lon="-1.47905">
        <ele>54</ele>
        <time>2022-03-27T11:09:02Z</time>
      </trkpt>
      <trkpt lat="47.34427" lon="-1.47892">
        <ele>53</ele>
        <time>2022-03-27T11:09:04Z</time>
      </trkpt>
      <trkpt lat="47.34436" lon="-1.47881">
        <ele>53</ele>
        <time>2022-03-27T11:09:06Z</time>
      </trkpt>
      <trkpt lat="47.34446" lon="-1.4787">
        <ele>54</ele>
        <time>2022-03-27T11:09:08Z</time>
      </trkpt>
      <trkpt lat="47.34456" lon="-1.47859">
        <ele>54</ele>
        <time>2022-03-27T11:09:10Z</time>
      </trkpt>
      <trkpt lat="47.34466" lon="-1.47847">
        <ele>54</ele>
        <time>2022-03-27T11:09:12Z</time>
      </trkpt>
      <trkpt lat="47.34476" lon="-1.47836">
        <ele>54</ele>
        <time>2022-03-27T11:09:14Z</time>
      </trkpt>
      <trkpt lat="47.34486" lon="-1.47825">
        <ele>54</ele>
        <time>2022-03-27T11:09:16Z</time>
      </trkpt>
      <trkpt lat="47.34497" lon="-1.47813">
        <ele>54</ele>
        <time>2022-03-27T11:09:18Z</time>
      </trkpt>
      <trkpt lat="47.34507" lon="-1.47802">
        <ele>53</ele>
        <time>2022-03-27T11:09:20Z</time>
      </trkpt>
      <trkpt lat="47.34517" lon="-1.47791">
        <ele>53</ele>
        <time>2022-03-27T11:09:22Z</time>
      </trkpt>
      <trkpt lat="47.34527" lon="-1.4778">
        <ele>53</ele>
        <time>2022-03-27T11:09:24Z</time>
      </trkpt>
      <trkpt lat="47.34536" lon="-1.47768">
        <ele>53</ele>
        <time>2022-03-27T11:09:26Z</time>
      </trkpt>
      <trkpt lat="47.34547" lon="-1.47756">
        <ele>53</ele>
        <time>2022-03-27T11:09:28Z</time>
      </trkpt>
      <trkpt lat="47.34557" lon="-1.47744">
        <ele>53</ele>
        <time>2022-03-27T11:09:30Z</time>
      </trkpt>
      <trkpt lat="47.34567" lon="-1.47733">
        <ele>53</ele>
        <time>2022-03-27T11:09:32Z</time>
      </trkpt>
      <trkpt lat="47.34577" lon="-1.47722">
        <ele>52</ele>
        <time>2022-03-27T11:09:34Z</time>
      </trkpt>
      <trkpt lat="47.34587" lon="-1.4771">
        <ele>53</ele>
        <time>2022-03-27T11:09:36Z</time>
      </trkpt>
      <trkpt lat="47.34597" lon="-1.47699">
        <ele>53</ele>
        <time>2022-03-27T11:09:38Z</time>
      </trkpt>
      <trkpt lat="47.34606" lon="-1.47688">
        <ele>53</ele>
        <time>2022-03-27T11:09:40Z</time>
      </trkpt>
      <trkpt lat="47.34616" lon="-1.47678">
        <ele>53</ele>
        <time>2022-03-27T11:09:42Z</time>
      </trkpt>
      <trkpt lat="47.34626" lon="-1.47667">
        <ele>53</ele>
        <time>2022-03-27T11:09:44Z</time>
      </trkpt>
      <trkpt lat="47.34635" lon="-1.47656">
        <ele>53</ele>
        <time>2022-03-27T11:09:46Z</time>
      </trkpt>
      <trkpt lat="47.34645" lon="-1.47646">
        <ele>53</ele>
        <time>2022-03-27T11:09:48Z</time>
      </trkpt>
      <trkpt lat="47.34654" lon="-1.47636">
        <ele>53</ele>
        <time>2022-03-27T11:09:50Z</time>
      </trkpt>
      <trkpt lat="47.34663" lon="-1.47625">
        <ele>53</ele>
        <time>2022-03-27T11:09:52Z</time>
      </trkpt>
      <trkpt lat="47.34672" lon="-1.47615">
        <ele>53</ele>
        <time>2022-03-27T11:09:54Z</time>
      </trkpt>
      <trkpt lat="47.34682" lon="-1.47604">
        <ele>53</ele>
        <time>2022-03-27T11:09:56Z</time>
      </trkpt>
      <trkpt lat="47.34691" lon="-1.47593">
        <ele>53</ele>
        <time>2022-03-27T11:09:58Z</time>
      </trkpt>
      <trkpt lat="47.347" lon="-1.47583">
        <ele>53</ele>
        <time>2022-03-27T11:10:00Z</time>
      </trkpt>
      <trkpt lat="47.3471" lon="-1.47572">
        <ele>53</ele>
        <time>2022-03-27T11:10:02Z</time>
      </trkpt>
      <trkpt lat="47.34719" lon="-1.47562">
        <ele>53</ele>
        <time>2022-03-27T11:10:04Z</time>
      </trkpt>
      <trkpt lat="47.34729" lon="-1.47551">
        <ele>53</ele>
        <time>2022-03-27T11:10:06Z</time>
      </trkpt>
      <trkpt lat="47.34739" lon="-1.47541">
        <ele>54</ele>
        <time>2022-03-27T11:10:08Z</time>
      </trkpt>
      <trkpt lat="47.34748" lon="-1.47529">
        <ele>54</ele>
        <time>2022-03-27T11:10:10Z</time>
      </trkpt>
      <trkpt lat="47.34757" lon="-1.47517">
        <ele>54</ele>
        <time>2022-03-27T11:10:12Z</time>
      </trkpt>
      <trkpt lat="47.34766" lon="-1.47505">
        <ele>54</ele>
        <time>2022-03-27T11:10:14Z</time>
      </trkpt>
      <trkpt lat="47.34774" lon="-1.47491">
        <ele>54</ele>
        <time>2022-03-27T11:10:16Z</time>
      </trkpt>
      <trkpt lat="47.34782" lon="-1.47477">
        <ele>53</ele>
        <time>2022-03-27T11:10:18Z</time>
      </trkpt>
      <trkpt lat="47.34789" lon="-1.47461">
        <ele>53</ele>
        <time>2022-03-27T11:10:20Z</time>
      </trkpt>
      <trkpt lat="47.34795" lon="-1.47444">
        <ele>53</ele>
        <time>2022-03-27T11:10:22Z</time>
      </trkpt>
      <trkpt lat="47.34801" lon="-1.47428">
        <ele>53</ele>
        <time>2022-03-27T11:10:24Z</time>
      </trkpt>
      <trkpt lat="47.34807" lon="-1.47412">
        <ele>53</ele>
        <time>2022-03-27T11:10:26Z</time>
      </trkpt>
      <trkpt lat="47.34813" lon="-1.47396">
        <ele>53</ele>
        <time>2022-03-27T11:10:28Z</time>
      </trkpt>
      <trkpt lat="47.3482" lon="-1.47381">
        <ele>53</ele>
        <time>2022-03-27T11:10:30Z</time>
      </trkpt>
      <trkpt lat="47.34828" lon="-1.47367">
        <ele>54</ele>
        <time>2022-03-27T11:10:32Z</time>
      </trkpt>
      <trkpt lat="47.34837" lon="-1.47354">
        <ele>54</ele>
        <time>2022-03-27T11:10:34Z</time>
      </trkpt>
      <trkpt lat="47.34845" lon="-1.47342">
        <ele>54</ele>
        <time>2022-03-27T11:10:36Z</time>
      </trkpt>
      <trkpt lat="47.34856" lon="-1.4733">
        <ele>55</ele>
        <time>2022-03-27T11:10:38Z</time>
      </trkpt>
      <trkpt lat="47.34866" lon="-1.4732">
        <ele>54</ele>
        <time>2022-03-27T11:10:40Z</time>
      </trkpt>
      <trkpt lat="47.34877" lon="-1.47312">
        <ele>55</ele>
        <time>2022-03-27T11:10:42Z</time>
      </trkpt>
      <trkpt lat="47.34888" lon="-1.47303">
        <ele>55</ele>
        <time>2022-03-27T11:10:44Z</time>
      </trkpt>
      <trkpt lat="47.34898" lon="-1.47295">
        <ele>55</ele>
        <time>2022-03-27T11:10:46Z</time>
      </trkpt>
      <trkpt lat="47.34909" lon="-1.47287">
        <ele>55</ele>
        <time>2022-03-27T11:10:48Z</time>
      </trkpt>
      <trkpt lat="47.34919" lon="-1.47279">
        <ele>55</ele>
        <time>2022-03-27T11:10:50Z</time>
      </trkpt>
      <trkpt lat="47.34928" lon="-1.47272">
        <ele>55</ele>
        <time>2022-03-27T11:10:52Z</time>
      </trkpt>
      <trkpt lat="47.34939" lon="-1.47266">
        <ele>55</ele>
        <time>2022-03-27T11:10:54Z</time>
      </trkpt>
      <trkpt lat="47.3495" lon="-1.47261">
        <ele>55</ele>
        <time>2022-03-27T11:10:56Z</time>
      </trkpt>
      <trkpt lat="47.34962" lon="-1.47255">
        <ele>55</ele>
        <time>2022-03-27T11:10:58Z</time>
      </trkpt>
      <trkpt lat="47.34972" lon="-1.47251">
        <ele>56</ele>
        <time>2022-03-27T11:11:00Z</time>
      </trkpt>
      <trkpt lat="47.34982" lon="-1.47246">
        <ele>56</ele>
        <time>2022-03-27T11:11:02Z</time>
      </trkpt>
      <trkpt lat="47.34991" lon="-1.47239">
        <ele>56</ele>
        <time>2022-03-27T11:11:04Z</time>
      </trkpt>
      <trkpt lat="47.35" lon="-1.47228">
        <ele>56</ele>
        <time>2022-03-27T11:11:06Z</time>
      </trkpt>
      <trkpt lat="47.35009" lon="-1.4722">
        <ele>56</ele>
        <time>2022-03-27T11:11:08Z</time>
      </trkpt>
      <trkpt lat="47.35018" lon="-1.47212">
        <ele>57</ele>
        <time>2022-03-27T11:11:10Z</time>
      </trkpt>
      <trkpt lat="47.35029" lon="-1.4721">
        <ele>57</ele>
        <time>2022-03-27T11:11:12Z</time>
      </trkpt>
      <trkpt lat="47.35039" lon="-1.47214">
        <ele>57</ele>
        <time>2022-03-27T11:11:14Z</time>
      </trkpt>
      <trkpt lat="47.3505" lon="-1.4722">
        <ele>57</ele>
        <time>2022-03-27T11:11:16Z</time>
      </trkpt>
      <trkpt lat="47.35062" lon="-1.47224">
        <ele>57</ele>
        <time>2022-03-27T11:11:18Z</time>
      </trkpt>
      <trkpt lat="47.35073" lon="-1.47227">
        <ele>58</ele>
        <time>2022-03-27T11:11:20Z</time>
      </trkpt>
      <trkpt lat="47.35085" lon="-1.47229">
        <ele>58</ele>
        <time>2022-03-27T11:11:22Z</time>
      </trkpt>
      <trkpt lat="47.35096" lon="-1.47233">
        <ele>58</ele>
        <time>2022-03-27T11:11:24Z</time>
      </trkpt>
      <trkpt lat="47.35108" lon="-1.47236">
        <ele>58</ele>
        <time>2022-03-27T11:11:26Z</time>
      </trkpt>
      <trkpt lat="47.3512" lon="-1.47239">
        <ele>57</ele>
        <time>2022-03-27T11:11:28Z</time>
      </trkpt>
      <trkpt lat="47.35132" lon="-1.4724">
        <ele>57</ele>
        <time>2022-03-27T11:11:30Z</time>
      </trkpt>
      <trkpt lat="47.35144" lon="-1.47242">
        <ele>57</ele>
        <time>2022-03-27T11:11:32Z</time>
      </trkpt>
      <trkpt lat="47.35156" lon="-1.47242">
        <ele>56</ele>
        <time>2022-03-27T11:11:34Z</time>
      </trkpt>
      <trkpt lat="47.35169" lon="-1.47239">
        <ele>56</ele>
        <time>2022-03-27T11:11:36Z</time>
      </trkpt>
      <trkpt lat="47.3518" lon="-1.47236">
        <ele>55</ele>
        <time>2022-03-27T11:11:38Z</time>
      </trkpt>
      <trkpt lat="47.35192" lon="-1.47232">
        <ele>56</ele>
        <time>2022-03-27T11:11:40Z</time>
      </trkpt>
      <trkpt lat="47.35203" lon="-1.4723">
        <ele>55</ele>
        <time>2022-03-27T11:11:42Z</time>
      </trkpt>
      <trkpt lat="47.35214" lon="-1.47237">
        <ele>55</ele>
        <time>2022-03-27T11:11:44Z</time>
      </trkpt>
      <trkpt lat="47.35224" lon="-1.4725">
        <ele>55</ele>
        <time>2022-03-27T11:11:46Z</time>
      </trkpt>
      <trkpt lat="47.35231" lon="-1.47264">
        <ele>55</ele>
        <time>2022-03-27T11:11:48Z</time>
      </trkpt>
      <trkpt lat="47.35238" lon="-1.47277">
        <ele>56</ele>
        <time>2022-03-27T11:11:50Z</time>
      </trkpt>
      <trkpt lat="47.35246" lon="-1.47292">
        <ele>56</ele>
        <time>2022-03-27T11:11:52Z</time>
      </trkpt>
      <trkpt lat="47.35257" lon="-1.47298">
        <ele>56</ele>
        <time>2022-03-27T11:11:54Z</time>
      </trkpt>
      <trkpt lat="47.35267" lon="-1.47289">
        <ele>56</ele>
        <time>2022-03-27T11:11:56Z</time>
      </trkpt>
      <trkpt lat="47.35277" lon="-1.47282">
        <ele>57</ele>
        <time>2022-03-27T11:11:58Z</time>
      </trkpt>
      <trkpt lat="47.35288" lon="-1.47278">
        <ele>58</ele>
        <time>2022-03-27T11:12:00Z</time>
      </trkpt>
      <trkpt lat="47.353" lon="-1.47276">
        <ele>58</ele>
        <time>2022-03-27T11:12:02Z</time>
      </trkpt>
      <trkpt lat="47.35311" lon="-1.47276">
        <ele>58</ele>
        <time>2022-03-27T11:12:04Z</time>
      </trkpt>
      <trkpt lat="47.35322" lon="-1.47276">
        <ele>58</ele>
        <time>2022-03-27T11:12:06Z</time>
      </trkpt>
      <trkpt lat="47.35333" lon="-1.47276">
        <ele>59</ele>
        <time>2022-03-27T11:12:08Z</time>
      </trkpt>
      <trkpt lat="47.35343" lon="-1.47275">
        <ele>59</ele>
        <time>2022-03-27T11:12:10Z</time>
      </trkpt>
      <trkpt lat="47.35352" lon="-1.47274">
        <ele>60</ele>
        <time>2022-03-27T11:12:12Z</time>
      </trkpt>
      <trkpt lat="47.35362" lon="-1.47272">
        <ele>60</ele>
        <time>2022-03-27T11:12:14Z</time>
      </trkpt>
      <trkpt lat="47.35371" lon="-1.47268">
        <ele>60</ele>
        <time>2022-03-27T11:12:16Z</time>
      </trkpt>
      <trkpt lat="47.3538" lon="-1.47262">
        <ele>61</ele>
        <time>2022-03-27T11:12:18Z</time>
      </trkpt>
      <trkpt lat="47.35389" lon="-1.47255">
        <ele>61</ele>
        <time>2022-03-27T11:12:20Z</time>
      </trkpt>
      <trkpt lat="47.35399" lon="-1.47247">
        <ele>62</ele>
        <time>2022-03-27T11:12:22Z</time>
      </trkpt>
      <trkpt lat="47.35408" lon="-1.47239">
        <ele>62</ele>
        <time>2022-03-27T11:12:24Z</time>
      </trkpt>
      <trkpt lat="47.35416" lon="-1.47232">
        <ele>63</ele>
        <time>2022-03-27T11:12:26Z</time>
      </trkpt>
      <trkpt lat="47.35425" lon="-1.47224">
        <ele>63</ele>
        <time>2022-03-27T11:12:28Z</time>
      </trkpt>
      <trkpt lat="47.35434" lon="-1.47216">
        <ele>64</ele>
        <time>2022-03-27T11:12:30Z</time>
      </trkpt>
      <trkpt lat="47.35443" lon="-1.47208">
        <ele>64</ele>
        <time>2022-03-27T11:12:32Z</time>
      </trkpt>
      <trkpt lat="47.35452" lon="-1.472">
        <ele>65</ele>
        <time>2022-03-27T11:12:34Z</time>
      </trkpt>
      <trkpt lat="47.35461" lon="-1.47192">
        <ele>65</ele>
        <time>2022-03-27T11:12:36Z</time>
      </trkpt>
      <trkpt lat="47.35469" lon="-1.47184">
        <ele>66</ele>
        <time>2022-03-27T11:12:38Z</time>
      </trkpt>
      <trkpt lat="47.35477" lon="-1.47177">
        <ele>67</ele>
        <time>2022-03-27T11:12:40Z</time>
      </trkpt>
      <trkpt lat="47.35486" lon="-1.4717">
        <ele>67</ele>
        <time>2022-03-27T11:12:42Z</time>
      </trkpt>
      <trkpt lat="47.35494" lon="-1.47162">
        <ele>67</ele>
        <time>2022-03-27T11:12:44Z</time>
      </trkpt>
      <trkpt lat="47.35502" lon="-1.47155">
        <ele>67</ele>
        <time>2022-03-27T11:12:46Z</time>
      </trkpt>
      <trkpt lat="47.35511" lon="-1.47148">
        <ele>68</ele>
        <time>2022-03-27T11:12:48Z</time>
      </trkpt>
      <trkpt lat="47.3552" lon="-1.4714">
        <ele>67</ele>
        <time>2022-03-27T11:12:50Z</time>
      </trkpt>
      <trkpt lat="47.35529" lon="-1.47132">
        <ele>67</ele>
        <time>2022-03-27T11:12:52Z</time>
      </trkpt>
      <trkpt lat="47.35538" lon="-1.47124">
        <ele>67</ele>
        <time>2022-03-27T11:12:54Z</time>
      </trkpt>
      <trkpt lat="47.35548" lon="-1.47115">
        <ele>67</ele>
        <time>2022-03-27T11:12:56Z</time>
      </trkpt>
      <trkpt lat="47.35558" lon="-1.47108">
        <ele>67</ele>
        <time>2022-03-27T11:12:58Z</time>
      </trkpt>
      <trkpt lat="47.35567" lon="-1.471">
        <ele>68</ele>
        <time>2022-03-27T11:13:00Z</time>
      </trkpt>
      <trkpt lat="47.35575" lon="-1.47092">
        <ele>68</ele>
        <time>2022-03-27T11:13:02Z</time>
      </trkpt>
      <trkpt lat="47.35584" lon="-1.47085">
        <ele>68</ele>
        <time>2022-03-27T11:13:04Z</time>
      </trkpt>
      <trkpt lat="47.35592" lon="-1.47077">
        <ele>68</ele>
        <time>2022-03-27T11:13:06Z</time>
      </trkpt>
      <trkpt lat="47.35602" lon="-1.47069">
        <ele>68</ele>
        <time>2022-03-27T11:13:08Z</time>
      </trkpt>
      <trkpt lat="47.35612" lon="-1.47061">
        <ele>67</ele>
        <time>2022-03-27T11:13:10Z</time>
      </trkpt>
      <trkpt lat="47.35623" lon="-1.47051">
        <ele>66</ele>
        <time>2022-03-27T11:13:12Z</time>
      </trkpt>
      <trkpt lat="47.35636" lon="-1.4704">
        <ele>64</ele>
        <time>2022-03-27T11:13:14Z</time>
      </trkpt>
      <trkpt lat="47.35651" lon="-1.47028">
        <ele>62</ele>
        <time>2022-03-27T11:13:16Z</time>
      </trkpt>
      <trkpt lat="47.35658" lon="-1.47021">
        <ele>61</ele>
        <time>2022-03-27T11:13:17Z</time>
      </trkpt>
      <trkpt lat="47.35667" lon="-1.47014">
        <ele>60</ele>
        <time>2022-03-27T11:13:18Z</time>
      </trkpt>
      <trkpt lat="47.35676" lon="-1.47006">
        <ele>59</ele>
        <time>2022-03-27T11:13:19Z</time>
      </trkpt>
      <trkpt lat="47.35685" lon="-1.46998">
        <ele>58</ele>
        <time>2022-03-27T11:13:20Z</time>
      </trkpt>
      <trkpt lat="47.35694" lon="-1.46989">
        <ele>56</ele>
        <time>2022-03-27T11:13:21Z</time>
      </trkpt>
      <trkpt lat="47.35704" lon="-1.4698">
        <ele>55</ele>
        <time>2022-03-27T11:13:22Z</time>
      </trkpt>
      <trkpt lat="47.35713" lon="-1.46973">
        <ele>55</ele>
        <time>2022-03-27T11:13:23Z</time>
      </trkpt>
      <trkpt lat="47.35722" lon="-1.46966">
        <ele>54</ele>
        <time>2022-03-27T11:13:24Z</time>
      </trkpt>
      <trkpt lat="47.35735" lon="-1.46954">
        <ele>54</ele>
        <time>2022-03-27T11:13:26Z</time>
      </trkpt>
      <trkpt lat="47.35744" lon="-1.46938">
        <ele>53</ele>
        <time>2022-03-27T11:13:28Z</time>
      </trkpt>
      <trkpt lat="47.35745" lon="-1.46917">
        <ele>53</ele>
        <time>2022-03-27T11:13:30Z</time>
      </trkpt>
      <trkpt lat="47.35742" lon="-1.46896">
        <ele>54</ele>
        <time>2022-03-27T11:13:32Z</time>
      </trkpt>
      <trkpt lat="47.3574" lon="-1.46875">
        <ele>53</ele>
        <time>2022-03-27T11:13:34Z</time>
      </trkpt>
      <trkpt lat="47.35737" lon="-1.46855">
        <ele>53</ele>
        <time>2022-03-27T11:13:36Z</time>
      </trkpt>
      <trkpt lat="47.35735" lon="-1.46833">
        <ele>53</ele>
        <time>2022-03-27T11:13:38Z</time>
      </trkpt>
      <trkpt lat="47.35733" lon="-1.46812">
        <ele>53</ele>
        <time>2022-03-27T11:13:40Z</time>
      </trkpt>
      <trkpt lat="47.35734" lon="-1.46791">
        <ele>53</ele>
        <time>2022-03-27T11:13:42Z</time>
      </trkpt>
      <trkpt lat="47.35736" lon="-1.4677">
        <ele>53</ele>
        <time>2022-03-27T11:13:44Z</time>
      </trkpt>
      <trkpt lat="47.3574" lon="-1.46749">
        <ele>53</ele>
        <time>2022-03-27T11:13:46Z</time>
      </trkpt>
      <trkpt lat="47.35743" lon="-1.4673">
        <ele>53</ele>
        <time>2022-03-27T11:13:48Z</time>
      </trkpt>
      <trkpt lat="47.35745" lon="-1.46709">
        <ele>54</ele>
        <time>2022-03-27T11:13:50Z</time>
      </trkpt>
      <trkpt lat="47.35748" lon="-1.46688">
        <ele>54</ele>
        <time>2022-03-27T11:13:52Z</time>
      </trkpt>
      <trkpt lat="47.35752" lon="-1.46668">
        <ele>54</ele>
        <time>2022-03-27T11:13:54Z</time>
      </trkpt>
      <trkpt lat="47.35758" lon="-1.46649">
        <ele>54</ele>
        <time>2022-03-27T11:13:56Z</time>
      </trkpt>
      <trkpt lat="47.35768" lon="-1.46635">
        <ele>54</ele>
        <time>2022-03-27T11:13:58Z</time>
      </trkpt>
      <trkpt lat="47.3578" lon="-1.46623">
        <ele>54</ele>
        <time>2022-03-27T11:14:00Z</time>
      </trkpt>
      <trkpt lat="47.35792" lon="-1.46613">
        <ele>54</ele>
        <time>2022-03-27T11:14:02Z</time>
      </trkpt>
      <trkpt lat="47.35804" lon="-1.46603">
        <ele>54</ele>
        <time>2022-03-27T11:14:04Z</time>
      </trkpt>
      <trkpt lat="47.35816" lon="-1.46593">
        <ele>54</ele>
        <time>2022-03-27T11:14:06Z</time>
      </trkpt>
      <trkpt lat="47.35828" lon="-1.46583">
        <ele>53</ele>
        <time>2022-03-27T11:14:08Z</time>
      </trkpt>
      <trkpt lat="47.3584" lon="-1.46573">
        <ele>53</ele>
        <time>2022-03-27T11:14:10Z</time>
      </trkpt>
      <trkpt lat="47.35853" lon="-1.46564">
        <ele>53</ele>
        <time>2022-03-27T11:14:12Z</time>
      </trkpt>
      <trkpt lat="47.35864" lon="-1.46555">
        <ele>53</ele>
        <time>2022-03-27T11:14:14Z</time>
      </trkpt>
      <trkpt lat="47.35875" lon="-1.46546">
        <ele>52</ele>
        <time>2022-03-27T11:14:16Z</time>
      </trkpt>
      <trkpt lat="47.35885" lon="-1.46532">
        <ele>52</ele>
        <time>2022-03-27T11:14:18Z</time>
      </trkpt>
      <trkpt lat="47.3589" lon="-1.46516">
        <ele>52</ele>
        <time>2022-03-27T11:14:20Z</time>
      </trkpt>
      <trkpt lat="47.35894" lon="-1.46497">
        <ele>53</ele>
        <time>2022-03-27T11:14:22Z</time>
      </trkpt>
      <trkpt lat="47.35897" lon="-1.46477">
        <ele>54</ele>
        <time>2022-03-27T11:14:24Z</time>
      </trkpt>
      <trkpt lat="47.35901" lon="-1.46458">
        <ele>54</ele>
        <time>2022-03-27T11:14:26Z</time>
      </trkpt>
      <trkpt lat="47.35904" lon="-1.4644">
        <ele>54</ele>
        <time>2022-03-27T11:14:28Z</time>
      </trkpt>
      <trkpt lat="47.35906" lon="-1.46422">
        <ele>54</ele>
        <time>2022-03-27T11:14:30Z</time>
      </trkpt>
      <trkpt lat="47.35909" lon="-1.46403">
        <ele>54</ele>
        <time>2022-03-27T11:14:32Z</time>
      </trkpt>
      <trkpt lat="47.35909" lon="-1.46384">
        <ele>53</ele>
        <time>2022-03-27T11:14:34Z</time>
      </trkpt>
      <trkpt lat="47.35902" lon="-1.46369">
        <ele>53</ele>
        <time>2022-03-27T11:14:36Z</time>
      </trkpt>
      <trkpt lat="47.35893" lon="-1.46355">
        <ele>53</ele>
        <time>2022-03-27T11:14:38Z</time>
      </trkpt>
      <trkpt lat="47.35884" lon="-1.46341">
        <ele>53</ele>
        <time>2022-03-27T11:14:40Z</time>
      </trkpt>
      <trkpt lat="47.35873" lon="-1.46327">
        <ele>53</ele>
        <time>2022-03-27T11:14:42Z</time>
      </trkpt>
      <trkpt lat="47.35863" lon="-1.46315">
        <ele>53</ele>
        <time>2022-03-27T11:14:44Z</time>
      </trkpt>
      <trkpt lat="47.35853" lon="-1.46302">
        <ele>53</ele>
        <time>2022-03-27T11:14:46Z</time>
      </trkpt>
      <trkpt lat="47.35846" lon="-1.46287">
        <ele>54</ele>
        <time>2022-03-27T11:14:48Z</time>
      </trkpt>
      <trkpt lat="47.3584" lon="-1.4627">
        <ele>54</ele>
        <time>2022-03-27T11:14:50Z</time>
      </trkpt>
      <trkpt lat="47.35835" lon="-1.46253">
        <ele>54</ele>
        <time>2022-03-27T11:14:52Z</time>
      </trkpt>
      <trkpt lat="47.35834" lon="-1.46235">
        <ele>54</ele>
        <time>2022-03-27T11:14:54Z</time>
      </trkpt>
      <trkpt lat="47.35837" lon="-1.46217">
        <ele>55</ele>
        <time>2022-03-27T11:14:56Z</time>
      </trkpt>
      <trkpt lat="47.35842" lon="-1.46201">
        <ele>55</ele>
        <time>2022-03-27T11:14:58Z</time>
      </trkpt>
      <trkpt lat="47.35844" lon="-1.46184">
        <ele>55</ele>
        <time>2022-03-27T11:15:00Z</time>
      </trkpt>
      <trkpt lat="47.35842" lon="-1.46166">
        <ele>55</ele>
        <time>2022-03-27T11:15:02Z</time>
      </trkpt>
      <trkpt lat="47.35839" lon="-1.46148">
        <ele>54</ele>
        <time>2022-03-27T11:15:04Z</time>
      </trkpt>
      <trkpt lat="47.35836" lon="-1.46131">
        <ele>54</ele>
        <time>2022-03-27T11:15:06Z</time>
      </trkpt>
      <trkpt lat="47.35832" lon="-1.46114">
        <ele>55</ele>
        <time>2022-03-27T11:15:08Z</time>
      </trkpt>
      <trkpt lat="47.35829" lon="-1.46098">
        <ele>55</ele>
        <time>2022-03-27T11:15:10Z</time>
      </trkpt>
      <trkpt lat="47.35825" lon="-1.46082">
        <ele>55</ele>
        <time>2022-03-27T11:15:12Z</time>
      </trkpt>
      <trkpt lat="47.3582" lon="-1.46066">
        <ele>55</ele>
        <time>2022-03-27T11:15:14Z</time>
      </trkpt>
      <trkpt lat="47.35815" lon="-1.46051">
        <ele>55</ele>
        <time>2022-03-27T11:15:16Z</time>
      </trkpt>
      <trkpt lat="47.35811" lon="-1.46036">
        <ele>55</ele>
        <time>2022-03-27T11:15:18Z</time>
      </trkpt>
      <trkpt lat="47.35807" lon="-1.46021">
        <ele>55</ele>
        <time>2022-03-27T11:15:20Z</time>
      </trkpt>
      <trkpt lat="47.35803" lon="-1.46006">
        <ele>55</ele>
        <time>2022-03-27T11:15:22Z</time>
      </trkpt>
      <trkpt lat="47.35801" lon="-1.4599">
        <ele>56</ele>
        <time>2022-03-27T11:15:24Z</time>
      </trkpt>
      <trkpt lat="47.35801" lon="-1.45974">
        <ele>56</ele>
        <time>2022-03-27T11:15:26Z</time>
      </trkpt>
      <trkpt lat="47.35801" lon="-1.45958">
        <ele>57</ele>
        <time>2022-03-27T11:15:28Z</time>
      </trkpt>
      <trkpt lat="47.35801" lon="-1.45941">
        <ele>57</ele>
        <time>2022-03-27T11:15:30Z</time>
      </trkpt>
      <trkpt lat="47.35801" lon="-1.45925">
        <ele>58</ele>
        <time>2022-03-27T11:15:32Z</time>
      </trkpt>
      <trkpt lat="47.35801" lon="-1.45909">
        <ele>58</ele>
        <time>2022-03-27T11:15:34Z</time>
      </trkpt>
      <trkpt lat="47.35801" lon="-1.45892">
        <ele>59</ele>
        <time>2022-03-27T11:15:36Z</time>
      </trkpt>
      <trkpt lat="47.358" lon="-1.45876">
        <ele>59</ele>
        <time>2022-03-27T11:15:38Z</time>
      </trkpt>
      <trkpt lat="47.358" lon="-1.4586">
        <ele>60</ele>
        <time>2022-03-27T11:15:40Z</time>
      </trkpt>
      <trkpt lat="47.35799" lon="-1.45843">
        <ele>60</ele>
        <time>2022-03-27T11:15:42Z</time>
      </trkpt>
      <trkpt lat="47.35799" lon="-1.45827">
        <ele>60</ele>
        <time>2022-03-27T11:15:44Z</time>
      </trkpt>
      <trkpt lat="47.35798" lon="-1.45811">
        <ele>60</ele>
        <time>2022-03-27T11:15:46Z</time>
      </trkpt>
      <trkpt lat="47.35797" lon="-1.45795">
        <ele>61</ele>
        <time>2022-03-27T11:15:48Z</time>
      </trkpt>
      <trkpt lat="47.35797" lon="-1.4578">
        <ele>61</ele>
        <time>2022-03-27T11:15:50Z</time>
      </trkpt>
      <trkpt lat="47.35797" lon="-1.45764">
        <ele>61</ele>
        <time>2022-03-27T11:15:52Z</time>
      </trkpt>
      <trkpt lat="47.35796" lon="-1.45751">
        <ele>61</ele>
        <time>2022-03-27T11:15:54Z</time>
      </trkpt>
      <trkpt lat="47.35794" lon="-1.45733">
        <ele>61</ele>
        <time>2022-03-27T11:15:57Z</time>
      </trkpt>
      <trkpt lat="47.35789" lon="-1.4572">
        <ele>61</ele>
        <time>2022-03-27T11:16:03Z</time>
      </trkpt>
      <trkpt lat="47.35784" lon="-1.45701">
        <ele>61</ele>
        <time>2022-03-27T11:16:06Z</time>
      </trkpt>
      <trkpt lat="47.35781" lon="-1.45686">
        <ele>61</ele>
        <time>2022-03-27T11:16:08Z</time>
      </trkpt>
      <trkpt lat="47.35777" lon="-1.4567">
        <ele>62</ele>
        <time>2022-03-27T11:16:10Z</time>
      </trkpt>
      <trkpt lat="47.35774" lon="-1.45655">
        <ele>62</ele>
        <time>2022-03-27T11:16:12Z</time>
      </trkpt>
      <trkpt lat="47.3577" lon="-1.4564">
        <ele>62</ele>
        <time>2022-03-27T11:16:14Z</time>
      </trkpt>
      <trkpt lat="47.35767" lon="-1.45624">
        <ele>61</ele>
        <time>2022-03-27T11:16:16Z</time>
      </trkpt>
      <trkpt lat="47.35765" lon="-1.45608">
        <ele>61</ele>
        <time>2022-03-27T11:16:18Z</time>
      </trkpt>
      <trkpt lat="47.35763" lon="-1.45593">
        <ele>61</ele>
        <time>2022-03-27T11:16:20Z</time>
      </trkpt>
      <trkpt lat="47.35763" lon="-1.45576">
        <ele>61</ele>
        <time>2022-03-27T11:16:22Z</time>
      </trkpt>
      <trkpt lat="47.35764" lon="-1.4556">
        <ele>61</ele>
        <time>2022-03-27T11:16:24Z</time>
      </trkpt>
      <trkpt lat="47.35766" lon="-1.45544">
        <ele>61</ele>
        <time>2022-03-27T11:16:26Z</time>
      </trkpt>
      <trkpt lat="47.3577" lon="-1.45529">
        <ele>61</ele>
        <time>2022-03-27T11:16:28Z</time>
      </trkpt>
      <trkpt lat="47.35775" lon="-1.45514">
        <ele>61</ele>
        <time>2022-03-27T11:16:30Z</time>
      </trkpt>
      <trkpt lat="47.3578" lon="-1.45499">
        <ele>62</ele>
        <time>2022-03-27T11:16:32Z</time>
      </trkpt>
      <trkpt lat="47.35785" lon="-1.45484">
        <ele>62</ele>
        <time>2022-03-27T11:16:34Z</time>
      </trkpt>
      <trkpt lat="47.3579" lon="-1.45469">
        <ele>62</ele>
        <time>2022-03-27T11:16:36Z</time>
      </trkpt>
      <trkpt lat="47.35794" lon="-1.45454">
        <ele>62</ele>
        <time>2022-03-27T11:16:38Z</time>
      </trkpt>
      <trkpt lat="47.35798" lon="-1.45438">
        <ele>62</ele>
        <time>2022-03-27T11:16:40Z</time>
      </trkpt>
      <trkpt lat="47.358" lon="-1.45422">
        <ele>62</ele>
        <time>2022-03-27T11:16:42Z</time>
      </trkpt>
      <trkpt lat="47.35801" lon="-1.45405">
        <ele>63</ele>
        <time>2022-03-27T11:16:44Z</time>
      </trkpt>
      <trkpt lat="47.358" lon="-1.45389">
        <ele>63</ele>
        <time>2022-03-27T11:16:46Z</time>
      </trkpt>
      <trkpt lat="47.35798" lon="-1.45373">
        <ele>63</ele>
        <time>2022-03-27T11:16:48Z</time>
      </trkpt>
      <trkpt lat="47.35795" lon="-1.45356">
        <ele>63</ele>
        <time>2022-03-27T11:16:50Z</time>
      </trkpt>
      <trkpt lat="47.35793" lon="-1.4534">
        <ele>64</ele>
        <time>2022-03-27T11:16:52Z</time>
      </trkpt>
      <trkpt lat="47.3579" lon="-1.45324">
        <ele>64</ele>
        <time>2022-03-27T11:16:54Z</time>
      </trkpt>
      <trkpt lat="47.35787" lon="-1.45307">
        <ele>64</ele>
        <time>2022-03-27T11:16:56Z</time>
      </trkpt>
      <trkpt lat="47.35784" lon="-1.45291">
        <ele>64</ele>
        <time>2022-03-27T11:16:58Z</time>
      </trkpt>
      <trkpt lat="47.35782" lon="-1.45276">
        <ele>64</ele>
        <time>2022-03-27T11:17:00Z</time>
      </trkpt>
      <trkpt lat="47.35779" lon="-1.4526">
        <ele>65</ele>
        <time>2022-03-27T11:17:02Z</time>
      </trkpt>
      <trkpt lat="47.35777" lon="-1.45244">
        <ele>65</ele>
        <time>2022-03-27T11:17:04Z</time>
      </trkpt>
      <trkpt lat="47.35774" lon="-1.45229">
        <ele>65</ele>
        <time>2022-03-27T11:17:06Z</time>
      </trkpt>
      <trkpt lat="47.35771" lon="-1.45213">
        <ele>65</ele>
        <time>2022-03-27T11:17:08Z</time>
      </trkpt>
      <trkpt lat="47.35769" lon="-1.45197">
        <ele>65</ele>
        <time>2022-03-27T11:17:10Z</time>
      </trkpt>
      <trkpt lat="47.35765" lon="-1.45172">
        <ele>66</ele>
        <time>2022-03-27T11:17:13Z</time>
      </trkpt>
      <trkpt lat="47.35764" lon="-1.45157">
        <ele>66</ele>
        <time>2022-03-27T11:17:15Z</time>
      </trkpt>
      <trkpt lat="47.35764" lon="-1.4514">
        <ele>66</ele>
        <time>2022-03-27T11:17:17Z</time>
      </trkpt>
      <trkpt lat="47.35764" lon="-1.45125">
        <ele>65</ele>
        <time>2022-03-27T11:17:19Z</time>
      </trkpt>
      <trkpt lat="47.35767" lon="-1.45101">
        <ele>66</ele>
        <time>2022-03-27T11:17:22Z</time>
      </trkpt>
      <trkpt lat="47.3577" lon="-1.45077">
        <ele>66</ele>
        <time>2022-03-27T11:17:25Z</time>
      </trkpt>
      <trkpt lat="47.35774" lon="-1.45053">
        <ele>67</ele>
        <time>2022-03-27T11:17:28Z</time>
      </trkpt>
      <trkpt lat="47.35776" lon="-1.45037">
        <ele>67</ele>
        <time>2022-03-27T11:17:30Z</time>
      </trkpt>
      <trkpt lat="47.35777" lon="-1.45022">
        <ele>67</ele>
        <time>2022-03-27T11:17:32Z</time>
      </trkpt>
      <trkpt lat="47.35779" lon="-1.45006">
        <ele>67</ele>
        <time>2022-03-27T11:17:34Z</time>
      </trkpt>
      <trkpt lat="47.3578" lon="-1.44982">
        <ele>67</ele>
        <time>2022-03-27T11:17:37Z</time>
      </trkpt>
      <trkpt lat="47.3578" lon="-1.44967">
        <ele>67</ele>
        <time>2022-03-27T11:17:39Z</time>
      </trkpt>
      <trkpt lat="47.35781" lon="-1.44951">
        <ele>67</ele>
        <time>2022-03-27T11:17:41Z</time>
      </trkpt>
      <trkpt lat="47.35781" lon="-1.44935">
        <ele>68</ele>
        <time>2022-03-27T11:17:43Z</time>
      </trkpt>
      <trkpt lat="47.35782" lon="-1.44919">
        <ele>68</ele>
        <time>2022-03-27T11:17:45Z</time>
      </trkpt>
      <trkpt lat="47.35782" lon="-1.44903">
        <ele>69</ele>
        <time>2022-03-27T11:17:47Z</time>
      </trkpt>
      <trkpt lat="47.35782" lon="-1.44887">
        <ele>69</ele>
        <time>2022-03-27T11:17:49Z</time>
      </trkpt>
      <trkpt lat="47.35783" lon="-1.44871">
        <ele>69</ele>
        <time>2022-03-27T11:17:51Z</time>
      </trkpt>
      <trkpt lat="47.35783" lon="-1.44856">
        <ele>69</ele>
        <time>2022-03-27T11:17:53Z</time>
      </trkpt>
      <trkpt lat="47.35783" lon="-1.44841">
        <ele>70</ele>
        <time>2022-03-27T11:17:55Z</time>
      </trkpt>
      <trkpt lat="47.35784" lon="-1.44825">
        <ele>70</ele>
        <time>2022-03-27T11:17:57Z</time>
      </trkpt>
      <trkpt lat="47.35784" lon="-1.4481">
        <ele>70</ele>
        <time>2022-03-27T11:17:59Z</time>
      </trkpt>
      <trkpt lat="47.35785" lon="-1.44795">
        <ele>71</ele>
        <time>2022-03-27T11:18:01Z</time>
      </trkpt>
      <trkpt lat="47.35785" lon="-1.4478">
        <ele>72</ele>
        <time>2022-03-27T11:18:03Z</time>
      </trkpt>
      <trkpt lat="47.35785" lon="-1.44766">
        <ele>72</ele>
        <time>2022-03-27T11:18:05Z</time>
      </trkpt>
      <trkpt lat="47.35785" lon="-1.44751">
        <ele>73</ele>
        <time>2022-03-27T11:18:07Z</time>
      </trkpt>
      <trkpt lat="47.35785" lon="-1.44736">
        <ele>73</ele>
        <time>2022-03-27T11:18:09Z</time>
      </trkpt>
      <trkpt lat="47.35786" lon="-1.44721">
        <ele>74</ele>
        <time>2022-03-27T11:18:11Z</time>
      </trkpt>
      <trkpt lat="47.35786" lon="-1.44707">
        <ele>74</ele>
        <time>2022-03-27T11:18:13Z</time>
      </trkpt>
      <trkpt lat="47.35787" lon="-1.44693">
        <ele>75</ele>
        <time>2022-03-27T11:18:15Z</time>
      </trkpt>
      <trkpt lat="47.35787" lon="-1.4468">
        <ele>75</ele>
        <time>2022-03-27T11:18:17Z</time>
      </trkpt>
      <trkpt lat="47.35787" lon="-1.44665">
        <ele>76</ele>
        <time>2022-03-27T11:18:19Z</time>
      </trkpt>
      <trkpt lat="47.35787" lon="-1.4465">
        <ele>76</ele>
        <time>2022-03-27T11:18:21Z</time>
      </trkpt>
      <trkpt lat="47.35788" lon="-1.44635">
        <ele>77</ele>
        <time>2022-03-27T11:18:23Z</time>
      </trkpt>
      <trkpt lat="47.35789" lon="-1.44621">
        <ele>78</ele>
        <time>2022-03-27T11:18:25Z</time>
      </trkpt>
      <trkpt lat="47.3579" lon="-1.44607">
        <ele>78</ele>
        <time>2022-03-27T11:18:27Z</time>
      </trkpt>
      <trkpt lat="47.35791" lon="-1.44593">
        <ele>79</ele>
        <time>2022-03-27T11:18:29Z</time>
      </trkpt>
      <trkpt lat="47.35793" lon="-1.44579">
        <ele>79</ele>
        <time>2022-03-27T11:18:31Z</time>
      </trkpt>
      <trkpt lat="47.35794" lon="-1.44565">
        <ele>80</ele>
        <time>2022-03-27T11:18:33Z</time>
      </trkpt>
      <trkpt lat="47.35796" lon="-1.44551">
        <ele>80</ele>
        <time>2022-03-27T11:18:35Z</time>
      </trkpt>
      <trkpt lat="47.35798" lon="-1.44537">
        <ele>81</ele>
        <time>2022-03-27T11:18:37Z</time>
      </trkpt>
      <trkpt lat="47.35799" lon="-1.44523">
        <ele>81</ele>
        <time>2022-03-27T11:18:39Z</time>
      </trkpt>
      <trkpt lat="47.35801" lon="-1.44503">
        <ele>81</ele>
        <time>2022-03-27T11:18:42Z</time>
      </trkpt>
      <trkpt lat="47.35802" lon="-1.4449">
        <ele>82</ele>
        <time>2022-03-27T11:18:44Z</time>
      </trkpt>
      <trkpt lat="47.35803" lon="-1.44476">
        <ele>82</ele>
        <time>2022-03-27T11:18:46Z</time>
      </trkpt>
      <trkpt lat="47.35804" lon="-1.44461">
        <ele>82</ele>
        <time>2022-03-27T11:18:48Z</time>
      </trkpt>
      <trkpt lat="47.35805" lon="-1.44447">
        <ele>82</ele>
        <time>2022-03-27T11:18:50Z</time>
      </trkpt>
      <trkpt lat="47.35806" lon="-1.44432">
        <ele>83</ele>
        <time>2022-03-27T11:18:52Z</time>
      </trkpt>
      <trkpt lat="47.35806" lon="-1.44416">
        <ele>83</ele>
        <time>2022-03-27T11:18:54Z</time>
      </trkpt>
      <trkpt lat="47.35807" lon="-1.44401">
        <ele>83</ele>
        <time>2022-03-27T11:18:56Z</time>
      </trkpt>
      <trkpt lat="47.35807" lon="-1.44386">
        <ele>83</ele>
        <time>2022-03-27T11:18:58Z</time>
      </trkpt>
      <trkpt lat="47.35807" lon="-1.44371">
        <ele>82</ele>
        <time>2022-03-27T11:19:00Z</time>
      </trkpt>
      <trkpt lat="47.35807" lon="-1.44355">
        <ele>82</ele>
        <time>2022-03-27T11:19:02Z</time>
      </trkpt>
      <trkpt lat="47.35808" lon="-1.44339">
        <ele>82</ele>
        <time>2022-03-27T11:19:04Z</time>
      </trkpt>
      <trkpt lat="47.35808" lon="-1.44323">
        <ele>82</ele>
        <time>2022-03-27T11:19:06Z</time>
      </trkpt>
      <trkpt lat="47.35809" lon="-1.44307">
        <ele>82</ele>
        <time>2022-03-27T11:19:08Z</time>
      </trkpt>
      <trkpt lat="47.35811" lon="-1.4429">
        <ele>82</ele>
        <time>2022-03-27T11:19:10Z</time>
      </trkpt>
      <trkpt lat="47.35815" lon="-1.44275">
        <ele>82</ele>
        <time>2022-03-27T11:19:12Z</time>
      </trkpt>
      <trkpt lat="47.3582" lon="-1.4426">
        <ele>81</ele>
        <time>2022-03-27T11:19:14Z</time>
      </trkpt>
      <trkpt lat="47.35827" lon="-1.44247">
        <ele>81</ele>
        <time>2022-03-27T11:19:16Z</time>
      </trkpt>
      <trkpt lat="47.35835" lon="-1.44234">
        <ele>80</ele>
        <time>2022-03-27T11:19:18Z</time>
      </trkpt>
      <trkpt lat="47.35844" lon="-1.44222">
        <ele>80</ele>
        <time>2022-03-27T11:19:20Z</time>
      </trkpt>
      <trkpt lat="47.35852" lon="-1.4421">
        <ele>80</ele>
        <time>2022-03-27T11:19:22Z</time>
      </trkpt>
      <trkpt lat="47.35861" lon="-1.44197">
        <ele>79</ele>
        <time>2022-03-27T11:19:24Z</time>
      </trkpt>
      <trkpt lat="47.35869" lon="-1.44186">
        <ele>79</ele>
        <time>2022-03-27T11:19:26Z</time>
      </trkpt>
      <trkpt lat="47.35878" lon="-1.44174">
        <ele>78</ele>
        <time>2022-03-27T11:19:28Z</time>
      </trkpt>
      <trkpt lat="47.35887" lon="-1.44163">
        <ele>79</ele>
        <time>2022-03-27T11:19:30Z</time>
      </trkpt>
      <trkpt lat="47.35895" lon="-1.44151">
        <ele>78</ele>
        <time>2022-03-27T11:19:32Z</time>
      </trkpt>
      <trkpt lat="47.35904" lon="-1.4414">
        <ele>79</ele>
        <time>2022-03-27T11:19:34Z</time>
      </trkpt>
      <trkpt lat="47.35912" lon="-1.44129">
        <ele>79</ele>
        <time>2022-03-27T11:19:36Z</time>
      </trkpt>
      <trkpt lat="47.35919" lon="-1.44117">
        <ele>79</ele>
        <time>2022-03-27T11:19:38Z</time>
      </trkpt>
      <trkpt lat="47.35927" lon="-1.44106">
        <ele>79</ele>
        <time>2022-03-27T11:19:40Z</time>
      </trkpt>
      <trkpt lat="47.35935" lon="-1.44095">
        <ele>79</ele>
        <time>2022-03-27T11:19:42Z</time>
      </trkpt>
      <trkpt lat="47.35942" lon="-1.44084">
        <ele>80</ele>
        <time>2022-03-27T11:19:44Z</time>
      </trkpt>
      <trkpt lat="47.3595" lon="-1.44074">
        <ele>80</ele>
        <time>2022-03-27T11:19:46Z</time>
      </trkpt>
      <trkpt lat="47.35959" lon="-1.44064">
        <ele>80</ele>
        <time>2022-03-27T11:19:48Z</time>
      </trkpt>
      <trkpt lat="47.35967" lon="-1.44052">
        <ele>80</ele>
        <time>2022-03-27T11:19:50Z</time>
      </trkpt>
      <trkpt lat="47.35976" lon="-1.44042">
        <ele>80</ele>
        <time>2022-03-27T11:19:52Z</time>
      </trkpt>
      <trkpt lat="47.35984" lon="-1.44031">
        <ele>81</ele>
        <time>2022-03-27T11:19:54Z</time>
      </trkpt>
      <trkpt lat="47.35992" lon="-1.4402">
        <ele>81</ele>
        <time>2022-03-27T11:19:56Z</time>
      </trkpt>
      <trkpt lat="47.36001" lon="-1.4401">
        <ele>82</ele>
        <time>2022-03-27T11:19:58Z</time>
      </trkpt>
      <trkpt lat="47.3601" lon="-1.43999">
        <ele>82</ele>
        <time>2022-03-27T11:20:00Z</time>
      </trkpt>
      <trkpt lat="47.36019" lon="-1.43987">
        <ele>81</ele>
        <time>2022-03-27T11:20:02Z</time>
      </trkpt>
      <trkpt lat="47.36028" lon="-1.43974">
        <ele>80</ele>
        <time>2022-03-27T11:20:04Z</time>
      </trkpt>
      <trkpt lat="47.36036" lon="-1.4396">
        <ele>80</ele>
        <time>2022-03-27T11:20:06Z</time>
      </trkpt>
      <trkpt lat="47.36044" lon="-1.43945">
        <ele>80</ele>
        <time>2022-03-27T11:20:08Z</time>
      </trkpt>
      <trkpt lat="47.36051" lon="-1.43928">
        <ele>80</ele>
        <time>2022-03-27T11:20:10Z</time>
      </trkpt>
      <trkpt lat="47.36056" lon="-1.43911">
        <ele>80</ele>
        <time>2022-03-27T11:20:12Z</time>
      </trkpt>
      <trkpt lat="47.36061" lon="-1.43892">
        <ele>79</ele>
        <time>2022-03-27T11:20:14Z</time>
      </trkpt>
      <trkpt lat="47.36064" lon="-1.43873">
        <ele>79</ele>
        <time>2022-03-27T11:20:16Z</time>
      </trkpt>
      <trkpt lat="47.36066" lon="-1.43853">
        <ele>79</ele>
        <time>2022-03-27T11:20:18Z</time>
      </trkpt>
      <trkpt lat="47.36069" lon="-1.43832">
        <ele>79</ele>
        <time>2022-03-27T11:20:20Z</time>
      </trkpt>
      <trkpt lat="47.36071" lon="-1.4381">
        <ele>78</ele>
        <time>2022-03-27T11:20:22Z</time>
      </trkpt>
      <trkpt lat="47.36074" lon="-1.43787">
        <ele>78</ele>
        <time>2022-03-27T11:20:24Z</time>
      </trkpt>
      <trkpt lat="47.36078" lon="-1.43764">
        <ele>77</ele>
        <time>2022-03-27T11:20:26Z</time>
      </trkpt>
      <trkpt lat="47.36084" lon="-1.4374">
        <ele>76</ele>
        <time>2022-03-27T11:20:28Z</time>
      </trkpt>
      <trkpt lat="47.36092" lon="-1.43718">
        <ele>75</ele>
        <time>2022-03-27T11:20:30Z</time>
      </trkpt>
      <trkpt lat="47.36102" lon="-1.43698">
        <ele>74</ele>
        <time>2022-03-27T11:20:32Z</time>
      </trkpt>
      <trkpt lat="47.36113" lon="-1.43679">
        <ele>73</ele>
        <time>2022-03-27T11:20:34Z</time>
      </trkpt>
      <trkpt lat="47.36123" lon="-1.43662">
        <ele>73</ele>
        <time>2022-03-27T11:20:36Z</time>
      </trkpt>
      <trkpt lat="47.36133" lon="-1.43646">
        <ele>73</ele>
        <time>2022-03-27T11:20:38Z</time>
      </trkpt>
      <trkpt lat="47.36141" lon="-1.43629">
        <ele>73</ele>
        <time>2022-03-27T11:20:40Z</time>
      </trkpt>
      <trkpt lat="47.36149" lon="-1.43613">
        <ele>73</ele>
        <time>2022-03-27T11:20:42Z</time>
      </trkpt>
      <trkpt lat="47.36156" lon="-1.43597">
        <ele>73</ele>
        <time>2022-03-27T11:20:44Z</time>
      </trkpt>
      <trkpt lat="47.36163" lon="-1.43583">
        <ele>74</ele>
        <time>2022-03-27T11:20:46Z</time>
      </trkpt>
      <trkpt lat="47.3617" lon="-1.43568">
        <ele>74</ele>
        <time>2022-03-27T11:20:48Z</time>
      </trkpt>
      <trkpt lat="47.36177" lon="-1.43554">
        <ele>74</ele>
        <time>2022-03-27T11:20:50Z</time>
      </trkpt>
      <trkpt lat="47.36184" lon="-1.4354">
        <ele>74</ele>
        <time>2022-03-27T11:20:52Z</time>
      </trkpt>
      <trkpt lat="47.36191" lon="-1.43528">
        <ele>74</ele>
        <time>2022-03-27T11:20:54Z</time>
      </trkpt>
      <trkpt lat="47.36198" lon="-1.43516">
        <ele>74</ele>
        <time>2022-03-27T11:20:56Z</time>
      </trkpt>
      <trkpt lat="47.36206" lon="-1.43504">
        <ele>74</ele>
        <time>2022-03-27T11:20:58Z</time>
      </trkpt>
      <trkpt lat="47.36213" lon="-1.43494">
        <ele>75</ele>
        <time>2022-03-27T11:21:00Z</time>
      </trkpt>
      <trkpt lat="47.36221" lon="-1.43485">
        <ele>75</ele>
        <time>2022-03-27T11:21:02Z</time>
      </trkpt>
      <trkpt lat="47.36229" lon="-1.43475">
        <ele>75</ele>
        <time>2022-03-27T11:21:04Z</time>
      </trkpt>
      <trkpt lat="47.36236" lon="-1.43468">
        <ele>76</ele>
        <time>2022-03-27T11:21:06Z</time>
      </trkpt>
      <trkpt lat="47.36244" lon="-1.4346">
        <ele>76</ele>
        <time>2022-03-27T11:21:08Z</time>
      </trkpt>
      <trkpt lat="47.36254" lon="-1.43449">
        <ele>77</ele>
        <time>2022-03-27T11:21:11Z</time>
      </trkpt>
      <trkpt lat="47.36265" lon="-1.43439">
        <ele>78</ele>
        <time>2022-03-27T11:21:14Z</time>
      </trkpt>
      <trkpt lat="47.36275" lon="-1.43427">
        <ele>79</ele>
        <time>2022-03-27T11:21:17Z</time>
      </trkpt>
      <trkpt lat="47.36285" lon="-1.43417">
        <ele>79</ele>
        <time>2022-03-27T11:21:20Z</time>
      </trkpt>
      <trkpt lat="47.36295" lon="-1.43407">
        <ele>80</ele>
        <time>2022-03-27T11:21:23Z</time>
      </trkpt>
      <trkpt lat="47.36305" lon="-1.43396">
        <ele>80</ele>
        <time>2022-03-27T11:21:26Z</time>
      </trkpt>
      <trkpt lat="47.36315" lon="-1.43387">
        <ele>81</ele>
        <time>2022-03-27T11:21:29Z</time>
      </trkpt>
      <trkpt lat="47.36326" lon="-1.43377">
        <ele>82</ele>
        <time>2022-03-27T11:21:32Z</time>
      </trkpt>
      <trkpt lat="47.36335" lon="-1.43367">
        <ele>82</ele>
        <time>2022-03-27T11:21:35Z</time>
      </trkpt>
      <trkpt lat="47.36346" lon="-1.43355">
        <ele>83</ele>
        <time>2022-03-27T11:21:38Z</time>
      </trkpt>
      <trkpt lat="47.36356" lon="-1.43346">
        <ele>84</ele>
        <time>2022-03-27T11:21:41Z</time>
      </trkpt>
      <trkpt lat="47.36366" lon="-1.43335">
        <ele>85</ele>
        <time>2022-03-27T11:21:44Z</time>
      </trkpt>
      <trkpt lat="47.36376" lon="-1.43325">
        <ele>85</ele>
        <time>2022-03-27T11:21:47Z</time>
      </trkpt>
      <trkpt lat="47.36385" lon="-1.43315">
        <ele>86</ele>
        <time>2022-03-27T11:21:50Z</time>
      </trkpt>
      <trkpt lat="47.36395" lon="-1.43306">
        <ele>86</ele>
        <time>2022-03-27T11:21:53Z</time>
      </trkpt>
      <trkpt lat="47.36404" lon="-1.43296">
        <ele>87</ele>
        <time>2022-03-27T11:21:56Z</time>
      </trkpt>
      <trkpt lat="47.36414" lon="-1.43286">
        <ele>88</ele>
        <time>2022-03-27T11:21:59Z</time>
      </trkpt>
      <trkpt lat="47.36423" lon="-1.43275">
        <ele>89</ele>
        <time>2022-03-27T11:22:02Z</time>
      </trkpt>
      <trkpt lat="47.36431" lon="-1.43264">
        <ele>90</ele>
        <time>2022-03-27T11:22:05Z</time>
      </trkpt>
      <trkpt lat="47.36439" lon="-1.43251">
        <ele>91</ele>
        <time>2022-03-27T11:22:08Z</time>
      </trkpt>
      <trkpt lat="47.36447" lon="-1.43239">
        <ele>92</ele>
        <time>2022-03-27T11:22:11Z</time>
      </trkpt>
      <trkpt lat="47.36454" lon="-1.43225">
        <ele>92</ele>
        <time>2022-03-27T11:22:14Z</time>
      </trkpt>
      <trkpt lat="47.36461" lon="-1.4321">
        <ele>93</ele>
        <time>2022-03-27T11:22:17Z</time>
      </trkpt>
      <trkpt lat="47.36467" lon="-1.43194">
        <ele>93</ele>
        <time>2022-03-27T11:22:20Z</time>
      </trkpt>
      <trkpt lat="47.36474" lon="-1.43179">
        <ele>93</ele>
        <time>2022-03-27T11:22:23Z</time>
      </trkpt>
      <trkpt lat="47.36481" lon="-1.43164">
        <ele>93</ele>
        <time>2022-03-27T11:22:26Z</time>
      </trkpt>
      <trkpt lat="47.36488" lon="-1.43148">
        <ele>93</ele>
        <time>2022-03-27T11:22:29Z</time>
      </trkpt>
      <trkpt lat="47.36495" lon="-1.43133">
        <ele>94</ele>
        <time>2022-03-27T11:22:32Z</time>
      </trkpt>
      <trkpt lat="47.36502" lon="-1.43117">
        <ele>94</ele>
        <time>2022-03-27T11:22:35Z</time>
      </trkpt>
      <trkpt lat="47.36508" lon="-1.431">
        <ele>94</ele>
        <time>2022-03-27T11:22:38Z</time>
      </trkpt>
      <trkpt lat="47.36511" lon="-1.43087">
        <ele>94</ele>
        <time>2022-03-27T11:22:40Z</time>
      </trkpt>
      <trkpt lat="47.36513" lon="-1.43074">
        <ele>95</ele>
        <time>2022-03-27T11:22:42Z</time>
      </trkpt>
      <trkpt lat="47.36516" lon="-1.43055">
        <ele>95</ele>
        <time>2022-03-27T11:22:45Z</time>
      </trkpt>
      <trkpt lat="47.36518" lon="-1.43036">
        <ele>95</ele>
        <time>2022-03-27T11:22:48Z</time>
      </trkpt>
      <trkpt lat="47.36521" lon="-1.43017">
        <ele>96</ele>
        <time>2022-03-27T11:22:51Z</time>
      </trkpt>
      <trkpt lat="47.36524" lon="-1.43">
        <ele>96</ele>
        <time>2022-03-27T11:22:54Z</time>
      </trkpt>
      <trkpt lat="47.36529" lon="-1.42986">
        <ele>96</ele>
        <time>2022-03-27T11:22:57Z</time>
      </trkpt>
      <trkpt lat="47.3653" lon="-1.42971">
        <ele>97</ele>
        <time>2022-03-27T11:23:00Z</time>
      </trkpt>
      <trkpt lat="47.36533" lon="-1.42951">
        <ele>98</ele>
        <time>2022-03-27T11:23:03Z</time>
      </trkpt>
      <trkpt lat="47.36535" lon="-1.42938">
        <ele>98</ele>
        <time>2022-03-27T11:23:05Z</time>
      </trkpt>
      <trkpt lat="47.36537" lon="-1.42925">
        <ele>98</ele>
        <time>2022-03-27T11:23:07Z</time>
      </trkpt>
      <trkpt lat="47.36539" lon="-1.42911">
        <ele>98</ele>
        <time>2022-03-27T11:23:09Z</time>
      </trkpt>
      <trkpt lat="47.36542" lon="-1.42894">
        <ele>98</ele>
        <time>2022-03-27T11:23:12Z</time>
      </trkpt>
      <trkpt lat="47.36551" lon="-1.4289">
        <ele>98</ele>
        <time>2022-03-27T11:23:15Z</time>
      </trkpt>
      <trkpt lat="47.36561" lon="-1.42891">
        <ele>98</ele>
        <time>2022-03-27T11:23:17Z</time>
      </trkpt>
      <trkpt lat="47.36572" lon="-1.42891">
        <ele>98</ele>
        <time>2022-03-27T11:23:19Z</time>
      </trkpt>
      <trkpt lat="47.36582" lon="-1.42892">
        <ele>98</ele>
        <time>2022-03-27T11:23:21Z</time>
      </trkpt>
      <trkpt lat="47.36592" lon="-1.42892">
        <ele>98</ele>
        <time>2022-03-27T11:23:23Z</time>
      </trkpt>
      <trkpt lat="47.36602" lon="-1.42888">
        <ele>97</ele>
        <time>2022-03-27T11:23:25Z</time>
      </trkpt>
      <trkpt lat="47.36607" lon="-1.42877">
        <ele>97</ele>
        <time>2022-03-27T11:23:27Z</time>
      </trkpt>
      <trkpt lat="47.36616" lon="-1.4287">
        <ele>96</ele>
        <time>2022-03-27T11:23:29Z</time>
      </trkpt>
      <trkpt lat="47.36626" lon="-1.4287">
        <ele>96</ele>
        <time>2022-03-27T11:23:31Z</time>
      </trkpt>
      <trkpt lat="47.36635" lon="-1.42869">
        <ele>97</ele>
        <time>2022-03-27T11:23:33Z</time>
      </trkpt>
      <trkpt lat="47.36646" lon="-1.42869">
        <ele>97</ele>
        <time>2022-03-27T11:23:35Z</time>
      </trkpt>
      <trkpt lat="47.36656" lon="-1.42869">
        <ele>97</ele>
        <time>2022-03-27T11:23:37Z</time>
      </trkpt>
      <trkpt lat="47.36665" lon="-1.42868">
        <ele>97</ele>
        <time>2022-03-27T11:23:39Z</time>
      </trkpt>
      <trkpt lat="47.36675" lon="-1.42867">
        <ele>98</ele>
        <time>2022-03-27T11:23:41Z</time>
      </trkpt>
      <trkpt lat="47.36685" lon="-1.42867">
        <ele>97</ele>
        <time>2022-03-27T11:23:43Z</time>
      </trkpt>
      <trkpt lat="47.36694" lon="-1.42867">
        <ele>97</ele>
        <time>2022-03-27T11:23:45Z</time>
      </trkpt>
      <trkpt lat="47.36704" lon="-1.42867">
        <ele>97</ele>
        <time>2022-03-27T11:23:47Z</time>
      </trkpt>
      <trkpt lat="47.36712" lon="-1.42863">
        <ele>97</ele>
        <time>2022-03-27T11:23:49Z</time>
      </trkpt>
      <trkpt lat="47.36718" lon="-1.4285">
        <ele>97</ele>
        <time>2022-03-27T11:23:51Z</time>
      </trkpt>
      <trkpt lat="47.36721" lon="-1.42835">
        <ele>98</ele>
        <time>2022-03-27T11:23:53Z</time>
      </trkpt>
      <trkpt lat="47.36724" lon="-1.4282">
        <ele>97</ele>
        <time>2022-03-27T11:23:55Z</time>
      </trkpt>
      <trkpt lat="47.36727" lon="-1.42804">
        <ele>97</ele>
        <time>2022-03-27T11:23:57Z</time>
      </trkpt>
      <trkpt lat="47.36729" lon="-1.42788">
        <ele>98</ele>
        <time>2022-03-27T11:23:59Z</time>
      </trkpt>
      <trkpt lat="47.36731" lon="-1.42772">
        <ele>98</ele>
        <time>2022-03-27T11:24:01Z</time>
      </trkpt>
      <trkpt lat="47.36731" lon="-1.42756">
        <ele>98</ele>
        <time>2022-03-27T11:24:03Z</time>
      </trkpt>
      <trkpt lat="47.36732" lon="-1.42739">
        <ele>98</ele>
        <time>2022-03-27T11:24:05Z</time>
      </trkpt>
      <trkpt lat="47.36733" lon="-1.42721">
        <ele>99</ele>
        <time>2022-03-27T11:24:07Z</time>
      </trkpt>
      <trkpt lat="47.36732" lon="-1.42704">
        <ele>99</ele>
        <time>2022-03-27T11:24:09Z</time>
      </trkpt>
      <trkpt lat="47.36732" lon="-1.42686">
        <ele>99</ele>
        <time>2022-03-27T11:24:11Z</time>
      </trkpt>
      <trkpt lat="47.3673" lon="-1.42669">
        <ele>99</ele>
        <time>2022-03-27T11:24:13Z</time>
      </trkpt>
      <trkpt lat="47.36728" lon="-1.42652">
        <ele>99</ele>
        <time>2022-03-27T11:24:15Z</time>
      </trkpt>
      <trkpt lat="47.36726" lon="-1.42635">
        <ele>99</ele>
        <time>2022-03-27T11:24:17Z</time>
      </trkpt>
      <trkpt lat="47.36723" lon="-1.42618">
        <ele>99</ele>
        <time>2022-03-27T11:24:19Z</time>
      </trkpt>
      <trkpt lat="47.36721" lon="-1.42601">
        <ele>99</ele>
        <time>2022-03-27T11:24:21Z</time>
      </trkpt>
      <trkpt lat="47.36718" lon="-1.42583">
        <ele>99</ele>
        <time>2022-03-27T11:24:23Z</time>
      </trkpt>
      <trkpt lat="47.36715" lon="-1.42567">
        <ele>100</ele>
        <time>2022-03-27T11:24:25Z</time>
      </trkpt>
      <trkpt lat="47.36712" lon="-1.4255">
        <ele>100</ele>
        <time>2022-03-27T11:24:27Z</time>
      </trkpt>
      <trkpt lat="47.3671" lon="-1.42533">
        <ele>100</ele>
        <time>2022-03-27T11:24:29Z</time>
      </trkpt>
      <trkpt lat="47.36707" lon="-1.42516">
        <ele>100</ele>
        <time>2022-03-27T11:24:31Z</time>
      </trkpt>
      <trkpt lat="47.36704" lon="-1.425">
        <ele>100</ele>
        <time>2022-03-27T11:24:33Z</time>
      </trkpt>
      <trkpt lat="47.36701" lon="-1.42484">
        <ele>101</ele>
        <time>2022-03-27T11:24:35Z</time>
      </trkpt>
      <trkpt lat="47.36699" lon="-1.42467">
        <ele>101</ele>
        <time>2022-03-27T11:24:37Z</time>
      </trkpt>
      <trkpt lat="47.36696" lon="-1.42451">
        <ele>101</ele>
        <time>2022-03-27T11:24:39Z</time>
      </trkpt>
      <trkpt lat="47.36694" lon="-1.42435">
        <ele>101</ele>
        <time>2022-03-27T11:24:41Z</time>
      </trkpt>
      <trkpt lat="47.36691" lon="-1.42419">
        <ele>101</ele>
        <time>2022-03-27T11:24:43Z</time>
      </trkpt>
      <trkpt lat="47.36689" lon="-1.42402">
        <ele>101</ele>
        <time>2022-03-27T11:24:45Z</time>
      </trkpt>
      <trkpt lat="47.36686" lon="-1.42386">
        <ele>101</ele>
        <time>2022-03-27T11:24:47Z</time>
      </trkpt>
      <trkpt lat="47.36684" lon="-1.42369">
        <ele>100</ele>
        <time>2022-03-27T11:24:49Z</time>
      </trkpt>
      <trkpt lat="47.36681" lon="-1.42353">
        <ele>100</ele>
        <time>2022-03-27T11:24:51Z</time>
      </trkpt>
      <trkpt lat="47.36679" lon="-1.42336">
        <ele>100</ele>
        <time>2022-03-27T11:24:53Z</time>
      </trkpt>
      <trkpt lat="47.36677" lon="-1.42321">
        <ele>100</ele>
        <time>2022-03-27T11:24:55Z</time>
      </trkpt>
      <trkpt lat="47.36675" lon="-1.42306">
        <ele>100</ele>
        <time>2022-03-27T11:24:57Z</time>
      </trkpt>
      <trkpt lat="47.36674" lon="-1.42291">
        <ele>100</ele>
        <time>2022-03-27T11:24:59Z</time>
      </trkpt>
      <trkpt lat="47.36672" lon="-1.42275">
        <ele>100</ele>
        <time>2022-03-27T11:25:01Z</time>
      </trkpt>
      <trkpt lat="47.3667" lon="-1.42259">
        <ele>100</ele>
        <time>2022-03-27T11:25:03Z</time>
      </trkpt>
      <trkpt lat="47.36668" lon="-1.42244">
        <ele>100</ele>
        <time>2022-03-27T11:25:05Z</time>
      </trkpt>
      <trkpt lat="47.36664" lon="-1.42229">
        <ele>100</ele>
        <time>2022-03-27T11:25:07Z</time>
      </trkpt>
      <trkpt lat="47.36657" lon="-1.42219">
        <ele>99</ele>
        <time>2022-03-27T11:25:09Z</time>
      </trkpt>
      <trkpt lat="47.36649" lon="-1.42208">
        <ele>99</ele>
        <time>2022-03-27T11:25:11Z</time>
      </trkpt>
      <trkpt lat="47.36643" lon="-1.42197">
        <ele>99</ele>
        <time>2022-03-27T11:25:13Z</time>
      </trkpt>
      <trkpt lat="47.36638" lon="-1.42181">
        <ele>99</ele>
        <time>2022-03-27T11:25:16Z</time>
      </trkpt>
      <trkpt lat="47.36644" lon="-1.42169">
        <ele>99</ele>
        <time>2022-03-27T11:25:18Z</time>
      </trkpt>
      <trkpt lat="47.36652" lon="-1.42158">
        <ele>100</ele>
        <time>2022-03-27T11:25:20Z</time>
      </trkpt>
      <trkpt lat="47.36658" lon="-1.42146">
        <ele>100</ele>
        <time>2022-03-27T11:25:22Z</time>
      </trkpt>
      <trkpt lat="47.36663" lon="-1.42131">
        <ele>100</ele>
        <time>2022-03-27T11:25:24Z</time>
      </trkpt>
      <trkpt lat="47.36663" lon="-1.42115">
        <ele>101</ele>
        <time>2022-03-27T11:25:26Z</time>
      </trkpt>
      <trkpt lat="47.36661" lon="-1.42098">
        <ele>101</ele>
        <time>2022-03-27T11:25:28Z</time>
      </trkpt>
      <trkpt lat="47.3666" lon="-1.42081">
        <ele>101</ele>
        <time>2022-03-27T11:25:30Z</time>
      </trkpt>
      <trkpt lat="47.36659" lon="-1.42065">
        <ele>101</ele>
        <time>2022-03-27T11:25:32Z</time>
      </trkpt>
      <trkpt lat="47.36657" lon="-1.42047">
        <ele>101</ele>
        <time>2022-03-27T11:25:34Z</time>
      </trkpt>
      <trkpt lat="47.36655" lon="-1.42031">
        <ele>101</ele>
        <time>2022-03-27T11:25:36Z</time>
      </trkpt>
      <trkpt lat="47.36654" lon="-1.42015">
        <ele>102</ele>
        <time>2022-03-27T11:25:38Z</time>
      </trkpt>
      <trkpt lat="47.36653" lon="-1.41999">
        <ele>102</ele>
        <time>2022-03-27T11:25:40Z</time>
      </trkpt>
      <trkpt lat="47.36652" lon="-1.41982">
        <ele>102</ele>
        <time>2022-03-27T11:25:42Z</time>
      </trkpt>
      <trkpt lat="47.3665" lon="-1.41966">
        <ele>103</ele>
        <time>2022-03-27T11:25:44Z</time>
      </trkpt>
      <trkpt lat="47.36649" lon="-1.41951">
        <ele>103</ele>
        <time>2022-03-27T11:25:46Z</time>
      </trkpt>
      <trkpt lat="47.36648" lon="-1.41935">
        <ele>103</ele>
        <time>2022-03-27T11:25:48Z</time>
      </trkpt>
      <trkpt lat="47.36647" lon="-1.4192">
        <ele>104</ele>
        <time>2022-03-27T11:25:50Z</time>
      </trkpt>
      <trkpt lat="47.36645" lon="-1.41906">
        <ele>104</ele>
        <time>2022-03-27T11:25:52Z</time>
      </trkpt>
      <trkpt lat="47.36644" lon="-1.41891">
        <ele>105</ele>
        <time>2022-03-27T11:25:54Z</time>
      </trkpt>
      <trkpt lat="47.36642" lon="-1.41875">
        <ele>105</ele>
        <time>2022-03-27T11:25:56Z</time>
      </trkpt>
      <trkpt lat="47.3664" lon="-1.4186">
        <ele>105</ele>
        <time>2022-03-27T11:25:58Z</time>
      </trkpt>
      <trkpt lat="47.36639" lon="-1.41845">
        <ele>105</ele>
        <time>2022-03-27T11:26:00Z</time>
      </trkpt>
      <trkpt lat="47.36638" lon="-1.4183">
        <ele>106</ele>
        <time>2022-03-27T11:26:02Z</time>
      </trkpt>
      <trkpt lat="47.36637" lon="-1.41816">
        <ele>106</ele>
        <time>2022-03-27T11:26:04Z</time>
      </trkpt>
      <trkpt lat="47.36635" lon="-1.41802">
        <ele>107</ele>
        <time>2022-03-27T11:26:06Z</time>
      </trkpt>
      <trkpt lat="47.36634" lon="-1.41788">
        <ele>107</ele>
        <time>2022-03-27T11:26:08Z</time>
      </trkpt>
      <trkpt lat="47.36633" lon="-1.41774">
        <ele>107</ele>
        <time>2022-03-27T11:26:10Z</time>
      </trkpt>
      <trkpt lat="47.36632" lon="-1.41759">
        <ele>107</ele>
        <time>2022-03-27T11:26:12Z</time>
      </trkpt>
      <trkpt lat="47.36631" lon="-1.41744">
        <ele>107</ele>
        <time>2022-03-27T11:26:14Z</time>
      </trkpt>
      <trkpt lat="47.36629" lon="-1.41729">
        <ele>107</ele>
        <time>2022-03-27T11:26:16Z</time>
      </trkpt>
      <trkpt lat="47.36628" lon="-1.41715">
        <ele>107</ele>
        <time>2022-03-27T11:26:18Z</time>
      </trkpt>
      <trkpt lat="47.36627" lon="-1.417">
        <ele>107</ele>
        <time>2022-03-27T11:26:20Z</time>
      </trkpt>
      <trkpt lat="47.36626" lon="-1.41685">
        <ele>107</ele>
        <time>2022-03-27T11:26:22Z</time>
      </trkpt>
      <trkpt lat="47.36625" lon="-1.4167">
        <ele>107</ele>
        <time>2022-03-27T11:26:24Z</time>
      </trkpt>
      <trkpt lat="47.36625" lon="-1.41655">
        <ele>107</ele>
        <time>2022-03-27T11:26:26Z</time>
      </trkpt>
      <trkpt lat="47.36625" lon="-1.4164">
        <ele>107</ele>
        <time>2022-03-27T11:26:28Z</time>
      </trkpt>
      <trkpt lat="47.36625" lon="-1.41625">
        <ele>107</ele>
        <time>2022-03-27T11:26:30Z</time>
      </trkpt>
      <trkpt lat="47.36625" lon="-1.4161">
        <ele>107</ele>
        <time>2022-03-27T11:26:32Z</time>
      </trkpt>
      <trkpt lat="47.36626" lon="-1.41595">
        <ele>108</ele>
        <time>2022-03-27T11:26:34Z</time>
      </trkpt>
      <trkpt lat="47.36628" lon="-1.4158">
        <ele>108</ele>
        <time>2022-03-27T11:26:36Z</time>
      </trkpt>
      <trkpt lat="47.36629" lon="-1.41565">
        <ele>109</ele>
        <time>2022-03-27T11:26:38Z</time>
      </trkpt>
      <trkpt lat="47.3663" lon="-1.41551">
        <ele>109</ele>
        <time>2022-03-27T11:26:40Z</time>
      </trkpt>
      <trkpt lat="47.36631" lon="-1.41535">
        <ele>109</ele>
        <time>2022-03-27T11:26:42Z</time>
      </trkpt>
      <trkpt lat="47.36636" lon="-1.41521">
        <ele>109</ele>
        <time>2022-03-27T11:26:44Z</time>
      </trkpt>
      <trkpt lat="47.3664" lon="-1.41506">
        <ele>109</ele>
        <time>2022-03-27T11:26:46Z</time>
      </trkpt>
      <trkpt lat="47.36644" lon="-1.4149">
        <ele>109</ele>
        <time>2022-03-27T11:26:48Z</time>
      </trkpt>
      <trkpt lat="47.36648" lon="-1.41474">
        <ele>109</ele>
        <time>2022-03-27T11:26:50Z</time>
      </trkpt>
      <trkpt lat="47.36652" lon="-1.41459">
        <ele>110</ele>
        <time>2022-03-27T11:26:52Z</time>
      </trkpt>
      <trkpt lat="47.36656" lon="-1.41443">
        <ele>110</ele>
        <time>2022-03-27T11:26:54Z</time>
      </trkpt>
      <trkpt lat="47.36662" lon="-1.41429">
        <ele>110</ele>
        <time>2022-03-27T11:26:56Z</time>
      </trkpt>
      <trkpt lat="47.36667" lon="-1.41413">
        <ele>110</ele>
        <time>2022-03-27T11:26:58Z</time>
      </trkpt>
      <trkpt lat="47.36673" lon="-1.41398">
        <ele>110</ele>
        <time>2022-03-27T11:27:00Z</time>
      </trkpt>
      <trkpt lat="47.36679" lon="-1.41383">
        <ele>110</ele>
        <time>2022-03-27T11:27:02Z</time>
      </trkpt>
      <trkpt lat="47.36685" lon="-1.41367">
        <ele>110</ele>
        <time>2022-03-27T11:27:04Z</time>
      </trkpt>
      <trkpt lat="47.3669" lon="-1.41351">
        <ele>110</ele>
        <time>2022-03-27T11:27:06Z</time>
      </trkpt>
      <trkpt lat="47.36696" lon="-1.41336">
        <ele>110</ele>
        <time>2022-03-27T11:27:08Z</time>
      </trkpt>
      <trkpt lat="47.36702" lon="-1.41322">
        <ele>110</ele>
        <time>2022-03-27T11:27:10Z</time>
      </trkpt>
      <trkpt lat="47.36707" lon="-1.41308">
        <ele>109</ele>
        <time>2022-03-27T11:27:12Z</time>
      </trkpt>
      <trkpt lat="47.36711" lon="-1.41295">
        <ele>109</ele>
        <time>2022-03-27T11:27:14Z</time>
      </trkpt>
      <trkpt lat="47.36718" lon="-1.41285">
        <ele>108</ele>
        <time>2022-03-27T11:27:25Z</time>
      </trkpt>
      <trkpt lat="47.36724" lon="-1.41273">
        <ele>109</ele>
        <time>2022-03-27T11:27:29Z</time>
      </trkpt>
      <trkpt lat="47.36726" lon="-1.41259">
        <ele>109</ele>
        <time>2022-03-27T11:27:31Z</time>
      </trkpt>
      <trkpt lat="47.36731" lon="-1.41243">
        <ele>108</ele>
        <time>2022-03-27T11:27:33Z</time>
      </trkpt>
      <trkpt lat="47.36736" lon="-1.41227">
        <ele>107</ele>
        <time>2022-03-27T11:27:35Z</time>
      </trkpt>
      <trkpt lat="47.3674" lon="-1.41211">
        <ele>108</ele>
        <time>2022-03-27T11:27:37Z</time>
      </trkpt>
      <trkpt lat="47.36743" lon="-1.41194">
        <ele>107</ele>
        <time>2022-03-27T11:27:39Z</time>
      </trkpt>
      <trkpt lat="47.36743" lon="-1.41177">
        <ele>107</ele>
        <time>2022-03-27T11:27:41Z</time>
      </trkpt>
      <trkpt lat="47.36742" lon="-1.4116">
        <ele>106</ele>
        <time>2022-03-27T11:27:43Z</time>
      </trkpt>
      <trkpt lat="47.36741" lon="-1.41143">
        <ele>106</ele>
        <time>2022-03-27T11:27:45Z</time>
      </trkpt>
      <trkpt lat="47.36737" lon="-1.41127">
        <ele>105</ele>
        <time>2022-03-27T11:27:47Z</time>
      </trkpt>
      <trkpt lat="47.36733" lon="-1.41112">
        <ele>105</ele>
        <time>2022-03-27T11:27:49Z</time>
      </trkpt>
      <trkpt lat="47.36728" lon="-1.41097">
        <ele>105</ele>
        <time>2022-03-27T11:27:51Z</time>
      </trkpt>
      <trkpt lat="47.36724" lon="-1.41081">
        <ele>105</ele>
        <time>2022-03-27T11:27:53Z</time>
      </trkpt>
      <trkpt lat="47.3672" lon="-1.41065">
        <ele>104</ele>
        <time>2022-03-27T11:27:55Z</time>
      </trkpt>
      <trkpt lat="47.36716" lon="-1.4105">
        <ele>104</ele>
        <time>2022-03-27T11:27:57Z</time>
      </trkpt>
      <trkpt lat="47.36712" lon="-1.41033">
        <ele>104</ele>
        <time>2022-03-27T11:27:59Z</time>
      </trkpt>
      <trkpt lat="47.36707" lon="-1.41018">
        <ele>103</ele>
        <time>2022-03-27T11:28:01Z</time>
      </trkpt>
      <trkpt lat="47.36703" lon="-1.41002">
        <ele>103</ele>
        <time>2022-03-27T11:28:03Z</time>
      </trkpt>
      <trkpt lat="47.36699" lon="-1.40985">
        <ele>103</ele>
        <time>2022-03-27T11:28:05Z</time>
      </trkpt>
      <trkpt lat="47.36696" lon="-1.4097">
        <ele>103</ele>
        <time>2022-03-27T11:28:07Z</time>
      </trkpt>
      <trkpt lat="47.36694" lon="-1.40954">
        <ele>103</ele>
        <time>2022-03-27T11:28:09Z</time>
      </trkpt>
      <trkpt lat="47.36691" lon="-1.40939">
        <ele>104</ele>
        <time>2022-03-27T11:28:11Z</time>
      </trkpt>
      <trkpt lat="47.36689" lon="-1.40924">
        <ele>104</ele>
        <time>2022-03-27T11:28:13Z</time>
      </trkpt>
      <trkpt lat="47.36689" lon="-1.40907">
        <ele>104</ele>
        <time>2022-03-27T11:28:15Z</time>
      </trkpt>
      <trkpt lat="47.36689" lon="-1.40891">
        <ele>105</ele>
        <time>2022-03-27T11:28:17Z</time>
      </trkpt>
      <trkpt lat="47.3669" lon="-1.40875">
        <ele>104</ele>
        <time>2022-03-27T11:28:19Z</time>
      </trkpt>
      <trkpt lat="47.3669" lon="-1.40859">
        <ele>104</ele>
        <time>2022-03-27T11:28:21Z</time>
      </trkpt>
      <trkpt lat="47.36691" lon="-1.40843">
        <ele>105</ele>
        <time>2022-03-27T11:28:23Z</time>
      </trkpt>
      <trkpt lat="47.36691" lon="-1.40828">
        <ele>105</ele>
        <time>2022-03-27T11:28:25Z</time>
      </trkpt>
      <trkpt lat="47.36692" lon="-1.40813">
        <ele>105</ele>
        <time>2022-03-27T11:28:27Z</time>
      </trkpt>
      <trkpt lat="47.36692" lon="-1.40797">
        <ele>105</ele>
        <time>2022-03-27T11:28:29Z</time>
      </trkpt>
      <trkpt lat="47.36692" lon="-1.40781">
        <ele>105</ele>
        <time>2022-03-27T11:28:31Z</time>
      </trkpt>
      <trkpt lat="47.36694" lon="-1.40766">
        <ele>105</ele>
        <time>2022-03-27T11:28:33Z</time>
      </trkpt>
      <trkpt lat="47.36694" lon="-1.4075">
        <ele>106</ele>
        <time>2022-03-27T11:28:35Z</time>
      </trkpt>
      <trkpt lat="47.36694" lon="-1.40734">
        <ele>105</ele>
        <time>2022-03-27T11:28:37Z</time>
      </trkpt>
      <trkpt lat="47.36695" lon="-1.40718">
        <ele>105</ele>
        <time>2022-03-27T11:28:39Z</time>
      </trkpt>
      <trkpt lat="47.36695" lon="-1.40701">
        <ele>105</ele>
        <time>2022-03-27T11:28:41Z</time>
      </trkpt>
      <trkpt lat="47.36695" lon="-1.40683">
        <ele>105</ele>
        <time>2022-03-27T11:28:43Z</time>
      </trkpt>
      <trkpt lat="47.36696" lon="-1.40667">
        <ele>105</ele>
        <time>2022-03-27T11:28:45Z</time>
      </trkpt>
      <trkpt lat="47.36697" lon="-1.40651">
        <ele>105</ele>
        <time>2022-03-27T11:28:47Z</time>
      </trkpt>
      <trkpt lat="47.36697" lon="-1.40636">
        <ele>105</ele>
        <time>2022-03-27T11:28:49Z</time>
      </trkpt>
      <trkpt lat="47.36697" lon="-1.4062">
        <ele>105</ele>
        <time>2022-03-27T11:28:51Z</time>
      </trkpt>
      <trkpt lat="47.36698" lon="-1.40602">
        <ele>105</ele>
        <time>2022-03-27T11:28:53Z</time>
      </trkpt>
      <trkpt lat="47.36698" lon="-1.40584">
        <ele>105</ele>
        <time>2022-03-27T11:28:55Z</time>
      </trkpt>
      <trkpt lat="47.36699" lon="-1.40566">
        <ele>104</ele>
        <time>2022-03-27T11:28:57Z</time>
      </trkpt>
      <trkpt lat="47.36699" lon="-1.40546">
        <ele>103</ele>
        <time>2022-03-27T11:28:59Z</time>
      </trkpt>
      <trkpt lat="47.36697" lon="-1.4053">
        <ele>103</ele>
        <time>2022-03-27T11:29:01Z</time>
      </trkpt>
      <trkpt lat="47.36702" lon="-1.40515">
        <ele>103</ele>
        <time>2022-03-27T11:29:04Z</time>
      </trkpt>
      <trkpt lat="47.36714" lon="-1.40513">
        <ele>102</ele>
        <time>2022-03-27T11:29:06Z</time>
      </trkpt>
      <trkpt lat="47.36725" lon="-1.40504">
        <ele>101</ele>
        <time>2022-03-27T11:29:08Z</time>
      </trkpt>
      <trkpt lat="47.36729" lon="-1.40487">
        <ele>100</ele>
        <time>2022-03-27T11:29:10Z</time>
      </trkpt>
      <trkpt lat="47.3673" lon="-1.40469">
        <ele>100</ele>
        <time>2022-03-27T11:29:12Z</time>
      </trkpt>
      <trkpt lat="47.36731" lon="-1.4045">
        <ele>100</ele>
        <time>2022-03-27T11:29:14Z</time>
      </trkpt>
      <trkpt lat="47.36732" lon="-1.4043">
        <ele>100</ele>
        <time>2022-03-27T11:29:16Z</time>
      </trkpt>
      <trkpt lat="47.36735" lon="-1.40412">
        <ele>100</ele>
        <time>2022-03-27T11:29:18Z</time>
      </trkpt>
      <trkpt lat="47.36737" lon="-1.40393">
        <ele>101</ele>
        <time>2022-03-27T11:29:20Z</time>
      </trkpt>
      <trkpt lat="47.3674" lon="-1.40374">
        <ele>100</ele>
        <time>2022-03-27T11:29:22Z</time>
      </trkpt>
      <trkpt lat="47.36743" lon="-1.40355">
        <ele>100</ele>
        <time>2022-03-27T11:29:24Z</time>
      </trkpt>
      <trkpt lat="47.36746" lon="-1.40337">
        <ele>99</ele>
        <time>2022-03-27T11:29:26Z</time>
      </trkpt>
      <trkpt lat="47.36749" lon="-1.40319">
        <ele>99</ele>
        <time>2022-03-27T11:29:28Z</time>
      </trkpt>
      <trkpt lat="47.36752" lon="-1.403">
        <ele>99</ele>
        <time>2022-03-27T11:29:30Z</time>
      </trkpt>
      <trkpt lat="47.36755" lon="-1.40281">
        <ele>98</ele>
        <time>2022-03-27T11:29:32Z</time>
      </trkpt>
      <trkpt lat="47.36758" lon="-1.40263">
        <ele>98</ele>
        <time>2022-03-27T11:29:34Z</time>
      </trkpt>
      <trkpt lat="47.3676" lon="-1.40243">
        <ele>97</ele>
        <time>2022-03-27T11:29:36Z</time>
      </trkpt>
      <trkpt lat="47.36762" lon="-1.40224">
        <ele>98</ele>
        <time>2022-03-27T11:29:38Z</time>
      </trkpt>
      <trkpt lat="47.36763" lon="-1.40204">
        <ele>98</ele>
        <time>2022-03-27T11:29:40Z</time>
      </trkpt>
      <trkpt lat="47.36763" lon="-1.40183">
        <ele>98</ele>
        <time>2022-03-27T11:29:42Z</time>
      </trkpt>
      <trkpt lat="47.36764" lon="-1.40163">
        <ele>98</ele>
        <time>2022-03-27T11:29:44Z</time>
      </trkpt>
      <trkpt lat="47.36764" lon="-1.40144">
        <ele>98</ele>
        <time>2022-03-27T11:29:46Z</time>
      </trkpt>
      <trkpt lat="47.36764" lon="-1.40125">
        <ele>99</ele>
        <time>2022-03-27T11:29:48Z</time>
      </trkpt>
      <trkpt lat="47.36764" lon="-1.40106">
        <ele>100</ele>
        <time>2022-03-27T11:29:50Z</time>
      </trkpt>
      <trkpt lat="47.36764" lon="-1.40088">
        <ele>101</ele>
        <time>2022-03-27T11:29:52Z</time>
      </trkpt>
      <trkpt lat="47.36765" lon="-1.40071">
        <ele>101</ele>
        <time>2022-03-27T11:29:54Z</time>
      </trkpt>
      <trkpt lat="47.36765" lon="-1.40054">
        <ele>101</ele>
        <time>2022-03-27T11:29:56Z</time>
      </trkpt>
      <trkpt lat="47.36765" lon="-1.40038">
        <ele>101</ele>
        <time>2022-03-27T11:29:58Z</time>
      </trkpt>
      <trkpt lat="47.36765" lon="-1.40023">
        <ele>101</ele>
        <time>2022-03-27T11:30:00Z</time>
      </trkpt>
      <trkpt lat="47.36764" lon="-1.40006">
        <ele>102</ele>
        <time>2022-03-27T11:30:02Z</time>
      </trkpt>
      <trkpt lat="47.36764" lon="-1.3999">
        <ele>103</ele>
        <time>2022-03-27T11:30:04Z</time>
      </trkpt>
      <trkpt lat="47.36764" lon="-1.39974">
        <ele>103</ele>
        <time>2022-03-27T11:30:06Z</time>
      </trkpt>
      <trkpt lat="47.36764" lon="-1.39957">
        <ele>103</ele>
        <time>2022-03-27T11:30:08Z</time>
      </trkpt>
      <trkpt lat="47.36764" lon="-1.39942">
        <ele>104</ele>
        <time>2022-03-27T11:30:10Z</time>
      </trkpt>
      <trkpt lat="47.36764" lon="-1.39927">
        <ele>105</ele>
        <time>2022-03-27T11:30:12Z</time>
      </trkpt>
      <trkpt lat="47.36764" lon="-1.39912">
        <ele>105</ele>
        <time>2022-03-27T11:30:14Z</time>
      </trkpt>
      <trkpt lat="47.36764" lon="-1.39896">
        <ele>105</ele>
        <time>2022-03-27T11:30:16Z</time>
      </trkpt>
      <trkpt lat="47.36765" lon="-1.39881">
        <ele>105</ele>
        <time>2022-03-27T11:30:18Z</time>
      </trkpt>
      <trkpt lat="47.36765" lon="-1.39866">
        <ele>106</ele>
        <time>2022-03-27T11:30:20Z</time>
      </trkpt>
      <trkpt lat="47.36765" lon="-1.39852">
        <ele>106</ele>
        <time>2022-03-27T11:30:22Z</time>
      </trkpt>
      <trkpt lat="47.36764" lon="-1.39837">
        <ele>106</ele>
        <time>2022-03-27T11:30:24Z</time>
      </trkpt>
      <trkpt lat="47.36764" lon="-1.39822">
        <ele>106</ele>
        <time>2022-03-27T11:30:26Z</time>
      </trkpt>
      <trkpt lat="47.36764" lon="-1.39807">
        <ele>106</ele>
        <time>2022-03-27T11:30:28Z</time>
      </trkpt>
      <trkpt lat="47.36764" lon="-1.39792">
        <ele>107</ele>
        <time>2022-03-27T11:30:30Z</time>
      </trkpt>
      <trkpt lat="47.36764" lon="-1.39776">
        <ele>107</ele>
        <time>2022-03-27T11:30:32Z</time>
      </trkpt>
      <trkpt lat="47.36764" lon="-1.39762">
        <ele>107</ele>
        <time>2022-03-27T11:30:34Z</time>
      </trkpt>
      <trkpt lat="47.36764" lon="-1.39747">
        <ele>107</ele>
        <time>2022-03-27T11:30:36Z</time>
      </trkpt>
      <trkpt lat="47.36764" lon="-1.39732">
        <ele>107</ele>
        <time>2022-03-27T11:30:38Z</time>
      </trkpt>
      <trkpt lat="47.36764" lon="-1.39718">
        <ele>107</ele>
        <time>2022-03-27T11:30:40Z</time>
      </trkpt>
      <trkpt lat="47.36764" lon="-1.39704">
        <ele>107</ele>
        <time>2022-03-27T11:30:42Z</time>
      </trkpt>
      <trkpt lat="47.36765" lon="-1.39689">
        <ele>107</ele>
        <time>2022-03-27T11:30:44Z</time>
      </trkpt>
      <trkpt lat="47.36765" lon="-1.39674">
        <ele>108</ele>
        <time>2022-03-27T11:30:46Z</time>
      </trkpt>
      <trkpt lat="47.36765" lon="-1.39659">
        <ele>108</ele>
        <time>2022-03-27T11:30:48Z</time>
      </trkpt>
      <trkpt lat="47.36766" lon="-1.39644">
        <ele>108</ele>
        <time>2022-03-27T11:30:50Z</time>
      </trkpt>
      <trkpt lat="47.36765" lon="-1.39629">
        <ele>108</ele>
        <time>2022-03-27T11:30:52Z</time>
      </trkpt>
      <trkpt lat="47.36765" lon="-1.39614">
        <ele>108</ele>
        <time>2022-03-27T11:30:54Z</time>
      </trkpt>
      <trkpt lat="47.36766" lon="-1.39598">
        <ele>108</ele>
        <time>2022-03-27T11:30:56Z</time>
      </trkpt>
      <trkpt lat="47.36766" lon="-1.39583">
        <ele>108</ele>
        <time>2022-03-27T11:30:58Z</time>
      </trkpt>
      <trkpt lat="47.36765" lon="-1.39568">
        <ele>108</ele>
        <time>2022-03-27T11:31:00Z</time>
      </trkpt>
      <trkpt lat="47.36766" lon="-1.39551">
        <ele>108</ele>
        <time>2022-03-27T11:31:02Z</time>
      </trkpt>
      <trkpt lat="47.36766" lon="-1.39535">
        <ele>109</ele>
        <time>2022-03-27T11:31:04Z</time>
      </trkpt>
      <trkpt lat="47.36766" lon="-1.39519">
        <ele>109</ele>
        <time>2022-03-27T11:31:06Z</time>
      </trkpt>
      <trkpt lat="47.36766" lon="-1.39503">
        <ele>109</ele>
        <time>2022-03-27T11:31:08Z</time>
      </trkpt>
      <trkpt lat="47.36766" lon="-1.39488">
        <ele>109</ele>
        <time>2022-03-27T11:31:10Z</time>
      </trkpt>
      <trkpt lat="47.36766" lon="-1.39472">
        <ele>109</ele>
        <time>2022-03-27T11:31:12Z</time>
      </trkpt>
      <trkpt lat="47.36766" lon="-1.39456">
        <ele>109</ele>
        <time>2022-03-27T11:31:14Z</time>
      </trkpt>
      <trkpt lat="47.36766" lon="-1.39441">
        <ele>108</ele>
        <time>2022-03-27T11:31:16Z</time>
      </trkpt>
      <trkpt lat="47.36766" lon="-1.39426">
        <ele>109</ele>
        <time>2022-03-27T11:31:18Z</time>
      </trkpt>
      <trkpt lat="47.36766" lon="-1.3941">
        <ele>109</ele>
        <time>2022-03-27T11:31:20Z</time>
      </trkpt>
      <trkpt lat="47.36766" lon="-1.39394">
        <ele>109</ele>
        <time>2022-03-27T11:31:22Z</time>
      </trkpt>
      <trkpt lat="47.36766" lon="-1.39379">
        <ele>109</ele>
        <time>2022-03-27T11:31:24Z</time>
      </trkpt>
      <trkpt lat="47.36766" lon="-1.39364">
        <ele>109</ele>
        <time>2022-03-27T11:31:26Z</time>
      </trkpt>
      <trkpt lat="47.36765" lon="-1.39348">
        <ele>109</ele>
        <time>2022-03-27T11:31:28Z</time>
      </trkpt>
      <trkpt lat="47.36763" lon="-1.39333">
        <ele>109</ele>
        <time>2022-03-27T11:31:30Z</time>
      </trkpt>
      <trkpt lat="47.36761" lon="-1.39318">
        <ele>109</ele>
        <time>2022-03-27T11:31:32Z</time>
      </trkpt>
      <trkpt lat="47.36758" lon="-1.39303">
        <ele>109</ele>
        <time>2022-03-27T11:31:34Z</time>
      </trkpt>
      <trkpt lat="47.36755" lon="-1.39288">
        <ele>109</ele>
        <time>2022-03-27T11:31:36Z</time>
      </trkpt>
      <trkpt lat="47.3675" lon="-1.39273">
        <ele>109</ele>
        <time>2022-03-27T11:31:38Z</time>
      </trkpt>
      <trkpt lat="47.36745" lon="-1.39259">
        <ele>109</ele>
        <time>2022-03-27T11:31:40Z</time>
      </trkpt>
      <trkpt lat="47.36739" lon="-1.39245">
        <ele>109</ele>
        <time>2022-03-27T11:31:42Z</time>
      </trkpt>
      <trkpt lat="47.36733" lon="-1.39233">
        <ele>109</ele>
        <time>2022-03-27T11:31:44Z</time>
      </trkpt>
      <trkpt lat="47.36727" lon="-1.39219">
        <ele>109</ele>
        <time>2022-03-27T11:31:46Z</time>
      </trkpt>
      <trkpt lat="47.36721" lon="-1.39207">
        <ele>109</ele>
        <time>2022-03-27T11:31:48Z</time>
      </trkpt>
      <trkpt lat="47.36715" lon="-1.39193">
        <ele>109</ele>
        <time>2022-03-27T11:31:50Z</time>
      </trkpt>
      <trkpt lat="47.36709" lon="-1.3918">
        <ele>109</ele>
        <time>2022-03-27T11:31:52Z</time>
      </trkpt>
      <trkpt lat="47.36702" lon="-1.39167">
        <ele>109</ele>
        <time>2022-03-27T11:31:54Z</time>
      </trkpt>
      <trkpt lat="47.36696" lon="-1.39154">
        <ele>109</ele>
        <time>2022-03-27T11:31:56Z</time>
      </trkpt>
      <trkpt lat="47.3669" lon="-1.39141">
        <ele>109</ele>
        <time>2022-03-27T11:31:58Z</time>
      </trkpt>
      <trkpt lat="47.36684" lon="-1.39128">
        <ele>109</ele>
        <time>2022-03-27T11:32:00Z</time>
      </trkpt>
      <trkpt lat="47.36678" lon="-1.39115">
        <ele>109</ele>
        <time>2022-03-27T11:32:02Z</time>
      </trkpt>
      <trkpt lat="47.36671" lon="-1.39102">
        <ele>109</ele>
        <time>2022-03-27T11:32:04Z</time>
      </trkpt>
      <trkpt lat="47.36665" lon="-1.39089">
        <ele>109</ele>
        <time>2022-03-27T11:32:06Z</time>
      </trkpt>
      <trkpt lat="47.36659" lon="-1.39076">
        <ele>109</ele>
        <time>2022-03-27T11:32:08Z</time>
      </trkpt>
      <trkpt lat="47.36652" lon="-1.39062">
        <ele>109</ele>
        <time>2022-03-27T11:32:10Z</time>
      </trkpt>
      <trkpt lat="47.36646" lon="-1.39049">
        <ele>109</ele>
        <time>2022-03-27T11:32:12Z</time>
      </trkpt>
      <trkpt lat="47.36639" lon="-1.39036">
        <ele>110</ele>
        <time>2022-03-27T11:32:14Z</time>
      </trkpt>
      <trkpt lat="47.36632" lon="-1.39022">
        <ele>110</ele>
        <time>2022-03-27T11:32:16Z</time>
      </trkpt>
      <trkpt lat="47.36626" lon="-1.39008">
        <ele>110</ele>
        <time>2022-03-27T11:32:18Z</time>
      </trkpt>
      <trkpt lat="47.3662" lon="-1.38995">
        <ele>110</ele>
        <time>2022-03-27T11:32:20Z</time>
      </trkpt>
      <trkpt lat="47.36614" lon="-1.38983">
        <ele>110</ele>
        <time>2022-03-27T11:32:22Z</time>
      </trkpt>
      <trkpt lat="47.36608" lon="-1.3897">
        <ele>110</ele>
        <time>2022-03-27T11:32:24Z</time>
      </trkpt>
      <trkpt lat="47.36601" lon="-1.38958">
        <ele>111</ele>
        <time>2022-03-27T11:32:26Z</time>
      </trkpt>
      <trkpt lat="47.36594" lon="-1.38945">
        <ele>112</ele>
        <time>2022-03-27T11:32:28Z</time>
      </trkpt>
      <trkpt lat="47.36588" lon="-1.38931">
        <ele>113</ele>
        <time>2022-03-27T11:32:30Z</time>
      </trkpt>
      <trkpt lat="47.36581" lon="-1.38917">
        <ele>113</ele>
        <time>2022-03-27T11:32:32Z</time>
      </trkpt>
      <trkpt lat="47.36575" lon="-1.38903">
        <ele>113</ele>
        <time>2022-03-27T11:32:34Z</time>
      </trkpt>
      <trkpt lat="47.36569" lon="-1.3889">
        <ele>114</ele>
        <time>2022-03-27T11:32:36Z</time>
      </trkpt>
      <trkpt lat="47.36562" lon="-1.38876">
        <ele>114</ele>
        <time>2022-03-27T11:32:38Z</time>
      </trkpt>
      <trkpt lat="47.36556" lon="-1.38863">
        <ele>114</ele>
        <time>2022-03-27T11:32:40Z</time>
      </trkpt>
      <trkpt lat="47.36549" lon="-1.38848">
        <ele>115</ele>
        <time>2022-03-27T11:32:42Z</time>
      </trkpt>
      <trkpt lat="47.36543" lon="-1.38835">
        <ele>115</ele>
        <time>2022-03-27T11:32:44Z</time>
      </trkpt>
      <trkpt lat="47.36536" lon="-1.38822">
        <ele>116</ele>
        <time>2022-03-27T11:32:46Z</time>
      </trkpt>
      <trkpt lat="47.3653" lon="-1.38808">
        <ele>116</ele>
        <time>2022-03-27T11:32:48Z</time>
      </trkpt>
      <trkpt lat="47.36523" lon="-1.38794">
        <ele>115</ele>
        <time>2022-03-27T11:32:50Z</time>
      </trkpt>
      <trkpt lat="47.36516" lon="-1.38781">
        <ele>116</ele>
        <time>2022-03-27T11:32:52Z</time>
      </trkpt>
      <trkpt lat="47.3651" lon="-1.38767">
        <ele>116</ele>
        <time>2022-03-27T11:32:54Z</time>
      </trkpt>
      <trkpt lat="47.36503" lon="-1.38753">
        <ele>116</ele>
        <time>2022-03-27T11:32:56Z</time>
      </trkpt>
      <trkpt lat="47.36497" lon="-1.3874">
        <ele>116</ele>
        <time>2022-03-27T11:32:58Z</time>
      </trkpt>
      <trkpt lat="47.36491" lon="-1.38726">
        <ele>116</ele>
        <time>2022-03-27T11:33:00Z</time>
      </trkpt>
      <trkpt lat="47.36484" lon="-1.38712">
        <ele>116</ele>
        <time>2022-03-27T11:33:02Z</time>
      </trkpt>
      <trkpt lat="47.36477" lon="-1.38698">
        <ele>116</ele>
        <time>2022-03-27T11:33:04Z</time>
      </trkpt>
      <trkpt lat="47.36471" lon="-1.38684">
        <ele>116</ele>
        <time>2022-03-27T11:33:06Z</time>
      </trkpt>
      <trkpt lat="47.36465" lon="-1.3867">
        <ele>116</ele>
        <time>2022-03-27T11:33:08Z</time>
      </trkpt>
      <trkpt lat="47.36458" lon="-1.38657">
        <ele>116</ele>
        <time>2022-03-27T11:33:10Z</time>
      </trkpt>
      <trkpt lat="47.36452" lon="-1.38644">
        <ele>116</ele>
        <time>2022-03-27T11:33:12Z</time>
      </trkpt>
      <trkpt lat="47.36445" lon="-1.3863">
        <ele>116</ele>
        <time>2022-03-27T11:33:14Z</time>
      </trkpt>
      <trkpt lat="47.36439" lon="-1.38616">
        <ele>116</ele>
        <time>2022-03-27T11:33:16Z</time>
      </trkpt>
      <trkpt lat="47.36432" lon="-1.38602">
        <ele>116</ele>
        <time>2022-03-27T11:33:18Z</time>
      </trkpt>
      <trkpt lat="47.36426" lon="-1.38588">
        <ele>115</ele>
        <time>2022-03-27T11:33:20Z</time>
      </trkpt>
      <trkpt lat="47.36419" lon="-1.38575">
        <ele>115</ele>
        <time>2022-03-27T11:33:22Z</time>
      </trkpt>
      <trkpt lat="47.36412" lon="-1.38561">
        <ele>115</ele>
        <time>2022-03-27T11:33:24Z</time>
      </trkpt>
      <trkpt lat="47.36404" lon="-1.38549">
        <ele>114</ele>
        <time>2022-03-27T11:33:26Z</time>
      </trkpt>
      <trkpt lat="47.36396" lon="-1.38537">
        <ele>115</ele>
        <time>2022-03-27T11:33:28Z</time>
      </trkpt>
      <trkpt lat="47.36388" lon="-1.38524">
        <ele>114</ele>
        <time>2022-03-27T11:33:30Z</time>
      </trkpt>
      <trkpt lat="47.3638" lon="-1.38512">
        <ele>114</ele>
        <time>2022-03-27T11:33:32Z</time>
      </trkpt>
      <trkpt lat="47.36372" lon="-1.385">
        <ele>114</ele>
        <time>2022-03-27T11:33:34Z</time>
      </trkpt>
      <trkpt lat="47.36363" lon="-1.38487">
        <ele>114</ele>
        <time>2022-03-27T11:33:36Z</time>
      </trkpt>
      <trkpt lat="47.36354" lon="-1.38474">
        <ele>114</ele>
        <time>2022-03-27T11:33:38Z</time>
      </trkpt>
      <trkpt lat="47.36346" lon="-1.38461">
        <ele>113</ele>
        <time>2022-03-27T11:33:40Z</time>
      </trkpt>
      <trkpt lat="47.36338" lon="-1.38449">
        <ele>113</ele>
        <time>2022-03-27T11:33:42Z</time>
      </trkpt>
      <trkpt lat="47.36329" lon="-1.38436">
        <ele>113</ele>
        <time>2022-03-27T11:33:44Z</time>
      </trkpt>
      <trkpt lat="47.36321" lon="-1.38423">
        <ele>113</ele>
        <time>2022-03-27T11:33:46Z</time>
      </trkpt>
      <trkpt lat="47.36312" lon="-1.3841">
        <ele>113</ele>
        <time>2022-03-27T11:33:48Z</time>
      </trkpt>
      <trkpt lat="47.36303" lon="-1.38397">
        <ele>113</ele>
        <time>2022-03-27T11:33:50Z</time>
      </trkpt>
      <trkpt lat="47.36294" lon="-1.38384">
        <ele>112</ele>
        <time>2022-03-27T11:33:52Z</time>
      </trkpt>
      <trkpt lat="47.36286" lon="-1.3837">
        <ele>112</ele>
        <time>2022-03-27T11:33:54Z</time>
      </trkpt>
      <trkpt lat="47.36277" lon="-1.38357">
        <ele>113</ele>
        <time>2022-03-27T11:33:56Z</time>
      </trkpt>
      <trkpt lat="47.36267" lon="-1.38344">
        <ele>113</ele>
        <time>2022-03-27T11:33:58Z</time>
      </trkpt>
      <trkpt lat="47.36259" lon="-1.3833">
        <ele>113</ele>
        <time>2022-03-27T11:34:00Z</time>
      </trkpt>
      <trkpt lat="47.3625" lon="-1.38317">
        <ele>112</ele>
        <time>2022-03-27T11:34:02Z</time>
      </trkpt>
      <trkpt lat="47.36241" lon="-1.38304">
        <ele>112</ele>
        <time>2022-03-27T11:34:04Z</time>
      </trkpt>
      <trkpt lat="47.36232" lon="-1.3829">
        <ele>112</ele>
        <time>2022-03-27T11:34:06Z</time>
      </trkpt>
      <trkpt lat="47.36223" lon="-1.38277">
        <ele>112</ele>
        <time>2022-03-27T11:34:08Z</time>
      </trkpt>
      <trkpt lat="47.36215" lon="-1.38264">
        <ele>112</ele>
        <time>2022-03-27T11:34:10Z</time>
      </trkpt>
      <trkpt lat="47.36206" lon="-1.38251">
        <ele>112</ele>
        <time>2022-03-27T11:34:12Z</time>
      </trkpt>
      <trkpt lat="47.36197" lon="-1.38237">
        <ele>112</ele>
        <time>2022-03-27T11:34:14Z</time>
      </trkpt>
      <trkpt lat="47.36189" lon="-1.38224">
        <ele>112</ele>
        <time>2022-03-27T11:34:16Z</time>
      </trkpt>
      <trkpt lat="47.3618" lon="-1.38211">
        <ele>112</ele>
        <time>2022-03-27T11:34:18Z</time>
      </trkpt>
      <trkpt lat="47.36171" lon="-1.38198">
        <ele>112</ele>
        <time>2022-03-27T11:34:20Z</time>
      </trkpt>
      <trkpt lat="47.36163" lon="-1.38185">
        <ele>113</ele>
        <time>2022-03-27T11:34:22Z</time>
      </trkpt>
      <trkpt lat="47.36154" lon="-1.38173">
        <ele>113</ele>
        <time>2022-03-27T11:34:24Z</time>
      </trkpt>
      <trkpt lat="47.36146" lon="-1.3816">
        <ele>113</ele>
        <time>2022-03-27T11:34:26Z</time>
      </trkpt>
      <trkpt lat="47.36137" lon="-1.38147">
        <ele>113</ele>
        <time>2022-03-27T11:34:28Z</time>
      </trkpt>
      <trkpt lat="47.36128" lon="-1.38133">
        <ele>113</ele>
        <time>2022-03-27T11:34:30Z</time>
      </trkpt>
      <trkpt lat="47.3612" lon="-1.38121">
        <ele>113</ele>
        <time>2022-03-27T11:34:32Z</time>
      </trkpt>
      <trkpt lat="47.36112" lon="-1.38108">
        <ele>113</ele>
        <time>2022-03-27T11:34:34Z</time>
      </trkpt>
      <trkpt lat="47.36103" lon="-1.38096">
        <ele>113</ele>
        <time>2022-03-27T11:34:36Z</time>
      </trkpt>
      <trkpt lat="47.36095" lon="-1.38084">
        <ele>113</ele>
        <time>2022-03-27T11:34:38Z</time>
      </trkpt>
      <trkpt lat="47.36087" lon="-1.38072">
        <ele>114</ele>
        <time>2022-03-27T11:34:40Z</time>
      </trkpt>
      <trkpt lat="47.36078" lon="-1.3806">
        <ele>115</ele>
        <time>2022-03-27T11:34:42Z</time>
      </trkpt>
      <trkpt lat="47.3607" lon="-1.38048">
        <ele>115</ele>
        <time>2022-03-27T11:34:44Z</time>
      </trkpt>
      <trkpt lat="47.36062" lon="-1.38035">
        <ele>116</ele>
        <time>2022-03-27T11:34:46Z</time>
      </trkpt>
      <trkpt lat="47.36054" lon="-1.38023">
        <ele>116</ele>
        <time>2022-03-27T11:34:48Z</time>
      </trkpt>
      <trkpt lat="47.36045" lon="-1.38011">
        <ele>117</ele>
        <time>2022-03-27T11:34:50Z</time>
      </trkpt>
      <trkpt lat="47.36037" lon="-1.37999">
        <ele>117</ele>
        <time>2022-03-27T11:34:52Z</time>
      </trkpt>
      <trkpt lat="47.36029" lon="-1.37987">
        <ele>117</ele>
        <time>2022-03-27T11:34:54Z</time>
      </trkpt>
      <trkpt lat="47.36021" lon="-1.37974">
        <ele>117</ele>
        <time>2022-03-27T11:34:56Z</time>
      </trkpt>
      <trkpt lat="47.36012" lon="-1.37961">
        <ele>117</ele>
        <time>2022-03-27T11:34:58Z</time>
      </trkpt>
      <trkpt lat="47.36004" lon="-1.37949">
        <ele>117</ele>
        <time>2022-03-27T11:35:00Z</time>
      </trkpt>
      <trkpt lat="47.35996" lon="-1.37936">
        <ele>117</ele>
        <time>2022-03-27T11:35:02Z</time>
      </trkpt>
      <trkpt lat="47.35988" lon="-1.37925">
        <ele>118</ele>
        <time>2022-03-27T11:35:04Z</time>
      </trkpt>
      <trkpt lat="47.3598" lon="-1.37913">
        <ele>118</ele>
        <time>2022-03-27T11:35:06Z</time>
      </trkpt>
      <trkpt lat="47.35973" lon="-1.37901">
        <ele>119</ele>
        <time>2022-03-27T11:35:08Z</time>
      </trkpt>
      <trkpt lat="47.35965" lon="-1.37889">
        <ele>119</ele>
        <time>2022-03-27T11:35:10Z</time>
      </trkpt>
      <trkpt lat="47.35956" lon="-1.37877">
        <ele>119</ele>
        <time>2022-03-27T11:35:12Z</time>
      </trkpt>
      <trkpt lat="47.35948" lon="-1.37865">
        <ele>119</ele>
        <time>2022-03-27T11:35:14Z</time>
      </trkpt>
      <trkpt lat="47.3594" lon="-1.37854">
        <ele>119</ele>
        <time>2022-03-27T11:35:16Z</time>
      </trkpt>
      <trkpt lat="47.35933" lon="-1.37842">
        <ele>119</ele>
        <time>2022-03-27T11:35:18Z</time>
      </trkpt>
      <trkpt lat="47.35925" lon="-1.3783">
        <ele>120</ele>
        <time>2022-03-27T11:35:20Z</time>
      </trkpt>
      <trkpt lat="47.35917" lon="-1.37818">
        <ele>120</ele>
        <time>2022-03-27T11:35:22Z</time>
      </trkpt>
      <trkpt lat="47.35909" lon="-1.37806">
        <ele>120</ele>
        <time>2022-03-27T11:35:24Z</time>
      </trkpt>
      <trkpt lat="47.35901" lon="-1.37795">
        <ele>120</ele>
        <time>2022-03-27T11:35:26Z</time>
      </trkpt>
      <trkpt lat="47.35894" lon="-1.37783">
        <ele>120</ele>
        <time>2022-03-27T11:35:28Z</time>
      </trkpt>
      <trkpt lat="47.35885" lon="-1.37772">
        <ele>121</ele>
        <time>2022-03-27T11:35:30Z</time>
      </trkpt>
      <trkpt lat="47.35878" lon="-1.37759">
        <ele>121</ele>
        <time>2022-03-27T11:35:32Z</time>
      </trkpt>
      <trkpt lat="47.3587" lon="-1.37747">
        <ele>121</ele>
        <time>2022-03-27T11:35:34Z</time>
      </trkpt>
      <trkpt lat="47.35862" lon="-1.37735">
        <ele>121</ele>
        <time>2022-03-27T11:35:36Z</time>
      </trkpt>
      <trkpt lat="47.35854" lon="-1.37723">
        <ele>121</ele>
        <time>2022-03-27T11:35:38Z</time>
      </trkpt>
      <trkpt lat="47.35846" lon="-1.37711">
        <ele>121</ele>
        <time>2022-03-27T11:35:40Z</time>
      </trkpt>
      <trkpt lat="47.35838" lon="-1.377">
        <ele>122</ele>
        <time>2022-03-27T11:35:42Z</time>
      </trkpt>
      <trkpt lat="47.3583" lon="-1.37688">
        <ele>122</ele>
        <time>2022-03-27T11:35:44Z</time>
      </trkpt>
      <trkpt lat="47.35822" lon="-1.37676">
        <ele>122</ele>
        <time>2022-03-27T11:35:46Z</time>
      </trkpt>
      <trkpt lat="47.35813" lon="-1.37663">
        <ele>122</ele>
        <time>2022-03-27T11:35:48Z</time>
      </trkpt>
      <trkpt lat="47.35806" lon="-1.37652">
        <ele>123</ele>
        <time>2022-03-27T11:35:50Z</time>
      </trkpt>
      <trkpt lat="47.35797" lon="-1.3764">
        <ele>123</ele>
        <time>2022-03-27T11:35:52Z</time>
      </trkpt>
      <trkpt lat="47.35789" lon="-1.37627">
        <ele>124</ele>
        <time>2022-03-27T11:35:54Z</time>
      </trkpt>
      <trkpt lat="47.35781" lon="-1.37616">
        <ele>124</ele>
        <time>2022-03-27T11:35:56Z</time>
      </trkpt>
      <trkpt lat="47.35774" lon="-1.37604">
        <ele>124</ele>
        <time>2022-03-27T11:35:58Z</time>
      </trkpt>
      <trkpt lat="47.35766" lon="-1.37592">
        <ele>124</ele>
        <time>2022-03-27T11:36:00Z</time>
      </trkpt>
      <trkpt lat="47.35758" lon="-1.3758">
        <ele>124</ele>
        <time>2022-03-27T11:36:02Z</time>
      </trkpt>
      <trkpt lat="47.3575" lon="-1.37567">
        <ele>124</ele>
        <time>2022-03-27T11:36:04Z</time>
      </trkpt>
      <trkpt lat="47.35742" lon="-1.37555">
        <ele>124</ele>
        <time>2022-03-27T11:36:06Z</time>
      </trkpt>
      <trkpt lat="47.35735" lon="-1.37543">
        <ele>123</ele>
        <time>2022-03-27T11:36:08Z</time>
      </trkpt>
      <trkpt lat="47.35727" lon="-1.37531">
        <ele>124</ele>
        <time>2022-03-27T11:36:10Z</time>
      </trkpt>
      <trkpt lat="47.35719" lon="-1.37519">
        <ele>124</ele>
        <time>2022-03-27T11:36:12Z</time>
      </trkpt>
      <trkpt lat="47.35711" lon="-1.37507">
        <ele>124</ele>
        <time>2022-03-27T11:36:14Z</time>
      </trkpt>
      <trkpt lat="47.35703" lon="-1.37495">
        <ele>124</ele>
        <time>2022-03-27T11:36:16Z</time>
      </trkpt>
      <trkpt lat="47.35695" lon="-1.37483">
        <ele>124</ele>
        <time>2022-03-27T11:36:18Z</time>
      </trkpt>
      <trkpt lat="47.35687" lon="-1.3747">
        <ele>124</ele>
        <time>2022-03-27T11:36:20Z</time>
      </trkpt>
      <trkpt lat="47.35679" lon="-1.37459">
        <ele>124</ele>
        <time>2022-03-27T11:36:22Z</time>
      </trkpt>
      <trkpt lat="47.35671" lon="-1.37447">
        <ele>124</ele>
        <time>2022-03-27T11:36:24Z</time>
      </trkpt>
      <trkpt lat="47.35663" lon="-1.37435">
        <ele>124</ele>
        <time>2022-03-27T11:36:26Z</time>
      </trkpt>
      <trkpt lat="47.35655" lon="-1.37422">
        <ele>124</ele>
        <time>2022-03-27T11:36:28Z</time>
      </trkpt>
      <trkpt lat="47.35647" lon="-1.3741">
        <ele>124</ele>
        <time>2022-03-27T11:36:30Z</time>
      </trkpt>
      <trkpt lat="47.35639" lon="-1.37397">
        <ele>124</ele>
        <time>2022-03-27T11:36:32Z</time>
      </trkpt>
      <trkpt lat="47.3563" lon="-1.37385">
        <ele>124</ele>
        <time>2022-03-27T11:36:34Z</time>
      </trkpt>
      <trkpt lat="47.35622" lon="-1.37372">
        <ele>124</ele>
        <time>2022-03-27T11:36:36Z</time>
      </trkpt>
      <trkpt lat="47.35613" lon="-1.3736">
        <ele>124</ele>
        <time>2022-03-27T11:36:38Z</time>
      </trkpt>
      <trkpt lat="47.35605" lon="-1.37347">
        <ele>124</ele>
        <time>2022-03-27T11:36:40Z</time>
      </trkpt>
      <trkpt lat="47.35597" lon="-1.37335">
        <ele>124</ele>
        <time>2022-03-27T11:36:42Z</time>
      </trkpt>
      <trkpt lat="47.35588" lon="-1.37322">
        <ele>124</ele>
        <time>2022-03-27T11:36:44Z</time>
      </trkpt>
      <trkpt lat="47.35579" lon="-1.37309">
        <ele>125</ele>
        <time>2022-03-27T11:36:46Z</time>
      </trkpt>
      <trkpt lat="47.3557" lon="-1.37297">
        <ele>125</ele>
        <time>2022-03-27T11:36:48Z</time>
      </trkpt>
      <trkpt lat="47.35561" lon="-1.37284">
        <ele>125</ele>
        <time>2022-03-27T11:36:50Z</time>
      </trkpt>
      <trkpt lat="47.35552" lon="-1.37272">
        <ele>125</ele>
        <time>2022-03-27T11:36:52Z</time>
      </trkpt>
      <trkpt lat="47.35544" lon="-1.37259">
        <ele>126</ele>
        <time>2022-03-27T11:36:54Z</time>
      </trkpt>
      <trkpt lat="47.35534" lon="-1.37244">
        <ele>125</ele>
        <time>2022-03-27T11:36:56Z</time>
      </trkpt>
      <trkpt lat="47.35525" lon="-1.37229">
        <ele>126</ele>
        <time>2022-03-27T11:36:58Z</time>
      </trkpt>
      <trkpt lat="47.35516" lon="-1.37216">
        <ele>126</ele>
        <time>2022-03-27T11:37:00Z</time>
      </trkpt>
      <trkpt lat="47.35507" lon="-1.37203">
        <ele>128</ele>
        <time>2022-03-27T11:37:02Z</time>
      </trkpt>
      <trkpt lat="47.35498" lon="-1.3719">
        <ele>129</ele>
        <time>2022-03-27T11:37:04Z</time>
      </trkpt>
      <trkpt lat="47.3549" lon="-1.37177">
        <ele>129</ele>
        <time>2022-03-27T11:37:06Z</time>
      </trkpt>
      <trkpt lat="47.35481" lon="-1.37164">
        <ele>130</ele>
        <time>2022-03-27T11:37:08Z</time>
      </trkpt>
      <trkpt lat="47.35473" lon="-1.37152">
        <ele>130</ele>
        <time>2022-03-27T11:37:10Z</time>
      </trkpt>
      <trkpt lat="47.35464" lon="-1.3714">
        <ele>131</ele>
        <time>2022-03-27T11:37:12Z</time>
      </trkpt>
      <trkpt lat="47.35456" lon="-1.37128">
        <ele>132</ele>
        <time>2022-03-27T11:37:14Z</time>
      </trkpt>
      <trkpt lat="47.35448" lon="-1.37116">
        <ele>132</ele>
        <time>2022-03-27T11:37:16Z</time>
      </trkpt>
      <trkpt lat="47.3544" lon="-1.37103">
        <ele>133</ele>
        <time>2022-03-27T11:37:18Z</time>
      </trkpt>
      <trkpt lat="47.35431" lon="-1.37091">
        <ele>133</ele>
        <time>2022-03-27T11:37:20Z</time>
      </trkpt>
      <trkpt lat="47.35423" lon="-1.37078">
        <ele>133</ele>
        <time>2022-03-27T11:37:22Z</time>
      </trkpt>
      <trkpt lat="47.35415" lon="-1.37067">
        <ele>133</ele>
        <time>2022-03-27T11:37:24Z</time>
      </trkpt>
      <trkpt lat="47.35407" lon="-1.37054">
        <ele>133</ele>
        <time>2022-03-27T11:37:26Z</time>
      </trkpt>
      <trkpt lat="47.35399" lon="-1.37042">
        <ele>134</ele>
        <time>2022-03-27T11:37:28Z</time>
      </trkpt>
      <trkpt lat="47.35391" lon="-1.3703">
        <ele>133</ele>
        <time>2022-03-27T11:37:30Z</time>
      </trkpt>
      <trkpt lat="47.35383" lon="-1.37017">
        <ele>133</ele>
        <time>2022-03-27T11:37:32Z</time>
      </trkpt>
      <trkpt lat="47.35375" lon="-1.37005">
        <ele>133</ele>
        <time>2022-03-27T11:37:34Z</time>
      </trkpt>
      <trkpt lat="47.35368" lon="-1.36992">
        <ele>133</ele>
        <time>2022-03-27T11:37:36Z</time>
      </trkpt>
      <trkpt lat="47.3536" lon="-1.36979">
        <ele>132</ele>
        <time>2022-03-27T11:37:38Z</time>
      </trkpt>
      <trkpt lat="47.35352" lon="-1.36967">
        <ele>132</ele>
        <time>2022-03-27T11:37:40Z</time>
      </trkpt>
      <trkpt lat="47.35344" lon="-1.36955">
        <ele>131</ele>
        <time>2022-03-27T11:37:42Z</time>
      </trkpt>
      <trkpt lat="47.35335" lon="-1.36943">
        <ele>131</ele>
        <time>2022-03-27T11:37:44Z</time>
      </trkpt>
      <trkpt lat="47.35327" lon="-1.36929">
        <ele>131</ele>
        <time>2022-03-27T11:37:46Z</time>
      </trkpt>
      <trkpt lat="47.35318" lon="-1.36916">
        <ele>130</ele>
        <time>2022-03-27T11:37:48Z</time>
      </trkpt>
      <trkpt lat="47.3531" lon="-1.36902">
        <ele>130</ele>
        <time>2022-03-27T11:37:50Z</time>
      </trkpt>
      <trkpt lat="47.35302" lon="-1.36889">
        <ele>130</ele>
        <time>2022-03-27T11:37:52Z</time>
      </trkpt>
      <trkpt lat="47.35293" lon="-1.36876">
        <ele>130</ele>
        <time>2022-03-27T11:37:54Z</time>
      </trkpt>
      <trkpt lat="47.35284" lon="-1.36863">
        <ele>129</ele>
        <time>2022-03-27T11:37:56Z</time>
      </trkpt>
      <trkpt lat="47.35275" lon="-1.3685">
        <ele>129</ele>
        <time>2022-03-27T11:37:58Z</time>
      </trkpt>
      <trkpt lat="47.35267" lon="-1.36837">
        <ele>129</ele>
        <time>2022-03-27T11:38:00Z</time>
      </trkpt>
      <trkpt lat="47.35258" lon="-1.36824">
        <ele>129</ele>
        <time>2022-03-27T11:38:02Z</time>
      </trkpt>
      <trkpt lat="47.3525" lon="-1.36812">
        <ele>129</ele>
        <time>2022-03-27T11:38:04Z</time>
      </trkpt>
      <trkpt lat="47.35241" lon="-1.36799">
        <ele>128</ele>
        <time>2022-03-27T11:38:06Z</time>
      </trkpt>
      <trkpt lat="47.35233" lon="-1.36786">
        <ele>128</ele>
        <time>2022-03-27T11:38:08Z</time>
      </trkpt>
      <trkpt lat="47.35224" lon="-1.36773">
        <ele>129</ele>
        <time>2022-03-27T11:38:10Z</time>
      </trkpt>
      <trkpt lat="47.35216" lon="-1.3676">
        <ele>128</ele>
        <time>2022-03-27T11:38:12Z</time>
      </trkpt>
      <trkpt lat="47.35207" lon="-1.36747">
        <ele>128</ele>
        <time>2022-03-27T11:38:14Z</time>
      </trkpt>
      <trkpt lat="47.35199" lon="-1.36734">
        <ele>128</ele>
        <time>2022-03-27T11:38:16Z</time>
      </trkpt>
      <trkpt lat="47.35191" lon="-1.36721">
        <ele>128</ele>
        <time>2022-03-27T11:38:18Z</time>
      </trkpt>
      <trkpt lat="47.35182" lon="-1.36708">
        <ele>128</ele>
        <time>2022-03-27T11:38:20Z</time>
      </trkpt>
      <trkpt lat="47.35174" lon="-1.36696">
        <ele>129</ele>
        <time>2022-03-27T11:38:22Z</time>
      </trkpt>
      <trkpt lat="47.35166" lon="-1.36683">
        <ele>129</ele>
        <time>2022-03-27T11:38:24Z</time>
      </trkpt>
      <trkpt lat="47.35157" lon="-1.36671">
        <ele>129</ele>
        <time>2022-03-27T11:38:26Z</time>
      </trkpt>
      <trkpt lat="47.35148" lon="-1.36658">
        <ele>129</ele>
        <time>2022-03-27T11:38:28Z</time>
      </trkpt>
      <trkpt lat="47.3514" lon="-1.36646">
        <ele>130</ele>
        <time>2022-03-27T11:38:30Z</time>
      </trkpt>
      <trkpt lat="47.35131" lon="-1.36633">
        <ele>130</ele>
        <time>2022-03-27T11:38:32Z</time>
      </trkpt>
      <trkpt lat="47.35123" lon="-1.36621">
        <ele>130</ele>
        <time>2022-03-27T11:38:34Z</time>
      </trkpt>
      <trkpt lat="47.35115" lon="-1.36609">
        <ele>131</ele>
        <time>2022-03-27T11:38:36Z</time>
      </trkpt>
      <trkpt lat="47.35106" lon="-1.36596">
        <ele>131</ele>
        <time>2022-03-27T11:38:38Z</time>
      </trkpt>
      <trkpt lat="47.35098" lon="-1.36584">
        <ele>132</ele>
        <time>2022-03-27T11:38:40Z</time>
      </trkpt>
      <trkpt lat="47.3509" lon="-1.36571">
        <ele>132</ele>
        <time>2022-03-27T11:38:42Z</time>
      </trkpt>
      <trkpt lat="47.35081" lon="-1.36559">
        <ele>133</ele>
        <time>2022-03-27T11:38:44Z</time>
      </trkpt>
      <trkpt lat="47.35073" lon="-1.36547">
        <ele>133</ele>
        <time>2022-03-27T11:38:46Z</time>
      </trkpt>
      <trkpt lat="47.35065" lon="-1.36534">
        <ele>134</ele>
        <time>2022-03-27T11:38:48Z</time>
      </trkpt>
      <trkpt lat="47.35058" lon="-1.36521">
        <ele>134</ele>
        <time>2022-03-27T11:38:50Z</time>
      </trkpt>
      <trkpt lat="47.3505" lon="-1.36508">
        <ele>134</ele>
        <time>2022-03-27T11:38:52Z</time>
      </trkpt>
      <trkpt lat="47.35042" lon="-1.36495">
        <ele>134</ele>
        <time>2022-03-27T11:38:54Z</time>
      </trkpt>
      <trkpt lat="47.35033" lon="-1.36481">
        <ele>133</ele>
        <time>2022-03-27T11:38:56Z</time>
      </trkpt>
      <trkpt lat="47.35025" lon="-1.36469">
        <ele>132</ele>
        <time>2022-03-27T11:38:58Z</time>
      </trkpt>
      <trkpt lat="47.35016" lon="-1.36456">
        <ele>131</ele>
        <time>2022-03-27T11:39:00Z</time>
      </trkpt>
      <trkpt lat="47.35007" lon="-1.36446">
        <ele>130</ele>
        <time>2022-03-27T11:39:02Z</time>
      </trkpt>
      <trkpt lat="47.34998" lon="-1.36434">
        <ele>129</ele>
        <time>2022-03-27T11:39:04Z</time>
      </trkpt>
      <trkpt lat="47.3499" lon="-1.36423">
        <ele>129</ele>
        <time>2022-03-27T11:39:06Z</time>
      </trkpt>
      <trkpt lat="47.3498" lon="-1.36412">
        <ele>129</ele>
        <time>2022-03-27T11:39:08Z</time>
      </trkpt>
      <trkpt lat="47.34971" lon="-1.364">
        <ele>129</ele>
        <time>2022-03-27T11:39:10Z</time>
      </trkpt>
      <trkpt lat="47.34962" lon="-1.36389">
        <ele>128</ele>
        <time>2022-03-27T11:39:12Z</time>
      </trkpt>
      <trkpt lat="47.34953" lon="-1.36377">
        <ele>128</ele>
        <time>2022-03-27T11:39:14Z</time>
      </trkpt>
      <trkpt lat="47.34943" lon="-1.36365">
        <ele>128</ele>
        <time>2022-03-27T11:39:16Z</time>
      </trkpt>
      <trkpt lat="47.34934" lon="-1.36354">
        <ele>128</ele>
        <time>2022-03-27T11:39:18Z</time>
      </trkpt>
      <trkpt lat="47.34921" lon="-1.36337">
        <ele>128</ele>
        <time>2022-03-27T11:39:21Z</time>
      </trkpt>
      <trkpt lat="47.34912" lon="-1.36325">
        <ele>128</ele>
        <time>2022-03-27T11:39:23Z</time>
      </trkpt>
      <trkpt lat="47.34904" lon="-1.36312">
        <ele>128</ele>
        <time>2022-03-27T11:39:25Z</time>
      </trkpt>
      <trkpt lat="47.34896" lon="-1.36299">
        <ele>128</ele>
        <time>2022-03-27T11:39:27Z</time>
      </trkpt>
      <trkpt lat="47.34888" lon="-1.36286">
        <ele>127</ele>
        <time>2022-03-27T11:39:29Z</time>
      </trkpt>
      <trkpt lat="47.3488" lon="-1.36274">
        <ele>127</ele>
        <time>2022-03-27T11:39:31Z</time>
      </trkpt>
      <trkpt lat="47.34872" lon="-1.36261">
        <ele>127</ele>
        <time>2022-03-27T11:39:33Z</time>
      </trkpt>
      <trkpt lat="47.34864" lon="-1.36249">
        <ele>127</ele>
        <time>2022-03-27T11:39:35Z</time>
      </trkpt>
      <trkpt lat="47.34857" lon="-1.36237">
        <ele>127</ele>
        <time>2022-03-27T11:39:37Z</time>
      </trkpt>
      <trkpt lat="47.3485" lon="-1.36224">
        <ele>127</ele>
        <time>2022-03-27T11:39:39Z</time>
      </trkpt>
      <trkpt lat="47.34842" lon="-1.36212">
        <ele>127</ele>
        <time>2022-03-27T11:39:41Z</time>
      </trkpt>
      <trkpt lat="47.34834" lon="-1.36199">
        <ele>127</ele>
        <time>2022-03-27T11:39:43Z</time>
      </trkpt>
      <trkpt lat="47.34827" lon="-1.36187">
        <ele>127</ele>
        <time>2022-03-27T11:39:45Z</time>
      </trkpt>
      <trkpt lat="47.34819" lon="-1.36176">
        <ele>127</ele>
        <time>2022-03-27T11:39:47Z</time>
      </trkpt>
      <trkpt lat="47.34811" lon="-1.36164">
        <ele>127</ele>
        <time>2022-03-27T11:39:49Z</time>
      </trkpt>
      <trkpt lat="47.34802" lon="-1.36152">
        <ele>126</ele>
        <time>2022-03-27T11:39:51Z</time>
      </trkpt>
      <trkpt lat="47.34794" lon="-1.36141">
        <ele>126</ele>
        <time>2022-03-27T11:39:53Z</time>
      </trkpt>
      <trkpt lat="47.34785" lon="-1.3613">
        <ele>126</ele>
        <time>2022-03-27T11:39:55Z</time>
      </trkpt>
      <trkpt lat="47.34776" lon="-1.36119">
        <ele>126</ele>
        <time>2022-03-27T11:39:57Z</time>
      </trkpt>
      <trkpt lat="47.34767" lon="-1.36109">
        <ele>126</ele>
        <time>2022-03-27T11:39:59Z</time>
      </trkpt>
      <trkpt lat="47.34758" lon="-1.36098">
        <ele>126</ele>
        <time>2022-03-27T11:40:01Z</time>
      </trkpt>
      <trkpt lat="47.34749" lon="-1.36088">
        <ele>127</ele>
        <time>2022-03-27T11:40:03Z</time>
      </trkpt>
      <trkpt lat="47.34741" lon="-1.36077">
        <ele>127</ele>
        <time>2022-03-27T11:40:05Z</time>
      </trkpt>
      <trkpt lat="47.34732" lon="-1.36066">
        <ele>127</ele>
        <time>2022-03-27T11:40:07Z</time>
      </trkpt>
      <trkpt lat="47.34723" lon="-1.36056">
        <ele>127</ele>
        <time>2022-03-27T11:40:09Z</time>
      </trkpt>
      <trkpt lat="47.34713" lon="-1.36044">
        <ele>126</ele>
        <time>2022-03-27T11:40:11Z</time>
      </trkpt>
      <trkpt lat="47.34703" lon="-1.36033">
        <ele>126</ele>
        <time>2022-03-27T11:40:13Z</time>
      </trkpt>
      <trkpt lat="47.34694" lon="-1.36022">
        <ele>126</ele>
        <time>2022-03-27T11:40:15Z</time>
      </trkpt>
      <trkpt lat="47.34684" lon="-1.36011">
        <ele>126</ele>
        <time>2022-03-27T11:40:17Z</time>
      </trkpt>
      <trkpt lat="47.34674" lon="-1.36">
        <ele>126</ele>
        <time>2022-03-27T11:40:19Z</time>
      </trkpt>
      <trkpt lat="47.34663" lon="-1.35989">
        <ele>125</ele>
        <time>2022-03-27T11:40:21Z</time>
      </trkpt>
      <trkpt lat="47.34652" lon="-1.35977">
        <ele>125</ele>
        <time>2022-03-27T11:40:23Z</time>
      </trkpt>
      <trkpt lat="47.34641" lon="-1.35965">
        <ele>124</ele>
        <time>2022-03-27T11:40:25Z</time>
      </trkpt>
      <trkpt lat="47.3463" lon="-1.35953">
        <ele>124</ele>
        <time>2022-03-27T11:40:27Z</time>
      </trkpt>
      <trkpt lat="47.34619" lon="-1.35941">
        <ele>124</ele>
        <time>2022-03-27T11:40:29Z</time>
      </trkpt>
      <trkpt lat="47.34609" lon="-1.35929">
        <ele>123</ele>
        <time>2022-03-27T11:40:31Z</time>
      </trkpt>
      <trkpt lat="47.34599" lon="-1.35917">
        <ele>123</ele>
        <time>2022-03-27T11:40:33Z</time>
      </trkpt>
      <trkpt lat="47.34589" lon="-1.35906">
        <ele>123</ele>
        <time>2022-03-27T11:40:35Z</time>
      </trkpt>
      <trkpt lat="47.3458" lon="-1.35894">
        <ele>123</ele>
        <time>2022-03-27T11:40:37Z</time>
      </trkpt>
      <trkpt lat="47.3457" lon="-1.35882">
        <ele>123</ele>
        <time>2022-03-27T11:40:39Z</time>
      </trkpt>
      <trkpt lat="47.34561" lon="-1.3587">
        <ele>124</ele>
        <time>2022-03-27T11:40:41Z</time>
      </trkpt>
      <trkpt lat="47.34553" lon="-1.35857">
        <ele>124</ele>
        <time>2022-03-27T11:40:43Z</time>
      </trkpt>
      <trkpt lat="47.34545" lon="-1.35845">
        <ele>124</ele>
        <time>2022-03-27T11:40:45Z</time>
      </trkpt>
      <trkpt lat="47.34537" lon="-1.35831">
        <ele>124</ele>
        <time>2022-03-27T11:40:47Z</time>
      </trkpt>
      <trkpt lat="47.34529" lon="-1.35819">
        <ele>125</ele>
        <time>2022-03-27T11:40:49Z</time>
      </trkpt>
      <trkpt lat="47.34521" lon="-1.35806">
        <ele>125</ele>
        <time>2022-03-27T11:40:51Z</time>
      </trkpt>
      <trkpt lat="47.34514" lon="-1.35793">
        <ele>126</ele>
        <time>2022-03-27T11:40:53Z</time>
      </trkpt>
      <trkpt lat="47.34507" lon="-1.35781">
        <ele>126</ele>
        <time>2022-03-27T11:40:55Z</time>
      </trkpt>
      <trkpt lat="47.34501" lon="-1.35769">
        <ele>126</ele>
        <time>2022-03-27T11:40:57Z</time>
      </trkpt>
      <trkpt lat="47.34495" lon="-1.35757">
        <ele>125</ele>
        <time>2022-03-27T11:40:59Z</time>
      </trkpt>
      <trkpt lat="47.34489" lon="-1.35745">
        <ele>125</ele>
        <time>2022-03-27T11:41:01Z</time>
      </trkpt>
      <trkpt lat="47.34482" lon="-1.35733">
        <ele>125</ele>
        <time>2022-03-27T11:41:03Z</time>
      </trkpt>
      <trkpt lat="47.34476" lon="-1.35721">
        <ele>126</ele>
        <time>2022-03-27T11:41:05Z</time>
      </trkpt>
      <trkpt lat="47.34469" lon="-1.35709">
        <ele>126</ele>
        <time>2022-03-27T11:41:07Z</time>
      </trkpt>
      <trkpt lat="47.34462" lon="-1.35696">
        <ele>127</ele>
        <time>2022-03-27T11:41:09Z</time>
      </trkpt>
      <trkpt lat="47.34455" lon="-1.35685">
        <ele>127</ele>
        <time>2022-03-27T11:41:11Z</time>
      </trkpt>
      <trkpt lat="47.34447" lon="-1.35675">
        <ele>128</ele>
        <time>2022-03-27T11:41:13Z</time>
      </trkpt>
      <trkpt lat="47.34439" lon="-1.35664">
        <ele>129</ele>
        <time>2022-03-27T11:41:15Z</time>
      </trkpt>
      <trkpt lat="47.34432" lon="-1.35652">
        <ele>130</ele>
        <time>2022-03-27T11:41:17Z</time>
      </trkpt>
      <trkpt lat="47.34425" lon="-1.35641">
        <ele>130</ele>
        <time>2022-03-27T11:41:19Z</time>
      </trkpt>
      <trkpt lat="47.34419" lon="-1.35629">
        <ele>130</ele>
        <time>2022-03-27T11:41:21Z</time>
      </trkpt>
      <trkpt lat="47.34411" lon="-1.35618">
        <ele>130</ele>
        <time>2022-03-27T11:41:23Z</time>
      </trkpt>
      <trkpt lat="47.34404" lon="-1.35605">
        <ele>131</ele>
        <time>2022-03-27T11:41:25Z</time>
      </trkpt>
      <trkpt lat="47.34397" lon="-1.35593">
        <ele>130</ele>
        <time>2022-03-27T11:41:27Z</time>
      </trkpt>
      <trkpt lat="47.3439" lon="-1.3558">
        <ele>130</ele>
        <time>2022-03-27T11:41:29Z</time>
      </trkpt>
      <trkpt lat="47.34383" lon="-1.35568">
        <ele>130</ele>
        <time>2022-03-27T11:41:31Z</time>
      </trkpt>
      <trkpt lat="47.34376" lon="-1.35557">
        <ele>130</ele>
        <time>2022-03-27T11:41:33Z</time>
      </trkpt>
      <trkpt lat="47.3437" lon="-1.35545">
        <ele>130</ele>
        <time>2022-03-27T11:41:35Z</time>
      </trkpt>
      <trkpt lat="47.34363" lon="-1.35533">
        <ele>129</ele>
        <time>2022-03-27T11:41:37Z</time>
      </trkpt>
      <trkpt lat="47.34356" lon="-1.3552">
        <ele>129</ele>
        <time>2022-03-27T11:41:39Z</time>
      </trkpt>
      <trkpt lat="47.34349" lon="-1.35508">
        <ele>128</ele>
        <time>2022-03-27T11:41:41Z</time>
      </trkpt>
      <trkpt lat="47.34342" lon="-1.35496">
        <ele>128</ele>
        <time>2022-03-27T11:41:43Z</time>
      </trkpt>
      <trkpt lat="47.34336" lon="-1.35482">
        <ele>127</ele>
        <time>2022-03-27T11:41:45Z</time>
      </trkpt>
      <trkpt lat="47.34329" lon="-1.3547">
        <ele>127</ele>
        <time>2022-03-27T11:41:47Z</time>
      </trkpt>
      <trkpt lat="47.34321" lon="-1.35456">
        <ele>126</ele>
        <time>2022-03-27T11:41:49Z</time>
      </trkpt>
      <trkpt lat="47.34314" lon="-1.35443">
        <ele>126</ele>
        <time>2022-03-27T11:41:51Z</time>
      </trkpt>
      <trkpt lat="47.34307" lon="-1.3543">
        <ele>125</ele>
        <time>2022-03-27T11:41:53Z</time>
      </trkpt>
      <trkpt lat="47.343" lon="-1.35417">
        <ele>125</ele>
        <time>2022-03-27T11:41:55Z</time>
      </trkpt>
      <trkpt lat="47.34292" lon="-1.35405">
        <ele>126</ele>
        <time>2022-03-27T11:41:57Z</time>
      </trkpt>
      <trkpt lat="47.34285" lon="-1.35392">
        <ele>126</ele>
        <time>2022-03-27T11:41:59Z</time>
      </trkpt>
      <trkpt lat="47.34277" lon="-1.3538">
        <ele>127</ele>
        <time>2022-03-27T11:42:01Z</time>
      </trkpt>
      <trkpt lat="47.34269" lon="-1.35367">
        <ele>127</ele>
        <time>2022-03-27T11:42:03Z</time>
      </trkpt>
      <trkpt lat="47.34261" lon="-1.35355">
        <ele>127</ele>
        <time>2022-03-27T11:42:05Z</time>
      </trkpt>
      <trkpt lat="47.34254" lon="-1.35342">
        <ele>127</ele>
        <time>2022-03-27T11:42:07Z</time>
      </trkpt>
      <trkpt lat="47.34246" lon="-1.35329">
        <ele>127</ele>
        <time>2022-03-27T11:42:09Z</time>
      </trkpt>
      <trkpt lat="47.34239" lon="-1.35316">
        <ele>126</ele>
        <time>2022-03-27T11:42:11Z</time>
      </trkpt>
      <trkpt lat="47.34231" lon="-1.35304">
        <ele>126</ele>
        <time>2022-03-27T11:42:13Z</time>
      </trkpt>
      <trkpt lat="47.34224" lon="-1.35292">
        <ele>125</ele>
        <time>2022-03-27T11:42:15Z</time>
      </trkpt>
      <trkpt lat="47.34216" lon="-1.35278">
        <ele>125</ele>
        <time>2022-03-27T11:42:17Z</time>
      </trkpt>
      <trkpt lat="47.34208" lon="-1.35265">
        <ele>126</ele>
        <time>2022-03-27T11:42:19Z</time>
      </trkpt>
      <trkpt lat="47.342" lon="-1.35252">
        <ele>125</ele>
        <time>2022-03-27T11:42:21Z</time>
      </trkpt>
      <trkpt lat="47.34191" lon="-1.35238">
        <ele>125</ele>
        <time>2022-03-27T11:42:23Z</time>
      </trkpt>
      <trkpt lat="47.34183" lon="-1.35225">
        <ele>125</ele>
        <time>2022-03-27T11:42:25Z</time>
      </trkpt>
      <trkpt lat="47.34175" lon="-1.35212">
        <ele>125</ele>
        <time>2022-03-27T11:42:27Z</time>
      </trkpt>
      <trkpt lat="47.34166" lon="-1.35197">
        <ele>126</ele>
        <time>2022-03-27T11:42:29Z</time>
      </trkpt>
      <trkpt lat="47.34158" lon="-1.35183">
        <ele>126</ele>
        <time>2022-03-27T11:42:31Z</time>
      </trkpt>
      <trkpt lat="47.34149" lon="-1.35169">
        <ele>126</ele>
        <time>2022-03-27T11:42:33Z</time>
      </trkpt>
      <trkpt lat="47.34141" lon="-1.35155">
        <ele>126</ele>
        <time>2022-03-27T11:42:35Z</time>
      </trkpt>
      <trkpt lat="47.34132" lon="-1.3514">
        <ele>126</ele>
        <time>2022-03-27T11:42:37Z</time>
      </trkpt>
      <trkpt lat="47.34124" lon="-1.35126">
        <ele>126</ele>
        <time>2022-03-27T11:42:39Z</time>
      </trkpt>
      <trkpt lat="47.34116" lon="-1.35112">
        <ele>126</ele>
        <time>2022-03-27T11:42:41Z</time>
      </trkpt>
      <trkpt lat="47.34107" lon="-1.35098">
        <ele>126</ele>
        <time>2022-03-27T11:42:43Z</time>
      </trkpt>
      <trkpt lat="47.34099" lon="-1.35084">
        <ele>126</ele>
        <time>2022-03-27T11:42:45Z</time>
      </trkpt>
      <trkpt lat="47.3409" lon="-1.35071">
        <ele>126</ele>
        <time>2022-03-27T11:42:47Z</time>
      </trkpt>
      <trkpt lat="47.34082" lon="-1.35057">
        <ele>126</ele>
        <time>2022-03-27T11:42:49Z</time>
      </trkpt>
      <trkpt lat="47.34074" lon="-1.35043">
        <ele>127</ele>
        <time>2022-03-27T11:42:51Z</time>
      </trkpt>
      <trkpt lat="47.34065" lon="-1.35029">
        <ele>127</ele>
        <time>2022-03-27T11:42:53Z</time>
      </trkpt>
      <trkpt lat="47.34057" lon="-1.35015">
        <ele>127</ele>
        <time>2022-03-27T11:42:55Z</time>
      </trkpt>
      <trkpt lat="47.34049" lon="-1.35003">
        <ele>127</ele>
        <time>2022-03-27T11:42:57Z</time>
      </trkpt>
      <trkpt lat="47.3404" lon="-1.3499">
        <ele>127</ele>
        <time>2022-03-27T11:42:59Z</time>
      </trkpt>
      <trkpt lat="47.34032" lon="-1.34979">
        <ele>127</ele>
        <time>2022-03-27T11:43:01Z</time>
      </trkpt>
      <trkpt lat="47.34024" lon="-1.34969">
        <ele>128</ele>
        <time>2022-03-27T11:43:03Z</time>
      </trkpt>
      <trkpt lat="47.34015" lon="-1.34962">
        <ele>128</ele>
        <time>2022-03-27T11:43:05Z</time>
      </trkpt>
      <trkpt lat="47.34006" lon="-1.34958">
        <ele>128</ele>
        <time>2022-03-27T11:43:07Z</time>
      </trkpt>
      <trkpt lat="47.33996" lon="-1.3495">
        <ele>129</ele>
        <time>2022-03-27T11:43:09Z</time>
      </trkpt>
      <trkpt lat="47.33988" lon="-1.34936">
        <ele>129</ele>
        <time>2022-03-27T11:43:11Z</time>
      </trkpt>
      <trkpt lat="47.33981" lon="-1.3492">
        <ele>129</ele>
        <time>2022-03-27T11:43:13Z</time>
      </trkpt>
      <trkpt lat="47.33971" lon="-1.34908">
        <ele>128</ele>
        <time>2022-03-27T11:43:15Z</time>
      </trkpt>
      <trkpt lat="47.33961" lon="-1.34898">
        <ele>128</ele>
        <time>2022-03-27T11:43:17Z</time>
      </trkpt>
      <trkpt lat="47.33951" lon="-1.34888">
        <ele>128</ele>
        <time>2022-03-27T11:43:19Z</time>
      </trkpt>
      <trkpt lat="47.3394" lon="-1.34878">
        <ele>128</ele>
        <time>2022-03-27T11:43:21Z</time>
      </trkpt>
      <trkpt lat="47.33929" lon="-1.34867">
        <ele>128</ele>
        <time>2022-03-27T11:43:23Z</time>
      </trkpt>
      <trkpt lat="47.33919" lon="-1.34857">
        <ele>128</ele>
        <time>2022-03-27T11:43:25Z</time>
      </trkpt>
      <trkpt lat="47.33909" lon="-1.34846">
        <ele>128</ele>
        <time>2022-03-27T11:43:27Z</time>
      </trkpt>
      <trkpt lat="47.33899" lon="-1.34835">
        <ele>128</ele>
        <time>2022-03-27T11:43:29Z</time>
      </trkpt>
      <trkpt lat="47.33889" lon="-1.34824">
        <ele>128</ele>
        <time>2022-03-27T11:43:31Z</time>
      </trkpt>
      <trkpt lat="47.3388" lon="-1.34811">
        <ele>127</ele>
        <time>2022-03-27T11:43:33Z</time>
      </trkpt>
      <trkpt lat="47.33871" lon="-1.34798">
        <ele>128</ele>
        <time>2022-03-27T11:43:35Z</time>
      </trkpt>
      <trkpt lat="47.33862" lon="-1.34786">
        <ele>128</ele>
        <time>2022-03-27T11:43:37Z</time>
      </trkpt>
      <trkpt lat="47.33852" lon="-1.34773">
        <ele>127</ele>
        <time>2022-03-27T11:43:39Z</time>
      </trkpt>
      <trkpt lat="47.33843" lon="-1.34761">
        <ele>127</ele>
        <time>2022-03-27T11:43:41Z</time>
      </trkpt>
      <trkpt lat="47.33833" lon="-1.34748">
        <ele>127</ele>
        <time>2022-03-27T11:43:43Z</time>
      </trkpt>
      <trkpt lat="47.33825" lon="-1.34735">
        <ele>127</ele>
        <time>2022-03-27T11:43:45Z</time>
      </trkpt>
      <trkpt lat="47.33816" lon="-1.34723">
        <ele>127</ele>
        <time>2022-03-27T11:43:47Z</time>
      </trkpt>
      <trkpt lat="47.33807" lon="-1.3471">
        <ele>127</ele>
        <time>2022-03-27T11:43:49Z</time>
      </trkpt>
      <trkpt lat="47.33798" lon="-1.34697">
        <ele>128</ele>
        <time>2022-03-27T11:43:51Z</time>
      </trkpt>
      <trkpt lat="47.33789" lon="-1.34685">
        <ele>127</ele>
        <time>2022-03-27T11:43:53Z</time>
      </trkpt>
      <trkpt lat="47.3378" lon="-1.34673">
        <ele>127</ele>
        <time>2022-03-27T11:43:55Z</time>
      </trkpt>
      <trkpt lat="47.33772" lon="-1.34661">
        <ele>128</ele>
        <time>2022-03-27T11:43:57Z</time>
      </trkpt>
      <trkpt lat="47.33763" lon="-1.34649">
        <ele>128</ele>
        <time>2022-03-27T11:43:59Z</time>
      </trkpt>
      <trkpt lat="47.33755" lon="-1.34637">
        <ele>128</ele>
        <time>2022-03-27T11:44:01Z</time>
      </trkpt>
      <trkpt lat="47.33746" lon="-1.34626">
        <ele>128</ele>
        <time>2022-03-27T11:44:03Z</time>
      </trkpt>
      <trkpt lat="47.33737" lon="-1.34614">
        <ele>129</ele>
        <time>2022-03-27T11:44:05Z</time>
      </trkpt>
      <trkpt lat="47.33728" lon="-1.34602">
        <ele>129</ele>
        <time>2022-03-27T11:44:07Z</time>
      </trkpt>
      <trkpt lat="47.33719" lon="-1.3459">
        <ele>129</ele>
        <time>2022-03-27T11:44:09Z</time>
      </trkpt>
      <trkpt lat="47.33711" lon="-1.34578">
        <ele>129</ele>
        <time>2022-03-27T11:44:11Z</time>
      </trkpt>
      <trkpt lat="47.33702" lon="-1.34566">
        <ele>129</ele>
        <time>2022-03-27T11:44:13Z</time>
      </trkpt>
      <trkpt lat="47.33694" lon="-1.34554">
        <ele>129</ele>
        <time>2022-03-27T11:44:15Z</time>
      </trkpt>
      <trkpt lat="47.33685" lon="-1.34542">
        <ele>129</ele>
        <time>2022-03-27T11:44:17Z</time>
      </trkpt>
      <trkpt lat="47.33676" lon="-1.3453">
        <ele>129</ele>
        <time>2022-03-27T11:44:19Z</time>
      </trkpt>
      <trkpt lat="47.33668" lon="-1.34518">
        <ele>129</ele>
        <time>2022-03-27T11:44:21Z</time>
      </trkpt>
      <trkpt lat="47.33659" lon="-1.34506">
        <ele>129</ele>
        <time>2022-03-27T11:44:23Z</time>
      </trkpt>
      <trkpt lat="47.3365" lon="-1.34494">
        <ele>129</ele>
        <time>2022-03-27T11:44:25Z</time>
      </trkpt>
      <trkpt lat="47.33641" lon="-1.34483">
        <ele>129</ele>
        <time>2022-03-27T11:44:27Z</time>
      </trkpt>
      <trkpt lat="47.33631" lon="-1.34473">
        <ele>128</ele>
        <time>2022-03-27T11:44:29Z</time>
      </trkpt>
      <trkpt lat="47.3362" lon="-1.34464">
        <ele>128</ele>
        <time>2022-03-27T11:44:31Z</time>
      </trkpt>
      <trkpt lat="47.33609" lon="-1.34457">
        <ele>128</ele>
        <time>2022-03-27T11:44:33Z</time>
      </trkpt>
      <trkpt lat="47.33597" lon="-1.34451">
        <ele>127</ele>
        <time>2022-03-27T11:44:35Z</time>
      </trkpt>
      <trkpt lat="47.33586" lon="-1.34446">
        <ele>127</ele>
        <time>2022-03-27T11:44:37Z</time>
      </trkpt>
      <trkpt lat="47.33574" lon="-1.3444">
        <ele>127</ele>
        <time>2022-03-27T11:44:39Z</time>
      </trkpt>
      <trkpt lat="47.33563" lon="-1.34434">
        <ele>127</ele>
        <time>2022-03-27T11:44:41Z</time>
      </trkpt>
      <trkpt lat="47.33551" lon="-1.34429">
        <ele>127</ele>
        <time>2022-03-27T11:44:43Z</time>
      </trkpt>
      <trkpt lat="47.3354" lon="-1.34423">
        <ele>126</ele>
        <time>2022-03-27T11:44:45Z</time>
      </trkpt>
      <trkpt lat="47.33528" lon="-1.34418">
        <ele>126</ele>
        <time>2022-03-27T11:44:47Z</time>
      </trkpt>
      <trkpt lat="47.33516" lon="-1.34412">
        <ele>126</ele>
        <time>2022-03-27T11:44:49Z</time>
      </trkpt>
      <trkpt lat="47.33504" lon="-1.34406">
        <ele>126</ele>
        <time>2022-03-27T11:44:51Z</time>
      </trkpt>
      <trkpt lat="47.33492" lon="-1.34399">
        <ele>125</ele>
        <time>2022-03-27T11:44:53Z</time>
      </trkpt>
      <trkpt lat="47.33481" lon="-1.34394">
        <ele>125</ele>
        <time>2022-03-27T11:44:55Z</time>
      </trkpt>
      <trkpt lat="47.33468" lon="-1.34388">
        <ele>126</ele>
        <time>2022-03-27T11:44:57Z</time>
      </trkpt>
      <trkpt lat="47.33456" lon="-1.34383">
        <ele>125</ele>
        <time>2022-03-27T11:44:59Z</time>
      </trkpt>
      <trkpt lat="47.33444" lon="-1.34377">
        <ele>125</ele>
        <time>2022-03-27T11:45:01Z</time>
      </trkpt>
      <trkpt lat="47.33432" lon="-1.34372">
        <ele>125</ele>
        <time>2022-03-27T11:45:03Z</time>
      </trkpt>
      <trkpt lat="47.33419" lon="-1.34365">
        <ele>125</ele>
        <time>2022-03-27T11:45:05Z</time>
      </trkpt>
      <trkpt lat="47.33407" lon="-1.34359">
        <ele>124</ele>
        <time>2022-03-27T11:45:07Z</time>
      </trkpt>
      <trkpt lat="47.33394" lon="-1.34352">
        <ele>124</ele>
        <time>2022-03-27T11:45:09Z</time>
      </trkpt>
      <trkpt lat="47.33382" lon="-1.34346">
        <ele>123</ele>
        <time>2022-03-27T11:45:11Z</time>
      </trkpt>
      <trkpt lat="47.33369" lon="-1.3434">
        <ele>123</ele>
        <time>2022-03-27T11:45:13Z</time>
      </trkpt>
      <trkpt lat="47.33357" lon="-1.34333">
        <ele>123</ele>
        <time>2022-03-27T11:45:15Z</time>
      </trkpt>
      <trkpt lat="47.33344" lon="-1.34326">
        <ele>123</ele>
        <time>2022-03-27T11:45:17Z</time>
      </trkpt>
      <trkpt lat="47.33331" lon="-1.3432">
        <ele>123</ele>
        <time>2022-03-27T11:45:19Z</time>
      </trkpt>
      <trkpt lat="47.33318" lon="-1.34314">
        <ele>123</ele>
        <time>2022-03-27T11:45:21Z</time>
      </trkpt>
      <trkpt lat="47.33305" lon="-1.3431">
        <ele>123</ele>
        <time>2022-03-27T11:45:23Z</time>
      </trkpt>
      <trkpt lat="47.33292" lon="-1.34307">
        <ele>122</ele>
        <time>2022-03-27T11:45:25Z</time>
      </trkpt>
      <trkpt lat="47.33279" lon="-1.34305">
        <ele>122</ele>
        <time>2022-03-27T11:45:27Z</time>
      </trkpt>
      <trkpt lat="47.33265" lon="-1.34303">
        <ele>122</ele>
        <time>2022-03-27T11:45:29Z</time>
      </trkpt>
      <trkpt lat="47.33251" lon="-1.34301">
        <ele>122</ele>
        <time>2022-03-27T11:45:31Z</time>
      </trkpt>
      <trkpt lat="47.33237" lon="-1.343">
        <ele>122</ele>
        <time>2022-03-27T11:45:33Z</time>
      </trkpt>
      <trkpt lat="47.33224" lon="-1.34298">
        <ele>122</ele>
        <time>2022-03-27T11:45:35Z</time>
      </trkpt>
      <trkpt lat="47.3321" lon="-1.34297">
        <ele>122</ele>
        <time>2022-03-27T11:45:37Z</time>
      </trkpt>
      <trkpt lat="47.33196" lon="-1.34295">
        <ele>121</ele>
        <time>2022-03-27T11:45:39Z</time>
      </trkpt>
      <trkpt lat="47.33182" lon="-1.34292">
        <ele>121</ele>
        <time>2022-03-27T11:45:41Z</time>
      </trkpt>
      <trkpt lat="47.33169" lon="-1.3429">
        <ele>121</ele>
        <time>2022-03-27T11:45:43Z</time>
      </trkpt>
      <trkpt lat="47.33155" lon="-1.34285">
        <ele>121</ele>
        <time>2022-03-27T11:45:45Z</time>
      </trkpt>
      <trkpt lat="47.33142" lon="-1.34278">
        <ele>121</ele>
        <time>2022-03-27T11:45:47Z</time>
      </trkpt>
      <trkpt lat="47.33129" lon="-1.34269">
        <ele>120</ele>
        <time>2022-03-27T11:45:49Z</time>
      </trkpt>
      <trkpt lat="47.33115" lon="-1.3426">
        <ele>120</ele>
        <time>2022-03-27T11:45:51Z</time>
      </trkpt>
      <trkpt lat="47.33102" lon="-1.3425">
        <ele>119</ele>
        <time>2022-03-27T11:45:53Z</time>
      </trkpt>
      <trkpt lat="47.33088" lon="-1.3424">
        <ele>119</ele>
        <time>2022-03-27T11:45:55Z</time>
      </trkpt>
      <trkpt lat="47.33074" lon="-1.34231">
        <ele>118</ele>
        <time>2022-03-27T11:45:57Z</time>
      </trkpt>
      <trkpt lat="47.3306" lon="-1.34221">
        <ele>118</ele>
        <time>2022-03-27T11:45:59Z</time>
      </trkpt>
      <trkpt lat="47.33045" lon="-1.34212">
        <ele>117</ele>
        <time>2022-03-27T11:46:01Z</time>
      </trkpt>
      <trkpt lat="47.3303" lon="-1.34201">
        <ele>116</ele>
        <time>2022-03-27T11:46:03Z</time>
      </trkpt>
      <trkpt lat="47.33015" lon="-1.34191">
        <ele>115</ele>
        <time>2022-03-27T11:46:05Z</time>
      </trkpt>
      <trkpt lat="47.33" lon="-1.3418">
        <ele>114</ele>
        <time>2022-03-27T11:46:07Z</time>
      </trkpt>
      <trkpt lat="47.32984" lon="-1.34168">
        <ele>113</ele>
        <time>2022-03-27T11:46:09Z</time>
      </trkpt>
      <trkpt lat="47.32975" lon="-1.34161">
        <ele>113</ele>
        <time>2022-03-27T11:46:10Z</time>
      </trkpt>
      <trkpt lat="47.32968" lon="-1.34153">
        <ele>113</ele>
        <time>2022-03-27T11:46:11Z</time>
      </trkpt>
      <trkpt lat="47.32961" lon="-1.34143">
        <ele>112</ele>
        <time>2022-03-27T11:46:12Z</time>
      </trkpt>
      <trkpt lat="47.32955" lon="-1.34131">
        <ele>112</ele>
        <time>2022-03-27T11:46:13Z</time>
      </trkpt>
      <trkpt lat="47.3295" lon="-1.34118">
        <ele>111</ele>
        <time>2022-03-27T11:46:14Z</time>
      </trkpt>
      <trkpt lat="47.32945" lon="-1.34106">
        <ele>111</ele>
        <time>2022-03-27T11:46:15Z</time>
      </trkpt>
      <trkpt lat="47.32941" lon="-1.34093">
        <ele>111</ele>
        <time>2022-03-27T11:46:16Z</time>
      </trkpt>
      <trkpt lat="47.32938" lon="-1.3408">
        <ele>110</ele>
        <time>2022-03-27T11:46:17Z</time>
      </trkpt>
      <trkpt lat="47.32936" lon="-1.34066">
        <ele>110</ele>
        <time>2022-03-27T11:46:18Z</time>
      </trkpt>
      <trkpt lat="47.32937" lon="-1.34052">
        <ele>109</ele>
        <time>2022-03-27T11:46:19Z</time>
      </trkpt>
      <trkpt lat="47.32939" lon="-1.34037">
        <ele>108</ele>
        <time>2022-03-27T11:46:20Z</time>
      </trkpt>
      <trkpt lat="47.32943" lon="-1.34023">
        <ele>108</ele>
        <time>2022-03-27T11:46:21Z</time>
      </trkpt>
      <trkpt lat="47.32946" lon="-1.34009">
        <ele>108</ele>
        <time>2022-03-27T11:46:22Z</time>
      </trkpt>
      <trkpt lat="47.32949" lon="-1.33996">
        <ele>107</ele>
        <time>2022-03-27T11:46:23Z</time>
      </trkpt>
      <trkpt lat="47.32954" lon="-1.33983">
        <ele>107</ele>
        <time>2022-03-27T11:46:24Z</time>
      </trkpt>
      <trkpt lat="47.32958" lon="-1.33971">
        <ele>107</ele>
        <time>2022-03-27T11:46:25Z</time>
      </trkpt>
      <trkpt lat="47.32963" lon="-1.33958">
        <ele>106</ele>
        <time>2022-03-27T11:46:26Z</time>
      </trkpt>
      <trkpt lat="47.32968" lon="-1.33945">
        <ele>106</ele>
        <time>2022-03-27T11:46:27Z</time>
      </trkpt>
      <trkpt lat="47.32973" lon="-1.33933">
        <ele>106</ele>
        <time>2022-03-27T11:46:28Z</time>
      </trkpt>
      <trkpt lat="47.32977" lon="-1.33921">
        <ele>105</ele>
        <time>2022-03-27T11:46:29Z</time>
      </trkpt>
      <trkpt lat="47.32982" lon="-1.33909">
        <ele>105</ele>
        <time>2022-03-27T11:46:30Z</time>
      </trkpt>
      <trkpt lat="47.32987" lon="-1.33896">
        <ele>105</ele>
        <time>2022-03-27T11:46:31Z</time>
      </trkpt>
      <trkpt lat="47.32992" lon="-1.33884">
        <ele>105</ele>
        <time>2022-03-27T11:46:32Z</time>
      </trkpt>
      <trkpt lat="47.32997" lon="-1.33872">
        <ele>104</ele>
        <time>2022-03-27T11:46:33Z</time>
      </trkpt>
      <trkpt lat="47.33002" lon="-1.3386">
        <ele>103</ele>
        <time>2022-03-27T11:46:34Z</time>
      </trkpt>
      <trkpt lat="47.33007" lon="-1.33848">
        <ele>103</ele>
        <time>2022-03-27T11:46:35Z</time>
      </trkpt>
      <trkpt lat="47.33011" lon="-1.33835">
        <ele>102</ele>
        <time>2022-03-27T11:46:36Z</time>
      </trkpt>
      <trkpt lat="47.33016" lon="-1.33823">
        <ele>102</ele>
        <time>2022-03-27T11:46:37Z</time>
      </trkpt>
      <trkpt lat="47.33021" lon="-1.33811">
        <ele>101</ele>
        <time>2022-03-27T11:46:38Z</time>
      </trkpt>
      <trkpt lat="47.33026" lon="-1.33799">
        <ele>100</ele>
        <time>2022-03-27T11:46:39Z</time>
      </trkpt>
      <trkpt lat="47.3303" lon="-1.33787">
        <ele>100</ele>
        <time>2022-03-27T11:46:40Z</time>
      </trkpt>
      <trkpt lat="47.33036" lon="-1.33776">
        <ele>99</ele>
        <time>2022-03-27T11:46:41Z</time>
      </trkpt>
      <trkpt lat="47.33041" lon="-1.33765">
        <ele>99</ele>
        <time>2022-03-27T11:46:42Z</time>
      </trkpt>
      <trkpt lat="47.33046" lon="-1.33754">
        <ele>99</ele>
        <time>2022-03-27T11:46:43Z</time>
      </trkpt>
      <trkpt lat="47.33052" lon="-1.33743">
        <ele>98</ele>
        <time>2022-03-27T11:46:44Z</time>
      </trkpt>
      <trkpt lat="47.33058" lon="-1.33732">
        <ele>98</ele>
        <time>2022-03-27T11:46:45Z</time>
      </trkpt>
      <trkpt lat="47.33064" lon="-1.33722">
        <ele>98</ele>
        <time>2022-03-27T11:46:46Z</time>
      </trkpt>
      <trkpt lat="47.33069" lon="-1.33711">
        <ele>97</ele>
        <time>2022-03-27T11:46:47Z</time>
      </trkpt>
      <trkpt lat="47.33075" lon="-1.33699">
        <ele>97</ele>
        <time>2022-03-27T11:46:48Z</time>
      </trkpt>
      <trkpt lat="47.3308" lon="-1.33687">
        <ele>96</ele>
        <time>2022-03-27T11:46:49Z</time>
      </trkpt>
      <trkpt lat="47.33085" lon="-1.33674">
        <ele>96</ele>
        <time>2022-03-27T11:46:50Z</time>
      </trkpt>
      <trkpt lat="47.33089" lon="-1.33661">
        <ele>95</ele>
        <time>2022-03-27T11:46:51Z</time>
      </trkpt>
      <trkpt lat="47.33093" lon="-1.33648">
        <ele>95</ele>
        <time>2022-03-27T11:46:52Z</time>
      </trkpt>
      <trkpt lat="47.33096" lon="-1.33635">
        <ele>94</ele>
        <time>2022-03-27T11:46:53Z</time>
      </trkpt>
      <trkpt lat="47.331" lon="-1.33621">
        <ele>93</ele>
        <time>2022-03-27T11:46:54Z</time>
      </trkpt>
      <trkpt lat="47.33104" lon="-1.33608">
        <ele>92</ele>
        <time>2022-03-27T11:46:55Z</time>
      </trkpt>
      <trkpt lat="47.33108" lon="-1.33594">
        <ele>92</ele>
        <time>2022-03-27T11:46:56Z</time>
      </trkpt>
      <trkpt lat="47.33112" lon="-1.3358">
        <ele>91</ele>
        <time>2022-03-27T11:46:57Z</time>
      </trkpt>
      <trkpt lat="47.33116" lon="-1.33566">
        <ele>91</ele>
        <time>2022-03-27T11:46:58Z</time>
      </trkpt>
      <trkpt lat="47.33119" lon="-1.33552">
        <ele>90</ele>
        <time>2022-03-27T11:46:59Z</time>
      </trkpt>
      <trkpt lat="47.33122" lon="-1.33538">
        <ele>89</ele>
        <time>2022-03-27T11:47:00Z</time>
      </trkpt>
      <trkpt lat="47.33123" lon="-1.33523">
        <ele>88</ele>
        <time>2022-03-27T11:47:01Z</time>
      </trkpt>
      <trkpt lat="47.33123" lon="-1.33508">
        <ele>88</ele>
        <time>2022-03-27T11:47:02Z</time>
      </trkpt>
      <trkpt lat="47.3312" lon="-1.33494">
        <ele>87</ele>
        <time>2022-03-27T11:47:03Z</time>
      </trkpt>
      <trkpt lat="47.33115" lon="-1.33481">
        <ele>87</ele>
        <time>2022-03-27T11:47:04Z</time>
      </trkpt>
      <trkpt lat="47.33108" lon="-1.33469">
        <ele>87</ele>
        <time>2022-03-27T11:47:05Z</time>
      </trkpt>
      <trkpt lat="47.33102" lon="-1.33458">
        <ele>87</ele>
        <time>2022-03-27T11:47:06Z</time>
      </trkpt>
      <trkpt lat="47.33094" lon="-1.33448">
        <ele>86</ele>
        <time>2022-03-27T11:47:07Z</time>
      </trkpt>
      <trkpt lat="47.33086" lon="-1.3344">
        <ele>86</ele>
        <time>2022-03-27T11:47:08Z</time>
      </trkpt>
      <trkpt lat="47.33078" lon="-1.33432">
        <ele>85</ele>
        <time>2022-03-27T11:47:09Z</time>
      </trkpt>
      <trkpt lat="47.33071" lon="-1.33423">
        <ele>85</ele>
        <time>2022-03-27T11:47:10Z</time>
      </trkpt>
      <trkpt lat="47.33063" lon="-1.33416">
        <ele>84</ele>
        <time>2022-03-27T11:47:11Z</time>
      </trkpt>
      <trkpt lat="47.33055" lon="-1.33408">
        <ele>83</ele>
        <time>2022-03-27T11:47:12Z</time>
      </trkpt>
      <trkpt lat="47.33048" lon="-1.33399">
        <ele>83</ele>
        <time>2022-03-27T11:47:13Z</time>
      </trkpt>
      <trkpt lat="47.3304" lon="-1.33391">
        <ele>83</ele>
        <time>2022-03-27T11:47:14Z</time>
      </trkpt>
      <trkpt lat="47.33032" lon="-1.33383">
        <ele>83</ele>
        <time>2022-03-27T11:47:15Z</time>
      </trkpt>
      <trkpt lat="47.33025" lon="-1.33375">
        <ele>83</ele>
        <time>2022-03-27T11:47:16Z</time>
      </trkpt>
      <trkpt lat="47.33017" lon="-1.33367">
        <ele>83</ele>
        <time>2022-03-27T11:47:17Z</time>
      </trkpt>
      <trkpt lat="47.3301" lon="-1.33359">
        <ele>83</ele>
        <time>2022-03-27T11:47:18Z</time>
      </trkpt>
      <trkpt lat="47.33002" lon="-1.33351">
        <ele>83</ele>
        <time>2022-03-27T11:47:19Z</time>
      </trkpt>
      <trkpt lat="47.32995" lon="-1.33342">
        <ele>83</ele>
        <time>2022-03-27T11:47:20Z</time>
      </trkpt>
      <trkpt lat="47.32987" lon="-1.33334">
        <ele>83</ele>
        <time>2022-03-27T11:47:21Z</time>
      </trkpt>
      <trkpt lat="47.3298" lon="-1.33325">
        <ele>83</ele>
        <time>2022-03-27T11:47:22Z</time>
      </trkpt>
      <trkpt lat="47.32973" lon="-1.33315">
        <ele>82</ele>
        <time>2022-03-27T11:47:23Z</time>
      </trkpt>
      <trkpt lat="47.32965" lon="-1.33306">
        <ele>81</ele>
        <time>2022-03-27T11:47:24Z</time>
      </trkpt>
      <trkpt lat="47.32958" lon="-1.33298">
        <ele>81</ele>
        <time>2022-03-27T11:47:25Z</time>
      </trkpt>
      <trkpt lat="47.32951" lon="-1.3329">
        <ele>81</ele>
        <time>2022-03-27T11:47:26Z</time>
      </trkpt>
      <trkpt lat="47.32943" lon="-1.33281">
        <ele>80</ele>
        <time>2022-03-27T11:47:27Z</time>
      </trkpt>
      <trkpt lat="47.32936" lon="-1.33273">
        <ele>80</ele>
        <time>2022-03-27T11:47:28Z</time>
      </trkpt>
      <trkpt lat="47.32929" lon="-1.33263">
        <ele>79</ele>
        <time>2022-03-27T11:47:29Z</time>
      </trkpt>
      <trkpt lat="47.3292" lon="-1.33254">
        <ele>78</ele>
        <time>2022-03-27T11:47:30Z</time>
      </trkpt>
      <trkpt lat="47.32912" lon="-1.33244">
        <ele>77</ele>
        <time>2022-03-27T11:47:31Z</time>
      </trkpt>
      <trkpt lat="47.32904" lon="-1.33235">
        <ele>76</ele>
        <time>2022-03-27T11:47:32Z</time>
      </trkpt>
      <trkpt lat="47.32895" lon="-1.33227">
        <ele>75</ele>
        <time>2022-03-27T11:47:33Z</time>
      </trkpt>
      <trkpt lat="47.32887" lon="-1.33218">
        <ele>75</ele>
        <time>2022-03-27T11:47:34Z</time>
      </trkpt>
      <trkpt lat="47.32878" lon="-1.3321">
        <ele>74</ele>
        <time>2022-03-27T11:47:35Z</time>
      </trkpt>
      <trkpt lat="47.32869" lon="-1.33202">
        <ele>74</ele>
        <time>2022-03-27T11:47:36Z</time>
      </trkpt>
      <trkpt lat="47.3286" lon="-1.33196">
        <ele>73</ele>
        <time>2022-03-27T11:47:37Z</time>
      </trkpt>
      <trkpt lat="47.32852" lon="-1.33189">
        <ele>73</ele>
        <time>2022-03-27T11:47:38Z</time>
      </trkpt>
      <trkpt lat="47.32843" lon="-1.33182">
        <ele>73</ele>
        <time>2022-03-27T11:47:39Z</time>
      </trkpt>
      <trkpt lat="47.32835" lon="-1.33175">
        <ele>72</ele>
        <time>2022-03-27T11:47:40Z</time>
      </trkpt>
      <trkpt lat="47.32826" lon="-1.33168">
        <ele>72</ele>
        <time>2022-03-27T11:47:41Z</time>
      </trkpt>
      <trkpt lat="47.32818" lon="-1.33162">
        <ele>71</ele>
        <time>2022-03-27T11:47:42Z</time>
      </trkpt>
      <trkpt lat="47.3281" lon="-1.33155">
        <ele>71</ele>
        <time>2022-03-27T11:47:43Z</time>
      </trkpt>
      <trkpt lat="47.32802" lon="-1.33149">
        <ele>70</ele>
        <time>2022-03-27T11:47:44Z</time>
      </trkpt>
      <trkpt lat="47.32794" lon="-1.33142">
        <ele>70</ele>
        <time>2022-03-27T11:47:45Z</time>
      </trkpt>
      <trkpt lat="47.32779" lon="-1.33129">
        <ele>69</ele>
        <time>2022-03-27T11:47:47Z</time>
      </trkpt>
      <trkpt lat="47.32764" lon="-1.33114">
        <ele>68</ele>
        <time>2022-03-27T11:47:49Z</time>
      </trkpt>
      <trkpt lat="47.3275" lon="-1.33099">
        <ele>67</ele>
        <time>2022-03-27T11:47:51Z</time>
      </trkpt>
      <trkpt lat="47.32735" lon="-1.33083">
        <ele>65</ele>
        <time>2022-03-27T11:47:53Z</time>
      </trkpt>
      <trkpt lat="47.32728" lon="-1.33076">
        <ele>64</ele>
        <time>2022-03-27T11:47:54Z</time>
      </trkpt>
      <trkpt lat="47.3272" lon="-1.33067">
        <ele>64</ele>
        <time>2022-03-27T11:47:55Z</time>
      </trkpt>
      <trkpt lat="47.32712" lon="-1.3306">
        <ele>63</ele>
        <time>2022-03-27T11:47:56Z</time>
      </trkpt>
      <trkpt lat="47.32704" lon="-1.33052">
        <ele>61</ele>
        <time>2022-03-27T11:47:57Z</time>
      </trkpt>
      <trkpt lat="47.32696" lon="-1.33045">
        <ele>61</ele>
        <time>2022-03-27T11:47:58Z</time>
      </trkpt>
      <trkpt lat="47.32688" lon="-1.33038">
        <ele>61</ele>
        <time>2022-03-27T11:47:59Z</time>
      </trkpt>
      <trkpt lat="47.3268" lon="-1.33031">
        <ele>60</ele>
        <time>2022-03-27T11:48:00Z</time>
      </trkpt>
      <trkpt lat="47.32672" lon="-1.33024">
        <ele>60</ele>
        <time>2022-03-27T11:48:01Z</time>
      </trkpt>
      <trkpt lat="47.32658" lon="-1.3301">
        <ele>59</ele>
        <time>2022-03-27T11:48:03Z</time>
      </trkpt>
      <trkpt lat="47.32645" lon="-1.32994">
        <ele>58</ele>
        <time>2022-03-27T11:48:05Z</time>
      </trkpt>
      <trkpt lat="47.32635" lon="-1.32979">
        <ele>57</ele>
        <time>2022-03-27T11:48:07Z</time>
      </trkpt>
      <trkpt lat="47.32627" lon="-1.32965">
        <ele>55</ele>
        <time>2022-03-27T11:48:09Z</time>
      </trkpt>
      <trkpt lat="47.32618" lon="-1.32954">
        <ele>55</ele>
        <time>2022-03-27T11:48:11Z</time>
      </trkpt>
      <trkpt lat="47.32607" lon="-1.3296">
        <ele>55</ele>
        <time>2022-03-27T11:48:14Z</time>
      </trkpt>
      <trkpt lat="47.32597" lon="-1.32974">
        <ele>54</ele>
        <time>2022-03-27T11:48:17Z</time>
      </trkpt>
      <trkpt lat="47.3259" lon="-1.32985">
        <ele>54</ele>
        <time>2022-03-27T11:48:19Z</time>
      </trkpt>
      <trkpt lat="47.32583" lon="-1.32995">
        <ele>56</ele>
        <time>2022-03-27T11:48:21Z</time>
      </trkpt>
      <trkpt lat="47.32575" lon="-1.33004">
        <ele>56</ele>
        <time>2022-03-27T11:48:23Z</time>
      </trkpt>
      <trkpt lat="47.32566" lon="-1.33014">
        <ele>56</ele>
        <time>2022-03-27T11:48:25Z</time>
      </trkpt>
      <trkpt lat="47.32557" lon="-1.33023">
        <ele>56</ele>
        <time>2022-03-27T11:48:27Z</time>
      </trkpt>
      <trkpt lat="47.32548" lon="-1.3303">
        <ele>56</ele>
        <time>2022-03-27T11:48:29Z</time>
      </trkpt>
      <trkpt lat="47.32538" lon="-1.33039">
        <ele>56</ele>
        <time>2022-03-27T11:48:31Z</time>
      </trkpt>
      <trkpt lat="47.32527" lon="-1.33049">
        <ele>56</ele>
        <time>2022-03-27T11:48:33Z</time>
      </trkpt>
      <trkpt lat="47.32516" lon="-1.3306">
        <ele>56</ele>
        <time>2022-03-27T11:48:35Z</time>
      </trkpt>
      <trkpt lat="47.32506" lon="-1.33071">
        <ele>57</ele>
        <time>2022-03-27T11:48:37Z</time>
      </trkpt>
      <trkpt lat="47.32495" lon="-1.33081">
        <ele>57</ele>
        <time>2022-03-27T11:48:39Z</time>
      </trkpt>
      <trkpt lat="47.32485" lon="-1.33092">
        <ele>57</ele>
        <time>2022-03-27T11:48:41Z</time>
      </trkpt>
      <trkpt lat="47.32476" lon="-1.33104">
        <ele>57</ele>
        <time>2022-03-27T11:48:43Z</time>
      </trkpt>
      <trkpt lat="47.32466" lon="-1.33115">
        <ele>57</ele>
        <time>2022-03-27T11:48:45Z</time>
      </trkpt>
      <trkpt lat="47.32457" lon="-1.33126">
        <ele>57</ele>
        <time>2022-03-27T11:48:47Z</time>
      </trkpt>
      <trkpt lat="47.3245" lon="-1.33137">
        <ele>58</ele>
        <time>2022-03-27T11:48:49Z</time>
      </trkpt>
      <trkpt lat="47.3244" lon="-1.33141">
        <ele>58</ele>
        <time>2022-03-27T11:48:51Z</time>
      </trkpt>
      <trkpt lat="47.3243" lon="-1.33142">
        <ele>58</ele>
        <time>2022-03-27T11:48:53Z</time>
      </trkpt>
      <trkpt lat="47.32417" lon="-1.33143">
        <ele>57</ele>
        <time>2022-03-27T11:48:56Z</time>
      </trkpt>
      <trkpt lat="47.32408" lon="-1.3315">
        <ele>57</ele>
        <time>2022-03-27T11:48:58Z</time>
      </trkpt>
      <trkpt lat="47.324" lon="-1.33161">
        <ele>59</ele>
        <time>2022-03-27T11:49:00Z</time>
      </trkpt>
      <trkpt lat="47.32392" lon="-1.33175">
        <ele>59</ele>
        <time>2022-03-27T11:49:02Z</time>
      </trkpt>
      <trkpt lat="47.32384" lon="-1.33192">
        <ele>59</ele>
        <time>2022-03-27T11:49:04Z</time>
      </trkpt>
      <trkpt lat="47.32376" lon="-1.33206">
        <ele>58</ele>
        <time>2022-03-27T11:49:06Z</time>
      </trkpt>
      <trkpt lat="47.32369" lon="-1.3322">
        <ele>57</ele>
        <time>2022-03-27T11:49:08Z</time>
      </trkpt>
      <trkpt lat="47.32362" lon="-1.33235">
        <ele>57</ele>
        <time>2022-03-27T11:49:10Z</time>
      </trkpt>
      <trkpt lat="47.32355" lon="-1.3325">
        <ele>57</ele>
        <time>2022-03-27T11:49:12Z</time>
      </trkpt>
      <trkpt lat="47.32348" lon="-1.33267">
        <ele>57</ele>
        <time>2022-03-27T11:49:14Z</time>
      </trkpt>
      <trkpt lat="47.32341" lon="-1.33283">
        <ele>56</ele>
        <time>2022-03-27T11:49:16Z</time>
      </trkpt>
      <trkpt lat="47.32334" lon="-1.33299">
        <ele>55</ele>
        <time>2022-03-27T11:49:18Z</time>
      </trkpt>
      <trkpt lat="47.32327" lon="-1.33315">
        <ele>55</ele>
        <time>2022-03-27T11:49:20Z</time>
      </trkpt>
      <trkpt lat="47.32318" lon="-1.33331">
        <ele>55</ele>
        <time>2022-03-27T11:49:22Z</time>
      </trkpt>
      <trkpt lat="47.32312" lon="-1.33347">
        <ele>55</ele>
        <time>2022-03-27T11:49:24Z</time>
      </trkpt>
      <trkpt lat="47.32305" lon="-1.33362">
        <ele>54</ele>
        <time>2022-03-27T11:49:26Z</time>
      </trkpt>
      <trkpt lat="47.32298" lon="-1.33378">
        <ele>54</ele>
        <time>2022-03-27T11:49:28Z</time>
      </trkpt>
      <trkpt lat="47.32291" lon="-1.33395">
        <ele>54</ele>
        <time>2022-03-27T11:49:30Z</time>
      </trkpt>
      <trkpt lat="47.32284" lon="-1.33411">
        <ele>54</ele>
        <time>2022-03-27T11:49:32Z</time>
      </trkpt>
      <trkpt lat="47.32276" lon="-1.33427">
        <ele>54</ele>
        <time>2022-03-27T11:49:34Z</time>
      </trkpt>
      <trkpt lat="47.32268" lon="-1.33444">
        <ele>54</ele>
        <time>2022-03-27T11:49:36Z</time>
      </trkpt>
      <trkpt lat="47.3226" lon="-1.33462">
        <ele>54</ele>
        <time>2022-03-27T11:49:38Z</time>
      </trkpt>
      <trkpt lat="47.32252" lon="-1.33479">
        <ele>54</ele>
        <time>2022-03-27T11:49:40Z</time>
      </trkpt>
      <trkpt lat="47.32244" lon="-1.33497">
        <ele>54</ele>
        <time>2022-03-27T11:49:42Z</time>
      </trkpt>
      <trkpt lat="47.32236" lon="-1.33514">
        <ele>54</ele>
        <time>2022-03-27T11:49:44Z</time>
      </trkpt>
      <trkpt lat="47.32228" lon="-1.3353">
        <ele>54</ele>
        <time>2022-03-27T11:49:46Z</time>
      </trkpt>
      <trkpt lat="47.32222" lon="-1.33545">
        <ele>54</ele>
        <time>2022-03-27T11:49:48Z</time>
      </trkpt>
      <trkpt lat="47.32219" lon="-1.33558">
        <ele>54</ele>
        <time>2022-03-27T11:49:50Z</time>
      </trkpt>
      <trkpt lat="47.32211" lon="-1.33571">
        <ele>54</ele>
        <time>2022-03-27T11:49:54Z</time>
      </trkpt>
      <trkpt lat="47.32204" lon="-1.33586">
        <ele>54</ele>
        <time>2022-03-27T11:49:57Z</time>
      </trkpt>
      <trkpt lat="47.32199" lon="-1.33599">
        <ele>55</ele>
        <time>2022-03-27T11:49:59Z</time>
      </trkpt>
      <trkpt lat="47.32193" lon="-1.33612">
        <ele>55</ele>
        <time>2022-03-27T11:50:01Z</time>
      </trkpt>
      <trkpt lat="47.32189" lon="-1.33625">
        <ele>55</ele>
        <time>2022-03-27T11:50:03Z</time>
      </trkpt>
      <trkpt lat="47.32183" lon="-1.33637">
        <ele>54</ele>
        <time>2022-03-27T11:50:05Z</time>
      </trkpt>
      <trkpt lat="47.32177" lon="-1.33651">
        <ele>54</ele>
        <time>2022-03-27T11:50:08Z</time>
      </trkpt>
      <trkpt lat="47.32172" lon="-1.33664">
        <ele>54</ele>
        <time>2022-03-27T11:50:10Z</time>
      </trkpt>
      <trkpt lat="47.32166" lon="-1.33679">
        <ele>54</ele>
        <time>2022-03-27T11:50:12Z</time>
      </trkpt>
      <trkpt lat="47.32161" lon="-1.33694">
        <ele>55</ele>
        <time>2022-03-27T11:50:14Z</time>
      </trkpt>
      <trkpt lat="47.32156" lon="-1.33708">
        <ele>55</ele>
        <time>2022-03-27T11:50:16Z</time>
      </trkpt>
      <trkpt lat="47.32151" lon="-1.33723">
        <ele>55</ele>
        <time>2022-03-27T11:50:18Z</time>
      </trkpt>
      <trkpt lat="47.32145" lon="-1.33738">
        <ele>55</ele>
        <time>2022-03-27T11:50:20Z</time>
      </trkpt>
      <trkpt lat="47.32139" lon="-1.33752">
        <ele>55</ele>
        <time>2022-03-27T11:50:22Z</time>
      </trkpt>
      <trkpt lat="47.32133" lon="-1.33767">
        <ele>55</ele>
        <time>2022-03-27T11:50:24Z</time>
      </trkpt>
      <trkpt lat="47.32126" lon="-1.33781">
        <ele>55</ele>
        <time>2022-03-27T11:50:26Z</time>
      </trkpt>
      <trkpt lat="47.32118" lon="-1.33796">
        <ele>54</ele>
        <time>2022-03-27T11:50:28Z</time>
      </trkpt>
      <trkpt lat="47.32112" lon="-1.33811">
        <ele>54</ele>
        <time>2022-03-27T11:50:30Z</time>
      </trkpt>
      <trkpt lat="47.32105" lon="-1.33826">
        <ele>55</ele>
        <time>2022-03-27T11:50:32Z</time>
      </trkpt>
      <trkpt lat="47.32098" lon="-1.33841">
        <ele>54</ele>
        <time>2022-03-27T11:50:34Z</time>
      </trkpt>
      <trkpt lat="47.32091" lon="-1.33855">
        <ele>54</ele>
        <time>2022-03-27T11:50:36Z</time>
      </trkpt>
      <trkpt lat="47.32084" lon="-1.33869">
        <ele>54</ele>
        <time>2022-03-27T11:50:38Z</time>
      </trkpt>
      <trkpt lat="47.32077" lon="-1.33884">
        <ele>54</ele>
        <time>2022-03-27T11:50:40Z</time>
      </trkpt>
      <trkpt lat="47.3207" lon="-1.33898">
        <ele>53</ele>
        <time>2022-03-27T11:50:42Z</time>
      </trkpt>
      <trkpt lat="47.32061" lon="-1.33911">
        <ele>53</ele>
        <time>2022-03-27T11:50:44Z</time>
      </trkpt>
      <trkpt lat="47.32053" lon="-1.33925">
        <ele>53</ele>
        <time>2022-03-27T11:50:46Z</time>
      </trkpt>
      <trkpt lat="47.32046" lon="-1.33939">
        <ele>53</ele>
        <time>2022-03-27T11:50:48Z</time>
      </trkpt>
      <trkpt lat="47.32039" lon="-1.33952">
        <ele>54</ele>
        <time>2022-03-27T11:50:50Z</time>
      </trkpt>
      <trkpt lat="47.32033" lon="-1.33964">
        <ele>55</ele>
        <time>2022-03-27T11:50:52Z</time>
      </trkpt>
      <trkpt lat="47.32027" lon="-1.33975">
        <ele>56</ele>
        <time>2022-03-27T11:50:54Z</time>
      </trkpt>
      <trkpt lat="47.32019" lon="-1.33987">
        <ele>56</ele>
        <time>2022-03-27T11:50:56Z</time>
      </trkpt>
      <trkpt lat="47.32011" lon="-1.33998">
        <ele>56</ele>
        <time>2022-03-27T11:50:58Z</time>
      </trkpt>
      <trkpt lat="47.32004" lon="-1.3401">
        <ele>56</ele>
        <time>2022-03-27T11:51:00Z</time>
      </trkpt>
      <trkpt lat="47.31997" lon="-1.34021">
        <ele>57</ele>
        <time>2022-03-27T11:51:02Z</time>
      </trkpt>
      <trkpt lat="47.3199" lon="-1.34032">
        <ele>57</ele>
        <time>2022-03-27T11:51:04Z</time>
      </trkpt>
      <trkpt lat="47.31983" lon="-1.34043">
        <ele>57</ele>
        <time>2022-03-27T11:51:06Z</time>
      </trkpt>
      <trkpt lat="47.31975" lon="-1.34055">
        <ele>57</ele>
        <time>2022-03-27T11:51:08Z</time>
      </trkpt>
      <trkpt lat="47.31967" lon="-1.34068">
        <ele>57</ele>
        <time>2022-03-27T11:51:10Z</time>
      </trkpt>
      <trkpt lat="47.31959" lon="-1.34081">
        <ele>57</ele>
        <time>2022-03-27T11:51:12Z</time>
      </trkpt>
      <trkpt lat="47.31951" lon="-1.34094">
        <ele>57</ele>
        <time>2022-03-27T11:51:14Z</time>
      </trkpt>
      <trkpt lat="47.31943" lon="-1.34107">
        <ele>58</ele>
        <time>2022-03-27T11:51:16Z</time>
      </trkpt>
      <trkpt lat="47.31935" lon="-1.3412">
        <ele>58</ele>
        <time>2022-03-27T11:51:18Z</time>
      </trkpt>
      <trkpt lat="47.31927" lon="-1.34131">
        <ele>58</ele>
        <time>2022-03-27T11:51:20Z</time>
      </trkpt>
      <trkpt lat="47.31919" lon="-1.34144">
        <ele>58</ele>
        <time>2022-03-27T11:51:22Z</time>
      </trkpt>
      <trkpt lat="47.31911" lon="-1.34156">
        <ele>58</ele>
        <time>2022-03-27T11:51:24Z</time>
      </trkpt>
      <trkpt lat="47.31902" lon="-1.34169">
        <ele>57</ele>
        <time>2022-03-27T11:51:26Z</time>
      </trkpt>
      <trkpt lat="47.31892" lon="-1.34183">
        <ele>56</ele>
        <time>2022-03-27T11:51:28Z</time>
      </trkpt>
      <trkpt lat="47.31881" lon="-1.34197">
        <ele>56</ele>
        <time>2022-03-27T11:51:30Z</time>
      </trkpt>
      <trkpt lat="47.31871" lon="-1.3421">
        <ele>56</ele>
        <time>2022-03-27T11:51:32Z</time>
      </trkpt>
      <trkpt lat="47.31862" lon="-1.34224">
        <ele>56</ele>
        <time>2022-03-27T11:51:34Z</time>
      </trkpt>
      <trkpt lat="47.31854" lon="-1.34238">
        <ele>56</ele>
        <time>2022-03-27T11:51:36Z</time>
      </trkpt>
      <trkpt lat="47.31846" lon="-1.3425">
        <ele>56</ele>
        <time>2022-03-27T11:51:38Z</time>
      </trkpt>
      <trkpt lat="47.31838" lon="-1.34264">
        <ele>56</ele>
        <time>2022-03-27T11:51:40Z</time>
      </trkpt>
      <trkpt lat="47.3183" lon="-1.34277">
        <ele>56</ele>
        <time>2022-03-27T11:51:42Z</time>
      </trkpt>
      <trkpt lat="47.31822" lon="-1.3429">
        <ele>56</ele>
        <time>2022-03-27T11:51:44Z</time>
      </trkpt>
      <trkpt lat="47.31813" lon="-1.34303">
        <ele>56</ele>
        <time>2022-03-27T11:51:46Z</time>
      </trkpt>
      <trkpt lat="47.31805" lon="-1.34316">
        <ele>56</ele>
        <time>2022-03-27T11:51:48Z</time>
      </trkpt>
      <trkpt lat="47.31797" lon="-1.3433">
        <ele>56</ele>
        <time>2022-03-27T11:51:50Z</time>
      </trkpt>
      <trkpt lat="47.31788" lon="-1.34344">
        <ele>55</ele>
        <time>2022-03-27T11:51:52Z</time>
      </trkpt>
      <trkpt lat="47.31779" lon="-1.34356">
        <ele>55</ele>
        <time>2022-03-27T11:51:54Z</time>
      </trkpt>
      <trkpt lat="47.31771" lon="-1.34369">
        <ele>55</ele>
        <time>2022-03-27T11:51:56Z</time>
      </trkpt>
      <trkpt lat="47.31763" lon="-1.34381">
        <ele>56</ele>
        <time>2022-03-27T11:51:58Z</time>
      </trkpt>
      <trkpt lat="47.31755" lon="-1.34395">
        <ele>56</ele>
        <time>2022-03-27T11:52:00Z</time>
      </trkpt>
      <trkpt lat="47.31747" lon="-1.34409">
        <ele>56</ele>
        <time>2022-03-27T11:52:02Z</time>
      </trkpt>
      <trkpt lat="47.31738" lon="-1.34422">
        <ele>55</ele>
        <time>2022-03-27T11:52:04Z</time>
      </trkpt>
      <trkpt lat="47.3173" lon="-1.34435">
        <ele>55</ele>
        <time>2022-03-27T11:52:06Z</time>
      </trkpt>
      <trkpt lat="47.31722" lon="-1.34448">
        <ele>55</ele>
        <time>2022-03-27T11:52:08Z</time>
      </trkpt>
      <trkpt lat="47.31713" lon="-1.34461">
        <ele>55</ele>
        <time>2022-03-27T11:52:10Z</time>
      </trkpt>
      <trkpt lat="47.31705" lon="-1.34474">
        <ele>55</ele>
        <time>2022-03-27T11:52:12Z</time>
      </trkpt>
      <trkpt lat="47.31697" lon="-1.34487">
        <ele>55</ele>
        <time>2022-03-27T11:52:14Z</time>
      </trkpt>
      <trkpt lat="47.31688" lon="-1.345">
        <ele>55</ele>
        <time>2022-03-27T11:52:16Z</time>
      </trkpt>
      <trkpt lat="47.3168" lon="-1.34514">
        <ele>55</ele>
        <time>2022-03-27T11:52:18Z</time>
      </trkpt>
      <trkpt lat="47.31671" lon="-1.34527">
        <ele>55</ele>
        <time>2022-03-27T11:52:20Z</time>
      </trkpt>
      <trkpt lat="47.31662" lon="-1.3454">
        <ele>55</ele>
        <time>2022-03-27T11:52:22Z</time>
      </trkpt>
      <trkpt lat="47.31655" lon="-1.34553">
        <ele>55</ele>
        <time>2022-03-27T11:52:24Z</time>
      </trkpt>
      <trkpt lat="47.31648" lon="-1.34566">
        <ele>55</ele>
        <time>2022-03-27T11:52:26Z</time>
      </trkpt>
      <trkpt lat="47.31641" lon="-1.34578">
        <ele>55</ele>
        <time>2022-03-27T11:52:28Z</time>
      </trkpt>
      <trkpt lat="47.31634" lon="-1.34589">
        <ele>55</ele>
        <time>2022-03-27T11:52:30Z</time>
      </trkpt>
      <trkpt lat="47.31626" lon="-1.34601">
        <ele>54</ele>
        <time>2022-03-27T11:52:32Z</time>
      </trkpt>
      <trkpt lat="47.31618" lon="-1.34614">
        <ele>54</ele>
        <time>2022-03-27T11:52:34Z</time>
      </trkpt>
      <trkpt lat="47.31609" lon="-1.34627">
        <ele>53</ele>
        <time>2022-03-27T11:52:36Z</time>
      </trkpt>
      <trkpt lat="47.31601" lon="-1.3464">
        <ele>54</ele>
        <time>2022-03-27T11:52:38Z</time>
      </trkpt>
      <trkpt lat="47.31593" lon="-1.34652">
        <ele>54</ele>
        <time>2022-03-27T11:52:40Z</time>
      </trkpt>
      <trkpt lat="47.31585" lon="-1.34665">
        <ele>54</ele>
        <time>2022-03-27T11:52:42Z</time>
      </trkpt>
      <trkpt lat="47.31577" lon="-1.34678">
        <ele>54</ele>
        <time>2022-03-27T11:52:44Z</time>
      </trkpt>
      <trkpt lat="47.31568" lon="-1.34691">
        <ele>54</ele>
        <time>2022-03-27T11:52:46Z</time>
      </trkpt>
      <trkpt lat="47.3156" lon="-1.34704">
        <ele>54</ele>
        <time>2022-03-27T11:52:48Z</time>
      </trkpt>
      <trkpt lat="47.31553" lon="-1.34717">
        <ele>55</ele>
        <time>2022-03-27T11:52:50Z</time>
      </trkpt>
      <trkpt lat="47.31545" lon="-1.3473">
        <ele>55</ele>
        <time>2022-03-27T11:52:52Z</time>
      </trkpt>
      <trkpt lat="47.31537" lon="-1.34743">
        <ele>55</ele>
        <time>2022-03-27T11:52:54Z</time>
      </trkpt>
      <trkpt lat="47.31528" lon="-1.34756">
        <ele>55</ele>
        <time>2022-03-27T11:52:56Z</time>
      </trkpt>
      <trkpt lat="47.3152" lon="-1.34769">
        <ele>55</ele>
        <time>2022-03-27T11:52:58Z</time>
      </trkpt>
      <trkpt lat="47.31511" lon="-1.34783">
        <ele>55</ele>
        <time>2022-03-27T11:53:00Z</time>
      </trkpt>
      <trkpt lat="47.31503" lon="-1.34796">
        <ele>55</ele>
        <time>2022-03-27T11:53:02Z</time>
      </trkpt>
      <trkpt lat="47.31494" lon="-1.34809">
        <ele>55</ele>
        <time>2022-03-27T11:53:04Z</time>
      </trkpt>
      <trkpt lat="47.31486" lon="-1.34823">
        <ele>55</ele>
        <time>2022-03-27T11:53:06Z</time>
      </trkpt>
      <trkpt lat="47.31478" lon="-1.34836">
        <ele>55</ele>
        <time>2022-03-27T11:53:08Z</time>
      </trkpt>
      <trkpt lat="47.31469" lon="-1.34849">
        <ele>55</ele>
        <time>2022-03-27T11:53:10Z</time>
      </trkpt>
      <trkpt lat="47.31461" lon="-1.34863">
        <ele>55</ele>
        <time>2022-03-27T11:53:12Z</time>
      </trkpt>
      <trkpt lat="47.31452" lon="-1.34876">
        <ele>55</ele>
        <time>2022-03-27T11:53:14Z</time>
      </trkpt>
      <trkpt lat="47.31444" lon="-1.3489">
        <ele>54</ele>
        <time>2022-03-27T11:53:16Z</time>
      </trkpt>
      <trkpt lat="47.31436" lon="-1.34904">
        <ele>55</ele>
        <time>2022-03-27T11:53:18Z</time>
      </trkpt>
      <trkpt lat="47.31428" lon="-1.34917">
        <ele>55</ele>
        <time>2022-03-27T11:53:20Z</time>
      </trkpt>
      <trkpt lat="47.31419" lon="-1.34931">
        <ele>55</ele>
        <time>2022-03-27T11:53:22Z</time>
      </trkpt>
      <trkpt lat="47.3141" lon="-1.34944">
        <ele>55</ele>
        <time>2022-03-27T11:53:24Z</time>
      </trkpt>
      <trkpt lat="47.31401" lon="-1.34958">
        <ele>55</ele>
        <time>2022-03-27T11:53:26Z</time>
      </trkpt>
      <trkpt lat="47.31392" lon="-1.34971">
        <ele>55</ele>
        <time>2022-03-27T11:53:28Z</time>
      </trkpt>
      <trkpt lat="47.31384" lon="-1.34986">
        <ele>55</ele>
        <time>2022-03-27T11:53:30Z</time>
      </trkpt>
      <trkpt lat="47.31377" lon="-1.34999">
        <ele>55</ele>
        <time>2022-03-27T11:53:32Z</time>
      </trkpt>
      <trkpt lat="47.31369" lon="-1.35013">
        <ele>54</ele>
        <time>2022-03-27T11:53:34Z</time>
      </trkpt>
      <trkpt lat="47.31361" lon="-1.35027">
        <ele>55</ele>
        <time>2022-03-27T11:53:36Z</time>
      </trkpt>
      <trkpt lat="47.31352" lon="-1.3504">
        <ele>55</ele>
        <time>2022-03-27T11:53:38Z</time>
      </trkpt>
      <trkpt lat="47.31345" lon="-1.35053">
        <ele>55</ele>
        <time>2022-03-27T11:53:40Z</time>
      </trkpt>
      <trkpt lat="47.31337" lon="-1.35065">
        <ele>55</ele>
        <time>2022-03-27T11:53:42Z</time>
      </trkpt>
      <trkpt lat="47.3133" lon="-1.35078">
        <ele>55</ele>
        <time>2022-03-27T11:53:44Z</time>
      </trkpt>
      <trkpt lat="47.3132" lon="-1.35084">
        <ele>54</ele>
        <time>2022-03-27T11:53:46Z</time>
      </trkpt>
      <trkpt lat="47.31308" lon="-1.35088">
        <ele>54</ele>
        <time>2022-03-27T11:53:48Z</time>
      </trkpt>
      <trkpt lat="47.31298" lon="-1.351">
        <ele>53</ele>
        <time>2022-03-27T11:53:50Z</time>
      </trkpt>
      <trkpt lat="47.31292" lon="-1.35112">
        <ele>54</ele>
        <time>2022-03-27T11:53:52Z</time>
      </trkpt>
      <trkpt lat="47.31286" lon="-1.35125">
        <ele>54</ele>
        <time>2022-03-27T11:53:54Z</time>
      </trkpt>
      <trkpt lat="47.31281" lon="-1.35139">
        <ele>54</ele>
        <time>2022-03-27T11:53:56Z</time>
      </trkpt>
      <trkpt lat="47.31274" lon="-1.35153">
        <ele>54</ele>
        <time>2022-03-27T11:53:58Z</time>
      </trkpt>
      <trkpt lat="47.31266" lon="-1.35167">
        <ele>54</ele>
        <time>2022-03-27T11:54:00Z</time>
      </trkpt>
      <trkpt lat="47.31259" lon="-1.35181">
        <ele>54</ele>
        <time>2022-03-27T11:54:02Z</time>
      </trkpt>
      <trkpt lat="47.31251" lon="-1.35194">
        <ele>54</ele>
        <time>2022-03-27T11:54:04Z</time>
      </trkpt>
      <trkpt lat="47.31243" lon="-1.35207">
        <ele>54</ele>
        <time>2022-03-27T11:54:06Z</time>
      </trkpt>
      <trkpt lat="47.31234" lon="-1.3522">
        <ele>54</ele>
        <time>2022-03-27T11:54:08Z</time>
      </trkpt>
      <trkpt lat="47.31226" lon="-1.35233">
        <ele>55</ele>
        <time>2022-03-27T11:54:10Z</time>
      </trkpt>
      <trkpt lat="47.31218" lon="-1.35246">
        <ele>55</ele>
        <time>2022-03-27T11:54:12Z</time>
      </trkpt>
      <trkpt lat="47.3121" lon="-1.35259">
        <ele>55</ele>
        <time>2022-03-27T11:54:14Z</time>
      </trkpt>
      <trkpt lat="47.31202" lon="-1.35272">
        <ele>55</ele>
        <time>2022-03-27T11:54:16Z</time>
      </trkpt>
      <trkpt lat="47.31194" lon="-1.35285">
        <ele>55</ele>
        <time>2022-03-27T11:54:18Z</time>
      </trkpt>
      <trkpt lat="47.31186" lon="-1.35298">
        <ele>55</ele>
        <time>2022-03-27T11:54:20Z</time>
      </trkpt>
      <trkpt lat="47.31178" lon="-1.35311">
        <ele>55</ele>
        <time>2022-03-27T11:54:22Z</time>
      </trkpt>
      <trkpt lat="47.3117" lon="-1.35324">
        <ele>55</ele>
        <time>2022-03-27T11:54:24Z</time>
      </trkpt>
      <trkpt lat="47.31161" lon="-1.35338">
        <ele>55</ele>
        <time>2022-03-27T11:54:26Z</time>
      </trkpt>
      <trkpt lat="47.31153" lon="-1.35351">
        <ele>55</ele>
        <time>2022-03-27T11:54:28Z</time>
      </trkpt>
      <trkpt lat="47.31145" lon="-1.35364">
        <ele>55</ele>
        <time>2022-03-27T11:54:30Z</time>
      </trkpt>
      <trkpt lat="47.31137" lon="-1.35377">
        <ele>55</ele>
        <time>2022-03-27T11:54:32Z</time>
      </trkpt>
      <trkpt lat="47.31129" lon="-1.3539">
        <ele>55</ele>
        <time>2022-03-27T11:54:34Z</time>
      </trkpt>
      <trkpt lat="47.3112" lon="-1.35403">
        <ele>54</ele>
        <time>2022-03-27T11:54:36Z</time>
      </trkpt>
      <trkpt lat="47.31111" lon="-1.35416">
        <ele>55</ele>
        <time>2022-03-27T11:54:38Z</time>
      </trkpt>
      <trkpt lat="47.31102" lon="-1.35428">
        <ele>55</ele>
        <time>2022-03-27T11:54:40Z</time>
      </trkpt>
      <trkpt lat="47.31093" lon="-1.35441">
        <ele>55</ele>
        <time>2022-03-27T11:54:42Z</time>
      </trkpt>
      <trkpt lat="47.31084" lon="-1.35453">
        <ele>56</ele>
        <time>2022-03-27T11:54:44Z</time>
      </trkpt>
      <trkpt lat="47.31075" lon="-1.35465">
        <ele>55</ele>
        <time>2022-03-27T11:54:46Z</time>
      </trkpt>
      <trkpt lat="47.31065" lon="-1.35477">
        <ele>56</ele>
        <time>2022-03-27T11:54:48Z</time>
      </trkpt>
      <trkpt lat="47.31055" lon="-1.35489">
        <ele>56</ele>
        <time>2022-03-27T11:54:50Z</time>
      </trkpt>
      <trkpt lat="47.31045" lon="-1.35501">
        <ele>56</ele>
        <time>2022-03-27T11:54:52Z</time>
      </trkpt>
      <trkpt lat="47.31035" lon="-1.35512">
        <ele>56</ele>
        <time>2022-03-27T11:54:54Z</time>
      </trkpt>
      <trkpt lat="47.31025" lon="-1.35524">
        <ele>56</ele>
        <time>2022-03-27T11:54:56Z</time>
      </trkpt>
      <trkpt lat="47.31015" lon="-1.35535">
        <ele>56</ele>
        <time>2022-03-27T11:54:58Z</time>
      </trkpt>
      <trkpt lat="47.31005" lon="-1.35547">
        <ele>56</ele>
        <time>2022-03-27T11:55:00Z</time>
      </trkpt>
      <trkpt lat="47.30995" lon="-1.35558">
        <ele>56</ele>
        <time>2022-03-27T11:55:02Z</time>
      </trkpt>
      <trkpt lat="47.30986" lon="-1.35569">
        <ele>57</ele>
        <time>2022-03-27T11:55:04Z</time>
      </trkpt>
      <trkpt lat="47.30975" lon="-1.3558">
        <ele>56</ele>
        <time>2022-03-27T11:55:06Z</time>
      </trkpt>
      <trkpt lat="47.30965" lon="-1.35592">
        <ele>56</ele>
        <time>2022-03-27T11:55:08Z</time>
      </trkpt>
      <trkpt lat="47.30955" lon="-1.35604">
        <ele>56</ele>
        <time>2022-03-27T11:55:10Z</time>
      </trkpt>
      <trkpt lat="47.30946" lon="-1.35615">
        <ele>56</ele>
        <time>2022-03-27T11:55:12Z</time>
      </trkpt>
      <trkpt lat="47.30937" lon="-1.35627">
        <ele>56</ele>
        <time>2022-03-27T11:55:14Z</time>
      </trkpt>
      <trkpt lat="47.30926" lon="-1.35638">
        <ele>56</ele>
        <time>2022-03-27T11:55:16Z</time>
      </trkpt>
      <trkpt lat="47.30917" lon="-1.35649">
        <ele>56</ele>
        <time>2022-03-27T11:55:18Z</time>
      </trkpt>
      <trkpt lat="47.30907" lon="-1.35661">
        <ele>56</ele>
        <time>2022-03-27T11:55:20Z</time>
      </trkpt>
      <trkpt lat="47.30897" lon="-1.35672">
        <ele>56</ele>
        <time>2022-03-27T11:55:22Z</time>
      </trkpt>
      <trkpt lat="47.30887" lon="-1.35684">
        <ele>56</ele>
        <time>2022-03-27T11:55:24Z</time>
      </trkpt>
      <trkpt lat="47.30877" lon="-1.35695">
        <ele>56</ele>
        <time>2022-03-27T11:55:26Z</time>
      </trkpt>
      <trkpt lat="47.30866" lon="-1.35707">
        <ele>56</ele>
        <time>2022-03-27T11:55:28Z</time>
      </trkpt>
      <trkpt lat="47.30856" lon="-1.35719">
        <ele>56</ele>
        <time>2022-03-27T11:55:30Z</time>
      </trkpt>
      <trkpt lat="47.30846" lon="-1.35731">
        <ele>55</ele>
        <time>2022-03-27T11:55:32Z</time>
      </trkpt>
      <trkpt lat="47.30836" lon="-1.35743">
        <ele>55</ele>
        <time>2022-03-27T11:55:34Z</time>
      </trkpt>
      <trkpt lat="47.30826" lon="-1.35754">
        <ele>55</ele>
        <time>2022-03-27T11:55:36Z</time>
      </trkpt>
      <trkpt lat="47.30817" lon="-1.35766">
        <ele>55</ele>
        <time>2022-03-27T11:55:38Z</time>
      </trkpt>
      <trkpt lat="47.30807" lon="-1.35778">
        <ele>56</ele>
        <time>2022-03-27T11:55:40Z</time>
      </trkpt>
      <trkpt lat="47.30797" lon="-1.35789">
        <ele>56</ele>
        <time>2022-03-27T11:55:42Z</time>
      </trkpt>
      <trkpt lat="47.30787" lon="-1.35801">
        <ele>56</ele>
        <time>2022-03-27T11:55:44Z</time>
      </trkpt>
      <trkpt lat="47.30777" lon="-1.35813">
        <ele>56</ele>
        <time>2022-03-27T11:55:46Z</time>
      </trkpt>
      <trkpt lat="47.30767" lon="-1.35824">
        <ele>55</ele>
        <time>2022-03-27T11:55:48Z</time>
      </trkpt>
      <trkpt lat="47.30757" lon="-1.35835">
        <ele>55</ele>
        <time>2022-03-27T11:55:50Z</time>
      </trkpt>
      <trkpt lat="47.30748" lon="-1.35846">
        <ele>56</ele>
        <time>2022-03-27T11:55:52Z</time>
      </trkpt>
      <trkpt lat="47.30738" lon="-1.35857">
        <ele>56</ele>
        <time>2022-03-27T11:55:54Z</time>
      </trkpt>
      <trkpt lat="47.30729" lon="-1.35867">
        <ele>56</ele>
        <time>2022-03-27T11:55:56Z</time>
      </trkpt>
      <trkpt lat="47.30719" lon="-1.35879">
        <ele>55</ele>
        <time>2022-03-27T11:55:58Z</time>
      </trkpt>
      <trkpt lat="47.3071" lon="-1.3589">
        <ele>55</ele>
        <time>2022-03-27T11:56:00Z</time>
      </trkpt>
      <trkpt lat="47.307" lon="-1.35901">
        <ele>55</ele>
        <time>2022-03-27T11:56:02Z</time>
      </trkpt>
      <trkpt lat="47.3069" lon="-1.35913">
        <ele>55</ele>
        <time>2022-03-27T11:56:04Z</time>
      </trkpt>
      <trkpt lat="47.3068" lon="-1.35925">
        <ele>55</ele>
        <time>2022-03-27T11:56:06Z</time>
      </trkpt>
      <trkpt lat="47.3067" lon="-1.35936">
        <ele>55</ele>
        <time>2022-03-27T11:56:08Z</time>
      </trkpt>
      <trkpt lat="47.3066" lon="-1.35948">
        <ele>55</ele>
        <time>2022-03-27T11:56:10Z</time>
      </trkpt>
      <trkpt lat="47.3065" lon="-1.35959">
        <ele>55</ele>
        <time>2022-03-27T11:56:12Z</time>
      </trkpt>
      <trkpt lat="47.3064" lon="-1.35971">
        <ele>55</ele>
        <time>2022-03-27T11:56:14Z</time>
      </trkpt>
      <trkpt lat="47.30631" lon="-1.35983">
        <ele>55</ele>
        <time>2022-03-27T11:56:16Z</time>
      </trkpt>
      <trkpt lat="47.30621" lon="-1.35994">
        <ele>55</ele>
        <time>2022-03-27T11:56:18Z</time>
      </trkpt>
      <trkpt lat="47.30612" lon="-1.36004">
        <ele>55</ele>
        <time>2022-03-27T11:56:20Z</time>
      </trkpt>
      <trkpt lat="47.30603" lon="-1.36014">
        <ele>54</ele>
        <time>2022-03-27T11:56:22Z</time>
      </trkpt>
      <trkpt lat="47.30592" lon="-1.36023">
        <ele>54</ele>
        <time>2022-03-27T11:56:24Z</time>
      </trkpt>
      <trkpt lat="47.30585" lon="-1.36038">
        <ele>55</ele>
        <time>2022-03-27T11:56:27Z</time>
      </trkpt>
      <trkpt lat="47.30576" lon="-1.36053">
        <ele>55</ele>
        <time>2022-03-27T11:56:30Z</time>
      </trkpt>
      <trkpt lat="47.30568" lon="-1.36065">
        <ele>55</ele>
        <time>2022-03-27T11:56:32Z</time>
      </trkpt>
      <trkpt lat="47.3056" lon="-1.36076">
        <ele>54</ele>
        <time>2022-03-27T11:56:34Z</time>
      </trkpt>
      <trkpt lat="47.30551" lon="-1.36089">
        <ele>54</ele>
        <time>2022-03-27T11:56:36Z</time>
      </trkpt>
      <trkpt lat="47.30543" lon="-1.36102">
        <ele>53</ele>
        <time>2022-03-27T11:56:38Z</time>
      </trkpt>
      <trkpt lat="47.30535" lon="-1.36115">
        <ele>54</ele>
        <time>2022-03-27T11:56:40Z</time>
      </trkpt>
      <trkpt lat="47.30527" lon="-1.36128">
        <ele>54</ele>
        <time>2022-03-27T11:56:42Z</time>
      </trkpt>
      <trkpt lat="47.30519" lon="-1.36141">
        <ele>54</ele>
        <time>2022-03-27T11:56:44Z</time>
      </trkpt>
      <trkpt lat="47.30511" lon="-1.36155">
        <ele>54</ele>
        <time>2022-03-27T11:56:46Z</time>
      </trkpt>
      <trkpt lat="47.30502" lon="-1.36169">
        <ele>53</ele>
        <time>2022-03-27T11:56:48Z</time>
      </trkpt>
      <trkpt lat="47.30495" lon="-1.36183">
        <ele>53</ele>
        <time>2022-03-27T11:56:50Z</time>
      </trkpt>
      <trkpt lat="47.30487" lon="-1.36197">
        <ele>53</ele>
        <time>2022-03-27T11:56:52Z</time>
      </trkpt>
      <trkpt lat="47.3048" lon="-1.36212">
        <ele>53</ele>
        <time>2022-03-27T11:56:54Z</time>
      </trkpt>
      <trkpt lat="47.30473" lon="-1.36227">
        <ele>53</ele>
        <time>2022-03-27T11:56:56Z</time>
      </trkpt>
      <trkpt lat="47.30465" lon="-1.36241">
        <ele>54</ele>
        <time>2022-03-27T11:56:58Z</time>
      </trkpt>
      <trkpt lat="47.30459" lon="-1.36256">
        <ele>54</ele>
        <time>2022-03-27T11:57:00Z</time>
      </trkpt>
      <trkpt lat="47.30452" lon="-1.3627">
        <ele>54</ele>
        <time>2022-03-27T11:57:02Z</time>
      </trkpt>
      <trkpt lat="47.30445" lon="-1.36284">
        <ele>54</ele>
        <time>2022-03-27T11:57:04Z</time>
      </trkpt>
      <trkpt lat="47.30438" lon="-1.36299">
        <ele>54</ele>
        <time>2022-03-27T11:57:06Z</time>
      </trkpt>
      <trkpt lat="47.30431" lon="-1.36314">
        <ele>54</ele>
        <time>2022-03-27T11:57:08Z</time>
      </trkpt>
      <trkpt lat="47.30424" lon="-1.36329">
        <ele>54</ele>
        <time>2022-03-27T11:57:10Z</time>
      </trkpt>
      <trkpt lat="47.30417" lon="-1.36343">
        <ele>54</ele>
        <time>2022-03-27T11:57:12Z</time>
      </trkpt>
      <trkpt lat="47.30411" lon="-1.36357">
        <ele>54</ele>
        <time>2022-03-27T11:57:14Z</time>
      </trkpt>
      <trkpt lat="47.30404" lon="-1.36371">
        <ele>54</ele>
        <time>2022-03-27T11:57:16Z</time>
      </trkpt>
      <trkpt lat="47.30396" lon="-1.36386">
        <ele>53</ele>
        <time>2022-03-27T11:57:18Z</time>
      </trkpt>
      <trkpt lat="47.30389" lon="-1.36401">
        <ele>53</ele>
        <time>2022-03-27T11:57:20Z</time>
      </trkpt>
      <trkpt lat="47.30381" lon="-1.36416">
        <ele>54</ele>
        <time>2022-03-27T11:57:22Z</time>
      </trkpt>
      <trkpt lat="47.30374" lon="-1.36432">
        <ele>54</ele>
        <time>2022-03-27T11:57:24Z</time>
      </trkpt>
      <trkpt lat="47.30367" lon="-1.36446">
        <ele>53</ele>
        <time>2022-03-27T11:57:26Z</time>
      </trkpt>
      <trkpt lat="47.3036" lon="-1.36459">
        <ele>54</ele>
        <time>2022-03-27T11:57:28Z</time>
      </trkpt>
      <trkpt lat="47.30354" lon="-1.36474">
        <ele>53</ele>
        <time>2022-03-27T11:57:30Z</time>
      </trkpt>
      <trkpt lat="47.30347" lon="-1.36489">
        <ele>54</ele>
        <time>2022-03-27T11:57:32Z</time>
      </trkpt>
      <trkpt lat="47.3034" lon="-1.36503">
        <ele>53</ele>
        <time>2022-03-27T11:57:34Z</time>
      </trkpt>
      <trkpt lat="47.30333" lon="-1.36518">
        <ele>53</ele>
        <time>2022-03-27T11:57:36Z</time>
      </trkpt>
      <trkpt lat="47.30325" lon="-1.36533">
        <ele>53</ele>
        <time>2022-03-27T11:57:38Z</time>
      </trkpt>
      <trkpt lat="47.30318" lon="-1.36547">
        <ele>53</ele>
        <time>2022-03-27T11:57:40Z</time>
      </trkpt>
      <trkpt lat="47.30311" lon="-1.36562">
        <ele>53</ele>
        <time>2022-03-27T11:57:42Z</time>
      </trkpt>
      <trkpt lat="47.30304" lon="-1.36576">
        <ele>53</ele>
        <time>2022-03-27T11:57:44Z</time>
      </trkpt>
      <trkpt lat="47.30297" lon="-1.3659">
        <ele>53</ele>
        <time>2022-03-27T11:57:46Z</time>
      </trkpt>
      <trkpt lat="47.3029" lon="-1.36605">
        <ele>52</ele>
        <time>2022-03-27T11:57:48Z</time>
      </trkpt>
      <trkpt lat="47.30283" lon="-1.36618">
        <ele>52</ele>
        <time>2022-03-27T11:57:50Z</time>
      </trkpt>
      <trkpt lat="47.30276" lon="-1.36631">
        <ele>52</ele>
        <time>2022-03-27T11:57:52Z</time>
      </trkpt>
      <trkpt lat="47.30269" lon="-1.36646">
        <ele>52</ele>
        <time>2022-03-27T11:57:54Z</time>
      </trkpt>
      <trkpt lat="47.30261" lon="-1.36661">
        <ele>53</ele>
        <time>2022-03-27T11:57:56Z</time>
      </trkpt>
      <trkpt lat="47.30254" lon="-1.36677">
        <ele>54</ele>
        <time>2022-03-27T11:57:58Z</time>
      </trkpt>
      <trkpt lat="47.30247" lon="-1.36692">
        <ele>54</ele>
        <time>2022-03-27T11:58:00Z</time>
      </trkpt>
      <trkpt lat="47.3024" lon="-1.36706">
        <ele>54</ele>
        <time>2022-03-27T11:58:02Z</time>
      </trkpt>
      <trkpt lat="47.30233" lon="-1.3672">
        <ele>54</ele>
        <time>2022-03-27T11:58:04Z</time>
      </trkpt>
      <trkpt lat="47.30226" lon="-1.36735">
        <ele>54</ele>
        <time>2022-03-27T11:58:06Z</time>
      </trkpt>
      <trkpt lat="47.30219" lon="-1.36749">
        <ele>54</ele>
        <time>2022-03-27T11:58:08Z</time>
      </trkpt>
      <trkpt lat="47.30212" lon="-1.36763">
        <ele>54</ele>
        <time>2022-03-27T11:58:10Z</time>
      </trkpt>
      <trkpt lat="47.30205" lon="-1.36778">
        <ele>54</ele>
        <time>2022-03-27T11:58:12Z</time>
      </trkpt>
      <trkpt lat="47.30198" lon="-1.36792">
        <ele>54</ele>
        <time>2022-03-27T11:58:14Z</time>
      </trkpt>
      <trkpt lat="47.30191" lon="-1.36807">
        <ele>54</ele>
        <time>2022-03-27T11:58:16Z</time>
      </trkpt>
      <trkpt lat="47.30184" lon="-1.36821">
        <ele>54</ele>
        <time>2022-03-27T11:58:18Z</time>
      </trkpt>
      <trkpt lat="47.30177" lon="-1.36835">
        <ele>54</ele>
        <time>2022-03-27T11:58:20Z</time>
      </trkpt>
      <trkpt lat="47.3017" lon="-1.3685">
        <ele>54</ele>
        <time>2022-03-27T11:58:22Z</time>
      </trkpt>
      <trkpt lat="47.30163" lon="-1.36864">
        <ele>54</ele>
        <time>2022-03-27T11:58:24Z</time>
      </trkpt>
      <trkpt lat="47.30156" lon="-1.36879">
        <ele>54</ele>
        <time>2022-03-27T11:58:26Z</time>
      </trkpt>
      <trkpt lat="47.30149" lon="-1.36893">
        <ele>54</ele>
        <time>2022-03-27T11:58:28Z</time>
      </trkpt>
      <trkpt lat="47.30142" lon="-1.36908">
        <ele>54</ele>
        <time>2022-03-27T11:58:30Z</time>
      </trkpt>
      <trkpt lat="47.30135" lon="-1.36923">
        <ele>54</ele>
        <time>2022-03-27T11:58:32Z</time>
      </trkpt>
      <trkpt lat="47.30127" lon="-1.36937">
        <ele>55</ele>
        <time>2022-03-27T11:58:34Z</time>
      </trkpt>
      <trkpt lat="47.30122" lon="-1.36952">
        <ele>55</ele>
        <time>2022-03-27T11:58:36Z</time>
      </trkpt>
      <trkpt lat="47.30117" lon="-1.36968">
        <ele>55</ele>
        <time>2022-03-27T11:58:38Z</time>
      </trkpt>
      <trkpt lat="47.3011" lon="-1.36981">
        <ele>55</ele>
        <time>2022-03-27T11:58:40Z</time>
      </trkpt>
      <trkpt lat="47.30104" lon="-1.36995">
        <ele>55</ele>
        <time>2022-03-27T11:58:42Z</time>
      </trkpt>
      <trkpt lat="47.30097" lon="-1.37009">
        <ele>55</ele>
        <time>2022-03-27T11:58:44Z</time>
      </trkpt>
      <trkpt lat="47.30089" lon="-1.37023">
        <ele>55</ele>
        <time>2022-03-27T11:58:46Z</time>
      </trkpt>
      <trkpt lat="47.30082" lon="-1.37037">
        <ele>55</ele>
        <time>2022-03-27T11:58:48Z</time>
      </trkpt>
      <trkpt lat="47.30075" lon="-1.37052">
        <ele>55</ele>
        <time>2022-03-27T11:58:50Z</time>
      </trkpt>
      <trkpt lat="47.30067" lon="-1.37065">
        <ele>55</ele>
        <time>2022-03-27T11:58:52Z</time>
      </trkpt>
      <trkpt lat="47.30059" lon="-1.37079">
        <ele>55</ele>
        <time>2022-03-27T11:58:54Z</time>
      </trkpt>
      <trkpt lat="47.30051" lon="-1.37093">
        <ele>54</ele>
        <time>2022-03-27T11:58:56Z</time>
      </trkpt>
      <trkpt lat="47.30043" lon="-1.37107">
        <ele>54</ele>
        <time>2022-03-27T11:58:58Z</time>
      </trkpt>
      <trkpt lat="47.30035" lon="-1.37119">
        <ele>54</ele>
        <time>2022-03-27T11:59:00Z</time>
      </trkpt>
      <trkpt lat="47.30027" lon="-1.37132">
        <ele>55</ele>
        <time>2022-03-27T11:59:02Z</time>
      </trkpt>
      <trkpt lat="47.30019" lon="-1.37144">
        <ele>55</ele>
        <time>2022-03-27T11:59:04Z</time>
      </trkpt>
      <trkpt lat="47.3001" lon="-1.37158">
        <ele>55</ele>
        <time>2022-03-27T11:59:06Z</time>
      </trkpt>
      <trkpt lat="47.29997" lon="-1.37177">
        <ele>55</ele>
        <time>2022-03-27T11:59:09Z</time>
      </trkpt>
      <trkpt lat="47.29989" lon="-1.37191">
        <ele>55</ele>
        <time>2022-03-27T11:59:11Z</time>
      </trkpt>
      <trkpt lat="47.29981" lon="-1.37204">
        <ele>54</ele>
        <time>2022-03-27T11:59:13Z</time>
      </trkpt>
      <trkpt lat="47.29968" lon="-1.37222">
        <ele>54</ele>
        <time>2022-03-27T11:59:16Z</time>
      </trkpt>
      <trkpt lat="47.2996" lon="-1.37235">
        <ele>54</ele>
        <time>2022-03-27T11:59:18Z</time>
      </trkpt>
      <trkpt lat="47.29948" lon="-1.37254">
        <ele>54</ele>
        <time>2022-03-27T11:59:21Z</time>
      </trkpt>
      <trkpt lat="47.29939" lon="-1.37267">
        <ele>54</ele>
        <time>2022-03-27T11:59:23Z</time>
      </trkpt>
      <trkpt lat="47.29931" lon="-1.37281">
        <ele>54</ele>
        <time>2022-03-27T11:59:25Z</time>
      </trkpt>
      <trkpt lat="47.29922" lon="-1.37294">
        <ele>54</ele>
        <time>2022-03-27T11:59:27Z</time>
      </trkpt>
      <trkpt lat="47.29913" lon="-1.37307">
        <ele>53</ele>
        <time>2022-03-27T11:59:29Z</time>
      </trkpt>
      <trkpt lat="47.29905" lon="-1.37322">
        <ele>53</ele>
        <time>2022-03-27T11:59:31Z</time>
      </trkpt>
      <trkpt lat="47.29896" lon="-1.37335">
        <ele>53</ele>
        <time>2022-03-27T11:59:33Z</time>
      </trkpt>
      <trkpt lat="47.29887" lon="-1.37349">
        <ele>53</ele>
        <time>2022-03-27T11:59:35Z</time>
      </trkpt>
      <trkpt lat="47.29879" lon="-1.37363">
        <ele>54</ele>
        <time>2022-03-27T11:59:37Z</time>
      </trkpt>
      <trkpt lat="47.2987" lon="-1.37377">
        <ele>54</ele>
        <time>2022-03-27T11:59:39Z</time>
      </trkpt>
      <trkpt lat="47.29861" lon="-1.3739">
        <ele>54</ele>
        <time>2022-03-27T11:59:41Z</time>
      </trkpt>
      <trkpt lat="47.29852" lon="-1.37403">
        <ele>54</ele>
        <time>2022-03-27T11:59:43Z</time>
      </trkpt>
      <trkpt lat="47.29843" lon="-1.37416">
        <ele>54</ele>
        <time>2022-03-27T11:59:45Z</time>
      </trkpt>
      <trkpt lat="47.29835" lon="-1.3743">
        <ele>53</ele>
        <time>2022-03-27T11:59:47Z</time>
      </trkpt>
      <trkpt lat="47.29827" lon="-1.37444">
        <ele>54</ele>
        <time>2022-03-27T11:59:49Z</time>
      </trkpt>
      <trkpt lat="47.29819" lon="-1.37457">
        <ele>54</ele>
        <time>2022-03-27T11:59:51Z</time>
      </trkpt>
      <trkpt lat="47.29811" lon="-1.37471">
        <ele>54</ele>
        <time>2022-03-27T11:59:53Z</time>
      </trkpt>
      <trkpt lat="47.29802" lon="-1.37485">
        <ele>54</ele>
        <time>2022-03-27T11:59:55Z</time>
      </trkpt>
      <trkpt lat="47.29793" lon="-1.37498">
        <ele>54</ele>
        <time>2022-03-27T11:59:57Z</time>
      </trkpt>
      <trkpt lat="47.29785" lon="-1.37512">
        <ele>54</ele>
        <time>2022-03-27T11:59:59Z</time>
      </trkpt>
      <trkpt lat="47.29777" lon="-1.37526">
        <ele>54</ele>
        <time>2022-03-27T12:00:01Z</time>
      </trkpt>
      <trkpt lat="47.2977" lon="-1.3754">
        <ele>54</ele>
        <time>2022-03-27T12:00:03Z</time>
      </trkpt>
      <trkpt lat="47.29763" lon="-1.37555">
        <ele>54</ele>
        <time>2022-03-27T12:00:05Z</time>
      </trkpt>
      <trkpt lat="47.29755" lon="-1.37569">
        <ele>54</ele>
        <time>2022-03-27T12:00:07Z</time>
      </trkpt>
      <trkpt lat="47.29748" lon="-1.37584">
        <ele>54</ele>
        <time>2022-03-27T12:00:09Z</time>
      </trkpt>
      <trkpt lat="47.29741" lon="-1.37598">
        <ele>54</ele>
        <time>2022-03-27T12:00:11Z</time>
      </trkpt>
      <trkpt lat="47.29733" lon="-1.37613">
        <ele>54</ele>
        <time>2022-03-27T12:00:13Z</time>
      </trkpt>
      <trkpt lat="47.29726" lon="-1.37628">
        <ele>54</ele>
        <time>2022-03-27T12:00:15Z</time>
      </trkpt>
      <trkpt lat="47.29719" lon="-1.37642">
        <ele>54</ele>
        <time>2022-03-27T12:00:17Z</time>
      </trkpt>
      <trkpt lat="47.29711" lon="-1.37657">
        <ele>54</ele>
        <time>2022-03-27T12:00:19Z</time>
      </trkpt>
      <trkpt lat="47.29704" lon="-1.37671">
        <ele>54</ele>
        <time>2022-03-27T12:00:21Z</time>
      </trkpt>
      <trkpt lat="47.29697" lon="-1.37686">
        <ele>54</ele>
        <time>2022-03-27T12:00:23Z</time>
      </trkpt>
      <trkpt lat="47.29689" lon="-1.377">
        <ele>53</ele>
        <time>2022-03-27T12:00:25Z</time>
      </trkpt>
      <trkpt lat="47.29682" lon="-1.37715">
        <ele>53</ele>
        <time>2022-03-27T12:00:27Z</time>
      </trkpt>
      <trkpt lat="47.29674" lon="-1.37729">
        <ele>53</ele>
        <time>2022-03-27T12:00:29Z</time>
      </trkpt>
      <trkpt lat="47.29666" lon="-1.37743">
        <ele>52</ele>
        <time>2022-03-27T12:00:31Z</time>
      </trkpt>
      <trkpt lat="47.29658" lon="-1.37758">
        <ele>52</ele>
        <time>2022-03-27T12:00:33Z</time>
      </trkpt>
      <trkpt lat="47.2965" lon="-1.37773">
        <ele>53</ele>
        <time>2022-03-27T12:00:35Z</time>
      </trkpt>
      <trkpt lat="47.29643" lon="-1.37786">
        <ele>53</ele>
        <time>2022-03-27T12:00:37Z</time>
      </trkpt>
      <trkpt lat="47.29635" lon="-1.37799">
        <ele>53</ele>
        <time>2022-03-27T12:00:39Z</time>
      </trkpt>
      <trkpt lat="47.29627" lon="-1.37811">
        <ele>53</ele>
        <time>2022-03-27T12:00:41Z</time>
      </trkpt>
      <trkpt lat="47.2962" lon="-1.37827">
        <ele>53</ele>
        <time>2022-03-27T12:00:43Z</time>
      </trkpt>
      <trkpt lat="47.29613" lon="-1.3784">
        <ele>54</ele>
        <time>2022-03-27T12:00:45Z</time>
      </trkpt>
      <trkpt lat="47.29606" lon="-1.37855">
        <ele>54</ele>
        <time>2022-03-27T12:00:47Z</time>
      </trkpt>
      <trkpt lat="47.296" lon="-1.3787">
        <ele>54</ele>
        <time>2022-03-27T12:00:49Z</time>
      </trkpt>
      <trkpt lat="47.29594" lon="-1.37884">
        <ele>54</ele>
        <time>2022-03-27T12:00:51Z</time>
      </trkpt>
      <trkpt lat="47.29587" lon="-1.37898">
        <ele>54</ele>
        <time>2022-03-27T12:00:53Z</time>
      </trkpt>
      <trkpt lat="47.29581" lon="-1.37913">
        <ele>54</ele>
        <time>2022-03-27T12:00:55Z</time>
      </trkpt>
      <trkpt lat="47.29575" lon="-1.37928">
        <ele>54</ele>
        <time>2022-03-27T12:00:57Z</time>
      </trkpt>
      <trkpt lat="47.29568" lon="-1.37942">
        <ele>54</ele>
        <time>2022-03-27T12:00:59Z</time>
      </trkpt>
      <trkpt lat="47.29562" lon="-1.37958">
        <ele>54</ele>
        <time>2022-03-27T12:01:01Z</time>
      </trkpt>
      <trkpt lat="47.29556" lon="-1.37973">
        <ele>55</ele>
        <time>2022-03-27T12:01:03Z</time>
      </trkpt>
      <trkpt lat="47.2955" lon="-1.37989">
        <ele>54</ele>
        <time>2022-03-27T12:01:05Z</time>
      </trkpt>
      <trkpt lat="47.29544" lon="-1.38005">
        <ele>55</ele>
        <time>2022-03-27T12:01:07Z</time>
      </trkpt>
      <trkpt lat="47.29539" lon="-1.3802">
        <ele>54</ele>
        <time>2022-03-27T12:01:09Z</time>
      </trkpt>
      <trkpt lat="47.29533" lon="-1.38035">
        <ele>55</ele>
        <time>2022-03-27T12:01:11Z</time>
      </trkpt>
      <trkpt lat="47.29528" lon="-1.38051">
        <ele>54</ele>
        <time>2022-03-27T12:01:13Z</time>
      </trkpt>
      <trkpt lat="47.29523" lon="-1.38067">
        <ele>54</ele>
        <time>2022-03-27T12:01:15Z</time>
      </trkpt>
      <trkpt lat="47.29517" lon="-1.38084">
        <ele>54</ele>
        <time>2022-03-27T12:01:17Z</time>
      </trkpt>
      <trkpt lat="47.29513" lon="-1.381">
        <ele>54</ele>
        <time>2022-03-27T12:01:19Z</time>
      </trkpt>
      <trkpt lat="47.29508" lon="-1.38116">
        <ele>54</ele>
        <time>2022-03-27T12:01:21Z</time>
      </trkpt>
      <trkpt lat="47.29504" lon="-1.38133">
        <ele>54</ele>
        <time>2022-03-27T12:01:23Z</time>
      </trkpt>
      <trkpt lat="47.29499" lon="-1.3815">
        <ele>54</ele>
        <time>2022-03-27T12:01:25Z</time>
      </trkpt>
      <trkpt lat="47.29494" lon="-1.38167">
        <ele>54</ele>
        <time>2022-03-27T12:01:27Z</time>
      </trkpt>
      <trkpt lat="47.2949" lon="-1.38184">
        <ele>54</ele>
        <time>2022-03-27T12:01:29Z</time>
      </trkpt>
      <trkpt lat="47.29485" lon="-1.382">
        <ele>54</ele>
        <time>2022-03-27T12:01:31Z</time>
      </trkpt>
      <trkpt lat="47.29481" lon="-1.38217">
        <ele>54</ele>
        <time>2022-03-27T12:01:33Z</time>
      </trkpt>
      <trkpt lat="47.29477" lon="-1.38233">
        <ele>54</ele>
        <time>2022-03-27T12:01:35Z</time>
      </trkpt>
      <trkpt lat="47.29472" lon="-1.38248">
        <ele>54</ele>
        <time>2022-03-27T12:01:37Z</time>
      </trkpt>
      <trkpt lat="47.29468" lon="-1.38264">
        <ele>54</ele>
        <time>2022-03-27T12:01:39Z</time>
      </trkpt>
      <trkpt lat="47.29463" lon="-1.3828">
        <ele>54</ele>
        <time>2022-03-27T12:01:41Z</time>
      </trkpt>
      <trkpt lat="47.29459" lon="-1.38296">
        <ele>54</ele>
        <time>2022-03-27T12:01:43Z</time>
      </trkpt>
      <trkpt lat="47.29454" lon="-1.38311">
        <ele>55</ele>
        <time>2022-03-27T12:01:45Z</time>
      </trkpt>
      <trkpt lat="47.29449" lon="-1.38324">
        <ele>56</ele>
        <time>2022-03-27T12:01:47Z</time>
      </trkpt>
      <trkpt lat="47.29443" lon="-1.38334">
        <ele>57</ele>
        <time>2022-03-27T12:01:49Z</time>
      </trkpt>
      <trkpt lat="47.29439" lon="-1.38349">
        <ele>57</ele>
        <time>2022-03-27T12:01:51Z</time>
      </trkpt>
      <trkpt lat="47.29437" lon="-1.38366">
        <ele>56</ele>
        <time>2022-03-27T12:01:53Z</time>
      </trkpt>
      <trkpt lat="47.29433" lon="-1.38383">
        <ele>55</ele>
        <time>2022-03-27T12:01:55Z</time>
      </trkpt>
      <trkpt lat="47.29429" lon="-1.38401">
        <ele>55</ele>
        <time>2022-03-27T12:01:57Z</time>
      </trkpt>
      <trkpt lat="47.29425" lon="-1.38419">
        <ele>55</ele>
        <time>2022-03-27T12:01:59Z</time>
      </trkpt>
      <trkpt lat="47.2942" lon="-1.38437">
        <ele>55</ele>
        <time>2022-03-27T12:02:01Z</time>
      </trkpt>
      <trkpt lat="47.29415" lon="-1.38454">
        <ele>55</ele>
        <time>2022-03-27T12:02:03Z</time>
      </trkpt>
      <trkpt lat="47.29409" lon="-1.3847">
        <ele>55</ele>
        <time>2022-03-27T12:02:05Z</time>
      </trkpt>
      <trkpt lat="47.29401" lon="-1.38485">
        <ele>55</ele>
        <time>2022-03-27T12:02:07Z</time>
      </trkpt>
      <trkpt lat="47.29395" lon="-1.38502">
        <ele>55</ele>
        <time>2022-03-27T12:02:09Z</time>
      </trkpt>
      <trkpt lat="47.29388" lon="-1.38519">
        <ele>55</ele>
        <time>2022-03-27T12:02:11Z</time>
      </trkpt>
      <trkpt lat="47.29382" lon="-1.38535">
        <ele>55</ele>
        <time>2022-03-27T12:02:13Z</time>
      </trkpt>
      <trkpt lat="47.29377" lon="-1.38553">
        <ele>54</ele>
        <time>2022-03-27T12:02:15Z</time>
      </trkpt>
      <trkpt lat="47.29372" lon="-1.3857">
        <ele>54</ele>
        <time>2022-03-27T12:02:17Z</time>
      </trkpt>
      <trkpt lat="47.29365" lon="-1.38589">
        <ele>53</ele>
        <time>2022-03-27T12:02:19Z</time>
      </trkpt>
      <trkpt lat="47.2936" lon="-1.38608">
        <ele>53</ele>
        <time>2022-03-27T12:02:21Z</time>
      </trkpt>
      <trkpt lat="47.29354" lon="-1.38627">
        <ele>52</ele>
        <time>2022-03-27T12:02:23Z</time>
      </trkpt>
      <trkpt lat="47.29349" lon="-1.38645">
        <ele>53</ele>
        <time>2022-03-27T12:02:25Z</time>
      </trkpt>
      <trkpt lat="47.29343" lon="-1.38662">
        <ele>52</ele>
        <time>2022-03-27T12:02:27Z</time>
      </trkpt>
      <trkpt lat="47.29338" lon="-1.38679">
        <ele>52</ele>
        <time>2022-03-27T12:02:29Z</time>
      </trkpt>
      <trkpt lat="47.29332" lon="-1.38697">
        <ele>52</ele>
        <time>2022-03-27T12:02:31Z</time>
      </trkpt>
      <trkpt lat="47.29327" lon="-1.38715">
        <ele>51</ele>
        <time>2022-03-27T12:02:33Z</time>
      </trkpt>
      <trkpt lat="47.29323" lon="-1.38734">
        <ele>51</ele>
        <time>2022-03-27T12:02:35Z</time>
      </trkpt>
      <trkpt lat="47.2932" lon="-1.38751">
        <ele>51</ele>
        <time>2022-03-27T12:02:37Z</time>
      </trkpt>
      <trkpt lat="47.29316" lon="-1.38768">
        <ele>52</ele>
        <time>2022-03-27T12:02:39Z</time>
      </trkpt>
      <trkpt lat="47.29312" lon="-1.38784">
        <ele>52</ele>
        <time>2022-03-27T12:02:41Z</time>
      </trkpt>
      <trkpt lat="47.29307" lon="-1.38801">
        <ele>52</ele>
        <time>2022-03-27T12:02:43Z</time>
      </trkpt>
      <trkpt lat="47.29302" lon="-1.38818">
        <ele>52</ele>
        <time>2022-03-27T12:02:45Z</time>
      </trkpt>
      <trkpt lat="47.29298" lon="-1.38835">
        <ele>52</ele>
        <time>2022-03-27T12:02:47Z</time>
      </trkpt>
      <trkpt lat="47.29293" lon="-1.38852">
        <ele>52</ele>
        <time>2022-03-27T12:02:49Z</time>
      </trkpt>
      <trkpt lat="47.29288" lon="-1.38869">
        <ele>52</ele>
        <time>2022-03-27T12:02:51Z</time>
      </trkpt>
      <trkpt lat="47.29284" lon="-1.38887">
        <ele>52</ele>
        <time>2022-03-27T12:02:53Z</time>
      </trkpt>
      <trkpt lat="47.29279" lon="-1.38904">
        <ele>53</ele>
        <time>2022-03-27T12:02:55Z</time>
      </trkpt>
      <trkpt lat="47.29275" lon="-1.38921">
        <ele>53</ele>
        <time>2022-03-27T12:02:57Z</time>
      </trkpt>
      <trkpt lat="47.2927" lon="-1.38939">
        <ele>52</ele>
        <time>2022-03-27T12:02:59Z</time>
      </trkpt>
      <trkpt lat="47.29265" lon="-1.38956">
        <ele>53</ele>
        <time>2022-03-27T12:03:01Z</time>
      </trkpt>
      <trkpt lat="47.29261" lon="-1.38972">
        <ele>53</ele>
        <time>2022-03-27T12:03:03Z</time>
      </trkpt>
      <trkpt lat="47.29256" lon="-1.38989">
        <ele>53</ele>
        <time>2022-03-27T12:03:05Z</time>
      </trkpt>
      <trkpt lat="47.29252" lon="-1.39006">
        <ele>53</ele>
        <time>2022-03-27T12:03:07Z</time>
      </trkpt>
      <trkpt lat="47.29247" lon="-1.39022">
        <ele>53</ele>
        <time>2022-03-27T12:03:09Z</time>
      </trkpt>
      <trkpt lat="47.29243" lon="-1.39038">
        <ele>53</ele>
        <time>2022-03-27T12:03:11Z</time>
      </trkpt>
      <trkpt lat="47.29239" lon="-1.39054">
        <ele>53</ele>
        <time>2022-03-27T12:03:13Z</time>
      </trkpt>
      <trkpt lat="47.29234" lon="-1.39069">
        <ele>53</ele>
        <time>2022-03-27T12:03:15Z</time>
      </trkpt>
      <trkpt lat="47.29228" lon="-1.39084">
        <ele>53</ele>
        <time>2022-03-27T12:03:17Z</time>
      </trkpt>
      <trkpt lat="47.29222" lon="-1.39099">
        <ele>53</ele>
        <time>2022-03-27T12:03:19Z</time>
      </trkpt>
      <trkpt lat="47.29214" lon="-1.39113">
        <ele>53</ele>
        <time>2022-03-27T12:03:21Z</time>
      </trkpt>
      <trkpt lat="47.29205" lon="-1.39126">
        <ele>52</ele>
        <time>2022-03-27T12:03:23Z</time>
      </trkpt>
      <trkpt lat="47.29196" lon="-1.39139">
        <ele>53</ele>
        <time>2022-03-27T12:03:25Z</time>
      </trkpt>
      <trkpt lat="47.29187" lon="-1.39151">
        <ele>53</ele>
        <time>2022-03-27T12:03:27Z</time>
      </trkpt>
      <trkpt lat="47.29177" lon="-1.39162">
        <ele>53</ele>
        <time>2022-03-27T12:03:29Z</time>
      </trkpt>
      <trkpt lat="47.29168" lon="-1.39174">
        <ele>53</ele>
        <time>2022-03-27T12:03:31Z</time>
      </trkpt>
      <trkpt lat="47.29158" lon="-1.39185">
        <ele>53</ele>
        <time>2022-03-27T12:03:33Z</time>
      </trkpt>
      <trkpt lat="47.29149" lon="-1.39198">
        <ele>53</ele>
        <time>2022-03-27T12:03:35Z</time>
      </trkpt>
      <trkpt lat="47.29139" lon="-1.39209">
        <ele>53</ele>
        <time>2022-03-27T12:03:37Z</time>
      </trkpt>
      <trkpt lat="47.29129" lon="-1.3922">
        <ele>53</ele>
        <time>2022-03-27T12:03:39Z</time>
      </trkpt>
      <trkpt lat="47.29119" lon="-1.39233">
        <ele>53</ele>
        <time>2022-03-27T12:03:41Z</time>
      </trkpt>
      <trkpt lat="47.2911" lon="-1.39245">
        <ele>53</ele>
        <time>2022-03-27T12:03:43Z</time>
      </trkpt>
      <trkpt lat="47.29102" lon="-1.39259">
        <ele>54</ele>
        <time>2022-03-27T12:03:45Z</time>
      </trkpt>
      <trkpt lat="47.29094" lon="-1.39273">
        <ele>54</ele>
        <time>2022-03-27T12:03:47Z</time>
      </trkpt>
      <trkpt lat="47.29086" lon="-1.39287">
        <ele>54</ele>
        <time>2022-03-27T12:03:49Z</time>
      </trkpt>
      <trkpt lat="47.29077" lon="-1.39299">
        <ele>53</ele>
        <time>2022-03-27T12:03:51Z</time>
      </trkpt>
      <trkpt lat="47.29068" lon="-1.3931">
        <ele>54</ele>
        <time>2022-03-27T12:03:53Z</time>
      </trkpt>
      <trkpt lat="47.29057" lon="-1.39318">
        <ele>54</ele>
        <time>2022-03-27T12:03:55Z</time>
      </trkpt>
      <trkpt lat="47.29047" lon="-1.39328">
        <ele>54</ele>
        <time>2022-03-27T12:03:57Z</time>
      </trkpt>
      <trkpt lat="47.29038" lon="-1.3934">
        <ele>54</ele>
        <time>2022-03-27T12:03:59Z</time>
      </trkpt>
      <trkpt lat="47.29028" lon="-1.39352">
        <ele>54</ele>
        <time>2022-03-27T12:04:01Z</time>
      </trkpt>
      <trkpt lat="47.29019" lon="-1.39363">
        <ele>55</ele>
        <time>2022-03-27T12:04:03Z</time>
      </trkpt>
      <trkpt lat="47.2901" lon="-1.39376">
        <ele>55</ele>
        <time>2022-03-27T12:04:05Z</time>
      </trkpt>
      <trkpt lat="47.29002" lon="-1.39389">
        <ele>55</ele>
        <time>2022-03-27T12:04:07Z</time>
      </trkpt>
      <trkpt lat="47.28994" lon="-1.39402">
        <ele>55</ele>
        <time>2022-03-27T12:04:09Z</time>
      </trkpt>
      <trkpt lat="47.28985" lon="-1.39414">
        <ele>55</ele>
        <time>2022-03-27T12:04:11Z</time>
      </trkpt>
      <trkpt lat="47.28976" lon="-1.39425">
        <ele>55</ele>
        <time>2022-03-27T12:04:13Z</time>
      </trkpt>
      <trkpt lat="47.28967" lon="-1.39436">
        <ele>55</ele>
        <time>2022-03-27T12:04:15Z</time>
      </trkpt>
      <trkpt lat="47.28957" lon="-1.39447">
        <ele>55</ele>
        <time>2022-03-27T12:04:17Z</time>
      </trkpt>
      <trkpt lat="47.28948" lon="-1.39458">
        <ele>55</ele>
        <time>2022-03-27T12:04:19Z</time>
      </trkpt>
      <trkpt lat="47.28939" lon="-1.39469">
        <ele>55</ele>
        <time>2022-03-27T12:04:21Z</time>
      </trkpt>
      <trkpt lat="47.28929" lon="-1.39481">
        <ele>55</ele>
        <time>2022-03-27T12:04:23Z</time>
      </trkpt>
      <trkpt lat="47.28919" lon="-1.39492">
        <ele>55</ele>
        <time>2022-03-27T12:04:25Z</time>
      </trkpt>
      <trkpt lat="47.28909" lon="-1.39504">
        <ele>55</ele>
        <time>2022-03-27T12:04:27Z</time>
      </trkpt>
      <trkpt lat="47.28899" lon="-1.39516">
        <ele>55</ele>
        <time>2022-03-27T12:04:29Z</time>
      </trkpt>
      <trkpt lat="47.28889" lon="-1.39527">
        <ele>54</ele>
        <time>2022-03-27T12:04:31Z</time>
      </trkpt>
      <trkpt lat="47.2888" lon="-1.39539">
        <ele>55</ele>
        <time>2022-03-27T12:04:33Z</time>
      </trkpt>
      <trkpt lat="47.2887" lon="-1.3955">
        <ele>55</ele>
        <time>2022-03-27T12:04:35Z</time>
      </trkpt>
      <trkpt lat="47.28861" lon="-1.39562">
        <ele>55</ele>
        <time>2022-03-27T12:04:37Z</time>
      </trkpt>
      <trkpt lat="47.28851" lon="-1.39574">
        <ele>55</ele>
        <time>2022-03-27T12:04:39Z</time>
      </trkpt>
      <trkpt lat="47.28842" lon="-1.39586">
        <ele>55</ele>
        <time>2022-03-27T12:04:41Z</time>
      </trkpt>
      <trkpt lat="47.28832" lon="-1.39598">
        <ele>56</ele>
        <time>2022-03-27T12:04:43Z</time>
      </trkpt>
      <trkpt lat="47.28823" lon="-1.39609">
        <ele>56</ele>
        <time>2022-03-27T12:04:45Z</time>
      </trkpt>
      <trkpt lat="47.28813" lon="-1.39621">
        <ele>55</ele>
        <time>2022-03-27T12:04:47Z</time>
      </trkpt>
      <trkpt lat="47.28803" lon="-1.39632">
        <ele>55</ele>
        <time>2022-03-27T12:04:49Z</time>
      </trkpt>
      <trkpt lat="47.28793" lon="-1.39644">
        <ele>55</ele>
        <time>2022-03-27T12:04:51Z</time>
      </trkpt>
      <trkpt lat="47.28783" lon="-1.39656">
        <ele>55</ele>
        <time>2022-03-27T12:04:53Z</time>
      </trkpt>
      <trkpt lat="47.28773" lon="-1.39668">
        <ele>55</ele>
        <time>2022-03-27T12:04:55Z</time>
      </trkpt>
      <trkpt lat="47.28764" lon="-1.3968">
        <ele>55</ele>
        <time>2022-03-27T12:04:57Z</time>
      </trkpt>
      <trkpt lat="47.28754" lon="-1.39692">
        <ele>55</ele>
        <time>2022-03-27T12:04:59Z</time>
      </trkpt>
      <trkpt lat="47.28745" lon="-1.39703">
        <ele>55</ele>
        <time>2022-03-27T12:05:01Z</time>
      </trkpt>
      <trkpt lat="47.28735" lon="-1.39714">
        <ele>55</ele>
        <time>2022-03-27T12:05:03Z</time>
      </trkpt>
      <trkpt lat="47.28725" lon="-1.39726">
        <ele>54</ele>
        <time>2022-03-27T12:05:05Z</time>
      </trkpt>
      <trkpt lat="47.28715" lon="-1.39739">
        <ele>55</ele>
        <time>2022-03-27T12:05:07Z</time>
      </trkpt>
      <trkpt lat="47.28706" lon="-1.39751">
        <ele>55</ele>
        <time>2022-03-27T12:05:09Z</time>
      </trkpt>
      <trkpt lat="47.28696" lon="-1.39762">
        <ele>55</ele>
        <time>2022-03-27T12:05:11Z</time>
      </trkpt>
      <trkpt lat="47.28686" lon="-1.39773">
        <ele>55</ele>
        <time>2022-03-27T12:05:13Z</time>
      </trkpt>
      <trkpt lat="47.28677" lon="-1.39785">
        <ele>55</ele>
        <time>2022-03-27T12:05:15Z</time>
      </trkpt>
      <trkpt lat="47.28667" lon="-1.39798">
        <ele>54</ele>
        <time>2022-03-27T12:05:17Z</time>
      </trkpt>
      <trkpt lat="47.28659" lon="-1.39811">
        <ele>54</ele>
        <time>2022-03-27T12:05:19Z</time>
      </trkpt>
      <trkpt lat="47.2865" lon="-1.39824">
        <ele>54</ele>
        <time>2022-03-27T12:05:21Z</time>
      </trkpt>
      <trkpt lat="47.28642" lon="-1.39838">
        <ele>54</ele>
        <time>2022-03-27T12:05:23Z</time>
      </trkpt>
      <trkpt lat="47.28633" lon="-1.39851">
        <ele>54</ele>
        <time>2022-03-27T12:05:25Z</time>
      </trkpt>
      <trkpt lat="47.28625" lon="-1.39865">
        <ele>53</ele>
        <time>2022-03-27T12:05:27Z</time>
      </trkpt>
      <trkpt lat="47.28616" lon="-1.39878">
        <ele>54</ele>
        <time>2022-03-27T12:05:29Z</time>
      </trkpt>
      <trkpt lat="47.28608" lon="-1.3989">
        <ele>54</ele>
        <time>2022-03-27T12:05:31Z</time>
      </trkpt>
      <trkpt lat="47.286" lon="-1.39903">
        <ele>55</ele>
        <time>2022-03-27T12:05:33Z</time>
      </trkpt>
      <trkpt lat="47.28591" lon="-1.39916">
        <ele>55</ele>
        <time>2022-03-27T12:05:35Z</time>
      </trkpt>
      <trkpt lat="47.28582" lon="-1.39929">
        <ele>55</ele>
        <time>2022-03-27T12:05:37Z</time>
      </trkpt>
      <trkpt lat="47.28573" lon="-1.39942">
        <ele>54</ele>
        <time>2022-03-27T12:05:39Z</time>
      </trkpt>
      <trkpt lat="47.28565" lon="-1.39955">
        <ele>54</ele>
        <time>2022-03-27T12:05:41Z</time>
      </trkpt>
      <trkpt lat="47.28556" lon="-1.39968">
        <ele>54</ele>
        <time>2022-03-27T12:05:43Z</time>
      </trkpt>
      <trkpt lat="47.28547" lon="-1.39979">
        <ele>54</ele>
        <time>2022-03-27T12:05:45Z</time>
      </trkpt>
      <trkpt lat="47.28538" lon="-1.39991">
        <ele>55</ele>
        <time>2022-03-27T12:05:47Z</time>
      </trkpt>
      <trkpt lat="47.28529" lon="-1.40003">
        <ele>55</ele>
        <time>2022-03-27T12:05:49Z</time>
      </trkpt>
      <trkpt lat="47.28521" lon="-1.40015">
        <ele>56</ele>
        <time>2022-03-27T12:05:51Z</time>
      </trkpt>
      <trkpt lat="47.28514" lon="-1.40027">
        <ele>56</ele>
        <time>2022-03-27T12:05:53Z</time>
      </trkpt>
      <trkpt lat="47.28507" lon="-1.40041">
        <ele>56</ele>
        <time>2022-03-27T12:05:55Z</time>
      </trkpt>
      <trkpt lat="47.285" lon="-1.40056">
        <ele>56</ele>
        <time>2022-03-27T12:05:57Z</time>
      </trkpt>
      <trkpt lat="47.28493" lon="-1.4007">
        <ele>56</ele>
        <time>2022-03-27T12:05:59Z</time>
      </trkpt>
      <trkpt lat="47.28488" lon="-1.40085">
        <ele>56</ele>
        <time>2022-03-27T12:06:01Z</time>
      </trkpt>
      <trkpt lat="47.28481" lon="-1.40101">
        <ele>57</ele>
        <time>2022-03-27T12:06:03Z</time>
      </trkpt>
      <trkpt lat="47.28474" lon="-1.40116">
        <ele>57</ele>
        <time>2022-03-27T12:06:05Z</time>
      </trkpt>
      <trkpt lat="47.28468" lon="-1.40132">
        <ele>56</ele>
        <time>2022-03-27T12:06:07Z</time>
      </trkpt>
      <trkpt lat="47.28461" lon="-1.40149">
        <ele>56</ele>
        <time>2022-03-27T12:06:09Z</time>
      </trkpt>
      <trkpt lat="47.28454" lon="-1.40166">
        <ele>56</ele>
        <time>2022-03-27T12:06:11Z</time>
      </trkpt>
      <trkpt lat="47.28447" lon="-1.40183">
        <ele>56</ele>
        <time>2022-03-27T12:06:13Z</time>
      </trkpt>
      <trkpt lat="47.28441" lon="-1.402">
        <ele>55</ele>
        <time>2022-03-27T12:06:15Z</time>
      </trkpt>
      <trkpt lat="47.28434" lon="-1.40217">
        <ele>55</ele>
        <time>2022-03-27T12:06:17Z</time>
      </trkpt>
      <trkpt lat="47.28427" lon="-1.40234">
        <ele>55</ele>
        <time>2022-03-27T12:06:19Z</time>
      </trkpt>
      <trkpt lat="47.2842" lon="-1.40252">
        <ele>55</ele>
        <time>2022-03-27T12:06:21Z</time>
      </trkpt>
      <trkpt lat="47.28413" lon="-1.40269">
        <ele>55</ele>
        <time>2022-03-27T12:06:23Z</time>
      </trkpt>
      <trkpt lat="47.28405" lon="-1.40286">
        <ele>56</ele>
        <time>2022-03-27T12:06:25Z</time>
      </trkpt>
      <trkpt lat="47.28397" lon="-1.40303">
        <ele>55</ele>
        <time>2022-03-27T12:06:27Z</time>
      </trkpt>
      <trkpt lat="47.28388" lon="-1.40318">
        <ele>55</ele>
        <time>2022-03-27T12:06:29Z</time>
      </trkpt>
      <trkpt lat="47.28378" lon="-1.40333">
        <ele>55</ele>
        <time>2022-03-27T12:06:31Z</time>
      </trkpt>
      <trkpt lat="47.28368" lon="-1.40348">
        <ele>55</ele>
        <time>2022-03-27T12:06:33Z</time>
      </trkpt>
      <trkpt lat="47.28358" lon="-1.40361">
        <ele>55</ele>
        <time>2022-03-27T12:06:35Z</time>
      </trkpt>
      <trkpt lat="47.28348" lon="-1.40375">
        <ele>55</ele>
        <time>2022-03-27T12:06:37Z</time>
      </trkpt>
      <trkpt lat="47.28338" lon="-1.40388">
        <ele>55</ele>
        <time>2022-03-27T12:06:39Z</time>
      </trkpt>
      <trkpt lat="47.28328" lon="-1.40401">
        <ele>55</ele>
        <time>2022-03-27T12:06:41Z</time>
      </trkpt>
      <trkpt lat="47.28319" lon="-1.40413">
        <ele>55</ele>
        <time>2022-03-27T12:06:43Z</time>
      </trkpt>
      <trkpt lat="47.28308" lon="-1.40424">
        <ele>55</ele>
        <time>2022-03-27T12:06:45Z</time>
      </trkpt>
      <trkpt lat="47.28297" lon="-1.40436">
        <ele>55</ele>
        <time>2022-03-27T12:06:47Z</time>
      </trkpt>
      <trkpt lat="47.28285" lon="-1.40447">
        <ele>55</ele>
        <time>2022-03-27T12:06:49Z</time>
      </trkpt>
      <trkpt lat="47.28274" lon="-1.40457">
        <ele>55</ele>
        <time>2022-03-27T12:06:51Z</time>
      </trkpt>
      <trkpt lat="47.28263" lon="-1.40467">
        <ele>55</ele>
        <time>2022-03-27T12:06:53Z</time>
      </trkpt>
      <trkpt lat="47.28252" lon="-1.40478">
        <ele>55</ele>
        <time>2022-03-27T12:06:55Z</time>
      </trkpt>
      <trkpt lat="47.28241" lon="-1.40489">
        <ele>55</ele>
        <time>2022-03-27T12:06:57Z</time>
      </trkpt>
      <trkpt lat="47.28229" lon="-1.405">
        <ele>55</ele>
        <time>2022-03-27T12:06:59Z</time>
      </trkpt>
      <trkpt lat="47.28218" lon="-1.40511">
        <ele>55</ele>
        <time>2022-03-27T12:07:01Z</time>
      </trkpt>
      <trkpt lat="47.28207" lon="-1.40521">
        <ele>55</ele>
        <time>2022-03-27T12:07:03Z</time>
      </trkpt>
      <trkpt lat="47.28196" lon="-1.40532">
        <ele>55</ele>
        <time>2022-03-27T12:07:05Z</time>
      </trkpt>
      <trkpt lat="47.28185" lon="-1.40543">
        <ele>54</ele>
        <time>2022-03-27T12:07:07Z</time>
      </trkpt>
      <trkpt lat="47.28174" lon="-1.40554">
        <ele>54</ele>
        <time>2022-03-27T12:07:09Z</time>
      </trkpt>
      <trkpt lat="47.28163" lon="-1.40564">
        <ele>54</ele>
        <time>2022-03-27T12:07:11Z</time>
      </trkpt>
      <trkpt lat="47.28151" lon="-1.40574">
        <ele>55</ele>
        <time>2022-03-27T12:07:13Z</time>
      </trkpt>
      <trkpt lat="47.2814" lon="-1.40585">
        <ele>54</ele>
        <time>2022-03-27T12:07:15Z</time>
      </trkpt>
      <trkpt lat="47.28129" lon="-1.40596">
        <ele>54</ele>
        <time>2022-03-27T12:07:17Z</time>
      </trkpt>
      <trkpt lat="47.28118" lon="-1.40607">
        <ele>55</ele>
        <time>2022-03-27T12:07:19Z</time>
      </trkpt>
      <trkpt lat="47.28107" lon="-1.40618">
        <ele>55</ele>
        <time>2022-03-27T12:07:21Z</time>
      </trkpt>
      <trkpt lat="47.28097" lon="-1.40628">
        <ele>55</ele>
        <time>2022-03-27T12:07:23Z</time>
      </trkpt>
      <trkpt lat="47.28086" lon="-1.40636">
        <ele>55</ele>
        <time>2022-03-27T12:07:25Z</time>
      </trkpt>
      <trkpt lat="47.28075" lon="-1.40645">
        <ele>54</ele>
        <time>2022-03-27T12:07:27Z</time>
      </trkpt>
      <trkpt lat="47.28064" lon="-1.40655">
        <ele>54</ele>
        <time>2022-03-27T12:07:29Z</time>
      </trkpt>
      <trkpt lat="47.28053" lon="-1.40666">
        <ele>54</ele>
        <time>2022-03-27T12:07:31Z</time>
      </trkpt>
      <trkpt lat="47.28043" lon="-1.40678">
        <ele>54</ele>
        <time>2022-03-27T12:07:33Z</time>
      </trkpt>
      <trkpt lat="47.28033" lon="-1.4069">
        <ele>54</ele>
        <time>2022-03-27T12:07:35Z</time>
      </trkpt>
      <trkpt lat="47.28023" lon="-1.40701">
        <ele>54</ele>
        <time>2022-03-27T12:07:37Z</time>
      </trkpt>
      <trkpt lat="47.28012" lon="-1.40712">
        <ele>54</ele>
        <time>2022-03-27T12:07:39Z</time>
      </trkpt>
      <trkpt lat="47.28002" lon="-1.40722">
        <ele>54</ele>
        <time>2022-03-27T12:07:41Z</time>
      </trkpt>
      <trkpt lat="47.27991" lon="-1.40732">
        <ele>54</ele>
        <time>2022-03-27T12:07:43Z</time>
      </trkpt>
      <trkpt lat="47.2798" lon="-1.40742">
        <ele>54</ele>
        <time>2022-03-27T12:07:45Z</time>
      </trkpt>
      <trkpt lat="47.27969" lon="-1.40752">
        <ele>55</ele>
        <time>2022-03-27T12:07:47Z</time>
      </trkpt>
      <trkpt lat="47.27958" lon="-1.40762">
        <ele>55</ele>
        <time>2022-03-27T12:07:49Z</time>
      </trkpt>
      <trkpt lat="47.27948" lon="-1.40771">
        <ele>54</ele>
        <time>2022-03-27T12:07:51Z</time>
      </trkpt>
      <trkpt lat="47.27937" lon="-1.40781">
        <ele>54</ele>
        <time>2022-03-27T12:07:53Z</time>
      </trkpt>
      <trkpt lat="47.27926" lon="-1.40791">
        <ele>55</ele>
        <time>2022-03-27T12:07:55Z</time>
      </trkpt>
      <trkpt lat="47.27915" lon="-1.40801">
        <ele>55</ele>
        <time>2022-03-27T12:07:57Z</time>
      </trkpt>
      <trkpt lat="47.27903" lon="-1.40812">
        <ele>54</ele>
        <time>2022-03-27T12:07:59Z</time>
      </trkpt>
      <trkpt lat="47.27893" lon="-1.40823">
        <ele>54</ele>
        <time>2022-03-27T12:08:01Z</time>
      </trkpt>
      <trkpt lat="47.27883" lon="-1.40835">
        <ele>54</ele>
        <time>2022-03-27T12:08:03Z</time>
      </trkpt>
      <trkpt lat="47.27876" lon="-1.4085">
        <ele>55</ele>
        <time>2022-03-27T12:08:05Z</time>
      </trkpt>
      <trkpt lat="47.27869" lon="-1.40865">
        <ele>55</ele>
        <time>2022-03-27T12:08:07Z</time>
      </trkpt>
      <trkpt lat="47.27863" lon="-1.40881">
        <ele>55</ele>
        <time>2022-03-27T12:08:09Z</time>
      </trkpt>
      <trkpt lat="47.27856" lon="-1.40896">
        <ele>55</ele>
        <time>2022-03-27T12:08:11Z</time>
      </trkpt>
      <trkpt lat="47.27849" lon="-1.40912">
        <ele>55</ele>
        <time>2022-03-27T12:08:13Z</time>
      </trkpt>
      <trkpt lat="47.27842" lon="-1.40928">
        <ele>55</ele>
        <time>2022-03-27T12:08:15Z</time>
      </trkpt>
      <trkpt lat="47.27834" lon="-1.40943">
        <ele>55</ele>
        <time>2022-03-27T12:08:17Z</time>
      </trkpt>
      <trkpt lat="47.27826" lon="-1.40958">
        <ele>55</ele>
        <time>2022-03-27T12:08:19Z</time>
      </trkpt>
      <trkpt lat="47.27818" lon="-1.40973">
        <ele>55</ele>
        <time>2022-03-27T12:08:21Z</time>
      </trkpt>
      <trkpt lat="47.2781" lon="-1.40988">
        <ele>55</ele>
        <time>2022-03-27T12:08:23Z</time>
      </trkpt>
      <trkpt lat="47.27801" lon="-1.41002">
        <ele>55</ele>
        <time>2022-03-27T12:08:25Z</time>
      </trkpt>
      <trkpt lat="47.27792" lon="-1.41015">
        <ele>56</ele>
        <time>2022-03-27T12:08:27Z</time>
      </trkpt>
      <trkpt lat="47.27784" lon="-1.41028">
        <ele>56</ele>
        <time>2022-03-27T12:08:29Z</time>
      </trkpt>
      <trkpt lat="47.27777" lon="-1.41043">
        <ele>56</ele>
        <time>2022-03-27T12:08:31Z</time>
      </trkpt>
      <trkpt lat="47.27772" lon="-1.4106">
        <ele>56</ele>
        <time>2022-03-27T12:08:33Z</time>
      </trkpt>
      <trkpt lat="47.27764" lon="-1.41074">
        <ele>56</ele>
        <time>2022-03-27T12:08:35Z</time>
      </trkpt>
      <trkpt lat="47.27753" lon="-1.41085">
        <ele>56</ele>
        <time>2022-03-27T12:08:37Z</time>
      </trkpt>
      <trkpt lat="47.27742" lon="-1.41096">
        <ele>56</ele>
        <time>2022-03-27T12:08:39Z</time>
      </trkpt>
      <trkpt lat="47.27731" lon="-1.41107">
        <ele>56</ele>
        <time>2022-03-27T12:08:41Z</time>
      </trkpt>
      <trkpt lat="47.2772" lon="-1.41119">
        <ele>55</ele>
        <time>2022-03-27T12:08:43Z</time>
      </trkpt>
      <trkpt lat="47.27708" lon="-1.4113">
        <ele>55</ele>
        <time>2022-03-27T12:08:45Z</time>
      </trkpt>
      <trkpt lat="47.27697" lon="-1.41141">
        <ele>55</ele>
        <time>2022-03-27T12:08:47Z</time>
      </trkpt>
      <trkpt lat="47.27687" lon="-1.41152">
        <ele>55</ele>
        <time>2022-03-27T12:08:49Z</time>
      </trkpt>
      <trkpt lat="47.27678" lon="-1.41163">
        <ele>55</ele>
        <time>2022-03-27T12:08:51Z</time>
      </trkpt>
      <trkpt lat="47.27668" lon="-1.41175">
        <ele>55</ele>
        <time>2022-03-27T12:08:53Z</time>
      </trkpt>
      <trkpt lat="47.27658" lon="-1.41186">
        <ele>55</ele>
        <time>2022-03-27T12:08:55Z</time>
      </trkpt>
      <trkpt lat="47.27647" lon="-1.41196">
        <ele>55</ele>
        <time>2022-03-27T12:08:57Z</time>
      </trkpt>
      <trkpt lat="47.27636" lon="-1.41206">
        <ele>55</ele>
        <time>2022-03-27T12:08:59Z</time>
      </trkpt>
      <trkpt lat="47.27625" lon="-1.41217">
        <ele>55</ele>
        <time>2022-03-27T12:09:01Z</time>
      </trkpt>
      <trkpt lat="47.27615" lon="-1.41227">
        <ele>55</ele>
        <time>2022-03-27T12:09:03Z</time>
      </trkpt>
      <trkpt lat="47.27604" lon="-1.41239">
        <ele>55</ele>
        <time>2022-03-27T12:09:05Z</time>
      </trkpt>
      <trkpt lat="47.27594" lon="-1.4125">
        <ele>55</ele>
        <time>2022-03-27T12:09:07Z</time>
      </trkpt>
      <trkpt lat="47.27584" lon="-1.41262">
        <ele>54</ele>
        <time>2022-03-27T12:09:09Z</time>
      </trkpt>
      <trkpt lat="47.27569" lon="-1.4128">
        <ele>54</ele>
        <time>2022-03-27T12:09:12Z</time>
      </trkpt>
      <trkpt lat="47.27559" lon="-1.41293">
        <ele>54</ele>
        <time>2022-03-27T12:09:14Z</time>
      </trkpt>
      <trkpt lat="47.27549" lon="-1.41305">
        <ele>54</ele>
        <time>2022-03-27T12:09:16Z</time>
      </trkpt>
      <trkpt lat="47.27534" lon="-1.41325">
        <ele>54</ele>
        <time>2022-03-27T12:09:19Z</time>
      </trkpt>
      <trkpt lat="47.27524" lon="-1.41338">
        <ele>54</ele>
        <time>2022-03-27T12:09:21Z</time>
      </trkpt>
      <trkpt lat="47.27515" lon="-1.41352">
        <ele>55</ele>
        <time>2022-03-27T12:09:23Z</time>
      </trkpt>
      <trkpt lat="47.27505" lon="-1.41366">
        <ele>55</ele>
        <time>2022-03-27T12:09:25Z</time>
      </trkpt>
      <trkpt lat="47.27496" lon="-1.41381">
        <ele>54</ele>
        <time>2022-03-27T12:09:27Z</time>
      </trkpt>
      <trkpt lat="47.27487" lon="-1.41395">
        <ele>54</ele>
        <time>2022-03-27T12:09:29Z</time>
      </trkpt>
      <trkpt lat="47.27478" lon="-1.41409">
        <ele>54</ele>
        <time>2022-03-27T12:09:31Z</time>
      </trkpt>
      <trkpt lat="47.2747" lon="-1.41424">
        <ele>54</ele>
        <time>2022-03-27T12:09:33Z</time>
      </trkpt>
      <trkpt lat="47.27462" lon="-1.4144">
        <ele>54</ele>
        <time>2022-03-27T12:09:35Z</time>
      </trkpt>
      <trkpt lat="47.27454" lon="-1.41456">
        <ele>54</ele>
        <time>2022-03-27T12:09:37Z</time>
      </trkpt>
      <trkpt lat="47.27445" lon="-1.41471">
        <ele>54</ele>
        <time>2022-03-27T12:09:39Z</time>
      </trkpt>
      <trkpt lat="47.27437" lon="-1.41485">
        <ele>54</ele>
        <time>2022-03-27T12:09:41Z</time>
      </trkpt>
      <trkpt lat="47.27429" lon="-1.415">
        <ele>55</ele>
        <time>2022-03-27T12:09:43Z</time>
      </trkpt>
      <trkpt lat="47.2742" lon="-1.41515">
        <ele>55</ele>
        <time>2022-03-27T12:09:45Z</time>
      </trkpt>
      <trkpt lat="47.27411" lon="-1.4153">
        <ele>55</ele>
        <time>2022-03-27T12:09:47Z</time>
      </trkpt>
      <trkpt lat="47.27402" lon="-1.41544">
        <ele>55</ele>
        <time>2022-03-27T12:09:49Z</time>
      </trkpt>
      <trkpt lat="47.27393" lon="-1.41558">
        <ele>55</ele>
        <time>2022-03-27T12:09:51Z</time>
      </trkpt>
      <trkpt lat="47.27384" lon="-1.41571">
        <ele>55</ele>
        <time>2022-03-27T12:09:53Z</time>
      </trkpt>
      <trkpt lat="47.27375" lon="-1.41585">
        <ele>55</ele>
        <time>2022-03-27T12:09:55Z</time>
      </trkpt>
      <trkpt lat="47.27366" lon="-1.41599">
        <ele>54</ele>
        <time>2022-03-27T12:09:57Z</time>
      </trkpt>
      <trkpt lat="47.27358" lon="-1.41612">
        <ele>55</ele>
        <time>2022-03-27T12:09:59Z</time>
      </trkpt>
      <trkpt lat="47.27348" lon="-1.41625">
        <ele>54</ele>
        <time>2022-03-27T12:10:01Z</time>
      </trkpt>
      <trkpt lat="47.2734" lon="-1.41639">
        <ele>54</ele>
        <time>2022-03-27T12:10:03Z</time>
      </trkpt>
      <trkpt lat="47.27331" lon="-1.41652">
        <ele>54</ele>
        <time>2022-03-27T12:10:05Z</time>
      </trkpt>
      <trkpt lat="47.27323" lon="-1.41666">
        <ele>54</ele>
        <time>2022-03-27T12:10:07Z</time>
      </trkpt>
      <trkpt lat="47.27315" lon="-1.41681">
        <ele>55</ele>
        <time>2022-03-27T12:10:09Z</time>
      </trkpt>
      <trkpt lat="47.27307" lon="-1.41696">
        <ele>55</ele>
        <time>2022-03-27T12:10:11Z</time>
      </trkpt>
      <trkpt lat="47.273" lon="-1.41711">
        <ele>55</ele>
        <time>2022-03-27T12:10:13Z</time>
      </trkpt>
      <trkpt lat="47.27292" lon="-1.41726">
        <ele>55</ele>
        <time>2022-03-27T12:10:15Z</time>
      </trkpt>
      <trkpt lat="47.27285" lon="-1.41742">
        <ele>55</ele>
        <time>2022-03-27T12:10:17Z</time>
      </trkpt>
      <trkpt lat="47.27277" lon="-1.41756">
        <ele>55</ele>
        <time>2022-03-27T12:10:19Z</time>
      </trkpt>
      <trkpt lat="47.27269" lon="-1.41771">
        <ele>55</ele>
        <time>2022-03-27T12:10:21Z</time>
      </trkpt>
      <trkpt lat="47.27262" lon="-1.41785">
        <ele>55</ele>
        <time>2022-03-27T12:10:23Z</time>
      </trkpt>
      <trkpt lat="47.27255" lon="-1.41799">
        <ele>55</ele>
        <time>2022-03-27T12:10:25Z</time>
      </trkpt>
      <trkpt lat="47.27247" lon="-1.41813">
        <ele>55</ele>
        <time>2022-03-27T12:10:27Z</time>
      </trkpt>
      <trkpt lat="47.2724" lon="-1.41827">
        <ele>55</ele>
        <time>2022-03-27T12:10:29Z</time>
      </trkpt>
      <trkpt lat="47.27231" lon="-1.41842">
        <ele>56</ele>
        <time>2022-03-27T12:10:31Z</time>
      </trkpt>
      <trkpt lat="47.27223" lon="-1.41856">
        <ele>56</ele>
        <time>2022-03-27T12:10:33Z</time>
      </trkpt>
      <trkpt lat="47.27215" lon="-1.4187">
        <ele>56</ele>
        <time>2022-03-27T12:10:35Z</time>
      </trkpt>
      <trkpt lat="47.27207" lon="-1.41885">
        <ele>56</ele>
        <time>2022-03-27T12:10:37Z</time>
      </trkpt>
      <trkpt lat="47.27199" lon="-1.419">
        <ele>56</ele>
        <time>2022-03-27T12:10:39Z</time>
      </trkpt>
      <trkpt lat="47.2719" lon="-1.41916">
        <ele>56</ele>
        <time>2022-03-27T12:10:41Z</time>
      </trkpt>
      <trkpt lat="47.27182" lon="-1.41931">
        <ele>56</ele>
        <time>2022-03-27T12:10:43Z</time>
      </trkpt>
      <trkpt lat="47.27173" lon="-1.41945">
        <ele>55</ele>
        <time>2022-03-27T12:10:45Z</time>
      </trkpt>
      <trkpt lat="47.27164" lon="-1.4196">
        <ele>55</ele>
        <time>2022-03-27T12:10:47Z</time>
      </trkpt>
      <trkpt lat="47.27156" lon="-1.41975">
        <ele>55</ele>
        <time>2022-03-27T12:10:49Z</time>
      </trkpt>
      <trkpt lat="47.27148" lon="-1.4199">
        <ele>55</ele>
        <time>2022-03-27T12:10:51Z</time>
      </trkpt>
      <trkpt lat="47.2714" lon="-1.42004">
        <ele>55</ele>
        <time>2022-03-27T12:10:53Z</time>
      </trkpt>
      <trkpt lat="47.27132" lon="-1.42019">
        <ele>55</ele>
        <time>2022-03-27T12:10:55Z</time>
      </trkpt>
      <trkpt lat="47.27123" lon="-1.42032">
        <ele>55</ele>
        <time>2022-03-27T12:10:57Z</time>
      </trkpt>
      <trkpt lat="47.27114" lon="-1.42045">
        <ele>55</ele>
        <time>2022-03-27T12:10:59Z</time>
      </trkpt>
      <trkpt lat="47.27106" lon="-1.42057">
        <ele>55</ele>
        <time>2022-03-27T12:11:01Z</time>
      </trkpt>
      <trkpt lat="47.27097" lon="-1.4207">
        <ele>55</ele>
        <time>2022-03-27T12:11:03Z</time>
      </trkpt>
      <trkpt lat="47.27088" lon="-1.42083">
        <ele>54</ele>
        <time>2022-03-27T12:11:05Z</time>
      </trkpt>
      <trkpt lat="47.2708" lon="-1.42098">
        <ele>54</ele>
        <time>2022-03-27T12:11:07Z</time>
      </trkpt>
      <trkpt lat="47.27071" lon="-1.42112">
        <ele>54</ele>
        <time>2022-03-27T12:11:09Z</time>
      </trkpt>
      <trkpt lat="47.27064" lon="-1.42127">
        <ele>54</ele>
        <time>2022-03-27T12:11:11Z</time>
      </trkpt>
      <trkpt lat="47.27056" lon="-1.42141">
        <ele>54</ele>
        <time>2022-03-27T12:11:13Z</time>
      </trkpt>
      <trkpt lat="47.27048" lon="-1.42156">
        <ele>55</ele>
        <time>2022-03-27T12:11:15Z</time>
      </trkpt>
      <trkpt lat="47.2704" lon="-1.4217">
        <ele>55</ele>
        <time>2022-03-27T12:11:17Z</time>
      </trkpt>
      <trkpt lat="47.27032" lon="-1.42184">
        <ele>55</ele>
        <time>2022-03-27T12:11:19Z</time>
      </trkpt>
      <trkpt lat="47.27024" lon="-1.42198">
        <ele>55</ele>
        <time>2022-03-27T12:11:21Z</time>
      </trkpt>
      <trkpt lat="47.27016" lon="-1.42212">
        <ele>56</ele>
        <time>2022-03-27T12:11:23Z</time>
      </trkpt>
      <trkpt lat="47.27008" lon="-1.42227">
        <ele>55</ele>
        <time>2022-03-27T12:11:25Z</time>
      </trkpt>
      <trkpt lat="47.27" lon="-1.42241">
        <ele>55</ele>
        <time>2022-03-27T12:11:27Z</time>
      </trkpt>
      <trkpt lat="47.26992" lon="-1.42255">
        <ele>55</ele>
        <time>2022-03-27T12:11:29Z</time>
      </trkpt>
      <trkpt lat="47.26984" lon="-1.4227">
        <ele>55</ele>
        <time>2022-03-27T12:11:31Z</time>
      </trkpt>
      <trkpt lat="47.26976" lon="-1.42284">
        <ele>55</ele>
        <time>2022-03-27T12:11:33Z</time>
      </trkpt>
      <trkpt lat="47.26969" lon="-1.42299">
        <ele>55</ele>
        <time>2022-03-27T12:11:35Z</time>
      </trkpt>
      <trkpt lat="47.26962" lon="-1.42313">
        <ele>55</ele>
        <time>2022-03-27T12:11:37Z</time>
      </trkpt>
      <trkpt lat="47.26955" lon="-1.42328">
        <ele>55</ele>
        <time>2022-03-27T12:11:39Z</time>
      </trkpt>
      <trkpt lat="47.26947" lon="-1.42343">
        <ele>54</ele>
        <time>2022-03-27T12:11:41Z</time>
      </trkpt>
      <trkpt lat="47.2694" lon="-1.42358">
        <ele>54</ele>
        <time>2022-03-27T12:11:43Z</time>
      </trkpt>
      <trkpt lat="47.26932" lon="-1.42374">
        <ele>54</ele>
        <time>2022-03-27T12:11:45Z</time>
      </trkpt>
      <trkpt lat="47.26924" lon="-1.42389">
        <ele>54</ele>
        <time>2022-03-27T12:11:47Z</time>
      </trkpt>
      <trkpt lat="47.26916" lon="-1.42404">
        <ele>54</ele>
        <time>2022-03-27T12:11:49Z</time>
      </trkpt>
      <trkpt lat="47.26909" lon="-1.42418">
        <ele>54</ele>
        <time>2022-03-27T12:11:51Z</time>
      </trkpt>
      <trkpt lat="47.26901" lon="-1.42433">
        <ele>54</ele>
        <time>2022-03-27T12:11:53Z</time>
      </trkpt>
      <trkpt lat="47.26893" lon="-1.42447">
        <ele>54</ele>
        <time>2022-03-27T12:11:55Z</time>
      </trkpt>
      <trkpt lat="47.26885" lon="-1.42462">
        <ele>54</ele>
        <time>2022-03-27T12:11:57Z</time>
      </trkpt>
      <trkpt lat="47.26877" lon="-1.42477">
        <ele>54</ele>
        <time>2022-03-27T12:11:59Z</time>
      </trkpt>
      <trkpt lat="47.26869" lon="-1.42492">
        <ele>54</ele>
        <time>2022-03-27T12:12:01Z</time>
      </trkpt>
      <trkpt lat="47.26861" lon="-1.42506">
        <ele>54</ele>
        <time>2022-03-27T12:12:03Z</time>
      </trkpt>
      <trkpt lat="47.26853" lon="-1.42521">
        <ele>54</ele>
        <time>2022-03-27T12:12:05Z</time>
      </trkpt>
      <trkpt lat="47.26845" lon="-1.42537">
        <ele>54</ele>
        <time>2022-03-27T12:12:07Z</time>
      </trkpt>
      <trkpt lat="47.26837" lon="-1.42553">
        <ele>54</ele>
        <time>2022-03-27T12:12:09Z</time>
      </trkpt>
      <trkpt lat="47.26829" lon="-1.42568">
        <ele>54</ele>
        <time>2022-03-27T12:12:11Z</time>
      </trkpt>
      <trkpt lat="47.26821" lon="-1.42584">
        <ele>54</ele>
        <time>2022-03-27T12:12:13Z</time>
      </trkpt>
      <trkpt lat="47.26814" lon="-1.42601">
        <ele>53</ele>
        <time>2022-03-27T12:12:15Z</time>
      </trkpt>
      <trkpt lat="47.26807" lon="-1.42618">
        <ele>53</ele>
        <time>2022-03-27T12:12:17Z</time>
      </trkpt>
      <trkpt lat="47.268" lon="-1.42635">
        <ele>53</ele>
        <time>2022-03-27T12:12:19Z</time>
      </trkpt>
      <trkpt lat="47.26794" lon="-1.42651">
        <ele>53</ele>
        <time>2022-03-27T12:12:21Z</time>
      </trkpt>
      <trkpt lat="47.26788" lon="-1.42668">
        <ele>53</ele>
        <time>2022-03-27T12:12:23Z</time>
      </trkpt>
      <trkpt lat="47.26783" lon="-1.42685">
        <ele>53</ele>
        <time>2022-03-27T12:12:25Z</time>
      </trkpt>
      <trkpt lat="47.26776" lon="-1.42702">
        <ele>53</ele>
        <time>2022-03-27T12:12:27Z</time>
      </trkpt>
      <trkpt lat="47.26769" lon="-1.42719">
        <ele>53</ele>
        <time>2022-03-27T12:12:29Z</time>
      </trkpt>
      <trkpt lat="47.26762" lon="-1.42734">
        <ele>54</ele>
        <time>2022-03-27T12:12:31Z</time>
      </trkpt>
      <trkpt lat="47.26754" lon="-1.4275">
        <ele>54</ele>
        <time>2022-03-27T12:12:33Z</time>
      </trkpt>
      <trkpt lat="47.26746" lon="-1.42765">
        <ele>54</ele>
        <time>2022-03-27T12:12:35Z</time>
      </trkpt>
      <trkpt lat="47.26738" lon="-1.4278">
        <ele>54</ele>
        <time>2022-03-27T12:12:37Z</time>
      </trkpt>
      <trkpt lat="47.26733" lon="-1.42797">
        <ele>54</ele>
        <time>2022-03-27T12:12:39Z</time>
      </trkpt>
      <trkpt lat="47.26728" lon="-1.42814">
        <ele>54</ele>
        <time>2022-03-27T12:12:41Z</time>
      </trkpt>
      <trkpt lat="47.26723" lon="-1.42831">
        <ele>54</ele>
        <time>2022-03-27T12:12:43Z</time>
      </trkpt>
      <trkpt lat="47.26718" lon="-1.4285">
        <ele>53</ele>
        <time>2022-03-27T12:12:45Z</time>
      </trkpt>
      <trkpt lat="47.2671" lon="-1.42867">
        <ele>52</ele>
        <time>2022-03-27T12:12:47Z</time>
      </trkpt>
      <trkpt lat="47.26703" lon="-1.42884">
        <ele>52</ele>
        <time>2022-03-27T12:12:49Z</time>
      </trkpt>
      <trkpt lat="47.26694" lon="-1.42901">
        <ele>52</ele>
        <time>2022-03-27T12:12:51Z</time>
      </trkpt>
      <trkpt lat="47.26686" lon="-1.42917">
        <ele>52</ele>
        <time>2022-03-27T12:12:53Z</time>
      </trkpt>
      <trkpt lat="47.26678" lon="-1.42934">
        <ele>53</ele>
        <time>2022-03-27T12:12:55Z</time>
      </trkpt>
      <trkpt lat="47.26671" lon="-1.4295">
        <ele>53</ele>
        <time>2022-03-27T12:12:57Z</time>
      </trkpt>
      <trkpt lat="47.26662" lon="-1.42967">
        <ele>53</ele>
        <time>2022-03-27T12:12:59Z</time>
      </trkpt>
      <trkpt lat="47.26654" lon="-1.42983">
        <ele>53</ele>
        <time>2022-03-27T12:13:01Z</time>
      </trkpt>
      <trkpt lat="47.26646" lon="-1.42999">
        <ele>53</ele>
        <time>2022-03-27T12:13:03Z</time>
      </trkpt>
      <trkpt lat="47.26637" lon="-1.43015">
        <ele>52</ele>
        <time>2022-03-27T12:13:05Z</time>
      </trkpt>
      <trkpt lat="47.2663" lon="-1.4303">
        <ele>52</ele>
        <time>2022-03-27T12:13:07Z</time>
      </trkpt>
      <trkpt lat="47.26622" lon="-1.43046">
        <ele>52</ele>
        <time>2022-03-27T12:13:09Z</time>
      </trkpt>
      <trkpt lat="47.26613" lon="-1.43063">
        <ele>52</ele>
        <time>2022-03-27T12:13:11Z</time>
      </trkpt>
      <trkpt lat="47.26605" lon="-1.43078">
        <ele>52</ele>
        <time>2022-03-27T12:13:13Z</time>
      </trkpt>
      <trkpt lat="47.26596" lon="-1.43094">
        <ele>51</ele>
        <time>2022-03-27T12:13:15Z</time>
      </trkpt>
      <trkpt lat="47.26587" lon="-1.43109">
        <ele>51</ele>
        <time>2022-03-27T12:13:17Z</time>
      </trkpt>
      <trkpt lat="47.26578" lon="-1.43123">
        <ele>51</ele>
        <time>2022-03-27T12:13:19Z</time>
      </trkpt>
      <trkpt lat="47.26569" lon="-1.43138">
        <ele>51</ele>
        <time>2022-03-27T12:13:21Z</time>
      </trkpt>
      <trkpt lat="47.2656" lon="-1.43153">
        <ele>51</ele>
        <time>2022-03-27T12:13:23Z</time>
      </trkpt>
      <trkpt lat="47.26551" lon="-1.43167">
        <ele>51</ele>
        <time>2022-03-27T12:13:25Z</time>
      </trkpt>
      <trkpt lat="47.26541" lon="-1.43181">
        <ele>51</ele>
        <time>2022-03-27T12:13:27Z</time>
      </trkpt>
      <trkpt lat="47.26532" lon="-1.43194">
        <ele>50</ele>
        <time>2022-03-27T12:13:29Z</time>
      </trkpt>
      <trkpt lat="47.26523" lon="-1.43208">
        <ele>51</ele>
        <time>2022-03-27T12:13:31Z</time>
      </trkpt>
      <trkpt lat="47.26513" lon="-1.43221">
        <ele>51</ele>
        <time>2022-03-27T12:13:33Z</time>
      </trkpt>
      <trkpt lat="47.26504" lon="-1.43233">
        <ele>52</ele>
        <time>2022-03-27T12:13:35Z</time>
      </trkpt>
      <trkpt lat="47.26494" lon="-1.43246">
        <ele>52</ele>
        <time>2022-03-27T12:13:37Z</time>
      </trkpt>
      <trkpt lat="47.26485" lon="-1.4326">
        <ele>53</ele>
        <time>2022-03-27T12:13:39Z</time>
      </trkpt>
      <trkpt lat="47.26476" lon="-1.43273">
        <ele>52</ele>
        <time>2022-03-27T12:13:41Z</time>
      </trkpt>
      <trkpt lat="47.26467" lon="-1.43286">
        <ele>52</ele>
        <time>2022-03-27T12:13:43Z</time>
      </trkpt>
      <trkpt lat="47.26459" lon="-1.43299">
        <ele>52</ele>
        <time>2022-03-27T12:13:45Z</time>
      </trkpt>
      <trkpt lat="47.26451" lon="-1.43314">
        <ele>52</ele>
        <time>2022-03-27T12:13:47Z</time>
      </trkpt>
      <trkpt lat="47.26441" lon="-1.43328">
        <ele>52</ele>
        <time>2022-03-27T12:13:49Z</time>
      </trkpt>
      <trkpt lat="47.26431" lon="-1.43342">
        <ele>52</ele>
        <time>2022-03-27T12:13:51Z</time>
      </trkpt>
      <trkpt lat="47.26421" lon="-1.43354">
        <ele>52</ele>
        <time>2022-03-27T12:13:53Z</time>
      </trkpt>
      <trkpt lat="47.26411" lon="-1.43365">
        <ele>52</ele>
        <time>2022-03-27T12:13:55Z</time>
      </trkpt>
      <trkpt lat="47.26401" lon="-1.43377">
        <ele>51</ele>
        <time>2022-03-27T12:13:57Z</time>
      </trkpt>
      <trkpt lat="47.26391" lon="-1.43389">
        <ele>51</ele>
        <time>2022-03-27T12:13:59Z</time>
      </trkpt>
      <trkpt lat="47.2638" lon="-1.434">
        <ele>51</ele>
        <time>2022-03-27T12:14:01Z</time>
      </trkpt>
      <trkpt lat="47.2637" lon="-1.4341">
        <ele>51</ele>
        <time>2022-03-27T12:14:03Z</time>
      </trkpt>
      <trkpt lat="47.2636" lon="-1.43421">
        <ele>52</ele>
        <time>2022-03-27T12:14:05Z</time>
      </trkpt>
      <trkpt lat="47.26349" lon="-1.43432">
        <ele>52</ele>
        <time>2022-03-27T12:14:07Z</time>
      </trkpt>
      <trkpt lat="47.26339" lon="-1.43442">
        <ele>52</ele>
        <time>2022-03-27T12:14:09Z</time>
      </trkpt>
      <trkpt lat="47.26328" lon="-1.43454">
        <ele>52</ele>
        <time>2022-03-27T12:14:11Z</time>
      </trkpt>
      <trkpt lat="47.26318" lon="-1.43465">
        <ele>52</ele>
        <time>2022-03-27T12:14:13Z</time>
      </trkpt>
      <trkpt lat="47.26309" lon="-1.43475">
        <ele>53</ele>
        <time>2022-03-27T12:14:15Z</time>
      </trkpt>
      <trkpt lat="47.26298" lon="-1.43485">
        <ele>53</ele>
        <time>2022-03-27T12:14:17Z</time>
      </trkpt>
      <trkpt lat="47.26287" lon="-1.43489">
        <ele>54</ele>
        <time>2022-03-27T12:14:19Z</time>
      </trkpt>
      <trkpt lat="47.26276" lon="-1.43492">
        <ele>53</ele>
        <time>2022-03-27T12:14:21Z</time>
      </trkpt>
      <trkpt lat="47.26264" lon="-1.43494">
        <ele>53</ele>
        <time>2022-03-27T12:14:23Z</time>
      </trkpt>
      <trkpt lat="47.26253" lon="-1.43502">
        <ele>54</ele>
        <time>2022-03-27T12:14:25Z</time>
      </trkpt>
      <trkpt lat="47.26243" lon="-1.43512">
        <ele>54</ele>
        <time>2022-03-27T12:14:27Z</time>
      </trkpt>
      <trkpt lat="47.26233" lon="-1.43524">
        <ele>54</ele>
        <time>2022-03-27T12:14:29Z</time>
      </trkpt>
      <trkpt lat="47.26224" lon="-1.43536">
        <ele>54</ele>
        <time>2022-03-27T12:14:31Z</time>
      </trkpt>
      <trkpt lat="47.26218" lon="-1.43551">
        <ele>54</ele>
        <time>2022-03-27T12:14:33Z</time>
      </trkpt>
      <trkpt lat="47.26217" lon="-1.4357">
        <ele>54</ele>
        <time>2022-03-27T12:14:35Z</time>
      </trkpt>
      <trkpt lat="47.26211" lon="-1.43585">
        <ele>54</ele>
        <time>2022-03-27T12:14:37Z</time>
      </trkpt>
      <trkpt lat="47.26203" lon="-1.43598">
        <ele>54</ele>
        <time>2022-03-27T12:14:39Z</time>
      </trkpt>
      <trkpt lat="47.26195" lon="-1.43611">
        <ele>55</ele>
        <time>2022-03-27T12:14:41Z</time>
      </trkpt>
      <trkpt lat="47.26188" lon="-1.43625">
        <ele>55</ele>
        <time>2022-03-27T12:14:43Z</time>
      </trkpt>
      <trkpt lat="47.26181" lon="-1.43638">
        <ele>56</ele>
        <time>2022-03-27T12:14:45Z</time>
      </trkpt>
      <trkpt lat="47.26173" lon="-1.43652">
        <ele>56</ele>
        <time>2022-03-27T12:14:47Z</time>
      </trkpt>
      <trkpt lat="47.26164" lon="-1.43667">
        <ele>55</ele>
        <time>2022-03-27T12:14:49Z</time>
      </trkpt>
      <trkpt lat="47.26155" lon="-1.43681">
        <ele>55</ele>
        <time>2022-03-27T12:14:51Z</time>
      </trkpt>
      <trkpt lat="47.26146" lon="-1.43695">
        <ele>54</ele>
        <time>2022-03-27T12:14:53Z</time>
      </trkpt>
      <trkpt lat="47.26137" lon="-1.43709">
        <ele>54</ele>
        <time>2022-03-27T12:14:55Z</time>
      </trkpt>
      <trkpt lat="47.26128" lon="-1.43724">
        <ele>54</ele>
        <time>2022-03-27T12:14:57Z</time>
      </trkpt>
      <trkpt lat="47.26118" lon="-1.43738">
        <ele>54</ele>
        <time>2022-03-27T12:14:59Z</time>
      </trkpt>
      <trkpt lat="47.26108" lon="-1.4375">
        <ele>53</ele>
        <time>2022-03-27T12:15:01Z</time>
      </trkpt>
      <trkpt lat="47.26098" lon="-1.43762">
        <ele>53</ele>
        <time>2022-03-27T12:15:03Z</time>
      </trkpt>
      <trkpt lat="47.26088" lon="-1.43774">
        <ele>53</ele>
        <time>2022-03-27T12:15:05Z</time>
      </trkpt>
      <trkpt lat="47.26079" lon="-1.43787">
        <ele>54</ele>
        <time>2022-03-27T12:15:07Z</time>
      </trkpt>
      <trkpt lat="47.26068" lon="-1.43801">
        <ele>54</ele>
        <time>2022-03-27T12:15:09Z</time>
      </trkpt>
      <trkpt lat="47.26059" lon="-1.43816">
        <ele>54</ele>
        <time>2022-03-27T12:15:11Z</time>
      </trkpt>
      <trkpt lat="47.26052" lon="-1.43831">
        <ele>53</ele>
        <time>2022-03-27T12:15:13Z</time>
      </trkpt>
      <trkpt lat="47.26045" lon="-1.43849">
        <ele>53</ele>
        <time>2022-03-27T12:15:15Z</time>
      </trkpt>
      <trkpt lat="47.26037" lon="-1.43864">
        <ele>53</ele>
        <time>2022-03-27T12:15:17Z</time>
      </trkpt>
      <trkpt lat="47.26025" lon="-1.43875">
        <ele>52</ele>
        <time>2022-03-27T12:15:19Z</time>
      </trkpt>
      <trkpt lat="47.26014" lon="-1.43885">
        <ele>52</ele>
        <time>2022-03-27T12:15:21Z</time>
      </trkpt>
      <trkpt lat="47.26003" lon="-1.43896">
        <ele>51</ele>
        <time>2022-03-27T12:15:23Z</time>
      </trkpt>
      <trkpt lat="47.25992" lon="-1.43907">
        <ele>51</ele>
        <time>2022-03-27T12:15:25Z</time>
      </trkpt>
      <trkpt lat="47.25982" lon="-1.4392">
        <ele>52</ele>
        <time>2022-03-27T12:15:27Z</time>
      </trkpt>
      <trkpt lat="47.25971" lon="-1.43933">
        <ele>53</ele>
        <time>2022-03-27T12:15:29Z</time>
      </trkpt>
      <trkpt lat="47.25961" lon="-1.43945">
        <ele>52</ele>
        <time>2022-03-27T12:15:31Z</time>
      </trkpt>
      <trkpt lat="47.25951" lon="-1.43958">
        <ele>53</ele>
        <time>2022-03-27T12:15:33Z</time>
      </trkpt>
      <trkpt lat="47.2594" lon="-1.43969">
        <ele>54</ele>
        <time>2022-03-27T12:15:35Z</time>
      </trkpt>
      <trkpt lat="47.2593" lon="-1.43981">
        <ele>54</ele>
        <time>2022-03-27T12:15:37Z</time>
      </trkpt>
      <trkpt lat="47.25919" lon="-1.43992">
        <ele>53</ele>
        <time>2022-03-27T12:15:39Z</time>
      </trkpt>
      <trkpt lat="47.25908" lon="-1.44005">
        <ele>53</ele>
        <time>2022-03-27T12:15:41Z</time>
      </trkpt>
      <trkpt lat="47.25898" lon="-1.44017">
        <ele>52</ele>
        <time>2022-03-27T12:15:43Z</time>
      </trkpt>
      <trkpt lat="47.25887" lon="-1.4403">
        <ele>52</ele>
        <time>2022-03-27T12:15:45Z</time>
      </trkpt>
      <trkpt lat="47.25879" lon="-1.44045">
        <ele>52</ele>
        <time>2022-03-27T12:15:47Z</time>
      </trkpt>
      <trkpt lat="47.25873" lon="-1.44062">
        <ele>52</ele>
        <time>2022-03-27T12:15:49Z</time>
      </trkpt>
      <trkpt lat="47.25868" lon="-1.44079">
        <ele>51</ele>
        <time>2022-03-27T12:15:51Z</time>
      </trkpt>
      <trkpt lat="47.25859" lon="-1.44093">
        <ele>52</ele>
        <time>2022-03-27T12:15:53Z</time>
      </trkpt>
      <trkpt lat="47.25849" lon="-1.44108">
        <ele>52</ele>
        <time>2022-03-27T12:15:55Z</time>
      </trkpt>
      <trkpt lat="47.25838" lon="-1.44121">
        <ele>52</ele>
        <time>2022-03-27T12:15:57Z</time>
      </trkpt>
      <trkpt lat="47.25827" lon="-1.44132">
        <ele>52</ele>
        <time>2022-03-27T12:15:59Z</time>
      </trkpt>
      <trkpt lat="47.25815" lon="-1.44143">
        <ele>51</ele>
        <time>2022-03-27T12:16:01Z</time>
      </trkpt>
      <trkpt lat="47.25804" lon="-1.44155">
        <ele>51</ele>
        <time>2022-03-27T12:16:03Z</time>
      </trkpt>
      <trkpt lat="47.25793" lon="-1.44167">
        <ele>52</ele>
        <time>2022-03-27T12:16:05Z</time>
      </trkpt>
      <trkpt lat="47.25783" lon="-1.44179">
        <ele>51</ele>
        <time>2022-03-27T12:16:07Z</time>
      </trkpt>
      <trkpt lat="47.25773" lon="-1.44192">
        <ele>51</ele>
        <time>2022-03-27T12:16:09Z</time>
      </trkpt>
      <trkpt lat="47.25762" lon="-1.44204">
        <ele>52</ele>
        <time>2022-03-27T12:16:11Z</time>
      </trkpt>
      <trkpt lat="47.25752" lon="-1.44217">
        <ele>52</ele>
        <time>2022-03-27T12:16:13Z</time>
      </trkpt>
      <trkpt lat="47.25742" lon="-1.44231">
        <ele>52</ele>
        <time>2022-03-27T12:16:15Z</time>
      </trkpt>
      <trkpt lat="47.25732" lon="-1.44244">
        <ele>52</ele>
        <time>2022-03-27T12:16:17Z</time>
      </trkpt>
      <trkpt lat="47.25722" lon="-1.44257">
        <ele>52</ele>
        <time>2022-03-27T12:16:19Z</time>
      </trkpt>
      <trkpt lat="47.25712" lon="-1.44269">
        <ele>51</ele>
        <time>2022-03-27T12:16:21Z</time>
      </trkpt>
      <trkpt lat="47.257" lon="-1.44282">
        <ele>51</ele>
        <time>2022-03-27T12:16:23Z</time>
      </trkpt>
      <trkpt lat="47.2569" lon="-1.44295">
        <ele>51</ele>
        <time>2022-03-27T12:16:25Z</time>
      </trkpt>
      <trkpt lat="47.25679" lon="-1.44308">
        <ele>51</ele>
        <time>2022-03-27T12:16:27Z</time>
      </trkpt>
      <trkpt lat="47.25669" lon="-1.44322">
        <ele>52</ele>
        <time>2022-03-27T12:16:29Z</time>
      </trkpt>
      <trkpt lat="47.25659" lon="-1.44334">
        <ele>52</ele>
        <time>2022-03-27T12:16:31Z</time>
      </trkpt>
      <trkpt lat="47.25648" lon="-1.44346">
        <ele>52</ele>
        <time>2022-03-27T12:16:33Z</time>
      </trkpt>
      <trkpt lat="47.25637" lon="-1.44357">
        <ele>52</ele>
        <time>2022-03-27T12:16:35Z</time>
      </trkpt>
      <trkpt lat="47.25626" lon="-1.44369">
        <ele>51</ele>
        <time>2022-03-27T12:16:37Z</time>
      </trkpt>
      <trkpt lat="47.25616" lon="-1.4438">
        <ele>51</ele>
        <time>2022-03-27T12:16:39Z</time>
      </trkpt>
      <trkpt lat="47.25605" lon="-1.44393">
        <ele>51</ele>
        <time>2022-03-27T12:16:41Z</time>
      </trkpt>
      <trkpt lat="47.25594" lon="-1.44406">
        <ele>52</ele>
        <time>2022-03-27T12:16:43Z</time>
      </trkpt>
      <trkpt lat="47.25583" lon="-1.44418">
        <ele>52</ele>
        <time>2022-03-27T12:16:45Z</time>
      </trkpt>
      <trkpt lat="47.25573" lon="-1.44431">
        <ele>52</ele>
        <time>2022-03-27T12:16:47Z</time>
      </trkpt>
      <trkpt lat="47.25562" lon="-1.44445">
        <ele>51</ele>
        <time>2022-03-27T12:16:49Z</time>
      </trkpt>
      <trkpt lat="47.25552" lon="-1.4446">
        <ele>51</ele>
        <time>2022-03-27T12:16:51Z</time>
      </trkpt>
      <trkpt lat="47.25542" lon="-1.44475">
        <ele>52</ele>
        <time>2022-03-27T12:16:53Z</time>
      </trkpt>
      <trkpt lat="47.25533" lon="-1.4449">
        <ele>51</ele>
        <time>2022-03-27T12:16:55Z</time>
      </trkpt>
      <trkpt lat="47.25524" lon="-1.44505">
        <ele>51</ele>
        <time>2022-03-27T12:16:57Z</time>
      </trkpt>
      <trkpt lat="47.25514" lon="-1.44519">
        <ele>50</ele>
        <time>2022-03-27T12:16:59Z</time>
      </trkpt>
      <trkpt lat="47.25504" lon="-1.44532">
        <ele>50</ele>
        <time>2022-03-27T12:17:01Z</time>
      </trkpt>
      <trkpt lat="47.25495" lon="-1.44545">
        <ele>50</ele>
        <time>2022-03-27T12:17:03Z</time>
      </trkpt>
      <trkpt lat="47.25485" lon="-1.44559">
        <ele>50</ele>
        <time>2022-03-27T12:17:05Z</time>
      </trkpt>
      <trkpt lat="47.25475" lon="-1.44573">
        <ele>50</ele>
        <time>2022-03-27T12:17:07Z</time>
      </trkpt>
      <trkpt lat="47.25466" lon="-1.44588">
        <ele>50</ele>
        <time>2022-03-27T12:17:09Z</time>
      </trkpt>
      <trkpt lat="47.25456" lon="-1.44603">
        <ele>51</ele>
        <time>2022-03-27T12:17:11Z</time>
      </trkpt>
      <trkpt lat="47.25446" lon="-1.44618">
        <ele>51</ele>
        <time>2022-03-27T12:17:13Z</time>
      </trkpt>
      <trkpt lat="47.25436" lon="-1.44633">
        <ele>51</ele>
        <time>2022-03-27T12:17:15Z</time>
      </trkpt>
      <trkpt lat="47.25426" lon="-1.44647">
        <ele>52</ele>
        <time>2022-03-27T12:17:17Z</time>
      </trkpt>
      <trkpt lat="47.25415" lon="-1.44662">
        <ele>52</ele>
        <time>2022-03-27T12:17:19Z</time>
      </trkpt>
      <trkpt lat="47.25404" lon="-1.44676">
        <ele>51</ele>
        <time>2022-03-27T12:17:21Z</time>
      </trkpt>
      <trkpt lat="47.25393" lon="-1.4469">
        <ele>51</ele>
        <time>2022-03-27T12:17:23Z</time>
      </trkpt>
      <trkpt lat="47.25382" lon="-1.44703">
        <ele>51</ele>
        <time>2022-03-27T12:17:25Z</time>
      </trkpt>
      <trkpt lat="47.25371" lon="-1.44716">
        <ele>51</ele>
        <time>2022-03-27T12:17:27Z</time>
      </trkpt>
      <trkpt lat="47.2536" lon="-1.44728">
        <ele>51</ele>
        <time>2022-03-27T12:17:29Z</time>
      </trkpt>
      <trkpt lat="47.25348" lon="-1.44739">
        <ele>51</ele>
        <time>2022-03-27T12:17:31Z</time>
      </trkpt>
      <trkpt lat="47.25336" lon="-1.44751">
        <ele>51</ele>
        <time>2022-03-27T12:17:33Z</time>
      </trkpt>
      <trkpt lat="47.25324" lon="-1.44761">
        <ele>52</ele>
        <time>2022-03-27T12:17:35Z</time>
      </trkpt>
      <trkpt lat="47.25313" lon="-1.44773">
        <ele>51</ele>
        <time>2022-03-27T12:17:37Z</time>
      </trkpt>
      <trkpt lat="47.25302" lon="-1.44786">
        <ele>51</ele>
        <time>2022-03-27T12:17:39Z</time>
      </trkpt>
      <trkpt lat="47.2529" lon="-1.44799">
        <ele>51</ele>
        <time>2022-03-27T12:17:41Z</time>
      </trkpt>
      <trkpt lat="47.25279" lon="-1.44813">
        <ele>51</ele>
        <time>2022-03-27T12:17:43Z</time>
      </trkpt>
      <trkpt lat="47.25267" lon="-1.44826">
        <ele>51</ele>
        <time>2022-03-27T12:17:45Z</time>
      </trkpt>
      <trkpt lat="47.25256" lon="-1.44839">
        <ele>51</ele>
        <time>2022-03-27T12:17:47Z</time>
      </trkpt>
      <trkpt lat="47.25246" lon="-1.44852">
        <ele>51</ele>
        <time>2022-03-27T12:17:49Z</time>
      </trkpt>
      <trkpt lat="47.25234" lon="-1.44863">
        <ele>51</ele>
        <time>2022-03-27T12:17:51Z</time>
      </trkpt>
      <trkpt lat="47.25222" lon="-1.44873">
        <ele>51</ele>
        <time>2022-03-27T12:17:53Z</time>
      </trkpt>
      <trkpt lat="47.25211" lon="-1.44883">
        <ele>51</ele>
        <time>2022-03-27T12:17:55Z</time>
      </trkpt>
      <trkpt lat="47.25198" lon="-1.44893">
        <ele>51</ele>
        <time>2022-03-27T12:17:57Z</time>
      </trkpt>
      <trkpt lat="47.25186" lon="-1.44902">
        <ele>51</ele>
        <time>2022-03-27T12:17:59Z</time>
      </trkpt>
      <trkpt lat="47.25174" lon="-1.44912">
        <ele>51</ele>
        <time>2022-03-27T12:18:01Z</time>
      </trkpt>
      <trkpt lat="47.25162" lon="-1.44923">
        <ele>51</ele>
        <time>2022-03-27T12:18:03Z</time>
      </trkpt>
      <trkpt lat="47.2515" lon="-1.44934">
        <ele>51</ele>
        <time>2022-03-27T12:18:05Z</time>
      </trkpt>
      <trkpt lat="47.25138" lon="-1.44945">
        <ele>51</ele>
        <time>2022-03-27T12:18:07Z</time>
      </trkpt>
      <trkpt lat="47.25127" lon="-1.44956">
        <ele>51</ele>
        <time>2022-03-27T12:18:09Z</time>
      </trkpt>
      <trkpt lat="47.25115" lon="-1.44968">
        <ele>51</ele>
        <time>2022-03-27T12:18:11Z</time>
      </trkpt>
      <trkpt lat="47.25103" lon="-1.44979">
        <ele>51</ele>
        <time>2022-03-27T12:18:13Z</time>
      </trkpt>
      <trkpt lat="47.25091" lon="-1.44989">
        <ele>50</ele>
        <time>2022-03-27T12:18:15Z</time>
      </trkpt>
      <trkpt lat="47.25079" lon="-1.44998">
        <ele>50</ele>
        <time>2022-03-27T12:18:17Z</time>
      </trkpt>
      <trkpt lat="47.25067" lon="-1.45008">
        <ele>51</ele>
        <time>2022-03-27T12:18:19Z</time>
      </trkpt>
      <trkpt lat="47.25054" lon="-1.45018">
        <ele>52</ele>
        <time>2022-03-27T12:18:21Z</time>
      </trkpt>
      <trkpt lat="47.25042" lon="-1.45027">
        <ele>52</ele>
        <time>2022-03-27T12:18:23Z</time>
      </trkpt>
      <trkpt lat="47.2503" lon="-1.45038">
        <ele>51</ele>
        <time>2022-03-27T12:18:25Z</time>
      </trkpt>
      <trkpt lat="47.25018" lon="-1.45049">
        <ele>51</ele>
        <time>2022-03-27T12:18:27Z</time>
      </trkpt>
      <trkpt lat="47.25006" lon="-1.4506">
        <ele>51</ele>
        <time>2022-03-27T12:18:29Z</time>
      </trkpt>
      <trkpt lat="47.24994" lon="-1.45073">
        <ele>50</ele>
        <time>2022-03-27T12:18:31Z</time>
      </trkpt>
      <trkpt lat="47.24984" lon="-1.45086">
        <ele>50</ele>
        <time>2022-03-27T12:18:33Z</time>
      </trkpt>
      <trkpt lat="47.24973" lon="-1.45098">
        <ele>50</ele>
        <time>2022-03-27T12:18:35Z</time>
      </trkpt>
      <trkpt lat="47.24962" lon="-1.45111">
        <ele>50</ele>
        <time>2022-03-27T12:18:37Z</time>
      </trkpt>
      <trkpt lat="47.24951" lon="-1.45122">
        <ele>50</ele>
        <time>2022-03-27T12:18:39Z</time>
      </trkpt>
      <trkpt lat="47.24939" lon="-1.45133">
        <ele>49</ele>
        <time>2022-03-27T12:18:41Z</time>
      </trkpt>
      <trkpt lat="47.24928" lon="-1.45144">
        <ele>49</ele>
        <time>2022-03-27T12:18:43Z</time>
      </trkpt>
      <trkpt lat="47.24917" lon="-1.45156">
        <ele>50</ele>
        <time>2022-03-27T12:18:45Z</time>
      </trkpt>
      <trkpt lat="47.24907" lon="-1.45167">
        <ele>50</ele>
        <time>2022-03-27T12:18:47Z</time>
      </trkpt>
      <trkpt lat="47.24897" lon="-1.4518">
        <ele>50</ele>
        <time>2022-03-27T12:18:49Z</time>
      </trkpt>
      <trkpt lat="47.24888" lon="-1.45193">
        <ele>50</ele>
        <time>2022-03-27T12:18:51Z</time>
      </trkpt>
      <trkpt lat="47.24879" lon="-1.45207">
        <ele>51</ele>
        <time>2022-03-27T12:18:53Z</time>
      </trkpt>
      <trkpt lat="47.24869" lon="-1.4522">
        <ele>51</ele>
        <time>2022-03-27T12:18:55Z</time>
      </trkpt>
      <trkpt lat="47.2486" lon="-1.45233">
        <ele>51</ele>
        <time>2022-03-27T12:18:57Z</time>
      </trkpt>
      <trkpt lat="47.24851" lon="-1.45247">
        <ele>51</ele>
        <time>2022-03-27T12:18:59Z</time>
      </trkpt>
      <trkpt lat="47.24843" lon="-1.45262">
        <ele>51</ele>
        <time>2022-03-27T12:19:01Z</time>
      </trkpt>
      <trkpt lat="47.24835" lon="-1.45276">
        <ele>51</ele>
        <time>2022-03-27T12:19:03Z</time>
      </trkpt>
      <trkpt lat="47.24827" lon="-1.4529">
        <ele>52</ele>
        <time>2022-03-27T12:19:05Z</time>
      </trkpt>
      <trkpt lat="47.24819" lon="-1.45303">
        <ele>52</ele>
        <time>2022-03-27T12:19:07Z</time>
      </trkpt>
      <trkpt lat="47.24812" lon="-1.45318">
        <ele>52</ele>
        <time>2022-03-27T12:19:09Z</time>
      </trkpt>
      <trkpt lat="47.24806" lon="-1.45333">
        <ele>52</ele>
        <time>2022-03-27T12:19:11Z</time>
      </trkpt>
      <trkpt lat="47.24797" lon="-1.45356">
        <ele>52</ele>
        <time>2022-03-27T12:19:14Z</time>
      </trkpt>
      <trkpt lat="47.2479" lon="-1.45371">
        <ele>52</ele>
        <time>2022-03-27T12:19:16Z</time>
      </trkpt>
      <trkpt lat="47.24785" lon="-1.45388">
        <ele>51</ele>
        <time>2022-03-27T12:19:18Z</time>
      </trkpt>
      <trkpt lat="47.24778" lon="-1.45403">
        <ele>51</ele>
        <time>2022-03-27T12:19:20Z</time>
      </trkpt>
      <trkpt lat="47.24772" lon="-1.45419">
        <ele>51</ele>
        <time>2022-03-27T12:19:22Z</time>
      </trkpt>
      <trkpt lat="47.24764" lon="-1.45436">
        <ele>51</ele>
        <time>2022-03-27T12:19:24Z</time>
      </trkpt>
      <trkpt lat="47.24758" lon="-1.45452">
        <ele>50</ele>
        <time>2022-03-27T12:19:26Z</time>
      </trkpt>
      <trkpt lat="47.24752" lon="-1.45468">
        <ele>50</ele>
        <time>2022-03-27T12:19:28Z</time>
      </trkpt>
      <trkpt lat="47.24746" lon="-1.45483">
        <ele>50</ele>
        <time>2022-03-27T12:19:30Z</time>
      </trkpt>
      <trkpt lat="47.24738" lon="-1.45498">
        <ele>50</ele>
        <time>2022-03-27T12:19:32Z</time>
      </trkpt>
      <trkpt lat="47.24731" lon="-1.45513">
        <ele>51</ele>
        <time>2022-03-27T12:19:34Z</time>
      </trkpt>
      <trkpt lat="47.24725" lon="-1.4553">
        <ele>51</ele>
        <time>2022-03-27T12:19:36Z</time>
      </trkpt>
      <trkpt lat="47.24719" lon="-1.45547">
        <ele>51</ele>
        <time>2022-03-27T12:19:38Z</time>
      </trkpt>
      <trkpt lat="47.24713" lon="-1.45567">
        <ele>51</ele>
        <time>2022-03-27T12:19:40Z</time>
      </trkpt>
      <trkpt lat="47.24708" lon="-1.45587">
        <ele>51</ele>
        <time>2022-03-27T12:19:42Z</time>
      </trkpt>
      <trkpt lat="47.24702" lon="-1.45606">
        <ele>51</ele>
        <time>2022-03-27T12:19:44Z</time>
      </trkpt>
      <trkpt lat="47.24696" lon="-1.45624">
        <ele>52</ele>
        <time>2022-03-27T12:19:46Z</time>
      </trkpt>
      <trkpt lat="47.24691" lon="-1.45641">
        <ele>52</ele>
        <time>2022-03-27T12:19:48Z</time>
      </trkpt>
      <trkpt lat="47.24685" lon="-1.45658">
        <ele>52</ele>
        <time>2022-03-27T12:19:50Z</time>
      </trkpt>
      <trkpt lat="47.24681" lon="-1.45676">
        <ele>52</ele>
        <time>2022-03-27T12:19:52Z</time>
      </trkpt>
      <trkpt lat="47.24677" lon="-1.45694">
        <ele>52</ele>
        <time>2022-03-27T12:19:54Z</time>
      </trkpt>
      <trkpt lat="47.24671" lon="-1.45715">
        <ele>52</ele>
        <time>2022-03-27T12:19:56Z</time>
      </trkpt>
      <trkpt lat="47.24666" lon="-1.45734">
        <ele>52</ele>
        <time>2022-03-27T12:19:58Z</time>
      </trkpt>
      <trkpt lat="47.24662" lon="-1.45755">
        <ele>52</ele>
        <time>2022-03-27T12:20:00Z</time>
      </trkpt>
      <trkpt lat="47.24658" lon="-1.45774">
        <ele>52</ele>
        <time>2022-03-27T12:20:02Z</time>
      </trkpt>
      <trkpt lat="47.24653" lon="-1.45792">
        <ele>52</ele>
        <time>2022-03-27T12:20:04Z</time>
      </trkpt>
      <trkpt lat="47.24647" lon="-1.4581">
        <ele>53</ele>
        <time>2022-03-27T12:20:06Z</time>
      </trkpt>
      <trkpt lat="47.24641" lon="-1.45828">
        <ele>53</ele>
        <time>2022-03-27T12:20:08Z</time>
      </trkpt>
      <trkpt lat="47.24636" lon="-1.45847">
        <ele>53</ele>
        <time>2022-03-27T12:20:10Z</time>
      </trkpt>
      <trkpt lat="47.24631" lon="-1.45866">
        <ele>53</ele>
        <time>2022-03-27T12:20:12Z</time>
      </trkpt>
      <trkpt lat="47.24626" lon="-1.45886">
        <ele>52</ele>
        <time>2022-03-27T12:20:14Z</time>
      </trkpt>
      <trkpt lat="47.24621" lon="-1.45905">
        <ele>52</ele>
        <time>2022-03-27T12:20:16Z</time>
      </trkpt>
      <trkpt lat="47.24615" lon="-1.45923">
        <ele>52</ele>
        <time>2022-03-27T12:20:18Z</time>
      </trkpt>
      <trkpt lat="47.24608" lon="-1.4594">
        <ele>52</ele>
        <time>2022-03-27T12:20:20Z</time>
      </trkpt>
      <trkpt lat="47.246" lon="-1.45956">
        <ele>52</ele>
        <time>2022-03-27T12:20:22Z</time>
      </trkpt>
      <trkpt lat="47.24592" lon="-1.45972">
        <ele>51</ele>
        <time>2022-03-27T12:20:24Z</time>
      </trkpt>
      <trkpt lat="47.24585" lon="-1.45989">
        <ele>52</ele>
        <time>2022-03-27T12:20:26Z</time>
      </trkpt>
      <trkpt lat="47.24577" lon="-1.46005">
        <ele>52</ele>
        <time>2022-03-27T12:20:28Z</time>
      </trkpt>
      <trkpt lat="47.2457" lon="-1.46021">
        <ele>52</ele>
        <time>2022-03-27T12:20:30Z</time>
      </trkpt>
      <trkpt lat="47.24563" lon="-1.46037">
        <ele>52</ele>
        <time>2022-03-27T12:20:32Z</time>
      </trkpt>
      <trkpt lat="47.24555" lon="-1.46053">
        <ele>53</ele>
        <time>2022-03-27T12:20:34Z</time>
      </trkpt>
      <trkpt lat="47.24547" lon="-1.46068">
        <ele>53</ele>
        <time>2022-03-27T12:20:36Z</time>
      </trkpt>
      <trkpt lat="47.24539" lon="-1.46083">
        <ele>53</ele>
        <time>2022-03-27T12:20:38Z</time>
      </trkpt>
      <trkpt lat="47.24531" lon="-1.46098">
        <ele>53</ele>
        <time>2022-03-27T12:20:40Z</time>
      </trkpt>
      <trkpt lat="47.2452" lon="-1.46112">
        <ele>53</ele>
        <time>2022-03-27T12:20:42Z</time>
      </trkpt>
      <trkpt lat="47.2451" lon="-1.46124">
        <ele>54</ele>
        <time>2022-03-27T12:20:44Z</time>
      </trkpt>
      <trkpt lat="47.245" lon="-1.46136">
        <ele>54</ele>
        <time>2022-03-27T12:20:46Z</time>
      </trkpt>
      <trkpt lat="47.24489" lon="-1.46149">
        <ele>54</ele>
        <time>2022-03-27T12:20:48Z</time>
      </trkpt>
      <trkpt lat="47.2448" lon="-1.46161">
        <ele>54</ele>
        <time>2022-03-27T12:20:50Z</time>
      </trkpt>
      <trkpt lat="47.2447" lon="-1.46174">
        <ele>54</ele>
        <time>2022-03-27T12:20:52Z</time>
      </trkpt>
      <trkpt lat="47.2446" lon="-1.46185">
        <ele>54</ele>
        <time>2022-03-27T12:20:54Z</time>
      </trkpt>
      <trkpt lat="47.2445" lon="-1.46198">
        <ele>54</ele>
        <time>2022-03-27T12:20:56Z</time>
      </trkpt>
      <trkpt lat="47.2444" lon="-1.4621">
        <ele>54</ele>
        <time>2022-03-27T12:20:58Z</time>
      </trkpt>
      <trkpt lat="47.24431" lon="-1.46222">
        <ele>54</ele>
        <time>2022-03-27T12:21:00Z</time>
      </trkpt>
      <trkpt lat="47.24422" lon="-1.46234">
        <ele>54</ele>
        <time>2022-03-27T12:21:02Z</time>
      </trkpt>
      <trkpt lat="47.24413" lon="-1.46247">
        <ele>54</ele>
        <time>2022-03-27T12:21:04Z</time>
      </trkpt>
      <trkpt lat="47.24405" lon="-1.4626">
        <ele>55</ele>
        <time>2022-03-27T12:21:06Z</time>
      </trkpt>
      <trkpt lat="47.24396" lon="-1.46272">
        <ele>55</ele>
        <time>2022-03-27T12:21:08Z</time>
      </trkpt>
      <trkpt lat="47.24387" lon="-1.46285">
        <ele>55</ele>
        <time>2022-03-27T12:21:10Z</time>
      </trkpt>
      <trkpt lat="47.24378" lon="-1.46298">
        <ele>54</ele>
        <time>2022-03-27T12:21:12Z</time>
      </trkpt>
      <trkpt lat="47.24369" lon="-1.46313">
        <ele>54</ele>
        <time>2022-03-27T12:21:14Z</time>
      </trkpt>
      <trkpt lat="47.2436" lon="-1.46326">
        <ele>53</ele>
        <time>2022-03-27T12:21:16Z</time>
      </trkpt>
      <trkpt lat="47.24352" lon="-1.4634">
        <ele>53</ele>
        <time>2022-03-27T12:21:18Z</time>
      </trkpt>
      <trkpt lat="47.24343" lon="-1.46356">
        <ele>54</ele>
        <time>2022-03-27T12:21:20Z</time>
      </trkpt>
      <trkpt lat="47.24334" lon="-1.46371">
        <ele>54</ele>
        <time>2022-03-27T12:21:22Z</time>
      </trkpt>
      <trkpt lat="47.24326" lon="-1.46385">
        <ele>54</ele>
        <time>2022-03-27T12:21:24Z</time>
      </trkpt>
      <trkpt lat="47.24318" lon="-1.464">
        <ele>53</ele>
        <time>2022-03-27T12:21:26Z</time>
      </trkpt>
      <trkpt lat="47.2431" lon="-1.46414">
        <ele>53</ele>
        <time>2022-03-27T12:21:28Z</time>
      </trkpt>
      <trkpt lat="47.24301" lon="-1.46428">
        <ele>53</ele>
        <time>2022-03-27T12:21:30Z</time>
      </trkpt>
      <trkpt lat="47.24292" lon="-1.46441">
        <ele>54</ele>
        <time>2022-03-27T12:21:32Z</time>
      </trkpt>
      <trkpt lat="47.24283" lon="-1.46454">
        <ele>53</ele>
        <time>2022-03-27T12:21:34Z</time>
      </trkpt>
      <trkpt lat="47.24273" lon="-1.46467">
        <ele>54</ele>
        <time>2022-03-27T12:21:36Z</time>
      </trkpt>
      <trkpt lat="47.24263" lon="-1.46478">
        <ele>54</ele>
        <time>2022-03-27T12:21:38Z</time>
      </trkpt>
      <trkpt lat="47.24254" lon="-1.4649">
        <ele>53</ele>
        <time>2022-03-27T12:21:40Z</time>
      </trkpt>
      <trkpt lat="47.24244" lon="-1.46502">
        <ele>53</ele>
        <time>2022-03-27T12:21:42Z</time>
      </trkpt>
      <trkpt lat="47.24234" lon="-1.46514">
        <ele>54</ele>
        <time>2022-03-27T12:21:44Z</time>
      </trkpt>
      <trkpt lat="47.24225" lon="-1.46526">
        <ele>54</ele>
        <time>2022-03-27T12:21:46Z</time>
      </trkpt>
      <trkpt lat="47.24215" lon="-1.46537">
        <ele>54</ele>
        <time>2022-03-27T12:21:48Z</time>
      </trkpt>
      <trkpt lat="47.24206" lon="-1.46549">
        <ele>53</ele>
        <time>2022-03-27T12:21:50Z</time>
      </trkpt>
      <trkpt lat="47.24196" lon="-1.46562">
        <ele>53</ele>
        <time>2022-03-27T12:21:52Z</time>
      </trkpt>
      <trkpt lat="47.24187" lon="-1.46573">
        <ele>53</ele>
        <time>2022-03-27T12:21:54Z</time>
      </trkpt>
      <trkpt lat="47.24177" lon="-1.46585">
        <ele>54</ele>
        <time>2022-03-27T12:21:56Z</time>
      </trkpt>
      <trkpt lat="47.24167" lon="-1.46596">
        <ele>54</ele>
        <time>2022-03-27T12:21:58Z</time>
      </trkpt>
      <trkpt lat="47.24158" lon="-1.46608">
        <ele>54</ele>
        <time>2022-03-27T12:22:00Z</time>
      </trkpt>
      <trkpt lat="47.2415" lon="-1.4662">
        <ele>54</ele>
        <time>2022-03-27T12:22:02Z</time>
      </trkpt>
      <trkpt lat="47.24141" lon="-1.46631">
        <ele>54</ele>
        <time>2022-03-27T12:22:04Z</time>
      </trkpt>
      <trkpt lat="47.24132" lon="-1.46644">
        <ele>53</ele>
        <time>2022-03-27T12:22:06Z</time>
      </trkpt>
      <trkpt lat="47.24123" lon="-1.46657">
        <ele>54</ele>
        <time>2022-03-27T12:22:08Z</time>
      </trkpt>
      <trkpt lat="47.24114" lon="-1.4667">
        <ele>54</ele>
        <time>2022-03-27T12:22:10Z</time>
      </trkpt>
      <trkpt lat="47.24105" lon="-1.46683">
        <ele>54</ele>
        <time>2022-03-27T12:22:12Z</time>
      </trkpt>
      <trkpt lat="47.24095" lon="-1.46697">
        <ele>54</ele>
        <time>2022-03-27T12:22:14Z</time>
      </trkpt>
      <trkpt lat="47.24088" lon="-1.46712">
        <ele>54</ele>
        <time>2022-03-27T12:22:16Z</time>
      </trkpt>
      <trkpt lat="47.24081" lon="-1.4673">
        <ele>54</ele>
        <time>2022-03-27T12:22:18Z</time>
      </trkpt>
      <trkpt lat="47.24069" lon="-1.46743">
        <ele>55</ele>
        <time>2022-03-27T12:22:20Z</time>
      </trkpt>
      <trkpt lat="47.24055" lon="-1.46753">
        <ele>54</ele>
        <time>2022-03-27T12:22:22Z</time>
      </trkpt>
      <trkpt lat="47.24043" lon="-1.46765">
        <ele>54</ele>
        <time>2022-03-27T12:22:24Z</time>
      </trkpt>
      <trkpt lat="47.24032" lon="-1.46777">
        <ele>54</ele>
        <time>2022-03-27T12:22:26Z</time>
      </trkpt>
      <trkpt lat="47.24021" lon="-1.46789">
        <ele>54</ele>
        <time>2022-03-27T12:22:28Z</time>
      </trkpt>
      <trkpt lat="47.2401" lon="-1.46802">
        <ele>54</ele>
        <time>2022-03-27T12:22:30Z</time>
      </trkpt>
      <trkpt lat="47.23999" lon="-1.46814">
        <ele>53</ele>
        <time>2022-03-27T12:22:32Z</time>
      </trkpt>
      <trkpt lat="47.23988" lon="-1.46825">
        <ele>53</ele>
        <time>2022-03-27T12:22:34Z</time>
      </trkpt>
      <trkpt lat="47.23978" lon="-1.46836">
        <ele>53</ele>
        <time>2022-03-27T12:22:36Z</time>
      </trkpt>
      <trkpt lat="47.23967" lon="-1.46846">
        <ele>53</ele>
        <time>2022-03-27T12:22:38Z</time>
      </trkpt>
      <trkpt lat="47.23956" lon="-1.46857">
        <ele>53</ele>
        <time>2022-03-27T12:22:40Z</time>
      </trkpt>
      <trkpt lat="47.23945" lon="-1.46866">
        <ele>52</ele>
        <time>2022-03-27T12:22:42Z</time>
      </trkpt>
      <trkpt lat="47.23934" lon="-1.46875">
        <ele>52</ele>
        <time>2022-03-27T12:22:44Z</time>
      </trkpt>
      <trkpt lat="47.23924" lon="-1.46887">
        <ele>52</ele>
        <time>2022-03-27T12:22:46Z</time>
      </trkpt>
      <trkpt lat="47.23915" lon="-1.46899">
        <ele>52</ele>
        <time>2022-03-27T12:22:48Z</time>
      </trkpt>
      <trkpt lat="47.23905" lon="-1.46912">
        <ele>52</ele>
        <time>2022-03-27T12:22:50Z</time>
      </trkpt>
      <trkpt lat="47.23896" lon="-1.46923">
        <ele>52</ele>
        <time>2022-03-27T12:22:52Z</time>
      </trkpt>
      <trkpt lat="47.23887" lon="-1.46935">
        <ele>53</ele>
        <time>2022-03-27T12:22:54Z</time>
      </trkpt>
      <trkpt lat="47.23879" lon="-1.46947">
        <ele>53</ele>
        <time>2022-03-27T12:22:56Z</time>
      </trkpt>
      <trkpt lat="47.2387" lon="-1.46959">
        <ele>53</ele>
        <time>2022-03-27T12:22:58Z</time>
      </trkpt>
      <trkpt lat="47.2386" lon="-1.46972">
        <ele>53</ele>
        <time>2022-03-27T12:23:00Z</time>
      </trkpt>
      <trkpt lat="47.2385" lon="-1.46985">
        <ele>53</ele>
        <time>2022-03-27T12:23:02Z</time>
      </trkpt>
      <trkpt lat="47.2384" lon="-1.46998">
        <ele>53</ele>
        <time>2022-03-27T12:23:04Z</time>
      </trkpt>
      <trkpt lat="47.23831" lon="-1.47012">
        <ele>53</ele>
        <time>2022-03-27T12:23:06Z</time>
      </trkpt>
      <trkpt lat="47.23821" lon="-1.47025">
        <ele>53</ele>
        <time>2022-03-27T12:23:08Z</time>
      </trkpt>
      <trkpt lat="47.23813" lon="-1.47038">
        <ele>53</ele>
        <time>2022-03-27T12:23:10Z</time>
      </trkpt>
      <trkpt lat="47.23804" lon="-1.47051">
        <ele>53</ele>
        <time>2022-03-27T12:23:12Z</time>
      </trkpt>
      <trkpt lat="47.23794" lon="-1.47064">
        <ele>53</ele>
        <time>2022-03-27T12:23:14Z</time>
      </trkpt>
      <trkpt lat="47.23785" lon="-1.47077">
        <ele>53</ele>
        <time>2022-03-27T12:23:16Z</time>
      </trkpt>
      <trkpt lat="47.23776" lon="-1.4709">
        <ele>52</ele>
        <time>2022-03-27T12:23:18Z</time>
      </trkpt>
      <trkpt lat="47.23767" lon="-1.47103">
        <ele>52</ele>
        <time>2022-03-27T12:23:20Z</time>
      </trkpt>
      <trkpt lat="47.23757" lon="-1.47116">
        <ele>52</ele>
        <time>2022-03-27T12:23:22Z</time>
      </trkpt>
      <trkpt lat="47.23747" lon="-1.47129">
        <ele>52</ele>
        <time>2022-03-27T12:23:24Z</time>
      </trkpt>
      <trkpt lat="47.23737" lon="-1.47139">
        <ele>52</ele>
        <time>2022-03-27T12:23:26Z</time>
      </trkpt>
      <trkpt lat="47.23727" lon="-1.47151">
        <ele>52</ele>
        <time>2022-03-27T12:23:28Z</time>
      </trkpt>
      <trkpt lat="47.23718" lon="-1.47164">
        <ele>52</ele>
        <time>2022-03-27T12:23:30Z</time>
      </trkpt>
      <trkpt lat="47.23708" lon="-1.47177">
        <ele>52</ele>
        <time>2022-03-27T12:23:32Z</time>
      </trkpt>
      <trkpt lat="47.23699" lon="-1.47191">
        <ele>52</ele>
        <time>2022-03-27T12:23:34Z</time>
      </trkpt>
      <trkpt lat="47.23691" lon="-1.47204">
        <ele>52</ele>
        <time>2022-03-27T12:23:36Z</time>
      </trkpt>
      <trkpt lat="47.23684" lon="-1.4722">
        <ele>52</ele>
        <time>2022-03-27T12:23:38Z</time>
      </trkpt>
      <trkpt lat="47.23672" lon="-1.47231">
        <ele>52</ele>
        <time>2022-03-27T12:23:40Z</time>
      </trkpt>
      <trkpt lat="47.23662" lon="-1.47243">
        <ele>51</ele>
        <time>2022-03-27T12:23:42Z</time>
      </trkpt>
      <trkpt lat="47.23652" lon="-1.47254">
        <ele>52</ele>
        <time>2022-03-27T12:23:44Z</time>
      </trkpt>
      <trkpt lat="47.23641" lon="-1.47267">
        <ele>52</ele>
        <time>2022-03-27T12:23:46Z</time>
      </trkpt>
      <trkpt lat="47.23631" lon="-1.47279">
        <ele>51</ele>
        <time>2022-03-27T12:23:48Z</time>
      </trkpt>
      <trkpt lat="47.23621" lon="-1.4729">
        <ele>51</ele>
        <time>2022-03-27T12:23:50Z</time>
      </trkpt>
      <trkpt lat="47.2361" lon="-1.47301">
        <ele>52</ele>
        <time>2022-03-27T12:23:52Z</time>
      </trkpt>
      <trkpt lat="47.23599" lon="-1.47312">
        <ele>52</ele>
        <time>2022-03-27T12:23:54Z</time>
      </trkpt>
      <trkpt lat="47.23589" lon="-1.47322">
        <ele>52</ele>
        <time>2022-03-27T12:23:56Z</time>
      </trkpt>
      <trkpt lat="47.23578" lon="-1.47331">
        <ele>52</ele>
        <time>2022-03-27T12:23:58Z</time>
      </trkpt>
      <trkpt lat="47.23567" lon="-1.4734">
        <ele>51</ele>
        <time>2022-03-27T12:24:00Z</time>
      </trkpt>
      <trkpt lat="47.23555" lon="-1.4735">
        <ele>51</ele>
        <time>2022-03-27T12:24:02Z</time>
      </trkpt>
      <trkpt lat="47.23543" lon="-1.47359">
        <ele>51</ele>
        <time>2022-03-27T12:24:04Z</time>
      </trkpt>
      <trkpt lat="47.23532" lon="-1.47368">
        <ele>52</ele>
        <time>2022-03-27T12:24:06Z</time>
      </trkpt>
      <trkpt lat="47.2352" lon="-1.47377">
        <ele>52</ele>
        <time>2022-03-27T12:24:08Z</time>
      </trkpt>
      <trkpt lat="47.23509" lon="-1.47387">
        <ele>52</ele>
        <time>2022-03-27T12:24:10Z</time>
      </trkpt>
      <trkpt lat="47.23497" lon="-1.47396">
        <ele>52</ele>
        <time>2022-03-27T12:24:12Z</time>
      </trkpt>
      <trkpt lat="47.23486" lon="-1.47403">
        <ele>52</ele>
        <time>2022-03-27T12:24:14Z</time>
      </trkpt>
      <trkpt lat="47.23474" lon="-1.47409">
        <ele>52</ele>
        <time>2022-03-27T12:24:16Z</time>
      </trkpt>
      <trkpt lat="47.23462" lon="-1.47414">
        <ele>52</ele>
        <time>2022-03-27T12:24:18Z</time>
      </trkpt>
      <trkpt lat="47.2345" lon="-1.47418">
        <ele>52</ele>
        <time>2022-03-27T12:24:20Z</time>
      </trkpt>
      <trkpt lat="47.23439" lon="-1.47421">
        <ele>52</ele>
        <time>2022-03-27T12:24:22Z</time>
      </trkpt>
      <trkpt lat="47.23428" lon="-1.47428">
        <ele>52</ele>
        <time>2022-03-27T12:24:24Z</time>
      </trkpt>
      <trkpt lat="47.23417" lon="-1.47435">
        <ele>52</ele>
        <time>2022-03-27T12:24:26Z</time>
      </trkpt>
      <trkpt lat="47.23407" lon="-1.47445">
        <ele>51</ele>
        <time>2022-03-27T12:24:28Z</time>
      </trkpt>
      <trkpt lat="47.23395" lon="-1.47452">
        <ele>51</ele>
        <time>2022-03-27T12:24:30Z</time>
      </trkpt>
      <trkpt lat="47.23383" lon="-1.47459">
        <ele>51</ele>
        <time>2022-03-27T12:24:32Z</time>
      </trkpt>
      <trkpt lat="47.2337" lon="-1.47465">
        <ele>51</ele>
        <time>2022-03-27T12:24:34Z</time>
      </trkpt>
      <trkpt lat="47.23358" lon="-1.4747">
        <ele>51</ele>
        <time>2022-03-27T12:24:36Z</time>
      </trkpt>
      <trkpt lat="47.23346" lon="-1.47476">
        <ele>51</ele>
        <time>2022-03-27T12:24:38Z</time>
      </trkpt>
      <trkpt lat="47.23334" lon="-1.47482">
        <ele>51</ele>
        <time>2022-03-27T12:24:40Z</time>
      </trkpt>
      <trkpt lat="47.23322" lon="-1.47492">
        <ele>51</ele>
        <time>2022-03-27T12:24:42Z</time>
      </trkpt>
      <trkpt lat="47.23312" lon="-1.47499">
        <ele>51</ele>
        <time>2022-03-27T12:24:44Z</time>
      </trkpt>
      <trkpt lat="47.233" lon="-1.47508">
        <ele>52</ele>
        <time>2022-03-27T12:24:46Z</time>
      </trkpt>
      <trkpt lat="47.23288" lon="-1.47513">
        <ele>51</ele>
        <time>2022-03-27T12:24:48Z</time>
      </trkpt>
      <trkpt lat="47.23277" lon="-1.4752">
        <ele>51</ele>
        <time>2022-03-27T12:24:50Z</time>
      </trkpt>
      <trkpt lat="47.23267" lon="-1.4753">
        <ele>51</ele>
        <time>2022-03-27T12:24:52Z</time>
      </trkpt>
      <trkpt lat="47.23259" lon="-1.47544">
        <ele>51</ele>
        <time>2022-03-27T12:24:54Z</time>
      </trkpt>
      <trkpt lat="47.23252" lon="-1.47559">
        <ele>51</ele>
        <time>2022-03-27T12:24:56Z</time>
      </trkpt>
      <trkpt lat="47.23244" lon="-1.47573">
        <ele>51</ele>
        <time>2022-03-27T12:24:58Z</time>
      </trkpt>
      <trkpt lat="47.23236" lon="-1.47587">
        <ele>52</ele>
        <time>2022-03-27T12:25:00Z</time>
      </trkpt>
      <trkpt lat="47.23227" lon="-1.47601">
        <ele>52</ele>
        <time>2022-03-27T12:25:02Z</time>
      </trkpt>
      <trkpt lat="47.2322" lon="-1.47616">
        <ele>52</ele>
        <time>2022-03-27T12:25:04Z</time>
      </trkpt>
      <trkpt lat="47.23215" lon="-1.47632">
        <ele>52</ele>
        <time>2022-03-27T12:25:06Z</time>
      </trkpt>
      <trkpt lat="47.23209" lon="-1.47648">
        <ele>53</ele>
        <time>2022-03-27T12:25:08Z</time>
      </trkpt>
      <trkpt lat="47.23203" lon="-1.47664">
        <ele>52</ele>
        <time>2022-03-27T12:25:10Z</time>
      </trkpt>
      <trkpt lat="47.23196" lon="-1.4768">
        <ele>53</ele>
        <time>2022-03-27T12:25:12Z</time>
      </trkpt>
      <trkpt lat="47.2319" lon="-1.47694">
        <ele>53</ele>
        <time>2022-03-27T12:25:14Z</time>
      </trkpt>
      <trkpt lat="47.23183" lon="-1.47709">
        <ele>53</ele>
        <time>2022-03-27T12:25:16Z</time>
      </trkpt>
      <trkpt lat="47.23176" lon="-1.47725">
        <ele>53</ele>
        <time>2022-03-27T12:25:18Z</time>
      </trkpt>
      <trkpt lat="47.2317" lon="-1.4774">
        <ele>52</ele>
        <time>2022-03-27T12:25:20Z</time>
      </trkpt>
      <trkpt lat="47.23162" lon="-1.47757">
        <ele>52</ele>
        <time>2022-03-27T12:25:22Z</time>
      </trkpt>
      <trkpt lat="47.23156" lon="-1.47773">
        <ele>52</ele>
        <time>2022-03-27T12:25:24Z</time>
      </trkpt>
      <trkpt lat="47.23151" lon="-1.47789">
        <ele>52</ele>
        <time>2022-03-27T12:25:26Z</time>
      </trkpt>
      <trkpt lat="47.23145" lon="-1.47804">
        <ele>52</ele>
        <time>2022-03-27T12:25:28Z</time>
      </trkpt>
      <trkpt lat="47.23138" lon="-1.4782">
        <ele>51</ele>
        <time>2022-03-27T12:25:30Z</time>
      </trkpt>
      <trkpt lat="47.23131" lon="-1.47835">
        <ele>51</ele>
        <time>2022-03-27T12:25:32Z</time>
      </trkpt>
      <trkpt lat="47.23124" lon="-1.47851">
        <ele>51</ele>
        <time>2022-03-27T12:25:34Z</time>
      </trkpt>
      <trkpt lat="47.23115" lon="-1.47866">
        <ele>51</ele>
        <time>2022-03-27T12:25:36Z</time>
      </trkpt>
      <trkpt lat="47.23106" lon="-1.47879">
        <ele>51</ele>
        <time>2022-03-27T12:25:38Z</time>
      </trkpt>
      <trkpt lat="47.23096" lon="-1.47892">
        <ele>51</ele>
        <time>2022-03-27T12:25:40Z</time>
      </trkpt>
      <trkpt lat="47.23087" lon="-1.47905">
        <ele>51</ele>
        <time>2022-03-27T12:25:42Z</time>
      </trkpt>
      <trkpt lat="47.23078" lon="-1.47918">
        <ele>52</ele>
        <time>2022-03-27T12:25:44Z</time>
      </trkpt>
      <trkpt lat="47.23068" lon="-1.4793">
        <ele>52</ele>
        <time>2022-03-27T12:25:46Z</time>
      </trkpt>
      <trkpt lat="47.23059" lon="-1.47943">
        <ele>52</ele>
        <time>2022-03-27T12:25:48Z</time>
      </trkpt>
      <trkpt lat="47.23049" lon="-1.47956">
        <ele>52</ele>
        <time>2022-03-27T12:25:50Z</time>
      </trkpt>
      <trkpt lat="47.23039" lon="-1.47967">
        <ele>52</ele>
        <time>2022-03-27T12:25:52Z</time>
      </trkpt>
      <trkpt lat="47.2303" lon="-1.4798">
        <ele>52</ele>
        <time>2022-03-27T12:25:54Z</time>
      </trkpt>
      <trkpt lat="47.2302" lon="-1.47994">
        <ele>52</ele>
        <time>2022-03-27T12:25:56Z</time>
      </trkpt>
      <trkpt lat="47.23011" lon="-1.48008">
        <ele>52</ele>
        <time>2022-03-27T12:25:58Z</time>
      </trkpt>
      <trkpt lat="47.23003" lon="-1.48023">
        <ele>53</ele>
        <time>2022-03-27T12:26:00Z</time>
      </trkpt>
      <trkpt lat="47.22995" lon="-1.48037">
        <ele>53</ele>
        <time>2022-03-27T12:26:02Z</time>
      </trkpt>
      <trkpt lat="47.22987" lon="-1.48052">
        <ele>53</ele>
        <time>2022-03-27T12:26:04Z</time>
      </trkpt>
      <trkpt lat="47.22979" lon="-1.48066">
        <ele>53</ele>
        <time>2022-03-27T12:26:06Z</time>
      </trkpt>
      <trkpt lat="47.22971" lon="-1.48079">
        <ele>53</ele>
        <time>2022-03-27T12:26:08Z</time>
      </trkpt>
      <trkpt lat="47.22964" lon="-1.4809">
        <ele>53</ele>
        <time>2022-03-27T12:26:10Z</time>
      </trkpt>
      <trkpt lat="47.22956" lon="-1.48103">
        <ele>53</ele>
        <time>2022-03-27T12:26:12Z</time>
      </trkpt>
      <trkpt lat="47.22946" lon="-1.4811">
        <ele>53</ele>
        <time>2022-03-27T12:26:14Z</time>
      </trkpt>
      <trkpt lat="47.22933" lon="-1.48111">
        <ele>52</ele>
        <time>2022-03-27T12:26:16Z</time>
      </trkpt>
      <trkpt lat="47.22919" lon="-1.48114">
        <ele>52</ele>
        <time>2022-03-27T12:26:18Z</time>
      </trkpt>
      <trkpt lat="47.22908" lon="-1.48122">
        <ele>52</ele>
        <time>2022-03-27T12:26:20Z</time>
      </trkpt>
      <trkpt lat="47.22898" lon="-1.48134">
        <ele>52</ele>
        <time>2022-03-27T12:26:22Z</time>
      </trkpt>
      <trkpt lat="47.22889" lon="-1.48148">
        <ele>52</ele>
        <time>2022-03-27T12:26:24Z</time>
      </trkpt>
      <trkpt lat="47.2288" lon="-1.48162">
        <ele>52</ele>
        <time>2022-03-27T12:26:26Z</time>
      </trkpt>
      <trkpt lat="47.22871" lon="-1.48176">
        <ele>52</ele>
        <time>2022-03-27T12:26:28Z</time>
      </trkpt>
      <trkpt lat="47.22863" lon="-1.48189">
        <ele>52</ele>
        <time>2022-03-27T12:26:30Z</time>
      </trkpt>
      <trkpt lat="47.22855" lon="-1.48203">
        <ele>52</ele>
        <time>2022-03-27T12:26:32Z</time>
      </trkpt>
      <trkpt lat="47.22847" lon="-1.48217">
        <ele>52</ele>
        <time>2022-03-27T12:26:34Z</time>
      </trkpt>
      <trkpt lat="47.22838" lon="-1.48231">
        <ele>52</ele>
        <time>2022-03-27T12:26:36Z</time>
      </trkpt>
      <trkpt lat="47.22829" lon="-1.48244">
        <ele>52</ele>
        <time>2022-03-27T12:26:38Z</time>
      </trkpt>
      <trkpt lat="47.22821" lon="-1.48256">
        <ele>52</ele>
        <time>2022-03-27T12:26:40Z</time>
      </trkpt>
      <trkpt lat="47.22812" lon="-1.4827">
        <ele>53</ele>
        <time>2022-03-27T12:26:42Z</time>
      </trkpt>
      <trkpt lat="47.22803" lon="-1.48284">
        <ele>52</ele>
        <time>2022-03-27T12:26:44Z</time>
      </trkpt>
      <trkpt lat="47.22794" lon="-1.48298">
        <ele>52</ele>
        <time>2022-03-27T12:26:46Z</time>
      </trkpt>
      <trkpt lat="47.22785" lon="-1.48312">
        <ele>52</ele>
        <time>2022-03-27T12:26:48Z</time>
      </trkpt>
      <trkpt lat="47.22777" lon="-1.48326">
        <ele>52</ele>
        <time>2022-03-27T12:26:50Z</time>
      </trkpt>
      <trkpt lat="47.22767" lon="-1.4834">
        <ele>52</ele>
        <time>2022-03-27T12:26:52Z</time>
      </trkpt>
      <trkpt lat="47.22757" lon="-1.48352">
        <ele>52</ele>
        <time>2022-03-27T12:26:54Z</time>
      </trkpt>
      <trkpt lat="47.22748" lon="-1.48365">
        <ele>53</ele>
        <time>2022-03-27T12:26:56Z</time>
      </trkpt>
      <trkpt lat="47.22739" lon="-1.48378">
        <ele>53</ele>
        <time>2022-03-27T12:26:58Z</time>
      </trkpt>
      <trkpt lat="47.2273" lon="-1.48389">
        <ele>52</ele>
        <time>2022-03-27T12:27:00Z</time>
      </trkpt>
      <trkpt lat="47.22721" lon="-1.48401">
        <ele>53</ele>
        <time>2022-03-27T12:27:02Z</time>
      </trkpt>
      <trkpt lat="47.22712" lon="-1.48415">
        <ele>53</ele>
        <time>2022-03-27T12:27:04Z</time>
      </trkpt>
      <trkpt lat="47.22706" lon="-1.48432">
        <ele>53</ele>
        <time>2022-03-27T12:27:06Z</time>
      </trkpt>
      <trkpt lat="47.227" lon="-1.48449">
        <ele>53</ele>
        <time>2022-03-27T12:27:08Z</time>
      </trkpt>
      <trkpt lat="47.22693" lon="-1.48466">
        <ele>53</ele>
        <time>2022-03-27T12:27:10Z</time>
      </trkpt>
      <trkpt lat="47.22686" lon="-1.48482">
        <ele>53</ele>
        <time>2022-03-27T12:27:12Z</time>
      </trkpt>
      <trkpt lat="47.22679" lon="-1.48498">
        <ele>52</ele>
        <time>2022-03-27T12:27:14Z</time>
      </trkpt>
      <trkpt lat="47.22672" lon="-1.48515">
        <ele>52</ele>
        <time>2022-03-27T12:27:16Z</time>
      </trkpt>
      <trkpt lat="47.22667" lon="-1.48533">
        <ele>51</ele>
        <time>2022-03-27T12:27:18Z</time>
      </trkpt>
      <trkpt lat="47.22662" lon="-1.4855">
        <ele>51</ele>
        <time>2022-03-27T12:27:20Z</time>
      </trkpt>
      <trkpt lat="47.22656" lon="-1.48568">
        <ele>50</ele>
        <time>2022-03-27T12:27:22Z</time>
      </trkpt>
      <trkpt lat="47.22649" lon="-1.48585">
        <ele>50</ele>
        <time>2022-03-27T12:27:24Z</time>
      </trkpt>
      <trkpt lat="47.22643" lon="-1.486">
        <ele>50</ele>
        <time>2022-03-27T12:27:26Z</time>
      </trkpt>
      <trkpt lat="47.22637" lon="-1.48616">
        <ele>50</ele>
        <time>2022-03-27T12:27:28Z</time>
      </trkpt>
      <trkpt lat="47.22631" lon="-1.48633">
        <ele>50</ele>
        <time>2022-03-27T12:27:30Z</time>
      </trkpt>
      <trkpt lat="47.22625" lon="-1.4865">
        <ele>50</ele>
        <time>2022-03-27T12:27:32Z</time>
      </trkpt>
      <trkpt lat="47.22619" lon="-1.48666">
        <ele>50</ele>
        <time>2022-03-27T12:27:34Z</time>
      </trkpt>
      <trkpt lat="47.22613" lon="-1.48684">
        <ele>50</ele>
        <time>2022-03-27T12:27:36Z</time>
      </trkpt>
      <trkpt lat="47.22607" lon="-1.48702">
        <ele>50</ele>
        <time>2022-03-27T12:27:38Z</time>
      </trkpt>
      <trkpt lat="47.22603" lon="-1.4872">
        <ele>50</ele>
        <time>2022-03-27T12:27:40Z</time>
      </trkpt>
      <trkpt lat="47.22597" lon="-1.48738">
        <ele>51</ele>
        <time>2022-03-27T12:27:42Z</time>
      </trkpt>
      <trkpt lat="47.22593" lon="-1.48756">
        <ele>51</ele>
        <time>2022-03-27T12:27:44Z</time>
      </trkpt>
      <trkpt lat="47.22589" lon="-1.48774">
        <ele>50</ele>
        <time>2022-03-27T12:27:46Z</time>
      </trkpt>
      <trkpt lat="47.22584" lon="-1.48791">
        <ele>50</ele>
        <time>2022-03-27T12:27:48Z</time>
      </trkpt>
      <trkpt lat="47.22578" lon="-1.48809">
        <ele>50</ele>
        <time>2022-03-27T12:27:50Z</time>
      </trkpt>
      <trkpt lat="47.22572" lon="-1.48825">
        <ele>51</ele>
        <time>2022-03-27T12:27:52Z</time>
      </trkpt>
      <trkpt lat="47.22567" lon="-1.48842">
        <ele>51</ele>
        <time>2022-03-27T12:27:54Z</time>
      </trkpt>
      <trkpt lat="47.22563" lon="-1.48859">
        <ele>51</ele>
        <time>2022-03-27T12:27:56Z</time>
      </trkpt>
      <trkpt lat="47.22558" lon="-1.48876">
        <ele>51</ele>
        <time>2022-03-27T12:27:58Z</time>
      </trkpt>
      <trkpt lat="47.22554" lon="-1.48893">
        <ele>52</ele>
        <time>2022-03-27T12:28:00Z</time>
      </trkpt>
      <trkpt lat="47.22549" lon="-1.48909">
        <ele>52</ele>
        <time>2022-03-27T12:28:02Z</time>
      </trkpt>
      <trkpt lat="47.22544" lon="-1.48927">
        <ele>52</ele>
        <time>2022-03-27T12:28:04Z</time>
      </trkpt>
      <trkpt lat="47.22538" lon="-1.48945">
        <ele>52</ele>
        <time>2022-03-27T12:28:06Z</time>
      </trkpt>
      <trkpt lat="47.22532" lon="-1.48962">
        <ele>51</ele>
        <time>2022-03-27T12:28:08Z</time>
      </trkpt>
      <trkpt lat="47.22525" lon="-1.48978">
        <ele>51</ele>
        <time>2022-03-27T12:28:10Z</time>
      </trkpt>
      <trkpt lat="47.22519" lon="-1.48996">
        <ele>51</ele>
        <time>2022-03-27T12:28:12Z</time>
      </trkpt>
      <trkpt lat="47.22514" lon="-1.49015">
        <ele>50</ele>
        <time>2022-03-27T12:28:14Z</time>
      </trkpt>
      <trkpt lat="47.22509" lon="-1.49033">
        <ele>50</ele>
        <time>2022-03-27T12:28:16Z</time>
      </trkpt>
      <trkpt lat="47.22503" lon="-1.4905">
        <ele>51</ele>
        <time>2022-03-27T12:28:18Z</time>
      </trkpt>
      <trkpt lat="47.22497" lon="-1.49068">
        <ele>51</ele>
        <time>2022-03-27T12:28:20Z</time>
      </trkpt>
      <trkpt lat="47.2249" lon="-1.49085">
        <ele>51</ele>
        <time>2022-03-27T12:28:22Z</time>
      </trkpt>
      <trkpt lat="47.22485" lon="-1.49103">
        <ele>51</ele>
        <time>2022-03-27T12:28:24Z</time>
      </trkpt>
      <trkpt lat="47.2248" lon="-1.4912">
        <ele>51</ele>
        <time>2022-03-27T12:28:26Z</time>
      </trkpt>
      <trkpt lat="47.22475" lon="-1.49138">
        <ele>50</ele>
        <time>2022-03-27T12:28:28Z</time>
      </trkpt>
      <trkpt lat="47.2247" lon="-1.49156">
        <ele>50</ele>
        <time>2022-03-27T12:28:30Z</time>
      </trkpt>
      <trkpt lat="47.22463" lon="-1.49172">
        <ele>50</ele>
        <time>2022-03-27T12:28:32Z</time>
      </trkpt>
      <trkpt lat="47.22458" lon="-1.49185">
        <ele>49</ele>
        <time>2022-03-27T12:28:34Z</time>
      </trkpt>
      <trkpt lat="47.22452" lon="-1.49201">
        <ele>50</ele>
        <time>2022-03-27T12:28:37Z</time>
      </trkpt>
      <trkpt lat="47.22446" lon="-1.49214">
        <ele>50</ele>
        <time>2022-03-27T12:28:39Z</time>
      </trkpt>
      <trkpt lat="47.22442" lon="-1.49232">
        <ele>50</ele>
        <time>2022-03-27T12:28:41Z</time>
      </trkpt>
      <trkpt lat="47.22435" lon="-1.49249">
        <ele>50</ele>
        <time>2022-03-27T12:28:43Z</time>
      </trkpt>
      <trkpt lat="47.22428" lon="-1.49266">
        <ele>50</ele>
        <time>2022-03-27T12:28:45Z</time>
      </trkpt>
      <trkpt lat="47.2242" lon="-1.49284">
        <ele>50</ele>
        <time>2022-03-27T12:28:47Z</time>
      </trkpt>
      <trkpt lat="47.22411" lon="-1.49302">
        <ele>50</ele>
        <time>2022-03-27T12:28:49Z</time>
      </trkpt>
      <trkpt lat="47.22405" lon="-1.49322">
        <ele>51</ele>
        <time>2022-03-27T12:28:51Z</time>
      </trkpt>
      <trkpt lat="47.22399" lon="-1.49341">
        <ele>51</ele>
        <time>2022-03-27T12:28:53Z</time>
      </trkpt>
      <trkpt lat="47.22393" lon="-1.4936">
        <ele>51</ele>
        <time>2022-03-27T12:28:55Z</time>
      </trkpt>
      <trkpt lat="47.22386" lon="-1.49378">
        <ele>50</ele>
        <time>2022-03-27T12:28:57Z</time>
      </trkpt>
      <trkpt lat="47.22379" lon="-1.49395">
        <ele>51</ele>
        <time>2022-03-27T12:28:59Z</time>
      </trkpt>
      <trkpt lat="47.22372" lon="-1.49412">
        <ele>52</ele>
        <time>2022-03-27T12:29:01Z</time>
      </trkpt>
      <trkpt lat="47.22365" lon="-1.49428">
        <ele>52</ele>
        <time>2022-03-27T12:29:03Z</time>
      </trkpt>
      <trkpt lat="47.22358" lon="-1.49444">
        <ele>52</ele>
        <time>2022-03-27T12:29:05Z</time>
      </trkpt>
      <trkpt lat="47.22352" lon="-1.49462">
        <ele>51</ele>
        <time>2022-03-27T12:29:07Z</time>
      </trkpt>
      <trkpt lat="47.22347" lon="-1.4948">
        <ele>52</ele>
        <time>2022-03-27T12:29:09Z</time>
      </trkpt>
      <trkpt lat="47.22342" lon="-1.49498">
        <ele>52</ele>
        <time>2022-03-27T12:29:11Z</time>
      </trkpt>
      <trkpt lat="47.22336" lon="-1.49515">
        <ele>53</ele>
        <time>2022-03-27T12:29:13Z</time>
      </trkpt>
      <trkpt lat="47.2233" lon="-1.49533">
        <ele>52</ele>
        <time>2022-03-27T12:29:15Z</time>
      </trkpt>
      <trkpt lat="47.22324" lon="-1.4955">
        <ele>52</ele>
        <time>2022-03-27T12:29:17Z</time>
      </trkpt>
      <trkpt lat="47.22318" lon="-1.49567">
        <ele>53</ele>
        <time>2022-03-27T12:29:19Z</time>
      </trkpt>
      <trkpt lat="47.22312" lon="-1.49584">
        <ele>54</ele>
        <time>2022-03-27T12:29:21Z</time>
      </trkpt>
      <trkpt lat="47.22306" lon="-1.49602">
        <ele>54</ele>
        <time>2022-03-27T12:29:23Z</time>
      </trkpt>
      <trkpt lat="47.223" lon="-1.49619">
        <ele>54</ele>
        <time>2022-03-27T12:29:25Z</time>
      </trkpt>
      <trkpt lat="47.22295" lon="-1.49637">
        <ele>54</ele>
        <time>2022-03-27T12:29:27Z</time>
      </trkpt>
      <trkpt lat="47.22291" lon="-1.49655">
        <ele>54</ele>
        <time>2022-03-27T12:29:29Z</time>
      </trkpt>
      <trkpt lat="47.22286" lon="-1.49673">
        <ele>53</ele>
        <time>2022-03-27T12:29:31Z</time>
      </trkpt>
      <trkpt lat="47.2228" lon="-1.49691">
        <ele>54</ele>
        <time>2022-03-27T12:29:33Z</time>
      </trkpt>
      <trkpt lat="47.22271" lon="-1.49717">
        <ele>53</ele>
        <time>2022-03-27T12:29:36Z</time>
      </trkpt>
      <trkpt lat="47.22265" lon="-1.49734">
        <ele>53</ele>
        <time>2022-03-27T12:29:38Z</time>
      </trkpt>
      <trkpt lat="47.22261" lon="-1.49753">
        <ele>53</ele>
        <time>2022-03-27T12:29:40Z</time>
      </trkpt>
      <trkpt lat="47.22258" lon="-1.49772">
        <ele>52</ele>
        <time>2022-03-27T12:29:42Z</time>
      </trkpt>
      <trkpt lat="47.22256" lon="-1.4979">
        <ele>52</ele>
        <time>2022-03-27T12:29:44Z</time>
      </trkpt>
      <trkpt lat="47.22253" lon="-1.49809">
        <ele>52</ele>
        <time>2022-03-27T12:29:46Z</time>
      </trkpt>
      <trkpt lat="47.22249" lon="-1.49827">
        <ele>51</ele>
        <time>2022-03-27T12:29:48Z</time>
      </trkpt>
      <trkpt lat="47.22245" lon="-1.49845">
        <ele>51</ele>
        <time>2022-03-27T12:29:50Z</time>
      </trkpt>
      <trkpt lat="47.22239" lon="-1.49865">
        <ele>51</ele>
        <time>2022-03-27T12:29:52Z</time>
      </trkpt>
      <trkpt lat="47.22235" lon="-1.49884">
        <ele>51</ele>
        <time>2022-03-27T12:29:54Z</time>
      </trkpt>
      <trkpt lat="47.22232" lon="-1.49902">
        <ele>51</ele>
        <time>2022-03-27T12:29:56Z</time>
      </trkpt>
      <trkpt lat="47.22227" lon="-1.4992">
        <ele>51</ele>
        <time>2022-03-27T12:29:58Z</time>
      </trkpt>
      <trkpt lat="47.22223" lon="-1.49939">
        <ele>50</ele>
        <time>2022-03-27T12:30:00Z</time>
      </trkpt>
      <trkpt lat="47.22218" lon="-1.49958">
        <ele>50</ele>
        <time>2022-03-27T12:30:02Z</time>
      </trkpt>
      <trkpt lat="47.22214" lon="-1.49976">
        <ele>50</ele>
        <time>2022-03-27T12:30:04Z</time>
      </trkpt>
      <trkpt lat="47.22209" lon="-1.49993">
        <ele>50</ele>
        <time>2022-03-27T12:30:06Z</time>
      </trkpt>
      <trkpt lat="47.22203" lon="-1.5001">
        <ele>50</ele>
        <time>2022-03-27T12:30:08Z</time>
      </trkpt>
      <trkpt lat="47.22198" lon="-1.50029">
        <ele>50</ele>
        <time>2022-03-27T12:30:10Z</time>
      </trkpt>
      <trkpt lat="47.22194" lon="-1.50048">
        <ele>50</ele>
        <time>2022-03-27T12:30:12Z</time>
      </trkpt>
      <trkpt lat="47.2219" lon="-1.50066">
        <ele>49</ele>
        <time>2022-03-27T12:30:14Z</time>
      </trkpt>
      <trkpt lat="47.22186" lon="-1.50085">
        <ele>49</ele>
        <time>2022-03-27T12:30:16Z</time>
      </trkpt>
      <trkpt lat="47.22181" lon="-1.50102">
        <ele>49</ele>
        <time>2022-03-27T12:30:18Z</time>
      </trkpt>
      <trkpt lat="47.22175" lon="-1.5012">
        <ele>48</ele>
        <time>2022-03-27T12:30:20Z</time>
      </trkpt>
      <trkpt lat="47.2217" lon="-1.50137">
        <ele>48</ele>
        <time>2022-03-27T12:30:22Z</time>
      </trkpt>
      <trkpt lat="47.22164" lon="-1.50153">
        <ele>49</ele>
        <time>2022-03-27T12:30:24Z</time>
      </trkpt>
      <trkpt lat="47.22158" lon="-1.5017">
        <ele>49</ele>
        <time>2022-03-27T12:30:26Z</time>
      </trkpt>
      <trkpt lat="47.22154" lon="-1.50189">
        <ele>48</ele>
        <time>2022-03-27T12:30:28Z</time>
      </trkpt>
      <trkpt lat="47.22151" lon="-1.50207">
        <ele>48</ele>
        <time>2022-03-27T12:30:30Z</time>
      </trkpt>
      <trkpt lat="47.22147" lon="-1.50224">
        <ele>48</ele>
        <time>2022-03-27T12:30:32Z</time>
      </trkpt>
      <trkpt lat="47.22141" lon="-1.50241">
        <ele>48</ele>
        <time>2022-03-27T12:30:34Z</time>
      </trkpt>
      <trkpt lat="47.22136" lon="-1.50258">
        <ele>48</ele>
        <time>2022-03-27T12:30:36Z</time>
      </trkpt>
      <trkpt lat="47.2213" lon="-1.50276">
        <ele>47</ele>
        <time>2022-03-27T12:30:38Z</time>
      </trkpt>
      <trkpt lat="47.22124" lon="-1.50292">
        <ele>48</ele>
        <time>2022-03-27T12:30:40Z</time>
      </trkpt>
      <trkpt lat="47.22115" lon="-1.50308">
        <ele>49</ele>
        <time>2022-03-27T12:30:42Z</time>
      </trkpt>
      <trkpt lat="47.22106" lon="-1.50323">
        <ele>49</ele>
        <time>2022-03-27T12:30:44Z</time>
      </trkpt>
      <trkpt lat="47.22099" lon="-1.50337">
        <ele>49</ele>
        <time>2022-03-27T12:30:46Z</time>
      </trkpt>
      <trkpt lat="47.22093" lon="-1.50354">
        <ele>48</ele>
        <time>2022-03-27T12:30:48Z</time>
      </trkpt>
      <trkpt lat="47.22089" lon="-1.50372">
        <ele>48</ele>
        <time>2022-03-27T12:30:50Z</time>
      </trkpt>
      <trkpt lat="47.22085" lon="-1.50389">
        <ele>48</ele>
        <time>2022-03-27T12:30:52Z</time>
      </trkpt>
      <trkpt lat="47.22081" lon="-1.50406">
        <ele>48</ele>
        <time>2022-03-27T12:30:54Z</time>
      </trkpt>
      <trkpt lat="47.22076" lon="-1.50424">
        <ele>48</ele>
        <time>2022-03-27T12:30:56Z</time>
      </trkpt>
      <trkpt lat="47.22073" lon="-1.50443">
        <ele>48</ele>
        <time>2022-03-27T12:30:58Z</time>
      </trkpt>
      <trkpt lat="47.22069" lon="-1.50462">
        <ele>48</ele>
        <time>2022-03-27T12:31:00Z</time>
      </trkpt>
      <trkpt lat="47.22066" lon="-1.50481">
        <ele>48</ele>
        <time>2022-03-27T12:31:02Z</time>
      </trkpt>
      <trkpt lat="47.22064" lon="-1.50499">
        <ele>48</ele>
        <time>2022-03-27T12:31:04Z</time>
      </trkpt>
      <trkpt lat="47.22064" lon="-1.50517">
        <ele>48</ele>
        <time>2022-03-27T12:31:06Z</time>
      </trkpt>
      <trkpt lat="47.22062" lon="-1.50535">
        <ele>48</ele>
        <time>2022-03-27T12:31:08Z</time>
      </trkpt>
      <trkpt lat="47.22061" lon="-1.50554">
        <ele>48</ele>
        <time>2022-03-27T12:31:10Z</time>
      </trkpt>
      <trkpt lat="47.22059" lon="-1.50572">
        <ele>48</ele>
        <time>2022-03-27T12:31:12Z</time>
      </trkpt>
      <trkpt lat="47.22057" lon="-1.5059">
        <ele>48</ele>
        <time>2022-03-27T12:31:14Z</time>
      </trkpt>
      <trkpt lat="47.22056" lon="-1.50609">
        <ele>48</ele>
        <time>2022-03-27T12:31:16Z</time>
      </trkpt>
      <trkpt lat="47.22056" lon="-1.50629">
        <ele>48</ele>
        <time>2022-03-27T12:31:18Z</time>
      </trkpt>
      <trkpt lat="47.22056" lon="-1.50649">
        <ele>48</ele>
        <time>2022-03-27T12:31:20Z</time>
      </trkpt>
      <trkpt lat="47.22056" lon="-1.50667">
        <ele>48</ele>
        <time>2022-03-27T12:31:22Z</time>
      </trkpt>
      <trkpt lat="47.22055" lon="-1.50685">
        <ele>48</ele>
        <time>2022-03-27T12:31:24Z</time>
      </trkpt>
      <trkpt lat="47.22054" lon="-1.50703">
        <ele>49</ele>
        <time>2022-03-27T12:31:26Z</time>
      </trkpt>
      <trkpt lat="47.22052" lon="-1.50722">
        <ele>49</ele>
        <time>2022-03-27T12:31:28Z</time>
      </trkpt>
      <trkpt lat="47.2205" lon="-1.5074">
        <ele>49</ele>
        <time>2022-03-27T12:31:30Z</time>
      </trkpt>
      <trkpt lat="47.22048" lon="-1.50758">
        <ele>50</ele>
        <time>2022-03-27T12:31:32Z</time>
      </trkpt>
      <trkpt lat="47.22046" lon="-1.50777">
        <ele>50</ele>
        <time>2022-03-27T12:31:34Z</time>
      </trkpt>
      <trkpt lat="47.22042" lon="-1.50795">
        <ele>50</ele>
        <time>2022-03-27T12:31:36Z</time>
      </trkpt>
      <trkpt lat="47.22036" lon="-1.50812">
        <ele>50</ele>
        <time>2022-03-27T12:31:38Z</time>
      </trkpt>
      <trkpt lat="47.2203" lon="-1.50828">
        <ele>49</ele>
        <time>2022-03-27T12:31:40Z</time>
      </trkpt>
      <trkpt lat="47.22023" lon="-1.50844">
        <ele>49</ele>
        <time>2022-03-27T12:31:42Z</time>
      </trkpt>
      <trkpt lat="47.22015" lon="-1.50861">
        <ele>48</ele>
        <time>2022-03-27T12:31:44Z</time>
      </trkpt>
      <trkpt lat="47.22006" lon="-1.5088">
        <ele>48</ele>
        <time>2022-03-27T12:31:46Z</time>
      </trkpt>
      <trkpt lat="47.22" lon="-1.50898">
        <ele>48</ele>
        <time>2022-03-27T12:31:48Z</time>
      </trkpt>
      <trkpt lat="47.21995" lon="-1.50916">
        <ele>48</ele>
        <time>2022-03-27T12:31:50Z</time>
      </trkpt>
      <trkpt lat="47.2199" lon="-1.50934">
        <ele>48</ele>
        <time>2022-03-27T12:31:52Z</time>
      </trkpt>
      <trkpt lat="47.21984" lon="-1.50953">
        <ele>48</ele>
        <time>2022-03-27T12:31:54Z</time>
      </trkpt>
      <trkpt lat="47.21978" lon="-1.50971">
        <ele>48</ele>
        <time>2022-03-27T12:31:56Z</time>
      </trkpt>
      <trkpt lat="47.21973" lon="-1.50989">
        <ele>48</ele>
        <time>2022-03-27T12:31:58Z</time>
      </trkpt>
      <trkpt lat="47.21967" lon="-1.51007">
        <ele>48</ele>
        <time>2022-03-27T12:32:00Z</time>
      </trkpt>
      <trkpt lat="47.21963" lon="-1.51024">
        <ele>48</ele>
        <time>2022-03-27T12:32:02Z</time>
      </trkpt>
      <trkpt lat="47.21958" lon="-1.5104">
        <ele>48</ele>
        <time>2022-03-27T12:32:04Z</time>
      </trkpt>
      <trkpt lat="47.21953" lon="-1.51055">
        <ele>48</ele>
        <time>2022-03-27T12:32:06Z</time>
      </trkpt>
      <trkpt lat="47.21945" lon="-1.51066">
        <ele>49</ele>
        <time>2022-03-27T12:32:08Z</time>
      </trkpt>
      <trkpt lat="47.21936" lon="-1.51079">
        <ele>49</ele>
        <time>2022-03-27T12:32:10Z</time>
      </trkpt>
      <trkpt lat="47.2193" lon="-1.51096">
        <ele>50</ele>
        <time>2022-03-27T12:32:12Z</time>
      </trkpt>
      <trkpt lat="47.21925" lon="-1.51113">
        <ele>50</ele>
        <time>2022-03-27T12:32:14Z</time>
      </trkpt>
      <trkpt lat="47.21919" lon="-1.5113">
        <ele>50</ele>
        <time>2022-03-27T12:32:16Z</time>
      </trkpt>
      <trkpt lat="47.21914" lon="-1.51146">
        <ele>51</ele>
        <time>2022-03-27T12:32:18Z</time>
      </trkpt>
      <trkpt lat="47.21908" lon="-1.51163">
        <ele>51</ele>
        <time>2022-03-27T12:32:20Z</time>
      </trkpt>
      <trkpt lat="47.21903" lon="-1.51179">
        <ele>51</ele>
        <time>2022-03-27T12:32:22Z</time>
      </trkpt>
      <trkpt lat="47.21897" lon="-1.51196">
        <ele>51</ele>
        <time>2022-03-27T12:32:24Z</time>
      </trkpt>
      <trkpt lat="47.21892" lon="-1.51212">
        <ele>51</ele>
        <time>2022-03-27T12:32:26Z</time>
      </trkpt>
      <trkpt lat="47.21886" lon="-1.5123">
        <ele>51</ele>
        <time>2022-03-27T12:32:28Z</time>
      </trkpt>
      <trkpt lat="47.21881" lon="-1.51247">
        <ele>51</ele>
        <time>2022-03-27T12:32:30Z</time>
      </trkpt>
      <trkpt lat="47.21875" lon="-1.51264">
        <ele>51</ele>
        <time>2022-03-27T12:32:32Z</time>
      </trkpt>
      <trkpt lat="47.2187" lon="-1.5128">
        <ele>51</ele>
        <time>2022-03-27T12:32:34Z</time>
      </trkpt>
      <trkpt lat="47.21865" lon="-1.51297">
        <ele>51</ele>
        <time>2022-03-27T12:32:36Z</time>
      </trkpt>
      <trkpt lat="47.2186" lon="-1.51314">
        <ele>51</ele>
        <time>2022-03-27T12:32:38Z</time>
      </trkpt>
      <trkpt lat="47.21854" lon="-1.51331">
        <ele>51</ele>
        <time>2022-03-27T12:32:40Z</time>
      </trkpt>
      <trkpt lat="47.2185" lon="-1.51347">
        <ele>51</ele>
        <time>2022-03-27T12:32:42Z</time>
      </trkpt>
      <trkpt lat="47.21846" lon="-1.51365">
        <ele>51</ele>
        <time>2022-03-27T12:32:44Z</time>
      </trkpt>
      <trkpt lat="47.21842" lon="-1.51382">
        <ele>51</ele>
        <time>2022-03-27T12:32:46Z</time>
      </trkpt>
      <trkpt lat="47.21838" lon="-1.514">
        <ele>51</ele>
        <time>2022-03-27T12:32:48Z</time>
      </trkpt>
      <trkpt lat="47.21835" lon="-1.51417">
        <ele>51</ele>
        <time>2022-03-27T12:32:50Z</time>
      </trkpt>
      <trkpt lat="47.2183" lon="-1.51434">
        <ele>51</ele>
        <time>2022-03-27T12:32:52Z</time>
      </trkpt>
      <trkpt lat="47.21826" lon="-1.51451">
        <ele>51</ele>
        <time>2022-03-27T12:32:54Z</time>
      </trkpt>
      <trkpt lat="47.21822" lon="-1.51468">
        <ele>51</ele>
        <time>2022-03-27T12:32:56Z</time>
      </trkpt>
      <trkpt lat="47.21819" lon="-1.51483">
        <ele>51</ele>
        <time>2022-03-27T12:32:58Z</time>
      </trkpt>
      <trkpt lat="47.21815" lon="-1.51497">
        <ele>51</ele>
        <time>2022-03-27T12:33:00Z</time>
      </trkpt>
      <trkpt lat="47.21816" lon="-1.51513">
        <ele>50</ele>
        <time>2022-03-27T12:33:03Z</time>
      </trkpt>
      <trkpt lat="47.21823" lon="-1.51529">
        <ele>51</ele>
        <time>2022-03-27T12:33:06Z</time>
      </trkpt>
      <trkpt lat="47.21827" lon="-1.51543">
        <ele>51</ele>
        <time>2022-03-27T12:33:08Z</time>
      </trkpt>
      <trkpt lat="47.21836" lon="-1.51556">
        <ele>51</ele>
        <time>2022-03-27T12:33:10Z</time>
      </trkpt>
      <trkpt lat="47.21848" lon="-1.51568">
        <ele>51</ele>
        <time>2022-03-27T12:33:12Z</time>
      </trkpt>
      <trkpt lat="47.21861" lon="-1.51573">
        <ele>50</ele>
        <time>2022-03-27T12:33:14Z</time>
      </trkpt>
      <trkpt lat="47.21875" lon="-1.51577">
        <ele>50</ele>
        <time>2022-03-27T12:33:16Z</time>
      </trkpt>
      <trkpt lat="47.21889" lon="-1.51582">
        <ele>50</ele>
        <time>2022-03-27T12:33:18Z</time>
      </trkpt>
      <trkpt lat="47.21902" lon="-1.51587">
        <ele>51</ele>
        <time>2022-03-27T12:33:20Z</time>
      </trkpt>
      <trkpt lat="47.21915" lon="-1.51593">
        <ele>51</ele>
        <time>2022-03-27T12:33:22Z</time>
      </trkpt>
      <trkpt lat="47.21928" lon="-1.516">
        <ele>51</ele>
        <time>2022-03-27T12:33:24Z</time>
      </trkpt>
      <trkpt lat="47.2194" lon="-1.51604">
        <ele>51</ele>
        <time>2022-03-27T12:33:26Z</time>
      </trkpt>
      <trkpt lat="47.21951" lon="-1.51609">
        <ele>52</ele>
        <time>2022-03-27T12:33:28Z</time>
      </trkpt>
      <trkpt lat="47.21961" lon="-1.51615">
        <ele>52</ele>
        <time>2022-03-27T12:33:30Z</time>
      </trkpt>
      <trkpt lat="47.21972" lon="-1.51619">
        <ele>52</ele>
        <time>2022-03-27T12:33:32Z</time>
      </trkpt>
      <trkpt lat="47.21984" lon="-1.51626">
        <ele>52</ele>
        <time>2022-03-27T12:33:34Z</time>
      </trkpt>
      <trkpt lat="47.21997" lon="-1.51633">
        <ele>52</ele>
        <time>2022-03-27T12:33:36Z</time>
      </trkpt>
      <trkpt lat="47.2201" lon="-1.5164">
        <ele>52</ele>
        <time>2022-03-27T12:33:38Z</time>
      </trkpt>
      <trkpt lat="47.22021" lon="-1.51645">
        <ele>52</ele>
        <time>2022-03-27T12:33:40Z</time>
      </trkpt>
      <trkpt lat="47.2203" lon="-1.5165">
        <ele>53</ele>
        <time>2022-03-27T12:33:42Z</time>
      </trkpt>
      <trkpt lat="47.22039" lon="-1.51654">
        <ele>54</ele>
        <time>2022-03-27T12:33:44Z</time>
      </trkpt>
      <trkpt lat="47.22049" lon="-1.51659">
        <ele>54</ele>
        <time>2022-03-27T12:33:46Z</time>
      </trkpt>
      <trkpt lat="47.2206" lon="-1.51664">
        <ele>54</ele>
        <time>2022-03-27T12:33:48Z</time>
      </trkpt>
      <trkpt lat="47.22071" lon="-1.5167">
        <ele>54</ele>
        <time>2022-03-27T12:33:50Z</time>
      </trkpt>
      <trkpt lat="47.22083" lon="-1.51677">
        <ele>54</ele>
        <time>2022-03-27T12:33:52Z</time>
      </trkpt>
      <trkpt lat="47.22096" lon="-1.51684">
        <ele>55</ele>
        <time>2022-03-27T12:33:54Z</time>
      </trkpt>
      <trkpt lat="47.22108" lon="-1.51692">
        <ele>55</ele>
        <time>2022-03-27T12:33:56Z</time>
      </trkpt>
      <trkpt lat="47.22119" lon="-1.51699">
        <ele>56</ele>
        <time>2022-03-27T12:33:58Z</time>
      </trkpt>
      <trkpt lat="47.2213" lon="-1.51706">
        <ele>56</ele>
        <time>2022-03-27T12:34:00Z</time>
      </trkpt>
      <trkpt lat="47.2214" lon="-1.51713">
        <ele>57</ele>
        <time>2022-03-27T12:34:02Z</time>
      </trkpt>
      <trkpt lat="47.22149" lon="-1.5172">
        <ele>58</ele>
        <time>2022-03-27T12:34:04Z</time>
      </trkpt>
      <trkpt lat="47.22159" lon="-1.51726">
        <ele>58</ele>
        <time>2022-03-27T12:34:06Z</time>
      </trkpt>
      <trkpt lat="47.2217" lon="-1.51733">
        <ele>59</ele>
        <time>2022-03-27T12:34:08Z</time>
      </trkpt>
      <trkpt lat="47.22179" lon="-1.5174">
        <ele>59</ele>
        <time>2022-03-27T12:34:10Z</time>
      </trkpt>
      <trkpt lat="47.22189" lon="-1.51748">
        <ele>59</ele>
        <time>2022-03-27T12:34:12Z</time>
      </trkpt>
      <trkpt lat="47.22198" lon="-1.51755">
        <ele>60</ele>
        <time>2022-03-27T12:34:14Z</time>
      </trkpt>
      <trkpt lat="47.22206" lon="-1.51762">
        <ele>60</ele>
        <time>2022-03-27T12:34:16Z</time>
      </trkpt>
      <trkpt lat="47.22215" lon="-1.51771">
        <ele>60</ele>
        <time>2022-03-27T12:34:18Z</time>
      </trkpt>
      <trkpt lat="47.22224" lon="-1.51779">
        <ele>59</ele>
        <time>2022-03-27T12:34:20Z</time>
      </trkpt>
      <trkpt lat="47.22234" lon="-1.51789">
        <ele>58</ele>
        <time>2022-03-27T12:34:22Z</time>
      </trkpt>
      <trkpt lat="47.22244" lon="-1.51799">
        <ele>58</ele>
        <time>2022-03-27T12:34:24Z</time>
      </trkpt>
      <trkpt lat="47.22255" lon="-1.51811">
        <ele>57</ele>
        <time>2022-03-27T12:34:26Z</time>
      </trkpt>
      <trkpt lat="47.22267" lon="-1.51823">
        <ele>57</ele>
        <time>2022-03-27T12:34:28Z</time>
      </trkpt>
      <trkpt lat="47.22278" lon="-1.51837">
        <ele>56</ele>
        <time>2022-03-27T12:34:30Z</time>
      </trkpt>
      <trkpt lat="47.22291" lon="-1.51851">
        <ele>55</ele>
        <time>2022-03-27T12:34:32Z</time>
      </trkpt>
      <trkpt lat="47.22304" lon="-1.51863">
        <ele>54</ele>
        <time>2022-03-27T12:34:34Z</time>
      </trkpt>
      <trkpt lat="47.22317" lon="-1.51867">
        <ele>54</ele>
        <time>2022-03-27T12:34:36Z</time>
      </trkpt>
      <trkpt lat="47.22324" lon="-1.51853">
        <ele>55</ele>
        <time>2022-03-27T12:34:38Z</time>
      </trkpt>
      <trkpt lat="47.2233" lon="-1.51838">
        <ele>56</ele>
        <time>2022-03-27T12:34:40Z</time>
      </trkpt>
      <trkpt lat="47.22335" lon="-1.51825">
        <ele>56</ele>
        <time>2022-03-27T12:34:42Z</time>
      </trkpt>
      <trkpt lat="47.2234" lon="-1.51813">
        <ele>56</ele>
        <time>2022-03-27T12:34:44Z</time>
      </trkpt>
      <trkpt lat="47.22351" lon="-1.51811">
        <ele>57</ele>
        <time>2022-03-27T12:34:46Z</time>
      </trkpt>
      <trkpt lat="47.22361" lon="-1.51817">
        <ele>57</ele>
        <time>2022-03-27T12:34:48Z</time>
      </trkpt>
      <trkpt lat="47.22372" lon="-1.51824">
        <ele>56</ele>
        <time>2022-03-27T12:34:50Z</time>
      </trkpt>
      <trkpt lat="47.22382" lon="-1.51831">
        <ele>56</ele>
        <time>2022-03-27T12:34:52Z</time>
      </trkpt>
      <trkpt lat="47.22392" lon="-1.51838">
        <ele>56</ele>
        <time>2022-03-27T12:34:54Z</time>
      </trkpt>
      <trkpt lat="47.22402" lon="-1.51844">
        <ele>56</ele>
        <time>2022-03-27T12:34:56Z</time>
      </trkpt>
      <trkpt lat="47.22412" lon="-1.51852">
        <ele>56</ele>
        <time>2022-03-27T12:34:58Z</time>
      </trkpt>
      <trkpt lat="47.22423" lon="-1.51859">
        <ele>56</ele>
        <time>2022-03-27T12:35:00Z</time>
      </trkpt>
      <trkpt lat="47.22433" lon="-1.51866">
        <ele>56</ele>
        <time>2022-03-27T12:35:02Z</time>
      </trkpt>
      <trkpt lat="47.22443" lon="-1.51875">
        <ele>56</ele>
        <time>2022-03-27T12:35:04Z</time>
      </trkpt>
      <trkpt lat="47.22453" lon="-1.51882">
        <ele>56</ele>
        <time>2022-03-27T12:35:06Z</time>
      </trkpt>
      <trkpt lat="47.22464" lon="-1.51889">
        <ele>56</ele>
        <time>2022-03-27T12:35:08Z</time>
      </trkpt>
      <trkpt lat="47.22474" lon="-1.51898">
        <ele>56</ele>
        <time>2022-03-27T12:35:10Z</time>
      </trkpt>
      <trkpt lat="47.22484" lon="-1.51906">
        <ele>57</ele>
        <time>2022-03-27T12:35:12Z</time>
      </trkpt>
      <trkpt lat="47.22494" lon="-1.51911">
        <ele>57</ele>
        <time>2022-03-27T12:35:14Z</time>
      </trkpt>
      <trkpt lat="47.22505" lon="-1.51911">
        <ele>57</ele>
        <time>2022-03-27T12:35:16Z</time>
      </trkpt>
      <trkpt lat="47.22516" lon="-1.51906">
        <ele>57</ele>
        <time>2022-03-27T12:35:18Z</time>
      </trkpt>
      <trkpt lat="47.22527" lon="-1.51898">
        <ele>58</ele>
        <time>2022-03-27T12:35:20Z</time>
      </trkpt>
      <trkpt lat="47.22538" lon="-1.51892">
        <ele>59</ele>
        <time>2022-03-27T12:35:22Z</time>
      </trkpt>
      <trkpt lat="47.22549" lon="-1.51886">
        <ele>59</ele>
        <time>2022-03-27T12:35:24Z</time>
      </trkpt>
      <trkpt lat="47.22561" lon="-1.51881">
        <ele>59</ele>
        <time>2022-03-27T12:35:26Z</time>
      </trkpt>
      <trkpt lat="47.22572" lon="-1.51874">
        <ele>59</ele>
        <time>2022-03-27T12:35:28Z</time>
      </trkpt>
      <trkpt lat="47.22583" lon="-1.51869">
        <ele>59</ele>
        <time>2022-03-27T12:35:30Z</time>
      </trkpt>
      <trkpt lat="47.22593" lon="-1.51864">
        <ele>60</ele>
        <time>2022-03-27T12:35:32Z</time>
      </trkpt>
      <trkpt lat="47.22605" lon="-1.51857">
        <ele>60</ele>
        <time>2022-03-27T12:35:34Z</time>
      </trkpt>
      <trkpt lat="47.22616" lon="-1.51851">
        <ele>60</ele>
        <time>2022-03-27T12:35:36Z</time>
      </trkpt>
      <trkpt lat="47.22627" lon="-1.51845">
        <ele>60</ele>
        <time>2022-03-27T12:35:38Z</time>
      </trkpt>
      <trkpt lat="47.22638" lon="-1.5184">
        <ele>60</ele>
        <time>2022-03-27T12:35:40Z</time>
      </trkpt>
      <trkpt lat="47.22649" lon="-1.51834">
        <ele>61</ele>
        <time>2022-03-27T12:35:42Z</time>
      </trkpt>
      <trkpt lat="47.2266" lon="-1.51828">
        <ele>61</ele>
        <time>2022-03-27T12:35:44Z</time>
      </trkpt>
      <trkpt lat="47.22672" lon="-1.51823">
        <ele>61</ele>
        <time>2022-03-27T12:35:46Z</time>
      </trkpt>
      <trkpt lat="47.22684" lon="-1.51817">
        <ele>61</ele>
        <time>2022-03-27T12:35:48Z</time>
      </trkpt>
      <trkpt lat="47.22694" lon="-1.51811">
        <ele>61</ele>
        <time>2022-03-27T12:35:50Z</time>
      </trkpt>
      <trkpt lat="47.22704" lon="-1.51807">
        <ele>60</ele>
        <time>2022-03-27T12:35:52Z</time>
      </trkpt>
      <trkpt lat="47.22714" lon="-1.51802">
        <ele>60</ele>
        <time>2022-03-27T12:35:54Z</time>
      </trkpt>
      <trkpt lat="47.22722" lon="-1.51798">
        <ele>59</ele>
        <time>2022-03-27T12:35:56Z</time>
      </trkpt>
      <trkpt lat="47.2273" lon="-1.51788">
        <ele>59</ele>
        <time>2022-03-27T12:35:58Z</time>
      </trkpt>
      <trkpt lat="47.22735" lon="-1.51773">
        <ele>59</ele>
        <time>2022-03-27T12:36:00Z</time>
      </trkpt>
      <trkpt lat="47.2274" lon="-1.51759">
        <ele>59</ele>
        <time>2022-03-27T12:36:02Z</time>
      </trkpt>
      <trkpt lat="47.22744" lon="-1.51742">
        <ele>60</ele>
        <time>2022-03-27T12:36:04Z</time>
      </trkpt>
      <trkpt lat="47.22747" lon="-1.51726">
        <ele>59</ele>
        <time>2022-03-27T12:36:06Z</time>
      </trkpt>
      <trkpt lat="47.2275" lon="-1.51709">
        <ele>59</ele>
        <time>2022-03-27T12:36:08Z</time>
      </trkpt>
      <trkpt lat="47.22752" lon="-1.51692">
        <ele>60</ele>
        <time>2022-03-27T12:36:10Z</time>
      </trkpt>
      <trkpt lat="47.22753" lon="-1.51674">
        <ele>60</ele>
        <time>2022-03-27T12:36:12Z</time>
      </trkpt>
      <trkpt lat="47.22753" lon="-1.51657">
        <ele>59</ele>
        <time>2022-03-27T12:36:14Z</time>
      </trkpt>
      <trkpt lat="47.22753" lon="-1.51638">
        <ele>60</ele>
        <time>2022-03-27T12:36:16Z</time>
      </trkpt>
      <trkpt lat="47.22753" lon="-1.51621">
        <ele>60</ele>
        <time>2022-03-27T12:36:18Z</time>
      </trkpt>
      <trkpt lat="47.22753" lon="-1.51603">
        <ele>60</ele>
        <time>2022-03-27T12:36:20Z</time>
      </trkpt>
      <trkpt lat="47.22753" lon="-1.51585">
        <ele>60</ele>
        <time>2022-03-27T12:36:22Z</time>
      </trkpt>
      <trkpt lat="47.22754" lon="-1.51568">
        <ele>60</ele>
        <time>2022-03-27T12:36:24Z</time>
      </trkpt>
      <trkpt lat="47.22756" lon="-1.51551">
        <ele>60</ele>
        <time>2022-03-27T12:36:26Z</time>
      </trkpt>
      <trkpt lat="47.22758" lon="-1.51537">
        <ele>59</ele>
        <time>2022-03-27T12:36:28Z</time>
      </trkpt>
      <trkpt lat="47.22761" lon="-1.51522">
        <ele>60</ele>
        <time>2022-03-27T12:36:31Z</time>
      </trkpt>
      <trkpt lat="47.22764" lon="-1.51506">
        <ele>60</ele>
        <time>2022-03-27T12:36:35Z</time>
      </trkpt>
      <trkpt lat="47.22769" lon="-1.5149">
        <ele>60</ele>
        <time>2022-03-27T12:36:38Z</time>
      </trkpt>
      <trkpt lat="47.22778" lon="-1.51484">
        <ele>60</ele>
        <time>2022-03-27T12:36:40Z</time>
      </trkpt>
      <trkpt lat="47.22786" lon="-1.51495">
        <ele>60</ele>
        <time>2022-03-27T12:36:42Z</time>
      </trkpt>
      <trkpt lat="47.22794" lon="-1.51509">
        <ele>59</ele>
        <time>2022-03-27T12:36:44Z</time>
      </trkpt>
      <trkpt lat="47.228" lon="-1.51522">
        <ele>58</ele>
        <time>2022-03-27T12:36:46Z</time>
      </trkpt>
      <trkpt lat="47.22809" lon="-1.51535">
        <ele>58</ele>
        <time>2022-03-27T12:36:48Z</time>
      </trkpt>
      <trkpt lat="47.22816" lon="-1.51549">
        <ele>58</ele>
        <time>2022-03-27T12:36:50Z</time>
      </trkpt>
      <trkpt lat="47.22824" lon="-1.51561">
        <ele>58</ele>
        <time>2022-03-27T12:36:52Z</time>
      </trkpt>
      <trkpt lat="47.22831" lon="-1.51575">
        <ele>58</ele>
        <time>2022-03-27T12:36:54Z</time>
      </trkpt>
      <trkpt lat="47.22842" lon="-1.51581">
        <ele>57</ele>
        <time>2022-03-27T12:36:57Z</time>
      </trkpt>
      <trkpt lat="47.2285" lon="-1.51568">
        <ele>58</ele>
        <time>2022-03-27T12:37:00Z</time>
      </trkpt>
      <trkpt lat="47.22859" lon="-1.51556">
        <ele>58</ele>
        <time>2022-03-27T12:37:03Z</time>
      </trkpt>
      <trkpt lat="47.22868" lon="-1.51542">
        <ele>58</ele>
        <time>2022-03-27T12:37:06Z</time>
      </trkpt>
      <trkpt lat="47.22877" lon="-1.5153">
        <ele>57</ele>
        <time>2022-03-27T12:37:09Z</time>
      </trkpt>
      <trkpt lat="47.22885" lon="-1.51518">
        <ele>57</ele>
        <time>2022-03-27T12:37:12Z</time>
      </trkpt>
      <trkpt lat="47.22892" lon="-1.51507">
        <ele>57</ele>
        <time>2022-03-27T12:37:15Z</time>
      </trkpt>
      <trkpt lat="47.229" lon="-1.51495">
        <ele>57</ele>
        <time>2022-03-27T12:37:19Z</time>
      </trkpt>
      <trkpt lat="47.22902" lon="-1.51481">
        <ele>57</ele>
        <time>2022-03-27T12:37:23Z</time>
      </trkpt>
      <trkpt lat="47.22897" lon="-1.51469">
        <ele>58</ele>
        <time>2022-03-27T12:37:27Z</time>
      </trkpt>
      <trkpt lat="47.22888" lon="-1.51467">
        <ele>57</ele>
        <time>2022-03-27T12:37:33Z</time>
      </trkpt>
      <trkpt lat="47.22887" lon="-1.51469">
        <ele>58</ele>
        <time>2022-03-27T12:39:34Z</time>
      </trkpt>
      <trkpt lat="47.22887" lon="-1.51469">
        <ele>58</ele>
        <time>2022-03-27T12:41:35Z</time>
      </trkpt>
      <trkpt lat="47.22887" lon="-1.51469">
        <ele>58</ele>
        <time>2022-03-27T12:43:36Z</time>
      </trkpt>
      <trkpt lat="47.22888" lon="-1.5147">
        <ele>58</ele>
        <time>2022-03-27T12:45:37Z</time>
      </trkpt>
      <trkpt lat="47.22888" lon="-1.5147">
        <ele>58</ele>
        <time>2022-03-27T12:47:38Z</time>
      </trkpt>
      <trkpt lat="47.22888" lon="-1.5147">
        <ele>58</ele>
        <time>2022-03-27T12:49:39Z</time>
      </trkpt>
      <trkpt lat="47.22888" lon="-1.5147">
        <ele>58</ele>
        <time>2022-03-27T12:51:40Z</time>
      </trkpt>
      <trkpt lat="47.22888" lon="-1.5147">
        <ele>58</ele>
        <time>2022-03-27T12:53:41Z</time>
      </trkpt>
      <trkpt lat="47.22888" lon="-1.5147">
        <ele>58</ele>
        <time>2022-03-27T12:55:42Z</time>
      </trkpt>
      <trkpt lat="47.22892" lon="-1.51482">
        <ele>59</ele>
        <time>2022-03-27T12:57:25Z</time>
      </trkpt>
      <trkpt lat="47.22893" lon="-1.51498">
        <ele>58</ele>
        <time>2022-03-27T12:57:29Z</time>
      </trkpt>
      <trkpt lat="47.2289" lon="-1.51513">
        <ele>59</ele>
        <time>2022-03-27T12:57:32Z</time>
      </trkpt>
      <trkpt lat="47.22881" lon="-1.51526">
        <ele>60</ele>
        <time>2022-03-27T12:57:35Z</time>
      </trkpt>
      <trkpt lat="47.22874" lon="-1.51536">
        <ele>61</ele>
        <time>2022-03-27T12:57:37Z</time>
      </trkpt>
      <trkpt lat="47.22867" lon="-1.51546">
        <ele>61</ele>
        <time>2022-03-27T12:57:39Z</time>
      </trkpt>
      <trkpt lat="47.2286" lon="-1.51557">
        <ele>62</ele>
        <time>2022-03-27T12:57:41Z</time>
      </trkpt>
      <trkpt lat="47.22853" lon="-1.51567">
        <ele>62</ele>
        <time>2022-03-27T12:57:43Z</time>
      </trkpt>
      <trkpt lat="47.22846" lon="-1.51577">
        <ele>62</ele>
        <time>2022-03-27T12:57:45Z</time>
      </trkpt>
      <trkpt lat="47.22837" lon="-1.51586">
        <ele>63</ele>
        <time>2022-03-27T12:57:48Z</time>
      </trkpt>
      <trkpt lat="47.22828" lon="-1.51577">
        <ele>64</ele>
        <time>2022-03-27T12:57:50Z</time>
      </trkpt>
      <trkpt lat="47.2282" lon="-1.51564">
        <ele>64</ele>
        <time>2022-03-27T12:57:52Z</time>
      </trkpt>
      <trkpt lat="47.22812" lon="-1.51551">
        <ele>63</ele>
        <time>2022-03-27T12:57:54Z</time>
      </trkpt>
      <trkpt lat="47.22804" lon="-1.51538">
        <ele>64</ele>
        <time>2022-03-27T12:57:56Z</time>
      </trkpt>
      <trkpt lat="47.22796" lon="-1.51523">
        <ele>63</ele>
        <time>2022-03-27T12:57:58Z</time>
      </trkpt>
      <trkpt lat="47.22789" lon="-1.51511">
        <ele>63</ele>
        <time>2022-03-27T12:58:00Z</time>
      </trkpt>
      <trkpt lat="47.22782" lon="-1.51499">
        <ele>63</ele>
        <time>2022-03-27T12:58:02Z</time>
      </trkpt>
      <trkpt lat="47.22773" lon="-1.51495">
        <ele>62</ele>
        <time>2022-03-27T12:58:04Z</time>
      </trkpt>
      <trkpt lat="47.22767" lon="-1.51509">
        <ele>63</ele>
        <time>2022-03-27T12:58:06Z</time>
      </trkpt>
      <trkpt lat="47.22766" lon="-1.51529">
        <ele>62</ele>
        <time>2022-03-27T12:58:08Z</time>
      </trkpt>
      <trkpt lat="47.22763" lon="-1.51547">
        <ele>62</ele>
        <time>2022-03-27T12:58:10Z</time>
      </trkpt>
      <trkpt lat="47.22762" lon="-1.51566">
        <ele>62</ele>
        <time>2022-03-27T12:58:12Z</time>
      </trkpt>
      <trkpt lat="47.2276" lon="-1.51584">
        <ele>62</ele>
        <time>2022-03-27T12:58:14Z</time>
      </trkpt>
      <trkpt lat="47.2276" lon="-1.51603">
        <ele>62</ele>
        <time>2022-03-27T12:58:16Z</time>
      </trkpt>
      <trkpt lat="47.2276" lon="-1.51621">
        <ele>62</ele>
        <time>2022-03-27T12:58:18Z</time>
      </trkpt>
      <trkpt lat="47.22761" lon="-1.5164">
        <ele>62</ele>
        <time>2022-03-27T12:58:20Z</time>
      </trkpt>
      <trkpt lat="47.22761" lon="-1.51659">
        <ele>61</ele>
        <time>2022-03-27T12:58:22Z</time>
      </trkpt>
      <trkpt lat="47.2276" lon="-1.51678">
        <ele>61</ele>
        <time>2022-03-27T12:58:24Z</time>
      </trkpt>
      <trkpt lat="47.2276" lon="-1.51696">
        <ele>61</ele>
        <time>2022-03-27T12:58:26Z</time>
      </trkpt>
      <trkpt lat="47.22758" lon="-1.51715">
        <ele>61</ele>
        <time>2022-03-27T12:58:28Z</time>
      </trkpt>
      <trkpt lat="47.22755" lon="-1.51731">
        <ele>61</ele>
        <time>2022-03-27T12:58:30Z</time>
      </trkpt>
      <trkpt lat="47.22752" lon="-1.51749">
        <ele>61</ele>
        <time>2022-03-27T12:58:32Z</time>
      </trkpt>
      <trkpt lat="47.2275" lon="-1.51763">
        <ele>61</ele>
        <time>2022-03-27T12:58:34Z</time>
      </trkpt>
      <trkpt lat="47.22745" lon="-1.51778">
        <ele>62</ele>
        <time>2022-03-27T12:58:36Z</time>
      </trkpt>
      <trkpt lat="47.22738" lon="-1.51791">
        <ele>62</ele>
        <time>2022-03-27T12:58:38Z</time>
      </trkpt>
      <trkpt lat="47.22731" lon="-1.51803">
        <ele>62</ele>
        <time>2022-03-27T12:58:40Z</time>
      </trkpt>
      <trkpt lat="47.22723" lon="-1.51811">
        <ele>62</ele>
        <time>2022-03-27T12:58:42Z</time>
      </trkpt>
      <trkpt lat="47.22711" lon="-1.5181">
        <ele>62</ele>
        <time>2022-03-27T12:58:44Z</time>
      </trkpt>
      <trkpt lat="47.22699" lon="-1.51813">
        <ele>63</ele>
        <time>2022-03-27T12:58:46Z</time>
      </trkpt>
      <trkpt lat="47.22687" lon="-1.51819">
        <ele>63</ele>
        <time>2022-03-27T12:58:48Z</time>
      </trkpt>
      <trkpt lat="47.22675" lon="-1.51825">
        <ele>63</ele>
        <time>2022-03-27T12:58:50Z</time>
      </trkpt>
      <trkpt lat="47.22663" lon="-1.51831">
        <ele>63</ele>
        <time>2022-03-27T12:58:52Z</time>
      </trkpt>
      <trkpt lat="47.2265" lon="-1.51837">
        <ele>63</ele>
        <time>2022-03-27T12:58:54Z</time>
      </trkpt>
      <trkpt lat="47.22638" lon="-1.51842">
        <ele>63</ele>
        <time>2022-03-27T12:58:56Z</time>
      </trkpt>
      <trkpt lat="47.22626" lon="-1.51848">
        <ele>63</ele>
        <time>2022-03-27T12:58:58Z</time>
      </trkpt>
      <trkpt lat="47.22614" lon="-1.51854">
        <ele>63</ele>
        <time>2022-03-27T12:59:00Z</time>
      </trkpt>
      <trkpt lat="47.22602" lon="-1.5186">
        <ele>63</ele>
        <time>2022-03-27T12:59:02Z</time>
      </trkpt>
      <trkpt lat="47.2259" lon="-1.51867">
        <ele>63</ele>
        <time>2022-03-27T12:59:04Z</time>
      </trkpt>
      <trkpt lat="47.22577" lon="-1.51873">
        <ele>63</ele>
        <time>2022-03-27T12:59:06Z</time>
      </trkpt>
      <trkpt lat="47.22564" lon="-1.51879">
        <ele>63</ele>
        <time>2022-03-27T12:59:08Z</time>
      </trkpt>
      <trkpt lat="47.22552" lon="-1.51885">
        <ele>63</ele>
        <time>2022-03-27T12:59:10Z</time>
      </trkpt>
      <trkpt lat="47.22539" lon="-1.51892">
        <ele>63</ele>
        <time>2022-03-27T12:59:12Z</time>
      </trkpt>
      <trkpt lat="47.22526" lon="-1.51898">
        <ele>63</ele>
        <time>2022-03-27T12:59:14Z</time>
      </trkpt>
      <trkpt lat="47.22514" lon="-1.51904">
        <ele>63</ele>
        <time>2022-03-27T12:59:16Z</time>
      </trkpt>
      <trkpt lat="47.22502" lon="-1.5191">
        <ele>62</ele>
        <time>2022-03-27T12:59:18Z</time>
      </trkpt>
      <trkpt lat="47.22489" lon="-1.51909">
        <ele>63</ele>
        <time>2022-03-27T12:59:20Z</time>
      </trkpt>
      <trkpt lat="47.22478" lon="-1.51902">
        <ele>63</ele>
        <time>2022-03-27T12:59:22Z</time>
      </trkpt>
      <trkpt lat="47.22467" lon="-1.51894">
        <ele>63</ele>
        <time>2022-03-27T12:59:24Z</time>
      </trkpt>
      <trkpt lat="47.22456" lon="-1.51886">
        <ele>63</ele>
        <time>2022-03-27T12:59:26Z</time>
      </trkpt>
      <trkpt lat="47.22447" lon="-1.51879">
        <ele>63</ele>
        <time>2022-03-27T12:59:28Z</time>
      </trkpt>
      <trkpt lat="47.22435" lon="-1.51871">
        <ele>63</ele>
        <time>2022-03-27T12:59:31Z</time>
      </trkpt>
      <trkpt lat="47.22424" lon="-1.51864">
        <ele>62</ele>
        <time>2022-03-27T12:59:33Z</time>
      </trkpt>
      <trkpt lat="47.22412" lon="-1.51858">
        <ele>62</ele>
        <time>2022-03-27T12:59:35Z</time>
      </trkpt>
      <trkpt lat="47.224" lon="-1.51851">
        <ele>61</ele>
        <time>2022-03-27T12:59:37Z</time>
      </trkpt>
      <trkpt lat="47.22389" lon="-1.51843">
        <ele>61</ele>
        <time>2022-03-27T12:59:39Z</time>
      </trkpt>
      <trkpt lat="47.22377" lon="-1.51835">
        <ele>61</ele>
        <time>2022-03-27T12:59:41Z</time>
      </trkpt>
      <trkpt lat="47.22366" lon="-1.51828">
        <ele>61</ele>
        <time>2022-03-27T12:59:43Z</time>
      </trkpt>
      <trkpt lat="47.22356" lon="-1.51821">
        <ele>61</ele>
        <time>2022-03-27T12:59:45Z</time>
      </trkpt>
      <trkpt lat="47.22344" lon="-1.51823">
        <ele>60</ele>
        <time>2022-03-27T12:59:48Z</time>
      </trkpt>
      <trkpt lat="47.22337" lon="-1.51838">
        <ele>59</ele>
        <time>2022-03-27T12:59:51Z</time>
      </trkpt>
      <trkpt lat="47.22331" lon="-1.51849">
        <ele>59</ele>
        <time>2022-03-27T12:59:53Z</time>
      </trkpt>
      <trkpt lat="47.22323" lon="-1.51862">
        <ele>59</ele>
        <time>2022-03-27T12:59:55Z</time>
      </trkpt>
      <trkpt lat="47.22315" lon="-1.51874">
        <ele>59</ele>
        <time>2022-03-27T12:59:57Z</time>
      </trkpt>
      <trkpt lat="47.22309" lon="-1.51883">
        <ele>59</ele>
        <time>2022-03-27T13:00:11Z</time>
      </trkpt>
      <trkpt lat="47.22299" lon="-1.51877">
        <ele>58</ele>
        <time>2022-03-27T13:00:13Z</time>
      </trkpt>
      <trkpt lat="47.22289" lon="-1.51866">
        <ele>58</ele>
        <time>2022-03-27T13:00:15Z</time>
      </trkpt>
      <trkpt lat="47.22279" lon="-1.51856">
        <ele>58</ele>
        <time>2022-03-27T13:00:17Z</time>
      </trkpt>
      <trkpt lat="47.22269" lon="-1.51844">
        <ele>59</ele>
        <time>2022-03-27T13:00:19Z</time>
      </trkpt>
      <trkpt lat="47.22259" lon="-1.51833">
        <ele>60</ele>
        <time>2022-03-27T13:00:21Z</time>
      </trkpt>
      <trkpt lat="47.22249" lon="-1.51823">
        <ele>60</ele>
        <time>2022-03-27T13:00:23Z</time>
      </trkpt>
      <trkpt lat="47.22239" lon="-1.51813">
        <ele>61</ele>
        <time>2022-03-27T13:00:25Z</time>
      </trkpt>
      <trkpt lat="47.2223" lon="-1.51804">
        <ele>62</ele>
        <time>2022-03-27T13:00:27Z</time>
      </trkpt>
      <trkpt lat="47.2222" lon="-1.51796">
        <ele>63</ele>
        <time>2022-03-27T13:00:29Z</time>
      </trkpt>
      <trkpt lat="47.22211" lon="-1.51788">
        <ele>63</ele>
        <time>2022-03-27T13:00:31Z</time>
      </trkpt>
      <trkpt lat="47.22202" lon="-1.5178">
        <ele>64</ele>
        <time>2022-03-27T13:00:33Z</time>
      </trkpt>
      <trkpt lat="47.22193" lon="-1.51773">
        <ele>65</ele>
        <time>2022-03-27T13:00:35Z</time>
      </trkpt>
      <trkpt lat="47.22183" lon="-1.51766">
        <ele>65</ele>
        <time>2022-03-27T13:00:37Z</time>
      </trkpt>
      <trkpt lat="47.22173" lon="-1.51758">
        <ele>65</ele>
        <time>2022-03-27T13:00:39Z</time>
      </trkpt>
      <trkpt lat="47.22163" lon="-1.5175">
        <ele>64</ele>
        <time>2022-03-27T13:00:41Z</time>
      </trkpt>
      <trkpt lat="47.22152" lon="-1.51742">
        <ele>63</ele>
        <time>2022-03-27T13:00:43Z</time>
      </trkpt>
      <trkpt lat="47.22141" lon="-1.51733">
        <ele>63</ele>
        <time>2022-03-27T13:00:45Z</time>
      </trkpt>
      <trkpt lat="47.22128" lon="-1.51726">
        <ele>62</ele>
        <time>2022-03-27T13:00:47Z</time>
      </trkpt>
      <trkpt lat="47.22114" lon="-1.51719">
        <ele>61</ele>
        <time>2022-03-27T13:00:49Z</time>
      </trkpt>
      <trkpt lat="47.221" lon="-1.51712">
        <ele>61</ele>
        <time>2022-03-27T13:00:51Z</time>
      </trkpt>
      <trkpt lat="47.22084" lon="-1.51705">
        <ele>60</ele>
        <time>2022-03-27T13:00:53Z</time>
      </trkpt>
      <trkpt lat="47.22068" lon="-1.51698">
        <ele>60</ele>
        <time>2022-03-27T13:00:55Z</time>
      </trkpt>
      <trkpt lat="47.22052" lon="-1.51691">
        <ele>59</ele>
        <time>2022-03-27T13:00:57Z</time>
      </trkpt>
      <trkpt lat="47.22036" lon="-1.51683">
        <ele>59</ele>
        <time>2022-03-27T13:00:59Z</time>
      </trkpt>
      <trkpt lat="47.2202" lon="-1.51675">
        <ele>58</ele>
        <time>2022-03-27T13:01:01Z</time>
      </trkpt>
      <trkpt lat="47.22003" lon="-1.51667">
        <ele>57</ele>
        <time>2022-03-27T13:01:03Z</time>
      </trkpt>
      <trkpt lat="47.21987" lon="-1.5166">
        <ele>57</ele>
        <time>2022-03-27T13:01:05Z</time>
      </trkpt>
      <trkpt lat="47.21971" lon="-1.51652">
        <ele>56</ele>
        <time>2022-03-27T13:01:07Z</time>
      </trkpt>
      <trkpt lat="47.21956" lon="-1.51645">
        <ele>56</ele>
        <time>2022-03-27T13:01:09Z</time>
      </trkpt>
      <trkpt lat="47.2194" lon="-1.51637">
        <ele>56</ele>
        <time>2022-03-27T13:01:11Z</time>
      </trkpt>
      <trkpt lat="47.21926" lon="-1.5163">
        <ele>56</ele>
        <time>2022-03-27T13:01:13Z</time>
      </trkpt>
      <trkpt lat="47.21911" lon="-1.51623">
        <ele>56</ele>
        <time>2022-03-27T13:01:15Z</time>
      </trkpt>
      <trkpt lat="47.21897" lon="-1.51617">
        <ele>56</ele>
        <time>2022-03-27T13:01:17Z</time>
      </trkpt>
      <trkpt lat="47.21883" lon="-1.51611">
        <ele>55</ele>
        <time>2022-03-27T13:01:19Z</time>
      </trkpt>
      <trkpt lat="47.2187" lon="-1.51605">
        <ele>56</ele>
        <time>2022-03-27T13:01:21Z</time>
      </trkpt>
      <trkpt lat="47.21855" lon="-1.51603">
        <ele>56</ele>
        <time>2022-03-27T13:01:23Z</time>
      </trkpt>
      <trkpt lat="47.21842" lon="-1.51609">
        <ele>56</ele>
        <time>2022-03-27T13:01:25Z</time>
      </trkpt>
      <trkpt lat="47.21827" lon="-1.51614">
        <ele>56</ele>
        <time>2022-03-27T13:01:27Z</time>
      </trkpt>
      <trkpt lat="47.21812" lon="-1.51613">
        <ele>56</ele>
        <time>2022-03-27T13:01:29Z</time>
      </trkpt>
      <trkpt lat="47.21798" lon="-1.51612">
        <ele>56</ele>
        <time>2022-03-27T13:01:31Z</time>
      </trkpt>
      <trkpt lat="47.21785" lon="-1.51623">
        <ele>56</ele>
        <time>2022-03-27T13:01:33Z</time>
      </trkpt>
      <trkpt lat="47.21775" lon="-1.51638">
        <ele>56</ele>
        <time>2022-03-27T13:01:35Z</time>
      </trkpt>
      <trkpt lat="47.21766" lon="-1.51655">
        <ele>56</ele>
        <time>2022-03-27T13:01:37Z</time>
      </trkpt>
      <trkpt lat="47.21757" lon="-1.51673">
        <ele>56</ele>
        <time>2022-03-27T13:01:39Z</time>
      </trkpt>
      <trkpt lat="47.21748" lon="-1.51691">
        <ele>56</ele>
        <time>2022-03-27T13:01:41Z</time>
      </trkpt>
      <trkpt lat="47.21739" lon="-1.51709">
        <ele>56</ele>
        <time>2022-03-27T13:01:43Z</time>
      </trkpt>
      <trkpt lat="47.2173" lon="-1.51727">
        <ele>56</ele>
        <time>2022-03-27T13:01:45Z</time>
      </trkpt>
      <trkpt lat="47.21722" lon="-1.51745">
        <ele>56</ele>
        <time>2022-03-27T13:01:47Z</time>
      </trkpt>
      <trkpt lat="47.21714" lon="-1.51764">
        <ele>56</ele>
        <time>2022-03-27T13:01:49Z</time>
      </trkpt>
      <trkpt lat="47.21706" lon="-1.51783">
        <ele>56</ele>
        <time>2022-03-27T13:01:51Z</time>
      </trkpt>
      <trkpt lat="47.21698" lon="-1.51801">
        <ele>56</ele>
        <time>2022-03-27T13:01:53Z</time>
      </trkpt>
      <trkpt lat="47.21691" lon="-1.51819">
        <ele>56</ele>
        <time>2022-03-27T13:01:55Z</time>
      </trkpt>
      <trkpt lat="47.21684" lon="-1.51837">
        <ele>57</ele>
        <time>2022-03-27T13:01:57Z</time>
      </trkpt>
      <trkpt lat="47.21678" lon="-1.51857">
        <ele>57</ele>
        <time>2022-03-27T13:01:59Z</time>
      </trkpt>
      <trkpt lat="47.21673" lon="-1.51876">
        <ele>57</ele>
        <time>2022-03-27T13:02:01Z</time>
      </trkpt>
      <trkpt lat="47.21664" lon="-1.51892">
        <ele>57</ele>
        <time>2022-03-27T13:02:03Z</time>
      </trkpt>
      <trkpt lat="47.21656" lon="-1.51909">
        <ele>57</ele>
        <time>2022-03-27T13:02:05Z</time>
      </trkpt>
      <trkpt lat="47.2165" lon="-1.51928">
        <ele>57</ele>
        <time>2022-03-27T13:02:07Z</time>
      </trkpt>
      <trkpt lat="47.21642" lon="-1.51949">
        <ele>57</ele>
        <time>2022-03-27T13:02:09Z</time>
      </trkpt>
      <trkpt lat="47.21634" lon="-1.51969">
        <ele>57</ele>
        <time>2022-03-27T13:02:11Z</time>
      </trkpt>
      <trkpt lat="47.21627" lon="-1.5199">
        <ele>57</ele>
        <time>2022-03-27T13:02:13Z</time>
      </trkpt>
      <trkpt lat="47.21621" lon="-1.52012">
        <ele>57</ele>
        <time>2022-03-27T13:02:15Z</time>
      </trkpt>
      <trkpt lat="47.21615" lon="-1.52031">
        <ele>57</ele>
        <time>2022-03-27T13:02:17Z</time>
      </trkpt>
      <trkpt lat="47.2161" lon="-1.52051">
        <ele>57</ele>
        <time>2022-03-27T13:02:19Z</time>
      </trkpt>
      <trkpt lat="47.21605" lon="-1.52069">
        <ele>57</ele>
        <time>2022-03-27T13:02:21Z</time>
      </trkpt>
      <trkpt lat="47.216" lon="-1.52088">
        <ele>57</ele>
        <time>2022-03-27T13:02:23Z</time>
      </trkpt>
      <trkpt lat="47.21595" lon="-1.52107">
        <ele>57</ele>
        <time>2022-03-27T13:02:25Z</time>
      </trkpt>
      <trkpt lat="47.21589" lon="-1.52126">
        <ele>57</ele>
        <time>2022-03-27T13:02:27Z</time>
      </trkpt>
      <trkpt lat="47.21581" lon="-1.52143">
        <ele>56</ele>
        <time>2022-03-27T13:02:29Z</time>
      </trkpt>
      <trkpt lat="47.21574" lon="-1.52162">
        <ele>56</ele>
        <time>2022-03-27T13:02:31Z</time>
      </trkpt>
      <trkpt lat="47.21567" lon="-1.52182">
        <ele>57</ele>
        <time>2022-03-27T13:02:33Z</time>
      </trkpt>
      <trkpt lat="47.21561" lon="-1.52202">
        <ele>57</ele>
        <time>2022-03-27T13:02:35Z</time>
      </trkpt>
      <trkpt lat="47.21554" lon="-1.52222">
        <ele>57</ele>
        <time>2022-03-27T13:02:37Z</time>
      </trkpt>
      <trkpt lat="47.21547" lon="-1.52241">
        <ele>58</ele>
        <time>2022-03-27T13:02:39Z</time>
      </trkpt>
      <trkpt lat="47.21541" lon="-1.52262">
        <ele>58</ele>
        <time>2022-03-27T13:02:41Z</time>
      </trkpt>
      <trkpt lat="47.21534" lon="-1.52282">
        <ele>58</ele>
        <time>2022-03-27T13:02:43Z</time>
      </trkpt>
      <trkpt lat="47.21528" lon="-1.52301">
        <ele>58</ele>
        <time>2022-03-27T13:02:45Z</time>
      </trkpt>
      <trkpt lat="47.21522" lon="-1.52321">
        <ele>58</ele>
        <time>2022-03-27T13:02:47Z</time>
      </trkpt>
      <trkpt lat="47.21515" lon="-1.52341">
        <ele>58</ele>
        <time>2022-03-27T13:02:49Z</time>
      </trkpt>
      <trkpt lat="47.21509" lon="-1.52361">
        <ele>58</ele>
        <time>2022-03-27T13:02:51Z</time>
      </trkpt>
      <trkpt lat="47.21503" lon="-1.52381">
        <ele>59</ele>
        <time>2022-03-27T13:02:53Z</time>
      </trkpt>
      <trkpt lat="47.21497" lon="-1.52402">
        <ele>58</ele>
        <time>2022-03-27T13:02:55Z</time>
      </trkpt>
      <trkpt lat="47.21491" lon="-1.52422">
        <ele>58</ele>
        <time>2022-03-27T13:02:57Z</time>
      </trkpt>
      <trkpt lat="47.21486" lon="-1.52442">
        <ele>58</ele>
        <time>2022-03-27T13:02:59Z</time>
      </trkpt>
      <trkpt lat="47.21481" lon="-1.52462">
        <ele>58</ele>
        <time>2022-03-27T13:03:01Z</time>
      </trkpt>
      <trkpt lat="47.21476" lon="-1.52482">
        <ele>58</ele>
        <time>2022-03-27T13:03:03Z</time>
      </trkpt>
      <trkpt lat="47.21471" lon="-1.52502">
        <ele>58</ele>
        <time>2022-03-27T13:03:05Z</time>
      </trkpt>
      <trkpt lat="47.21468" lon="-1.52523">
        <ele>58</ele>
        <time>2022-03-27T13:03:07Z</time>
      </trkpt>
      <trkpt lat="47.2146" lon="-1.52541">
        <ele>58</ele>
        <time>2022-03-27T13:03:09Z</time>
      </trkpt>
      <trkpt lat="47.2145" lon="-1.52558">
        <ele>58</ele>
        <time>2022-03-27T13:03:11Z</time>
      </trkpt>
      <trkpt lat="47.21443" lon="-1.52578">
        <ele>58</ele>
        <time>2022-03-27T13:03:13Z</time>
      </trkpt>
      <trkpt lat="47.21437" lon="-1.52598">
        <ele>58</ele>
        <time>2022-03-27T13:03:15Z</time>
      </trkpt>
      <trkpt lat="47.21431" lon="-1.52617">
        <ele>57</ele>
        <time>2022-03-27T13:03:17Z</time>
      </trkpt>
      <trkpt lat="47.21425" lon="-1.52636">
        <ele>57</ele>
        <time>2022-03-27T13:03:19Z</time>
      </trkpt>
      <trkpt lat="47.2142" lon="-1.52655">
        <ele>58</ele>
        <time>2022-03-27T13:03:21Z</time>
      </trkpt>
      <trkpt lat="47.21415" lon="-1.52673">
        <ele>58</ele>
        <time>2022-03-27T13:03:23Z</time>
      </trkpt>
      <trkpt lat="47.21409" lon="-1.52693">
        <ele>58</ele>
        <time>2022-03-27T13:03:25Z</time>
      </trkpt>
      <trkpt lat="47.21404" lon="-1.52711">
        <ele>58</ele>
        <time>2022-03-27T13:03:27Z</time>
      </trkpt>
      <trkpt lat="47.21399" lon="-1.52729">
        <ele>58</ele>
        <time>2022-03-27T13:03:29Z</time>
      </trkpt>
      <trkpt lat="47.21393" lon="-1.52748">
        <ele>58</ele>
        <time>2022-03-27T13:03:31Z</time>
      </trkpt>
      <trkpt lat="47.21388" lon="-1.52767">
        <ele>58</ele>
        <time>2022-03-27T13:03:33Z</time>
      </trkpt>
      <trkpt lat="47.21383" lon="-1.52786">
        <ele>58</ele>
        <time>2022-03-27T13:03:35Z</time>
      </trkpt>
      <trkpt lat="47.2138" lon="-1.52805">
        <ele>58</ele>
        <time>2022-03-27T13:03:37Z</time>
      </trkpt>
      <trkpt lat="47.21377" lon="-1.52824">
        <ele>58</ele>
        <time>2022-03-27T13:03:39Z</time>
      </trkpt>
      <trkpt lat="47.21376" lon="-1.52841">
        <ele>58</ele>
        <time>2022-03-27T13:03:41Z</time>
      </trkpt>
      <trkpt lat="47.21375" lon="-1.52858">
        <ele>58</ele>
        <time>2022-03-27T13:03:43Z</time>
      </trkpt>
      <trkpt lat="47.21374" lon="-1.52876">
        <ele>58</ele>
        <time>2022-03-27T13:03:45Z</time>
      </trkpt>
      <trkpt lat="47.21375" lon="-1.52891">
        <ele>58</ele>
        <time>2022-03-27T13:03:47Z</time>
      </trkpt>
      <trkpt lat="47.21376" lon="-1.52906">
        <ele>58</ele>
        <time>2022-03-27T13:03:49Z</time>
      </trkpt>
      <trkpt lat="47.21378" lon="-1.5292">
        <ele>58</ele>
        <time>2022-03-27T13:03:51Z</time>
      </trkpt>
      <trkpt lat="47.2138" lon="-1.52934">
        <ele>58</ele>
        <time>2022-03-27T13:03:53Z</time>
      </trkpt>
      <trkpt lat="47.21382" lon="-1.52951">
        <ele>59</ele>
        <time>2022-03-27T13:03:55Z</time>
      </trkpt>
      <trkpt lat="47.21377" lon="-1.52969">
        <ele>58</ele>
        <time>2022-03-27T13:03:57Z</time>
      </trkpt>
      <trkpt lat="47.21369" lon="-1.52986">
        <ele>58</ele>
        <time>2022-03-27T13:03:59Z</time>
      </trkpt>
      <trkpt lat="47.21365" lon="-1.53004">
        <ele>57</ele>
        <time>2022-03-27T13:04:01Z</time>
      </trkpt>
      <trkpt lat="47.21361" lon="-1.53022">
        <ele>57</ele>
        <time>2022-03-27T13:04:03Z</time>
      </trkpt>
      <trkpt lat="47.21355" lon="-1.53039">
        <ele>57</ele>
        <time>2022-03-27T13:04:05Z</time>
      </trkpt>
      <trkpt lat="47.2135" lon="-1.53058">
        <ele>57</ele>
        <time>2022-03-27T13:04:07Z</time>
      </trkpt>
      <trkpt lat="47.21345" lon="-1.53078">
        <ele>57</ele>
        <time>2022-03-27T13:04:09Z</time>
      </trkpt>
      <trkpt lat="47.2134" lon="-1.531">
        <ele>57</ele>
        <time>2022-03-27T13:04:11Z</time>
      </trkpt>
      <trkpt lat="47.21337" lon="-1.53123">
        <ele>57</ele>
        <time>2022-03-27T13:04:13Z</time>
      </trkpt>
      <trkpt lat="47.21336" lon="-1.53146">
        <ele>57</ele>
        <time>2022-03-27T13:04:15Z</time>
      </trkpt>
      <trkpt lat="47.21334" lon="-1.53169">
        <ele>57</ele>
        <time>2022-03-27T13:04:17Z</time>
      </trkpt>
      <trkpt lat="47.21331" lon="-1.53191">
        <ele>57</ele>
        <time>2022-03-27T13:04:19Z</time>
      </trkpt>
      <trkpt lat="47.21329" lon="-1.53212">
        <ele>56</ele>
        <time>2022-03-27T13:04:21Z</time>
      </trkpt>
      <trkpt lat="47.21327" lon="-1.53234">
        <ele>57</ele>
        <time>2022-03-27T13:04:23Z</time>
      </trkpt>
      <trkpt lat="47.21327" lon="-1.53256">
        <ele>57</ele>
        <time>2022-03-27T13:04:25Z</time>
      </trkpt>
      <trkpt lat="47.21331" lon="-1.53277">
        <ele>56</ele>
        <time>2022-03-27T13:04:27Z</time>
      </trkpt>
      <trkpt lat="47.21335" lon="-1.53298">
        <ele>56</ele>
        <time>2022-03-27T13:04:29Z</time>
      </trkpt>
      <trkpt lat="47.21332" lon="-1.53319">
        <ele>56</ele>
        <time>2022-03-27T13:04:31Z</time>
      </trkpt>
      <trkpt lat="47.21328" lon="-1.53341">
        <ele>56</ele>
        <time>2022-03-27T13:04:33Z</time>
      </trkpt>
      <trkpt lat="47.21327" lon="-1.53362">
        <ele>56</ele>
        <time>2022-03-27T13:04:35Z</time>
      </trkpt>
      <trkpt lat="47.21327" lon="-1.53384">
        <ele>56</ele>
        <time>2022-03-27T13:04:37Z</time>
      </trkpt>
      <trkpt lat="47.21326" lon="-1.53405">
        <ele>56</ele>
        <time>2022-03-27T13:04:39Z</time>
      </trkpt>
      <trkpt lat="47.21326" lon="-1.53426">
        <ele>55</ele>
        <time>2022-03-27T13:04:41Z</time>
      </trkpt>
      <trkpt lat="47.21326" lon="-1.53445">
        <ele>55</ele>
        <time>2022-03-27T13:04:43Z</time>
      </trkpt>
      <trkpt lat="47.21324" lon="-1.53466">
        <ele>54</ele>
        <time>2022-03-27T13:04:45Z</time>
      </trkpt>
      <trkpt lat="47.21322" lon="-1.53486">
        <ele>55</ele>
        <time>2022-03-27T13:04:47Z</time>
      </trkpt>
      <trkpt lat="47.2132" lon="-1.53505">
        <ele>55</ele>
        <time>2022-03-27T13:04:49Z</time>
      </trkpt>
      <trkpt lat="47.21319" lon="-1.53525">
        <ele>55</ele>
        <time>2022-03-27T13:04:51Z</time>
      </trkpt>
      <trkpt lat="47.21318" lon="-1.53545">
        <ele>55</ele>
        <time>2022-03-27T13:04:53Z</time>
      </trkpt>
      <trkpt lat="47.21319" lon="-1.53565">
        <ele>55</ele>
        <time>2022-03-27T13:04:55Z</time>
      </trkpt>
      <trkpt lat="47.21319" lon="-1.53585">
        <ele>55</ele>
        <time>2022-03-27T13:04:57Z</time>
      </trkpt>
      <trkpt lat="47.2132" lon="-1.53606">
        <ele>55</ele>
        <time>2022-03-27T13:04:59Z</time>
      </trkpt>
      <trkpt lat="47.21321" lon="-1.53625">
        <ele>55</ele>
        <time>2022-03-27T13:05:01Z</time>
      </trkpt>
      <trkpt lat="47.21321" lon="-1.53643">
        <ele>55</ele>
        <time>2022-03-27T13:05:03Z</time>
      </trkpt>
      <trkpt lat="47.21323" lon="-1.5366">
        <ele>55</ele>
        <time>2022-03-27T13:05:05Z</time>
      </trkpt>
      <trkpt lat="47.21326" lon="-1.53677">
        <ele>55</ele>
        <time>2022-03-27T13:05:07Z</time>
      </trkpt>
      <trkpt lat="47.21331" lon="-1.53694">
        <ele>55</ele>
        <time>2022-03-27T13:05:09Z</time>
      </trkpt>
      <trkpt lat="47.2134" lon="-1.53704">
        <ele>56</ele>
        <time>2022-03-27T13:05:11Z</time>
      </trkpt>
      <trkpt lat="47.21354" lon="-1.53705">
        <ele>56</ele>
        <time>2022-03-27T13:05:13Z</time>
      </trkpt>
      <trkpt lat="47.21367" lon="-1.53704">
        <ele>56</ele>
        <time>2022-03-27T13:05:15Z</time>
      </trkpt>
      <trkpt lat="47.2138" lon="-1.53704">
        <ele>56</ele>
        <time>2022-03-27T13:05:17Z</time>
      </trkpt>
      <trkpt lat="47.21393" lon="-1.53704">
        <ele>56</ele>
        <time>2022-03-27T13:05:19Z</time>
      </trkpt>
      <trkpt lat="47.21404" lon="-1.53709">
        <ele>56</ele>
        <time>2022-03-27T13:05:21Z</time>
      </trkpt>
      <trkpt lat="47.21415" lon="-1.5372">
        <ele>56</ele>
        <time>2022-03-27T13:05:23Z</time>
      </trkpt>
      <trkpt lat="47.21425" lon="-1.53731">
        <ele>56</ele>
        <time>2022-03-27T13:05:25Z</time>
      </trkpt>
      <trkpt lat="47.21436" lon="-1.53741">
        <ele>57</ele>
        <time>2022-03-27T13:05:27Z</time>
      </trkpt>
      <trkpt lat="47.21448" lon="-1.53749">
        <ele>56</ele>
        <time>2022-03-27T13:05:29Z</time>
      </trkpt>
      <trkpt lat="47.21458" lon="-1.53759">
        <ele>56</ele>
        <time>2022-03-27T13:05:31Z</time>
      </trkpt>
      <trkpt lat="47.21469" lon="-1.53767">
        <ele>56</ele>
        <time>2022-03-27T13:05:33Z</time>
      </trkpt>
      <trkpt lat="47.21474" lon="-1.53781">
        <ele>55</ele>
        <time>2022-03-27T13:05:35Z</time>
      </trkpt>
      <trkpt lat="47.21466" lon="-1.53796">
        <ele>55</ele>
        <time>2022-03-27T13:05:37Z</time>
      </trkpt>
      <trkpt lat="47.21457" lon="-1.53809">
        <ele>55</ele>
        <time>2022-03-27T13:05:39Z</time>
      </trkpt>
      <trkpt lat="47.2145" lon="-1.53827">
        <ele>54</ele>
        <time>2022-03-27T13:05:41Z</time>
      </trkpt>
      <trkpt lat="47.21442" lon="-1.53842">
        <ele>55</ele>
        <time>2022-03-27T13:05:43Z</time>
      </trkpt>
      <trkpt lat="47.21435" lon="-1.53858">
        <ele>55</ele>
        <time>2022-03-27T13:05:45Z</time>
      </trkpt>
      <trkpt lat="47.21428" lon="-1.53874">
        <ele>55</ele>
        <time>2022-03-27T13:05:47Z</time>
      </trkpt>
      <trkpt lat="47.21421" lon="-1.53891">
        <ele>56</ele>
        <time>2022-03-27T13:05:49Z</time>
      </trkpt>
      <trkpt lat="47.21414" lon="-1.53906">
        <ele>56</ele>
        <time>2022-03-27T13:05:51Z</time>
      </trkpt>
      <trkpt lat="47.21407" lon="-1.5392">
        <ele>56</ele>
        <time>2022-03-27T13:05:53Z</time>
      </trkpt>
      <trkpt lat="47.21401" lon="-1.53933">
        <ele>56</ele>
        <time>2022-03-27T13:05:55Z</time>
      </trkpt>
      <trkpt lat="47.21395" lon="-1.53944">
        <ele>56</ele>
        <time>2022-03-27T13:05:57Z</time>
      </trkpt>
      <trkpt lat="47.21395" lon="-1.53958">
        <ele>56</ele>
        <time>2022-03-27T13:05:59Z</time>
      </trkpt>
      <trkpt lat="47.21394" lon="-1.53974">
        <ele>56</ele>
        <time>2022-03-27T13:06:01Z</time>
      </trkpt>
      <trkpt lat="47.21392" lon="-1.53991">
        <ele>55</ele>
        <time>2022-03-27T13:06:03Z</time>
      </trkpt>
      <trkpt lat="47.21394" lon="-1.54006">
        <ele>55</ele>
        <time>2022-03-27T13:06:05Z</time>
      </trkpt>
      <trkpt lat="47.214" lon="-1.54022">
        <ele>55</ele>
        <time>2022-03-27T13:06:07Z</time>
      </trkpt>
      <trkpt lat="47.21408" lon="-1.54035">
        <ele>55</ele>
        <time>2022-03-27T13:06:09Z</time>
      </trkpt>
      <trkpt lat="47.21416" lon="-1.54047">
        <ele>55</ele>
        <time>2022-03-27T13:06:11Z</time>
      </trkpt>
      <trkpt lat="47.21424" lon="-1.54061">
        <ele>55</ele>
        <time>2022-03-27T13:06:13Z</time>
      </trkpt>
      <trkpt lat="47.21433" lon="-1.54074">
        <ele>56</ele>
        <time>2022-03-27T13:06:15Z</time>
      </trkpt>
      <trkpt lat="47.21442" lon="-1.54086">
        <ele>56</ele>
        <time>2022-03-27T13:06:17Z</time>
      </trkpt>
      <trkpt lat="47.21451" lon="-1.54099">
        <ele>57</ele>
        <time>2022-03-27T13:06:19Z</time>
      </trkpt>
      <trkpt lat="47.2146" lon="-1.54112">
        <ele>56</ele>
        <time>2022-03-27T13:06:21Z</time>
      </trkpt>
      <trkpt lat="47.21468" lon="-1.54125">
        <ele>57</ele>
        <time>2022-03-27T13:06:23Z</time>
      </trkpt>
      <trkpt lat="47.21477" lon="-1.54138">
        <ele>57</ele>
        <time>2022-03-27T13:06:25Z</time>
      </trkpt>
      <trkpt lat="47.21486" lon="-1.54151">
        <ele>57</ele>
        <time>2022-03-27T13:06:27Z</time>
      </trkpt>
      <trkpt lat="47.21495" lon="-1.54163">
        <ele>57</ele>
        <time>2022-03-27T13:06:29Z</time>
      </trkpt>
      <trkpt lat="47.21504" lon="-1.54176">
        <ele>57</ele>
        <time>2022-03-27T13:06:31Z</time>
      </trkpt>
      <trkpt lat="47.21511" lon="-1.54192">
        <ele>57</ele>
        <time>2022-03-27T13:06:33Z</time>
      </trkpt>
      <trkpt lat="47.21521" lon="-1.54207">
        <ele>56</ele>
        <time>2022-03-27T13:06:35Z</time>
      </trkpt>
      <trkpt lat="47.2153" lon="-1.54221">
        <ele>57</ele>
        <time>2022-03-27T13:06:37Z</time>
      </trkpt>
      <trkpt lat="47.21539" lon="-1.54236">
        <ele>57</ele>
        <time>2022-03-27T13:06:39Z</time>
      </trkpt>
      <trkpt lat="47.21545" lon="-1.54253">
        <ele>57</ele>
        <time>2022-03-27T13:06:41Z</time>
      </trkpt>
      <trkpt lat="47.21551" lon="-1.54269">
        <ele>57</ele>
        <time>2022-03-27T13:06:43Z</time>
      </trkpt>
      <trkpt lat="47.21556" lon="-1.54285">
        <ele>57</ele>
        <time>2022-03-27T13:06:45Z</time>
      </trkpt>
      <trkpt lat="47.21565" lon="-1.543">
        <ele>57</ele>
        <time>2022-03-27T13:06:47Z</time>
      </trkpt>
      <trkpt lat="47.21574" lon="-1.54313">
        <ele>56</ele>
        <time>2022-03-27T13:06:49Z</time>
      </trkpt>
      <trkpt lat="47.21582" lon="-1.54327">
        <ele>56</ele>
        <time>2022-03-27T13:06:51Z</time>
      </trkpt>
      <trkpt lat="47.2159" lon="-1.54341">
        <ele>57</ele>
        <time>2022-03-27T13:06:53Z</time>
      </trkpt>
      <trkpt lat="47.21598" lon="-1.54355">
        <ele>58</ele>
        <time>2022-03-27T13:06:55Z</time>
      </trkpt>
      <trkpt lat="47.21605" lon="-1.54371">
        <ele>58</ele>
        <time>2022-03-27T13:06:57Z</time>
      </trkpt>
      <trkpt lat="47.21614" lon="-1.54383">
        <ele>58</ele>
        <time>2022-03-27T13:06:59Z</time>
      </trkpt>
      <trkpt lat="47.2162" lon="-1.54398">
        <ele>57</ele>
        <time>2022-03-27T13:07:01Z</time>
      </trkpt>
      <trkpt lat="47.21617" lon="-1.54418">
        <ele>57</ele>
        <time>2022-03-27T13:07:03Z</time>
      </trkpt>
      <trkpt lat="47.21614" lon="-1.54437">
        <ele>57</ele>
        <time>2022-03-27T13:07:05Z</time>
      </trkpt>
      <trkpt lat="47.21613" lon="-1.54456">
        <ele>57</ele>
        <time>2022-03-27T13:07:07Z</time>
      </trkpt>
      <trkpt lat="47.21611" lon="-1.54475">
        <ele>57</ele>
        <time>2022-03-27T13:07:09Z</time>
      </trkpt>
      <trkpt lat="47.21608" lon="-1.54494">
        <ele>58</ele>
        <time>2022-03-27T13:07:11Z</time>
      </trkpt>
      <trkpt lat="47.21604" lon="-1.54511">
        <ele>58</ele>
        <time>2022-03-27T13:07:13Z</time>
      </trkpt>
      <trkpt lat="47.21598" lon="-1.54528">
        <ele>59</ele>
        <time>2022-03-27T13:07:15Z</time>
      </trkpt>
      <trkpt lat="47.21591" lon="-1.54543">
        <ele>59</ele>
        <time>2022-03-27T13:07:17Z</time>
      </trkpt>
      <trkpt lat="47.21585" lon="-1.54559">
        <ele>59</ele>
        <time>2022-03-27T13:07:19Z</time>
      </trkpt>
      <trkpt lat="47.21581" lon="-1.54574">
        <ele>59</ele>
        <time>2022-03-27T13:07:21Z</time>
      </trkpt>
      <trkpt lat="47.21574" lon="-1.5459">
        <ele>59</ele>
        <time>2022-03-27T13:07:24Z</time>
      </trkpt>
      <trkpt lat="47.21568" lon="-1.54606">
        <ele>59</ele>
        <time>2022-03-27T13:07:26Z</time>
      </trkpt>
      <trkpt lat="47.21562" lon="-1.54624">
        <ele>59</ele>
        <time>2022-03-27T13:07:28Z</time>
      </trkpt>
      <trkpt lat="47.21555" lon="-1.54642">
        <ele>59</ele>
        <time>2022-03-27T13:07:30Z</time>
      </trkpt>
      <trkpt lat="47.21549" lon="-1.54659">
        <ele>59</ele>
        <time>2022-03-27T13:07:32Z</time>
      </trkpt>
      <trkpt lat="47.21544" lon="-1.54676">
        <ele>59</ele>
        <time>2022-03-27T13:07:34Z</time>
      </trkpt>
      <trkpt lat="47.2154" lon="-1.54693">
        <ele>59</ele>
        <time>2022-03-27T13:07:36Z</time>
      </trkpt>
      <trkpt lat="47.21535" lon="-1.54711">
        <ele>59</ele>
        <time>2022-03-27T13:07:38Z</time>
      </trkpt>
      <trkpt lat="47.21528" lon="-1.54728">
        <ele>59</ele>
        <time>2022-03-27T13:07:40Z</time>
      </trkpt>
      <trkpt lat="47.21521" lon="-1.54745">
        <ele>59</ele>
        <time>2022-03-27T13:07:42Z</time>
      </trkpt>
      <trkpt lat="47.21514" lon="-1.54762">
        <ele>60</ele>
        <time>2022-03-27T13:07:44Z</time>
      </trkpt>
      <trkpt lat="47.21507" lon="-1.54779">
        <ele>60</ele>
        <time>2022-03-27T13:07:46Z</time>
      </trkpt>
      <trkpt lat="47.21499" lon="-1.54795">
        <ele>60</ele>
        <time>2022-03-27T13:07:48Z</time>
      </trkpt>
      <trkpt lat="47.21492" lon="-1.54811">
        <ele>60</ele>
        <time>2022-03-27T13:07:50Z</time>
      </trkpt>
      <trkpt lat="47.21485" lon="-1.54828">
        <ele>60</ele>
        <time>2022-03-27T13:07:52Z</time>
      </trkpt>
      <trkpt lat="47.21478" lon="-1.54843">
        <ele>60</ele>
        <time>2022-03-27T13:07:54Z</time>
      </trkpt>
      <trkpt lat="47.2147" lon="-1.5486">
        <ele>60</ele>
        <time>2022-03-27T13:07:56Z</time>
      </trkpt>
      <trkpt lat="47.21461" lon="-1.54875">
        <ele>60</ele>
        <time>2022-03-27T13:07:58Z</time>
      </trkpt>
      <trkpt lat="47.21453" lon="-1.54892">
        <ele>60</ele>
        <time>2022-03-27T13:08:00Z</time>
      </trkpt>
      <trkpt lat="47.21446" lon="-1.54909">
        <ele>61</ele>
        <time>2022-03-27T13:08:02Z</time>
      </trkpt>
      <trkpt lat="47.21439" lon="-1.54925">
        <ele>60</ele>
        <time>2022-03-27T13:08:04Z</time>
      </trkpt>
      <trkpt lat="47.21431" lon="-1.54941">
        <ele>60</ele>
        <time>2022-03-27T13:08:06Z</time>
      </trkpt>
      <trkpt lat="47.21423" lon="-1.54957">
        <ele>61</ele>
        <time>2022-03-27T13:08:08Z</time>
      </trkpt>
      <trkpt lat="47.21415" lon="-1.54972">
        <ele>61</ele>
        <time>2022-03-27T13:08:10Z</time>
      </trkpt>
      <trkpt lat="47.21408" lon="-1.54987">
        <ele>61</ele>
        <time>2022-03-27T13:08:12Z</time>
      </trkpt>
      <trkpt lat="47.21401" lon="-1.55004">
        <ele>61</ele>
        <time>2022-03-27T13:08:14Z</time>
      </trkpt>
      <trkpt lat="47.21394" lon="-1.5502">
        <ele>61</ele>
        <time>2022-03-27T13:08:16Z</time>
      </trkpt>
      <trkpt lat="47.21387" lon="-1.55037">
        <ele>62</ele>
        <time>2022-03-27T13:08:18Z</time>
      </trkpt>
      <trkpt lat="47.21381" lon="-1.55054">
        <ele>62</ele>
        <time>2022-03-27T13:08:20Z</time>
      </trkpt>
      <trkpt lat="47.21374" lon="-1.55071">
        <ele>62</ele>
        <time>2022-03-27T13:08:22Z</time>
      </trkpt>
      <trkpt lat="47.21367" lon="-1.55088">
        <ele>62</ele>
        <time>2022-03-27T13:08:24Z</time>
      </trkpt>
      <trkpt lat="47.21361" lon="-1.55106">
        <ele>62</ele>
        <time>2022-03-27T13:08:26Z</time>
      </trkpt>
      <trkpt lat="47.21354" lon="-1.55123">
        <ele>62</ele>
        <time>2022-03-27T13:08:28Z</time>
      </trkpt>
      <trkpt lat="47.21347" lon="-1.55139">
        <ele>62</ele>
        <time>2022-03-27T13:08:30Z</time>
      </trkpt>
      <trkpt lat="47.21341" lon="-1.55157">
        <ele>62</ele>
        <time>2022-03-27T13:08:32Z</time>
      </trkpt>
      <trkpt lat="47.21335" lon="-1.55174">
        <ele>62</ele>
        <time>2022-03-27T13:08:34Z</time>
      </trkpt>
      <trkpt lat="47.21328" lon="-1.5519">
        <ele>62</ele>
        <time>2022-03-27T13:08:36Z</time>
      </trkpt>
      <trkpt lat="47.21321" lon="-1.55206">
        <ele>62</ele>
        <time>2022-03-27T13:08:38Z</time>
      </trkpt>
      <trkpt lat="47.21314" lon="-1.55223">
        <ele>61</ele>
        <time>2022-03-27T13:08:40Z</time>
      </trkpt>
      <trkpt lat="47.21308" lon="-1.55239">
        <ele>62</ele>
        <time>2022-03-27T13:08:42Z</time>
      </trkpt>
      <trkpt lat="47.21301" lon="-1.55255">
        <ele>61</ele>
        <time>2022-03-27T13:08:44Z</time>
      </trkpt>
      <trkpt lat="47.21295" lon="-1.55271">
        <ele>61</ele>
        <time>2022-03-27T13:08:46Z</time>
      </trkpt>
      <trkpt lat="47.21288" lon="-1.55285">
        <ele>62</ele>
        <time>2022-03-27T13:08:48Z</time>
      </trkpt>
      <trkpt lat="47.2128" lon="-1.55294">
        <ele>62</ele>
        <time>2022-03-27T13:08:50Z</time>
      </trkpt>
      <trkpt lat="47.21269" lon="-1.55297">
        <ele>60</ele>
        <time>2022-03-27T13:08:52Z</time>
      </trkpt>
      <trkpt lat="47.2126" lon="-1.55301">
        <ele>60</ele>
        <time>2022-03-27T13:08:54Z</time>
      </trkpt>
      <trkpt lat="47.21258" lon="-1.55315">
        <ele>60</ele>
        <time>2022-03-27T13:08:56Z</time>
      </trkpt>
      <trkpt lat="47.2126" lon="-1.55328">
        <ele>60</ele>
        <time>2022-03-27T13:08:58Z</time>
      </trkpt>
      <trkpt lat="47.21269" lon="-1.55342">
        <ele>60</ele>
        <time>2022-03-27T13:09:01Z</time>
      </trkpt>
      <trkpt lat="47.21279" lon="-1.5535">
        <ele>59</ele>
        <time>2022-03-27T13:09:05Z</time>
      </trkpt>
      <trkpt lat="47.21285" lon="-1.55363">
        <ele>59</ele>
        <time>2022-03-27T13:09:07Z</time>
      </trkpt>
      <trkpt lat="47.21281" lon="-1.55381">
        <ele>58</ele>
        <time>2022-03-27T13:09:09Z</time>
      </trkpt>
      <trkpt lat="47.21272" lon="-1.55397">
        <ele>58</ele>
        <time>2022-03-27T13:09:11Z</time>
      </trkpt>
      <trkpt lat="47.21264" lon="-1.55412">
        <ele>58</ele>
        <time>2022-03-27T13:09:13Z</time>
      </trkpt>
      <trkpt lat="47.21255" lon="-1.55426">
        <ele>58</ele>
        <time>2022-03-27T13:09:15Z</time>
      </trkpt>
      <trkpt lat="47.21247" lon="-1.55441">
        <ele>58</ele>
        <time>2022-03-27T13:09:17Z</time>
      </trkpt>
      <trkpt lat="47.21238" lon="-1.55454">
        <ele>58</ele>
        <time>2022-03-27T13:09:19Z</time>
      </trkpt>
      <trkpt lat="47.21229" lon="-1.55469">
        <ele>57</ele>
        <time>2022-03-27T13:09:21Z</time>
      </trkpt>
      <trkpt lat="47.21222" lon="-1.55485">
        <ele>58</ele>
        <time>2022-03-27T13:09:23Z</time>
      </trkpt>
      <trkpt lat="47.21217" lon="-1.55501">
        <ele>58</ele>
        <time>2022-03-27T13:09:25Z</time>
      </trkpt>
      <trkpt lat="47.21212" lon="-1.55519">
        <ele>58</ele>
        <time>2022-03-27T13:09:27Z</time>
      </trkpt>
      <trkpt lat="47.21207" lon="-1.55536">
        <ele>58</ele>
        <time>2022-03-27T13:09:29Z</time>
      </trkpt>
      <trkpt lat="47.21202" lon="-1.55554">
        <ele>58</ele>
        <time>2022-03-27T13:09:31Z</time>
      </trkpt>
      <trkpt lat="47.21196" lon="-1.55572">
        <ele>58</ele>
        <time>2022-03-27T13:09:33Z</time>
      </trkpt>
      <trkpt lat="47.21191" lon="-1.55589">
        <ele>58</ele>
        <time>2022-03-27T13:09:35Z</time>
      </trkpt>
      <trkpt lat="47.21186" lon="-1.55603">
        <ele>59</ele>
        <time>2022-03-27T13:09:37Z</time>
      </trkpt>
      <trkpt lat="47.21182" lon="-1.55617">
        <ele>59</ele>
        <time>2022-03-27T13:09:40Z</time>
      </trkpt>
      <trkpt lat="47.21176" lon="-1.55632">
        <ele>59</ele>
        <time>2022-03-27T13:09:43Z</time>
      </trkpt>
      <trkpt lat="47.21172" lon="-1.55648">
        <ele>59</ele>
        <time>2022-03-27T13:09:46Z</time>
      </trkpt>
      <trkpt lat="47.21168" lon="-1.55663">
        <ele>59</ele>
        <time>2022-03-27T13:09:48Z</time>
      </trkpt>
      <trkpt lat="47.21159" lon="-1.55673">
        <ele>59</ele>
        <time>2022-03-27T13:09:50Z</time>
      </trkpt>
      <trkpt lat="47.21145" lon="-1.55666">
        <ele>59</ele>
        <time>2022-03-27T13:09:52Z</time>
      </trkpt>
      <trkpt lat="47.21133" lon="-1.55656">
        <ele>59</ele>
        <time>2022-03-27T13:09:54Z</time>
      </trkpt>
      <trkpt lat="47.21121" lon="-1.55645">
        <ele>58</ele>
        <time>2022-03-27T13:09:56Z</time>
      </trkpt>
      <trkpt lat="47.21109" lon="-1.55635">
        <ele>58</ele>
        <time>2022-03-27T13:09:58Z</time>
      </trkpt>
      <trkpt lat="47.21097" lon="-1.55626">
        <ele>58</ele>
        <time>2022-03-27T13:10:00Z</time>
      </trkpt>
      <trkpt lat="47.21085" lon="-1.55617">
        <ele>58</ele>
        <time>2022-03-27T13:10:02Z</time>
      </trkpt>
      <trkpt lat="47.21073" lon="-1.55607">
        <ele>59</ele>
        <time>2022-03-27T13:10:04Z</time>
      </trkpt>
      <trkpt lat="47.2106" lon="-1.55597">
        <ele>59</ele>
        <time>2022-03-27T13:10:06Z</time>
      </trkpt>
      <trkpt lat="47.21048" lon="-1.55591">
        <ele>59</ele>
        <time>2022-03-27T13:10:08Z</time>
      </trkpt>
      <trkpt lat="47.21036" lon="-1.55586">
        <ele>59</ele>
        <time>2022-03-27T13:10:10Z</time>
      </trkpt>
      <trkpt lat="47.21024" lon="-1.55582">
        <ele>58</ele>
        <time>2022-03-27T13:10:12Z</time>
      </trkpt>
      <trkpt lat="47.21011" lon="-1.55579">
        <ele>58</ele>
        <time>2022-03-27T13:10:14Z</time>
      </trkpt>
      <trkpt lat="47.21" lon="-1.55576">
        <ele>58</ele>
        <time>2022-03-27T13:10:16Z</time>
      </trkpt>
      <trkpt lat="47.20988" lon="-1.55574">
        <ele>57</ele>
        <time>2022-03-27T13:10:18Z</time>
      </trkpt>
      <trkpt lat="47.20976" lon="-1.55573">
        <ele>57</ele>
        <time>2022-03-27T13:10:20Z</time>
      </trkpt>
      <trkpt lat="47.20965" lon="-1.55571">
        <ele>57</ele>
        <time>2022-03-27T13:10:22Z</time>
      </trkpt>
      <trkpt lat="47.20956" lon="-1.5557">
        <ele>56</ele>
        <time>2022-03-27T13:10:25Z</time>
      </trkpt>
      <trkpt lat="47.20946" lon="-1.55571">
        <ele>55</ele>
        <time>2022-03-27T13:10:52Z</time>
      </trkpt>
      <trkpt lat="47.20932" lon="-1.55568">
        <ele>54</ele>
        <time>2022-03-27T13:10:55Z</time>
      </trkpt>
      <trkpt lat="47.20922" lon="-1.55563">
        <ele>55</ele>
        <time>2022-03-27T13:10:57Z</time>
      </trkpt>
      <trkpt lat="47.20912" lon="-1.55558">
        <ele>55</ele>
        <time>2022-03-27T13:10:59Z</time>
      </trkpt>
      <trkpt lat="47.20901" lon="-1.55555">
        <ele>55</ele>
        <time>2022-03-27T13:11:01Z</time>
      </trkpt>
      <trkpt lat="47.2089" lon="-1.55552">
        <ele>56</ele>
        <time>2022-03-27T13:11:03Z</time>
      </trkpt>
      <trkpt lat="47.20879" lon="-1.55549">
        <ele>57</ele>
        <time>2022-03-27T13:11:05Z</time>
      </trkpt>
      <trkpt lat="47.20868" lon="-1.55547">
        <ele>57</ele>
        <time>2022-03-27T13:11:07Z</time>
      </trkpt>
      <trkpt lat="47.20857" lon="-1.55543">
        <ele>58</ele>
        <time>2022-03-27T13:11:09Z</time>
      </trkpt>
      <trkpt lat="47.20846" lon="-1.55541">
        <ele>59</ele>
        <time>2022-03-27T13:11:11Z</time>
      </trkpt>
      <trkpt lat="47.20835" lon="-1.55539">
        <ele>59</ele>
        <time>2022-03-27T13:11:13Z</time>
      </trkpt>
      <trkpt lat="47.20825" lon="-1.55537">
        <ele>60</ele>
        <time>2022-03-27T13:11:15Z</time>
      </trkpt>
      <trkpt lat="47.20814" lon="-1.55534">
        <ele>59</ele>
        <time>2022-03-27T13:11:17Z</time>
      </trkpt>
      <trkpt lat="47.20803" lon="-1.55532">
        <ele>59</ele>
        <time>2022-03-27T13:11:19Z</time>
      </trkpt>
      <trkpt lat="47.20791" lon="-1.55529">
        <ele>59</ele>
        <time>2022-03-27T13:11:21Z</time>
      </trkpt>
      <trkpt lat="47.20779" lon="-1.55526">
        <ele>58</ele>
        <time>2022-03-27T13:11:23Z</time>
      </trkpt>
      <trkpt lat="47.20766" lon="-1.55523">
        <ele>58</ele>
        <time>2022-03-27T13:11:25Z</time>
      </trkpt>
      <trkpt lat="47.20751" lon="-1.55519">
        <ele>57</ele>
        <time>2022-03-27T13:11:27Z</time>
      </trkpt>
      <trkpt lat="47.20736" lon="-1.55514">
        <ele>57</ele>
        <time>2022-03-27T13:11:29Z</time>
      </trkpt>
      <trkpt lat="47.20721" lon="-1.55509">
        <ele>56</ele>
        <time>2022-03-27T13:11:31Z</time>
      </trkpt>
      <trkpt lat="47.20707" lon="-1.55508">
        <ele>56</ele>
        <time>2022-03-27T13:11:33Z</time>
      </trkpt>
      <trkpt lat="47.20693" lon="-1.55506">
        <ele>56</ele>
        <time>2022-03-27T13:11:35Z</time>
      </trkpt>
      <trkpt lat="47.20679" lon="-1.55504">
        <ele>56</ele>
        <time>2022-03-27T13:11:37Z</time>
      </trkpt>
      <trkpt lat="47.20664" lon="-1.55502">
        <ele>56</ele>
        <time>2022-03-27T13:11:39Z</time>
      </trkpt>
      <trkpt lat="47.20649" lon="-1.55498">
        <ele>56</ele>
        <time>2022-03-27T13:11:41Z</time>
      </trkpt>
      <trkpt lat="47.20634" lon="-1.55493">
        <ele>56</ele>
        <time>2022-03-27T13:11:43Z</time>
      </trkpt>
      <trkpt lat="47.2062" lon="-1.5549">
        <ele>56</ele>
        <time>2022-03-27T13:11:45Z</time>
      </trkpt>
      <trkpt lat="47.20606" lon="-1.55487">
        <ele>57</ele>
        <time>2022-03-27T13:11:47Z</time>
      </trkpt>
      <trkpt lat="47.20592" lon="-1.55484">
        <ele>57</ele>
        <time>2022-03-27T13:11:49Z</time>
      </trkpt>
      <trkpt lat="47.20579" lon="-1.55481">
        <ele>56</ele>
        <time>2022-03-27T13:11:51Z</time>
      </trkpt>
      <trkpt lat="47.20567" lon="-1.55485">
        <ele>56</ele>
        <time>2022-03-27T13:11:53Z</time>
      </trkpt>
      <trkpt lat="47.20556" lon="-1.55495">
        <ele>57</ele>
        <time>2022-03-27T13:11:55Z</time>
      </trkpt>
      <trkpt lat="47.20542" lon="-1.55504">
        <ele>57</ele>
        <time>2022-03-27T13:11:57Z</time>
      </trkpt>
      <trkpt lat="47.20533" lon="-1.55504">
        <ele>56</ele>
        <time>2022-03-27T13:11:58Z</time>
      </trkpt>
      <trkpt lat="47.20517" lon="-1.55495">
        <ele>55</ele>
        <time>2022-03-27T13:12:00Z</time>
      </trkpt>
      <trkpt lat="47.20507" lon="-1.55477">
        <ele>56</ele>
        <time>2022-03-27T13:12:02Z</time>
      </trkpt>
      <trkpt lat="47.20504" lon="-1.55456">
        <ele>56</ele>
        <time>2022-03-27T13:12:04Z</time>
      </trkpt>
      <trkpt lat="47.20508" lon="-1.55435">
        <ele>56</ele>
        <time>2022-03-27T13:12:06Z</time>
      </trkpt>
      <trkpt lat="47.20506" lon="-1.55416">
        <ele>57</ele>
        <time>2022-03-27T13:12:08Z</time>
      </trkpt>
      <trkpt lat="47.20499" lon="-1.554">
        <ele>58</ele>
        <time>2022-03-27T13:12:10Z</time>
      </trkpt>
      <trkpt lat="47.20492" lon="-1.55385">
        <ele>58</ele>
        <time>2022-03-27T13:12:12Z</time>
      </trkpt>
      <trkpt lat="47.20484" lon="-1.5537">
        <ele>59</ele>
        <time>2022-03-27T13:12:14Z</time>
      </trkpt>
      <trkpt lat="47.20477" lon="-1.55355">
        <ele>58</ele>
        <time>2022-03-27T13:12:16Z</time>
      </trkpt>
      <trkpt lat="47.20468" lon="-1.5534">
        <ele>58</ele>
        <time>2022-03-27T13:12:18Z</time>
      </trkpt>
      <trkpt lat="47.2046" lon="-1.55324">
        <ele>57</ele>
        <time>2022-03-27T13:12:20Z</time>
      </trkpt>
      <trkpt lat="47.20453" lon="-1.55308">
        <ele>57</ele>
        <time>2022-03-27T13:12:22Z</time>
      </trkpt>
      <trkpt lat="47.20445" lon="-1.55293">
        <ele>58</ele>
        <time>2022-03-27T13:12:24Z</time>
      </trkpt>
      <trkpt lat="47.20437" lon="-1.55278">
        <ele>58</ele>
        <time>2022-03-27T13:12:26Z</time>
      </trkpt>
      <trkpt lat="47.20429" lon="-1.55262">
        <ele>58</ele>
        <time>2022-03-27T13:12:28Z</time>
      </trkpt>
      <trkpt lat="47.20421" lon="-1.55247">
        <ele>57</ele>
        <time>2022-03-27T13:12:30Z</time>
      </trkpt>
      <trkpt lat="47.20414" lon="-1.55232">
        <ele>57</ele>
        <time>2022-03-27T13:12:32Z</time>
      </trkpt>
      <trkpt lat="47.20408" lon="-1.55218">
        <ele>57</ele>
        <time>2022-03-27T13:12:34Z</time>
      </trkpt>
      <trkpt lat="47.20401" lon="-1.55205">
        <ele>57</ele>
        <time>2022-03-27T13:12:36Z</time>
      </trkpt>
      <trkpt lat="47.20394" lon="-1.55193">
        <ele>57</ele>
        <time>2022-03-27T13:12:38Z</time>
      </trkpt>
      <trkpt lat="47.20385" lon="-1.55185">
        <ele>57</ele>
        <time>2022-03-27T13:12:40Z</time>
      </trkpt>
      <trkpt lat="47.20374" lon="-1.55192">
        <ele>56</ele>
        <time>2022-03-27T13:12:42Z</time>
      </trkpt>
      <trkpt lat="47.20365" lon="-1.55206">
        <ele>56</ele>
        <time>2022-03-27T13:12:44Z</time>
      </trkpt>
      <trkpt lat="47.20353" lon="-1.55216">
        <ele>56</ele>
        <time>2022-03-27T13:12:46Z</time>
      </trkpt>
      <trkpt lat="47.20342" lon="-1.55231">
        <ele>56</ele>
        <time>2022-03-27T13:12:48Z</time>
      </trkpt>
      <trkpt lat="47.20331" lon="-1.55245">
        <ele>56</ele>
        <time>2022-03-27T13:12:50Z</time>
      </trkpt>
      <trkpt lat="47.2032" lon="-1.55259">
        <ele>56</ele>
        <time>2022-03-27T13:12:52Z</time>
      </trkpt>
      <trkpt lat="47.20311" lon="-1.55272">
        <ele>56</ele>
        <time>2022-03-27T13:12:54Z</time>
      </trkpt>
      <trkpt lat="47.20301" lon="-1.55285">
        <ele>57</ele>
        <time>2022-03-27T13:12:56Z</time>
      </trkpt>
      <trkpt lat="47.20291" lon="-1.55297">
        <ele>56</ele>
        <time>2022-03-27T13:12:58Z</time>
      </trkpt>
      <trkpt lat="47.20282" lon="-1.5531">
        <ele>57</ele>
        <time>2022-03-27T13:13:00Z</time>
      </trkpt>
      <trkpt lat="47.20272" lon="-1.55323">
        <ele>57</ele>
        <time>2022-03-27T13:13:02Z</time>
      </trkpt>
      <trkpt lat="47.20263" lon="-1.55336">
        <ele>57</ele>
        <time>2022-03-27T13:13:04Z</time>
      </trkpt>
      <trkpt lat="47.20253" lon="-1.55349">
        <ele>57</ele>
        <time>2022-03-27T13:13:06Z</time>
      </trkpt>
      <trkpt lat="47.20242" lon="-1.55361">
        <ele>57</ele>
        <time>2022-03-27T13:13:08Z</time>
      </trkpt>
      <trkpt lat="47.20232" lon="-1.55374">
        <ele>57</ele>
        <time>2022-03-27T13:13:10Z</time>
      </trkpt>
      <trkpt lat="47.20223" lon="-1.55387">
        <ele>58</ele>
        <time>2022-03-27T13:13:12Z</time>
      </trkpt>
      <trkpt lat="47.20213" lon="-1.554">
        <ele>58</ele>
        <time>2022-03-27T13:13:14Z</time>
      </trkpt>
      <trkpt lat="47.20204" lon="-1.55412">
        <ele>58</ele>
        <time>2022-03-27T13:13:16Z</time>
      </trkpt>
      <trkpt lat="47.20196" lon="-1.55427">
        <ele>58</ele>
        <time>2022-03-27T13:13:19Z</time>
      </trkpt>
      <trkpt lat="47.2019" lon="-1.5544">
        <ele>58</ele>
        <time>2022-03-27T13:13:21Z</time>
      </trkpt>
      <trkpt lat="47.20184" lon="-1.55458">
        <ele>58</ele>
        <time>2022-03-27T13:13:23Z</time>
      </trkpt>
      <trkpt lat="47.2018" lon="-1.55477">
        <ele>58</ele>
        <time>2022-03-27T13:13:25Z</time>
      </trkpt>
      <trkpt lat="47.20179" lon="-1.55496">
        <ele>59</ele>
        <time>2022-03-27T13:13:27Z</time>
      </trkpt>
      <trkpt lat="47.20182" lon="-1.55515">
        <ele>58</ele>
        <time>2022-03-27T13:13:29Z</time>
      </trkpt>
      <trkpt lat="47.20191" lon="-1.55531">
        <ele>58</ele>
        <time>2022-03-27T13:13:31Z</time>
      </trkpt>
      <trkpt lat="47.20204" lon="-1.55538">
        <ele>57</ele>
        <time>2022-03-27T13:13:33Z</time>
      </trkpt>
      <trkpt lat="47.20215" lon="-1.55543">
        <ele>57</ele>
        <time>2022-03-27T13:13:35Z</time>
      </trkpt>
      <trkpt lat="47.20228" lon="-1.55549">
        <ele>57</ele>
        <time>2022-03-27T13:13:37Z</time>
      </trkpt>
      <trkpt lat="47.20239" lon="-1.55555">
        <ele>57</ele>
        <time>2022-03-27T13:13:39Z</time>
      </trkpt>
      <trkpt lat="47.20251" lon="-1.5556">
        <ele>57</ele>
        <time>2022-03-27T13:13:41Z</time>
      </trkpt>
      <trkpt lat="47.20263" lon="-1.55564">
        <ele>57</ele>
        <time>2022-03-27T13:13:43Z</time>
      </trkpt>
      <trkpt lat="47.20274" lon="-1.55566">
        <ele>58</ele>
        <time>2022-03-27T13:13:45Z</time>
      </trkpt>
      <trkpt lat="47.20285" lon="-1.5557">
        <ele>58</ele>
        <time>2022-03-27T13:13:47Z</time>
      </trkpt>
      <trkpt lat="47.20294" lon="-1.55578">
        <ele>58</ele>
        <time>2022-03-27T13:13:49Z</time>
      </trkpt>
      <trkpt lat="47.20299" lon="-1.55593">
        <ele>58</ele>
        <time>2022-03-27T13:13:51Z</time>
      </trkpt>
      <trkpt lat="47.20297" lon="-1.55611">
        <ele>58</ele>
        <time>2022-03-27T13:13:53Z</time>
      </trkpt>
      <trkpt lat="47.20295" lon="-1.55631">
        <ele>58</ele>
        <time>2022-03-27T13:13:55Z</time>
      </trkpt>
      <trkpt lat="47.20293" lon="-1.55651">
        <ele>58</ele>
        <time>2022-03-27T13:13:57Z</time>
      </trkpt>
      <trkpt lat="47.20291" lon="-1.55671">
        <ele>58</ele>
        <time>2022-03-27T13:13:59Z</time>
      </trkpt>
      <trkpt lat="47.20289" lon="-1.55691">
        <ele>58</ele>
        <time>2022-03-27T13:14:01Z</time>
      </trkpt>
      <trkpt lat="47.20286" lon="-1.55711">
        <ele>58</ele>
        <time>2022-03-27T13:14:03Z</time>
      </trkpt>
      <trkpt lat="47.20284" lon="-1.55732">
        <ele>58</ele>
        <time>2022-03-27T13:14:05Z</time>
      </trkpt>
      <trkpt lat="47.20282" lon="-1.55751">
        <ele>58</ele>
        <time>2022-03-27T13:14:07Z</time>
      </trkpt>
      <trkpt lat="47.2028" lon="-1.55771">
        <ele>58</ele>
        <time>2022-03-27T13:14:09Z</time>
      </trkpt>
      <trkpt lat="47.20278" lon="-1.5579">
        <ele>57</ele>
        <time>2022-03-27T13:14:11Z</time>
      </trkpt>
      <trkpt lat="47.20276" lon="-1.55809">
        <ele>57</ele>
        <time>2022-03-27T13:14:13Z</time>
      </trkpt>
      <trkpt lat="47.20274" lon="-1.55828">
        <ele>58</ele>
        <time>2022-03-27T13:14:15Z</time>
      </trkpt>
      <trkpt lat="47.20272" lon="-1.55848">
        <ele>58</ele>
        <time>2022-03-27T13:14:17Z</time>
      </trkpt>
      <trkpt lat="47.2027" lon="-1.55867">
        <ele>58</ele>
        <time>2022-03-27T13:14:19Z</time>
      </trkpt>
      <trkpt lat="47.20268" lon="-1.55886">
        <ele>58</ele>
        <time>2022-03-27T13:14:21Z</time>
      </trkpt>
      <trkpt lat="47.20266" lon="-1.55905">
        <ele>57</ele>
        <time>2022-03-27T13:14:23Z</time>
      </trkpt>
      <trkpt lat="47.20264" lon="-1.55924">
        <ele>57</ele>
        <time>2022-03-27T13:14:25Z</time>
      </trkpt>
      <trkpt lat="47.2026" lon="-1.55943">
        <ele>57</ele>
        <time>2022-03-27T13:14:27Z</time>
      </trkpt>
      <trkpt lat="47.20258" lon="-1.55964">
        <ele>58</ele>
        <time>2022-03-27T13:14:29Z</time>
      </trkpt>
      <trkpt lat="47.20257" lon="-1.55984">
        <ele>58</ele>
        <time>2022-03-27T13:14:31Z</time>
      </trkpt>
      <trkpt lat="47.20255" lon="-1.56004">
        <ele>57</ele>
        <time>2022-03-27T13:14:33Z</time>
      </trkpt>
      <trkpt lat="47.20254" lon="-1.56024">
        <ele>57</ele>
        <time>2022-03-27T13:14:35Z</time>
      </trkpt>
      <trkpt lat="47.20251" lon="-1.56043">
        <ele>57</ele>
        <time>2022-03-27T13:14:37Z</time>
      </trkpt>
      <trkpt lat="47.2025" lon="-1.56063">
        <ele>57</ele>
        <time>2022-03-27T13:14:39Z</time>
      </trkpt>
      <trkpt lat="47.20248" lon="-1.56082">
        <ele>57</ele>
        <time>2022-03-27T13:14:41Z</time>
      </trkpt>
      <trkpt lat="47.20245" lon="-1.56102">
        <ele>58</ele>
        <time>2022-03-27T13:14:43Z</time>
      </trkpt>
      <trkpt lat="47.20243" lon="-1.5612">
        <ele>58</ele>
        <time>2022-03-27T13:14:45Z</time>
      </trkpt>
      <trkpt lat="47.20238" lon="-1.56137">
        <ele>58</ele>
        <time>2022-03-27T13:14:47Z</time>
      </trkpt>
      <trkpt lat="47.20229" lon="-1.56151">
        <ele>58</ele>
        <time>2022-03-27T13:14:49Z</time>
      </trkpt>
      <trkpt lat="47.20218" lon="-1.56163">
        <ele>57</ele>
        <time>2022-03-27T13:14:51Z</time>
      </trkpt>
      <trkpt lat="47.20206" lon="-1.56171">
        <ele>58</ele>
        <time>2022-03-27T13:14:53Z</time>
      </trkpt>
      <trkpt lat="47.20194" lon="-1.56178">
        <ele>57</ele>
        <time>2022-03-27T13:14:55Z</time>
      </trkpt>
      <trkpt lat="47.20183" lon="-1.56188">
        <ele>57</ele>
        <time>2022-03-27T13:14:57Z</time>
      </trkpt>
      <trkpt lat="47.20172" lon="-1.56195">
        <ele>57</ele>
        <time>2022-03-27T13:14:59Z</time>
      </trkpt>
      <trkpt lat="47.2016" lon="-1.5619">
        <ele>57</ele>
        <time>2022-03-27T13:15:01Z</time>
      </trkpt>
      <trkpt lat="47.20149" lon="-1.56182">
        <ele>57</ele>
        <time>2022-03-27T13:15:03Z</time>
      </trkpt>
      <trkpt lat="47.20136" lon="-1.56182">
        <ele>57</ele>
        <time>2022-03-27T13:15:05Z</time>
      </trkpt>
      <trkpt lat="47.20123" lon="-1.56181">
        <ele>58</ele>
        <time>2022-03-27T13:15:07Z</time>
      </trkpt>
      <trkpt lat="47.2011" lon="-1.56181">
        <ele>58</ele>
        <time>2022-03-27T13:15:09Z</time>
      </trkpt>
      <trkpt lat="47.20097" lon="-1.56182">
        <ele>58</ele>
        <time>2022-03-27T13:15:11Z</time>
      </trkpt>
      <trkpt lat="47.20084" lon="-1.56181">
        <ele>58</ele>
        <time>2022-03-27T13:15:13Z</time>
      </trkpt>
      <trkpt lat="47.20071" lon="-1.56181">
        <ele>58</ele>
        <time>2022-03-27T13:15:15Z</time>
      </trkpt>
      <trkpt lat="47.20058" lon="-1.56181">
        <ele>58</ele>
        <time>2022-03-27T13:15:17Z</time>
      </trkpt>
      <trkpt lat="47.20045" lon="-1.56181">
        <ele>58</ele>
        <time>2022-03-27T13:15:19Z</time>
      </trkpt>
      <trkpt lat="47.20032" lon="-1.56182">
        <ele>58</ele>
        <time>2022-03-27T13:15:21Z</time>
      </trkpt>
      <trkpt lat="47.2002" lon="-1.56183">
        <ele>58</ele>
        <time>2022-03-27T13:15:23Z</time>
      </trkpt>
      <trkpt lat="47.20007" lon="-1.56187">
        <ele>58</ele>
        <time>2022-03-27T13:15:25Z</time>
      </trkpt>
      <trkpt lat="47.19996" lon="-1.56193">
        <ele>58</ele>
        <time>2022-03-27T13:15:27Z</time>
      </trkpt>
      <trkpt lat="47.19984" lon="-1.56193">
        <ele>58</ele>
        <time>2022-03-27T13:15:29Z</time>
      </trkpt>
      <trkpt lat="47.19975" lon="-1.56182">
        <ele>57</ele>
        <time>2022-03-27T13:15:31Z</time>
      </trkpt>
      <trkpt lat="47.19969" lon="-1.56167">
        <ele>58</ele>
        <time>2022-03-27T13:15:33Z</time>
      </trkpt>
      <trkpt lat="47.19957" lon="-1.56166">
        <ele>58</ele>
        <time>2022-03-27T13:15:35Z</time>
      </trkpt>
      <trkpt lat="47.19944" lon="-1.5617">
        <ele>59</ele>
        <time>2022-03-27T13:15:37Z</time>
      </trkpt>
      <trkpt lat="47.1993" lon="-1.5617">
        <ele>60</ele>
        <time>2022-03-27T13:15:39Z</time>
      </trkpt>
      <trkpt lat="47.19916" lon="-1.56173">
        <ele>61</ele>
        <time>2022-03-27T13:15:41Z</time>
      </trkpt>
      <trkpt lat="47.19903" lon="-1.56177">
        <ele>61</ele>
        <time>2022-03-27T13:15:43Z</time>
      </trkpt>
      <trkpt lat="47.19889" lon="-1.5618">
        <ele>62</ele>
        <time>2022-03-27T13:15:45Z</time>
      </trkpt>
      <trkpt lat="47.19875" lon="-1.56183">
        <ele>62</ele>
        <time>2022-03-27T13:15:47Z</time>
      </trkpt>
      <trkpt lat="47.19861" lon="-1.56185">
        <ele>62</ele>
        <time>2022-03-27T13:15:49Z</time>
      </trkpt>
      <trkpt lat="47.19847" lon="-1.56188">
        <ele>62</ele>
        <time>2022-03-27T13:15:51Z</time>
      </trkpt>
      <trkpt lat="47.19833" lon="-1.56191">
        <ele>63</ele>
        <time>2022-03-27T13:15:53Z</time>
      </trkpt>
      <trkpt lat="47.19819" lon="-1.56194">
        <ele>62</ele>
        <time>2022-03-27T13:15:55Z</time>
      </trkpt>
      <trkpt lat="47.19806" lon="-1.56196">
        <ele>63</ele>
        <time>2022-03-27T13:15:57Z</time>
      </trkpt>
      <trkpt lat="47.19793" lon="-1.56198">
        <ele>63</ele>
        <time>2022-03-27T13:15:59Z</time>
      </trkpt>
      <trkpt lat="47.19779" lon="-1.56201">
        <ele>62</ele>
        <time>2022-03-27T13:16:01Z</time>
      </trkpt>
      <trkpt lat="47.19765" lon="-1.56204">
        <ele>62</ele>
        <time>2022-03-27T13:16:03Z</time>
      </trkpt>
      <trkpt lat="47.19751" lon="-1.56206">
        <ele>61</ele>
        <time>2022-03-27T13:16:05Z</time>
      </trkpt>
      <trkpt lat="47.19737" lon="-1.56209">
        <ele>60</ele>
        <time>2022-03-27T13:16:07Z</time>
      </trkpt>
      <trkpt lat="47.19721" lon="-1.56211">
        <ele>60</ele>
        <time>2022-03-27T13:16:09Z</time>
      </trkpt>
      <trkpt lat="47.19705" lon="-1.56214">
        <ele>59</ele>
        <time>2022-03-27T13:16:11Z</time>
      </trkpt>
      <trkpt lat="47.19688" lon="-1.56218">
        <ele>58</ele>
        <time>2022-03-27T13:16:13Z</time>
      </trkpt>
      <trkpt lat="47.19671" lon="-1.56222">
        <ele>57</ele>
        <time>2022-03-27T13:16:15Z</time>
      </trkpt>
      <trkpt lat="47.19653" lon="-1.56228">
        <ele>56</ele>
        <time>2022-03-27T13:16:17Z</time>
      </trkpt>
      <trkpt lat="47.19645" lon="-1.56232">
        <ele>56</ele>
        <time>2022-03-27T13:16:18Z</time>
      </trkpt>
      <trkpt lat="47.19636" lon="-1.56253">
        <ele>55</ele>
        <time>2022-03-27T13:16:20Z</time>
      </trkpt>
      <trkpt lat="47.19635" lon="-1.56278">
        <ele>55</ele>
        <time>2022-03-27T13:16:22Z</time>
      </trkpt>
      <trkpt lat="47.19634" lon="-1.56301">
        <ele>55</ele>
        <time>2022-03-27T13:16:24Z</time>
      </trkpt>
      <trkpt lat="47.19632" lon="-1.56324">
        <ele>56</ele>
        <time>2022-03-27T13:16:26Z</time>
      </trkpt>
      <trkpt lat="47.19631" lon="-1.56346">
        <ele>56</ele>
        <time>2022-03-27T13:16:28Z</time>
      </trkpt>
      <trkpt lat="47.1963" lon="-1.56369">
        <ele>56</ele>
        <time>2022-03-27T13:16:30Z</time>
      </trkpt>
      <trkpt lat="47.19631" lon="-1.56391">
        <ele>56</ele>
        <time>2022-03-27T13:16:32Z</time>
      </trkpt>
      <trkpt lat="47.19632" lon="-1.56413">
        <ele>56</ele>
        <time>2022-03-27T13:16:34Z</time>
      </trkpt>
      <trkpt lat="47.19633" lon="-1.56435">
        <ele>56</ele>
        <time>2022-03-27T13:16:36Z</time>
      </trkpt>
      <trkpt lat="47.19633" lon="-1.56457">
        <ele>56</ele>
        <time>2022-03-27T13:16:38Z</time>
      </trkpt>
      <trkpt lat="47.19634" lon="-1.56478">
        <ele>56</ele>
        <time>2022-03-27T13:16:40Z</time>
      </trkpt>
      <trkpt lat="47.19635" lon="-1.565">
        <ele>56</ele>
        <time>2022-03-27T13:16:42Z</time>
      </trkpt>
      <trkpt lat="47.19635" lon="-1.5652">
        <ele>56</ele>
        <time>2022-03-27T13:16:44Z</time>
      </trkpt>
      <trkpt lat="47.19635" lon="-1.56541">
        <ele>56</ele>
        <time>2022-03-27T13:16:46Z</time>
      </trkpt>
      <trkpt lat="47.19633" lon="-1.56561">
        <ele>56</ele>
        <time>2022-03-27T13:16:48Z</time>
      </trkpt>
      <trkpt lat="47.19632" lon="-1.56582">
        <ele>56</ele>
        <time>2022-03-27T13:16:50Z</time>
      </trkpt>
      <trkpt lat="47.19631" lon="-1.56602">
        <ele>56</ele>
        <time>2022-03-27T13:16:52Z</time>
      </trkpt>
      <trkpt lat="47.1963" lon="-1.56623">
        <ele>56</ele>
        <time>2022-03-27T13:16:54Z</time>
      </trkpt>
      <trkpt lat="47.19629" lon="-1.56643">
        <ele>56</ele>
        <time>2022-03-27T13:16:56Z</time>
      </trkpt>
      <trkpt lat="47.19629" lon="-1.56663">
        <ele>56</ele>
        <time>2022-03-27T13:16:58Z</time>
      </trkpt>
      <trkpt lat="47.19629" lon="-1.56683">
        <ele>57</ele>
        <time>2022-03-27T13:17:00Z</time>
      </trkpt>
      <trkpt lat="47.19628" lon="-1.56703">
        <ele>57</ele>
        <time>2022-03-27T13:17:02Z</time>
      </trkpt>
      <trkpt lat="47.19628" lon="-1.56723">
        <ele>57</ele>
        <time>2022-03-27T13:17:04Z</time>
      </trkpt>
      <trkpt lat="47.19626" lon="-1.56743">
        <ele>57</ele>
        <time>2022-03-27T13:17:06Z</time>
      </trkpt>
      <trkpt lat="47.19624" lon="-1.56763">
        <ele>57</ele>
        <time>2022-03-27T13:17:08Z</time>
      </trkpt>
      <trkpt lat="47.19622" lon="-1.56783">
        <ele>57</ele>
        <time>2022-03-27T13:17:10Z</time>
      </trkpt>
      <trkpt lat="47.1962" lon="-1.56803">
        <ele>57</ele>
        <time>2022-03-27T13:17:12Z</time>
      </trkpt>
      <trkpt lat="47.19619" lon="-1.56822">
        <ele>56</ele>
        <time>2022-03-27T13:17:14Z</time>
      </trkpt>
      <trkpt lat="47.19618" lon="-1.56842">
        <ele>56</ele>
        <time>2022-03-27T13:17:16Z</time>
      </trkpt>
      <trkpt lat="47.19617" lon="-1.56861">
        <ele>56</ele>
        <time>2022-03-27T13:17:18Z</time>
      </trkpt>
      <trkpt lat="47.19615" lon="-1.5688">
        <ele>56</ele>
        <time>2022-03-27T13:17:20Z</time>
      </trkpt>
      <trkpt lat="47.19614" lon="-1.569">
        <ele>56</ele>
        <time>2022-03-27T13:17:22Z</time>
      </trkpt>
      <trkpt lat="47.19613" lon="-1.56919">
        <ele>56</ele>
        <time>2022-03-27T13:17:24Z</time>
      </trkpt>
      <trkpt lat="47.19612" lon="-1.56938">
        <ele>55</ele>
        <time>2022-03-27T13:17:26Z</time>
      </trkpt>
      <trkpt lat="47.1961" lon="-1.56957">
        <ele>55</ele>
        <time>2022-03-27T13:17:28Z</time>
      </trkpt>
      <trkpt lat="47.19609" lon="-1.56976">
        <ele>55</ele>
        <time>2022-03-27T13:17:30Z</time>
      </trkpt>
      <trkpt lat="47.19607" lon="-1.56996">
        <ele>55</ele>
        <time>2022-03-27T13:17:32Z</time>
      </trkpt>
      <trkpt lat="47.19606" lon="-1.57015">
        <ele>55</ele>
        <time>2022-03-27T13:17:34Z</time>
      </trkpt>
      <trkpt lat="47.19605" lon="-1.57035">
        <ele>55</ele>
        <time>2022-03-27T13:17:36Z</time>
      </trkpt>
      <trkpt lat="47.19605" lon="-1.57054">
        <ele>55</ele>
        <time>2022-03-27T13:17:38Z</time>
      </trkpt>
      <trkpt lat="47.19604" lon="-1.57072">
        <ele>55</ele>
        <time>2022-03-27T13:17:40Z</time>
      </trkpt>
      <trkpt lat="47.19603" lon="-1.5709">
        <ele>55</ele>
        <time>2022-03-27T13:17:42Z</time>
      </trkpt>
      <trkpt lat="47.19602" lon="-1.57109">
        <ele>56</ele>
        <time>2022-03-27T13:17:44Z</time>
      </trkpt>
      <trkpt lat="47.19601" lon="-1.57126">
        <ele>56</ele>
        <time>2022-03-27T13:17:46Z</time>
      </trkpt>
      <trkpt lat="47.196" lon="-1.57145">
        <ele>55</ele>
        <time>2022-03-27T13:17:48Z</time>
      </trkpt>
      <trkpt lat="47.19599" lon="-1.57163">
        <ele>55</ele>
        <time>2022-03-27T13:17:50Z</time>
      </trkpt>
      <trkpt lat="47.19598" lon="-1.57181">
        <ele>55</ele>
        <time>2022-03-27T13:17:52Z</time>
      </trkpt>
      <trkpt lat="47.19597" lon="-1.572">
        <ele>55</ele>
        <time>2022-03-27T13:17:54Z</time>
      </trkpt>
      <trkpt lat="47.19596" lon="-1.57218">
        <ele>55</ele>
        <time>2022-03-27T13:17:56Z</time>
      </trkpt>
      <trkpt lat="47.19594" lon="-1.57237">
        <ele>55</ele>
        <time>2022-03-27T13:17:58Z</time>
      </trkpt>
      <trkpt lat="47.19592" lon="-1.57256">
        <ele>55</ele>
        <time>2022-03-27T13:18:00Z</time>
      </trkpt>
      <trkpt lat="47.19591" lon="-1.57275">
        <ele>55</ele>
        <time>2022-03-27T13:18:02Z</time>
      </trkpt>
      <trkpt lat="47.1959" lon="-1.57294">
        <ele>56</ele>
        <time>2022-03-27T13:18:04Z</time>
      </trkpt>
      <trkpt lat="47.19588" lon="-1.57312">
        <ele>55</ele>
        <time>2022-03-27T13:18:06Z</time>
      </trkpt>
      <trkpt lat="47.19586" lon="-1.57331">
        <ele>55</ele>
        <time>2022-03-27T13:18:08Z</time>
      </trkpt>
      <trkpt lat="47.19582" lon="-1.57348">
        <ele>55</ele>
        <time>2022-03-27T13:18:10Z</time>
      </trkpt>
      <trkpt lat="47.19579" lon="-1.57366">
        <ele>56</ele>
        <time>2022-03-27T13:18:12Z</time>
      </trkpt>
      <trkpt lat="47.19574" lon="-1.57384">
        <ele>56</ele>
        <time>2022-03-27T13:18:14Z</time>
      </trkpt>
      <trkpt lat="47.1957" lon="-1.57403">
        <ele>56</ele>
        <time>2022-03-27T13:18:16Z</time>
      </trkpt>
      <trkpt lat="47.19567" lon="-1.57424">
        <ele>57</ele>
        <time>2022-03-27T13:18:18Z</time>
      </trkpt>
      <trkpt lat="47.19563" lon="-1.57444">
        <ele>57</ele>
        <time>2022-03-27T13:18:20Z</time>
      </trkpt>
      <trkpt lat="47.19559" lon="-1.57464">
        <ele>57</ele>
        <time>2022-03-27T13:18:22Z</time>
      </trkpt>
      <trkpt lat="47.19556" lon="-1.57484">
        <ele>57</ele>
        <time>2022-03-27T13:18:24Z</time>
      </trkpt>
      <trkpt lat="47.19551" lon="-1.57503">
        <ele>57</ele>
        <time>2022-03-27T13:18:26Z</time>
      </trkpt>
      <trkpt lat="47.19547" lon="-1.57523">
        <ele>56</ele>
        <time>2022-03-27T13:18:28Z</time>
      </trkpt>
      <trkpt lat="47.19544" lon="-1.57543">
        <ele>56</ele>
        <time>2022-03-27T13:18:30Z</time>
      </trkpt>
      <trkpt lat="47.1954" lon="-1.57562">
        <ele>56</ele>
        <time>2022-03-27T13:18:32Z</time>
      </trkpt>
      <trkpt lat="47.19535" lon="-1.57581">
        <ele>56</ele>
        <time>2022-03-27T13:18:34Z</time>
      </trkpt>
      <trkpt lat="47.19531" lon="-1.57601">
        <ele>56</ele>
        <time>2022-03-27T13:18:36Z</time>
      </trkpt>
      <trkpt lat="47.19527" lon="-1.57619">
        <ele>55</ele>
        <time>2022-03-27T13:18:38Z</time>
      </trkpt>
      <trkpt lat="47.19523" lon="-1.57637">
        <ele>55</ele>
        <time>2022-03-27T13:18:40Z</time>
      </trkpt>
      <trkpt lat="47.1952" lon="-1.57651">
        <ele>55</ele>
        <time>2022-03-27T13:18:42Z</time>
      </trkpt>
      <trkpt lat="47.19517" lon="-1.57666">
        <ele>55</ele>
        <time>2022-03-27T13:18:44Z</time>
      </trkpt>
      <trkpt lat="47.19514" lon="-1.57682">
        <ele>55</ele>
        <time>2022-03-27T13:18:46Z</time>
      </trkpt>
      <trkpt lat="47.19511" lon="-1.57697">
        <ele>55</ele>
        <time>2022-03-27T13:18:48Z</time>
      </trkpt>
      <trkpt lat="47.19508" lon="-1.57712">
        <ele>55</ele>
        <time>2022-03-27T13:18:50Z</time>
      </trkpt>
      <trkpt lat="47.19505" lon="-1.57729">
        <ele>55</ele>
        <time>2022-03-27T13:18:52Z</time>
      </trkpt>
      <trkpt lat="47.19501" lon="-1.57747">
        <ele>55</ele>
        <time>2022-03-27T13:18:54Z</time>
      </trkpt>
      <trkpt lat="47.19497" lon="-1.57766">
        <ele>55</ele>
        <time>2022-03-27T13:18:56Z</time>
      </trkpt>
      <trkpt lat="47.19493" lon="-1.57785">
        <ele>55</ele>
        <time>2022-03-27T13:18:58Z</time>
      </trkpt>
      <trkpt lat="47.1949" lon="-1.57803">
        <ele>55</ele>
        <time>2022-03-27T13:19:00Z</time>
      </trkpt>
      <trkpt lat="47.19487" lon="-1.57817">
        <ele>55</ele>
        <time>2022-03-27T13:19:02Z</time>
      </trkpt>
      <trkpt lat="47.19484" lon="-1.57834">
        <ele>55</ele>
        <time>2022-03-27T13:19:05Z</time>
      </trkpt>
      <trkpt lat="47.19482" lon="-1.57848">
        <ele>55</ele>
        <time>2022-03-27T13:19:07Z</time>
      </trkpt>
      <trkpt lat="47.19482" lon="-1.57865">
        <ele>55</ele>
        <time>2022-03-27T13:19:09Z</time>
      </trkpt>
      <trkpt lat="47.19479" lon="-1.5788">
        <ele>55</ele>
        <time>2022-03-27T13:19:11Z</time>
      </trkpt>
      <trkpt lat="47.19475" lon="-1.57894">
        <ele>54</ele>
        <time>2022-03-27T13:19:13Z</time>
      </trkpt>
      <trkpt lat="47.19474" lon="-1.57909">
        <ele>54</ele>
        <time>2022-03-27T13:19:15Z</time>
      </trkpt>
      <trkpt lat="47.19472" lon="-1.57926">
        <ele>54</ele>
        <time>2022-03-27T13:19:17Z</time>
      </trkpt>
      <trkpt lat="47.1947" lon="-1.57942">
        <ele>55</ele>
        <time>2022-03-27T13:19:19Z</time>
      </trkpt>
      <trkpt lat="47.19468" lon="-1.57957">
        <ele>55</ele>
        <time>2022-03-27T13:19:21Z</time>
      </trkpt>
      <trkpt lat="47.19467" lon="-1.57972">
        <ele>55</ele>
        <time>2022-03-27T13:19:23Z</time>
      </trkpt>
      <trkpt lat="47.19466" lon="-1.57988">
        <ele>55</ele>
        <time>2022-03-27T13:19:25Z</time>
      </trkpt>
      <trkpt lat="47.19465" lon="-1.58006">
        <ele>55</ele>
        <time>2022-03-27T13:19:27Z</time>
      </trkpt>
      <trkpt lat="47.19464" lon="-1.58024">
        <ele>55</ele>
        <time>2022-03-27T13:19:29Z</time>
      </trkpt>
      <trkpt lat="47.19462" lon="-1.5804">
        <ele>55</ele>
        <time>2022-03-27T13:19:31Z</time>
      </trkpt>
      <trkpt lat="47.19461" lon="-1.58056">
        <ele>56</ele>
        <time>2022-03-27T13:19:33Z</time>
      </trkpt>
      <trkpt lat="47.1946" lon="-1.58069">
        <ele>56</ele>
        <time>2022-03-27T13:19:35Z</time>
      </trkpt>
      <trkpt lat="47.19457" lon="-1.5809">
        <ele>57</ele>
        <time>2022-03-27T13:19:39Z</time>
      </trkpt>
      <trkpt lat="47.19449" lon="-1.58099">
        <ele>56</ele>
        <time>2022-03-27T13:19:41Z</time>
      </trkpt>
      <trkpt lat="47.19441" lon="-1.58109">
        <ele>56</ele>
        <time>2022-03-27T13:19:43Z</time>
      </trkpt>
      <trkpt lat="47.19428" lon="-1.58124">
        <ele>56</ele>
        <time>2022-03-27T13:19:46Z</time>
      </trkpt>
      <trkpt lat="47.19418" lon="-1.58136">
        <ele>56</ele>
        <time>2022-03-27T13:19:48Z</time>
      </trkpt>
      <trkpt lat="47.19407" lon="-1.58152">
        <ele>56</ele>
        <time>2022-03-27T13:19:51Z</time>
      </trkpt>
      <trkpt lat="47.19401" lon="-1.58166">
        <ele>57</ele>
        <time>2022-03-27T13:19:55Z</time>
      </trkpt>
      <trkpt lat="47.19394" lon="-1.58181">
        <ele>57</ele>
        <time>2022-03-27T13:19:57Z</time>
      </trkpt>
      <trkpt lat="47.19387" lon="-1.58197">
        <ele>56</ele>
        <time>2022-03-27T13:19:59Z</time>
      </trkpt>
      <trkpt lat="47.1938" lon="-1.58214">
        <ele>57</ele>
        <time>2022-03-27T13:20:01Z</time>
      </trkpt>
      <trkpt lat="47.19373" lon="-1.58231">
        <ele>57</ele>
        <time>2022-03-27T13:20:03Z</time>
      </trkpt>
      <trkpt lat="47.19367" lon="-1.58248">
        <ele>57</ele>
        <time>2022-03-27T13:20:05Z</time>
      </trkpt>
      <trkpt lat="47.1936" lon="-1.58265">
        <ele>58</ele>
        <time>2022-03-27T13:20:07Z</time>
      </trkpt>
      <trkpt lat="47.19352" lon="-1.5828">
        <ele>58</ele>
        <time>2022-03-27T13:20:09Z</time>
      </trkpt>
      <trkpt lat="47.19341" lon="-1.58292">
        <ele>58</ele>
        <time>2022-03-27T13:20:11Z</time>
      </trkpt>
      <trkpt lat="47.1933" lon="-1.58302">
        <ele>57</ele>
        <time>2022-03-27T13:20:13Z</time>
      </trkpt>
      <trkpt lat="47.19319" lon="-1.58312">
        <ele>57</ele>
        <time>2022-03-27T13:20:15Z</time>
      </trkpt>
      <trkpt lat="47.19309" lon="-1.58323">
        <ele>57</ele>
        <time>2022-03-27T13:20:17Z</time>
      </trkpt>
      <trkpt lat="47.19299" lon="-1.58332">
        <ele>58</ele>
        <time>2022-03-27T13:20:19Z</time>
      </trkpt>
      <trkpt lat="47.19289" lon="-1.58342">
        <ele>58</ele>
        <time>2022-03-27T13:20:21Z</time>
      </trkpt>
      <trkpt lat="47.19279" lon="-1.5835">
        <ele>58</ele>
        <time>2022-03-27T13:20:23Z</time>
      </trkpt>
      <trkpt lat="47.19268" lon="-1.5836">
        <ele>58</ele>
        <time>2022-03-27T13:20:25Z</time>
      </trkpt>
      <trkpt lat="47.19257" lon="-1.5837">
        <ele>58</ele>
        <time>2022-03-27T13:20:27Z</time>
      </trkpt>
      <trkpt lat="47.19246" lon="-1.5838">
        <ele>58</ele>
        <time>2022-03-27T13:20:29Z</time>
      </trkpt>
      <trkpt lat="47.19235" lon="-1.5839">
        <ele>57</ele>
        <time>2022-03-27T13:20:31Z</time>
      </trkpt>
      <trkpt lat="47.19224" lon="-1.58399">
        <ele>57</ele>
        <time>2022-03-27T13:20:33Z</time>
      </trkpt>
      <trkpt lat="47.19212" lon="-1.5841">
        <ele>57</ele>
        <time>2022-03-27T13:20:35Z</time>
      </trkpt>
      <trkpt lat="47.19201" lon="-1.5842">
        <ele>57</ele>
        <time>2022-03-27T13:20:37Z</time>
      </trkpt>
      <trkpt lat="47.1919" lon="-1.5843">
        <ele>57</ele>
        <time>2022-03-27T13:20:39Z</time>
      </trkpt>
      <trkpt lat="47.1918" lon="-1.5844">
        <ele>57</ele>
        <time>2022-03-27T13:20:41Z</time>
      </trkpt>
      <trkpt lat="47.1917" lon="-1.5845">
        <ele>57</ele>
        <time>2022-03-27T13:20:43Z</time>
      </trkpt>
      <trkpt lat="47.19161" lon="-1.58459">
        <ele>56</ele>
        <time>2022-03-27T13:20:45Z</time>
      </trkpt>
      <trkpt lat="47.19154" lon="-1.58469">
        <ele>56</ele>
        <time>2022-03-27T13:20:48Z</time>
      </trkpt>
      <trkpt lat="47.19146" lon="-1.58478">
        <ele>55</ele>
        <time>2022-03-27T13:20:52Z</time>
      </trkpt>
      <trkpt lat="47.19136" lon="-1.58487">
        <ele>56</ele>
        <time>2022-03-27T13:20:55Z</time>
      </trkpt>
      <trkpt lat="47.19125" lon="-1.58497">
        <ele>56</ele>
        <time>2022-03-27T13:20:57Z</time>
      </trkpt>
      <trkpt lat="47.19112" lon="-1.58509">
        <ele>57</ele>
        <time>2022-03-27T13:20:59Z</time>
      </trkpt>
      <trkpt lat="47.19098" lon="-1.58521">
        <ele>57</ele>
        <time>2022-03-27T13:21:01Z</time>
      </trkpt>
      <trkpt lat="47.19086" lon="-1.58533">
        <ele>57</ele>
        <time>2022-03-27T13:21:03Z</time>
      </trkpt>
      <trkpt lat="47.19074" lon="-1.58544">
        <ele>57</ele>
        <time>2022-03-27T13:21:05Z</time>
      </trkpt>
      <trkpt lat="47.19063" lon="-1.58555">
        <ele>57</ele>
        <time>2022-03-27T13:21:07Z</time>
      </trkpt>
      <trkpt lat="47.19053" lon="-1.58565">
        <ele>57</ele>
        <time>2022-03-27T13:21:09Z</time>
      </trkpt>
      <trkpt lat="47.19044" lon="-1.58575">
        <ele>56</ele>
        <time>2022-03-27T13:21:11Z</time>
      </trkpt>
      <trkpt lat="47.19033" lon="-1.58587">
        <ele>56</ele>
        <time>2022-03-27T13:21:13Z</time>
      </trkpt>
      <trkpt lat="47.19021" lon="-1.58598">
        <ele>56</ele>
        <time>2022-03-27T13:21:15Z</time>
      </trkpt>
      <trkpt lat="47.1901" lon="-1.5861">
        <ele>57</ele>
        <time>2022-03-27T13:21:17Z</time>
      </trkpt>
      <trkpt lat="47.18998" lon="-1.58623">
        <ele>57</ele>
        <time>2022-03-27T13:21:19Z</time>
      </trkpt>
      <trkpt lat="47.18986" lon="-1.58634">
        <ele>57</ele>
        <time>2022-03-27T13:21:21Z</time>
      </trkpt>
      <trkpt lat="47.18974" lon="-1.58646">
        <ele>57</ele>
        <time>2022-03-27T13:21:23Z</time>
      </trkpt>
      <trkpt lat="47.18962" lon="-1.58658">
        <ele>57</ele>
        <time>2022-03-27T13:21:25Z</time>
      </trkpt>
      <trkpt lat="47.1895" lon="-1.58669">
        <ele>56</ele>
        <time>2022-03-27T13:21:27Z</time>
      </trkpt>
      <trkpt lat="47.18938" lon="-1.5868">
        <ele>56</ele>
        <time>2022-03-27T13:21:29Z</time>
      </trkpt>
      <trkpt lat="47.18926" lon="-1.58691">
        <ele>56</ele>
        <time>2022-03-27T13:21:31Z</time>
      </trkpt>
      <trkpt lat="47.18914" lon="-1.58701">
        <ele>56</ele>
        <time>2022-03-27T13:21:33Z</time>
      </trkpt>
      <trkpt lat="47.18902" lon="-1.5871">
        <ele>56</ele>
        <time>2022-03-27T13:21:35Z</time>
      </trkpt>
      <trkpt lat="47.1889" lon="-1.58718">
        <ele>56</ele>
        <time>2022-03-27T13:21:37Z</time>
      </trkpt>
      <trkpt lat="47.18878" lon="-1.58726">
        <ele>56</ele>
        <time>2022-03-27T13:21:39Z</time>
      </trkpt>
      <trkpt lat="47.18867" lon="-1.58733">
        <ele>56</ele>
        <time>2022-03-27T13:21:41Z</time>
      </trkpt>
      <trkpt lat="47.18856" lon="-1.58738">
        <ele>56</ele>
        <time>2022-03-27T13:21:43Z</time>
      </trkpt>
      <trkpt lat="47.18844" lon="-1.58743">
        <ele>57</ele>
        <time>2022-03-27T13:21:45Z</time>
      </trkpt>
      <trkpt lat="47.18835" lon="-1.58754">
        <ele>57</ele>
        <time>2022-03-27T13:21:47Z</time>
      </trkpt>
      <trkpt lat="47.18833" lon="-1.58771">
        <ele>57</ele>
        <time>2022-03-27T13:21:49Z</time>
      </trkpt>
      <trkpt lat="47.18828" lon="-1.58785">
        <ele>57</ele>
        <time>2022-03-27T13:21:51Z</time>
      </trkpt>
      <trkpt lat="47.18819" lon="-1.588">
        <ele>57</ele>
        <time>2022-03-27T13:21:53Z</time>
      </trkpt>
      <trkpt lat="47.18807" lon="-1.58808">
        <ele>57</ele>
        <time>2022-03-27T13:21:55Z</time>
      </trkpt>
      <trkpt lat="47.18795" lon="-1.58815">
        <ele>57</ele>
        <time>2022-03-27T13:21:57Z</time>
      </trkpt>
      <trkpt lat="47.18788" lon="-1.58831">
        <ele>57</ele>
        <time>2022-03-27T13:21:59Z</time>
      </trkpt>
      <trkpt lat="47.18785" lon="-1.58849">
        <ele>57</ele>
        <time>2022-03-27T13:22:01Z</time>
      </trkpt>
      <trkpt lat="47.18781" lon="-1.58868">
        <ele>57</ele>
        <time>2022-03-27T13:22:03Z</time>
      </trkpt>
      <trkpt lat="47.18778" lon="-1.58887">
        <ele>57</ele>
        <time>2022-03-27T13:22:05Z</time>
      </trkpt>
      <trkpt lat="47.18776" lon="-1.58907">
        <ele>57</ele>
        <time>2022-03-27T13:22:07Z</time>
      </trkpt>
      <trkpt lat="47.18773" lon="-1.58927">
        <ele>57</ele>
        <time>2022-03-27T13:22:09Z</time>
      </trkpt>
      <trkpt lat="47.18771" lon="-1.58947">
        <ele>57</ele>
        <time>2022-03-27T13:22:11Z</time>
      </trkpt>
      <trkpt lat="47.18769" lon="-1.58967">
        <ele>57</ele>
        <time>2022-03-27T13:22:13Z</time>
      </trkpt>
      <trkpt lat="47.18767" lon="-1.58986">
        <ele>57</ele>
        <time>2022-03-27T13:22:15Z</time>
      </trkpt>
      <trkpt lat="47.18764" lon="-1.59005">
        <ele>57</ele>
        <time>2022-03-27T13:22:17Z</time>
      </trkpt>
      <trkpt lat="47.18762" lon="-1.59025">
        <ele>58</ele>
        <time>2022-03-27T13:22:19Z</time>
      </trkpt>
      <trkpt lat="47.1876" lon="-1.59044">
        <ele>58</ele>
        <time>2022-03-27T13:22:21Z</time>
      </trkpt>
      <trkpt lat="47.18758" lon="-1.59063">
        <ele>58</ele>
        <time>2022-03-27T13:22:23Z</time>
      </trkpt>
      <trkpt lat="47.18756" lon="-1.59083">
        <ele>58</ele>
        <time>2022-03-27T13:22:25Z</time>
      </trkpt>
      <trkpt lat="47.18754" lon="-1.59102">
        <ele>58</ele>
        <time>2022-03-27T13:22:27Z</time>
      </trkpt>
      <trkpt lat="47.18752" lon="-1.5912">
        <ele>58</ele>
        <time>2022-03-27T13:22:29Z</time>
      </trkpt>
      <trkpt lat="47.1875" lon="-1.59139">
        <ele>58</ele>
        <time>2022-03-27T13:22:31Z</time>
      </trkpt>
      <trkpt lat="47.18748" lon="-1.59158">
        <ele>58</ele>
        <time>2022-03-27T13:22:33Z</time>
      </trkpt>
      <trkpt lat="47.18746" lon="-1.59176">
        <ele>58</ele>
        <time>2022-03-27T13:22:35Z</time>
      </trkpt>
      <trkpt lat="47.18744" lon="-1.59195">
        <ele>58</ele>
        <time>2022-03-27T13:22:37Z</time>
      </trkpt>
      <trkpt lat="47.18742" lon="-1.59215">
        <ele>58</ele>
        <time>2022-03-27T13:22:39Z</time>
      </trkpt>
      <trkpt lat="47.1874" lon="-1.59233">
        <ele>58</ele>
        <time>2022-03-27T13:22:41Z</time>
      </trkpt>
      <trkpt lat="47.18738" lon="-1.59253">
        <ele>58</ele>
        <time>2022-03-27T13:22:43Z</time>
      </trkpt>
      <trkpt lat="47.18736" lon="-1.59271">
        <ele>57</ele>
        <time>2022-03-27T13:22:45Z</time>
      </trkpt>
      <trkpt lat="47.18734" lon="-1.59289">
        <ele>58</ele>
        <time>2022-03-27T13:22:47Z</time>
      </trkpt>
      <trkpt lat="47.18732" lon="-1.59308">
        <ele>57</ele>
        <time>2022-03-27T13:22:49Z</time>
      </trkpt>
      <trkpt lat="47.1873" lon="-1.59326">
        <ele>57</ele>
        <time>2022-03-27T13:22:51Z</time>
      </trkpt>
      <trkpt lat="47.18728" lon="-1.59344">
        <ele>57</ele>
        <time>2022-03-27T13:22:53Z</time>
      </trkpt>
      <trkpt lat="47.18726" lon="-1.59362">
        <ele>57</ele>
        <time>2022-03-27T13:22:55Z</time>
      </trkpt>
      <trkpt lat="47.18724" lon="-1.59381">
        <ele>57</ele>
        <time>2022-03-27T13:22:57Z</time>
      </trkpt>
      <trkpt lat="47.18722" lon="-1.59399">
        <ele>57</ele>
        <time>2022-03-27T13:22:59Z</time>
      </trkpt>
      <trkpt lat="47.1872" lon="-1.59419">
        <ele>57</ele>
        <time>2022-03-27T13:23:01Z</time>
      </trkpt>
      <trkpt lat="47.18718" lon="-1.59437">
        <ele>57</ele>
        <time>2022-03-27T13:23:03Z</time>
      </trkpt>
      <trkpt lat="47.18716" lon="-1.59455">
        <ele>57</ele>
        <time>2022-03-27T13:23:05Z</time>
      </trkpt>
      <trkpt lat="47.18715" lon="-1.59473">
        <ele>57</ele>
        <time>2022-03-27T13:23:07Z</time>
      </trkpt>
      <trkpt lat="47.18713" lon="-1.5949">
        <ele>57</ele>
        <time>2022-03-27T13:23:09Z</time>
      </trkpt>
      <trkpt lat="47.18711" lon="-1.59509">
        <ele>57</ele>
        <time>2022-03-27T13:23:11Z</time>
      </trkpt>
      <trkpt lat="47.18709" lon="-1.59526">
        <ele>57</ele>
        <time>2022-03-27T13:23:13Z</time>
      </trkpt>
      <trkpt lat="47.18707" lon="-1.59544">
        <ele>57</ele>
        <time>2022-03-27T13:23:15Z</time>
      </trkpt>
      <trkpt lat="47.18705" lon="-1.59562">
        <ele>57</ele>
        <time>2022-03-27T13:23:17Z</time>
      </trkpt>
      <trkpt lat="47.18702" lon="-1.59581">
        <ele>57</ele>
        <time>2022-03-27T13:23:19Z</time>
      </trkpt>
      <trkpt lat="47.187" lon="-1.59599">
        <ele>58</ele>
        <time>2022-03-27T13:23:21Z</time>
      </trkpt>
      <trkpt lat="47.18698" lon="-1.59618">
        <ele>58</ele>
        <time>2022-03-27T13:23:23Z</time>
      </trkpt>
      <trkpt lat="47.18695" lon="-1.59637">
        <ele>58</ele>
        <time>2022-03-27T13:23:25Z</time>
      </trkpt>
      <trkpt lat="47.18692" lon="-1.59656">
        <ele>58</ele>
        <time>2022-03-27T13:23:27Z</time>
      </trkpt>
      <trkpt lat="47.18689" lon="-1.59674">
        <ele>58</ele>
        <time>2022-03-27T13:23:29Z</time>
      </trkpt>
      <trkpt lat="47.18687" lon="-1.59692">
        <ele>57</ele>
        <time>2022-03-27T13:23:31Z</time>
      </trkpt>
      <trkpt lat="47.18685" lon="-1.59709">
        <ele>56</ele>
        <time>2022-03-27T13:23:33Z</time>
      </trkpt>
      <trkpt lat="47.18685" lon="-1.59725">
        <ele>56</ele>
        <time>2022-03-27T13:23:35Z</time>
      </trkpt>
      <trkpt lat="47.18685" lon="-1.5974">
        <ele>56</ele>
        <time>2022-03-27T13:23:37Z</time>
      </trkpt>
      <trkpt lat="47.18685" lon="-1.59756">
        <ele>56</ele>
        <time>2022-03-27T13:23:39Z</time>
      </trkpt>
      <trkpt lat="47.18687" lon="-1.59774">
        <ele>55</ele>
        <time>2022-03-27T13:23:41Z</time>
      </trkpt>
      <trkpt lat="47.18687" lon="-1.59797">
        <ele>56</ele>
        <time>2022-03-27T13:23:43Z</time>
      </trkpt>
      <trkpt lat="47.18683" lon="-1.5982">
        <ele>56</ele>
        <time>2022-03-27T13:23:45Z</time>
      </trkpt>
      <trkpt lat="47.18671" lon="-1.59838">
        <ele>56</ele>
        <time>2022-03-27T13:23:47Z</time>
      </trkpt>
      <trkpt lat="47.18656" lon="-1.59846">
        <ele>56</ele>
        <time>2022-03-27T13:23:49Z</time>
      </trkpt>
      <trkpt lat="47.18642" lon="-1.59842">
        <ele>56</ele>
        <time>2022-03-27T13:23:51Z</time>
      </trkpt>
      <trkpt lat="47.18629" lon="-1.59832">
        <ele>56</ele>
        <time>2022-03-27T13:23:53Z</time>
      </trkpt>
      <trkpt lat="47.18619" lon="-1.59835">
        <ele>55</ele>
        <time>2022-03-27T13:23:55Z</time>
      </trkpt>
      <trkpt lat="47.1862" lon="-1.5985">
        <ele>54</ele>
        <time>2022-03-27T13:23:57Z</time>
      </trkpt>
      <trkpt lat="47.18626" lon="-1.59866">
        <ele>54</ele>
        <time>2022-03-27T13:23:59Z</time>
      </trkpt>
      <trkpt lat="47.18624" lon="-1.59884">
        <ele>54</ele>
        <time>2022-03-27T13:24:01Z</time>
      </trkpt>
      <trkpt lat="47.18619" lon="-1.59901">
        <ele>54</ele>
        <time>2022-03-27T13:24:03Z</time>
      </trkpt>
      <trkpt lat="47.18614" lon="-1.59918">
        <ele>55</ele>
        <time>2022-03-27T13:24:05Z</time>
      </trkpt>
      <trkpt lat="47.18609" lon="-1.59935">
        <ele>55</ele>
        <time>2022-03-27T13:24:07Z</time>
      </trkpt>
      <trkpt lat="47.18604" lon="-1.59953">
        <ele>55</ele>
        <time>2022-03-27T13:24:09Z</time>
      </trkpt>
      <trkpt lat="47.18598" lon="-1.59971">
        <ele>55</ele>
        <time>2022-03-27T13:24:11Z</time>
      </trkpt>
      <trkpt lat="47.18592" lon="-1.59988">
        <ele>55</ele>
        <time>2022-03-27T13:24:13Z</time>
      </trkpt>
      <trkpt lat="47.18587" lon="-1.60005">
        <ele>56</ele>
        <time>2022-03-27T13:24:15Z</time>
      </trkpt>
      <trkpt lat="47.1858" lon="-1.60022">
        <ele>56</ele>
        <time>2022-03-27T13:24:17Z</time>
      </trkpt>
      <trkpt lat="47.18575" lon="-1.60038">
        <ele>56</ele>
        <time>2022-03-27T13:24:19Z</time>
      </trkpt>
      <trkpt lat="47.18569" lon="-1.60054">
        <ele>56</ele>
        <time>2022-03-27T13:24:21Z</time>
      </trkpt>
      <trkpt lat="47.18563" lon="-1.60069">
        <ele>56</ele>
        <time>2022-03-27T13:24:23Z</time>
      </trkpt>
      <trkpt lat="47.18557" lon="-1.60085">
        <ele>57</ele>
        <time>2022-03-27T13:24:25Z</time>
      </trkpt>
      <trkpt lat="47.1855" lon="-1.60101">
        <ele>57</ele>
        <time>2022-03-27T13:24:27Z</time>
      </trkpt>
      <trkpt lat="47.18544" lon="-1.60117">
        <ele>57</ele>
        <time>2022-03-27T13:24:29Z</time>
      </trkpt>
      <trkpt lat="47.18537" lon="-1.60132">
        <ele>57</ele>
        <time>2022-03-27T13:24:31Z</time>
      </trkpt>
      <trkpt lat="47.1853" lon="-1.60148">
        <ele>56</ele>
        <time>2022-03-27T13:24:33Z</time>
      </trkpt>
      <trkpt lat="47.18523" lon="-1.60163">
        <ele>56</ele>
        <time>2022-03-27T13:24:35Z</time>
      </trkpt>
      <trkpt lat="47.18515" lon="-1.60179">
        <ele>57</ele>
        <time>2022-03-27T13:24:37Z</time>
      </trkpt>
      <trkpt lat="47.18508" lon="-1.60194">
        <ele>56</ele>
        <time>2022-03-27T13:24:39Z</time>
      </trkpt>
      <trkpt lat="47.185" lon="-1.6021">
        <ele>57</ele>
        <time>2022-03-27T13:24:41Z</time>
      </trkpt>
      <trkpt lat="47.18492" lon="-1.60224">
        <ele>57</ele>
        <time>2022-03-27T13:24:43Z</time>
      </trkpt>
      <trkpt lat="47.18484" lon="-1.60239">
        <ele>57</ele>
        <time>2022-03-27T13:24:45Z</time>
      </trkpt>
      <trkpt lat="47.18475" lon="-1.60255">
        <ele>57</ele>
        <time>2022-03-27T13:24:47Z</time>
      </trkpt>
      <trkpt lat="47.18467" lon="-1.6027">
        <ele>57</ele>
        <time>2022-03-27T13:24:49Z</time>
      </trkpt>
      <trkpt lat="47.18459" lon="-1.60285">
        <ele>57</ele>
        <time>2022-03-27T13:24:51Z</time>
      </trkpt>
      <trkpt lat="47.1845" lon="-1.603">
        <ele>57</ele>
        <time>2022-03-27T13:24:53Z</time>
      </trkpt>
      <trkpt lat="47.18441" lon="-1.60315">
        <ele>57</ele>
        <time>2022-03-27T13:24:55Z</time>
      </trkpt>
      <trkpt lat="47.18432" lon="-1.60329">
        <ele>57</ele>
        <time>2022-03-27T13:24:57Z</time>
      </trkpt>
      <trkpt lat="47.18423" lon="-1.60344">
        <ele>57</ele>
        <time>2022-03-27T13:24:59Z</time>
      </trkpt>
      <trkpt lat="47.18414" lon="-1.60358">
        <ele>57</ele>
        <time>2022-03-27T13:25:01Z</time>
      </trkpt>
      <trkpt lat="47.18404" lon="-1.60371">
        <ele>57</ele>
        <time>2022-03-27T13:25:03Z</time>
      </trkpt>
      <trkpt lat="47.18394" lon="-1.60384">
        <ele>57</ele>
        <time>2022-03-27T13:25:05Z</time>
      </trkpt>
      <trkpt lat="47.18384" lon="-1.60398">
        <ele>57</ele>
        <time>2022-03-27T13:25:07Z</time>
      </trkpt>
      <trkpt lat="47.18373" lon="-1.60412">
        <ele>57</ele>
        <time>2022-03-27T13:25:09Z</time>
      </trkpt>
      <trkpt lat="47.18363" lon="-1.60425">
        <ele>57</ele>
        <time>2022-03-27T13:25:11Z</time>
      </trkpt>
      <trkpt lat="47.18353" lon="-1.60437">
        <ele>57</ele>
        <time>2022-03-27T13:25:13Z</time>
      </trkpt>
      <trkpt lat="47.18342" lon="-1.6045">
        <ele>57</ele>
        <time>2022-03-27T13:25:15Z</time>
      </trkpt>
      <trkpt lat="47.18332" lon="-1.60463">
        <ele>57</ele>
        <time>2022-03-27T13:25:17Z</time>
      </trkpt>
      <trkpt lat="47.1832" lon="-1.60476">
        <ele>57</ele>
        <time>2022-03-27T13:25:19Z</time>
      </trkpt>
      <trkpt lat="47.18309" lon="-1.60488">
        <ele>57</ele>
        <time>2022-03-27T13:25:21Z</time>
      </trkpt>
      <trkpt lat="47.18298" lon="-1.605">
        <ele>57</ele>
        <time>2022-03-27T13:25:23Z</time>
      </trkpt>
      <trkpt lat="47.18288" lon="-1.60511">
        <ele>57</ele>
        <time>2022-03-27T13:25:25Z</time>
      </trkpt>
      <trkpt lat="47.18276" lon="-1.60523">
        <ele>57</ele>
        <time>2022-03-27T13:25:27Z</time>
      </trkpt>
      <trkpt lat="47.18264" lon="-1.60534">
        <ele>57</ele>
        <time>2022-03-27T13:25:29Z</time>
      </trkpt>
      <trkpt lat="47.18253" lon="-1.60543">
        <ele>58</ele>
        <time>2022-03-27T13:25:31Z</time>
      </trkpt>
      <trkpt lat="47.18241" lon="-1.60552">
        <ele>58</ele>
        <time>2022-03-27T13:25:33Z</time>
      </trkpt>
      <trkpt lat="47.18229" lon="-1.60561">
        <ele>58</ele>
        <time>2022-03-27T13:25:35Z</time>
      </trkpt>
      <trkpt lat="47.18217" lon="-1.60567">
        <ele>58</ele>
        <time>2022-03-27T13:25:37Z</time>
      </trkpt>
      <trkpt lat="47.18206" lon="-1.60572">
        <ele>58</ele>
        <time>2022-03-27T13:25:39Z</time>
      </trkpt>
      <trkpt lat="47.18196" lon="-1.60575">
        <ele>58</ele>
        <time>2022-03-27T13:25:41Z</time>
      </trkpt>
      <trkpt lat="47.1819" lon="-1.6059">
        <ele>57</ele>
        <time>2022-03-27T13:25:44Z</time>
      </trkpt>
      <trkpt lat="47.18184" lon="-1.606">
        <ele>57</ele>
        <time>2022-03-27T13:25:46Z</time>
      </trkpt>
      <trkpt lat="47.18172" lon="-1.60601">
        <ele>57</ele>
        <time>2022-03-27T13:25:48Z</time>
      </trkpt>
      <trkpt lat="47.18159" lon="-1.60602">
        <ele>56</ele>
        <time>2022-03-27T13:25:50Z</time>
      </trkpt>
      <trkpt lat="47.18146" lon="-1.60602">
        <ele>56</ele>
        <time>2022-03-27T13:25:52Z</time>
      </trkpt>
      <trkpt lat="47.18135" lon="-1.60601">
        <ele>55</ele>
        <time>2022-03-27T13:25:54Z</time>
      </trkpt>
      <trkpt lat="47.18123" lon="-1.60597">
        <ele>54</ele>
        <time>2022-03-27T13:25:56Z</time>
      </trkpt>
      <trkpt lat="47.18111" lon="-1.60593">
        <ele>53</ele>
        <time>2022-03-27T13:25:58Z</time>
      </trkpt>
      <trkpt lat="47.18098" lon="-1.60588">
        <ele>53</ele>
        <time>2022-03-27T13:26:00Z</time>
      </trkpt>
      <trkpt lat="47.18085" lon="-1.60582">
        <ele>53</ele>
        <time>2022-03-27T13:26:02Z</time>
      </trkpt>
      <trkpt lat="47.18074" lon="-1.60575">
        <ele>53</ele>
        <time>2022-03-27T13:26:04Z</time>
      </trkpt>
      <trkpt lat="47.18062" lon="-1.60568">
        <ele>53</ele>
        <time>2022-03-27T13:26:06Z</time>
      </trkpt>
      <trkpt lat="47.1805" lon="-1.60563">
        <ele>53</ele>
        <time>2022-03-27T13:26:08Z</time>
      </trkpt>
      <trkpt lat="47.18037" lon="-1.60556">
        <ele>53</ele>
        <time>2022-03-27T13:26:10Z</time>
      </trkpt>
      <trkpt lat="47.18025" lon="-1.60552">
        <ele>54</ele>
        <time>2022-03-27T13:26:12Z</time>
      </trkpt>
      <trkpt lat="47.18013" lon="-1.60552">
        <ele>54</ele>
        <time>2022-03-27T13:26:14Z</time>
      </trkpt>
      <trkpt lat="47.18001" lon="-1.60555">
        <ele>54</ele>
        <time>2022-03-27T13:26:16Z</time>
      </trkpt>
      <trkpt lat="47.17989" lon="-1.60559">
        <ele>54</ele>
        <time>2022-03-27T13:26:18Z</time>
      </trkpt>
      <trkpt lat="47.17978" lon="-1.60564">
        <ele>55</ele>
        <time>2022-03-27T13:26:20Z</time>
      </trkpt>
      <trkpt lat="47.17967" lon="-1.60569">
        <ele>54</ele>
        <time>2022-03-27T13:26:22Z</time>
      </trkpt>
      <trkpt lat="47.17957" lon="-1.60577">
        <ele>54</ele>
        <time>2022-03-27T13:26:24Z</time>
      </trkpt>
      <trkpt lat="47.17947" lon="-1.60581">
        <ele>54</ele>
        <time>2022-03-27T13:26:26Z</time>
      </trkpt>
      <trkpt lat="47.17937" lon="-1.60584">
        <ele>55</ele>
        <time>2022-03-27T13:26:28Z</time>
      </trkpt>
      <trkpt lat="47.17928" lon="-1.60586">
        <ele>56</ele>
        <time>2022-03-27T13:26:32Z</time>
      </trkpt>
      <trkpt lat="47.17919" lon="-1.60587">
        <ele>57</ele>
        <time>2022-03-27T13:26:45Z</time>
      </trkpt>
      <trkpt lat="47.17908" lon="-1.60595">
        <ele>56</ele>
        <time>2022-03-27T13:26:48Z</time>
      </trkpt>
      <trkpt lat="47.17904" lon="-1.6061">
        <ele>57</ele>
        <time>2022-03-27T13:26:50Z</time>
      </trkpt>
      <trkpt lat="47.17899" lon="-1.60628">
        <ele>56</ele>
        <time>2022-03-27T13:26:52Z</time>
      </trkpt>
      <trkpt lat="47.17893" lon="-1.60646">
        <ele>56</ele>
        <time>2022-03-27T13:26:54Z</time>
      </trkpt>
      <trkpt lat="47.17886" lon="-1.60665">
        <ele>56</ele>
        <time>2022-03-27T13:26:56Z</time>
      </trkpt>
      <trkpt lat="47.17881" lon="-1.60683">
        <ele>56</ele>
        <time>2022-03-27T13:26:58Z</time>
      </trkpt>
      <trkpt lat="47.17876" lon="-1.60703">
        <ele>56</ele>
        <time>2022-03-27T13:27:00Z</time>
      </trkpt>
      <trkpt lat="47.17871" lon="-1.60722">
        <ele>56</ele>
        <time>2022-03-27T13:27:02Z</time>
      </trkpt>
      <trkpt lat="47.17866" lon="-1.6074">
        <ele>56</ele>
        <time>2022-03-27T13:27:04Z</time>
      </trkpt>
      <trkpt lat="47.17862" lon="-1.60759">
        <ele>56</ele>
        <time>2022-03-27T13:27:06Z</time>
      </trkpt>
      <trkpt lat="47.17859" lon="-1.60777">
        <ele>57</ele>
        <time>2022-03-27T13:27:08Z</time>
      </trkpt>
      <trkpt lat="47.17855" lon="-1.60794">
        <ele>57</ele>
        <time>2022-03-27T13:27:10Z</time>
      </trkpt>
      <trkpt lat="47.17851" lon="-1.60813">
        <ele>57</ele>
        <time>2022-03-27T13:27:12Z</time>
      </trkpt>
      <trkpt lat="47.17846" lon="-1.6083">
        <ele>57</ele>
        <time>2022-03-27T13:27:14Z</time>
      </trkpt>
      <trkpt lat="47.1784" lon="-1.60846">
        <ele>58</ele>
        <time>2022-03-27T13:27:16Z</time>
      </trkpt>
      <trkpt lat="47.17832" lon="-1.6086">
        <ele>58</ele>
        <time>2022-03-27T13:27:18Z</time>
      </trkpt>
      <trkpt lat="47.17824" lon="-1.60874">
        <ele>58</ele>
        <time>2022-03-27T13:27:20Z</time>
      </trkpt>
      <trkpt lat="47.17815" lon="-1.60887">
        <ele>58</ele>
        <time>2022-03-27T13:27:22Z</time>
      </trkpt>
      <trkpt lat="47.17804" lon="-1.60897">
        <ele>58</ele>
        <time>2022-03-27T13:27:24Z</time>
      </trkpt>
      <trkpt lat="47.17793" lon="-1.60904">
        <ele>58</ele>
        <time>2022-03-27T13:27:26Z</time>
      </trkpt>
      <trkpt lat="47.17782" lon="-1.60911">
        <ele>58</ele>
        <time>2022-03-27T13:27:28Z</time>
      </trkpt>
      <trkpt lat="47.17771" lon="-1.60919">
        <ele>58</ele>
        <time>2022-03-27T13:27:30Z</time>
      </trkpt>
      <trkpt lat="47.17761" lon="-1.60929">
        <ele>58</ele>
        <time>2022-03-27T13:27:32Z</time>
      </trkpt>
      <trkpt lat="47.17751" lon="-1.60939">
        <ele>58</ele>
        <time>2022-03-27T13:27:34Z</time>
      </trkpt>
      <trkpt lat="47.1774" lon="-1.60947">
        <ele>58</ele>
        <time>2022-03-27T13:27:36Z</time>
      </trkpt>
      <trkpt lat="47.1773" lon="-1.60955">
        <ele>58</ele>
        <time>2022-03-27T13:27:38Z</time>
      </trkpt>
      <trkpt lat="47.17719" lon="-1.60964">
        <ele>58</ele>
        <time>2022-03-27T13:27:40Z</time>
      </trkpt>
      <trkpt lat="47.17708" lon="-1.60971">
        <ele>58</ele>
        <time>2022-03-27T13:27:42Z</time>
      </trkpt>
      <trkpt lat="47.17696" lon="-1.60976">
        <ele>58</ele>
        <time>2022-03-27T13:27:44Z</time>
      </trkpt>
      <trkpt lat="47.17683" lon="-1.60975">
        <ele>58</ele>
        <time>2022-03-27T13:27:46Z</time>
      </trkpt>
      <trkpt lat="47.17669" lon="-1.60974">
        <ele>57</ele>
        <time>2022-03-27T13:27:48Z</time>
      </trkpt>
      <trkpt lat="47.17657" lon="-1.60979">
        <ele>57</ele>
        <time>2022-03-27T13:27:50Z</time>
      </trkpt>
      <trkpt lat="47.17644" lon="-1.60988">
        <ele>56</ele>
        <time>2022-03-27T13:27:52Z</time>
      </trkpt>
      <trkpt lat="47.17633" lon="-1.60997">
        <ele>56</ele>
        <time>2022-03-27T13:27:54Z</time>
      </trkpt>
      <trkpt lat="47.17621" lon="-1.61007">
        <ele>56</ele>
        <time>2022-03-27T13:27:56Z</time>
      </trkpt>
      <trkpt lat="47.17611" lon="-1.61016">
        <ele>56</ele>
        <time>2022-03-27T13:27:58Z</time>
      </trkpt>
      <trkpt lat="47.17599" lon="-1.61026">
        <ele>56</ele>
        <time>2022-03-27T13:28:00Z</time>
      </trkpt>
      <trkpt lat="47.17589" lon="-1.61035">
        <ele>56</ele>
        <time>2022-03-27T13:28:02Z</time>
      </trkpt>
      <trkpt lat="47.17578" lon="-1.61044">
        <ele>56</ele>
        <time>2022-03-27T13:28:04Z</time>
      </trkpt>
      <trkpt lat="47.17567" lon="-1.61053">
        <ele>56</ele>
        <time>2022-03-27T13:28:06Z</time>
      </trkpt>
      <trkpt lat="47.17557" lon="-1.61063">
        <ele>56</ele>
        <time>2022-03-27T13:28:08Z</time>
      </trkpt>
      <trkpt lat="47.17546" lon="-1.61072">
        <ele>56</ele>
        <time>2022-03-27T13:28:10Z</time>
      </trkpt>
      <trkpt lat="47.17536" lon="-1.61081">
        <ele>56</ele>
        <time>2022-03-27T13:28:12Z</time>
      </trkpt>
      <trkpt lat="47.17525" lon="-1.6109">
        <ele>56</ele>
        <time>2022-03-27T13:28:14Z</time>
      </trkpt>
      <trkpt lat="47.17515" lon="-1.61098">
        <ele>57</ele>
        <time>2022-03-27T13:28:16Z</time>
      </trkpt>
      <trkpt lat="47.17504" lon="-1.61103">
        <ele>57</ele>
        <time>2022-03-27T13:28:18Z</time>
      </trkpt>
      <trkpt lat="47.17493" lon="-1.61104">
        <ele>56</ele>
        <time>2022-03-27T13:28:20Z</time>
      </trkpt>
      <trkpt lat="47.17482" lon="-1.61104">
        <ele>56</ele>
        <time>2022-03-27T13:28:22Z</time>
      </trkpt>
      <trkpt lat="47.17471" lon="-1.61098">
        <ele>56</ele>
        <time>2022-03-27T13:28:24Z</time>
      </trkpt>
      <trkpt lat="47.17461" lon="-1.61089">
        <ele>56</ele>
        <time>2022-03-27T13:28:26Z</time>
      </trkpt>
      <trkpt lat="47.17452" lon="-1.61079">
        <ele>56</ele>
        <time>2022-03-27T13:28:28Z</time>
      </trkpt>
      <trkpt lat="47.17444" lon="-1.61066">
        <ele>56</ele>
        <time>2022-03-27T13:28:30Z</time>
      </trkpt>
      <trkpt lat="47.17439" lon="-1.61051">
        <ele>57</ele>
        <time>2022-03-27T13:28:32Z</time>
      </trkpt>
      <trkpt lat="47.17434" lon="-1.61037">
        <ele>58</ele>
        <time>2022-03-27T13:28:34Z</time>
      </trkpt>
      <trkpt lat="47.1743" lon="-1.61025">
        <ele>58</ele>
        <time>2022-03-27T13:28:36Z</time>
      </trkpt>
      <trkpt lat="47.17421" lon="-1.6102">
        <ele>59</ele>
        <time>2022-03-27T13:28:39Z</time>
      </trkpt>
      <trkpt lat="47.17423" lon="-1.61039">
        <ele>59</ele>
        <time>2022-03-27T13:28:42Z</time>
      </trkpt>
      <trkpt lat="47.17429" lon="-1.61057">
        <ele>60</ele>
        <time>2022-03-27T13:28:45Z</time>
      </trkpt>
      <trkpt lat="47.17435" lon="-1.6107">
        <ele>60</ele>
        <time>2022-03-27T13:28:47Z</time>
      </trkpt>
      <trkpt lat="47.17441" lon="-1.61084">
        <ele>60</ele>
        <time>2022-03-27T13:28:49Z</time>
      </trkpt>
      <trkpt lat="47.17446" lon="-1.61098">
        <ele>61</ele>
        <time>2022-03-27T13:28:51Z</time>
      </trkpt>
      <trkpt lat="47.17452" lon="-1.61113">
        <ele>61</ele>
        <time>2022-03-27T13:28:53Z</time>
      </trkpt>
      <trkpt lat="47.17458" lon="-1.61129">
        <ele>62</ele>
        <time>2022-03-27T13:28:55Z</time>
      </trkpt>
      <trkpt lat="47.17464" lon="-1.61145">
        <ele>62</ele>
        <time>2022-03-27T13:28:57Z</time>
      </trkpt>
      <trkpt lat="47.17471" lon="-1.61161">
        <ele>62</ele>
        <time>2022-03-27T13:28:59Z</time>
      </trkpt>
      <trkpt lat="47.17477" lon="-1.61176">
        <ele>62</ele>
        <time>2022-03-27T13:29:01Z</time>
      </trkpt>
      <trkpt lat="47.17484" lon="-1.61192">
        <ele>62</ele>
        <time>2022-03-27T13:29:03Z</time>
      </trkpt>
      <trkpt lat="47.17491" lon="-1.61208">
        <ele>62</ele>
        <time>2022-03-27T13:29:05Z</time>
      </trkpt>
      <trkpt lat="47.17497" lon="-1.61224">
        <ele>62</ele>
        <time>2022-03-27T13:29:07Z</time>
      </trkpt>
      <trkpt lat="47.17504" lon="-1.6124">
        <ele>62</ele>
        <time>2022-03-27T13:29:09Z</time>
      </trkpt>
      <trkpt lat="47.17511" lon="-1.61254">
        <ele>63</ele>
        <time>2022-03-27T13:29:11Z</time>
      </trkpt>
      <trkpt lat="47.1752" lon="-1.61268">
        <ele>63</ele>
        <time>2022-03-27T13:29:13Z</time>
      </trkpt>
      <trkpt lat="47.17529" lon="-1.6128">
        <ele>63</ele>
        <time>2022-03-27T13:29:15Z</time>
      </trkpt>
      <trkpt lat="47.17539" lon="-1.61289">
        <ele>63</ele>
        <time>2022-03-27T13:29:17Z</time>
      </trkpt>
      <trkpt lat="47.17551" lon="-1.61296">
        <ele>63</ele>
        <time>2022-03-27T13:29:19Z</time>
      </trkpt>
      <trkpt lat="47.17561" lon="-1.61307">
        <ele>64</ele>
        <time>2022-03-27T13:29:21Z</time>
      </trkpt>
      <trkpt lat="47.17564" lon="-1.61326">
        <ele>63</ele>
        <time>2022-03-27T13:29:23Z</time>
      </trkpt>
      <trkpt lat="47.17559" lon="-1.61343">
        <ele>63</ele>
        <time>2022-03-27T13:29:25Z</time>
      </trkpt>
      <trkpt lat="47.17549" lon="-1.61355">
        <ele>64</ele>
        <time>2022-03-27T13:29:27Z</time>
      </trkpt>
      <trkpt lat="47.17535" lon="-1.61372">
        <ele>63</ele>
        <time>2022-03-27T13:29:30Z</time>
      </trkpt>
      <trkpt lat="47.17529" lon="-1.6139">
        <ele>64</ele>
        <time>2022-03-27T13:29:32Z</time>
      </trkpt>
      <trkpt lat="47.17525" lon="-1.61406">
        <ele>65</ele>
        <time>2022-03-27T13:29:34Z</time>
      </trkpt>
      <trkpt lat="47.1752" lon="-1.61422">
        <ele>65</ele>
        <time>2022-03-27T13:29:36Z</time>
      </trkpt>
      <trkpt lat="47.17517" lon="-1.61438">
        <ele>67</ele>
        <time>2022-03-27T13:29:38Z</time>
      </trkpt>
      <trkpt lat="47.17512" lon="-1.61453">
        <ele>67</ele>
        <time>2022-03-27T13:29:40Z</time>
      </trkpt>
      <trkpt lat="47.17501" lon="-1.61462">
        <ele>68</ele>
        <time>2022-03-27T13:29:42Z</time>
      </trkpt>
      <trkpt lat="47.17489" lon="-1.61468">
        <ele>68</ele>
        <time>2022-03-27T13:29:44Z</time>
      </trkpt>
      <trkpt lat="47.17478" lon="-1.61472">
        <ele>68</ele>
        <time>2022-03-27T13:29:46Z</time>
      </trkpt>
      <trkpt lat="47.17468" lon="-1.61476">
        <ele>69</ele>
        <time>2022-03-27T13:29:48Z</time>
      </trkpt>
      <trkpt lat="47.17458" lon="-1.61481">
        <ele>69</ele>
        <time>2022-03-27T13:29:50Z</time>
      </trkpt>
      <trkpt lat="47.17447" lon="-1.61486">
        <ele>70</ele>
        <time>2022-03-27T13:29:52Z</time>
      </trkpt>
      <trkpt lat="47.17437" lon="-1.61492">
        <ele>70</ele>
        <time>2022-03-27T13:29:54Z</time>
      </trkpt>
      <trkpt lat="47.17427" lon="-1.61499">
        <ele>70</ele>
        <time>2022-03-27T13:29:56Z</time>
      </trkpt>
      <trkpt lat="47.17417" lon="-1.61505">
        <ele>70</ele>
        <time>2022-03-27T13:29:58Z</time>
      </trkpt>
      <trkpt lat="47.17408" lon="-1.61513">
        <ele>71</ele>
        <time>2022-03-27T13:30:00Z</time>
      </trkpt>
      <trkpt lat="47.17399" lon="-1.6152">
        <ele>71</ele>
        <time>2022-03-27T13:30:02Z</time>
      </trkpt>
      <trkpt lat="47.1739" lon="-1.61527">
        <ele>71</ele>
        <time>2022-03-27T13:30:04Z</time>
      </trkpt>
      <trkpt lat="47.17382" lon="-1.61535">
        <ele>71</ele>
        <time>2022-03-27T13:30:06Z</time>
      </trkpt>
      <trkpt lat="47.17374" lon="-1.61543">
        <ele>72</ele>
        <time>2022-03-27T13:30:08Z</time>
      </trkpt>
      <trkpt lat="47.17366" lon="-1.61551">
        <ele>73</ele>
        <time>2022-03-27T13:30:10Z</time>
      </trkpt>
      <trkpt lat="47.17358" lon="-1.6156">
        <ele>73</ele>
        <time>2022-03-27T13:30:12Z</time>
      </trkpt>
      <trkpt lat="47.1735" lon="-1.61569">
        <ele>73</ele>
        <time>2022-03-27T13:30:14Z</time>
      </trkpt>
      <trkpt lat="47.17342" lon="-1.61578">
        <ele>73</ele>
        <time>2022-03-27T13:30:16Z</time>
      </trkpt>
      <trkpt lat="47.17334" lon="-1.61588">
        <ele>73</ele>
        <time>2022-03-27T13:30:18Z</time>
      </trkpt>
      <trkpt lat="47.17327" lon="-1.61598">
        <ele>73</ele>
        <time>2022-03-27T13:30:20Z</time>
      </trkpt>
      <trkpt lat="47.17318" lon="-1.61609">
        <ele>73</ele>
        <time>2022-03-27T13:30:22Z</time>
      </trkpt>
      <trkpt lat="47.17311" lon="-1.6162">
        <ele>73</ele>
        <time>2022-03-27T13:30:24Z</time>
      </trkpt>
      <trkpt lat="47.17304" lon="-1.61632">
        <ele>73</ele>
        <time>2022-03-27T13:30:26Z</time>
      </trkpt>
      <trkpt lat="47.17297" lon="-1.61644">
        <ele>74</ele>
        <time>2022-03-27T13:30:28Z</time>
      </trkpt>
      <trkpt lat="47.1729" lon="-1.61656">
        <ele>74</ele>
        <time>2022-03-27T13:30:30Z</time>
      </trkpt>
      <trkpt lat="47.17283" lon="-1.61669">
        <ele>74</ele>
        <time>2022-03-27T13:30:32Z</time>
      </trkpt>
      <trkpt lat="47.17276" lon="-1.61681">
        <ele>75</ele>
        <time>2022-03-27T13:30:34Z</time>
      </trkpt>
      <trkpt lat="47.1727" lon="-1.61695">
        <ele>75</ele>
        <time>2022-03-27T13:30:36Z</time>
      </trkpt>
      <trkpt lat="47.17263" lon="-1.61708">
        <ele>74</ele>
        <time>2022-03-27T13:30:38Z</time>
      </trkpt>
      <trkpt lat="47.17257" lon="-1.61723">
        <ele>74</ele>
        <time>2022-03-27T13:30:40Z</time>
      </trkpt>
      <trkpt lat="47.1725" lon="-1.61738">
        <ele>74</ele>
        <time>2022-03-27T13:30:42Z</time>
      </trkpt>
      <trkpt lat="47.17247" lon="-1.61754">
        <ele>74</ele>
        <time>2022-03-27T13:30:44Z</time>
      </trkpt>
      <trkpt lat="47.17244" lon="-1.61771">
        <ele>74</ele>
        <time>2022-03-27T13:30:46Z</time>
      </trkpt>
      <trkpt lat="47.17235" lon="-1.61784">
        <ele>73</ele>
        <time>2022-03-27T13:30:48Z</time>
      </trkpt>
      <trkpt lat="47.17225" lon="-1.61792">
        <ele>73</ele>
        <time>2022-03-27T13:30:50Z</time>
      </trkpt>
      <trkpt lat="47.17215" lon="-1.61802">
        <ele>73</ele>
        <time>2022-03-27T13:30:52Z</time>
      </trkpt>
      <trkpt lat="47.17205" lon="-1.6181">
        <ele>73</ele>
        <time>2022-03-27T13:30:54Z</time>
      </trkpt>
      <trkpt lat="47.17195" lon="-1.61819">
        <ele>74</ele>
        <time>2022-03-27T13:30:56Z</time>
      </trkpt>
      <trkpt lat="47.17185" lon="-1.61828">
        <ele>73</ele>
        <time>2022-03-27T13:30:58Z</time>
      </trkpt>
      <trkpt lat="47.17175" lon="-1.61838">
        <ele>73</ele>
        <time>2022-03-27T13:31:00Z</time>
      </trkpt>
      <trkpt lat="47.17166" lon="-1.61847">
        <ele>73</ele>
        <time>2022-03-27T13:31:02Z</time>
      </trkpt>
      <trkpt lat="47.17156" lon="-1.61857">
        <ele>72</ele>
        <time>2022-03-27T13:31:04Z</time>
      </trkpt>
      <trkpt lat="47.17146" lon="-1.61866">
        <ele>72</ele>
        <time>2022-03-27T13:31:06Z</time>
      </trkpt>
      <trkpt lat="47.17136" lon="-1.61876">
        <ele>72</ele>
        <time>2022-03-27T13:31:08Z</time>
      </trkpt>
      <trkpt lat="47.17127" lon="-1.61885">
        <ele>72</ele>
        <time>2022-03-27T13:31:10Z</time>
      </trkpt>
      <trkpt lat="47.17117" lon="-1.61895">
        <ele>71</ele>
        <time>2022-03-27T13:31:12Z</time>
      </trkpt>
      <trkpt lat="47.17107" lon="-1.61904">
        <ele>71</ele>
        <time>2022-03-27T13:31:14Z</time>
      </trkpt>
      <trkpt lat="47.17098" lon="-1.61913">
        <ele>71</ele>
        <time>2022-03-27T13:31:16Z</time>
      </trkpt>
      <trkpt lat="47.17088" lon="-1.61923">
        <ele>71</ele>
        <time>2022-03-27T13:31:18Z</time>
      </trkpt>
      <trkpt lat="47.17079" lon="-1.61932">
        <ele>71</ele>
        <time>2022-03-27T13:31:20Z</time>
      </trkpt>
      <trkpt lat="47.1707" lon="-1.61941">
        <ele>71</ele>
        <time>2022-03-27T13:31:22Z</time>
      </trkpt>
      <trkpt lat="47.17061" lon="-1.61951">
        <ele>71</ele>
        <time>2022-03-27T13:31:24Z</time>
      </trkpt>
      <trkpt lat="47.17052" lon="-1.61962">
        <ele>70</ele>
        <time>2022-03-27T13:31:26Z</time>
      </trkpt>
      <trkpt lat="47.17044" lon="-1.61974">
        <ele>71</ele>
        <time>2022-03-27T13:31:28Z</time>
      </trkpt>
      <trkpt lat="47.17036" lon="-1.61987">
        <ele>71</ele>
        <time>2022-03-27T13:31:30Z</time>
      </trkpt>
      <trkpt lat="47.17028" lon="-1.61998">
        <ele>71</ele>
        <time>2022-03-27T13:31:32Z</time>
      </trkpt>
      <trkpt lat="47.17019" lon="-1.62011">
        <ele>71</ele>
        <time>2022-03-27T13:31:34Z</time>
      </trkpt>
      <trkpt lat="47.17011" lon="-1.62023">
        <ele>71</ele>
        <time>2022-03-27T13:31:36Z</time>
      </trkpt>
      <trkpt lat="47.17004" lon="-1.62036">
        <ele>72</ele>
        <time>2022-03-27T13:31:38Z</time>
      </trkpt>
      <trkpt lat="47.16996" lon="-1.62049">
        <ele>72</ele>
        <time>2022-03-27T13:31:40Z</time>
      </trkpt>
      <trkpt lat="47.16989" lon="-1.62062">
        <ele>72</ele>
        <time>2022-03-27T13:31:42Z</time>
      </trkpt>
      <trkpt lat="47.16982" lon="-1.62076">
        <ele>72</ele>
        <time>2022-03-27T13:31:44Z</time>
      </trkpt>
      <trkpt lat="47.16974" lon="-1.62089">
        <ele>72</ele>
        <time>2022-03-27T13:31:46Z</time>
      </trkpt>
      <trkpt lat="47.16966" lon="-1.62103">
        <ele>72</ele>
        <time>2022-03-27T13:31:48Z</time>
      </trkpt>
      <trkpt lat="47.16959" lon="-1.62116">
        <ele>72</ele>
        <time>2022-03-27T13:31:50Z</time>
      </trkpt>
      <trkpt lat="47.16952" lon="-1.6213">
        <ele>72</ele>
        <time>2022-03-27T13:31:52Z</time>
      </trkpt>
      <trkpt lat="47.16945" lon="-1.62143">
        <ele>72</ele>
        <time>2022-03-27T13:31:54Z</time>
      </trkpt>
      <trkpt lat="47.16938" lon="-1.62157">
        <ele>72</ele>
        <time>2022-03-27T13:31:56Z</time>
      </trkpt>
      <trkpt lat="47.16932" lon="-1.62171">
        <ele>73</ele>
        <time>2022-03-27T13:31:58Z</time>
      </trkpt>
      <trkpt lat="47.16925" lon="-1.62185">
        <ele>73</ele>
        <time>2022-03-27T13:32:00Z</time>
      </trkpt>
      <trkpt lat="47.16918" lon="-1.62198">
        <ele>73</ele>
        <time>2022-03-27T13:32:02Z</time>
      </trkpt>
      <trkpt lat="47.1691" lon="-1.62211">
        <ele>73</ele>
        <time>2022-03-27T13:32:04Z</time>
      </trkpt>
      <trkpt lat="47.16901" lon="-1.62222">
        <ele>73</ele>
        <time>2022-03-27T13:32:06Z</time>
      </trkpt>
      <trkpt lat="47.16892" lon="-1.62233">
        <ele>73</ele>
        <time>2022-03-27T13:32:08Z</time>
      </trkpt>
      <trkpt lat="47.16883" lon="-1.62245">
        <ele>73</ele>
        <time>2022-03-27T13:32:10Z</time>
      </trkpt>
      <trkpt lat="47.16874" lon="-1.62256">
        <ele>73</ele>
        <time>2022-03-27T13:32:12Z</time>
      </trkpt>
      <trkpt lat="47.16865" lon="-1.62267">
        <ele>73</ele>
        <time>2022-03-27T13:32:14Z</time>
      </trkpt>
      <trkpt lat="47.16856" lon="-1.62278">
        <ele>73</ele>
        <time>2022-03-27T13:32:16Z</time>
      </trkpt>
      <trkpt lat="47.16847" lon="-1.62289">
        <ele>73</ele>
        <time>2022-03-27T13:32:18Z</time>
      </trkpt>
      <trkpt lat="47.16838" lon="-1.623">
        <ele>73</ele>
        <time>2022-03-27T13:32:20Z</time>
      </trkpt>
      <trkpt lat="47.16829" lon="-1.6231">
        <ele>74</ele>
        <time>2022-03-27T13:32:22Z</time>
      </trkpt>
      <trkpt lat="47.16819" lon="-1.62318">
        <ele>74</ele>
        <time>2022-03-27T13:32:24Z</time>
      </trkpt>
      <trkpt lat="47.16808" lon="-1.62325">
        <ele>74</ele>
        <time>2022-03-27T13:32:26Z</time>
      </trkpt>
      <trkpt lat="47.16798" lon="-1.62331">
        <ele>73</ele>
        <time>2022-03-27T13:32:28Z</time>
      </trkpt>
      <trkpt lat="47.16786" lon="-1.62337">
        <ele>73</ele>
        <time>2022-03-27T13:32:30Z</time>
      </trkpt>
      <trkpt lat="47.16775" lon="-1.62343">
        <ele>73</ele>
        <time>2022-03-27T13:32:32Z</time>
      </trkpt>
      <trkpt lat="47.16764" lon="-1.6235">
        <ele>73</ele>
        <time>2022-03-27T13:32:34Z</time>
      </trkpt>
      <trkpt lat="47.16754" lon="-1.62359">
        <ele>73</ele>
        <time>2022-03-27T13:32:36Z</time>
      </trkpt>
      <trkpt lat="47.16744" lon="-1.6237">
        <ele>72</ele>
        <time>2022-03-27T13:32:38Z</time>
      </trkpt>
      <trkpt lat="47.16737" lon="-1.62385">
        <ele>72</ele>
        <time>2022-03-27T13:32:40Z</time>
      </trkpt>
      <trkpt lat="47.16733" lon="-1.62402">
        <ele>72</ele>
        <time>2022-03-27T13:32:42Z</time>
      </trkpt>
      <trkpt lat="47.1673" lon="-1.62418">
        <ele>72</ele>
        <time>2022-03-27T13:32:44Z</time>
      </trkpt>
      <trkpt lat="47.16728" lon="-1.62435">
        <ele>71</ele>
        <time>2022-03-27T13:32:46Z</time>
      </trkpt>
      <trkpt lat="47.16724" lon="-1.6245">
        <ele>71</ele>
        <time>2022-03-27T13:32:48Z</time>
      </trkpt>
      <trkpt lat="47.1672" lon="-1.62468">
        <ele>71</ele>
        <time>2022-03-27T13:32:50Z</time>
      </trkpt>
      <trkpt lat="47.16717" lon="-1.62484">
        <ele>71</ele>
        <time>2022-03-27T13:32:52Z</time>
      </trkpt>
      <trkpt lat="47.16723" lon="-1.62495">
        <ele>71</ele>
        <time>2022-03-27T13:32:54Z</time>
      </trkpt>
      <trkpt lat="47.16734" lon="-1.62499">
        <ele>71</ele>
        <time>2022-03-27T13:32:56Z</time>
      </trkpt>
      <trkpt lat="47.16746" lon="-1.62505">
        <ele>71</ele>
        <time>2022-03-27T13:32:58Z</time>
      </trkpt>
      <trkpt lat="47.16757" lon="-1.62511">
        <ele>71</ele>
        <time>2022-03-27T13:33:00Z</time>
      </trkpt>
      <trkpt lat="47.16767" lon="-1.62517">
        <ele>72</ele>
        <time>2022-03-27T13:33:02Z</time>
      </trkpt>
      <trkpt lat="47.16777" lon="-1.62523">
        <ele>72</ele>
        <time>2022-03-27T13:33:04Z</time>
      </trkpt>
      <trkpt lat="47.16786" lon="-1.62528">
        <ele>72</ele>
        <time>2022-03-27T13:33:06Z</time>
      </trkpt>
      <trkpt lat="47.16796" lon="-1.62538">
        <ele>72</ele>
        <time>2022-03-27T13:33:09Z</time>
      </trkpt>
      <trkpt lat="47.16794" lon="-1.62555">
        <ele>73</ele>
        <time>2022-03-27T13:33:12Z</time>
      </trkpt>
      <trkpt lat="47.16789" lon="-1.6257">
        <ele>72</ele>
        <time>2022-03-27T13:33:15Z</time>
      </trkpt>
      <trkpt lat="47.16784" lon="-1.62585">
        <ele>73</ele>
        <time>2022-03-27T13:33:19Z</time>
      </trkpt>
      <trkpt lat="47.16787" lon="-1.626">
        <ele>73</ele>
        <time>2022-03-27T13:33:24Z</time>
      </trkpt>
      <trkpt lat="47.16795" lon="-1.6261">
        <ele>73</ele>
        <time>2022-03-27T13:33:27Z</time>
      </trkpt>
      <trkpt lat="47.16802" lon="-1.6262">
        <ele>73</ele>
        <time>2022-03-27T13:33:30Z</time>
      </trkpt>
      <trkpt lat="47.16802" lon="-1.62634">
        <ele>73</ele>
        <time>2022-03-27T13:33:33Z</time>
      </trkpt>
      <trkpt lat="47.16793" lon="-1.62648">
        <ele>74</ele>
        <time>2022-03-27T13:33:36Z</time>
      </trkpt>
      <trkpt lat="47.16787" lon="-1.62661">
        <ele>73</ele>
        <time>2022-03-27T13:33:39Z</time>
      </trkpt>
      <trkpt lat="47.16779" lon="-1.62656">
        <ele>73</ele>
        <time>2022-03-27T13:33:43Z</time>
      </trkpt>
    </trkseg>
  </trk>
</gpx>